<?xml version='1.0' encoding='UTF-8'?><gpx version="1.1" creator="JPX - https://github.com/jenetics/jpx" xmlns="http://www.topografix.com/GPX/1/1"><trk><trkseg><trkpt lat="42.8198445" lon="13.5288335"><ele>569.0</ele><time>2026-04-04T07:11:01.031Z</time></trkpt><trkpt lat="42.8199022" lon="13.5289133"><ele>569.0</ele><time>2026-04-04T07:11:04.031Z</time></trkpt><trkpt lat="42.8199825" lon="13.5289391"><ele>569.0</ele><time>2026-04-04T07:11:20.031Z</time></trkpt><trkpt lat="42.8200585" lon="13.5289352"><ele>569.0</ele><time>2026-04-04T07:11:22.031Z</time></trkpt><trkpt lat="42.8201401" lon="13.5289187"><ele>569.0</ele><time>2026-04-04T07:11:24.031Z</time></trkpt><trkpt lat="42.8202322" lon="13.5289243"><ele>569.0</ele><time>2026-04-04T07:11:26.031Z</time></trkpt><trkpt lat="42.8203234" lon="13.5289363"><ele>570.6</ele><time>2026-04-04T07:11:28.031Z</time></trkpt><trkpt lat="42.8204149" lon="13.5289447"><ele>572.2</ele><time>2026-04-04T07:11:30.031Z</time></trkpt><trkpt lat="42.8205199" lon="13.5289415"><ele>573.8000000000001</ele><time>2026-04-04T07:11:32.031Z</time></trkpt><trkpt lat="42.8206272" lon="13.5289205"><ele>575.4</ele><time>2026-04-04T07:11:34.031Z</time></trkpt><trkpt lat="42.8207401" lon="13.5289035"><ele>577.0</ele><time>2026-04-04T07:11:36.031Z</time></trkpt><trkpt lat="42.8208618" lon="13.5289103"><ele>577.0</ele><time>2026-04-04T07:11:38.031Z</time></trkpt><trkpt lat="42.8209748" lon="13.5289388"><ele>577.0</ele><time>2026-04-04T07:11:40.031Z</time></trkpt><trkpt lat="42.8210484" lon="13.5289602"><ele>577.0</ele><time>2026-04-04T07:11:41.031Z</time></trkpt><trkpt lat="42.8211279" lon="13.5289929"><ele>577.0</ele><time>2026-04-04T07:11:42.031Z</time></trkpt><trkpt lat="42.821211" lon="13.5290209"><ele>577.0</ele><time>2026-04-04T07:11:43.031Z</time></trkpt><trkpt lat="42.8212886" lon="13.5290501"><ele>577.0</ele><time>2026-04-04T07:11:44.03Z</time></trkpt><trkpt lat="42.821365" lon="13.529078"><ele>577.1428571428571</ele><time>2026-04-04T07:11:45.03Z</time></trkpt><trkpt lat="42.8214347" lon="13.5291002"><ele>577.2857142857143</ele><time>2026-04-04T07:11:46.03Z</time></trkpt><trkpt lat="42.8215028" lon="13.5291243"><ele>577.4285714285714</ele><time>2026-04-04T07:11:47.031Z</time></trkpt><trkpt lat="42.8215724" lon="13.5291527"><ele>577.5714285714286</ele><time>2026-04-04T07:11:48.031Z</time></trkpt><trkpt lat="42.8216498" lon="13.5291773"><ele>577.7142857142857</ele><time>2026-04-04T07:11:49.031Z</time></trkpt><trkpt lat="42.8217228" lon="13.5291884"><ele>577.8571428571429</ele><time>2026-04-04T07:11:50.031Z</time></trkpt><trkpt lat="42.8218027" lon="13.529196"><ele>578.0</ele><time>2026-04-04T07:11:51.031Z</time></trkpt><trkpt lat="42.8218851" lon="13.5291948"><ele>579.3333333333333</ele><time>2026-04-04T07:11:52.031Z</time></trkpt><trkpt lat="42.8219604" lon="13.5291718"><ele>580.6666666666666</ele><time>2026-04-04T07:11:53.031Z</time></trkpt><trkpt lat="42.8220353" lon="13.5291311"><ele>582.0</ele><time>2026-04-04T07:11:54.031Z</time></trkpt><trkpt lat="42.8221074" lon="13.5290818"><ele>583.3333333333334</ele><time>2026-04-04T07:11:55.031Z</time></trkpt><trkpt lat="42.8221789" lon="13.5290247"><ele>584.6666666666667</ele><time>2026-04-04T07:11:56.03Z</time></trkpt><trkpt lat="42.8222531" lon="13.5289759"><ele>586.0</ele><time>2026-04-04T07:11:57.031Z</time></trkpt><trkpt lat="42.8223264" lon="13.528934"><ele>586.0</ele><time>2026-04-04T07:11:58.031Z</time></trkpt><trkpt lat="42.8224044" lon="13.5289077"><ele>586.0</ele><time>2026-04-04T07:11:59.031Z</time></trkpt><trkpt lat="42.8224834" lon="13.5288848"><ele>586.0</ele><time>2026-04-04T07:12:00.031Z</time></trkpt><trkpt lat="42.8225781" lon="13.5288667"><ele>586.0</ele><time>2026-04-04T07:12:01.031Z</time></trkpt><trkpt lat="42.8226691" lon="13.5288653"><ele>586.0</ele><time>2026-04-04T07:12:02.031Z</time></trkpt><trkpt lat="42.8227497" lon="13.5288227"><ele>586.0</ele><time>2026-04-04T07:12:03.031Z</time></trkpt><trkpt lat="42.8228243" lon="13.5287569"><ele>582.6</ele><time>2026-04-04T07:12:04.031Z</time></trkpt><trkpt lat="42.8228942" lon="13.5286903"><ele>579.2</ele><time>2026-04-04T07:12:05.03Z</time></trkpt><trkpt lat="42.8229593" lon="13.5286071"><ele>575.8</ele><time>2026-04-04T07:12:06.031Z</time></trkpt><trkpt lat="42.8230411" lon="13.5285276"><ele>572.4</ele><time>2026-04-04T07:12:07.031Z</time></trkpt><trkpt lat="42.8231234" lon="13.5284578"><ele>569.0</ele><time>2026-04-04T07:12:08.031Z</time></trkpt><trkpt lat="42.8232054" lon="13.528394"><ele>569.0</ele><time>2026-04-04T07:12:09.031Z</time></trkpt><trkpt lat="42.8232854" lon="13.5283356"><ele>569.0</ele><time>2026-04-04T07:12:10.031Z</time></trkpt><trkpt lat="42.8233656" lon="13.5282873"><ele>569.0</ele><time>2026-04-04T07:12:11.031Z</time></trkpt><trkpt lat="42.8234402" lon="13.5282472"><ele>569.0</ele><time>2026-04-04T07:12:12.031Z</time></trkpt><trkpt lat="42.823514" lon="13.5282228"><ele>569.0</ele><time>2026-04-04T07:12:13.031Z</time></trkpt><trkpt lat="42.8235988" lon="13.5282112"><ele>569.0</ele><time>2026-04-04T07:12:14.031Z</time></trkpt><trkpt lat="42.8236787" lon="13.5282095"><ele>569.0</ele><time>2026-04-04T07:12:15.031Z</time></trkpt><trkpt lat="42.823772" lon="13.5282146"><ele>569.0</ele><time>2026-04-04T07:12:16.031Z</time></trkpt><trkpt lat="42.8238712" lon="13.5282307"><ele>569.0</ele><time>2026-04-04T07:12:17.03Z</time></trkpt><trkpt lat="42.8239683" lon="13.5282532"><ele>569.0</ele><time>2026-04-04T07:12:18.031Z</time></trkpt><trkpt lat="42.8240561" lon="13.5282769"><ele>569.0</ele><time>2026-04-04T07:12:19.031Z</time></trkpt><trkpt lat="42.8241416" lon="13.5282933"><ele>569.0</ele><time>2026-04-04T07:12:20.031Z</time></trkpt><trkpt lat="42.8242315" lon="13.5283016"><ele>569.0</ele><time>2026-04-04T07:12:21.031Z</time></trkpt><trkpt lat="42.8243106" lon="13.5282951"><ele>569.0</ele><time>2026-04-04T07:12:22.031Z</time></trkpt><trkpt lat="42.8243882" lon="13.5282948"><ele>569.0</ele><time>2026-04-04T07:12:23.031Z</time></trkpt><trkpt lat="42.824459" lon="13.5283096"><ele>569.0</ele><time>2026-04-04T07:12:24.031Z</time></trkpt><trkpt lat="42.8245327" lon="13.5283483"><ele>569.0</ele><time>2026-04-04T07:12:25.031Z</time></trkpt><trkpt lat="42.82459" lon="13.5283965"><ele>568.5</ele><time>2026-04-04T07:12:26.031Z</time></trkpt><trkpt lat="42.82464" lon="13.5284549"><ele>568.0</ele><time>2026-04-04T07:12:27.031Z</time></trkpt><trkpt lat="42.824695" lon="13.5285235"><ele>567.5</ele><time>2026-04-04T07:12:28.03Z</time></trkpt><trkpt lat="42.8247559" lon="13.5285981"><ele>567.0</ele><time>2026-04-04T07:12:29.031Z</time></trkpt><trkpt lat="42.8248239" lon="13.5286863"><ele>566.5</ele><time>2026-04-04T07:12:30.031Z</time></trkpt><trkpt lat="42.8248943" lon="13.5287605"><ele>566.0</ele><time>2026-04-04T07:12:31.031Z</time></trkpt><trkpt lat="42.8249755" lon="13.5288287"><ele>566.0</ele><time>2026-04-04T07:12:32.031Z</time></trkpt><trkpt lat="42.8250571" lon="13.5288789"><ele>566.0</ele><time>2026-04-04T07:12:33.031Z</time></trkpt><trkpt lat="42.8251388" lon="13.5289117"><ele>566.0</ele><time>2026-04-04T07:12:34.031Z</time></trkpt><trkpt lat="42.825222" lon="13.5289468"><ele>566.0</ele><time>2026-04-04T07:12:35.031Z</time></trkpt><trkpt lat="42.8252977" lon="13.5289874"><ele>566.0</ele><time>2026-04-04T07:12:36.03Z</time></trkpt><trkpt lat="42.8253746" lon="13.5290416"><ele>566.0</ele><time>2026-04-04T07:12:37.031Z</time></trkpt><trkpt lat="42.8254452" lon="13.5291141"><ele>564.3333333333333</ele><time>2026-04-04T07:12:38.031Z</time></trkpt><trkpt lat="42.82551" lon="13.5291959"><ele>562.6666666666666</ele><time>2026-04-04T07:12:39.031Z</time></trkpt><trkpt lat="42.8255688" lon="13.52928"><ele>561.0</ele><time>2026-04-04T07:12:40.031Z</time></trkpt><trkpt lat="42.8256183" lon="13.5293521"><ele>559.3333333333334</ele><time>2026-04-04T07:12:41.031Z</time></trkpt><trkpt lat="42.8256703" lon="13.5294307"><ele>557.6666666666667</ele><time>2026-04-04T07:12:42.031Z</time></trkpt><trkpt lat="42.8257237" lon="13.5295049"><ele>556.0</ele><time>2026-04-04T07:12:43.031Z</time></trkpt><trkpt lat="42.8257801" lon="13.52958"><ele>556.0</ele><time>2026-04-04T07:12:44.031Z</time></trkpt><trkpt lat="42.8258354" lon="13.5296551"><ele>556.0</ele><time>2026-04-04T07:12:45.031Z</time></trkpt><trkpt lat="42.8258909" lon="13.5297416"><ele>556.0</ele><time>2026-04-04T07:12:46.031Z</time></trkpt><trkpt lat="42.8259512" lon="13.5298214"><ele>556.0</ele><time>2026-04-04T07:12:47.031Z</time></trkpt><trkpt lat="42.8260144" lon="13.5298926"><ele>556.0</ele><time>2026-04-04T07:12:48.031Z</time></trkpt><trkpt lat="42.8260821" lon="13.5299601"><ele>556.0</ele><time>2026-04-04T07:12:49.031Z</time></trkpt><trkpt lat="42.8261515" lon="13.530011"><ele>553.6666666666667</ele><time>2026-04-04T07:12:50.031Z</time></trkpt><trkpt lat="42.8262229" lon="13.5300338"><ele>551.3333333333334</ele><time>2026-04-04T07:12:51.031Z</time></trkpt><trkpt lat="42.8263025" lon="13.530049"><ele>549.0</ele><time>2026-04-04T07:12:52.031Z</time></trkpt><trkpt lat="42.826386" lon="13.5300585"><ele>546.6666666666666</ele><time>2026-04-04T07:12:53.031Z</time></trkpt><trkpt lat="42.8264723" lon="13.5300758"><ele>544.3333333333333</ele><time>2026-04-04T07:12:54.03Z</time></trkpt><trkpt lat="42.826552" lon="13.5301069"><ele>542.0</ele><time>2026-04-04T07:12:55.031Z</time></trkpt><trkpt lat="42.8266295" lon="13.5301624"><ele>542.0</ele><time>2026-04-04T07:12:56.031Z</time></trkpt><trkpt lat="42.8266972" lon="13.5302348"><ele>542.0</ele><time>2026-04-04T07:12:57.031Z</time></trkpt><trkpt lat="42.8267601" lon="13.5303112"><ele>542.0</ele><time>2026-04-04T07:12:58.031Z</time></trkpt><trkpt lat="42.8268247" lon="13.530391"><ele>542.0</ele><time>2026-04-04T07:12:59.031Z</time></trkpt><trkpt lat="42.8268947" lon="13.5304788"><ele>542.0</ele><time>2026-04-04T07:13:00.031Z</time></trkpt><trkpt lat="42.8269665" lon="13.5305656"><ele>542.0</ele><time>2026-04-04T07:13:01.031Z</time></trkpt><trkpt lat="42.8270381" lon="13.5306472"><ele>542.6666666666666</ele><time>2026-04-04T07:13:02.031Z</time></trkpt><trkpt lat="42.8270968" lon="13.5307308"><ele>543.3333333333333</ele><time>2026-04-04T07:13:03.031Z</time></trkpt><trkpt lat="42.827144" lon="13.5308188"><ele>544.0</ele><time>2026-04-04T07:13:04.031Z</time></trkpt><trkpt lat="42.827185" lon="13.5309128"><ele>544.6666666666666</ele><time>2026-04-04T07:13:05.031Z</time></trkpt><trkpt lat="42.8272125" lon="13.5310019"><ele>545.3333333333334</ele><time>2026-04-04T07:13:06.031Z</time></trkpt><trkpt lat="42.8272319" lon="13.5311647"><ele>546.0</ele><time>2026-04-04T07:13:08.031Z</time></trkpt><trkpt lat="42.8272034" lon="13.5314145"><ele>546.0</ele><time>2026-04-04T07:13:11.031Z</time></trkpt><trkpt lat="42.8272005" lon="13.5315833"><ele>546.0</ele><time>2026-04-04T07:13:13.031Z</time></trkpt><trkpt lat="42.8272288" lon="13.5317306"><ele>546.0</ele><time>2026-04-04T07:13:15.031Z</time></trkpt><trkpt lat="42.8272957" lon="13.5318099"><ele>546.0</ele><time>2026-04-04T07:13:17.031Z</time></trkpt><trkpt lat="42.8273733" lon="13.5318093"><ele>546.0</ele><time>2026-04-04T07:13:19.031Z</time></trkpt><trkpt lat="42.827439" lon="13.5317277"><ele>546.0</ele><time>2026-04-04T07:13:21.031Z</time></trkpt><trkpt lat="42.8274719" lon="13.5316412"><ele>546.0</ele><time>2026-04-04T07:13:22.031Z</time></trkpt><trkpt lat="42.8275275" lon="13.5315742"><ele>546.0</ele><time>2026-04-04T07:13:23.031Z</time></trkpt><trkpt lat="42.8275931" lon="13.5315262"><ele>546.0</ele><time>2026-04-04T07:13:24.031Z</time></trkpt><trkpt lat="42.8276575" lon="13.5314854"><ele>546.0</ele><time>2026-04-04T07:13:25.031Z</time></trkpt><trkpt lat="42.8277225" lon="13.5314489"><ele>546.0</ele><time>2026-04-04T07:13:26.031Z</time></trkpt><trkpt lat="42.8277936" lon="13.531398"><ele>546.0</ele><time>2026-04-04T07:13:27.03Z</time></trkpt><trkpt lat="42.82786" lon="13.5313479"><ele>543.1666666666666</ele><time>2026-04-04T07:13:28.031Z</time></trkpt><trkpt lat="42.8279202" lon="13.5313054"><ele>540.3333333333334</ele><time>2026-04-04T07:13:29.031Z</time></trkpt><trkpt lat="42.8279871" lon="13.5312935"><ele>537.5</ele><time>2026-04-04T07:13:30.031Z</time></trkpt><trkpt lat="42.8280565" lon="13.5313239"><ele>534.6666666666667</ele><time>2026-04-04T07:13:31.031Z</time></trkpt><trkpt lat="42.8281221" lon="13.5313817"><ele>531.8333333333334</ele><time>2026-04-04T07:13:32.031Z</time></trkpt><trkpt lat="42.8281813" lon="13.5314567"><ele>529.0</ele><time>2026-04-04T07:13:33.031Z</time></trkpt><trkpt lat="42.8282366" lon="13.5315437"><ele>529.0</ele><time>2026-04-04T07:13:34.031Z</time></trkpt><trkpt lat="42.828285" lon="13.5316265"><ele>529.0</ele><time>2026-04-04T07:13:35.031Z</time></trkpt><trkpt lat="42.8283256" lon="13.5317105"><ele>529.0</ele><time>2026-04-04T07:13:36.031Z</time></trkpt><trkpt lat="42.8283527" lon="13.5317951"><ele>529.0</ele><time>2026-04-04T07:13:37.031Z</time></trkpt><trkpt lat="42.8283602" lon="13.5319618"><ele>529.0</ele><time>2026-04-04T07:13:39.031Z</time></trkpt><trkpt lat="42.8283929" lon="13.532072"><ele>529.0</ele><time>2026-04-04T07:13:41.031Z</time></trkpt><trkpt lat="42.8284938" lon="13.5321559"><ele>528.7142857142858</ele><time>2026-04-04T07:13:43.031Z</time></trkpt><trkpt lat="42.8285465" lon="13.5322092"><ele>528.4285714285714</ele><time>2026-04-04T07:13:44.031Z</time></trkpt><trkpt lat="42.8285985" lon="13.5322605"><ele>528.1428571428571</ele><time>2026-04-04T07:13:45.031Z</time></trkpt><trkpt lat="42.8286517" lon="13.5323156"><ele>527.8571428571429</ele><time>2026-04-04T07:13:46.031Z</time></trkpt><trkpt lat="42.828701" lon="13.5323793"><ele>527.5714285714286</ele><time>2026-04-04T07:13:47.031Z</time></trkpt><trkpt lat="42.8287523" lon="13.5324396"><ele>527.2857142857143</ele><time>2026-04-04T07:13:48.031Z</time></trkpt><trkpt lat="42.8288009" lon="13.5324997"><ele>527.0</ele><time>2026-04-04T07:13:49.031Z</time></trkpt><trkpt lat="42.8288525" lon="13.5325596"><ele>527.0000000000001</ele><time>2026-04-04T07:13:50.031Z</time></trkpt><trkpt lat="42.8289028" lon="13.5326285"><ele>527.0</ele><time>2026-04-04T07:13:51.031Z</time></trkpt><trkpt lat="42.8289423" lon="13.532705"><ele>527.0</ele><time>2026-04-04T07:13:52.031Z</time></trkpt><trkpt lat="42.82897" lon="13.5327884"><ele>527.0</ele><time>2026-04-04T07:13:53.031Z</time></trkpt><trkpt lat="42.8289894" lon="13.5328723"><ele>527.0</ele><time>2026-04-04T07:13:54.03Z</time></trkpt><trkpt lat="42.8289973" lon="13.5329632"><ele>527.0000000000001</ele><time>2026-04-04T07:13:55.031Z</time></trkpt><trkpt lat="42.8290032" lon="13.5330535"><ele>527.0</ele><time>2026-04-04T07:13:56.031Z</time></trkpt><trkpt lat="42.8290105" lon="13.5331496"><ele>527.6666666666666</ele><time>2026-04-04T07:13:57.031Z</time></trkpt><trkpt lat="42.8290203" lon="13.5332438"><ele>528.3333333333333</ele><time>2026-04-04T07:13:58.031Z</time></trkpt><trkpt lat="42.8290435" lon="13.5333389"><ele>529.0</ele><time>2026-04-04T07:13:59.031Z</time></trkpt><trkpt lat="42.8290725" lon="13.5334382"><ele>529.6666666666666</ele><time>2026-04-04T07:14:00.031Z</time></trkpt><trkpt lat="42.8291015" lon="13.5335383"><ele>530.3333333333334</ele><time>2026-04-04T07:14:01.03Z</time></trkpt><trkpt lat="42.8291252" lon="13.533638"><ele>531.0</ele><time>2026-04-04T07:14:02.031Z</time></trkpt><trkpt lat="42.8291479" lon="13.5337355"><ele>531.75</ele><time>2026-04-04T07:14:03.031Z</time></trkpt><trkpt lat="42.8291614" lon="13.5338952"><ele>532.5</ele><time>2026-04-04T07:14:05.031Z</time></trkpt><trkpt lat="42.8291075" lon="13.5340294"><ele>533.25</ele><time>2026-04-04T07:14:07.03Z</time></trkpt><trkpt lat="42.828994" lon="13.5340885"><ele>534.0</ele><time>2026-04-04T07:14:09.031Z</time></trkpt><trkpt lat="42.8288973" lon="13.5341502"><ele>534.0</ele><time>2026-04-04T07:14:11.031Z</time></trkpt><trkpt lat="42.8288786" lon="13.5342411"><ele>534.0</ele><time>2026-04-04T07:14:13.031Z</time></trkpt><trkpt lat="42.8289294" lon="13.5343231"><ele>534.0</ele><time>2026-04-04T07:14:15.031Z</time></trkpt><trkpt lat="42.8290178" lon="13.5343726"><ele>534.0</ele><time>2026-04-04T07:14:17.031Z</time></trkpt><trkpt lat="42.8291104" lon="13.5344439"><ele>534.0</ele><time>2026-04-04T07:14:19.031Z</time></trkpt><trkpt lat="42.8291585" lon="13.534508"><ele>534.0</ele><time>2026-04-04T07:14:20.031Z</time></trkpt><trkpt lat="42.8292123" lon="13.5345692"><ele>535.2857142857143</ele><time>2026-04-04T07:14:21.031Z</time></trkpt><trkpt lat="42.8292793" lon="13.534612"><ele>536.5714285714286</ele><time>2026-04-04T07:14:22.031Z</time></trkpt><trkpt lat="42.8293501" lon="13.5346175"><ele>537.8571428571429</ele><time>2026-04-04T07:14:23.031Z</time></trkpt><trkpt lat="42.8294182" lon="13.53459"><ele>539.1428571428571</ele><time>2026-04-04T07:14:24.031Z</time></trkpt><trkpt lat="42.8294861" lon="13.5345498"><ele>540.4285714285714</ele><time>2026-04-04T07:14:25.031Z</time></trkpt><trkpt lat="42.8295544" lon="13.5345059"><ele>541.7142857142858</ele><time>2026-04-04T07:14:26.03Z</time></trkpt><trkpt lat="42.829623" lon="13.53448"><ele>543.0</ele><time>2026-04-04T07:14:27.031Z</time></trkpt><trkpt lat="42.8296981" lon="13.5344712"><ele>543.0</ele><time>2026-04-04T07:14:28.031Z</time></trkpt><trkpt lat="42.829772" lon="13.5344843"><ele>543.0</ele><time>2026-04-04T07:14:29.031Z</time></trkpt><trkpt lat="42.8298482" lon="13.5345124"><ele>543.0</ele><time>2026-04-04T07:14:30.031Z</time></trkpt><trkpt lat="42.8299194" lon="13.5345388"><ele>543.0</ele><time>2026-04-04T07:14:31.03Z</time></trkpt><trkpt lat="42.829994" lon="13.5345576"><ele>543.0</ele><time>2026-04-04T07:14:32.031Z</time></trkpt><trkpt lat="42.8300694" lon="13.5345792"><ele>543.0</ele><time>2026-04-04T07:14:33.031Z</time></trkpt><trkpt lat="42.8301417" lon="13.5345935"><ele>540.5</ele><time>2026-04-04T07:14:34.031Z</time></trkpt><trkpt lat="42.830213" lon="13.534621"><ele>538.0</ele><time>2026-04-04T07:14:35.031Z</time></trkpt><trkpt lat="42.8302879" lon="13.5346634"><ele>535.5</ele><time>2026-04-04T07:14:36.031Z</time></trkpt><trkpt lat="42.8303615" lon="13.5347149"><ele>533.0</ele><time>2026-04-04T07:14:37.031Z</time></trkpt><trkpt lat="42.8304315" lon="13.5347737"><ele>530.5</ele><time>2026-04-04T07:14:38.031Z</time></trkpt><trkpt lat="42.8304983" lon="13.5348343"><ele>528.0</ele><time>2026-04-04T07:14:39.031Z</time></trkpt><trkpt lat="42.8305708" lon="13.534897"><ele>528.0</ele><time>2026-04-04T07:14:40.031Z</time></trkpt><trkpt lat="42.830641" lon="13.5349579"><ele>528.0</ele><time>2026-04-04T07:14:41.031Z</time></trkpt><trkpt lat="42.8307127" lon="13.5350236"><ele>528.0</ele><time>2026-04-04T07:14:42.031Z</time></trkpt><trkpt lat="42.8307842" lon="13.53509"><ele>528.0</ele><time>2026-04-04T07:14:43.031Z</time></trkpt><trkpt lat="42.8308504" lon="13.5351528"><ele>528.0</ele><time>2026-04-04T07:14:44.031Z</time></trkpt><trkpt lat="42.8309138" lon="13.5352172"><ele>528.0</ele><time>2026-04-04T07:14:45.031Z</time></trkpt><trkpt lat="42.8309819" lon="13.5352685"><ele>527.0</ele><time>2026-04-04T07:14:46.031Z</time></trkpt><trkpt lat="42.8310519" lon="13.5353088"><ele>526.0</ele><time>2026-04-04T07:14:47.031Z</time></trkpt><trkpt lat="42.8311253" lon="13.5353395"><ele>525.0</ele><time>2026-04-04T07:14:48.031Z</time></trkpt><trkpt lat="42.8311963" lon="13.535344"><ele>524.0</ele><time>2026-04-04T07:14:49.031Z</time></trkpt><trkpt lat="42.8312617" lon="13.535317"><ele>523.0</ele><time>2026-04-04T07:14:50.031Z</time></trkpt><trkpt lat="42.8313272" lon="13.5352802"><ele>522.0</ele><time>2026-04-04T07:14:51.031Z</time></trkpt><trkpt lat="42.831393" lon="13.5352441"><ele>521.0</ele><time>2026-04-04T07:14:52.031Z</time></trkpt><trkpt lat="42.8314565" lon="13.5352103"><ele>521.0</ele><time>2026-04-04T07:14:53.031Z</time></trkpt><trkpt lat="42.8315199" lon="13.5351874"><ele>521.0</ele><time>2026-04-04T07:14:54.031Z</time></trkpt><trkpt lat="42.8316453" lon="13.5351877"><ele>521.0</ele><time>2026-04-04T07:14:56.031Z</time></trkpt><trkpt lat="42.8317163" lon="13.535217"><ele>521.0</ele><time>2026-04-04T07:14:57.031Z</time></trkpt><trkpt lat="42.8317835" lon="13.5352563"><ele>521.0</ele><time>2026-04-04T07:14:58.031Z</time></trkpt><trkpt lat="42.8318468" lon="13.5353015"><ele>521.0</ele><time>2026-04-04T07:14:59.031Z</time></trkpt><trkpt lat="42.8319017" lon="13.5353581"><ele>519.6</ele><time>2026-04-04T07:15:00.031Z</time></trkpt><trkpt lat="42.8319551" lon="13.5354132"><ele>518.2</ele><time>2026-04-04T07:15:01.031Z</time></trkpt><trkpt lat="42.8320568" lon="13.5354318"><ele>516.8</ele><time>2026-04-04T07:15:03.031Z</time></trkpt><trkpt lat="42.8321618" lon="13.5353438"><ele>515.4</ele><time>2026-04-04T07:15:05.031Z</time></trkpt><trkpt lat="42.8322079" lon="13.5352786"><ele>514.0</ele><time>2026-04-04T07:15:06.031Z</time></trkpt><trkpt lat="42.8323049" lon="13.5351942"><ele>514.0</ele><time>2026-04-04T07:15:08.031Z</time></trkpt><trkpt lat="42.8324086" lon="13.5352217"><ele>514.0</ele><time>2026-04-04T07:15:10.031Z</time></trkpt><trkpt lat="42.8325027" lon="13.5353042"><ele>514.0</ele><time>2026-04-04T07:15:12.031Z</time></trkpt><trkpt lat="42.8326117" lon="13.535313"><ele>514.0</ele><time>2026-04-04T07:15:14.031Z</time></trkpt><trkpt lat="42.8326744" lon="13.5352982"><ele>514.0</ele><time>2026-04-04T07:15:15.031Z</time></trkpt><trkpt lat="42.8327398" lon="13.5352825"><ele>513.0</ele><time>2026-04-04T07:15:16.03Z</time></trkpt><trkpt lat="42.8328125" lon="13.5352641"><ele>512.0</ele><time>2026-04-04T07:15:17.031Z</time></trkpt><trkpt lat="42.8328843" lon="13.5352374"><ele>511.0</ele><time>2026-04-04T07:15:18.03Z</time></trkpt><trkpt lat="42.8329565" lon="13.5352204"><ele>510.0</ele><time>2026-04-04T07:15:19.031Z</time></trkpt><trkpt lat="42.8330355" lon="13.5351994"><ele>509.00000000000006</ele><time>2026-04-04T07:15:20.031Z</time></trkpt><trkpt lat="42.8331171" lon="13.5351796"><ele>508.0</ele><time>2026-04-04T07:15:21.031Z</time></trkpt><trkpt lat="42.8331977" lon="13.5351638"><ele>508.0</ele><time>2026-04-04T07:15:22.031Z</time></trkpt><trkpt lat="42.8332703" lon="13.5351614"><ele>508.0</ele><time>2026-04-04T07:15:23.031Z</time></trkpt><trkpt lat="42.8333353" lon="13.5351665"><ele>508.0</ele><time>2026-04-04T07:15:24.031Z</time></trkpt><trkpt lat="42.8334011" lon="13.5351875"><ele>508.0</ele><time>2026-04-04T07:15:25.031Z</time></trkpt><trkpt lat="42.8334734" lon="13.5352013"><ele>508.0</ele><time>2026-04-04T07:15:26.031Z</time></trkpt><trkpt lat="42.8335442" lon="13.5351935"><ele>508.0</ele><time>2026-04-04T07:15:27.031Z</time></trkpt><trkpt lat="42.8336204" lon="13.5351773"><ele>508.0</ele><time>2026-04-04T07:15:28.031Z</time></trkpt><trkpt lat="42.8337062" lon="13.5351644"><ele>507.33333333333337</ele><time>2026-04-04T07:15:29.031Z</time></trkpt><trkpt lat="42.8337901" lon="13.5351607"><ele>506.6666666666667</ele><time>2026-04-04T07:15:30.031Z</time></trkpt><trkpt lat="42.8338752" lon="13.5351652"><ele>506.0</ele><time>2026-04-04T07:15:31.031Z</time></trkpt><trkpt lat="42.8339701" lon="13.5351783"><ele>505.33333333333337</ele><time>2026-04-04T07:15:32.031Z</time></trkpt><trkpt lat="42.834035" lon="13.535178"><ele>504.6666666666667</ele><time>2026-04-04T07:15:33.031Z</time></trkpt><trkpt lat="42.8341186" lon="13.5352061"><ele>504.0</ele><time>2026-04-04T07:15:34.031Z</time></trkpt><trkpt lat="42.8341899" lon="13.5352501"><ele>504.0</ele><time>2026-04-04T07:15:35.031Z</time></trkpt><trkpt lat="42.8342694" lon="13.5353223"><ele>504.0</ele><time>2026-04-04T07:15:36.031Z</time></trkpt><trkpt lat="42.8343367" lon="13.5354088"><ele>504.0</ele><time>2026-04-04T07:15:37.031Z</time></trkpt><trkpt lat="42.8343797" lon="13.535486"><ele>504.0</ele><time>2026-04-04T07:15:38.031Z</time></trkpt><trkpt lat="42.8344316" lon="13.5355793"><ele>504.0</ele><time>2026-04-04T07:15:39.031Z</time></trkpt><trkpt lat="42.834477" lon="13.535679"><ele>504.0</ele><time>2026-04-04T07:15:40.031Z</time></trkpt><trkpt lat="42.8345115" lon="13.535766"><ele>502.42857142857144</ele><time>2026-04-04T07:15:41.031Z</time></trkpt><trkpt lat="42.8345571" lon="13.535845"><ele>500.8571428571429</ele><time>2026-04-04T07:15:42.031Z</time></trkpt><trkpt lat="42.8346054" lon="13.53592"><ele>499.2857142857143</ele><time>2026-04-04T07:15:43.031Z</time></trkpt><trkpt lat="42.8346515" lon="13.535998"><ele>497.7142857142857</ele><time>2026-04-04T07:15:44.03Z</time></trkpt><trkpt lat="42.8346964" lon="13.5360795"><ele>496.14285714285717</ele><time>2026-04-04T07:15:45.031Z</time></trkpt><trkpt lat="42.8347353" lon="13.5361659"><ele>494.57142857142856</ele><time>2026-04-04T07:15:46.031Z</time></trkpt><trkpt lat="42.8347668" lon="13.5362592"><ele>493.0</ele><time>2026-04-04T07:15:47.031Z</time></trkpt><trkpt lat="42.8347955" lon="13.5363566"><ele>493.0</ele><time>2026-04-04T07:15:48.031Z</time></trkpt><trkpt lat="42.8348239" lon="13.5364519"><ele>492.99999999999994</ele><time>2026-04-04T07:15:49.031Z</time></trkpt><trkpt lat="42.834847" lon="13.5365554"><ele>492.99999999999994</ele><time>2026-04-04T07:15:50.031Z</time></trkpt><trkpt lat="42.83487" lon="13.5366797"><ele>493.0</ele><time>2026-04-04T07:15:51.031Z</time></trkpt><trkpt lat="42.8348973" lon="13.5368132"><ele>493.0</ele><time>2026-04-04T07:15:52.031Z</time></trkpt><trkpt lat="42.8349198" lon="13.5369493"><ele>493.2</ele><time>2026-04-04T07:15:53.031Z</time></trkpt><trkpt lat="42.8349365" lon="13.5370864"><ele>493.4</ele><time>2026-04-04T07:15:54.031Z</time></trkpt><trkpt lat="42.8349468" lon="13.5372207"><ele>493.59999999999997</ele><time>2026-04-04T07:15:55.031Z</time></trkpt><trkpt lat="42.834958" lon="13.5373554"><ele>493.79999999999995</ele><time>2026-04-04T07:15:56.031Z</time></trkpt><trkpt lat="42.8349872" lon="13.5374873"><ele>494.0</ele><time>2026-04-04T07:15:57.031Z</time></trkpt><trkpt lat="42.8350242" lon="13.5376255"><ele>493.99999999999994</ele><time>2026-04-04T07:15:58.031Z</time></trkpt><trkpt lat="42.8350635" lon="13.5377576"><ele>494.0</ele><time>2026-04-04T07:15:59.031Z</time></trkpt><trkpt lat="42.835099" lon="13.5378701"><ele>494.0</ele><time>2026-04-04T07:16:00.03Z</time></trkpt><trkpt lat="42.8351345" lon="13.5379784"><ele>494.0</ele><time>2026-04-04T07:16:01.031Z</time></trkpt><trkpt lat="42.8351677" lon="13.5380821"><ele>493.99999999999994</ele><time>2026-04-04T07:16:02.031Z</time></trkpt><trkpt lat="42.8351954" lon="13.5381913"><ele>494.0</ele><time>2026-04-04T07:16:03.031Z</time></trkpt><trkpt lat="42.8352381" lon="13.5383058"><ele>491.99999999999994</ele><time>2026-04-04T07:16:04.031Z</time></trkpt><trkpt lat="42.8352838" lon="13.5384073"><ele>490.0</ele><time>2026-04-04T07:16:05.031Z</time></trkpt><trkpt lat="42.8353235" lon="13.5385174"><ele>488.0</ele><time>2026-04-04T07:16:06.031Z</time></trkpt><trkpt lat="42.8353616" lon="13.538629"><ele>486.0</ele><time>2026-04-04T07:16:07.03Z</time></trkpt><trkpt lat="42.8353895" lon="13.5387412"><ele>483.99999999999994</ele><time>2026-04-04T07:16:08.031Z</time></trkpt><trkpt lat="42.8354088" lon="13.53885"><ele>482.0</ele><time>2026-04-04T07:16:09.031Z</time></trkpt><trkpt lat="42.8354102" lon="13.5389438"><ele>481.99999999999994</ele><time>2026-04-04T07:16:10.031Z</time></trkpt><trkpt lat="42.8354426" lon="13.5390518"><ele>482.0</ele><time>2026-04-04T07:16:11.031Z</time></trkpt><trkpt lat="42.8354866" lon="13.5391484"><ele>482.0</ele><time>2026-04-04T07:16:12.031Z</time></trkpt><trkpt lat="42.8355439" lon="13.5392343"><ele>482.0</ele><time>2026-04-04T07:16:13.031Z</time></trkpt><trkpt lat="42.8356001" lon="13.5393018"><ele>481.99999999999994</ele><time>2026-04-04T07:16:14.031Z</time></trkpt><trkpt lat="42.8356634" lon="13.5393476"><ele>482.0</ele><time>2026-04-04T07:16:15.031Z</time></trkpt><trkpt lat="42.8357402" lon="13.5393618"><ele>482.0</ele><time>2026-04-04T07:16:16.031Z</time></trkpt><trkpt lat="42.835824" lon="13.5393665"><ele>482.00000000000006</ele><time>2026-04-04T07:16:17.031Z</time></trkpt><trkpt lat="42.8359194" lon="13.5393699"><ele>482.00000000000006</ele><time>2026-04-04T07:16:18.031Z</time></trkpt><trkpt lat="42.8360202" lon="13.5393737"><ele>482.0</ele><time>2026-04-04T07:16:19.031Z</time></trkpt><trkpt lat="42.836112" lon="13.5393853"><ele>482.0</ele><time>2026-04-04T07:16:20.031Z</time></trkpt><trkpt lat="42.8362036" lon="13.5393972"><ele>479.3333333333333</ele><time>2026-04-04T07:16:21.031Z</time></trkpt><trkpt lat="42.8362834" lon="13.5394158"><ele>476.66666666666663</ele><time>2026-04-04T07:16:22.031Z</time></trkpt><trkpt lat="42.8363482" lon="13.5394553"><ele>474.0</ele><time>2026-04-04T07:16:23.031Z</time></trkpt><trkpt lat="42.8363987" lon="13.5395127"><ele>471.33333333333337</ele><time>2026-04-04T07:16:24.03Z</time></trkpt><trkpt lat="42.8364368" lon="13.5396417"><ele>468.6666666666667</ele><time>2026-04-04T07:16:26.031Z</time></trkpt><trkpt lat="42.8364075" lon="13.5398121"><ele>466.0</ele><time>2026-04-04T07:16:28.031Z</time></trkpt><trkpt lat="42.8363675" lon="13.5399161"><ele>465.0</ele><time>2026-04-04T07:16:29.031Z</time></trkpt><trkpt lat="42.8363172" lon="13.5400248"><ele>464.0</ele><time>2026-04-04T07:16:30.031Z</time></trkpt><trkpt lat="42.8362602" lon="13.5401404"><ele>463.0</ele><time>2026-04-04T07:16:31.031Z</time></trkpt><trkpt lat="42.8361997" lon="13.5402622"><ele>462.0</ele><time>2026-04-04T07:16:32.031Z</time></trkpt><trkpt lat="42.8361437" lon="13.5403797"><ele>461.0</ele><time>2026-04-04T07:16:33.031Z</time></trkpt><trkpt lat="42.8360896" lon="13.5404971"><ele>459.0</ele><time>2026-04-04T07:16:34.031Z</time></trkpt><trkpt lat="42.8360414" lon="13.5406065"><ele>457.0</ele><time>2026-04-04T07:16:35.031Z</time></trkpt><trkpt lat="42.8359935" lon="13.5407181"><ele>455.0</ele><time>2026-04-04T07:16:36.031Z</time></trkpt><trkpt lat="42.8359503" lon="13.5408256"><ele>453.0</ele><time>2026-04-04T07:16:37.031Z</time></trkpt><trkpt lat="42.8358997" lon="13.5409336"><ele>451.0</ele><time>2026-04-04T07:16:38.031Z</time></trkpt><trkpt lat="42.8358452" lon="13.5410375"><ele>453.1666666666667</ele><time>2026-04-04T07:16:39.03Z</time></trkpt><trkpt lat="42.8358016" lon="13.5411227"><ele>455.33333333333337</ele><time>2026-04-04T07:16:40.031Z</time></trkpt><trkpt lat="42.8357609" lon="13.5411993"><ele>457.5</ele><time>2026-04-04T07:16:41.031Z</time></trkpt><trkpt lat="42.8357166" lon="13.5412829"><ele>459.66666666666663</ele><time>2026-04-04T07:16:42.031Z</time></trkpt><trkpt lat="42.8356745" lon="13.5413672"><ele>461.8333333333333</ele><time>2026-04-04T07:16:43.031Z</time></trkpt><trkpt lat="42.8356304" lon="13.5414565"><ele>464.0</ele><time>2026-04-04T07:16:44.031Z</time></trkpt><trkpt lat="42.8355879" lon="13.5415439"><ele>463.99999999999994</ele><time>2026-04-04T07:16:45.031Z</time></trkpt><trkpt lat="42.8355488" lon="13.5416291"><ele>464.0</ele><time>2026-04-04T07:16:46.031Z</time></trkpt><trkpt lat="42.8355188" lon="13.5417072"><ele>464.0</ele><time>2026-04-04T07:16:47.031Z</time></trkpt><trkpt lat="42.8354913" lon="13.5417878"><ele>464.0</ele><time>2026-04-04T07:16:48.031Z</time></trkpt><trkpt lat="42.8354702" lon="13.5419338"><ele>463.99999999999994</ele><time>2026-04-04T07:16:50.031Z</time></trkpt><trkpt lat="42.8355162" lon="13.5420597"><ele>464.0</ele><time>2026-04-04T07:16:52.031Z</time></trkpt><trkpt lat="42.8356054" lon="13.5421703"><ele>465.0</ele><time>2026-04-04T07:16:54.031Z</time></trkpt><trkpt lat="42.8356751" lon="13.5422351"><ele>466.0</ele><time>2026-04-04T07:16:55.031Z</time></trkpt><trkpt lat="42.8357387" lon="13.5423176"><ele>467.0</ele><time>2026-04-04T07:16:56.03Z</time></trkpt><trkpt lat="42.835806" lon="13.5424104"><ele>468.0</ele><time>2026-04-04T07:16:57.031Z</time></trkpt><trkpt lat="42.8358607" lon="13.5425177"><ele>469.0</ele><time>2026-04-04T07:16:58.031Z</time></trkpt><trkpt lat="42.8359074" lon="13.5426288"><ele>469.00000000000006</ele><time>2026-04-04T07:16:59.03Z</time></trkpt><trkpt lat="42.8359414" lon="13.5427331"><ele>469.0</ele><time>2026-04-04T07:17:00.03Z</time></trkpt><trkpt lat="42.8359775" lon="13.5428451"><ele>469.0</ele><time>2026-04-04T07:17:01.031Z</time></trkpt><trkpt lat="42.8360177" lon="13.5429526"><ele>469.0</ele><time>2026-04-04T07:17:02.03Z</time></trkpt><trkpt lat="42.8360601" lon="13.5430568"><ele>469.00000000000006</ele><time>2026-04-04T07:17:03.031Z</time></trkpt><trkpt lat="42.8361087" lon="13.5431524"><ele>469.0</ele><time>2026-04-04T07:17:04.031Z</time></trkpt><trkpt lat="42.8361617" lon="13.543238"><ele>468.6666666666667</ele><time>2026-04-04T07:17:05.03Z</time></trkpt><trkpt lat="42.8362121" lon="13.5433202"><ele>468.33333333333337</ele><time>2026-04-04T07:17:06.031Z</time></trkpt><trkpt lat="42.8362557" lon="13.543399"><ele>468.0</ele><time>2026-04-04T07:17:07.031Z</time></trkpt><trkpt lat="42.8362899" lon="13.5434932"><ele>467.66666666666663</ele><time>2026-04-04T07:17:08.031Z</time></trkpt><trkpt lat="42.8363142" lon="13.5435914"><ele>467.3333333333333</ele><time>2026-04-04T07:17:09.031Z</time></trkpt><trkpt lat="42.8363323" lon="13.5437022"><ele>467.0</ele><time>2026-04-04T07:17:10.031Z</time></trkpt><trkpt lat="42.8363433" lon="13.5438168"><ele>466.99999999999994</ele><time>2026-04-04T07:17:11.031Z</time></trkpt><trkpt lat="42.8363573" lon="13.5439279"><ele>467.0</ele><time>2026-04-04T07:17:12.031Z</time></trkpt><trkpt lat="42.8363787" lon="13.5440355"><ele>467.0</ele><time>2026-04-04T07:17:13.031Z</time></trkpt><trkpt lat="42.8364061" lon="13.5441435"><ele>467.0</ele><time>2026-04-04T07:17:14.031Z</time></trkpt><trkpt lat="42.8364428" lon="13.544241"><ele>466.99999999999994</ele><time>2026-04-04T07:17:15.031Z</time></trkpt><trkpt lat="42.836494" lon="13.5443359"><ele>467.0</ele><time>2026-04-04T07:17:16.031Z</time></trkpt><trkpt lat="42.8365481" lon="13.5444227"><ele>466.99999999999994</ele><time>2026-04-04T07:17:17.031Z</time></trkpt><trkpt lat="42.8366004" lon="13.5445098"><ele>467.0</ele><time>2026-04-04T07:17:18.031Z</time></trkpt><trkpt lat="42.8366418" lon="13.5445985"><ele>466.99999999999994</ele><time>2026-04-04T07:17:19.031Z</time></trkpt><trkpt lat="42.8366839" lon="13.5446731"><ele>466.99999999999994</ele><time>2026-04-04T07:17:20.031Z</time></trkpt><trkpt lat="42.8367305" lon="13.5447605"><ele>467.0</ele><time>2026-04-04T07:17:21.031Z</time></trkpt><trkpt lat="42.8367666" lon="13.544843"><ele>466.99999999999994</ele><time>2026-04-04T07:17:22.031Z</time></trkpt><trkpt lat="42.8368064" lon="13.5449171"><ele>466.99999999999994</ele><time>2026-04-04T07:17:24.031Z</time></trkpt><trkpt lat="42.8369032" lon="13.5449935"><ele>466.99999999999994</ele><time>2026-04-04T07:17:27.031Z</time></trkpt><trkpt lat="42.836968" lon="13.5450401"><ele>467.0</ele><time>2026-04-04T07:17:28.031Z</time></trkpt><trkpt lat="42.8370435" lon="13.5450937"><ele>467.0</ele><time>2026-04-04T07:17:29.031Z</time></trkpt><trkpt lat="42.8371168" lon="13.5451377"><ele>467.0</ele><time>2026-04-04T07:17:30.031Z</time></trkpt><trkpt lat="42.8371826" lon="13.5451944"><ele>466.99999999999994</ele><time>2026-04-04T07:17:31.031Z</time></trkpt><trkpt lat="42.8372457" lon="13.5452646"><ele>467.0</ele><time>2026-04-04T07:17:32.031Z</time></trkpt><trkpt lat="42.8373044" lon="13.5453312"><ele>464.99999999999994</ele><time>2026-04-04T07:17:33.031Z</time></trkpt><trkpt lat="42.8373684" lon="13.5454074"><ele>463.0</ele><time>2026-04-04T07:17:34.031Z</time></trkpt><trkpt lat="42.8374393" lon="13.5454788"><ele>461.0</ele><time>2026-04-04T07:17:35.031Z</time></trkpt><trkpt lat="42.8375142" lon="13.5455544"><ele>459.0</ele><time>2026-04-04T07:17:36.031Z</time></trkpt><trkpt lat="42.837587" lon="13.5456182"><ele>456.99999999999994</ele><time>2026-04-04T07:17:37.031Z</time></trkpt><trkpt lat="42.8376646" lon="13.5456873"><ele>455.0</ele><time>2026-04-04T07:17:38.031Z</time></trkpt><trkpt lat="42.8377492" lon="13.5457547"><ele>455.0</ele><time>2026-04-04T07:17:39.031Z</time></trkpt><trkpt lat="42.8378319" lon="13.545821"><ele>455.0</ele><time>2026-04-04T07:17:40.031Z</time></trkpt><trkpt lat="42.8379107" lon="13.5458888"><ele>455.0</ele><time>2026-04-04T07:17:41.031Z</time></trkpt><trkpt lat="42.8379961" lon="13.5459601"><ele>455.0</ele><time>2026-04-04T07:17:42.031Z</time></trkpt><trkpt lat="42.8380844" lon="13.5460253"><ele>455.0</ele><time>2026-04-04T07:17:43.031Z</time></trkpt><trkpt lat="42.8381684" lon="13.5461005"><ele>454.99999999999994</ele><time>2026-04-04T07:17:44.031Z</time></trkpt><trkpt lat="42.8382526" lon="13.5461917"><ele>455.0</ele><time>2026-04-04T07:17:45.031Z</time></trkpt><trkpt lat="42.8383249" lon="13.5462774"><ele>455.0</ele><time>2026-04-04T07:17:46.031Z</time></trkpt><trkpt lat="42.8383898" lon="13.5463403"><ele>455.0</ele><time>2026-04-04T07:17:47.03Z</time></trkpt><trkpt lat="42.8384589" lon="13.5463799"><ele>454.99999999999994</ele><time>2026-04-04T07:17:48.031Z</time></trkpt><trkpt lat="42.8385281" lon="13.5463824"><ele>455.0</ele><time>2026-04-04T07:17:49.031Z</time></trkpt><trkpt lat="42.8386217" lon="13.5462954"><ele>450.8333333333333</ele><time>2026-04-04T07:17:51.031Z</time></trkpt><trkpt lat="42.8386398" lon="13.5461923"><ele>446.66666666666663</ele><time>2026-04-04T07:17:52.031Z</time></trkpt><trkpt lat="42.8386401" lon="13.5460852"><ele>442.5</ele><time>2026-04-04T07:17:53.031Z</time></trkpt><trkpt lat="42.8386317" lon="13.5459586"><ele>438.33333333333337</ele><time>2026-04-04T07:17:54.031Z</time></trkpt><trkpt lat="42.8386216" lon="13.5458485"><ele>434.1666666666667</ele><time>2026-04-04T07:17:55.031Z</time></trkpt><trkpt lat="42.8386142" lon="13.5457607"><ele>430.0</ele><time>2026-04-04T07:17:56.031Z</time></trkpt><trkpt lat="42.8386423" lon="13.5456478"><ele>430.0</ele><time>2026-04-04T07:17:58.031Z</time></trkpt><trkpt lat="42.8387135" lon="13.5456669"><ele>430.0</ele><time>2026-04-04T07:18:00.031Z</time></trkpt><trkpt lat="42.8387432" lon="13.5458361"><ele>430.0</ele><time>2026-04-04T07:18:02.031Z</time></trkpt><trkpt lat="42.8387434" lon="13.5459602"><ele>430.0</ele><time>2026-04-04T07:18:03.031Z</time></trkpt><trkpt lat="42.8387381" lon="13.5460934"><ele>430.0</ele><time>2026-04-04T07:18:04.031Z</time></trkpt><trkpt lat="42.8387381" lon="13.5462211"><ele>429.6666666666667</ele><time>2026-04-04T07:18:05.031Z</time></trkpt><trkpt lat="42.8387411" lon="13.5463481"><ele>429.33333333333337</ele><time>2026-04-04T07:18:06.031Z</time></trkpt><trkpt lat="42.8387404" lon="13.5464681"><ele>429.0</ele><time>2026-04-04T07:18:07.031Z</time></trkpt><trkpt lat="42.8387364" lon="13.5465782"><ele>428.66666666666663</ele><time>2026-04-04T07:18:08.031Z</time></trkpt><trkpt lat="42.8387314" lon="13.5466863"><ele>428.3333333333333</ele><time>2026-04-04T07:18:09.031Z</time></trkpt><trkpt lat="42.8387412" lon="13.546796"><ele>428.0</ele><time>2026-04-04T07:18:10.031Z</time></trkpt><trkpt lat="42.8387541" lon="13.5469044"><ele>427.99999999999994</ele><time>2026-04-04T07:18:11.031Z</time></trkpt><trkpt lat="42.8387816" lon="13.5470034"><ele>428.0</ele><time>2026-04-04T07:18:12.031Z</time></trkpt><trkpt lat="42.8388242" lon="13.5470982"><ele>428.0</ele><time>2026-04-04T07:18:13.031Z</time></trkpt><trkpt lat="42.8388766" lon="13.5471909"><ele>428.0</ele><time>2026-04-04T07:18:14.031Z</time></trkpt><trkpt lat="42.8389268" lon="13.5472879"><ele>427.99999999999994</ele><time>2026-04-04T07:18:15.031Z</time></trkpt><trkpt lat="42.8389785" lon="13.547379"><ele>428.0</ele><time>2026-04-04T07:18:16.031Z</time></trkpt><trkpt lat="42.8390318" lon="13.5474705"><ele>426.66666666666663</ele><time>2026-04-04T07:18:17.03Z</time></trkpt><trkpt lat="42.8390848" lon="13.5475579"><ele>425.3333333333333</ele><time>2026-04-04T07:18:18.031Z</time></trkpt><trkpt lat="42.8391469" lon="13.5476372"><ele>424.0</ele><time>2026-04-04T07:18:19.031Z</time></trkpt><trkpt lat="42.8392094" lon="13.5477202"><ele>422.66666666666663</ele><time>2026-04-04T07:18:20.031Z</time></trkpt><trkpt lat="42.8392787" lon="13.5477939"><ele>421.3333333333333</ele><time>2026-04-04T07:18:21.03Z</time></trkpt><trkpt lat="42.8393492" lon="13.5478635"><ele>420.0</ele><time>2026-04-04T07:18:22.031Z</time></trkpt><trkpt lat="42.8394198" lon="13.5479297"><ele>418.1666666666667</ele><time>2026-04-04T07:18:23.031Z</time></trkpt><trkpt lat="42.8394912" lon="13.548013"><ele>416.33333333333337</ele><time>2026-04-04T07:18:24.031Z</time></trkpt><trkpt lat="42.8395609" lon="13.5480943"><ele>414.5</ele><time>2026-04-04T07:18:25.03Z</time></trkpt><trkpt lat="42.8396234" lon="13.5481721"><ele>412.6666666666667</ele><time>2026-04-04T07:18:26.031Z</time></trkpt><trkpt lat="42.8396885" lon="13.548238"><ele>410.83333333333337</ele><time>2026-04-04T07:18:27.032Z</time></trkpt><trkpt lat="42.8397613" lon="13.5482779"><ele>409.0</ele><time>2026-04-04T07:18:28.031Z</time></trkpt><trkpt lat="42.8398441" lon="13.5482963"><ele>409.0</ele><time>2026-04-04T07:18:29.032Z</time></trkpt><trkpt lat="42.8399319" lon="13.548304"><ele>409.0</ele><time>2026-04-04T07:18:30.032Z</time></trkpt><trkpt lat="42.8400255" lon="13.5483031"><ele>409.0</ele><time>2026-04-04T07:18:31.032Z</time></trkpt><trkpt lat="42.8401153" lon="13.548318"><ele>409.0</ele><time>2026-04-04T07:18:32.032Z</time></trkpt><trkpt lat="42.8402066" lon="13.5483417"><ele>409.0</ele><time>2026-04-04T07:18:33.032Z</time></trkpt><trkpt lat="42.840295" lon="13.5483639"><ele>407.6</ele><time>2026-04-04T07:18:34.032Z</time></trkpt><trkpt lat="42.8403756" lon="13.5483946"><ele>406.2</ele><time>2026-04-04T07:18:35.032Z</time></trkpt><trkpt lat="42.8404462" lon="13.5484156"><ele>404.8</ele><time>2026-04-04T07:18:36.032Z</time></trkpt><trkpt lat="42.840559" lon="13.5484532"><ele>403.40000000000003</ele><time>2026-04-04T07:18:38.032Z</time></trkpt><trkpt lat="42.8406366" lon="13.5484862"><ele>402.0</ele><time>2026-04-04T07:18:41.032Z</time></trkpt><trkpt lat="42.8407311" lon="13.5485155"><ele>402.0</ele><time>2026-04-04T07:19:44.032Z</time></trkpt><trkpt lat="42.8408237" lon="13.5485433"><ele>402.0</ele><time>2026-04-04T07:19:46.032Z</time></trkpt><trkpt lat="42.8409459" lon="13.548502"><ele>402.0</ele><time>2026-04-04T07:19:48.032Z</time></trkpt><trkpt lat="42.8410037" lon="13.5484465"><ele>402.0</ele><time>2026-04-04T07:19:49.032Z</time></trkpt><trkpt lat="42.8410532" lon="13.548372"><ele>402.0</ele><time>2026-04-04T07:19:50.032Z</time></trkpt><trkpt lat="42.8410723" lon="13.5482843"><ele>402.0</ele><time>2026-04-04T07:19:51.032Z</time></trkpt><trkpt lat="42.8410668" lon="13.5481965"><ele>402.0</ele><time>2026-04-04T07:19:52.032Z</time></trkpt><trkpt lat="42.8410372" lon="13.5481032"><ele>402.0</ele><time>2026-04-04T07:19:53.032Z</time></trkpt><trkpt lat="42.8409992" lon="13.5480214"><ele>402.0</ele><time>2026-04-04T07:19:54.032Z</time></trkpt><trkpt lat="42.8409506" lon="13.5479511"><ele>402.0</ele><time>2026-04-04T07:19:55.032Z</time></trkpt><trkpt lat="42.840872" lon="13.5478293"><ele>402.0</ele><time>2026-04-04T07:19:57.032Z</time></trkpt><trkpt lat="42.8408827" lon="13.5477288"><ele>402.0</ele><time>2026-04-04T07:19:59.032Z</time></trkpt><trkpt lat="42.8409798" lon="13.5477423"><ele>397.6</ele><time>2026-04-04T07:20:01.032Z</time></trkpt><trkpt lat="42.8410485" lon="13.5477958"><ele>393.20000000000005</ele><time>2026-04-04T07:20:02.032Z</time></trkpt><trkpt lat="42.8411273" lon="13.5478647"><ele>388.8</ele><time>2026-04-04T07:20:03.032Z</time></trkpt><trkpt lat="42.8412145" lon="13.5479398"><ele>384.4</ele><time>2026-04-04T07:20:04.032Z</time></trkpt><trkpt lat="42.8412928" lon="13.5480259"><ele>380.0</ele><time>2026-04-04T07:20:05.032Z</time></trkpt><trkpt lat="42.8413748" lon="13.5481199"><ele>380.0</ele><time>2026-04-04T07:20:06.032Z</time></trkpt><trkpt lat="42.8414556" lon="13.5482107"><ele>380.0</ele><time>2026-04-04T07:20:07.032Z</time></trkpt><trkpt lat="42.8415394" lon="13.5483013"><ele>380.0</ele><time>2026-04-04T07:20:08.032Z</time></trkpt><trkpt lat="42.841619" lon="13.5483895"><ele>380.0</ele><time>2026-04-04T07:20:09.032Z</time></trkpt><trkpt lat="42.8416987" lon="13.5484847"><ele>380.0</ele><time>2026-04-04T07:20:10.032Z</time></trkpt><trkpt lat="42.8417803" lon="13.5485583"><ele>378.25</ele><time>2026-04-04T07:20:11.031Z</time></trkpt><trkpt lat="42.8418636" lon="13.5486507"><ele>376.5</ele><time>2026-04-04T07:20:12.032Z</time></trkpt><trkpt lat="42.8419446" lon="13.5487308"><ele>374.75</ele><time>2026-04-04T07:20:13.032Z</time></trkpt><trkpt lat="42.8421159" lon="13.5488991"><ele>373.0</ele><time>2026-04-04T07:20:15.032Z</time></trkpt><trkpt lat="42.8421964" lon="13.5489754"><ele>373.0</ele><time>2026-04-04T07:20:16.032Z</time></trkpt><trkpt lat="42.8422728" lon="13.5490567"><ele>373.0</ele><time>2026-04-04T07:20:17.032Z</time></trkpt><trkpt lat="42.8423371" lon="13.5491472"><ele>373.0</ele><time>2026-04-04T07:20:18.032Z</time></trkpt><trkpt lat="42.8423972" lon="13.549253"><ele>373.0</ele><time>2026-04-04T07:20:19.032Z</time></trkpt><trkpt lat="42.8424531" lon="13.5493546"><ele>373.0</ele><time>2026-04-04T07:20:20.032Z</time></trkpt><trkpt lat="42.8425111" lon="13.5494596"><ele>371.2</ele><time>2026-04-04T07:20:21.032Z</time></trkpt><trkpt lat="42.8425713" lon="13.5495608"><ele>369.4</ele><time>2026-04-04T07:20:22.032Z</time></trkpt><trkpt lat="42.8426328" lon="13.5496633"><ele>367.59999999999997</ele><time>2026-04-04T07:20:23.032Z</time></trkpt><trkpt lat="42.8427045" lon="13.5497545"><ele>365.79999999999995</ele><time>2026-04-04T07:20:24.032Z</time></trkpt><trkpt lat="42.8427828" lon="13.5498365"><ele>364.0</ele><time>2026-04-04T07:20:25.032Z</time></trkpt><trkpt lat="42.8428737" lon="13.5499049"><ele>364.0</ele><time>2026-04-04T07:20:26.032Z</time></trkpt><trkpt lat="42.8429723" lon="13.5499597"><ele>364.0</ele><time>2026-04-04T07:20:27.032Z</time></trkpt><trkpt lat="42.8430789" lon="13.5499979"><ele>364.0</ele><time>2026-04-04T07:20:28.031Z</time></trkpt><trkpt lat="42.8431832" lon="13.5500362"><ele>364.0</ele><time>2026-04-04T07:20:29.032Z</time></trkpt><trkpt lat="42.8432853" lon="13.5500847"><ele>364.0</ele><time>2026-04-04T07:20:30.032Z</time></trkpt><trkpt lat="42.8433822" lon="13.5501554"><ele>363.6</ele><time>2026-04-04T07:20:31.032Z</time></trkpt><trkpt lat="42.843468" lon="13.5502429"><ele>363.2</ele><time>2026-04-04T07:20:32.032Z</time></trkpt><trkpt lat="42.8435459" lon="13.5503546"><ele>362.8</ele><time>2026-04-04T07:20:33.032Z</time></trkpt><trkpt lat="42.8436176" lon="13.5504682"><ele>362.40000000000003</ele><time>2026-04-04T07:20:34.032Z</time></trkpt><trkpt lat="42.84369" lon="13.5505644"><ele>362.0</ele><time>2026-04-04T07:20:35.032Z</time></trkpt><trkpt lat="42.8437786" lon="13.5506337"><ele>361.8</ele><time>2026-04-04T07:20:36.032Z</time></trkpt><trkpt lat="42.8438634" lon="13.5507057"><ele>361.6</ele><time>2026-04-04T07:20:37.031Z</time></trkpt><trkpt lat="42.8439514" lon="13.5507734"><ele>361.40000000000003</ele><time>2026-04-04T07:20:38.031Z</time></trkpt><trkpt lat="42.8440445" lon="13.5508417"><ele>361.20000000000005</ele><time>2026-04-04T07:20:39.032Z</time></trkpt><trkpt lat="42.8441332" lon="13.550927"><ele>361.0</ele><time>2026-04-04T07:20:40.032Z</time></trkpt><trkpt lat="42.8442238" lon="13.5510134"><ele>360.8</ele><time>2026-04-04T07:20:41.031Z</time></trkpt><trkpt lat="42.8443104" lon="13.5511039"><ele>360.6</ele><time>2026-04-04T07:20:42.032Z</time></trkpt><trkpt lat="42.8443971" lon="13.5511847"><ele>360.4</ele><time>2026-04-04T07:20:43.032Z</time></trkpt><trkpt lat="42.8444936" lon="13.5512549"><ele>360.2</ele><time>2026-04-04T07:20:44.032Z</time></trkpt><trkpt lat="42.8445885" lon="13.551338"><ele>360.0</ele><time>2026-04-04T07:20:45.032Z</time></trkpt><trkpt lat="42.8446839" lon="13.5514288"><ele>360.0</ele><time>2026-04-04T07:20:46.032Z</time></trkpt><trkpt lat="42.8447758" lon="13.5515355"><ele>360.0</ele><time>2026-04-04T07:20:47.032Z</time></trkpt><trkpt lat="42.8448486" lon="13.551673"><ele>360.0</ele><time>2026-04-04T07:20:48.032Z</time></trkpt><trkpt lat="42.8449086" lon="13.5518296"><ele>360.0</ele><time>2026-04-04T07:20:49.031Z</time></trkpt><trkpt lat="42.8449551" lon="13.5519913"><ele>353.25</ele><time>2026-04-04T07:20:50.032Z</time></trkpt><trkpt lat="42.8449907" lon="13.5521437"><ele>346.5</ele><time>2026-04-04T07:20:51.032Z</time></trkpt><trkpt lat="42.8450174" lon="13.5523055"><ele>339.75</ele><time>2026-04-04T07:20:52.032Z</time></trkpt><trkpt lat="42.8450349" lon="13.5524641"><ele>333.0</ele><time>2026-04-04T07:20:53.032Z</time></trkpt><trkpt lat="42.8450831" lon="13.5525985"><ele>337.0</ele><time>2026-04-04T07:20:54.032Z</time></trkpt><trkpt lat="42.8451516" lon="13.5527178"><ele>341.0</ele><time>2026-04-04T07:20:55.032Z</time></trkpt><trkpt lat="42.8452369" lon="13.5528128"><ele>345.0</ele><time>2026-04-04T07:20:56.032Z</time></trkpt><trkpt lat="42.8453334" lon="13.552892"><ele>349.0</ele><time>2026-04-04T07:20:57.032Z</time></trkpt><trkpt lat="42.8454321" lon="13.5529819"><ele>349.0</ele><time>2026-04-04T07:20:58.031Z</time></trkpt><trkpt lat="42.8455201" lon="13.5530895"><ele>349.0</ele><time>2026-04-04T07:20:59.032Z</time></trkpt><trkpt lat="42.8455889" lon="13.5532277"><ele>349.0</ele><time>2026-04-04T07:21:00.032Z</time></trkpt><trkpt lat="42.8456356" lon="13.553379"><ele>349.0</ele><time>2026-04-04T07:21:01.032Z</time></trkpt><trkpt lat="42.8456711" lon="13.5535432"><ele>349.0</ele><time>2026-04-04T07:21:02.032Z</time></trkpt><trkpt lat="42.8457089" lon="13.5536968"><ele>349.0</ele><time>2026-04-04T07:21:03.032Z</time></trkpt><trkpt lat="42.8457455" lon="13.5538517"><ele>349.0</ele><time>2026-04-04T07:21:04.032Z</time></trkpt><trkpt lat="42.845794" lon="13.5539827"><ele>349.0</ele><time>2026-04-04T07:21:05.032Z</time></trkpt><trkpt lat="42.8458527" lon="13.5540965"><ele>349.0</ele><time>2026-04-04T07:21:06.032Z</time></trkpt><trkpt lat="42.8459306" lon="13.5541602"><ele>346.6</ele><time>2026-04-04T07:21:07.031Z</time></trkpt><trkpt lat="42.8460083" lon="13.5541771"><ele>344.2</ele><time>2026-04-04T07:21:08.032Z</time></trkpt><trkpt lat="42.8460877" lon="13.5541481"><ele>341.8</ele><time>2026-04-04T07:21:09.032Z</time></trkpt><trkpt lat="42.8461855" lon="13.5540871"><ele>339.40000000000003</ele><time>2026-04-04T07:21:10.032Z</time></trkpt><trkpt lat="42.8462896" lon="13.5540308"><ele>337.0</ele><time>2026-04-04T07:21:11.032Z</time></trkpt><trkpt lat="42.8463935" lon="13.5540228"><ele>337.0</ele><time>2026-04-04T07:21:12.032Z</time></trkpt><trkpt lat="42.846493" lon="13.554053"><ele>337.0</ele><time>2026-04-04T07:21:13.032Z</time></trkpt><trkpt lat="42.8465933" lon="13.5541098"><ele>337.0</ele><time>2026-04-04T07:21:14.032Z</time></trkpt><trkpt lat="42.8466713" lon="13.5542276"><ele>337.0</ele><time>2026-04-04T07:21:15.032Z</time></trkpt><trkpt lat="42.8467369" lon="13.5543645"><ele>337.0</ele><time>2026-04-04T07:21:16.032Z</time></trkpt><trkpt lat="42.846784" lon="13.5544863"><ele>333.8</ele><time>2026-04-04T07:21:17.032Z</time></trkpt><trkpt lat="42.8468492" lon="13.5546014"><ele>330.6</ele><time>2026-04-04T07:21:18.032Z</time></trkpt><trkpt lat="42.8469302" lon="13.5547038"><ele>327.40000000000003</ele><time>2026-04-04T07:21:19.032Z</time></trkpt><trkpt lat="42.8470076" lon="13.5548037"><ele>324.20000000000005</ele><time>2026-04-04T07:21:20.031Z</time></trkpt><trkpt lat="42.8470925" lon="13.554901"><ele>321.0</ele><time>2026-04-04T07:21:21.032Z</time></trkpt><trkpt lat="42.8471685" lon="13.555017"><ele>321.0</ele><time>2026-04-04T07:21:22.032Z</time></trkpt><trkpt lat="42.8472233" lon="13.5551441"><ele>321.0</ele><time>2026-04-04T07:21:23.032Z</time></trkpt><trkpt lat="42.8472544" lon="13.5552763"><ele>321.0</ele><time>2026-04-04T07:21:24.032Z</time></trkpt><trkpt lat="42.8472613" lon="13.5554141"><ele>321.0</ele><time>2026-04-04T07:21:25.032Z</time></trkpt><trkpt lat="42.8472512" lon="13.5555596"><ele>321.0</ele><time>2026-04-04T07:21:26.031Z</time></trkpt><trkpt lat="42.8472386" lon="13.5557072"><ele>318.0</ele><time>2026-04-04T07:21:27.032Z</time></trkpt><trkpt lat="42.8472384" lon="13.5558526"><ele>315.0</ele><time>2026-04-04T07:21:28.031Z</time></trkpt><trkpt lat="42.8472578" lon="13.5559994"><ele>312.0</ele><time>2026-04-04T07:21:29.032Z</time></trkpt><trkpt lat="42.8472912" lon="13.5561457"><ele>309.0</ele><time>2026-04-04T07:21:30.032Z</time></trkpt><trkpt lat="42.8473349" lon="13.5562885"><ele>306.0</ele><time>2026-04-04T07:21:31.032Z</time></trkpt><trkpt lat="42.8473826" lon="13.5564404"><ele>303.5</ele><time>2026-04-04T07:21:32.032Z</time></trkpt><trkpt lat="42.847428" lon="13.5565989"><ele>301.0</ele><time>2026-04-04T07:21:33.032Z</time></trkpt><trkpt lat="42.8474738" lon="13.556756"><ele>298.5</ele><time>2026-04-04T07:21:34.032Z</time></trkpt><trkpt lat="42.8475272" lon="13.5569048"><ele>296.0</ele><time>2026-04-04T07:21:35.032Z</time></trkpt><trkpt lat="42.8475859" lon="13.557054"><ele>289.75</ele><time>2026-04-04T07:21:36.032Z</time></trkpt><trkpt lat="42.8476514" lon="13.5572022"><ele>283.5</ele><time>2026-04-04T07:21:37.032Z</time></trkpt><trkpt lat="42.8477465" lon="13.5573371"><ele>277.25</ele><time>2026-04-04T07:21:38.032Z</time></trkpt><trkpt lat="42.8478269" lon="13.557483"><ele>271.0</ele><time>2026-04-04T07:21:39.031Z</time></trkpt><trkpt lat="42.8478987" lon="13.5576166"><ele>271.0</ele><time>2026-04-04T07:21:40.032Z</time></trkpt><trkpt lat="42.8479597" lon="13.5577673"><ele>271.0</ele><time>2026-04-04T07:21:41.031Z</time></trkpt><trkpt lat="42.8480111" lon="13.5579239"><ele>271.0</ele><time>2026-04-04T07:21:42.032Z</time></trkpt><trkpt lat="42.848047" lon="13.5580777"><ele>271.0</ele><time>2026-04-04T07:21:43.032Z</time></trkpt><trkpt lat="42.8480896" lon="13.5582247"><ele>271.5</ele><time>2026-04-04T07:21:44.032Z</time></trkpt><trkpt lat="42.8481317" lon="13.55837"><ele>272.0</ele><time>2026-04-04T07:21:45.032Z</time></trkpt><trkpt lat="42.8481778" lon="13.5585205"><ele>272.5</ele><time>2026-04-04T07:21:46.032Z</time></trkpt><trkpt lat="42.8482263" lon="13.5586625"><ele>273.0</ele><time>2026-04-04T07:21:47.032Z</time></trkpt><trkpt lat="42.8482875" lon="13.5588009"><ele>273.0</ele><time>2026-04-04T07:21:48.032Z</time></trkpt><trkpt lat="42.848366" lon="13.5589291"><ele>273.0</ele><time>2026-04-04T07:21:49.032Z</time></trkpt><trkpt lat="42.8484557" lon="13.5590373"><ele>273.0</ele><time>2026-04-04T07:21:50.032Z</time></trkpt><trkpt lat="42.8485585" lon="13.5591298"><ele>273.0</ele><time>2026-04-04T07:21:51.031Z</time></trkpt><trkpt lat="42.8486702" lon="13.5591962"><ele>273.5</ele><time>2026-04-04T07:21:52.032Z</time></trkpt><trkpt lat="42.8487885" lon="13.5592548"><ele>274.0</ele><time>2026-04-04T07:21:53.032Z</time></trkpt><trkpt lat="42.8489115" lon="13.5593188"><ele>274.5</ele><time>2026-04-04T07:21:54.032Z</time></trkpt><trkpt lat="42.8490343" lon="13.5593764"><ele>275.0</ele><time>2026-04-04T07:21:55.032Z</time></trkpt><trkpt lat="42.8491589" lon="13.5594311"><ele>275.0</ele><time>2026-04-04T07:21:56.032Z</time></trkpt><trkpt lat="42.8492825" lon="13.5594857"><ele>275.0</ele><time>2026-04-04T07:21:57.032Z</time></trkpt><trkpt lat="42.8494098" lon="13.559539"><ele>275.0</ele><time>2026-04-04T07:21:58.032Z</time></trkpt><trkpt lat="42.8495306" lon="13.5595966"><ele>275.0</ele><time>2026-04-04T07:21:59.032Z</time></trkpt><trkpt lat="42.8496517" lon="13.5596602"><ele>276.25</ele><time>2026-04-04T07:22:00.032Z</time></trkpt><trkpt lat="42.8497635" lon="13.5597262"><ele>277.5</ele><time>2026-04-04T07:22:01.032Z</time></trkpt><trkpt lat="42.8498672" lon="13.5597867"><ele>278.75</ele><time>2026-04-04T07:22:02.032Z</time></trkpt><trkpt lat="42.8499708" lon="13.5598554"><ele>280.0</ele><time>2026-04-04T07:22:03.032Z</time></trkpt><trkpt lat="42.8500625" lon="13.5599417"><ele>273.2</ele><time>2026-04-04T07:22:04.032Z</time></trkpt><trkpt lat="42.8501379" lon="13.5600524"><ele>266.4</ele><time>2026-04-04T07:22:05.032Z</time></trkpt><trkpt lat="42.8502002" lon="13.5601842"><ele>259.6</ele><time>2026-04-04T07:22:06.032Z</time></trkpt><trkpt lat="42.8502503" lon="13.5603236"><ele>252.8</ele><time>2026-04-04T07:22:07.032Z</time></trkpt><trkpt lat="42.8502848" lon="13.5604583"><ele>246.0</ele><time>2026-04-04T07:22:08.032Z</time></trkpt><trkpt lat="42.8503051" lon="13.5606024"><ele>246.0</ele><time>2026-04-04T07:22:09.031Z</time></trkpt><trkpt lat="42.8503061" lon="13.5607441"><ele>246.00000000000003</ele><time>2026-04-04T07:22:10.032Z</time></trkpt><trkpt lat="42.850298" lon="13.5608889"><ele>246.00000000000003</ele><time>2026-04-04T07:22:11.032Z</time></trkpt><trkpt lat="42.8502915" lon="13.5610315"><ele>246.0</ele><time>2026-04-04T07:22:12.032Z</time></trkpt><trkpt lat="42.8502935" lon="13.5611709"><ele>246.0</ele><time>2026-04-04T07:22:13.032Z</time></trkpt><trkpt lat="42.8503138" lon="13.5613044"><ele>248.8</ele><time>2026-04-04T07:22:14.032Z</time></trkpt><trkpt lat="42.8503404" lon="13.5614377"><ele>251.60000000000002</ele><time>2026-04-04T07:22:15.031Z</time></trkpt><trkpt lat="42.8503723" lon="13.5615795"><ele>254.4</ele><time>2026-04-04T07:22:16.032Z</time></trkpt><trkpt lat="42.8504045" lon="13.5617164"><ele>257.2</ele><time>2026-04-04T07:22:17.032Z</time></trkpt><trkpt lat="42.8504569" lon="13.5618409"><ele>260.0</ele><time>2026-04-04T07:22:18.032Z</time></trkpt><trkpt lat="42.8505292" lon="13.5619573"><ele>261.4</ele><time>2026-04-04T07:22:19.032Z</time></trkpt><trkpt lat="42.8506153" lon="13.5620526"><ele>262.8</ele><time>2026-04-04T07:22:20.032Z</time></trkpt><trkpt lat="42.8507147" lon="13.5621362"><ele>264.2</ele><time>2026-04-04T07:22:21.031Z</time></trkpt><trkpt lat="42.8508151" lon="13.5622104"><ele>265.6</ele><time>2026-04-04T07:22:22.032Z</time></trkpt><trkpt lat="42.850902" lon="13.5622816"><ele>267.0</ele><time>2026-04-04T07:22:23.032Z</time></trkpt><trkpt lat="42.8509805" lon="13.5623606"><ele>261.1666666666667</ele><time>2026-04-04T07:22:24.032Z</time></trkpt><trkpt lat="42.8510409" lon="13.5624499"><ele>255.33333333333331</ele><time>2026-04-04T07:22:25.032Z</time></trkpt><trkpt lat="42.851065" lon="13.5625458"><ele>249.5</ele><time>2026-04-04T07:22:26.032Z</time></trkpt><trkpt lat="42.851066" lon="13.5626441"><ele>243.66666666666666</ele><time>2026-04-04T07:22:27.032Z</time></trkpt><trkpt lat="42.851049" lon="13.562758"><ele>237.83333333333331</ele><time>2026-04-04T07:22:28.032Z</time></trkpt><trkpt lat="42.8510223" lon="13.5628787"><ele>232.0</ele><time>2026-04-04T07:22:29.032Z</time></trkpt><trkpt lat="42.8509846" lon="13.5630072"><ele>238.0</ele><time>2026-04-04T07:22:30.032Z</time></trkpt><trkpt lat="42.8509527" lon="13.5631527"><ele>244.0</ele><time>2026-04-04T07:22:31.032Z</time></trkpt><trkpt lat="42.8509319" lon="13.5633045"><ele>250.0</ele><time>2026-04-04T07:22:32.032Z</time></trkpt><trkpt lat="42.8509137" lon="13.5634421"><ele>256.0</ele><time>2026-04-04T07:22:33.031Z</time></trkpt><trkpt lat="42.8509079" lon="13.5635635"><ele>262.0</ele><time>2026-04-04T07:22:34.032Z</time></trkpt><trkpt lat="42.8509122" lon="13.5636887"><ele>261.5</ele><time>2026-04-04T07:22:35.032Z</time></trkpt><trkpt lat="42.8509383" lon="13.5637911"><ele>261.0</ele><time>2026-04-04T07:22:36.031Z</time></trkpt><trkpt lat="42.8509837" lon="13.5639017"><ele>260.5</ele><time>2026-04-04T07:22:37.032Z</time></trkpt><trkpt lat="42.851048" lon="13.5639921"><ele>260.0</ele><time>2026-04-04T07:22:38.032Z</time></trkpt><trkpt lat="42.8511203" lon="13.5640667"><ele>259.5</ele><time>2026-04-04T07:22:39.032Z</time></trkpt><trkpt lat="42.8511884" lon="13.5641201"><ele>259.0</ele><time>2026-04-04T07:22:40.032Z</time></trkpt><trkpt lat="42.8512503" lon="13.5641903"><ele>255.6</ele><time>2026-04-04T07:22:41.032Z</time></trkpt><trkpt lat="42.8513075" lon="13.5642743"><ele>252.2</ele><time>2026-04-04T07:22:42.032Z</time></trkpt><trkpt lat="42.8513717" lon="13.5643759"><ele>248.79999999999998</ele><time>2026-04-04T07:22:43.032Z</time></trkpt><trkpt lat="42.8514394" lon="13.5644946"><ele>245.39999999999998</ele><time>2026-04-04T07:22:44.032Z</time></trkpt><trkpt lat="42.8515027" lon="13.5646293"><ele>242.0</ele><time>2026-04-04T07:22:45.032Z</time></trkpt><trkpt lat="42.8515607" lon="13.5647693"><ele>242.0</ele><time>2026-04-04T07:22:46.031Z</time></trkpt><trkpt lat="42.8516171" lon="13.564914"><ele>242.0</ele><time>2026-04-04T07:22:47.032Z</time></trkpt><trkpt lat="42.8516679" lon="13.565063"><ele>242.0</ele><time>2026-04-04T07:22:48.032Z</time></trkpt><trkpt lat="42.8517148" lon="13.5652074"><ele>242.0</ele><time>2026-04-04T07:22:49.032Z</time></trkpt><trkpt lat="42.8517545" lon="13.5653379"><ele>243.0</ele><time>2026-04-04T07:22:50.032Z</time></trkpt><trkpt lat="42.8517878" lon="13.5654847"><ele>244.0</ele><time>2026-04-04T07:22:51.032Z</time></trkpt><trkpt lat="42.8518119" lon="13.5656249"><ele>245.0</ele><time>2026-04-04T07:22:52.032Z</time></trkpt><trkpt lat="42.8518338" lon="13.5657787"><ele>246.0</ele><time>2026-04-04T07:22:53.032Z</time></trkpt><trkpt lat="42.8518467" lon="13.5659303"><ele>247.0</ele><time>2026-04-04T07:22:54.032Z</time></trkpt><trkpt lat="42.8518502" lon="13.5660806"><ele>239.39999999999998</ele><time>2026-04-04T07:22:55.032Z</time></trkpt><trkpt lat="42.8518525" lon="13.5662274"><ele>231.79999999999998</ele><time>2026-04-04T07:22:56.032Z</time></trkpt><trkpt lat="42.8518656" lon="13.5663697"><ele>224.2</ele><time>2026-04-04T07:22:57.032Z</time></trkpt><trkpt lat="42.8518922" lon="13.5664993"><ele>216.6</ele><time>2026-04-04T07:22:58.032Z</time></trkpt><trkpt lat="42.8519367" lon="13.5666214"><ele>209.0</ele><time>2026-04-04T07:22:59.032Z</time></trkpt><trkpt lat="42.8519964" lon="13.566735"><ele>209.0</ele><time>2026-04-04T07:23:00.032Z</time></trkpt><trkpt lat="42.8520597" lon="13.5668402"><ele>209.0</ele><time>2026-04-04T07:23:01.032Z</time></trkpt><trkpt lat="42.8521153" lon="13.5669369"><ele>209.0</ele><time>2026-04-04T07:23:02.032Z</time></trkpt><trkpt lat="42.8521648" lon="13.5670254"><ele>209.0</ele><time>2026-04-04T07:23:03.031Z</time></trkpt><trkpt lat="42.8522036" lon="13.5671088"><ele>209.0</ele><time>2026-04-04T07:23:04.032Z</time></trkpt><trkpt lat="42.8522451" lon="13.5672504"><ele>209.71428571428572</ele><time>2026-04-04T07:23:06.032Z</time></trkpt><trkpt lat="42.8522394" lon="13.5673503"><ele>210.42857142857142</ele><time>2026-04-04T07:23:08.032Z</time></trkpt><trkpt lat="42.8522293" lon="13.5674514"><ele>211.14285714285717</ele><time>2026-04-04T07:23:10.032Z</time></trkpt><trkpt lat="42.8522177" lon="13.5675846"><ele>211.85714285714286</ele><time>2026-04-04T07:23:12.032Z</time></trkpt><trkpt lat="42.8522211" lon="13.5676704"><ele>212.57142857142858</ele><time>2026-04-04T07:23:13.032Z</time></trkpt><trkpt lat="42.8522344" lon="13.5677595"><ele>213.2857142857143</ele><time>2026-04-04T07:23:14.032Z</time></trkpt><trkpt lat="42.8522595" lon="13.5678515"><ele>214.0</ele><time>2026-04-04T07:23:15.032Z</time></trkpt><trkpt lat="42.8522936" lon="13.5679454"><ele>214.16666666666666</ele><time>2026-04-04T07:23:16.032Z</time></trkpt><trkpt lat="42.8523349" lon="13.5680346"><ele>214.33333333333331</ele><time>2026-04-04T07:23:17.032Z</time></trkpt><trkpt lat="42.8523788" lon="13.5681221"><ele>214.5</ele><time>2026-04-04T07:23:18.032Z</time></trkpt><trkpt lat="42.8524206" lon="13.5682067"><ele>214.66666666666669</ele><time>2026-04-04T07:23:19.032Z</time></trkpt><trkpt lat="42.8524573" lon="13.5682869"><ele>214.83333333333334</ele><time>2026-04-04T07:23:20.032Z</time></trkpt><trkpt lat="42.8524897" lon="13.5683758"><ele>215.0</ele><time>2026-04-04T07:23:21.032Z</time></trkpt><trkpt lat="42.8525209" lon="13.5684818"><ele>215.00000000000003</ele><time>2026-04-04T07:23:22.032Z</time></trkpt><trkpt lat="42.852542" lon="13.5685915"><ele>215.0</ele><time>2026-04-04T07:23:23.032Z</time></trkpt><trkpt lat="42.8525537" lon="13.568715"><ele>215.0</ele><time>2026-04-04T07:23:24.032Z</time></trkpt><trkpt lat="42.8525563" lon="13.5688396"><ele>215.0</ele><time>2026-04-04T07:23:25.032Z</time></trkpt><trkpt lat="42.8525591" lon="13.5689605"><ele>215.00000000000003</ele><time>2026-04-04T07:23:26.032Z</time></trkpt><trkpt lat="42.8525508" lon="13.5690766"><ele>215.0</ele><time>2026-04-04T07:23:27.032Z</time></trkpt><trkpt lat="42.8525315" lon="13.569184"><ele>214.66666666666669</ele><time>2026-04-04T07:23:28.032Z</time></trkpt><trkpt lat="42.8525043" lon="13.56929"><ele>214.33333333333334</ele><time>2026-04-04T07:23:29.032Z</time></trkpt><trkpt lat="42.8524642" lon="13.5693875"><ele>214.0</ele><time>2026-04-04T07:23:30.032Z</time></trkpt><trkpt lat="42.8524231" lon="13.5694694"><ele>213.66666666666669</ele><time>2026-04-04T07:23:31.032Z</time></trkpt><trkpt lat="42.8523709" lon="13.5695255"><ele>213.33333333333334</ele><time>2026-04-04T07:23:32.032Z</time></trkpt><trkpt lat="42.8523149" lon="13.569575"><ele>213.0</ele><time>2026-04-04T07:23:33.032Z</time></trkpt><trkpt lat="42.8522218" lon="13.5696855"><ele>211.0</ele><time>2026-04-04T07:23:35.032Z</time></trkpt><trkpt lat="42.8521575" lon="13.56981"><ele>209.0</ele><time>2026-04-04T07:23:37.032Z</time></trkpt><trkpt lat="42.8521564" lon="13.5699472"><ele>207.0</ele><time>2026-04-04T07:23:39.032Z</time></trkpt><trkpt lat="42.8522062" lon="13.5701009"><ele>205.0</ele><time>2026-04-04T07:23:41.032Z</time></trkpt><trkpt lat="42.8522383" lon="13.5701871"><ele>203.0</ele><time>2026-04-04T07:23:42.031Z</time></trkpt><trkpt lat="42.8522754" lon="13.5702804"><ele>202.60000000000002</ele><time>2026-04-04T07:23:43.032Z</time></trkpt><trkpt lat="42.8523193" lon="13.5703844"><ele>202.20000000000002</ele><time>2026-04-04T07:23:44.032Z</time></trkpt><trkpt lat="42.8523494" lon="13.5704906"><ele>201.8</ele><time>2026-04-04T07:23:45.032Z</time></trkpt><trkpt lat="42.8523761" lon="13.5706079"><ele>201.4</ele><time>2026-04-04T07:23:46.032Z</time></trkpt><trkpt lat="42.8523906" lon="13.5707524"><ele>201.0</ele><time>2026-04-04T07:23:47.032Z</time></trkpt><trkpt lat="42.852406" lon="13.570916"><ele>201.0</ele><time>2026-04-04T07:23:48.032Z</time></trkpt><trkpt lat="42.8524217" lon="13.5710754"><ele>201.0</ele><time>2026-04-04T07:23:49.032Z</time></trkpt><trkpt lat="42.8524305" lon="13.5712201"><ele>201.0</ele><time>2026-04-04T07:23:50.032Z</time></trkpt><trkpt lat="42.8524407" lon="13.57136"><ele>201.0</ele><time>2026-04-04T07:23:51.032Z</time></trkpt><trkpt lat="42.8524479" lon="13.5714908"><ele>201.0</ele><time>2026-04-04T07:23:52.032Z</time></trkpt><trkpt lat="42.8524505" lon="13.5716174"><ele>201.66666666666666</ele><time>2026-04-04T07:23:53.032Z</time></trkpt><trkpt lat="42.8524457" lon="13.5717347"><ele>202.33333333333331</ele><time>2026-04-04T07:23:54.032Z</time></trkpt><trkpt lat="42.8524376" lon="13.5718407"><ele>203.0</ele><time>2026-04-04T07:23:55.032Z</time></trkpt><trkpt lat="42.8524319" lon="13.5719363"><ele>203.66666666666666</ele><time>2026-04-04T07:23:56.032Z</time></trkpt><trkpt lat="42.8524202" lon="13.5720316"><ele>204.33333333333331</ele><time>2026-04-04T07:23:57.032Z</time></trkpt><trkpt lat="42.8523937" lon="13.5721265"><ele>205.0</ele><time>2026-04-04T07:23:58.032Z</time></trkpt><trkpt lat="42.8523412" lon="13.5722631"><ele>204.99999999999997</ele><time>2026-04-04T07:24:00.032Z</time></trkpt><trkpt lat="42.8523365" lon="13.5723825"><ele>205.0</ele><time>2026-04-04T07:24:02.032Z</time></trkpt><trkpt lat="42.8524211" lon="13.5723725"><ele>205.0</ele><time>2026-04-04T07:24:52.032Z</time></trkpt><trkpt lat="42.852489" lon="13.5722434"><ele>205.0</ele><time>2026-04-04T07:24:54.032Z</time></trkpt><trkpt lat="42.8525257" lon="13.572165"><ele>204.99999999999997</ele><time>2026-04-04T07:24:55.032Z</time></trkpt><trkpt lat="42.8525669" lon="13.5720698"><ele>205.0</ele><time>2026-04-04T07:24:56.032Z</time></trkpt><trkpt lat="42.852613" lon="13.5719635"><ele>198.6</ele><time>2026-04-04T07:24:57.032Z</time></trkpt><trkpt lat="42.8526587" lon="13.5718517"><ele>192.2</ele><time>2026-04-04T07:24:58.032Z</time></trkpt><trkpt lat="42.8527081" lon="13.5717417"><ele>185.8</ele><time>2026-04-04T07:24:59.032Z</time></trkpt><trkpt lat="42.8527481" lon="13.5716296"><ele>179.4</ele><time>2026-04-04T07:25:00.031Z</time></trkpt><trkpt lat="42.8527712" lon="13.5715123"><ele>173.0</ele><time>2026-04-04T07:25:01.032Z</time></trkpt><trkpt lat="42.8527761" lon="13.5713937"><ele>173.0</ele><time>2026-04-04T07:25:02.032Z</time></trkpt><trkpt lat="42.8527746" lon="13.5713013"><ele>173.0</ele><time>2026-04-04T07:25:03.032Z</time></trkpt><trkpt lat="42.85274" lon="13.57122"><ele>173.0</ele><time>2026-04-04T07:25:04.032Z</time></trkpt><trkpt lat="42.8526933" lon="13.5710617"><ele>173.0</ele><time>2026-04-04T07:25:06.032Z</time></trkpt><trkpt lat="42.8526783" lon="13.5709417"><ele>173.0</ele><time>2026-04-04T07:25:07.032Z</time></trkpt><trkpt lat="42.85269" lon="13.5708017"><ele>172.8</ele><time>2026-04-04T07:25:08.032Z</time></trkpt><trkpt lat="42.8527033" lon="13.570675"><ele>172.60000000000002</ele><time>2026-04-04T07:25:09.032Z</time></trkpt><trkpt lat="42.85272" lon="13.5705383"><ele>172.39999999999998</ele><time>2026-04-04T07:25:10.032Z</time></trkpt><trkpt lat="42.85274" lon="13.57041"><ele>172.2</ele><time>2026-04-04T07:25:11.032Z</time></trkpt><trkpt lat="42.8527583" lon="13.5702783"><ele>172.0</ele><time>2026-04-04T07:25:12.032Z</time></trkpt><trkpt lat="42.8527783" lon="13.5701233"><ele>171.6</ele><time>2026-04-04T07:25:13.032Z</time></trkpt><trkpt lat="42.8527917" lon="13.57"><ele>171.2</ele><time>2026-04-04T07:25:14.032Z</time></trkpt><trkpt lat="42.8528067" lon="13.5698767"><ele>170.8</ele><time>2026-04-04T07:25:15.032Z</time></trkpt><trkpt lat="42.8528167" lon="13.56976"><ele>170.4</ele><time>2026-04-04T07:25:16.032Z</time></trkpt><trkpt lat="42.8528283" lon="13.5696533"><ele>170.0</ele><time>2026-04-04T07:25:17.032Z</time></trkpt><trkpt lat="42.8528817" lon="13.56953"><ele>170.0</ele><time>2026-04-04T07:25:19.032Z</time></trkpt><trkpt lat="42.8529667" lon="13.5695933"><ele>170.0</ele><time>2026-04-04T07:25:21.032Z</time></trkpt><trkpt lat="42.8530067" lon="13.5696817"><ele>170.0</ele><time>2026-04-04T07:25:22.032Z</time></trkpt><trkpt lat="42.8530417" lon="13.5698017"><ele>170.0</ele><time>2026-04-04T07:25:23.031Z</time></trkpt><trkpt lat="42.853065" lon="13.5699433"><ele>170.0</ele><time>2026-04-04T07:25:24.032Z</time></trkpt><trkpt lat="42.85308" lon="13.5701117"><ele>170.0</ele><time>2026-04-04T07:25:25.032Z</time></trkpt><trkpt lat="42.8530883" lon="13.570285"><ele>170.0</ele><time>2026-04-04T07:25:26.032Z</time></trkpt><trkpt lat="42.8531017" lon="13.5704333"><ele>170.0</ele><time>2026-04-04T07:25:27.032Z</time></trkpt><trkpt lat="42.853125" lon="13.57058"><ele>170.0</ele><time>2026-04-04T07:25:28.032Z</time></trkpt><trkpt lat="42.8531417" lon="13.5707083"><ele>170.0</ele><time>2026-04-04T07:25:29.032Z</time></trkpt><trkpt lat="42.85316" lon="13.57083"><ele>170.33333333333331</ele><time>2026-04-04T07:25:30.032Z</time></trkpt><trkpt lat="42.8531817" lon="13.570945"><ele>170.66666666666666</ele><time>2026-04-04T07:25:31.031Z</time></trkpt><trkpt lat="42.8532033" lon="13.571045"><ele>171.0</ele><time>2026-04-04T07:25:32.032Z</time></trkpt><trkpt lat="42.85323" lon="13.57114"><ele>171.33333333333334</ele><time>2026-04-04T07:25:33.032Z</time></trkpt><trkpt lat="42.8532667" lon="13.5712383"><ele>171.66666666666669</ele><time>2026-04-04T07:25:34.032Z</time></trkpt><trkpt lat="42.8533033" lon="13.5713217"><ele>172.0</ele><time>2026-04-04T07:25:35.032Z</time></trkpt><trkpt lat="42.8533917" lon="13.5713733"><ele>172.16666666666669</ele><time>2026-04-04T07:25:37.032Z</time></trkpt><trkpt lat="42.8534483" lon="13.5713267"><ele>172.33333333333334</ele><time>2026-04-04T07:25:38.032Z</time></trkpt><trkpt lat="42.853475" lon="13.5712233"><ele>172.5</ele><time>2026-04-04T07:25:39.032Z</time></trkpt><trkpt lat="42.8534817" lon="13.571105"><ele>172.66666666666666</ele><time>2026-04-04T07:25:40.032Z</time></trkpt><trkpt lat="42.8534867" lon="13.570985"><ele>172.83333333333331</ele><time>2026-04-04T07:25:41.031Z</time></trkpt><trkpt lat="42.8535033" lon="13.5708633"><ele>173.0</ele><time>2026-04-04T07:25:42.031Z</time></trkpt><trkpt lat="42.8535217" lon="13.5707367"><ele>170.60000000000002</ele><time>2026-04-04T07:25:43.032Z</time></trkpt><trkpt lat="42.8535517" lon="13.570605"><ele>168.20000000000002</ele><time>2026-04-04T07:25:44.032Z</time></trkpt><trkpt lat="42.8535683" lon="13.5704567"><ele>165.8</ele><time>2026-04-04T07:25:45.032Z</time></trkpt><trkpt lat="42.853585" lon="13.57031"><ele>163.4</ele><time>2026-04-04T07:25:46.032Z</time></trkpt><trkpt lat="42.8535967" lon="13.57016"><ele>161.0</ele><time>2026-04-04T07:25:47.032Z</time></trkpt><trkpt lat="42.8536117" lon="13.5700183"><ele>161.0</ele><time>2026-04-04T07:25:48.032Z</time></trkpt><trkpt lat="42.8536183" lon="13.569835"><ele>161.0</ele><time>2026-04-04T07:25:49.032Z</time></trkpt><trkpt lat="42.8536333" lon="13.5696833"><ele>161.0</ele><time>2026-04-04T07:25:50.032Z</time></trkpt><trkpt lat="42.8536633" lon="13.569535"><ele>161.0</ele><time>2026-04-04T07:25:51.032Z</time></trkpt><trkpt lat="42.853685" lon="13.5693983"><ele>160.66666666666666</ele><time>2026-04-04T07:25:52.032Z</time></trkpt><trkpt lat="42.8537067" lon="13.56926"><ele>160.33333333333331</ele><time>2026-04-04T07:25:53.032Z</time></trkpt><trkpt lat="42.8537317" lon="13.56913"><ele>160.0</ele><time>2026-04-04T07:25:54.032Z</time></trkpt><trkpt lat="42.8537617" lon="13.5690067"><ele>159.66666666666666</ele><time>2026-04-04T07:25:55.032Z</time></trkpt><trkpt lat="42.85379" lon="13.5689033"><ele>159.33333333333334</ele><time>2026-04-04T07:25:56.032Z</time></trkpt><trkpt lat="42.85382" lon="13.5688233"><ele>159.0</ele><time>2026-04-04T07:25:57.032Z</time></trkpt><trkpt lat="42.853905" lon="13.56875"><ele>159.0</ele><time>2026-04-04T07:25:59.032Z</time></trkpt><trkpt lat="42.8539733" lon="13.568785"><ele>159.0</ele><time>2026-04-04T07:26:01.032Z</time></trkpt><trkpt lat="42.8540417" lon="13.56885"><ele>159.0</ele><time>2026-04-04T07:26:07.032Z</time></trkpt><trkpt lat="42.8541117" lon="13.56878"><ele>159.0</ele><time>2026-04-04T07:26:10.032Z</time></trkpt><trkpt lat="42.85414" lon="13.56867"><ele>159.0</ele><time>2026-04-04T07:26:12.032Z</time></trkpt><trkpt lat="42.8541717" lon="13.5685117"><ele>159.0</ele><time>2026-04-04T07:26:14.032Z</time></trkpt><trkpt lat="42.8541983" lon="13.5684183"><ele>158.66666666666666</ele><time>2026-04-04T07:26:15.032Z</time></trkpt><trkpt lat="42.85422" lon="13.5683317"><ele>158.33333333333334</ele><time>2026-04-04T07:26:16.032Z</time></trkpt><trkpt lat="42.8542667" lon="13.568165"><ele>158.0</ele><time>2026-04-04T07:26:18.032Z</time></trkpt><trkpt lat="42.8542967" lon="13.5680817"><ele>157.66666666666669</ele><time>2026-04-04T07:26:19.032Z</time></trkpt><trkpt lat="42.854335" lon="13.567995"><ele>157.33333333333334</ele><time>2026-04-04T07:26:20.032Z</time></trkpt><trkpt lat="42.8543783" lon="13.5679083"><ele>157.0</ele><time>2026-04-04T07:26:21.031Z</time></trkpt><trkpt lat="42.85443" lon="13.5678367"><ele>157.0</ele><time>2026-04-04T07:26:22.031Z</time></trkpt><trkpt lat="42.8544733" lon="13.5677633"><ele>157.0</ele><time>2026-04-04T07:26:23.032Z</time></trkpt><trkpt lat="42.8545133" lon="13.5676917"><ele>157.0</ele><time>2026-04-04T07:26:24.032Z</time></trkpt><trkpt lat="42.8545583" lon="13.567615"><ele>157.0</ele><time>2026-04-04T07:26:25.032Z</time></trkpt><trkpt lat="42.8545933" lon="13.5675317"><ele>157.0</ele><time>2026-04-04T07:26:26.032Z</time></trkpt><trkpt lat="42.854625" lon="13.5674483"><ele>157.0</ele><time>2026-04-04T07:26:27.032Z</time></trkpt><trkpt lat="42.8546967" lon="13.5673167"><ele>157.0</ele><time>2026-04-04T07:26:29.032Z</time></trkpt><trkpt lat="42.8547467" lon="13.5672"><ele>157.0</ele><time>2026-04-04T07:26:31.032Z</time></trkpt><trkpt lat="42.8547717" lon="13.5670583"><ele>157.0</ele><time>2026-04-04T07:26:33.032Z</time></trkpt><trkpt lat="42.8547783" lon="13.566895"><ele>157.0</ele><time>2026-04-04T07:26:35.032Z</time></trkpt><trkpt lat="42.8547667" lon="13.5668033"><ele>157.0</ele><time>2026-04-04T07:26:36.032Z</time></trkpt><trkpt lat="42.8547583" lon="13.5667033"><ele>156.16666666666669</ele><time>2026-04-04T07:26:37.032Z</time></trkpt><trkpt lat="42.8547433" lon="13.5665933"><ele>155.33333333333334</ele><time>2026-04-04T07:26:38.032Z</time></trkpt><trkpt lat="42.854725" lon="13.5664933"><ele>154.5</ele><time>2026-04-04T07:26:39.032Z</time></trkpt><trkpt lat="42.8547017" lon="13.5664"><ele>153.66666666666666</ele><time>2026-04-04T07:26:40.032Z</time></trkpt><trkpt lat="42.8546917" lon="13.5663033"><ele>152.83333333333331</ele><time>2026-04-04T07:26:41.032Z</time></trkpt><trkpt lat="42.8546767" lon="13.5662017"><ele>152.0</ele><time>2026-04-04T07:26:42.032Z</time></trkpt><trkpt lat="42.8546617" lon="13.566105"><ele>151.57142857142856</ele><time>2026-04-04T07:26:43.032Z</time></trkpt><trkpt lat="42.85464" lon="13.5660067"><ele>151.14285714285717</ele><time>2026-04-04T07:26:44.032Z</time></trkpt><trkpt lat="42.8546217" lon="13.5659117"><ele>150.71428571428572</ele><time>2026-04-04T07:26:45.032Z</time></trkpt><trkpt lat="42.854595" lon="13.5658167"><ele>150.28571428571428</ele><time>2026-04-04T07:26:46.032Z</time></trkpt><trkpt lat="42.8545717" lon="13.5657183"><ele>149.85714285714283</ele><time>2026-04-04T07:26:47.032Z</time></trkpt><trkpt lat="42.8545533" lon="13.565625"><ele>149.42857142857142</ele><time>2026-04-04T07:26:48.032Z</time></trkpt><trkpt lat="42.85454" lon="13.5655383"><ele>149.0</ele><time>2026-04-04T07:26:49.031Z</time></trkpt><trkpt lat="42.8545233" lon="13.56541"><ele>149.0</ele><time>2026-04-04T07:26:51.032Z</time></trkpt><trkpt lat="42.85454" lon="13.565295"><ele>149.0</ele><time>2026-04-04T07:26:53.032Z</time></trkpt><trkpt lat="42.8545717" lon="13.5652067"><ele>149.0</ele><time>2026-04-04T07:26:55.032Z</time></trkpt><trkpt lat="42.8546067" lon="13.56505"><ele>149.0</ele><time>2026-04-04T07:31:06.032Z</time></trkpt><trkpt lat="42.85458" lon="13.5649033"><ele>149.0</ele><time>2026-04-04T07:32:16.032Z</time></trkpt><trkpt lat="42.8544983" lon="13.5648933"><ele>149.0</ele><time>2026-04-04T07:32:19.031Z</time></trkpt><trkpt lat="42.85445" lon="13.56483"><ele>149.0</ele><time>2026-04-04T07:32:21.032Z</time></trkpt><trkpt lat="42.8544267" lon="13.5646983"><ele>149.0</ele><time>2026-04-04T07:32:23.032Z</time></trkpt><trkpt lat="42.854415" lon="13.5645183"><ele>149.0</ele><time>2026-04-04T07:32:25.032Z</time></trkpt><trkpt lat="42.8544" lon="13.5644133"><ele>149.0</ele><time>2026-04-04T07:32:26.032Z</time></trkpt><trkpt lat="42.854385" lon="13.5643017"><ele>148.2</ele><time>2026-04-04T07:32:27.032Z</time></trkpt><trkpt lat="42.85437" lon="13.56418"><ele>147.4</ele><time>2026-04-04T07:32:28.032Z</time></trkpt><trkpt lat="42.8543533" lon="13.5640467"><ele>146.6</ele><time>2026-04-04T07:32:29.032Z</time></trkpt><trkpt lat="42.8543417" lon="13.56392"><ele>145.8</ele><time>2026-04-04T07:32:30.032Z</time></trkpt><trkpt lat="42.8543117" lon="13.5637783"><ele>145.0</ele><time>2026-04-04T07:32:31.032Z</time></trkpt><trkpt lat="42.854285" lon="13.5636367"><ele>147.8</ele><time>2026-04-04T07:32:32.032Z</time></trkpt><trkpt lat="42.85425" lon="13.5634933"><ele>150.6</ele><time>2026-04-04T07:32:33.032Z</time></trkpt><trkpt lat="42.8542217" lon="13.5633533"><ele>153.4</ele><time>2026-04-04T07:32:34.032Z</time></trkpt><trkpt lat="42.8541983" lon="13.56321"><ele>156.2</ele><time>2026-04-04T07:32:35.032Z</time></trkpt><trkpt lat="42.85418" lon="13.5630733"><ele>159.0</ele><time>2026-04-04T07:32:36.032Z</time></trkpt><trkpt lat="42.8541617" lon="13.5629417"><ele>159.2</ele><time>2026-04-04T07:32:37.032Z</time></trkpt><trkpt lat="42.8541533" lon="13.5628083"><ele>159.4</ele><time>2026-04-04T07:32:38.031Z</time></trkpt><trkpt lat="42.8541367" lon="13.562665"><ele>159.6</ele><time>2026-04-04T07:32:39.032Z</time></trkpt><trkpt lat="42.8541167" lon="13.562535"><ele>159.8</ele><time>2026-04-04T07:32:40.032Z</time></trkpt><trkpt lat="42.8540983" lon="13.562405"><ele>160.0</ele><time>2026-04-04T07:32:41.032Z</time></trkpt><trkpt lat="42.8540783" lon="13.5622717"><ele>160.0</ele><time>2026-04-04T07:32:42.032Z</time></trkpt><trkpt lat="42.8540567" lon="13.5621333"><ele>160.0</ele><time>2026-04-04T07:32:43.032Z</time></trkpt><trkpt lat="42.8540417" lon="13.5619883"><ele>160.0</ele><time>2026-04-04T07:32:44.032Z</time></trkpt><trkpt lat="42.85402" lon="13.5618417"><ele>160.0</ele><time>2026-04-04T07:32:45.032Z</time></trkpt><trkpt lat="42.8539983" lon="13.5617017"><ele>160.0</ele><time>2026-04-04T07:32:46.032Z</time></trkpt><trkpt lat="42.8539767" lon="13.5615533"><ele>160.4</ele><time>2026-04-04T07:32:47.032Z</time></trkpt><trkpt lat="42.8539567" lon="13.5614167"><ele>160.8</ele><time>2026-04-04T07:32:48.032Z</time></trkpt><trkpt lat="42.853935" lon="13.5612883"><ele>161.2</ele><time>2026-04-04T07:32:49.032Z</time></trkpt><trkpt lat="42.8539133" lon="13.56117"><ele>161.6</ele><time>2026-04-04T07:32:50.032Z</time></trkpt><trkpt lat="42.8538967" lon="13.5610583"><ele>162.0</ele><time>2026-04-04T07:32:51.032Z</time></trkpt><trkpt lat="42.8538867" lon="13.5609317"><ele>162.2</ele><time>2026-04-04T07:32:52.032Z</time></trkpt><trkpt lat="42.8538717" lon="13.5608"><ele>162.39999999999998</ele><time>2026-04-04T07:32:53.032Z</time></trkpt><trkpt lat="42.8538483" lon="13.5606667"><ele>162.60000000000002</ele><time>2026-04-04T07:32:54.032Z</time></trkpt><trkpt lat="42.853825" lon="13.56053"><ele>162.8</ele><time>2026-04-04T07:32:55.032Z</time></trkpt><trkpt lat="42.853805" lon="13.5603933"><ele>163.0</ele><time>2026-04-04T07:32:56.032Z</time></trkpt><trkpt lat="42.8537967" lon="13.5602517"><ele>162.60000000000002</ele><time>2026-04-04T07:32:57.032Z</time></trkpt><trkpt lat="42.8537833" lon="13.5600967"><ele>162.20000000000002</ele><time>2026-04-04T07:32:58.032Z</time></trkpt><trkpt lat="42.85377" lon="13.5599383"><ele>161.8</ele><time>2026-04-04T07:32:59.032Z</time></trkpt><trkpt lat="42.8537533" lon="13.5598"><ele>161.4</ele><time>2026-04-04T07:33:00.032Z</time></trkpt><trkpt lat="42.8537317" lon="13.5596733"><ele>161.0</ele><time>2026-04-04T07:33:01.032Z</time></trkpt><trkpt lat="42.85371" lon="13.5595733"><ele>160.20000000000002</ele><time>2026-04-04T07:33:02.032Z</time></trkpt><trkpt lat="42.8536733" lon="13.5594067"><ele>159.4</ele><time>2026-04-04T07:33:04.032Z</time></trkpt><trkpt lat="42.8536583" lon="13.5592933"><ele>158.6</ele><time>2026-04-04T07:33:05.032Z</time></trkpt><trkpt lat="42.85364" lon="13.55915"><ele>157.8</ele><time>2026-04-04T07:33:06.032Z</time></trkpt><trkpt lat="42.85362" lon="13.5590083"><ele>157.0</ele><time>2026-04-04T07:33:07.032Z</time></trkpt><trkpt lat="42.8536033" lon="13.558855"><ele>154.75</ele><time>2026-04-04T07:33:08.032Z</time></trkpt><trkpt lat="42.8535817" lon="13.5586983"><ele>152.5</ele><time>2026-04-04T07:33:09.032Z</time></trkpt><trkpt lat="42.853555" lon="13.5585367"><ele>150.25</ele><time>2026-04-04T07:33:10.032Z</time></trkpt><trkpt lat="42.8535333" lon="13.5583667"><ele>148.0</ele><time>2026-04-04T07:33:11.031Z</time></trkpt><trkpt lat="42.8535033" lon="13.5581967"><ele>148.0</ele><time>2026-04-04T07:33:12.032Z</time></trkpt><trkpt lat="42.8534767" lon="13.558025"><ele>148.0</ele><time>2026-04-04T07:33:13.032Z</time></trkpt><trkpt lat="42.8534467" lon="13.557845"><ele>148.0</ele><time>2026-04-04T07:33:14.032Z</time></trkpt><trkpt lat="42.8534133" lon="13.5576583"><ele>148.0</ele><time>2026-04-04T07:33:15.032Z</time></trkpt><trkpt lat="42.8533933" lon="13.5574717"><ele>153.0</ele><time>2026-04-04T07:33:16.032Z</time></trkpt><trkpt lat="42.8533667" lon="13.5572967"><ele>158.0</ele><time>2026-04-04T07:33:17.032Z</time></trkpt><trkpt lat="42.8533233" lon="13.5571283"><ele>163.0</ele><time>2026-04-04T07:33:18.032Z</time></trkpt><trkpt lat="42.8532617" lon="13.5569483"><ele>168.0</ele><time>2026-04-04T07:33:19.032Z</time></trkpt><trkpt lat="42.8531833" lon="13.5567967"><ele>168.0</ele><time>2026-04-04T07:33:20.032Z</time></trkpt><trkpt lat="42.8531167" lon="13.55664"><ele>168.0</ele><time>2026-04-04T07:33:21.032Z</time></trkpt><trkpt lat="42.85304" lon="13.5564683"><ele>168.0</ele><time>2026-04-04T07:33:22.032Z</time></trkpt><trkpt lat="42.8529667" lon="13.5563067"><ele>168.0</ele><time>2026-04-04T07:33:23.032Z</time></trkpt><trkpt lat="42.852895" lon="13.556145"><ele>170.75</ele><time>2026-04-04T07:33:24.032Z</time></trkpt><trkpt lat="42.8528133" lon="13.5559817"><ele>173.5</ele><time>2026-04-04T07:33:25.032Z</time></trkpt><trkpt lat="42.85274" lon="13.5558017"><ele>176.25</ele><time>2026-04-04T07:33:26.032Z</time></trkpt><trkpt lat="42.852655" lon="13.5556283"><ele>179.0</ele><time>2026-04-04T07:33:27.032Z</time></trkpt><trkpt lat="42.8525733" lon="13.5554533"><ele>176.33333333333331</ele><time>2026-04-04T07:33:28.032Z</time></trkpt><trkpt lat="42.8524817" lon="13.55528"><ele>173.66666666666666</ele><time>2026-04-04T07:33:29.032Z</time></trkpt><trkpt lat="42.8523983" lon="13.5551117"><ele>171.0</ele><time>2026-04-04T07:33:30.031Z</time></trkpt><trkpt lat="42.8523183" lon="13.554945"><ele>171.0</ele><time>2026-04-04T07:33:31.032Z</time></trkpt><trkpt lat="42.852245" lon="13.55478"><ele>171.0</ele><time>2026-04-04T07:33:32.032Z</time></trkpt><trkpt lat="42.8521767" lon="13.5546233"><ele>171.0</ele><time>2026-04-04T07:33:33.032Z</time></trkpt><trkpt lat="42.8521067" lon="13.554465"><ele>171.0</ele><time>2026-04-04T07:33:34.032Z</time></trkpt><trkpt lat="42.8520283" lon="13.5543117"><ele>169.25</ele><time>2026-04-04T07:33:35.032Z</time></trkpt><trkpt lat="42.8519533" lon="13.554165"><ele>167.5</ele><time>2026-04-04T07:33:36.032Z</time></trkpt><trkpt lat="42.85188" lon="13.5539967"><ele>165.75</ele><time>2026-04-04T07:33:37.032Z</time></trkpt><trkpt lat="42.851835" lon="13.5538367"><ele>164.0</ele><time>2026-04-04T07:33:38.032Z</time></trkpt><trkpt lat="42.85181" lon="13.5536733"><ele>160.75</ele><time>2026-04-04T07:33:39.032Z</time></trkpt><trkpt lat="42.8517917" lon="13.5534967"><ele>157.5</ele><time>2026-04-04T07:33:40.031Z</time></trkpt><trkpt lat="42.8517817" lon="13.553315"><ele>154.25</ele><time>2026-04-04T07:33:41.032Z</time></trkpt><trkpt lat="42.85177" lon="13.5531167"><ele>151.0</ele><time>2026-04-04T07:33:42.032Z</time></trkpt><trkpt lat="42.8517733" lon="13.55294"><ele>157.0</ele><time>2026-04-04T07:33:43.032Z</time></trkpt><trkpt lat="42.851765" lon="13.552775"><ele>163.0</ele><time>2026-04-04T07:33:44.032Z</time></trkpt><trkpt lat="42.8517417" lon="13.552615"><ele>169.0</ele><time>2026-04-04T07:33:45.032Z</time></trkpt><trkpt lat="42.8516933" lon="13.552465"><ele>175.0</ele><time>2026-04-04T07:33:46.032Z</time></trkpt><trkpt lat="42.8516183" lon="13.5523283"><ele>175.0</ele><time>2026-04-04T07:33:47.032Z</time></trkpt><trkpt lat="42.8515217" lon="13.5522167"><ele>175.0</ele><time>2026-04-04T07:33:48.032Z</time></trkpt><trkpt lat="42.8514183" lon="13.5521033"><ele>175.0</ele><time>2026-04-04T07:33:49.031Z</time></trkpt><trkpt lat="42.8513267" lon="13.55198"><ele>175.0</ele><time>2026-04-04T07:33:50.031Z</time></trkpt><trkpt lat="42.8512517" lon="13.5518283"><ele>172.75</ele><time>2026-04-04T07:33:51.031Z</time></trkpt><trkpt lat="42.8511983" lon="13.55165"><ele>170.5</ele><time>2026-04-04T07:33:52.032Z</time></trkpt><trkpt lat="42.8511483" lon="13.551465"><ele>168.25</ele><time>2026-04-04T07:33:53.032Z</time></trkpt><trkpt lat="42.851105" lon="13.5512717"><ele>166.0</ele><time>2026-04-04T07:33:54.032Z</time></trkpt><trkpt lat="42.8510683" lon="13.5510917"><ele>165.75</ele><time>2026-04-04T07:33:55.032Z</time></trkpt><trkpt lat="42.8510383" lon="13.5508967"><ele>165.5</ele><time>2026-04-04T07:33:56.032Z</time></trkpt><trkpt lat="42.851" lon="13.5506917"><ele>165.25</ele><time>2026-04-04T07:33:57.032Z</time></trkpt><trkpt lat="42.8509567" lon="13.5504983"><ele>165.0</ele><time>2026-04-04T07:33:58.032Z</time></trkpt><trkpt lat="42.85092" lon="13.550305"><ele>168.0</ele><time>2026-04-04T07:33:59.032Z</time></trkpt><trkpt lat="42.8508833" lon="13.5501017"><ele>171.0</ele><time>2026-04-04T07:34:00.032Z</time></trkpt><trkpt lat="42.8508483" lon="13.549905"><ele>174.0</ele><time>2026-04-04T07:34:01.032Z</time></trkpt><trkpt lat="42.85082" lon="13.5497217"><ele>177.0</ele><time>2026-04-04T07:34:02.032Z</time></trkpt><trkpt lat="42.850775" lon="13.54956"><ele>174.0</ele><time>2026-04-04T07:34:03.032Z</time></trkpt><trkpt lat="42.8507283" lon="13.5494017"><ele>171.0</ele><time>2026-04-04T07:34:04.032Z</time></trkpt><trkpt lat="42.8506767" lon="13.5492467"><ele>168.0</ele><time>2026-04-04T07:34:05.032Z</time></trkpt><trkpt lat="42.8505983" lon="13.5491133"><ele>165.0</ele><time>2026-04-04T07:34:06.032Z</time></trkpt><trkpt lat="42.8505" lon="13.5489983"><ele>165.0</ele><time>2026-04-04T07:34:07.032Z</time></trkpt><trkpt lat="42.85039" lon="13.5488917"><ele>165.0</ele><time>2026-04-04T07:34:08.032Z</time></trkpt><trkpt lat="42.8502767" lon="13.5487833"><ele>165.0</ele><time>2026-04-04T07:34:09.031Z</time></trkpt><trkpt lat="42.8501617" lon="13.54869"><ele>165.0</ele><time>2026-04-04T07:34:10.032Z</time></trkpt><trkpt lat="42.8500617" lon="13.54858"><ele>166.0</ele><time>2026-04-04T07:34:11.032Z</time></trkpt><trkpt lat="42.8499767" lon="13.5484667"><ele>167.0</ele><time>2026-04-04T07:34:12.032Z</time></trkpt><trkpt lat="42.8499067" lon="13.548335"><ele>168.0</ele><time>2026-04-04T07:34:13.032Z</time></trkpt><trkpt lat="42.849865" lon="13.5481767"><ele>169.0</ele><time>2026-04-04T07:34:14.032Z</time></trkpt><trkpt lat="42.84986" lon="13.548005"><ele>166.75</ele><time>2026-04-04T07:34:15.032Z</time></trkpt><trkpt lat="42.849855" lon="13.5478133"><ele>164.5</ele><time>2026-04-04T07:34:16.032Z</time></trkpt><trkpt lat="42.8498367" lon="13.5476233"><ele>162.25</ele><time>2026-04-04T07:34:17.032Z</time></trkpt><trkpt lat="42.849815" lon="13.5474267"><ele>160.0</ele><time>2026-04-04T07:34:18.032Z</time></trkpt><trkpt lat="42.8497933" lon="13.54723"><ele>159.25</ele><time>2026-04-04T07:34:19.032Z</time></trkpt><trkpt lat="42.849775" lon="13.5470283"><ele>158.5</ele><time>2026-04-04T07:34:20.032Z</time></trkpt><trkpt lat="42.849745" lon="13.54684"><ele>157.75</ele><time>2026-04-04T07:34:21.032Z</time></trkpt><trkpt lat="42.8497283" lon="13.5466383"><ele>157.0</ele><time>2026-04-04T07:34:22.032Z</time></trkpt><trkpt lat="42.84971" lon="13.5464333"><ele>157.0</ele><time>2026-04-04T07:34:23.032Z</time></trkpt><trkpt lat="42.84969" lon="13.5462233"><ele>157.0</ele><time>2026-04-04T07:34:24.032Z</time></trkpt><trkpt lat="42.84966" lon="13.5460133"><ele>157.0</ele><time>2026-04-04T07:34:25.032Z</time></trkpt><trkpt lat="42.849605" lon="13.545815"><ele>156.33333333333334</ele><time>2026-04-04T07:34:26.032Z</time></trkpt><trkpt lat="42.8495633" lon="13.5456017"><ele>155.66666666666666</ele><time>2026-04-04T07:34:27.032Z</time></trkpt><trkpt lat="42.8495" lon="13.5454183"><ele>155.0</ele><time>2026-04-04T07:34:28.032Z</time></trkpt><trkpt lat="42.8494517" lon="13.545225"><ele>155.0</ele><time>2026-04-04T07:34:29.032Z</time></trkpt><trkpt lat="42.8493867" lon="13.545035"><ele>155.0</ele><time>2026-04-04T07:34:30.031Z</time></trkpt><trkpt lat="42.849325" lon="13.54485"><ele>155.0</ele><time>2026-04-04T07:34:31.032Z</time></trkpt><trkpt lat="42.8492767" lon="13.5446717"><ele>155.0</ele><time>2026-04-04T07:34:32.032Z</time></trkpt><trkpt lat="42.8492283" lon="13.5444817"><ele>159.0</ele><time>2026-04-04T07:34:33.032Z</time></trkpt><trkpt lat="42.84918" lon="13.54429"><ele>163.0</ele><time>2026-04-04T07:34:34.032Z</time></trkpt><trkpt lat="42.8491267" lon="13.5440883"><ele>167.0</ele><time>2026-04-04T07:34:35.032Z</time></trkpt><trkpt lat="42.8490783" lon="13.5438883"><ele>168.0</ele><time>2026-04-04T07:34:36.032Z</time></trkpt><trkpt lat="42.84904" lon="13.5436967"><ele>169.0</ele><time>2026-04-04T07:34:37.031Z</time></trkpt><trkpt lat="42.848995" lon="13.5435"><ele>170.0</ele><time>2026-04-04T07:34:38.032Z</time></trkpt><trkpt lat="42.8489517" lon="13.5433183"><ele>171.0</ele><time>2026-04-04T07:34:39.032Z</time></trkpt><trkpt lat="42.8489217" lon="13.5431267"><ele>171.0</ele><time>2026-04-04T07:34:40.032Z</time></trkpt><trkpt lat="42.8489033" lon="13.542935"><ele>171.0</ele><time>2026-04-04T07:34:41.032Z</time></trkpt><trkpt lat="42.8489117" lon="13.5427283"><ele>171.0</ele><time>2026-04-04T07:34:42.032Z</time></trkpt><trkpt lat="42.8489183" lon="13.5425317"><ele>171.0</ele><time>2026-04-04T07:34:43.032Z</time></trkpt><trkpt lat="42.848945" lon="13.542335"><ele>173.33333333333334</ele><time>2026-04-04T07:34:44.032Z</time></trkpt><trkpt lat="42.8489983" lon="13.542125"><ele>175.66666666666669</ele><time>2026-04-04T07:34:45.031Z</time></trkpt><trkpt lat="42.84906" lon="13.5419267"><ele>178.0</ele><time>2026-04-04T07:34:46.032Z</time></trkpt><trkpt lat="42.84913" lon="13.5417333"><ele>179.0</ele><time>2026-04-04T07:34:47.032Z</time></trkpt><trkpt lat="42.8492083" lon="13.54156"><ele>180.0</ele><time>2026-04-04T07:34:48.032Z</time></trkpt><trkpt lat="42.8492733" lon="13.541385"><ele>181.0</ele><time>2026-04-04T07:34:49.031Z</time></trkpt><trkpt lat="42.84933" lon="13.5412017"><ele>182.0</ele><time>2026-04-04T07:34:50.032Z</time></trkpt><trkpt lat="42.849375" lon="13.5410183"><ele>181.75</ele><time>2026-04-04T07:34:51.032Z</time></trkpt><trkpt lat="42.8494067" lon="13.5408233"><ele>181.5</ele><time>2026-04-04T07:34:52.032Z</time></trkpt><trkpt lat="42.8494183" lon="13.5406317"><ele>181.25</ele><time>2026-04-04T07:34:53.033Z</time></trkpt><trkpt lat="42.849415" lon="13.5404433"><ele>181.0</ele><time>2026-04-04T07:34:54.033Z</time></trkpt><trkpt lat="42.8494117" lon="13.5402367"><ele>181.0</ele><time>2026-04-04T07:34:55.033Z</time></trkpt><trkpt lat="42.8493883" lon="13.5400433"><ele>181.0</ele><time>2026-04-04T07:34:56.032Z</time></trkpt><trkpt lat="42.8493667" lon="13.5398467"><ele>181.0</ele><time>2026-04-04T07:34:57.033Z</time></trkpt><trkpt lat="42.8493533" lon="13.5396417"><ele>181.0</ele><time>2026-04-04T07:34:58.033Z</time></trkpt><trkpt lat="42.849345" lon="13.5394267"><ele>181.0</ele><time>2026-04-04T07:34:59.032Z</time></trkpt><trkpt lat="42.849355" lon="13.539215"><ele>181.0</ele><time>2026-04-04T07:35:00.033Z</time></trkpt><trkpt lat="42.8493683" lon="13.539"><ele>181.0</ele><time>2026-04-04T07:35:01.033Z</time></trkpt><trkpt lat="42.849385" lon="13.5387833"><ele>180.33333333333334</ele><time>2026-04-04T07:35:02.033Z</time></trkpt><trkpt lat="42.8494083" lon="13.53856"><ele>179.66666666666666</ele><time>2026-04-04T07:35:03.033Z</time></trkpt><trkpt lat="42.8494367" lon="13.5383433"><ele>179.0</ele><time>2026-04-04T07:35:04.033Z</time></trkpt><trkpt lat="42.849465" lon="13.5381383"><ele>179.0</ele><time>2026-04-04T07:35:05.033Z</time></trkpt><trkpt lat="42.8494917" lon="13.5379367"><ele>179.0</ele><time>2026-04-04T07:35:06.033Z</time></trkpt><trkpt lat="42.849515" lon="13.5377283"><ele>179.0</ele><time>2026-04-04T07:35:07.033Z</time></trkpt><trkpt lat="42.849545" lon="13.5375167"><ele>179.0</ele><time>2026-04-04T07:35:08.033Z</time></trkpt><trkpt lat="42.8495683" lon="13.5373033"><ele>179.0</ele><time>2026-04-04T07:35:09.032Z</time></trkpt><trkpt lat="42.849595" lon="13.5370833"><ele>179.0</ele><time>2026-04-04T07:35:10.033Z</time></trkpt><trkpt lat="42.84964" lon="13.536875"><ele>179.33333333333331</ele><time>2026-04-04T07:35:11.033Z</time></trkpt><trkpt lat="42.8496733" lon="13.53665"><ele>179.66666666666666</ele><time>2026-04-04T07:35:12.033Z</time></trkpt><trkpt lat="42.8497033" lon="13.5364333"><ele>180.0</ele><time>2026-04-04T07:35:13.033Z</time></trkpt><trkpt lat="42.8497383" lon="13.5362083"><ele>181.0</ele><time>2026-04-04T07:35:14.033Z</time></trkpt><trkpt lat="42.8497667" lon="13.53599"><ele>182.0</ele><time>2026-04-04T07:35:15.033Z</time></trkpt><trkpt lat="42.84979" lon="13.53576"><ele>183.0</ele><time>2026-04-04T07:35:16.033Z</time></trkpt><trkpt lat="42.8498167" lon="13.53553"><ele>182.33333333333334</ele><time>2026-04-04T07:35:17.033Z</time></trkpt><trkpt lat="42.8498117" lon="13.5352667"><ele>181.66666666666669</ele><time>2026-04-04T07:35:18.033Z</time></trkpt><trkpt lat="42.8498417" lon="13.5350417"><ele>181.0</ele><time>2026-04-04T07:35:19.033Z</time></trkpt><trkpt lat="42.8498683" lon="13.534805"><ele>181.0</ele><time>2026-04-04T07:35:20.033Z</time></trkpt><trkpt lat="42.84989" lon="13.5345567"><ele>181.0</ele><time>2026-04-04T07:35:21.033Z</time></trkpt><trkpt lat="42.849905" lon="13.5342983"><ele>181.0</ele><time>2026-04-04T07:35:22.033Z</time></trkpt><trkpt lat="42.84991" lon="13.534035"><ele>181.66666666666669</ele><time>2026-04-04T07:35:23.033Z</time></trkpt><trkpt lat="42.84991" lon="13.53377"><ele>182.33333333333334</ele><time>2026-04-04T07:35:24.033Z</time></trkpt><trkpt lat="42.84991" lon="13.53351"><ele>183.0</ele><time>2026-04-04T07:35:25.032Z</time></trkpt><trkpt lat="42.8499017" lon="13.5332583"><ele>185.0</ele><time>2026-04-04T07:35:26.033Z</time></trkpt><trkpt lat="42.8499" lon="13.5330183"><ele>187.0</ele><time>2026-04-04T07:35:27.033Z</time></trkpt><trkpt lat="42.84989" lon="13.53278"><ele>189.0</ele><time>2026-04-04T07:35:28.033Z</time></trkpt><trkpt lat="42.8498817" lon="13.5325433"><ele>188.66666666666666</ele><time>2026-04-04T07:35:29.033Z</time></trkpt><trkpt lat="42.8498683" lon="13.5323117"><ele>188.33333333333331</ele><time>2026-04-04T07:35:30.033Z</time></trkpt><trkpt lat="42.849845" lon="13.5320817"><ele>188.0</ele><time>2026-04-04T07:35:31.033Z</time></trkpt><trkpt lat="42.84981" lon="13.5318617"><ele>188.0</ele><time>2026-04-04T07:35:32.033Z</time></trkpt><trkpt lat="42.8497667" lon="13.5316433"><ele>188.0</ele><time>2026-04-04T07:35:33.033Z</time></trkpt><trkpt lat="42.8497067" lon="13.5314433"><ele>188.0</ele><time>2026-04-04T07:35:34.033Z</time></trkpt><trkpt lat="42.849645" lon="13.5312383"><ele>185.66666666666666</ele><time>2026-04-04T07:35:35.033Z</time></trkpt><trkpt lat="42.8495717" lon="13.5310317"><ele>183.33333333333334</ele><time>2026-04-04T07:35:36.033Z</time></trkpt><trkpt lat="42.849495" lon="13.53085"><ele>181.0</ele><time>2026-04-04T07:35:37.033Z</time></trkpt><trkpt lat="42.8494033" lon="13.5306833"><ele>181.0</ele><time>2026-04-04T07:35:38.033Z</time></trkpt><trkpt lat="42.8492967" lon="13.53053"><ele>181.0</ele><time>2026-04-04T07:35:39.033Z</time></trkpt><trkpt lat="42.84918" lon="13.530385"><ele>181.0</ele><time>2026-04-04T07:35:40.033Z</time></trkpt><trkpt lat="42.8490467" lon="13.5302617"><ele>182.0</ele><time>2026-04-04T07:35:41.033Z</time></trkpt><trkpt lat="42.8489083" lon="13.5301517"><ele>183.0</ele><time>2026-04-04T07:35:42.033Z</time></trkpt><trkpt lat="42.8487567" lon="13.5300783"><ele>184.0</ele><time>2026-04-04T07:35:43.033Z</time></trkpt><trkpt lat="42.84859" lon="13.53002"><ele>186.66666666666669</ele><time>2026-04-04T07:35:44.033Z</time></trkpt><trkpt lat="42.848425" lon="13.5299583"><ele>189.33333333333334</ele><time>2026-04-04T07:35:45.033Z</time></trkpt><trkpt lat="42.8482533" lon="13.529905"><ele>192.0</ele><time>2026-04-04T07:35:46.033Z</time></trkpt><trkpt lat="42.8480867" lon="13.5298183"><ele>192.0</ele><time>2026-04-04T07:35:47.032Z</time></trkpt><trkpt lat="42.8479217" lon="13.5297217"><ele>192.0</ele><time>2026-04-04T07:35:48.033Z</time></trkpt><trkpt lat="42.847765" lon="13.52961"><ele>192.0</ele><time>2026-04-04T07:35:49.033Z</time></trkpt><trkpt lat="42.847605" lon="13.529495"><ele>188.0</ele><time>2026-04-04T07:35:50.033Z</time></trkpt><trkpt lat="42.84745" lon="13.52937"><ele>184.0</ele><time>2026-04-04T07:35:51.033Z</time></trkpt><trkpt lat="42.8473" lon="13.52924"><ele>180.0</ele><time>2026-04-04T07:35:52.032Z</time></trkpt><trkpt lat="42.847145" lon="13.5291083"><ele>180.0</ele><time>2026-04-04T07:35:53.033Z</time></trkpt><trkpt lat="42.84699" lon="13.5289867"><ele>180.0</ele><time>2026-04-04T07:35:54.033Z</time></trkpt><trkpt lat="42.84684" lon="13.5288617"><ele>180.0</ele><time>2026-04-04T07:35:55.033Z</time></trkpt><trkpt lat="42.8466917" lon="13.5287367"><ele>180.0</ele><time>2026-04-04T07:35:56.033Z</time></trkpt><trkpt lat="42.8465533" lon="13.52862"><ele>180.0</ele><time>2026-04-04T07:35:57.033Z</time></trkpt><trkpt lat="42.8464083" lon="13.5285033"><ele>180.0</ele><time>2026-04-04T07:35:58.033Z</time></trkpt><trkpt lat="42.846275" lon="13.528395"><ele>180.0</ele><time>2026-04-04T07:35:59.033Z</time></trkpt><trkpt lat="42.84614" lon="13.5282917"><ele>180.0</ele><time>2026-04-04T07:36:00.033Z</time></trkpt><trkpt lat="42.84601" lon="13.5281817"><ele>180.0</ele><time>2026-04-04T07:36:01.033Z</time></trkpt><trkpt lat="42.8458917" lon="13.5280567"><ele>180.0</ele><time>2026-04-04T07:36:02.033Z</time></trkpt><trkpt lat="42.845785" lon="13.5279217"><ele>180.0</ele><time>2026-04-04T07:36:03.033Z</time></trkpt><trkpt lat="42.84569" lon="13.5277583"><ele>180.0</ele><time>2026-04-04T07:36:04.033Z</time></trkpt><trkpt lat="42.845605" lon="13.52759"><ele>180.0</ele><time>2026-04-04T07:36:05.033Z</time></trkpt><trkpt lat="42.8455133" lon="13.52743"><ele>180.0</ele><time>2026-04-04T07:36:06.033Z</time></trkpt><trkpt lat="42.8454183" lon="13.5272717"><ele>180.0</ele><time>2026-04-04T07:36:07.033Z</time></trkpt><trkpt lat="42.845305" lon="13.5271383"><ele>180.0</ele><time>2026-04-04T07:36:08.032Z</time></trkpt><trkpt lat="42.8451817" lon="13.5270217"><ele>181.66666666666666</ele><time>2026-04-04T07:36:09.033Z</time></trkpt><trkpt lat="42.845055" lon="13.5269167"><ele>183.33333333333331</ele><time>2026-04-04T07:36:10.033Z</time></trkpt><trkpt lat="42.8449217" lon="13.5268133"><ele>185.0</ele><time>2026-04-04T07:36:11.033Z</time></trkpt><trkpt lat="42.8447917" lon="13.5267133"><ele>185.0</ele><time>2026-04-04T07:36:12.033Z</time></trkpt><trkpt lat="42.8446533" lon="13.5266133"><ele>185.0</ele><time>2026-04-04T07:36:13.033Z</time></trkpt><trkpt lat="42.84452" lon="13.526515"><ele>185.0</ele><time>2026-04-04T07:36:14.033Z</time></trkpt><trkpt lat="42.8443867" lon="13.5264133"><ele>184.66666666666666</ele><time>2026-04-04T07:36:15.033Z</time></trkpt><trkpt lat="42.8442433" lon="13.5263117"><ele>184.33333333333334</ele><time>2026-04-04T07:36:16.033Z</time></trkpt><trkpt lat="42.8441033" lon="13.5262167"><ele>184.0</ele><time>2026-04-04T07:36:17.033Z</time></trkpt><trkpt lat="42.843965" lon="13.5261083"><ele>184.0</ele><time>2026-04-04T07:36:18.033Z</time></trkpt><trkpt lat="42.8438267" lon="13.525995"><ele>184.0</ele><time>2026-04-04T07:36:19.033Z</time></trkpt><trkpt lat="42.8436867" lon="13.5258783"><ele>184.0</ele><time>2026-04-04T07:36:20.033Z</time></trkpt><trkpt lat="42.84355" lon="13.5257517"><ele>184.33333333333334</ele><time>2026-04-04T07:36:21.033Z</time></trkpt><trkpt lat="42.8434133" lon="13.52563"><ele>184.66666666666666</ele><time>2026-04-04T07:36:22.033Z</time></trkpt><trkpt lat="42.843285" lon="13.5254983"><ele>185.0</ele><time>2026-04-04T07:36:23.033Z</time></trkpt><trkpt lat="42.843155" lon="13.5253583"><ele>185.0</ele><time>2026-04-04T07:36:24.033Z</time></trkpt><trkpt lat="42.843025" lon="13.52522"><ele>185.0</ele><time>2026-04-04T07:36:25.033Z</time></trkpt><trkpt lat="42.8429017" lon="13.525095"><ele>185.0</ele><time>2026-04-04T07:36:26.033Z</time></trkpt><trkpt lat="42.842775" lon="13.5249783"><ele>185.0</ele><time>2026-04-04T07:36:27.033Z</time></trkpt><trkpt lat="42.8426367" lon="13.52488"><ele>185.0</ele><time>2026-04-04T07:36:28.033Z</time></trkpt><trkpt lat="42.8424983" lon="13.52481"><ele>185.0</ele><time>2026-04-04T07:36:29.033Z</time></trkpt><trkpt lat="42.8423583" lon="13.5247533"><ele>185.75</ele><time>2026-04-04T07:36:30.033Z</time></trkpt><trkpt lat="42.8422183" lon="13.5246883"><ele>186.5</ele><time>2026-04-04T07:36:31.033Z</time></trkpt><trkpt lat="42.8420883" lon="13.5246167"><ele>187.25</ele><time>2026-04-04T07:36:32.032Z</time></trkpt><trkpt lat="42.8419733" lon="13.5245133"><ele>188.0</ele><time>2026-04-04T07:36:33.033Z</time></trkpt><trkpt lat="42.841865" lon="13.5243867"><ele>189.0</ele><time>2026-04-04T07:36:34.033Z</time></trkpt><trkpt lat="42.84177" lon="13.5242417"><ele>190.0</ele><time>2026-04-04T07:36:35.033Z</time></trkpt><trkpt lat="42.8416917" lon="13.5240867"><ele>191.0</ele><time>2026-04-04T07:36:36.033Z</time></trkpt><trkpt lat="42.841625" lon="13.5239"><ele>192.0</ele><time>2026-04-04T07:36:37.033Z</time></trkpt><trkpt lat="42.84153" lon="13.5237117"><ele>192.0</ele><time>2026-04-04T07:36:38.032Z</time></trkpt><trkpt lat="42.84146" lon="13.52355"><ele>192.0</ele><time>2026-04-04T07:36:39.032Z</time></trkpt><trkpt lat="42.8413633" lon="13.5234"><ele>192.0</ele><time>2026-04-04T07:36:40.033Z</time></trkpt><trkpt lat="42.84125" lon="13.523275"><ele>192.0</ele><time>2026-04-04T07:36:41.033Z</time></trkpt><trkpt lat="42.84112" lon="13.5231733"><ele>192.0</ele><time>2026-04-04T07:36:42.033Z</time></trkpt><trkpt lat="42.8409767" lon="13.5231017"><ele>192.0</ele><time>2026-04-04T07:36:43.033Z</time></trkpt><trkpt lat="42.84083" lon="13.5230633"><ele>192.0</ele><time>2026-04-04T07:36:44.033Z</time></trkpt><trkpt lat="42.84068" lon="13.5230483"><ele>195.66666666666669</ele><time>2026-04-04T07:36:45.033Z</time></trkpt><trkpt lat="42.8405333" lon="13.523045"><ele>199.33333333333334</ele><time>2026-04-04T07:36:46.033Z</time></trkpt><trkpt lat="42.84038" lon="13.5230467"><ele>203.0</ele><time>2026-04-04T07:36:47.033Z</time></trkpt><trkpt lat="42.8402117" lon="13.52306"><ele>202.0</ele><time>2026-04-04T07:36:48.033Z</time></trkpt><trkpt lat="42.8400583" lon="13.5230533"><ele>201.0</ele><time>2026-04-04T07:36:49.033Z</time></trkpt><trkpt lat="42.839905" lon="13.5230433"><ele>200.0</ele><time>2026-04-04T07:36:50.033Z</time></trkpt><trkpt lat="42.8397567" lon="13.52303"><ele>200.0</ele><time>2026-04-04T07:36:51.033Z</time></trkpt><trkpt lat="42.8396117" lon="13.5230267"><ele>200.0</ele><time>2026-04-04T07:36:52.033Z</time></trkpt><trkpt lat="42.8394633" lon="13.5230167"><ele>200.0</ele><time>2026-04-04T07:36:53.033Z</time></trkpt><trkpt lat="42.8393317" lon="13.5230017"><ele>200.0</ele><time>2026-04-04T07:36:54.033Z</time></trkpt><trkpt lat="42.839205" lon="13.5229767"><ele>200.25</ele><time>2026-04-04T07:36:55.033Z</time></trkpt><trkpt lat="42.83907" lon="13.5228883"><ele>200.5</ele><time>2026-04-04T07:36:56.033Z</time></trkpt><trkpt lat="42.838955" lon="13.5227617"><ele>200.75</ele><time>2026-04-04T07:36:57.033Z</time></trkpt><trkpt lat="42.8388517" lon="13.5226333"><ele>201.0</ele><time>2026-04-04T07:36:58.033Z</time></trkpt><trkpt lat="42.8387567" lon="13.52249"><ele>201.0</ele><time>2026-04-04T07:36:59.033Z</time></trkpt><trkpt lat="42.8386533" lon="13.5223533"><ele>201.0</ele><time>2026-04-04T07:37:00.033Z</time></trkpt><trkpt lat="42.8385533" lon="13.5222283"><ele>201.0</ele><time>2026-04-04T07:37:01.033Z</time></trkpt><trkpt lat="42.8384633" lon="13.5221067"><ele>201.0</ele><time>2026-04-04T07:37:02.033Z</time></trkpt><trkpt lat="42.8383867" lon="13.522015"><ele>202.0</ele><time>2026-04-04T07:37:03.033Z</time></trkpt><trkpt lat="42.8383167" lon="13.5219233"><ele>203.0</ele><time>2026-04-04T07:37:04.033Z</time></trkpt><trkpt lat="42.8382517" lon="13.5218283"><ele>204.0</ele><time>2026-04-04T07:37:05.033Z</time></trkpt><trkpt lat="42.8381917" lon="13.5217283"><ele>205.0</ele><time>2026-04-04T07:37:06.033Z</time></trkpt><trkpt lat="42.8381467" lon="13.5216283"><ele>206.0</ele><time>2026-04-04T07:37:07.033Z</time></trkpt><trkpt lat="42.8381083" lon="13.5215217"><ele>206.0</ele><time>2026-04-04T07:37:08.033Z</time></trkpt><trkpt lat="42.838085" lon="13.5214283"><ele>206.0</ele><time>2026-04-04T07:37:09.033Z</time></trkpt><trkpt lat="42.8380617" lon="13.5213433"><ele>206.0</ele><time>2026-04-04T07:37:10.033Z</time></trkpt><trkpt lat="42.8380367" lon="13.5211717"><ele>206.0</ele><time>2026-04-04T07:37:12.033Z</time></trkpt><trkpt lat="42.8380267" lon="13.5210833"><ele>206.0</ele><time>2026-04-04T07:37:13.033Z</time></trkpt><trkpt lat="42.8379917" lon="13.520925"><ele>205.8</ele><time>2026-04-04T07:37:15.033Z</time></trkpt><trkpt lat="42.837935" lon="13.5207967"><ele>205.60000000000002</ele><time>2026-04-04T07:37:17.033Z</time></trkpt><trkpt lat="42.837855" lon="13.520695"><ele>205.4</ele><time>2026-04-04T07:37:19.033Z</time></trkpt><trkpt lat="42.8377433" lon="13.5206117"><ele>205.2</ele><time>2026-04-04T07:37:21.033Z</time></trkpt><trkpt lat="42.8376783" lon="13.5205883"><ele>205.0</ele><time>2026-04-04T07:37:22.033Z</time></trkpt><trkpt lat="42.8375517" lon="13.5205567"><ele>205.66666666666666</ele><time>2026-04-04T07:37:24.033Z</time></trkpt><trkpt lat="42.8374817" lon="13.5205333"><ele>206.33333333333331</ele><time>2026-04-04T07:37:25.033Z</time></trkpt><trkpt lat="42.837405" lon="13.5205117"><ele>207.0</ele><time>2026-04-04T07:37:26.033Z</time></trkpt><trkpt lat="42.8373317" lon="13.52047"><ele>207.66666666666669</ele><time>2026-04-04T07:37:27.033Z</time></trkpt><trkpt lat="42.8372483" lon="13.5204183"><ele>208.33333333333334</ele><time>2026-04-04T07:37:28.033Z</time></trkpt><trkpt lat="42.8371617" lon="13.52035"><ele>209.0</ele><time>2026-04-04T07:37:29.033Z</time></trkpt><trkpt lat="42.8370833" lon="13.52028"><ele>209.0</ele><time>2026-04-04T07:37:30.033Z</time></trkpt><trkpt lat="42.8370067" lon="13.5202"><ele>209.0</ele><time>2026-04-04T07:37:31.033Z</time></trkpt><trkpt lat="42.8369333" lon="13.5200917"><ele>209.0</ele><time>2026-04-04T07:37:32.033Z</time></trkpt><trkpt lat="42.8368667" lon="13.5199733"><ele>209.0</ele><time>2026-04-04T07:37:33.033Z</time></trkpt><trkpt lat="42.83679" lon="13.519865"><ele>209.0</ele><time>2026-04-04T07:37:34.033Z</time></trkpt><trkpt lat="42.8366983" lon="13.519765"><ele>212.25</ele><time>2026-04-04T07:37:35.033Z</time></trkpt><trkpt lat="42.8365933" lon="13.5197"><ele>215.5</ele><time>2026-04-04T07:37:36.033Z</time></trkpt><trkpt lat="42.8364767" lon="13.5196583"><ele>218.75</ele><time>2026-04-04T07:37:37.033Z</time></trkpt><trkpt lat="42.8363533" lon="13.51966"><ele>222.0</ele><time>2026-04-04T07:37:38.033Z</time></trkpt><trkpt lat="42.8362217" lon="13.51966"><ele>222.0</ele><time>2026-04-04T07:37:39.033Z</time></trkpt><trkpt lat="42.836095" lon="13.5196667"><ele>222.0</ele><time>2026-04-04T07:37:40.033Z</time></trkpt><trkpt lat="42.83597" lon="13.5196683"><ele>222.0</ele><time>2026-04-04T07:37:41.033Z</time></trkpt><trkpt lat="42.8358483" lon="13.5196583"><ele>222.0</ele><time>2026-04-04T07:37:42.033Z</time></trkpt><trkpt lat="42.8357233" lon="13.5196417"><ele>219.5</ele><time>2026-04-04T07:37:43.032Z</time></trkpt><trkpt lat="42.8355933" lon="13.5196083"><ele>217.0</ele><time>2026-04-04T07:37:44.033Z</time></trkpt><trkpt lat="42.8354567" lon="13.519585"><ele>214.5</ele><time>2026-04-04T07:37:45.033Z</time></trkpt><trkpt lat="42.835325" lon="13.519565"><ele>212.0</ele><time>2026-04-04T07:37:46.033Z</time></trkpt><trkpt lat="42.8351933" lon="13.519545"><ele>216.33333333333334</ele><time>2026-04-04T07:37:47.033Z</time></trkpt><trkpt lat="42.835065" lon="13.5194383"><ele>220.66666666666669</ele><time>2026-04-04T07:37:48.033Z</time></trkpt><trkpt lat="42.834895" lon="13.519315"><ele>225.0</ele><time>2026-04-04T07:37:49.033Z</time></trkpt><trkpt lat="42.8347783" lon="13.5191883"><ele>225.0</ele><time>2026-04-04T07:37:50.033Z</time></trkpt><trkpt lat="42.8346933" lon="13.518935"><ele>225.0</ele><time>2026-04-04T07:37:51.033Z</time></trkpt><trkpt lat="42.8346233" lon="13.5187283"><ele>225.0</ele><time>2026-04-04T07:37:52.032Z</time></trkpt><trkpt lat="42.8345433" lon="13.5185"><ele>224.5</ele><time>2026-04-04T07:37:53.033Z</time></trkpt><trkpt lat="42.8344433" lon="13.518345"><ele>224.0</ele><time>2026-04-04T07:37:54.033Z</time></trkpt><trkpt lat="42.83433" lon="13.5182"><ele>223.5</ele><time>2026-04-04T07:37:55.033Z</time></trkpt><trkpt lat="42.8342083" lon="13.5181"><ele>223.0</ele><time>2026-04-04T07:37:56.033Z</time></trkpt><trkpt lat="42.8340833" lon="13.5180083"><ele>223.0</ele><time>2026-04-04T07:37:57.032Z</time></trkpt><trkpt lat="42.8339733" lon="13.5179417"><ele>223.0</ele><time>2026-04-04T07:37:58.033Z</time></trkpt><trkpt lat="42.8338717" lon="13.5178833"><ele>223.0</ele><time>2026-04-04T07:37:59.033Z</time></trkpt><trkpt lat="42.8337683" lon="13.5178233"><ele>223.0</ele><time>2026-04-04T07:38:00.033Z</time></trkpt><trkpt lat="42.8336633" lon="13.5177667"><ele>221.0</ele><time>2026-04-04T07:38:01.033Z</time></trkpt><trkpt lat="42.833545" lon="13.517695"><ele>219.0</ele><time>2026-04-04T07:38:02.033Z</time></trkpt><trkpt lat="42.833425" lon="13.5176333"><ele>217.0</ele><time>2026-04-04T07:38:03.033Z</time></trkpt><trkpt lat="42.8333033" lon="13.5175733"><ele>215.0</ele><time>2026-04-04T07:38:04.032Z</time></trkpt><trkpt lat="42.833185" lon="13.5175083"><ele>215.0</ele><time>2026-04-04T07:38:05.033Z</time></trkpt><trkpt lat="42.8330683" lon="13.51744"><ele>215.0</ele><time>2026-04-04T07:38:06.032Z</time></trkpt><trkpt lat="42.8329517" lon="13.51737"><ele>215.0</ele><time>2026-04-04T07:38:07.033Z</time></trkpt><trkpt lat="42.8328367" lon="13.5172883"><ele>215.0</ele><time>2026-04-04T07:38:08.033Z</time></trkpt><trkpt lat="42.8327117" lon="13.5171783"><ele>212.25</ele><time>2026-04-04T07:38:09.033Z</time></trkpt><trkpt lat="42.8325833" lon="13.5170733"><ele>209.5</ele><time>2026-04-04T07:38:10.033Z</time></trkpt><trkpt lat="42.8324567" lon="13.5169617"><ele>206.75</ele><time>2026-04-04T07:38:11.033Z</time></trkpt><trkpt lat="42.8323317" lon="13.5168517"><ele>204.0</ele><time>2026-04-04T07:38:12.033Z</time></trkpt><trkpt lat="42.83221" lon="13.51675"><ele>204.0</ele><time>2026-04-04T07:38:13.033Z</time></trkpt><trkpt lat="42.832085" lon="13.51662"><ele>204.0</ele><time>2026-04-04T07:38:14.033Z</time></trkpt><trkpt lat="42.8319633" lon="13.5165133"><ele>204.0</ele><time>2026-04-04T07:38:15.033Z</time></trkpt><trkpt lat="42.8318433" lon="13.5164017"><ele>204.0</ele><time>2026-04-04T07:38:16.033Z</time></trkpt><trkpt lat="42.8317217" lon="13.51629"><ele>202.75</ele><time>2026-04-04T07:38:17.033Z</time></trkpt><trkpt lat="42.8316017" lon="13.5161783"><ele>201.5</ele><time>2026-04-04T07:38:18.033Z</time></trkpt><trkpt lat="42.83149" lon="13.5160633"><ele>200.25</ele><time>2026-04-04T07:38:19.033Z</time></trkpt><trkpt lat="42.8313867" lon="13.51596"><ele>199.0</ele><time>2026-04-04T07:38:20.033Z</time></trkpt><trkpt lat="42.8312883" lon="13.515865"><ele>199.0</ele><time>2026-04-04T07:38:21.033Z</time></trkpt><trkpt lat="42.8312017" lon="13.515755"><ele>199.0</ele><time>2026-04-04T07:38:22.033Z</time></trkpt><trkpt lat="42.8311217" lon="13.515625"><ele>199.0</ele><time>2026-04-04T07:38:23.033Z</time></trkpt><trkpt lat="42.83105" lon="13.5155033"><ele>199.0</ele><time>2026-04-04T07:38:24.033Z</time></trkpt><trkpt lat="42.8309917" lon="13.51538"><ele>201.75</ele><time>2026-04-04T07:38:25.033Z</time></trkpt><trkpt lat="42.8309367" lon="13.5152517"><ele>204.5</ele><time>2026-04-04T07:38:26.033Z</time></trkpt><trkpt lat="42.830885" lon="13.5151167"><ele>207.25</ele><time>2026-04-04T07:38:27.032Z</time></trkpt><trkpt lat="42.83084" lon="13.5149667"><ele>210.0</ele><time>2026-04-04T07:38:28.032Z</time></trkpt><trkpt lat="42.830795" lon="13.51481"><ele>210.0</ele><time>2026-04-04T07:38:29.033Z</time></trkpt><trkpt lat="42.8307483" lon="13.51465"><ele>210.0</ele><time>2026-04-04T07:38:30.033Z</time></trkpt><trkpt lat="42.8306983" lon="13.5145"><ele>210.0</ele><time>2026-04-04T07:38:31.033Z</time></trkpt><trkpt lat="42.8306517" lon="13.5143467"><ele>210.0</ele><time>2026-04-04T07:38:32.033Z</time></trkpt><trkpt lat="42.8306083" lon="13.5141983"><ele>208.6</ele><time>2026-04-04T07:38:33.033Z</time></trkpt><trkpt lat="42.830565" lon="13.5140533"><ele>207.2</ele><time>2026-04-04T07:38:34.033Z</time></trkpt><trkpt lat="42.8305217" lon="13.5139033"><ele>205.8</ele><time>2026-04-04T07:38:35.033Z</time></trkpt><trkpt lat="42.830475" lon="13.5137617"><ele>204.4</ele><time>2026-04-04T07:38:36.033Z</time></trkpt><trkpt lat="42.8304367" lon="13.5136367"><ele>203.0</ele><time>2026-04-04T07:38:37.033Z</time></trkpt><trkpt lat="42.8303967" lon="13.5135067"><ele>202.0</ele><time>2026-04-04T07:38:38.033Z</time></trkpt><trkpt lat="42.83036" lon="13.513385"><ele>201.0</ele><time>2026-04-04T07:38:39.033Z</time></trkpt><trkpt lat="42.830325" lon="13.513265"><ele>200.0</ele><time>2026-04-04T07:38:40.033Z</time></trkpt><trkpt lat="42.8303017" lon="13.5131483"><ele>199.0</ele><time>2026-04-04T07:38:41.033Z</time></trkpt><trkpt lat="42.830285" lon="13.513015"><ele>198.0</ele><time>2026-04-04T07:38:42.032Z</time></trkpt><trkpt lat="42.8302717" lon="13.51288"><ele>196.25</ele><time>2026-04-04T07:38:43.033Z</time></trkpt><trkpt lat="42.8302567" lon="13.5127317"><ele>194.5</ele><time>2026-04-04T07:38:44.033Z</time></trkpt><trkpt lat="42.83023" lon="13.5125733"><ele>192.75</ele><time>2026-04-04T07:38:45.033Z</time></trkpt><trkpt lat="42.8302083" lon="13.5124083"><ele>191.0</ele><time>2026-04-04T07:38:46.032Z</time></trkpt><trkpt lat="42.83019" lon="13.5122283"><ele>191.25</ele><time>2026-04-04T07:38:47.033Z</time></trkpt><trkpt lat="42.830175" lon="13.5120533"><ele>191.5</ele><time>2026-04-04T07:38:48.033Z</time></trkpt><trkpt lat="42.8301567" lon="13.5118833"><ele>191.75</ele><time>2026-04-04T07:38:49.033Z</time></trkpt><trkpt lat="42.8301483" lon="13.5117283"><ele>192.0</ele><time>2026-04-04T07:38:50.033Z</time></trkpt><trkpt lat="42.830135" lon="13.5115867"><ele>192.0</ele><time>2026-04-04T07:38:51.033Z</time></trkpt><trkpt lat="42.8301267" lon="13.511455"><ele>192.0</ele><time>2026-04-04T07:38:52.033Z</time></trkpt><trkpt lat="42.8301167" lon="13.5113383"><ele>192.0</ele><time>2026-04-04T07:38:53.033Z</time></trkpt><trkpt lat="42.8301017" lon="13.5112317"><ele>192.0</ele><time>2026-04-04T07:38:54.033Z</time></trkpt><trkpt lat="42.8300817" lon="13.5111367"><ele>192.0</ele><time>2026-04-04T07:38:55.033Z</time></trkpt><trkpt lat="42.8300617" lon="13.5110417"><ele>192.0</ele><time>2026-04-04T07:38:56.033Z</time></trkpt><trkpt lat="42.8300133" lon="13.5109517"><ele>193.8</ele><time>2026-04-04T07:38:57.033Z</time></trkpt><trkpt lat="42.8299433" lon="13.510885"><ele>195.6</ele><time>2026-04-04T07:38:58.033Z</time></trkpt><trkpt lat="42.829855" lon="13.51082"><ele>197.4</ele><time>2026-04-04T07:38:59.032Z</time></trkpt><trkpt lat="42.82975" lon="13.5107567"><ele>199.20000000000002</ele><time>2026-04-04T07:39:00.033Z</time></trkpt><trkpt lat="42.829645" lon="13.5107117"><ele>201.0</ele><time>2026-04-04T07:39:01.033Z</time></trkpt><trkpt lat="42.8295433" lon="13.51068"><ele>201.0</ele><time>2026-04-04T07:39:02.033Z</time></trkpt><trkpt lat="42.829445" lon="13.5106417"><ele>201.0</ele><time>2026-04-04T07:39:03.033Z</time></trkpt><trkpt lat="42.829335" lon="13.5106033"><ele>201.0</ele><time>2026-04-04T07:39:04.033Z</time></trkpt><trkpt lat="42.8292167" lon="13.510565"><ele>201.0</ele><time>2026-04-04T07:39:05.033Z</time></trkpt><trkpt lat="42.8290983" lon="13.5105233"><ele>199.25</ele><time>2026-04-04T07:39:06.033Z</time></trkpt><trkpt lat="42.8289817" lon="13.51048"><ele>197.5</ele><time>2026-04-04T07:39:07.033Z</time></trkpt><trkpt lat="42.8288667" lon="13.510435"><ele>195.75</ele><time>2026-04-04T07:39:08.033Z</time></trkpt><trkpt lat="42.8287417" lon="13.5103917"><ele>194.0</ele><time>2026-04-04T07:39:09.033Z</time></trkpt><trkpt lat="42.8286183" lon="13.5103567"><ele>197.5</ele><time>2026-04-04T07:39:10.033Z</time></trkpt><trkpt lat="42.8284917" lon="13.5103183"><ele>201.0</ele><time>2026-04-04T07:39:11.032Z</time></trkpt><trkpt lat="42.8283717" lon="13.5102733"><ele>204.5</ele><time>2026-04-04T07:39:12.033Z</time></trkpt><trkpt lat="42.82825" lon="13.510235"><ele>208.0</ele><time>2026-04-04T07:39:13.033Z</time></trkpt><trkpt lat="42.828125" lon="13.5101967"><ele>208.0</ele><time>2026-04-04T07:39:14.033Z</time></trkpt><trkpt lat="42.8279933" lon="13.510155"><ele>208.0</ele><time>2026-04-04T07:39:15.033Z</time></trkpt><trkpt lat="42.8278667" lon="13.5101067"><ele>208.0</ele><time>2026-04-04T07:39:16.033Z</time></trkpt><trkpt lat="42.8277383" lon="13.51005"><ele>208.0</ele><time>2026-04-04T07:39:17.033Z</time></trkpt><trkpt lat="42.8276067" lon="13.5100067"><ele>206.5</ele><time>2026-04-04T07:39:18.033Z</time></trkpt><trkpt lat="42.8274733" lon="13.5099567"><ele>205.0</ele><time>2026-04-04T07:39:19.033Z</time></trkpt><trkpt lat="42.8273367" lon="13.50991"><ele>203.5</ele><time>2026-04-04T07:39:20.033Z</time></trkpt><trkpt lat="42.8272" lon="13.5098667"><ele>202.0</ele><time>2026-04-04T07:39:21.033Z</time></trkpt><trkpt lat="42.82706" lon="13.5098183"><ele>202.0</ele><time>2026-04-04T07:39:22.033Z</time></trkpt><trkpt lat="42.8269183" lon="13.50977"><ele>202.0</ele><time>2026-04-04T07:39:23.033Z</time></trkpt><trkpt lat="42.8267717" lon="13.509725"><ele>202.0</ele><time>2026-04-04T07:39:24.033Z</time></trkpt><trkpt lat="42.8266217" lon="13.5096817"><ele>202.5</ele><time>2026-04-04T07:39:25.033Z</time></trkpt><trkpt lat="42.8264833" lon="13.509625"><ele>203.0</ele><time>2026-04-04T07:39:26.033Z</time></trkpt><trkpt lat="42.8263383" lon="13.5095767"><ele>203.5</ele><time>2026-04-04T07:39:27.033Z</time></trkpt><trkpt lat="42.8261883" lon="13.5095283"><ele>204.0</ele><time>2026-04-04T07:39:28.033Z</time></trkpt><trkpt lat="42.82604" lon="13.5094783"><ele>206.25</ele><time>2026-04-04T07:39:29.033Z</time></trkpt><trkpt lat="42.8259033" lon="13.5094333"><ele>208.5</ele><time>2026-04-04T07:39:30.033Z</time></trkpt><trkpt lat="42.8257533" lon="13.50938"><ele>210.75</ele><time>2026-04-04T07:39:31.033Z</time></trkpt><trkpt lat="42.8256283" lon="13.5093317"><ele>213.0</ele><time>2026-04-04T07:39:32.033Z</time></trkpt><trkpt lat="42.8255" lon="13.5092867"><ele>213.0</ele><time>2026-04-04T07:39:33.033Z</time></trkpt><trkpt lat="42.8253733" lon="13.5092433"><ele>213.0</ele><time>2026-04-04T07:39:34.033Z</time></trkpt><trkpt lat="42.825255" lon="13.5092017"><ele>213.0</ele><time>2026-04-04T07:39:35.033Z</time></trkpt><trkpt lat="42.82514" lon="13.5091583"><ele>213.0</ele><time>2026-04-04T07:39:36.033Z</time></trkpt><trkpt lat="42.82503" lon="13.5091233"><ele>211.8</ele><time>2026-04-04T07:39:37.033Z</time></trkpt><trkpt lat="42.8249267" lon="13.5090933"><ele>210.60000000000002</ele><time>2026-04-04T07:39:38.033Z</time></trkpt><trkpt lat="42.8248283" lon="13.5090567"><ele>209.39999999999998</ele><time>2026-04-04T07:39:39.033Z</time></trkpt><trkpt lat="42.8247267" lon="13.5090233"><ele>208.2</ele><time>2026-04-04T07:39:40.033Z</time></trkpt><trkpt lat="42.824635" lon="13.50899"><ele>207.0</ele><time>2026-04-04T07:39:41.033Z</time></trkpt><trkpt lat="42.8245533" lon="13.508945"><ele>207.0</ele><time>2026-04-04T07:39:42.033Z</time></trkpt><trkpt lat="42.8244817" lon="13.5089067"><ele>207.0</ele><time>2026-04-04T07:39:43.033Z</time></trkpt><trkpt lat="42.8244183" lon="13.50887"><ele>207.0</ele><time>2026-04-04T07:39:44.033Z</time></trkpt><trkpt lat="42.8243117" lon="13.5088067"><ele>207.0</ele><time>2026-04-04T07:39:46.033Z</time></trkpt><trkpt lat="42.8242383" lon="13.508755"><ele>207.0</ele><time>2026-04-04T07:39:53.033Z</time></trkpt><trkpt lat="42.82415" lon="13.5087017"><ele>207.0</ele><time>2026-04-04T07:39:55.033Z</time></trkpt><trkpt lat="42.824085" lon="13.50869"><ele>208.5</ele><time>2026-04-04T07:39:56.033Z</time></trkpt><trkpt lat="42.8240083" lon="13.5086817"><ele>210.0</ele><time>2026-04-04T07:39:57.033Z</time></trkpt><trkpt lat="42.8239217" lon="13.5086733"><ele>211.5</ele><time>2026-04-04T07:39:58.033Z</time></trkpt><trkpt lat="42.8238283" lon="13.5086667"><ele>213.0</ele><time>2026-04-04T07:39:59.033Z</time></trkpt><trkpt lat="42.82374" lon="13.5086517"><ele>214.5</ele><time>2026-04-04T07:40:00.033Z</time></trkpt><trkpt lat="42.82365" lon="13.50862"><ele>216.0</ele><time>2026-04-04T07:40:01.033Z</time></trkpt><trkpt lat="42.8235533" lon="13.5085817"><ele>213.5</ele><time>2026-04-04T07:40:02.033Z</time></trkpt><trkpt lat="42.8234533" lon="13.5085433"><ele>211.0</ele><time>2026-04-04T07:40:03.033Z</time></trkpt><trkpt lat="42.8233417" lon="13.5085017"><ele>208.5</ele><time>2026-04-04T07:40:04.033Z</time></trkpt><trkpt lat="42.8232283" lon="13.5084667"><ele>206.0</ele><time>2026-04-04T07:40:05.033Z</time></trkpt><trkpt lat="42.8231083" lon="13.50843"><ele>206.0</ele><time>2026-04-04T07:40:06.033Z</time></trkpt><trkpt lat="42.8229933" lon="13.5083867"><ele>206.0</ele><time>2026-04-04T07:40:07.033Z</time></trkpt><trkpt lat="42.8228767" lon="13.50835"><ele>206.0</ele><time>2026-04-04T07:40:08.033Z</time></trkpt><trkpt lat="42.8227683" lon="13.5083083"><ele>206.0</ele><time>2026-04-04T07:40:09.033Z</time></trkpt><trkpt lat="42.8226783" lon="13.5082733"><ele>206.0</ele><time>2026-04-04T07:40:10.032Z</time></trkpt><trkpt lat="42.8225883" lon="13.50824"><ele>206.16666666666669</ele><time>2026-04-04T07:40:11.033Z</time></trkpt><trkpt lat="42.8225" lon="13.5082083"><ele>206.33333333333334</ele><time>2026-04-04T07:40:12.033Z</time></trkpt><trkpt lat="42.8224133" lon="13.5081783"><ele>206.5</ele><time>2026-04-04T07:40:13.032Z</time></trkpt><trkpt lat="42.8223317" lon="13.508145"><ele>206.66666666666669</ele><time>2026-04-04T07:40:14.033Z</time></trkpt><trkpt lat="42.8222583" lon="13.5080933"><ele>206.83333333333334</ele><time>2026-04-04T07:40:15.032Z</time></trkpt><trkpt lat="42.8221917" lon="13.508045"><ele>207.0</ele><time>2026-04-04T07:40:16.033Z</time></trkpt><trkpt lat="42.822105" lon="13.5079683"><ele>206.83333333333334</ele><time>2026-04-04T07:40:18.033Z</time></trkpt><trkpt lat="42.82204" lon="13.5078867"><ele>206.66666666666669</ele><time>2026-04-04T07:40:24.033Z</time></trkpt><trkpt lat="42.821965" lon="13.5078367"><ele>206.5</ele><time>2026-04-04T07:40:26.033Z</time></trkpt><trkpt lat="42.8218783" lon="13.5078517"><ele>206.33333333333334</ele><time>2026-04-04T07:40:28.033Z</time></trkpt><trkpt lat="42.8217767" lon="13.50786"><ele>206.16666666666669</ele><time>2026-04-04T07:40:30.033Z</time></trkpt><trkpt lat="42.8217117" lon="13.5078467"><ele>206.0</ele><time>2026-04-04T07:40:31.033Z</time></trkpt><trkpt lat="42.82164" lon="13.5078083"><ele>206.0</ele><time>2026-04-04T07:40:32.033Z</time></trkpt><trkpt lat="42.8215667" lon="13.5077433"><ele>206.0</ele><time>2026-04-04T07:40:33.033Z</time></trkpt><trkpt lat="42.8214783" lon="13.5076467"><ele>206.0</ele><time>2026-04-04T07:40:34.033Z</time></trkpt><trkpt lat="42.8214033" lon="13.5075383"><ele>206.0</ele><time>2026-04-04T07:40:35.033Z</time></trkpt><trkpt lat="42.8213367" lon="13.50742"><ele>206.0</ele><time>2026-04-04T07:40:36.033Z</time></trkpt><trkpt lat="42.821275" lon="13.507305"><ele>206.00000000000003</ele><time>2026-04-04T07:40:37.032Z</time></trkpt><trkpt lat="42.8212333" lon="13.5071933"><ele>206.0</ele><time>2026-04-04T07:40:38.033Z</time></trkpt><trkpt lat="42.8211917" lon="13.507095"><ele>206.0</ele><time>2026-04-04T07:40:39.033Z</time></trkpt><trkpt lat="42.8211583" lon="13.507"><ele>206.0</ele><time>2026-04-04T07:40:40.033Z</time></trkpt><trkpt lat="42.8211267" lon="13.5069117"><ele>206.00000000000003</ele><time>2026-04-04T07:40:41.032Z</time></trkpt><trkpt lat="42.8211" lon="13.50682"><ele>206.0</ele><time>2026-04-04T07:40:42.033Z</time></trkpt><trkpt lat="42.8210733" lon="13.5067367"><ele>206.8</ele><time>2026-04-04T07:40:43.033Z</time></trkpt><trkpt lat="42.8210267" lon="13.506585"><ele>207.60000000000002</ele><time>2026-04-04T07:40:45.033Z</time></trkpt><trkpt lat="42.8209817" lon="13.5064533"><ele>208.4</ele><time>2026-04-04T07:40:47.033Z</time></trkpt><trkpt lat="42.8209333" lon="13.506325"><ele>209.2</ele><time>2026-04-04T07:40:49.033Z</time></trkpt><trkpt lat="42.82091" lon="13.5062183"><ele>210.0</ele><time>2026-04-04T07:40:51.032Z</time></trkpt><trkpt lat="42.8208683" lon="13.5061133"><ele>210.5</ele><time>2026-04-04T07:40:53.033Z</time></trkpt><trkpt lat="42.8208283" lon="13.506005"><ele>211.0</ele><time>2026-04-04T07:40:55.033Z</time></trkpt><trkpt lat="42.8208017" lon="13.505925"><ele>211.5</ele><time>2026-04-04T07:40:56.033Z</time></trkpt><trkpt lat="42.820765" lon="13.50584"><ele>212.0</ele><time>2026-04-04T07:40:57.033Z</time></trkpt><trkpt lat="42.8207367" lon="13.5057333"><ele>212.5</ele><time>2026-04-04T07:40:58.033Z</time></trkpt><trkpt lat="42.8207083" lon="13.5056333"><ele>213.0</ele><time>2026-04-04T07:40:59.033Z</time></trkpt><trkpt lat="42.82067" lon="13.5055317"><ele>213.0</ele><time>2026-04-04T07:41:00.033Z</time></trkpt><trkpt lat="42.8206333" lon="13.50543"><ele>213.0</ele><time>2026-04-04T07:41:01.033Z</time></trkpt><trkpt lat="42.820585" lon="13.50533"><ele>213.0</ele><time>2026-04-04T07:41:02.033Z</time></trkpt><trkpt lat="42.82053" lon="13.5052217"><ele>213.0</ele><time>2026-04-04T07:41:03.033Z</time></trkpt><trkpt lat="42.8204717" lon="13.5051183"><ele>213.0</ele><time>2026-04-04T07:41:04.033Z</time></trkpt><trkpt lat="42.8204083" lon="13.505025"><ele>212.5</ele><time>2026-04-04T07:41:05.033Z</time></trkpt><trkpt lat="42.82035" lon="13.5049367"><ele>212.0</ele><time>2026-04-04T07:41:06.033Z</time></trkpt><trkpt lat="42.8202867" lon="13.504855"><ele>211.5</ele><time>2026-04-04T07:41:07.033Z</time></trkpt><trkpt lat="42.820225" lon="13.50478"><ele>211.0</ele><time>2026-04-04T07:41:08.033Z</time></trkpt><trkpt lat="42.820155" lon="13.5047117"><ele>210.5</ele><time>2026-04-04T07:41:09.033Z</time></trkpt><trkpt lat="42.8200783" lon="13.504655"><ele>210.0</ele><time>2026-04-04T07:41:10.033Z</time></trkpt><trkpt lat="42.8199917" lon="13.504615"><ele>210.0</ele><time>2026-04-04T07:41:11.033Z</time></trkpt><trkpt lat="42.819895" lon="13.50458"><ele>210.0</ele><time>2026-04-04T07:41:12.033Z</time></trkpt><trkpt lat="42.8198017" lon="13.5045633"><ele>210.0</ele><time>2026-04-04T07:41:13.033Z</time></trkpt><trkpt lat="42.819715" lon="13.5045517"><ele>210.0</ele><time>2026-04-04T07:41:14.033Z</time></trkpt><trkpt lat="42.8196367" lon="13.5045483"><ele>210.0</ele><time>2026-04-04T07:41:15.033Z</time></trkpt><trkpt lat="42.81957" lon="13.504535"><ele>210.0</ele><time>2026-04-04T07:41:16.033Z</time></trkpt><trkpt lat="42.819445" lon="13.5045083"><ele>211.8</ele><time>2026-04-04T07:41:18.033Z</time></trkpt><trkpt lat="42.8193683" lon="13.50449"><ele>213.6</ele><time>2026-04-04T07:41:19.033Z</time></trkpt><trkpt lat="42.8192833" lon="13.50447"><ele>215.39999999999998</ele><time>2026-04-04T07:41:20.033Z</time></trkpt><trkpt lat="42.81919" lon="13.504445"><ele>217.2</ele><time>2026-04-04T07:41:21.033Z</time></trkpt><trkpt lat="42.8190933" lon="13.5044167"><ele>219.0</ele><time>2026-04-04T07:41:22.033Z</time></trkpt><trkpt lat="42.8189933" lon="13.5043867"><ele>219.0</ele><time>2026-04-04T07:41:23.033Z</time></trkpt><trkpt lat="42.8188867" lon="13.50436"><ele>218.99999999999997</ele><time>2026-04-04T07:41:24.033Z</time></trkpt><trkpt lat="42.8187783" lon="13.5043283"><ele>218.99999999999997</ele><time>2026-04-04T07:41:25.033Z</time></trkpt><trkpt lat="42.8186667" lon="13.504295"><ele>219.0</ele><time>2026-04-04T07:41:26.033Z</time></trkpt><trkpt lat="42.8185583" lon="13.5042667"><ele>219.0</ele><time>2026-04-04T07:41:27.033Z</time></trkpt><trkpt lat="42.81844" lon="13.50424"><ele>219.25</ele><time>2026-04-04T07:41:28.033Z</time></trkpt><trkpt lat="42.8183183" lon="13.5042117"><ele>219.5</ele><time>2026-04-04T07:41:29.033Z</time></trkpt><trkpt lat="42.818195" lon="13.5041867"><ele>219.75</ele><time>2026-04-04T07:41:30.033Z</time></trkpt><trkpt lat="42.81808" lon="13.5041617"><ele>220.0</ele><time>2026-04-04T07:41:31.033Z</time></trkpt><trkpt lat="42.8179583" lon="13.504135"><ele>220.0</ele><time>2026-04-04T07:41:32.033Z</time></trkpt><trkpt lat="42.8178433" lon="13.5041117"><ele>220.0</ele><time>2026-04-04T07:41:33.033Z</time></trkpt><trkpt lat="42.8177333" lon="13.5040917"><ele>220.0</ele><time>2026-04-04T07:41:34.032Z</time></trkpt><trkpt lat="42.8176217" lon="13.5040533"><ele>220.0</ele><time>2026-04-04T07:41:35.032Z</time></trkpt><trkpt lat="42.8175083" lon="13.5040283"><ele>218.8</ele><time>2026-04-04T07:41:36.033Z</time></trkpt><trkpt lat="42.8174067" lon="13.50399"><ele>217.6</ele><time>2026-04-04T07:41:37.033Z</time></trkpt><trkpt lat="42.8173083" lon="13.5039617"><ele>216.39999999999998</ele><time>2026-04-04T07:41:38.033Z</time></trkpt><trkpt lat="42.8172167" lon="13.50393"><ele>215.2</ele><time>2026-04-04T07:41:39.033Z</time></trkpt><trkpt lat="42.817125" lon="13.5039"><ele>214.0</ele><time>2026-04-04T07:41:40.033Z</time></trkpt><trkpt lat="42.817035" lon="13.50389"><ele>213.99999999999997</ele><time>2026-04-04T07:41:41.033Z</time></trkpt><trkpt lat="42.8169533" lon="13.5038817"><ele>214.0</ele><time>2026-04-04T07:41:42.033Z</time></trkpt><trkpt lat="42.8168883" lon="13.5038617"><ele>214.0</ele><time>2026-04-04T07:41:43.033Z</time></trkpt><trkpt lat="42.8168" lon="13.50382"><ele>214.0</ele><time>2026-04-04T07:41:45.033Z</time></trkpt><trkpt lat="42.8167933" lon="13.5039133"><ele>213.99999999999997</ele><time>2026-04-04T07:41:49.033Z</time></trkpt><trkpt lat="42.81688" lon="13.5039067"><ele>214.0</ele><time>2026-04-04T07:41:52.033Z</time></trkpt><trkpt lat="42.8169633" lon="13.5039"><ele>214.0</ele><time>2026-04-04T07:41:54.033Z</time></trkpt><trkpt lat="42.817085" lon="13.5039233"><ele>213.99999999999997</ele><time>2026-04-04T07:41:56.033Z</time></trkpt><trkpt lat="42.8171617" lon="13.5039383"><ele>213.99999999999997</ele><time>2026-04-04T07:41:57.033Z</time></trkpt><trkpt lat="42.81724" lon="13.503965"><ele>214.0</ele><time>2026-04-04T07:41:58.033Z</time></trkpt><trkpt lat="42.8173283" lon="13.503985"><ele>214.0</ele><time>2026-04-04T07:41:59.033Z</time></trkpt><trkpt lat="42.8174133" lon="13.5040117"><ele>214.0</ele><time>2026-04-04T07:42:00.033Z</time></trkpt><trkpt lat="42.817495" lon="13.50404"><ele>214.0</ele><time>2026-04-04T07:42:01.033Z</time></trkpt><trkpt lat="42.8175917" lon="13.5040583"><ele>214.0</ele><time>2026-04-04T07:42:02.033Z</time></trkpt><trkpt lat="42.8176917" lon="13.5040783"><ele>214.0</ele><time>2026-04-04T07:42:03.033Z</time></trkpt><trkpt lat="42.8179033" lon="13.5041267"><ele>215.2</ele><time>2026-04-04T07:42:05.033Z</time></trkpt><trkpt lat="42.81801" lon="13.5041533"><ele>216.39999999999998</ele><time>2026-04-04T07:42:06.033Z</time></trkpt><trkpt lat="42.8181117" lon="13.504175"><ele>217.6</ele><time>2026-04-04T07:42:07.033Z</time></trkpt><trkpt lat="42.8182183" lon="13.504205"><ele>218.8</ele><time>2026-04-04T07:42:08.032Z</time></trkpt><trkpt lat="42.818325" lon="13.504235"><ele>220.0</ele><time>2026-04-04T07:42:09.033Z</time></trkpt><trkpt lat="42.8184367" lon="13.5042567"><ele>219.8</ele><time>2026-04-04T07:42:10.033Z</time></trkpt><trkpt lat="42.81855" lon="13.504285"><ele>219.6</ele><time>2026-04-04T07:42:11.033Z</time></trkpt><trkpt lat="42.8186583" lon="13.5043067"><ele>219.39999999999998</ele><time>2026-04-04T07:42:12.033Z</time></trkpt><trkpt lat="42.81877" lon="13.5043217"><ele>219.2</ele><time>2026-04-04T07:42:13.033Z</time></trkpt><trkpt lat="42.8188783" lon="13.5043433"><ele>219.0</ele><time>2026-04-04T07:42:14.033Z</time></trkpt><trkpt lat="42.8189883" lon="13.5043783"><ele>219.0</ele><time>2026-04-04T07:42:15.032Z</time></trkpt><trkpt lat="42.8190933" lon="13.504405"><ele>218.99999999999997</ele><time>2026-04-04T07:42:16.033Z</time></trkpt><trkpt lat="42.8192" lon="13.50442"><ele>218.99999999999997</ele><time>2026-04-04T07:42:17.033Z</time></trkpt><trkpt lat="42.8192983" lon="13.5044433"><ele>219.0</ele><time>2026-04-04T07:42:18.033Z</time></trkpt><trkpt lat="42.8194133" lon="13.5044717"><ele>219.0</ele><time>2026-04-04T07:42:19.033Z</time></trkpt><trkpt lat="42.81953" lon="13.5045083"><ele>216.75</ele><time>2026-04-04T07:42:20.033Z</time></trkpt><trkpt lat="42.8196567" lon="13.5045433"><ele>214.5</ele><time>2026-04-04T07:42:21.033Z</time></trkpt><trkpt lat="42.8197783" lon="13.50458"><ele>212.25</ele><time>2026-04-04T07:42:22.032Z</time></trkpt><trkpt lat="42.8198883" lon="13.5046133"><ele>210.0</ele><time>2026-04-04T07:42:23.033Z</time></trkpt><trkpt lat="42.81999" lon="13.5046433"><ele>210.0</ele><time>2026-04-04T07:42:24.033Z</time></trkpt><trkpt lat="42.82009" lon="13.5047"><ele>210.0</ele><time>2026-04-04T07:42:25.033Z</time></trkpt><trkpt lat="42.8201833" lon="13.50477"><ele>210.0</ele><time>2026-04-04T07:42:26.033Z</time></trkpt><trkpt lat="42.8202717" lon="13.5048533"><ele>210.0</ele><time>2026-04-04T07:42:27.033Z</time></trkpt><trkpt lat="42.8203567" lon="13.504955"><ele>210.0</ele><time>2026-04-04T07:42:28.033Z</time></trkpt><trkpt lat="42.8204333" lon="13.5050717"><ele>210.75</ele><time>2026-04-04T07:42:29.033Z</time></trkpt><trkpt lat="42.82051" lon="13.5051967"><ele>211.5</ele><time>2026-04-04T07:42:30.033Z</time></trkpt><trkpt lat="42.8205817" lon="13.5053233"><ele>212.25</ele><time>2026-04-04T07:42:31.033Z</time></trkpt><trkpt lat="42.820655" lon="13.50546"><ele>213.0</ele><time>2026-04-04T07:42:32.033Z</time></trkpt><trkpt lat="42.8207233" lon="13.5056033"><ele>213.0</ele><time>2026-04-04T07:42:33.033Z</time></trkpt><trkpt lat="42.8207683" lon="13.505775"><ele>213.0</ele><time>2026-04-04T07:42:34.033Z</time></trkpt><trkpt lat="42.8208683" lon="13.506075"><ele>213.0</ele><time>2026-04-04T07:42:36.033Z</time></trkpt><trkpt lat="42.820915" lon="13.506225"><ele>212.25</ele><time>2026-04-04T07:42:37.033Z</time></trkpt><trkpt lat="42.82096" lon="13.5063833"><ele>211.5</ele><time>2026-04-04T07:42:38.033Z</time></trkpt><trkpt lat="42.821005" lon="13.5065417"><ele>210.75</ele><time>2026-04-04T07:42:39.033Z</time></trkpt><trkpt lat="42.8210617" lon="13.50668"><ele>210.0</ele><time>2026-04-04T07:42:40.033Z</time></trkpt><trkpt lat="42.821115" lon="13.506825"><ele>210.0</ele><time>2026-04-04T07:42:41.033Z</time></trkpt><trkpt lat="42.8211633" lon="13.5069667"><ele>210.0</ele><time>2026-04-04T07:42:42.032Z</time></trkpt><trkpt lat="42.8212167" lon="13.5071083"><ele>210.0</ele><time>2026-04-04T07:42:43.033Z</time></trkpt><trkpt lat="42.821265" lon="13.50725"><ele>210.0</ele><time>2026-04-04T07:42:44.033Z</time></trkpt><trkpt lat="42.8213133" lon="13.5073733"><ele>210.0</ele><time>2026-04-04T07:42:45.033Z</time></trkpt><trkpt lat="42.8214233" lon="13.5076083"><ele>209.4</ele><time>2026-04-04T07:42:47.033Z</time></trkpt><trkpt lat="42.8214983" lon="13.5077117"><ele>208.8</ele><time>2026-04-04T07:42:48.033Z</time></trkpt><trkpt lat="42.8215867" lon="13.507815"><ele>208.2</ele><time>2026-04-04T07:42:49.033Z</time></trkpt><trkpt lat="42.8216783" lon="13.5078883"><ele>207.6</ele><time>2026-04-04T07:42:50.033Z</time></trkpt><trkpt lat="42.8217717" lon="13.5079417"><ele>207.0</ele><time>2026-04-04T07:42:51.033Z</time></trkpt><trkpt lat="42.8218617" lon="13.5079733"><ele>207.0</ele><time>2026-04-04T07:42:52.033Z</time></trkpt><trkpt lat="42.8219417" lon="13.507985"><ele>207.0</ele><time>2026-04-04T07:42:53.033Z</time></trkpt><trkpt lat="42.82202" lon="13.5079317"><ele>207.0</ele><time>2026-04-04T07:42:55.033Z</time></trkpt><trkpt lat="42.822025" lon="13.5077983"><ele>207.0</ele><time>2026-04-04T07:42:58.033Z</time></trkpt><trkpt lat="42.8220067" lon="13.5076167"><ele>207.0</ele><time>2026-04-04T07:43:00.033Z</time></trkpt><trkpt lat="42.8219783" lon="13.507515"><ele>207.39999999999998</ele><time>2026-04-04T07:43:01.033Z</time></trkpt><trkpt lat="42.8219483" lon="13.5074067"><ele>207.79999999999998</ele><time>2026-04-04T07:43:02.033Z</time></trkpt><trkpt lat="42.8219183" lon="13.50729"><ele>208.2</ele><time>2026-04-04T07:43:03.033Z</time></trkpt><trkpt lat="42.8218783" lon="13.50716"><ele>208.6</ele><time>2026-04-04T07:43:04.033Z</time></trkpt><trkpt lat="42.8218383" lon="13.50703"><ele>209.0</ele><time>2026-04-04T07:43:05.033Z</time></trkpt><trkpt lat="42.821805" lon="13.50689"><ele>209.25</ele><time>2026-04-04T07:43:06.033Z</time></trkpt><trkpt lat="42.8217717" lon="13.5067417"><ele>209.5</ele><time>2026-04-04T07:43:07.033Z</time></trkpt><trkpt lat="42.8217383" lon="13.5065867"><ele>209.75</ele><time>2026-04-04T07:43:08.033Z</time></trkpt><trkpt lat="42.8217033" lon="13.5064283"><ele>210.0</ele><time>2026-04-04T07:43:09.033Z</time></trkpt><trkpt lat="42.821665" lon="13.5062767"><ele>211.5</ele><time>2026-04-04T07:43:10.033Z</time></trkpt><trkpt lat="42.821625" lon="13.5061233"><ele>213.0</ele><time>2026-04-04T07:43:11.033Z</time></trkpt><trkpt lat="42.8215783" lon="13.5059817"><ele>214.5</ele><time>2026-04-04T07:43:12.033Z</time></trkpt><trkpt lat="42.821525" lon="13.5058367"><ele>216.0</ele><time>2026-04-04T07:43:13.033Z</time></trkpt><trkpt lat="42.8214633" lon="13.5057083"><ele>216.0</ele><time>2026-04-04T07:43:14.033Z</time></trkpt><trkpt lat="42.8213817" lon="13.50559"><ele>216.0</ele><time>2026-04-04T07:43:15.033Z</time></trkpt><trkpt lat="42.8212933" lon="13.5054867"><ele>216.0</ele><time>2026-04-04T07:43:16.033Z</time></trkpt><trkpt lat="42.8211867" lon="13.505395"><ele>216.0</ele><time>2026-04-04T07:43:17.033Z</time></trkpt><trkpt lat="42.82108" lon="13.5053117"><ele>218.5</ele><time>2026-04-04T07:43:18.033Z</time></trkpt><trkpt lat="42.82097" lon="13.505215"><ele>221.0</ele><time>2026-04-04T07:43:19.033Z</time></trkpt><trkpt lat="42.8208517" lon="13.505115"><ele>223.5</ele><time>2026-04-04T07:43:20.032Z</time></trkpt><trkpt lat="42.820735" lon="13.505005"><ele>226.0</ele><time>2026-04-04T07:43:21.033Z</time></trkpt><trkpt lat="42.8206267" lon="13.5048933"><ele>226.0</ele><time>2026-04-04T07:43:22.033Z</time></trkpt><trkpt lat="42.8205117" lon="13.5047867"><ele>226.0</ele><time>2026-04-04T07:43:23.033Z</time></trkpt><trkpt lat="42.8203867" lon="13.50469"><ele>226.0</ele><time>2026-04-04T07:43:24.033Z</time></trkpt><trkpt lat="42.8202533" lon="13.5045833"><ele>226.0</ele><time>2026-04-04T07:43:25.033Z</time></trkpt><trkpt lat="42.820115" lon="13.50448"><ele>227.0</ele><time>2026-04-04T07:43:26.033Z</time></trkpt><trkpt lat="42.81997" lon="13.5044017"><ele>228.0</ele><time>2026-04-04T07:43:27.032Z</time></trkpt><trkpt lat="42.8198317" lon="13.50432"><ele>229.0</ele><time>2026-04-04T07:43:28.033Z</time></trkpt><trkpt lat="42.81969" lon="13.5042483"><ele>229.0</ele><time>2026-04-04T07:43:29.033Z</time></trkpt><trkpt lat="42.81954" lon="13.5041783"><ele>229.0</ele><time>2026-04-04T07:43:30.033Z</time></trkpt><trkpt lat="42.8193867" lon="13.5041333"><ele>229.0</ele><time>2026-04-04T07:43:31.033Z</time></trkpt><trkpt lat="42.8192233" lon="13.5041033"><ele>225.66666666666666</ele><time>2026-04-04T07:43:32.033Z</time></trkpt><trkpt lat="42.8190467" lon="13.504075"><ele>222.33333333333331</ele><time>2026-04-04T07:43:33.033Z</time></trkpt><trkpt lat="42.8188817" lon="13.504035"><ele>219.0</ele><time>2026-04-04T07:43:34.033Z</time></trkpt><trkpt lat="42.8187133" lon="13.5039833"><ele>219.0</ele><time>2026-04-04T07:43:35.033Z</time></trkpt><trkpt lat="42.8185417" lon="13.50395"><ele>219.0</ele><time>2026-04-04T07:43:36.033Z</time></trkpt><trkpt lat="42.818365" lon="13.5039133"><ele>219.0</ele><time>2026-04-04T07:43:37.033Z</time></trkpt><trkpt lat="42.818185" lon="13.5038883"><ele>219.33333333333331</ele><time>2026-04-04T07:43:38.033Z</time></trkpt><trkpt lat="42.818015" lon="13.5038467"><ele>219.66666666666666</ele><time>2026-04-04T07:43:39.033Z</time></trkpt><trkpt lat="42.8178383" lon="13.503805"><ele>220.0</ele><time>2026-04-04T07:43:40.033Z</time></trkpt><trkpt lat="42.8176633" lon="13.5037767"><ele>218.0</ele><time>2026-04-04T07:43:41.033Z</time></trkpt><trkpt lat="42.8174833" lon="13.5037483"><ele>216.0</ele><time>2026-04-04T07:43:42.033Z</time></trkpt><trkpt lat="42.8172933" lon="13.503715"><ele>214.0</ele><time>2026-04-04T07:43:43.033Z</time></trkpt><trkpt lat="42.81711" lon="13.5036917"><ele>220.0</ele><time>2026-04-04T07:43:44.033Z</time></trkpt><trkpt lat="42.81693" lon="13.5036567"><ele>226.0</ele><time>2026-04-04T07:43:45.033Z</time></trkpt><trkpt lat="42.81675" lon="13.5036217"><ele>232.0</ele><time>2026-04-04T07:43:46.033Z</time></trkpt><trkpt lat="42.8165733" lon="13.50357"><ele>232.0</ele><time>2026-04-04T07:43:47.033Z</time></trkpt><trkpt lat="42.816395" lon="13.50355"><ele>232.0</ele><time>2026-04-04T07:43:48.033Z</time></trkpt><trkpt lat="42.816215" lon="13.5035217"><ele>232.0</ele><time>2026-04-04T07:43:49.033Z</time></trkpt><trkpt lat="42.8160367" lon="13.5034817"><ele>232.0</ele><time>2026-04-04T07:43:50.033Z</time></trkpt><trkpt lat="42.8158617" lon="13.5034467"><ele>232.0</ele><time>2026-04-04T07:43:51.033Z</time></trkpt><trkpt lat="42.815685" lon="13.5034117"><ele>232.0</ele><time>2026-04-04T07:43:52.033Z</time></trkpt><trkpt lat="42.8155033" lon="13.5033883"><ele>232.0</ele><time>2026-04-04T07:43:53.033Z</time></trkpt><trkpt lat="42.8153233" lon="13.5033783"><ele>232.0</ele><time>2026-04-04T07:43:54.033Z</time></trkpt><trkpt lat="42.815145" lon="13.5033583"><ele>232.0</ele><time>2026-04-04T07:43:55.033Z</time></trkpt><trkpt lat="42.8149733" lon="13.50335"><ele>231.0</ele><time>2026-04-04T07:43:56.033Z</time></trkpt><trkpt lat="42.8148" lon="13.503345"><ele>230.0</ele><time>2026-04-04T07:43:57.033Z</time></trkpt><trkpt lat="42.814625" lon="13.5033417"><ele>229.0</ele><time>2026-04-04T07:43:58.033Z</time></trkpt><trkpt lat="42.8144467" lon="13.5033317"><ele>228.66666666666666</ele><time>2026-04-04T07:43:59.033Z</time></trkpt><trkpt lat="42.8142617" lon="13.503325"><ele>228.33333333333331</ele><time>2026-04-04T07:44:00.033Z</time></trkpt><trkpt lat="42.81408" lon="13.5033217"><ele>228.0</ele><time>2026-04-04T07:44:01.033Z</time></trkpt><trkpt lat="42.8138917" lon="13.5033"><ele>228.0</ele><time>2026-04-04T07:44:02.033Z</time></trkpt><trkpt lat="42.8137117" lon="13.5032933"><ele>228.0</ele><time>2026-04-04T07:44:03.033Z</time></trkpt><trkpt lat="42.8135267" lon="13.5032883"><ele>228.0</ele><time>2026-04-04T07:44:04.032Z</time></trkpt><trkpt lat="42.8133333" lon="13.5032733"><ele>229.0</ele><time>2026-04-04T07:44:05.033Z</time></trkpt><trkpt lat="42.8131417" lon="13.5032517"><ele>230.0</ele><time>2026-04-04T07:44:06.033Z</time></trkpt><trkpt lat="42.81296" lon="13.50322"><ele>231.0</ele><time>2026-04-04T07:44:07.033Z</time></trkpt><trkpt lat="42.8127783" lon="13.5031667"><ele>229.66666666666669</ele><time>2026-04-04T07:44:08.033Z</time></trkpt><trkpt lat="42.8126033" lon="13.5030833"><ele>228.33333333333334</ele><time>2026-04-04T07:44:09.033Z</time></trkpt><trkpt lat="42.8124283" lon="13.5029867"><ele>227.0</ele><time>2026-04-04T07:44:10.033Z</time></trkpt><trkpt lat="42.8122483" lon="13.5029"><ele>230.0</ele><time>2026-04-04T07:44:11.033Z</time></trkpt><trkpt lat="42.8120783" lon="13.5027933"><ele>233.0</ele><time>2026-04-04T07:44:12.033Z</time></trkpt><trkpt lat="42.8119117" lon="13.502685"><ele>236.0</ele><time>2026-04-04T07:44:13.033Z</time></trkpt><trkpt lat="42.8117417" lon="13.5025833"><ele>236.0</ele><time>2026-04-04T07:44:14.033Z</time></trkpt><trkpt lat="42.8115733" lon="13.5024883"><ele>236.0</ele><time>2026-04-04T07:44:15.033Z</time></trkpt><trkpt lat="42.81141" lon="13.502395"><ele>236.0</ele><time>2026-04-04T07:44:16.033Z</time></trkpt><trkpt lat="42.8112433" lon="13.5022983"><ele>236.0</ele><time>2026-04-04T07:44:17.033Z</time></trkpt><trkpt lat="42.8110733" lon="13.502205"><ele>236.0</ele><time>2026-04-04T07:44:18.033Z</time></trkpt><trkpt lat="42.8109083" lon="13.5021017"><ele>236.0</ele><time>2026-04-04T07:44:19.033Z</time></trkpt><trkpt lat="42.8107383" lon="13.5019983"><ele>238.66666666666669</ele><time>2026-04-04T07:44:20.033Z</time></trkpt><trkpt lat="42.81058" lon="13.501875"><ele>241.33333333333331</ele><time>2026-04-04T07:44:21.033Z</time></trkpt><trkpt lat="42.8104183" lon="13.5017283"><ele>244.0</ele><time>2026-04-04T07:44:22.033Z</time></trkpt><trkpt lat="42.81027" lon="13.501585"><ele>245.33333333333331</ele><time>2026-04-04T07:44:23.032Z</time></trkpt><trkpt lat="42.8101317" lon="13.50144"><ele>246.66666666666669</ele><time>2026-04-04T07:44:24.033Z</time></trkpt><trkpt lat="42.8099933" lon="13.50129"><ele>248.0</ele><time>2026-04-04T07:44:25.033Z</time></trkpt><trkpt lat="42.80987" lon="13.50114"><ele>248.0</ele><time>2026-04-04T07:44:26.033Z</time></trkpt><trkpt lat="42.8097733" lon="13.5009783"><ele>248.0</ele><time>2026-04-04T07:44:27.033Z</time></trkpt><trkpt lat="42.8096667" lon="13.5008133"><ele>248.0</ele><time>2026-04-04T07:44:28.033Z</time></trkpt><trkpt lat="42.8095533" lon="13.5006633"><ele>248.0</ele><time>2026-04-04T07:44:29.033Z</time></trkpt><trkpt lat="42.8094367" lon="13.500495"><ele>248.0</ele><time>2026-04-04T07:44:30.033Z</time></trkpt><trkpt lat="42.8093283" lon="13.5003133"><ele>248.0</ele><time>2026-04-04T07:44:31.033Z</time></trkpt><trkpt lat="42.80922" lon="13.5001233"><ele>244.66666666666669</ele><time>2026-04-04T07:44:32.033Z</time></trkpt><trkpt lat="42.809125" lon="13.49994"><ele>241.33333333333331</ele><time>2026-04-04T07:44:33.033Z</time></trkpt><trkpt lat="42.80904" lon="13.4997233"><ele>238.0</ele><time>2026-04-04T07:44:34.033Z</time></trkpt><trkpt lat="42.8089617" lon="13.4994967"><ele>238.0</ele><time>2026-04-04T07:44:35.033Z</time></trkpt><trkpt lat="42.8088833" lon="13.49926"><ele>238.0</ele><time>2026-04-04T07:44:36.032Z</time></trkpt><trkpt lat="42.8088117" lon="13.4990183"><ele>238.0</ele><time>2026-04-04T07:44:37.033Z</time></trkpt><trkpt lat="42.80874" lon="13.4987867"><ele>237.0</ele><time>2026-04-04T07:44:38.033Z</time></trkpt><trkpt lat="42.8086667" lon="13.4985767"><ele>236.0</ele><time>2026-04-04T07:44:39.033Z</time></trkpt><trkpt lat="42.8086083" lon="13.4983667"><ele>235.0</ele><time>2026-04-04T07:44:40.033Z</time></trkpt><trkpt lat="42.80855" lon="13.498165"><ele>235.0</ele><time>2026-04-04T07:44:41.033Z</time></trkpt><trkpt lat="42.8085067" lon="13.4979667"><ele>235.0</ele><time>2026-04-04T07:44:42.033Z</time></trkpt><trkpt lat="42.8084533" lon="13.49778"><ele>235.0</ele><time>2026-04-04T07:44:43.033Z</time></trkpt><trkpt lat="42.8083967" lon="13.4975767"><ele>234.0</ele><time>2026-04-04T07:44:44.033Z</time></trkpt><trkpt lat="42.8083283" lon="13.4973717"><ele>233.0</ele><time>2026-04-04T07:44:45.033Z</time></trkpt><trkpt lat="42.80826" lon="13.497155"><ele>232.0</ele><time>2026-04-04T07:44:46.033Z</time></trkpt><trkpt lat="42.8081933" lon="13.4969383"><ele>232.0</ele><time>2026-04-04T07:44:47.033Z</time></trkpt><trkpt lat="42.8081317" lon="13.496715"><ele>232.0</ele><time>2026-04-04T07:44:48.033Z</time></trkpt><trkpt lat="42.8080567" lon="13.4964817"><ele>232.0</ele><time>2026-04-04T07:44:49.033Z</time></trkpt><trkpt lat="42.8079883" lon="13.4962583"><ele>233.66666666666666</ele><time>2026-04-04T07:44:50.033Z</time></trkpt><trkpt lat="42.8079183" lon="13.4960483"><ele>235.33333333333331</ele><time>2026-04-04T07:44:51.033Z</time></trkpt><trkpt lat="42.8078433" lon="13.495825"><ele>237.0</ele><time>2026-04-04T07:44:52.033Z</time></trkpt><trkpt lat="42.807775" lon="13.49559"><ele>236.0</ele><time>2026-04-04T07:44:53.033Z</time></trkpt><trkpt lat="42.807715" lon="13.4953583"><ele>235.0</ele><time>2026-04-04T07:44:54.033Z</time></trkpt><trkpt lat="42.80766" lon="13.4951383"><ele>234.0</ele><time>2026-04-04T07:44:55.033Z</time></trkpt><trkpt lat="42.8075917" lon="13.4949133"><ele>236.0</ele><time>2026-04-04T07:44:56.033Z</time></trkpt><trkpt lat="42.8075283" lon="13.4946883"><ele>238.0</ele><time>2026-04-04T07:44:57.033Z</time></trkpt><trkpt lat="42.8074617" lon="13.494465"><ele>240.0</ele><time>2026-04-04T07:44:58.033Z</time></trkpt><trkpt lat="42.8073933" lon="13.494235"><ele>240.0</ele><time>2026-04-04T07:44:59.033Z</time></trkpt><trkpt lat="42.80732" lon="13.4940133"><ele>240.0</ele><time>2026-04-04T07:45:00.033Z</time></trkpt><trkpt lat="42.8072467" lon="13.4937833"><ele>240.0</ele><time>2026-04-04T07:45:01.032Z</time></trkpt><trkpt lat="42.8071533" lon="13.4935783"><ele>238.0</ele><time>2026-04-04T07:45:02.033Z</time></trkpt><trkpt lat="42.8070667" lon="13.4933633"><ele>236.0</ele><time>2026-04-04T07:45:03.033Z</time></trkpt><trkpt lat="42.8069767" lon="13.4931483"><ele>234.0</ele><time>2026-04-04T07:45:04.033Z</time></trkpt><trkpt lat="42.806895" lon="13.49293"><ele>237.33333333333331</ele><time>2026-04-04T07:45:05.033Z</time></trkpt><trkpt lat="42.8067983" lon="13.4927267"><ele>240.66666666666666</ele><time>2026-04-04T07:45:06.033Z</time></trkpt><trkpt lat="42.8067033" lon="13.4925283"><ele>244.0</ele><time>2026-04-04T07:45:07.033Z</time></trkpt><trkpt lat="42.8066033" lon="13.4923067"><ele>244.0</ele><time>2026-04-04T07:45:08.033Z</time></trkpt><trkpt lat="42.806495" lon="13.4920967"><ele>244.0</ele><time>2026-04-04T07:45:09.033Z</time></trkpt><trkpt lat="42.8063933" lon="13.49188"><ele>244.0</ele><time>2026-04-04T07:45:10.033Z</time></trkpt><trkpt lat="42.8062933" lon="13.491685"><ele>241.33333333333331</ele><time>2026-04-04T07:45:11.032Z</time></trkpt><trkpt lat="42.806195" lon="13.4914683"><ele>238.66666666666669</ele><time>2026-04-04T07:45:12.033Z</time></trkpt><trkpt lat="42.8060967" lon="13.4912783"><ele>236.0</ele><time>2026-04-04T07:45:13.033Z</time></trkpt><trkpt lat="42.80601" lon="13.491085"><ele>237.0</ele><time>2026-04-04T07:45:14.033Z</time></trkpt><trkpt lat="42.8059233" lon="13.4909083"><ele>238.0</ele><time>2026-04-04T07:45:15.033Z</time></trkpt><trkpt lat="42.805835" lon="13.49073"><ele>239.0</ele><time>2026-04-04T07:45:16.033Z</time></trkpt><trkpt lat="42.8057433" lon="13.4905333"><ele>236.66666666666669</ele><time>2026-04-04T07:45:17.033Z</time></trkpt><trkpt lat="42.80565" lon="13.490335"><ele>234.33333333333331</ele><time>2026-04-04T07:45:18.033Z</time></trkpt><trkpt lat="42.8055583" lon="13.4901283"><ele>232.0</ele><time>2026-04-04T07:45:19.033Z</time></trkpt><trkpt lat="42.805465" lon="13.4899183"><ele>232.0</ele><time>2026-04-04T07:45:20.033Z</time></trkpt><trkpt lat="42.8053683" lon="13.4897083"><ele>232.0</ele><time>2026-04-04T07:45:21.033Z</time></trkpt><trkpt lat="42.805265" lon="13.4894933"><ele>232.0</ele><time>2026-04-04T07:45:22.033Z</time></trkpt><trkpt lat="42.8051633" lon="13.4892733"><ele>233.0</ele><time>2026-04-04T07:45:23.033Z</time></trkpt><trkpt lat="42.805055" lon="13.4890633"><ele>234.0</ele><time>2026-04-04T07:45:24.033Z</time></trkpt><trkpt lat="42.804955" lon="13.4888567"><ele>235.0</ele><time>2026-04-04T07:45:25.033Z</time></trkpt><trkpt lat="42.80486" lon="13.4886517"><ele>235.0</ele><time>2026-04-04T07:45:26.033Z</time></trkpt><trkpt lat="42.80476" lon="13.48845"><ele>235.0</ele><time>2026-04-04T07:45:27.033Z</time></trkpt><trkpt lat="42.80466" lon="13.4882467"><ele>235.0</ele><time>2026-04-04T07:45:28.033Z</time></trkpt><trkpt lat="42.80456" lon="13.4880317"><ele>235.66666666666666</ele><time>2026-04-04T07:45:29.033Z</time></trkpt><trkpt lat="42.804455" lon="13.4877983"><ele>236.33333333333331</ele><time>2026-04-04T07:45:30.033Z</time></trkpt><trkpt lat="42.804365" lon="13.4875717"><ele>237.0</ele><time>2026-04-04T07:45:31.032Z</time></trkpt><trkpt lat="42.8042617" lon="13.4873567"><ele>237.66666666666669</ele><time>2026-04-04T07:45:32.033Z</time></trkpt><trkpt lat="42.8041667" lon="13.4871267"><ele>238.33333333333334</ele><time>2026-04-04T07:45:33.033Z</time></trkpt><trkpt lat="42.8040783" lon="13.4869"><ele>239.0</ele><time>2026-04-04T07:45:34.033Z</time></trkpt><trkpt lat="42.8039883" lon="13.48667"><ele>239.0</ele><time>2026-04-04T07:45:35.033Z</time></trkpt><trkpt lat="42.8039033" lon="13.486425"><ele>239.0</ele><time>2026-04-04T07:45:36.033Z</time></trkpt><trkpt lat="42.8038233" lon="13.4861767"><ele>239.0</ele><time>2026-04-04T07:45:37.033Z</time></trkpt><trkpt lat="42.803755" lon="13.4859333"><ele>239.66666666666669</ele><time>2026-04-04T07:45:38.033Z</time></trkpt><trkpt lat="42.8036917" lon="13.4856867"><ele>240.33333333333331</ele><time>2026-04-04T07:45:39.033Z</time></trkpt><trkpt lat="42.80363" lon="13.4854383"><ele>241.0</ele><time>2026-04-04T07:45:40.033Z</time></trkpt><trkpt lat="42.8035633" lon="13.4851833"><ele>241.66666666666666</ele><time>2026-04-04T07:45:41.033Z</time></trkpt><trkpt lat="42.80352" lon="13.4849367"><ele>242.33333333333331</ele><time>2026-04-04T07:45:42.033Z</time></trkpt><trkpt lat="42.8034783" lon="13.48468"><ele>243.0</ele><time>2026-04-04T07:45:43.033Z</time></trkpt><trkpt lat="42.8034433" lon="13.4844217"><ele>242.33333333333331</ele><time>2026-04-04T07:45:44.033Z</time></trkpt><trkpt lat="42.8034033" lon="13.4841717"><ele>241.66666666666666</ele><time>2026-04-04T07:45:45.033Z</time></trkpt><trkpt lat="42.8033617" lon="13.48391"><ele>241.0</ele><time>2026-04-04T07:45:46.033Z</time></trkpt><trkpt lat="42.8033133" lon="13.483665"><ele>241.0</ele><time>2026-04-04T07:45:47.033Z</time></trkpt><trkpt lat="42.8032733" lon="13.4834067"><ele>241.0</ele><time>2026-04-04T07:45:48.033Z</time></trkpt><trkpt lat="42.803235" lon="13.48315"><ele>241.0</ele><time>2026-04-04T07:45:49.033Z</time></trkpt><trkpt lat="42.8032" lon="13.4829033"><ele>242.0</ele><time>2026-04-04T07:45:50.033Z</time></trkpt><trkpt lat="42.8031567" lon="13.4826533"><ele>243.0</ele><time>2026-04-04T07:45:51.033Z</time></trkpt><trkpt lat="42.8031217" lon="13.4824033"><ele>244.0</ele><time>2026-04-04T07:45:52.033Z</time></trkpt><trkpt lat="42.803085" lon="13.4821483"><ele>244.0</ele><time>2026-04-04T07:45:53.033Z</time></trkpt><trkpt lat="42.80304" lon="13.4819067"><ele>244.0</ele><time>2026-04-04T07:45:54.033Z</time></trkpt><trkpt lat="42.8030067" lon="13.4816367"><ele>244.0</ele><time>2026-04-04T07:45:55.033Z</time></trkpt><trkpt lat="42.8029717" lon="13.4813733"><ele>244.0</ele><time>2026-04-04T07:45:56.033Z</time></trkpt><trkpt lat="42.80293" lon="13.481115"><ele>244.0</ele><time>2026-04-04T07:45:57.033Z</time></trkpt><trkpt lat="42.80289" lon="13.480855"><ele>244.0</ele><time>2026-04-04T07:45:58.033Z</time></trkpt><trkpt lat="42.8028367" lon="13.4806033"><ele>244.0</ele><time>2026-04-04T07:45:59.033Z</time></trkpt><trkpt lat="42.802795" lon="13.4803283"><ele>244.0</ele><time>2026-04-04T07:46:00.033Z</time></trkpt><trkpt lat="42.8027533" lon="13.4800617"><ele>244.0</ele><time>2026-04-04T07:46:01.032Z</time></trkpt><trkpt lat="42.8027117" lon="13.47979"><ele>244.33333333333331</ele><time>2026-04-04T07:46:02.032Z</time></trkpt><trkpt lat="42.8026767" lon="13.4795117"><ele>244.66666666666669</ele><time>2026-04-04T07:46:03.033Z</time></trkpt><trkpt lat="42.8026333" lon="13.4792433"><ele>245.0</ele><time>2026-04-04T07:46:04.033Z</time></trkpt><trkpt lat="42.8026033" lon="13.4789683"><ele>247.0</ele><time>2026-04-04T07:46:05.033Z</time></trkpt><trkpt lat="42.80256" lon="13.47869"><ele>249.0</ele><time>2026-04-04T07:46:06.033Z</time></trkpt><trkpt lat="42.802515" lon="13.4784133"><ele>251.0</ele><time>2026-04-04T07:46:07.033Z</time></trkpt><trkpt lat="42.8024717" lon="13.4781383"><ele>248.66666666666669</ele><time>2026-04-04T07:46:08.033Z</time></trkpt><trkpt lat="42.8024417" lon="13.477855"><ele>246.33333333333331</ele><time>2026-04-04T07:46:09.033Z</time></trkpt><trkpt lat="42.8024017" lon="13.4775933"><ele>244.0</ele><time>2026-04-04T07:46:10.033Z</time></trkpt><trkpt lat="42.8023617" lon="13.47732"><ele>244.66666666666666</ele><time>2026-04-04T07:46:11.033Z</time></trkpt><trkpt lat="42.8023217" lon="13.47705"><ele>245.33333333333331</ele><time>2026-04-04T07:46:12.033Z</time></trkpt><trkpt lat="42.802285" lon="13.4767883"><ele>246.0</ele><time>2026-04-04T07:46:13.033Z</time></trkpt><trkpt lat="42.8022415" lon="13.4765312"><ele>246.0</ele><time>2026-04-04T07:46:14.033Z</time></trkpt><trkpt lat="42.8022028" lon="13.4762739"><ele>246.0</ele><time>2026-04-04T07:46:15.033Z</time></trkpt><trkpt lat="42.8021711" lon="13.4760245"><ele>246.0</ele><time>2026-04-04T07:46:16.033Z</time></trkpt><trkpt lat="42.802135" lon="13.4757698"><ele>248.0</ele><time>2026-04-04T07:46:17.033Z</time></trkpt><trkpt lat="42.8021022" lon="13.4755144"><ele>250.0</ele><time>2026-04-04T07:46:18.033Z</time></trkpt><trkpt lat="42.8020657" lon="13.4752687"><ele>252.0</ele><time>2026-04-04T07:46:19.033Z</time></trkpt><trkpt lat="42.802028" lon="13.4750251"><ele>254.33333333333331</ele><time>2026-04-04T07:46:20.033Z</time></trkpt><trkpt lat="42.8019965" lon="13.4747761"><ele>256.66666666666663</ele><time>2026-04-04T07:46:21.033Z</time></trkpt><trkpt lat="42.8019615" lon="13.4745287"><ele>259.0</ele><time>2026-04-04T07:46:22.033Z</time></trkpt><trkpt lat="42.8019212" lon="13.4742957"><ele>257.66666666666663</ele><time>2026-04-04T07:46:23.033Z</time></trkpt><trkpt lat="42.8018827" lon="13.4740595"><ele>256.3333333333333</ele><time>2026-04-04T07:46:24.033Z</time></trkpt><trkpt lat="42.8018514" lon="13.4738064"><ele>255.0</ele><time>2026-04-04T07:46:25.033Z</time></trkpt><trkpt lat="42.8018263" lon="13.4735488"><ele>255.0</ele><time>2026-04-04T07:46:26.033Z</time></trkpt><trkpt lat="42.8018091" lon="13.4732847"><ele>255.0</ele><time>2026-04-04T07:46:27.033Z</time></trkpt><trkpt lat="42.8017934" lon="13.4730254"><ele>255.0</ele><time>2026-04-04T07:46:28.033Z</time></trkpt><trkpt lat="42.8017812" lon="13.4727672"><ele>255.33333333333331</ele><time>2026-04-04T07:46:29.033Z</time></trkpt><trkpt lat="42.8017751" lon="13.4725102"><ele>255.66666666666666</ele><time>2026-04-04T07:46:30.033Z</time></trkpt><trkpt lat="42.8017775" lon="13.4722522"><ele>256.0</ele><time>2026-04-04T07:46:31.033Z</time></trkpt><trkpt lat="42.8017896" lon="13.4719939"><ele>256.3333333333333</ele><time>2026-04-04T07:46:32.033Z</time></trkpt><trkpt lat="42.8018124" lon="13.4717376"><ele>256.6666666666667</ele><time>2026-04-04T07:46:33.033Z</time></trkpt><trkpt lat="42.8018463" lon="13.4714847"><ele>257.0</ele><time>2026-04-04T07:46:34.033Z</time></trkpt><trkpt lat="42.8018845" lon="13.4712327"><ele>262.33333333333337</ele><time>2026-04-04T07:46:35.033Z</time></trkpt><trkpt lat="42.801926" lon="13.4709787"><ele>267.6666666666667</ele><time>2026-04-04T07:46:36.033Z</time></trkpt><trkpt lat="42.8019675" lon="13.4707246"><ele>273.0</ele><time>2026-04-04T07:46:37.033Z</time></trkpt><trkpt lat="42.8020154" lon="13.470473"><ele>270.3333333333333</ele><time>2026-04-04T07:46:38.033Z</time></trkpt><trkpt lat="42.8020641" lon="13.4702207"><ele>267.66666666666663</ele><time>2026-04-04T07:46:39.033Z</time></trkpt><trkpt lat="42.8021139" lon="13.4699622"><ele>265.0</ele><time>2026-04-04T07:46:40.033Z</time></trkpt><trkpt lat="42.8021636" lon="13.4697051"><ele>265.0</ele><time>2026-04-04T07:46:41.033Z</time></trkpt><trkpt lat="42.8022133" lon="13.469456"><ele>265.0</ele><time>2026-04-04T07:46:42.033Z</time></trkpt><trkpt lat="42.8022633" lon="13.4692076"><ele>265.0</ele><time>2026-04-04T07:46:43.033Z</time></trkpt><trkpt lat="42.8023179" lon="13.4689545"><ele>265.66666666666663</ele><time>2026-04-04T07:46:44.032Z</time></trkpt><trkpt lat="42.8023645" lon="13.4687037"><ele>266.3333333333333</ele><time>2026-04-04T07:46:45.033Z</time></trkpt><trkpt lat="42.8024138" lon="13.468446"><ele>267.0</ele><time>2026-04-04T07:46:46.033Z</time></trkpt><trkpt lat="42.8024583" lon="13.4681983"><ele>266.3333333333333</ele><time>2026-04-04T07:46:47.033Z</time></trkpt><trkpt lat="42.8024817" lon="13.4679383"><ele>265.66666666666663</ele><time>2026-04-04T07:46:48.032Z</time></trkpt><trkpt lat="42.8025167" lon="13.467665"><ele>265.0</ele><time>2026-04-04T07:46:49.033Z</time></trkpt><trkpt lat="42.80254" lon="13.4674017"><ele>265.0</ele><time>2026-04-04T07:46:50.033Z</time></trkpt><trkpt lat="42.802555" lon="13.4671233"><ele>265.0</ele><time>2026-04-04T07:46:51.033Z</time></trkpt><trkpt lat="42.80256" lon="13.4668383"><ele>265.0</ele><time>2026-04-04T07:46:52.033Z</time></trkpt><trkpt lat="42.8025467" lon="13.46656"><ele>264.3333333333333</ele><time>2026-04-04T07:46:53.033Z</time></trkpt><trkpt lat="42.8025183" lon="13.4662917"><ele>263.6666666666667</ele><time>2026-04-04T07:46:54.033Z</time></trkpt><trkpt lat="42.8024833" lon="13.466025"><ele>263.0</ele><time>2026-04-04T07:46:55.033Z</time></trkpt><trkpt lat="42.8024433" lon="13.4657583"><ele>264.0</ele><time>2026-04-04T07:46:56.033Z</time></trkpt><trkpt lat="42.8023933" lon="13.465485"><ele>265.0</ele><time>2026-04-04T07:46:57.033Z</time></trkpt><trkpt lat="42.80232" lon="13.4652233"><ele>266.0</ele><time>2026-04-04T07:46:58.033Z</time></trkpt><trkpt lat="42.8022483" lon="13.4649767"><ele>266.0</ele><time>2026-04-04T07:46:59.033Z</time></trkpt><trkpt lat="42.8021783" lon="13.4647133"><ele>266.0</ele><time>2026-04-04T07:47:00.033Z</time></trkpt><trkpt lat="42.8020883" lon="13.46447"><ele>266.0</ele><time>2026-04-04T07:47:01.033Z</time></trkpt><trkpt lat="42.8020033" lon="13.4642333"><ele>269.33333333333337</ele><time>2026-04-04T07:47:02.033Z</time></trkpt><trkpt lat="42.8019117" lon="13.4639867"><ele>272.6666666666667</ele><time>2026-04-04T07:47:03.033Z</time></trkpt><trkpt lat="42.801825" lon="13.4637533"><ele>276.0</ele><time>2026-04-04T07:47:04.033Z</time></trkpt><trkpt lat="42.8017417" lon="13.46352"><ele>276.0</ele><time>2026-04-04T07:47:05.033Z</time></trkpt><trkpt lat="42.80166" lon="13.463285"><ele>276.0</ele><time>2026-04-04T07:47:06.033Z</time></trkpt><trkpt lat="42.8015817" lon="13.46306"><ele>276.0</ele><time>2026-04-04T07:47:07.033Z</time></trkpt><trkpt lat="42.8015083" lon="13.4628417"><ele>283.0</ele><time>2026-04-04T07:47:08.033Z</time></trkpt><trkpt lat="42.8014283" lon="13.462625"><ele>290.0</ele><time>2026-04-04T07:47:09.033Z</time></trkpt><trkpt lat="42.801355" lon="13.4624167"><ele>297.0</ele><time>2026-04-04T07:47:10.033Z</time></trkpt><trkpt lat="42.80128" lon="13.46221"><ele>301.0</ele><time>2026-04-04T07:47:11.033Z</time></trkpt><trkpt lat="42.801195" lon="13.46201"><ele>305.0</ele><time>2026-04-04T07:47:12.033Z</time></trkpt><trkpt lat="42.8011067" lon="13.461805"><ele>309.0</ele><time>2026-04-04T07:47:13.033Z</time></trkpt><trkpt lat="42.8010167" lon="13.461595"><ele>314.6666666666667</ele><time>2026-04-04T07:47:14.033Z</time></trkpt><trkpt lat="42.80093" lon="13.4613767"><ele>320.33333333333337</ele><time>2026-04-04T07:47:15.032Z</time></trkpt><trkpt lat="42.80088" lon="13.4611783"><ele>326.0</ele><time>2026-04-04T07:47:16.033Z</time></trkpt><trkpt lat="42.80082" lon="13.4609683"><ele>339.0</ele><time>2026-04-04T07:47:17.033Z</time></trkpt><trkpt lat="42.80075" lon="13.4607467"><ele>352.0</ele><time>2026-04-04T07:47:18.033Z</time></trkpt><trkpt lat="42.8006833" lon="13.4605183"><ele>365.0</ele><time>2026-04-04T07:47:19.033Z</time></trkpt><trkpt lat="42.8006117" lon="13.46029"><ele>373.5</ele><time>2026-04-04T07:47:20.033Z</time></trkpt><trkpt lat="42.8005417" lon="13.4600567"><ele>382.0</ele><time>2026-04-04T07:47:21.033Z</time></trkpt><trkpt lat="42.7979367" lon="13.4530633"><ele>353.0</ele><time>2026-04-04T07:47:52.028Z</time></trkpt><trkpt lat="42.7978283" lon="13.4528283"><ele>324.0</ele><time>2026-04-04T07:47:53.028Z</time></trkpt><trkpt lat="42.79772" lon="13.4526233"><ele>295.0</ele><time>2026-04-04T07:47:54.028Z</time></trkpt><trkpt lat="42.797575" lon="13.4524567"><ele>294.66666666666663</ele><time>2026-04-04T07:47:55.028Z</time></trkpt><trkpt lat="42.797455" lon="13.4522533"><ele>294.3333333333333</ele><time>2026-04-04T07:47:56.028Z</time></trkpt><trkpt lat="42.7973217" lon="13.4520567"><ele>294.0</ele><time>2026-04-04T07:47:57.027Z</time></trkpt><trkpt lat="42.7971683" lon="13.4518783"><ele>293.0</ele><time>2026-04-04T07:47:58.028Z</time></trkpt><trkpt lat="42.79702" lon="13.451705"><ele>292.0</ele><time>2026-04-04T07:47:59.028Z</time></trkpt><trkpt lat="42.796875" lon="13.451535"><ele>291.0</ele><time>2026-04-04T07:48:00.028Z</time></trkpt><trkpt lat="42.796725" lon="13.4513933"><ele>291.6666666666667</ele><time>2026-04-04T07:48:01.028Z</time></trkpt><trkpt lat="42.79656" lon="13.4512533"><ele>292.33333333333337</ele><time>2026-04-04T07:48:02.028Z</time></trkpt><trkpt lat="42.7963967" lon="13.451135"><ele>293.0</ele><time>2026-04-04T07:48:03.028Z</time></trkpt><trkpt lat="42.7962283" lon="13.4510333"><ele>293.0</ele><time>2026-04-04T07:48:04.028Z</time></trkpt><trkpt lat="42.79605" lon="13.4509367"><ele>293.0</ele><time>2026-04-04T07:48:05.028Z</time></trkpt><trkpt lat="42.79587" lon="13.4508467"><ele>293.0</ele><time>2026-04-04T07:48:06.028Z</time></trkpt><trkpt lat="42.795685" lon="13.4507617"><ele>293.0</ele><time>2026-04-04T07:48:07.028Z</time></trkpt><trkpt lat="42.795505" lon="13.4506717"><ele>293.0</ele><time>2026-04-04T07:48:08.028Z</time></trkpt><trkpt lat="42.7953267" lon="13.4505867"><ele>293.0</ele><time>2026-04-04T07:48:09.028Z</time></trkpt><trkpt lat="42.7951567" lon="13.4504967"><ele>292.0</ele><time>2026-04-04T07:48:10.028Z</time></trkpt><trkpt lat="42.7949767" lon="13.4504133"><ele>291.0</ele><time>2026-04-04T07:48:11.028Z</time></trkpt><trkpt lat="42.7948" lon="13.450325"><ele>290.0</ele><time>2026-04-04T07:48:12.027Z</time></trkpt><trkpt lat="42.7946133" lon="13.4502333"><ele>290.0</ele><time>2026-04-04T07:48:13.028Z</time></trkpt><trkpt lat="42.794435" lon="13.45014"><ele>290.0</ele><time>2026-04-04T07:48:14.028Z</time></trkpt><trkpt lat="42.794255" lon="13.4500533"><ele>290.0</ele><time>2026-04-04T07:48:15.028Z</time></trkpt><trkpt lat="42.79407" lon="13.4499667"><ele>294.6666666666667</ele><time>2026-04-04T07:48:16.028Z</time></trkpt><trkpt lat="42.7938883" lon="13.449885"><ele>299.3333333333333</ele><time>2026-04-04T07:48:17.028Z</time></trkpt><trkpt lat="42.793705" lon="13.449795"><ele>304.0</ele><time>2026-04-04T07:48:18.028Z</time></trkpt><trkpt lat="42.79353" lon="13.4497"><ele>300.66666666666663</ele><time>2026-04-04T07:48:19.028Z</time></trkpt><trkpt lat="42.7933467" lon="13.4496083"><ele>297.3333333333333</ele><time>2026-04-04T07:48:20.028Z</time></trkpt><trkpt lat="42.7931667" lon="13.4495083"><ele>294.0</ele><time>2026-04-04T07:48:21.028Z</time></trkpt><trkpt lat="42.7929933" lon="13.4494"><ele>294.0</ele><time>2026-04-04T07:48:22.028Z</time></trkpt><trkpt lat="42.7928233" lon="13.4492717"><ele>294.0</ele><time>2026-04-04T07:48:23.028Z</time></trkpt><trkpt lat="42.7926667" lon="13.44914"><ele>294.0</ele><time>2026-04-04T07:48:24.028Z</time></trkpt><trkpt lat="42.7925117" lon="13.4489817"><ele>294.3333333333333</ele><time>2026-04-04T07:48:25.028Z</time></trkpt><trkpt lat="42.7923617" lon="13.4488283"><ele>294.66666666666663</ele><time>2026-04-04T07:48:26.028Z</time></trkpt><trkpt lat="42.7922217" lon="13.4486667"><ele>295.0</ele><time>2026-04-04T07:48:27.028Z</time></trkpt><trkpt lat="42.7920867" lon="13.448495"><ele>295.0</ele><time>2026-04-04T07:48:28.028Z</time></trkpt><trkpt lat="42.7919567" lon="13.4482983"><ele>295.0</ele><time>2026-04-04T07:48:29.028Z</time></trkpt><trkpt lat="42.7918367" lon="13.4480933"><ele>295.0</ele><time>2026-04-04T07:48:30.028Z</time></trkpt><trkpt lat="42.79174" lon="13.447865"><ele>296.3333333333333</ele><time>2026-04-04T07:48:31.028Z</time></trkpt><trkpt lat="42.791645" lon="13.4476367"><ele>297.6666666666667</ele><time>2026-04-04T07:48:32.028Z</time></trkpt><trkpt lat="42.7915633" lon="13.4474"><ele>299.0</ele><time>2026-04-04T07:48:33.028Z</time></trkpt><trkpt lat="42.79149" lon="13.44715"><ele>299.33333333333337</ele><time>2026-04-04T07:48:34.028Z</time></trkpt><trkpt lat="42.7914367" lon="13.4469033"><ele>299.6666666666667</ele><time>2026-04-04T07:48:35.028Z</time></trkpt><trkpt lat="42.7913967" lon="13.4466567"><ele>300.0</ele><time>2026-04-04T07:48:36.028Z</time></trkpt><trkpt lat="42.79137" lon="13.4464033"><ele>301.6666666666667</ele><time>2026-04-04T07:48:37.028Z</time></trkpt><trkpt lat="42.7913567" lon="13.44615"><ele>303.33333333333337</ele><time>2026-04-04T07:48:38.028Z</time></trkpt><trkpt lat="42.7913583" lon="13.4458883"><ele>305.0</ele><time>2026-04-04T07:48:39.028Z</time></trkpt><trkpt lat="42.791365" lon="13.4456333"><ele>310.0</ele><time>2026-04-04T07:48:40.028Z</time></trkpt><trkpt lat="42.7913767" lon="13.4453867"><ele>315.0</ele><time>2026-04-04T07:48:41.028Z</time></trkpt><trkpt lat="42.7914017" lon="13.4451417"><ele>320.0</ele><time>2026-04-04T07:48:42.028Z</time></trkpt><trkpt lat="42.7914267" lon="13.4448917"><ele>320.0</ele><time>2026-04-04T07:48:43.027Z</time></trkpt><trkpt lat="42.7914583" lon="13.4446517"><ele>320.0</ele><time>2026-04-04T07:48:44.028Z</time></trkpt><trkpt lat="42.7915167" lon="13.4444033"><ele>320.0</ele><time>2026-04-04T07:48:45.028Z</time></trkpt><trkpt lat="42.791585" lon="13.4441467"><ele>325.33333333333337</ele><time>2026-04-04T07:48:46.028Z</time></trkpt><trkpt lat="42.791665" lon="13.4439117"><ele>330.6666666666667</ele><time>2026-04-04T07:48:47.028Z</time></trkpt><trkpt lat="42.7917483" lon="13.443675"><ele>336.0</ele><time>2026-04-04T07:48:48.028Z</time></trkpt><trkpt lat="42.7918267" lon="13.443435"><ele>332.6666666666667</ele><time>2026-04-04T07:48:49.028Z</time></trkpt><trkpt lat="42.7919017" lon="13.4431917"><ele>329.33333333333337</ele><time>2026-04-04T07:48:50.028Z</time></trkpt><trkpt lat="42.7919783" lon="13.44296"><ele>326.0</ele><time>2026-04-04T07:48:51.028Z</time></trkpt><trkpt lat="42.7920317" lon="13.442725"><ele>326.0</ele><time>2026-04-04T07:48:52.028Z</time></trkpt><trkpt lat="42.79209" lon="13.44248"><ele>326.0</ele><time>2026-04-04T07:48:53.028Z</time></trkpt><trkpt lat="42.792135" lon="13.4422217"><ele>326.0</ele><time>2026-04-04T07:48:54.028Z</time></trkpt><trkpt lat="42.7921683" lon="13.4419717"><ele>326.33333333333337</ele><time>2026-04-04T07:48:55.028Z</time></trkpt><trkpt lat="42.79221" lon="13.4416983"><ele>326.6666666666667</ele><time>2026-04-04T07:48:56.028Z</time></trkpt><trkpt lat="42.7922183" lon="13.44144"><ele>327.0</ele><time>2026-04-04T07:48:57.028Z</time></trkpt><trkpt lat="42.79222" lon="13.4411767"><ele>327.6666666666667</ele><time>2026-04-04T07:48:58.028Z</time></trkpt><trkpt lat="42.7922083" lon="13.4409267"><ele>328.33333333333337</ele><time>2026-04-04T07:48:59.027Z</time></trkpt><trkpt lat="42.7922017" lon="13.4406783"><ele>329.0</ele><time>2026-04-04T07:49:00.028Z</time></trkpt><trkpt lat="42.7921733" lon="13.4404267"><ele>332.33333333333337</ele><time>2026-04-04T07:49:01.028Z</time></trkpt><trkpt lat="42.79213" lon="13.4401817"><ele>335.6666666666667</ele><time>2026-04-04T07:49:02.028Z</time></trkpt><trkpt lat="42.792075" lon="13.4399367"><ele>339.0</ele><time>2026-04-04T07:49:03.028Z</time></trkpt><trkpt lat="42.7920133" lon="13.43969"><ele>341.3333333333333</ele><time>2026-04-04T07:49:04.028Z</time></trkpt><trkpt lat="42.7919433" lon="13.439455"><ele>343.66666666666663</ele><time>2026-04-04T07:49:05.028Z</time></trkpt><trkpt lat="42.7918617" lon="13.4392133"><ele>346.0</ele><time>2026-04-04T07:49:06.028Z</time></trkpt><trkpt lat="42.7917667" lon="13.43898"><ele>344.66666666666663</ele><time>2026-04-04T07:49:07.028Z</time></trkpt><trkpt lat="42.7916717" lon="13.43875"><ele>343.3333333333333</ele><time>2026-04-04T07:49:08.028Z</time></trkpt><trkpt lat="42.7915633" lon="13.43851"><ele>342.0</ele><time>2026-04-04T07:49:09.028Z</time></trkpt><trkpt lat="42.791475" lon="13.43828"><ele>342.0</ele><time>2026-04-04T07:49:10.028Z</time></trkpt><trkpt lat="42.7913783" lon="13.4380433"><ele>342.0</ele><time>2026-04-04T07:49:11.027Z</time></trkpt><trkpt lat="42.7912867" lon="13.437805"><ele>342.0</ele><time>2026-04-04T07:49:12.028Z</time></trkpt><trkpt lat="42.7911933" lon="13.4375583"><ele>339.0</ele><time>2026-04-04T07:49:13.028Z</time></trkpt><trkpt lat="42.7910783" lon="13.4373533"><ele>336.0</ele><time>2026-04-04T07:49:14.028Z</time></trkpt><trkpt lat="42.7909833" lon="13.43712"><ele>333.0</ele><time>2026-04-04T07:49:15.028Z</time></trkpt><trkpt lat="42.790895" lon="13.4368817"><ele>333.0</ele><time>2026-04-04T07:49:16.028Z</time></trkpt><trkpt lat="42.790805" lon="13.43664"><ele>333.0</ele><time>2026-04-04T07:49:17.028Z</time></trkpt><trkpt lat="42.7907167" lon="13.4364"><ele>333.0</ele><time>2026-04-04T07:49:18.028Z</time></trkpt><trkpt lat="42.7906333" lon="13.4361567"><ele>335.0</ele><time>2026-04-04T07:49:19.028Z</time></trkpt><trkpt lat="42.7905467" lon="13.4359183"><ele>337.0</ele><time>2026-04-04T07:49:20.028Z</time></trkpt><trkpt lat="42.7904617" lon="13.43569"><ele>339.0</ele><time>2026-04-04T07:49:21.028Z</time></trkpt><trkpt lat="42.79037" lon="13.4354433"><ele>340.6666666666667</ele><time>2026-04-04T07:49:22.028Z</time></trkpt><trkpt lat="42.7902817" lon="13.4351967"><ele>342.33333333333337</ele><time>2026-04-04T07:49:23.028Z</time></trkpt><trkpt lat="42.7902017" lon="13.4349633"><ele>344.0</ele><time>2026-04-04T07:49:24.028Z</time></trkpt><trkpt lat="42.7901133" lon="13.43473"><ele>351.33333333333337</ele><time>2026-04-04T07:49:25.028Z</time></trkpt><trkpt lat="42.7900283" lon="13.4344817"><ele>358.6666666666667</ele><time>2026-04-04T07:49:26.028Z</time></trkpt><trkpt lat="42.7899483" lon="13.4342367"><ele>366.0</ele><time>2026-04-04T07:49:27.028Z</time></trkpt><trkpt lat="42.7898867" lon="13.4339883"><ele>365.3333333333333</ele><time>2026-04-04T07:49:28.027Z</time></trkpt><trkpt lat="42.7898167" lon="13.4337433"><ele>364.66666666666663</ele><time>2026-04-04T07:49:29.028Z</time></trkpt><trkpt lat="42.789745" lon="13.433495"><ele>364.0</ele><time>2026-04-04T07:49:30.027Z</time></trkpt><trkpt lat="42.7896733" lon="13.4332467"><ele>364.0</ele><time>2026-04-04T07:49:31.028Z</time></trkpt><trkpt lat="42.7896067" lon="13.433"><ele>364.0</ele><time>2026-04-04T07:49:32.028Z</time></trkpt><trkpt lat="42.7895417" lon="13.432765"><ele>364.0</ele><time>2026-04-04T07:49:33.028Z</time></trkpt><trkpt lat="42.7894617" lon="13.4325283"><ele>363.66666666666663</ele><time>2026-04-04T07:49:34.028Z</time></trkpt><trkpt lat="42.78938" lon="13.4322683"><ele>363.3333333333333</ele><time>2026-04-04T07:49:35.028Z</time></trkpt><trkpt lat="42.789305" lon="13.4320167"><ele>363.0</ele><time>2026-04-04T07:49:36.028Z</time></trkpt><trkpt lat="42.7892317" lon="13.4317767"><ele>366.6666666666667</ele><time>2026-04-04T07:49:37.028Z</time></trkpt><trkpt lat="42.7891467" lon="13.4315417"><ele>370.33333333333337</ele><time>2026-04-04T07:49:38.028Z</time></trkpt><trkpt lat="42.789055" lon="13.4313017"><ele>374.0</ele><time>2026-04-04T07:49:39.028Z</time></trkpt><trkpt lat="42.7889417" lon="13.4310733"><ele>374.6666666666667</ele><time>2026-04-04T07:49:40.028Z</time></trkpt><trkpt lat="42.7888167" lon="13.4308667"><ele>375.3333333333333</ele><time>2026-04-04T07:49:41.028Z</time></trkpt><trkpt lat="42.7886867" lon="13.43067"><ele>376.0</ele><time>2026-04-04T07:49:42.028Z</time></trkpt><trkpt lat="42.7885433" lon="13.430485"><ele>378.66666666666663</ele><time>2026-04-04T07:49:43.028Z</time></trkpt><trkpt lat="42.7883933" lon="13.4303083"><ele>381.3333333333333</ele><time>2026-04-04T07:49:44.028Z</time></trkpt><trkpt lat="42.788235" lon="13.4301383"><ele>384.0</ele><time>2026-04-04T07:49:45.028Z</time></trkpt><trkpt lat="42.7880633" lon="13.4299817"><ele>384.0</ele><time>2026-04-04T07:49:46.028Z</time></trkpt><trkpt lat="42.7878833" lon="13.4298317"><ele>384.0</ele><time>2026-04-04T07:49:47.028Z</time></trkpt><trkpt lat="42.7877017" lon="13.4296933"><ele>384.0</ele><time>2026-04-04T07:49:48.028Z</time></trkpt><trkpt lat="42.787505" lon="13.429575"><ele>384.33333333333337</ele><time>2026-04-04T07:49:49.028Z</time></trkpt><trkpt lat="42.7873233" lon="13.4294783"><ele>384.6666666666667</ele><time>2026-04-04T07:49:50.028Z</time></trkpt><trkpt lat="42.7871317" lon="13.4294017"><ele>385.0</ele><time>2026-04-04T07:49:51.028Z</time></trkpt><trkpt lat="42.7869333" lon="13.4293267"><ele>386.0</ele><time>2026-04-04T07:49:52.028Z</time></trkpt><trkpt lat="42.78674" lon="13.4292533"><ele>387.0</ele><time>2026-04-04T07:49:53.028Z</time></trkpt><trkpt lat="42.78655" lon="13.4291783"><ele>388.0</ele><time>2026-04-04T07:49:54.028Z</time></trkpt><trkpt lat="42.786365" lon="13.4291033"><ele>388.0</ele><time>2026-04-04T07:49:55.028Z</time></trkpt><trkpt lat="42.78618" lon="13.4290233"><ele>388.0</ele><time>2026-04-04T07:49:56.028Z</time></trkpt><trkpt lat="42.78599" lon="13.428945"><ele>388.0</ele><time>2026-04-04T07:49:57.028Z</time></trkpt><trkpt lat="42.7858133" lon="13.42885"><ele>386.0</ele><time>2026-04-04T07:49:58.028Z</time></trkpt><trkpt lat="42.7856333" lon="13.4287483"><ele>384.0</ele><time>2026-04-04T07:49:59.028Z</time></trkpt><trkpt lat="42.7854583" lon="13.4286317"><ele>382.0</ele><time>2026-04-04T07:50:00.028Z</time></trkpt><trkpt lat="42.7852817" lon="13.4285033"><ele>384.3333333333333</ele><time>2026-04-04T07:50:01.028Z</time></trkpt><trkpt lat="42.785115" lon="13.42836"><ele>386.66666666666663</ele><time>2026-04-04T07:50:02.028Z</time></trkpt><trkpt lat="42.7849583" lon="13.428225"><ele>389.0</ele><time>2026-04-04T07:50:03.028Z</time></trkpt><trkpt lat="42.784815" lon="13.428085"><ele>387.66666666666663</ele><time>2026-04-04T07:50:04.028Z</time></trkpt><trkpt lat="42.78467" lon="13.42794"><ele>386.33333333333337</ele><time>2026-04-04T07:50:05.028Z</time></trkpt><trkpt lat="42.7845417" lon="13.4278"><ele>385.0</ele><time>2026-04-04T07:50:06.028Z</time></trkpt><trkpt lat="42.784405" lon="13.4276333"><ele>385.0</ele><time>2026-04-04T07:50:07.028Z</time></trkpt><trkpt lat="42.7842717" lon="13.4274483"><ele>385.0</ele><time>2026-04-04T07:50:08.028Z</time></trkpt><trkpt lat="42.78414" lon="13.4272567"><ele>385.0</ele><time>2026-04-04T07:50:09.028Z</time></trkpt><trkpt lat="42.7840133" lon="13.4270517"><ele>385.0</ele><time>2026-04-04T07:50:10.028Z</time></trkpt><trkpt lat="42.7838867" lon="13.4268583"><ele>385.0</ele><time>2026-04-04T07:50:11.028Z</time></trkpt><trkpt lat="42.783775" lon="13.4266417"><ele>385.0</ele><time>2026-04-04T07:50:12.028Z</time></trkpt><trkpt lat="42.7836667" lon="13.4264183"><ele>385.0</ele><time>2026-04-04T07:50:13.028Z</time></trkpt><trkpt lat="42.783565" lon="13.4261917"><ele>385.0</ele><time>2026-04-04T07:50:14.028Z</time></trkpt><trkpt lat="42.7834717" lon="13.4259517"><ele>385.0</ele><time>2026-04-04T07:50:15.028Z</time></trkpt><trkpt lat="42.783395" lon="13.42572"><ele>385.6666666666667</ele><time>2026-04-04T07:50:16.028Z</time></trkpt><trkpt lat="42.7833233" lon="13.4254817"><ele>386.33333333333337</ele><time>2026-04-04T07:50:17.028Z</time></trkpt><trkpt lat="42.7832617" lon="13.4252467"><ele>387.0</ele><time>2026-04-04T07:50:18.028Z</time></trkpt><trkpt lat="42.783205" lon="13.42501"><ele>385.6666666666667</ele><time>2026-04-04T07:50:19.028Z</time></trkpt><trkpt lat="42.7831533" lon="13.42477"><ele>384.33333333333337</ele><time>2026-04-04T07:50:20.028Z</time></trkpt><trkpt lat="42.7831083" lon="13.4245233"><ele>383.0</ele><time>2026-04-04T07:50:21.028Z</time></trkpt><trkpt lat="42.7830567" lon="13.4242717"><ele>381.33333333333337</ele><time>2026-04-04T07:50:22.028Z</time></trkpt><trkpt lat="42.783005" lon="13.4240217"><ele>379.6666666666667</ele><time>2026-04-04T07:50:23.028Z</time></trkpt><trkpt lat="42.782955" lon="13.423775"><ele>378.0</ele><time>2026-04-04T07:50:24.028Z</time></trkpt><trkpt lat="42.7829017" lon="13.42352"><ele>378.0</ele><time>2026-04-04T07:50:25.028Z</time></trkpt><trkpt lat="42.7828433" lon="13.4232667"><ele>378.0</ele><time>2026-04-04T07:50:26.028Z</time></trkpt><trkpt lat="42.7827867" lon="13.423015"><ele>378.0</ele><time>2026-04-04T07:50:27.028Z</time></trkpt><trkpt lat="42.7827317" lon="13.4227583"><ele>382.66666666666663</ele><time>2026-04-04T07:50:28.028Z</time></trkpt><trkpt lat="42.7826733" lon="13.422505"><ele>387.3333333333333</ele><time>2026-04-04T07:50:29.028Z</time></trkpt><trkpt lat="42.78262" lon="13.4222517"><ele>392.0</ele><time>2026-04-04T07:50:30.028Z</time></trkpt><trkpt lat="42.7825617" lon="13.4219983"><ele>392.0</ele><time>2026-04-04T07:50:31.028Z</time></trkpt><trkpt lat="42.7825067" lon="13.4217483"><ele>392.0</ele><time>2026-04-04T07:50:32.028Z</time></trkpt><trkpt lat="42.7824433" lon="13.4215"><ele>392.0</ele><time>2026-04-04T07:50:33.027Z</time></trkpt><trkpt lat="42.7823717" lon="13.4212533"><ele>391.3333333333333</ele><time>2026-04-04T07:50:34.028Z</time></trkpt><trkpt lat="42.7822917" lon="13.4210083"><ele>390.66666666666663</ele><time>2026-04-04T07:50:35.028Z</time></trkpt><trkpt lat="42.7822033" lon="13.4207717"><ele>390.0</ele><time>2026-04-04T07:50:36.028Z</time></trkpt><trkpt lat="42.7821067" lon="13.42054"><ele>390.0</ele><time>2026-04-04T07:50:37.028Z</time></trkpt><trkpt lat="42.7819967" lon="13.420325"><ele>390.0</ele><time>2026-04-04T07:50:38.028Z</time></trkpt><trkpt lat="42.7818717" lon="13.4201267"><ele>390.0</ele><time>2026-04-04T07:50:39.028Z</time></trkpt><trkpt lat="42.781745" lon="13.41992"><ele>391.66666666666663</ele><time>2026-04-04T07:50:40.028Z</time></trkpt><trkpt lat="42.7816117" lon="13.4197217"><ele>393.3333333333333</ele><time>2026-04-04T07:50:41.028Z</time></trkpt><trkpt lat="42.78147" lon="13.4195417"><ele>395.0</ele><time>2026-04-04T07:50:42.028Z</time></trkpt><trkpt lat="42.7813283" lon="13.4193717"><ele>395.0</ele><time>2026-04-04T07:50:43.028Z</time></trkpt><trkpt lat="42.78117" lon="13.4191883"><ele>395.0</ele><time>2026-04-04T07:50:44.028Z</time></trkpt><trkpt lat="42.78101" lon="13.4190267"><ele>395.0</ele><time>2026-04-04T07:50:45.027Z</time></trkpt><trkpt lat="42.780855" lon="13.418875"><ele>392.66666666666663</ele><time>2026-04-04T07:50:46.028Z</time></trkpt><trkpt lat="42.7806983" lon="13.418725"><ele>390.33333333333337</ele><time>2026-04-04T07:50:47.028Z</time></trkpt><trkpt lat="42.7805467" lon="13.4185683"><ele>388.0</ele><time>2026-04-04T07:50:48.028Z</time></trkpt><trkpt lat="42.7803933" lon="13.4184183"><ele>388.0</ele><time>2026-04-04T07:50:49.028Z</time></trkpt><trkpt lat="42.7802367" lon="13.4182633"><ele>388.0</ele><time>2026-04-04T07:50:50.028Z</time></trkpt><trkpt lat="42.78008" lon="13.418115"><ele>388.0</ele><time>2026-04-04T07:50:51.028Z</time></trkpt><trkpt lat="42.7799183" lon="13.41796"><ele>385.0</ele><time>2026-04-04T07:50:52.028Z</time></trkpt><trkpt lat="42.7797567" lon="13.41781"><ele>382.0</ele><time>2026-04-04T07:50:53.028Z</time></trkpt><trkpt lat="42.7796033" lon="13.4176617"><ele>379.0</ele><time>2026-04-04T07:50:54.028Z</time></trkpt><trkpt lat="42.7794467" lon="13.4174967"><ele>381.3333333333333</ele><time>2026-04-04T07:50:55.028Z</time></trkpt><trkpt lat="42.7792917" lon="13.4173367"><ele>383.66666666666663</ele><time>2026-04-04T07:50:56.028Z</time></trkpt><trkpt lat="42.779135" lon="13.4171833"><ele>386.0</ele><time>2026-04-04T07:50:57.028Z</time></trkpt><trkpt lat="42.778975" lon="13.4170283"><ele>386.0</ele><time>2026-04-04T07:50:58.028Z</time></trkpt><trkpt lat="42.77881" lon="13.416875"><ele>386.0</ele><time>2026-04-04T07:50:59.028Z</time></trkpt><trkpt lat="42.7786483" lon="13.4167217"><ele>386.0</ele><time>2026-04-04T07:51:00.027Z</time></trkpt><trkpt lat="42.778495" lon="13.41657"><ele>391.0</ele><time>2026-04-04T07:51:01.028Z</time></trkpt><trkpt lat="42.778345" lon="13.4164183"><ele>396.0</ele><time>2026-04-04T07:51:02.028Z</time></trkpt><trkpt lat="42.7781667" lon="13.4162767"><ele>401.0</ele><time>2026-04-04T07:51:03.028Z</time></trkpt><trkpt lat="42.77801" lon="13.416125"><ele>401.0</ele><time>2026-04-04T07:51:04.028Z</time></trkpt><trkpt lat="42.7778517" lon="13.415955"><ele>401.0</ele><time>2026-04-04T07:51:05.027Z</time></trkpt><trkpt lat="42.7776933" lon="13.41579"><ele>401.0</ele><time>2026-04-04T07:51:06.028Z</time></trkpt><trkpt lat="42.777535" lon="13.4156267"><ele>400.3333333333333</ele><time>2026-04-04T07:51:07.028Z</time></trkpt><trkpt lat="42.7773767" lon="13.4154667"><ele>399.66666666666663</ele><time>2026-04-04T07:51:08.028Z</time></trkpt><trkpt lat="42.7772183" lon="13.4153033"><ele>399.0</ele><time>2026-04-04T07:51:09.028Z</time></trkpt><trkpt lat="42.7770633" lon="13.4151167"><ele>399.0</ele><time>2026-04-04T07:51:10.028Z</time></trkpt><trkpt lat="42.7769133" lon="13.4149083"><ele>399.0</ele><time>2026-04-04T07:51:11.028Z</time></trkpt><trkpt lat="42.7767517" lon="13.4147983"><ele>399.0</ele><time>2026-04-04T07:51:12.028Z</time></trkpt><trkpt lat="42.7765717" lon="13.41484"><ele>399.66666666666663</ele><time>2026-04-04T07:51:13.028Z</time></trkpt><trkpt lat="42.7763433" lon="13.414835"><ele>400.3333333333333</ele><time>2026-04-04T07:51:14.028Z</time></trkpt><trkpt lat="42.7761733" lon="13.4147617"><ele>401.0</ele><time>2026-04-04T07:51:15.028Z</time></trkpt><trkpt lat="42.775995" lon="13.4146567"><ele>390.3333333333333</ele><time>2026-04-04T07:51:16.028Z</time></trkpt><trkpt lat="42.7758283" lon="13.4145733"><ele>379.66666666666663</ele><time>2026-04-04T07:51:17.027Z</time></trkpt><trkpt lat="42.7756633" lon="13.4144667"><ele>369.0</ele><time>2026-04-04T07:51:18.028Z</time></trkpt><trkpt lat="42.7755017" lon="13.4143467"><ele>369.0</ele><time>2026-04-04T07:51:19.028Z</time></trkpt><trkpt lat="42.7753467" lon="13.4142167"><ele>369.0</ele><time>2026-04-04T07:51:20.028Z</time></trkpt><trkpt lat="42.7752083" lon="13.414075"><ele>369.0</ele><time>2026-04-04T07:51:21.028Z</time></trkpt><trkpt lat="42.7750717" lon="13.4139183"><ele>372.0</ele><time>2026-04-04T07:51:22.028Z</time></trkpt><trkpt lat="42.7749417" lon="13.41376"><ele>375.0</ele><time>2026-04-04T07:51:23.028Z</time></trkpt><trkpt lat="42.7748133" lon="13.413585"><ele>378.0</ele><time>2026-04-04T07:51:24.028Z</time></trkpt><trkpt lat="42.774695" lon="13.413385"><ele>378.0</ele><time>2026-04-04T07:51:25.028Z</time></trkpt><trkpt lat="42.774585" lon="13.4131933"><ele>378.0</ele><time>2026-04-04T07:51:26.027Z</time></trkpt><trkpt lat="42.7744783" lon="13.4129917"><ele>378.0</ele><time>2026-04-04T07:51:27.028Z</time></trkpt><trkpt lat="42.774375" lon="13.4127983"><ele>386.0</ele><time>2026-04-04T07:51:28.028Z</time></trkpt><trkpt lat="42.7742733" lon="13.4126133"><ele>394.0</ele><time>2026-04-04T07:51:29.028Z</time></trkpt><trkpt lat="42.77416" lon="13.4124467"><ele>402.0</ele><time>2026-04-04T07:51:30.028Z</time></trkpt><trkpt lat="42.7740467" lon="13.4123"><ele>402.0</ele><time>2026-04-04T07:51:31.028Z</time></trkpt><trkpt lat="42.7739333" lon="13.41216"><ele>402.0</ele><time>2026-04-04T07:51:32.028Z</time></trkpt><trkpt lat="42.7738167" lon="13.4120233"><ele>402.0</ele><time>2026-04-04T07:51:33.028Z</time></trkpt><trkpt lat="42.7736933" lon="13.4119"><ele>401.5</ele><time>2026-04-04T07:51:34.028Z</time></trkpt><trkpt lat="42.77357" lon="13.411795"><ele>401.0</ele><time>2026-04-04T07:51:35.028Z</time></trkpt><trkpt lat="42.77345" lon="13.411705"><ele>400.5</ele><time>2026-04-04T07:51:36.028Z</time></trkpt><trkpt lat="42.7733383" lon="13.411625"><ele>400.0</ele><time>2026-04-04T07:51:37.028Z</time></trkpt><trkpt lat="42.7732283" lon="13.41156"><ele>400.0</ele><time>2026-04-04T07:51:38.028Z</time></trkpt><trkpt lat="42.773115" lon="13.4114983"><ele>400.0</ele><time>2026-04-04T07:51:39.028Z</time></trkpt><trkpt lat="42.7730017" lon="13.4114417"><ele>400.0</ele><time>2026-04-04T07:51:40.028Z</time></trkpt><trkpt lat="42.772885" lon="13.411395"><ele>400.0</ele><time>2026-04-04T07:51:41.028Z</time></trkpt><trkpt lat="42.77277" lon="13.4113467"><ele>395.5</ele><time>2026-04-04T07:51:42.028Z</time></trkpt><trkpt lat="42.77265" lon="13.411305"><ele>391.0</ele><time>2026-04-04T07:51:43.028Z</time></trkpt><trkpt lat="42.772515" lon="13.4112517"><ele>386.5</ele><time>2026-04-04T07:51:44.028Z</time></trkpt><trkpt lat="42.7723883" lon="13.4111967"><ele>382.0</ele><time>2026-04-04T07:51:45.028Z</time></trkpt><trkpt lat="42.772265" lon="13.411165"><ele>382.0</ele><time>2026-04-04T07:51:46.028Z</time></trkpt><trkpt lat="42.7721383" lon="13.4111733"><ele>382.0</ele><time>2026-04-04T07:51:47.028Z</time></trkpt><trkpt lat="42.7720117" lon="13.4111967"><ele>382.0</ele><time>2026-04-04T07:51:48.028Z</time></trkpt><trkpt lat="42.7719067" lon="13.41122"><ele>382.0</ele><time>2026-04-04T07:51:49.028Z</time></trkpt><trkpt lat="42.7718167" lon="13.411245"><ele>380.8333333333333</ele><time>2026-04-04T07:51:50.028Z</time></trkpt><trkpt lat="42.77173" lon="13.411265"><ele>379.66666666666663</ele><time>2026-04-04T07:51:51.028Z</time></trkpt><trkpt lat="42.7716467" lon="13.4112867"><ele>378.5</ele><time>2026-04-04T07:51:52.028Z</time></trkpt><trkpt lat="42.7715617" lon="13.4113083"><ele>377.3333333333333</ele><time>2026-04-04T07:51:53.028Z</time></trkpt><trkpt lat="42.7714767" lon="13.41133"><ele>376.1666666666667</ele><time>2026-04-04T07:51:54.028Z</time></trkpt><trkpt lat="42.7713933" lon="13.411355"><ele>375.0</ele><time>2026-04-04T07:51:55.028Z</time></trkpt><trkpt lat="42.7713183" lon="13.41137"><ele>376.5714285714286</ele><time>2026-04-04T07:51:56.028Z</time></trkpt><trkpt lat="42.7712417" lon="13.411375"><ele>378.1428571428571</ele><time>2026-04-04T07:51:57.028Z</time></trkpt><trkpt lat="42.7711733" lon="13.4113683"><ele>379.7142857142857</ele><time>2026-04-04T07:51:58.028Z</time></trkpt><trkpt lat="42.7711067" lon="13.4113617"><ele>381.28571428571433</ele><time>2026-04-04T07:51:59.028Z</time></trkpt><trkpt lat="42.77104" lon="13.4113367"><ele>382.8571428571429</ele><time>2026-04-04T07:52:00.028Z</time></trkpt><trkpt lat="42.7709717" lon="13.4113033"><ele>384.42857142857144</ele><time>2026-04-04T07:52:01.028Z</time></trkpt><trkpt lat="42.770905" lon="13.4112533"><ele>386.0</ele><time>2026-04-04T07:52:02.028Z</time></trkpt><trkpt lat="42.7708383" lon="13.411195"><ele>385.99999999999994</ele><time>2026-04-04T07:52:03.028Z</time></trkpt><trkpt lat="42.7707583" lon="13.411125"><ele>386.0</ele><time>2026-04-04T07:52:04.028Z</time></trkpt><trkpt lat="42.7706867" lon="13.4110483"><ele>386.0</ele><time>2026-04-04T07:52:05.028Z</time></trkpt><trkpt lat="42.77062" lon="13.4109667"><ele>386.0</ele><time>2026-04-04T07:52:06.028Z</time></trkpt><trkpt lat="42.77056" lon="13.410875"><ele>385.99999999999994</ele><time>2026-04-04T07:52:07.028Z</time></trkpt><trkpt lat="42.7705067" lon="13.4107933"><ele>386.0</ele><time>2026-04-04T07:52:08.028Z</time></trkpt><trkpt lat="42.770455" lon="13.41071"><ele>386.0</ele><time>2026-04-04T07:52:09.028Z</time></trkpt><trkpt lat="42.7703983" lon="13.4106167"><ele>386.0</ele><time>2026-04-04T07:52:10.028Z</time></trkpt><trkpt lat="42.770335" lon="13.41052"><ele>386.0</ele><time>2026-04-04T07:52:11.028Z</time></trkpt><trkpt lat="42.77027" lon="13.410425"><ele>386.0</ele><time>2026-04-04T07:52:12.027Z</time></trkpt><trkpt lat="42.770195" lon="13.410325"><ele>386.0</ele><time>2026-04-04T07:52:13.028Z</time></trkpt><trkpt lat="42.7701183" lon="13.4102267"><ele>387.20000000000005</ele><time>2026-04-04T07:52:14.028Z</time></trkpt><trkpt lat="42.7700433" lon="13.4101233"><ele>388.40000000000003</ele><time>2026-04-04T07:52:15.028Z</time></trkpt><trkpt lat="42.7699683" lon="13.410015"><ele>389.6</ele><time>2026-04-04T07:52:16.028Z</time></trkpt><trkpt lat="42.7698917" lon="13.4099117"><ele>390.8</ele><time>2026-04-04T07:52:17.028Z</time></trkpt><trkpt lat="42.769815" lon="13.4098117"><ele>392.0</ele><time>2026-04-04T07:52:18.028Z</time></trkpt><trkpt lat="42.76974" lon="13.4097133"><ele>389.6</ele><time>2026-04-04T07:52:19.028Z</time></trkpt><trkpt lat="42.7696667" lon="13.40962"><ele>387.20000000000005</ele><time>2026-04-04T07:52:20.028Z</time></trkpt><trkpt lat="42.7695967" lon="13.409525"><ele>384.8</ele><time>2026-04-04T07:52:21.028Z</time></trkpt><trkpt lat="42.7695183" lon="13.409415"><ele>382.4</ele><time>2026-04-04T07:52:22.028Z</time></trkpt><trkpt lat="42.7694433" lon="13.40931"><ele>380.0</ele><time>2026-04-04T07:52:23.028Z</time></trkpt><trkpt lat="42.7693633" lon="13.409205"><ele>380.8</ele><time>2026-04-04T07:52:24.028Z</time></trkpt><trkpt lat="42.769285" lon="13.4090967"><ele>381.6</ele><time>2026-04-04T07:52:25.028Z</time></trkpt><trkpt lat="42.7692117" lon="13.4090117"><ele>382.4</ele><time>2026-04-04T07:52:26.028Z</time></trkpt><trkpt lat="42.769135" lon="13.4089183"><ele>383.2</ele><time>2026-04-04T07:52:27.028Z</time></trkpt><trkpt lat="42.7690667" lon="13.4088417"><ele>384.0</ele><time>2026-04-04T07:52:28.028Z</time></trkpt><trkpt lat="42.7690083" lon="13.40878"><ele>384.0</ele><time>2026-04-04T07:52:29.028Z</time></trkpt><trkpt lat="42.76893" lon="13.4086983"><ele>384.0</ele><time>2026-04-04T07:52:30.028Z</time></trkpt><trkpt lat="42.768845" lon="13.4086"><ele>384.0</ele><time>2026-04-04T07:52:31.028Z</time></trkpt><trkpt lat="42.7688" lon="13.4085233"><ele>384.0</ele><time>2026-04-04T07:52:32.027Z</time></trkpt><trkpt lat="42.7687617" lon="13.4084233"><ele>384.0</ele><time>2026-04-04T07:52:34.028Z</time></trkpt><trkpt lat="42.7686717" lon="13.4083283"><ele>384.0</ele><time>2026-04-04T07:53:36.029Z</time></trkpt><trkpt lat="42.7685917" lon="13.408225"><ele>384.0</ele><time>2026-04-04T07:53:38.029Z</time></trkpt><trkpt lat="42.768545" lon="13.408155"><ele>384.0</ele><time>2026-04-04T07:53:39.029Z</time></trkpt><trkpt lat="42.7684983" lon="13.4080883"><ele>384.0</ele><time>2026-04-04T07:53:40.029Z</time></trkpt><trkpt lat="42.7684517" lon="13.40801"><ele>384.0</ele><time>2026-04-04T07:53:41.029Z</time></trkpt><trkpt lat="42.7683983" lon="13.4079283"><ele>384.0</ele><time>2026-04-04T07:53:42.029Z</time></trkpt><trkpt lat="42.76834" lon="13.4078417"><ele>381.99999999999994</ele><time>2026-04-04T07:53:43.029Z</time></trkpt><trkpt lat="42.7682783" lon="13.4077533"><ele>380.0</ele><time>2026-04-04T07:53:44.029Z</time></trkpt><trkpt lat="42.7682217" lon="13.40767"><ele>378.0</ele><time>2026-04-04T07:53:45.028Z</time></trkpt><trkpt lat="42.7681733" lon="13.4075867"><ele>376.0</ele><time>2026-04-04T07:53:46.029Z</time></trkpt><trkpt lat="42.7681333" lon="13.40752"><ele>374.0</ele><time>2026-04-04T07:53:47.029Z</time></trkpt><trkpt lat="42.7680967" lon="13.4074433"><ele>371.99999999999994</ele><time>2026-04-04T07:53:48.029Z</time></trkpt><trkpt lat="42.768065" lon="13.4073633"><ele>370.0</ele><time>2026-04-04T07:53:49.029Z</time></trkpt><trkpt lat="42.7679933" lon="13.40721"><ele>369.6</ele><time>2026-04-04T07:53:51.029Z</time></trkpt><trkpt lat="42.76796" lon="13.4071117"><ele>369.2</ele><time>2026-04-04T07:53:52.029Z</time></trkpt><trkpt lat="42.7679267" lon="13.4070017"><ele>368.79999999999995</ele><time>2026-04-04T07:53:53.029Z</time></trkpt><trkpt lat="42.7679017" lon="13.406875"><ele>368.4</ele><time>2026-04-04T07:53:54.029Z</time></trkpt><trkpt lat="42.767875" lon="13.4067517"><ele>368.0</ele><time>2026-04-04T07:53:55.029Z</time></trkpt><trkpt lat="42.7678383" lon="13.4066333"><ele>368.0</ele><time>2026-04-04T07:53:56.029Z</time></trkpt><trkpt lat="42.7677967" lon="13.406495"><ele>368.0</ele><time>2026-04-04T07:53:57.029Z</time></trkpt><trkpt lat="42.7677533" lon="13.40635"><ele>368.0</ele><time>2026-04-04T07:53:58.029Z</time></trkpt><trkpt lat="42.767705" lon="13.4061833"><ele>368.0</ele><time>2026-04-04T07:53:59.029Z</time></trkpt><trkpt lat="42.7676583" lon="13.4060117"><ele>368.25</ele><time>2026-04-04T07:54:00.029Z</time></trkpt><trkpt lat="42.7676167" lon="13.405855"><ele>368.5</ele><time>2026-04-04T07:54:01.029Z</time></trkpt><trkpt lat="42.7675683" lon="13.4057067"><ele>368.75</ele><time>2026-04-04T07:54:02.029Z</time></trkpt><trkpt lat="42.7675167" lon="13.405545"><ele>369.0</ele><time>2026-04-04T07:54:03.029Z</time></trkpt><trkpt lat="42.7674667" lon="13.4053933"><ele>369.0</ele><time>2026-04-04T07:54:04.029Z</time></trkpt><trkpt lat="42.7674133" lon="13.4052383"><ele>369.0</ele><time>2026-04-04T07:54:05.029Z</time></trkpt><trkpt lat="42.7673483" lon="13.4050867"><ele>369.0</ele><time>2026-04-04T07:54:06.029Z</time></trkpt><trkpt lat="42.767265" lon="13.4049533"><ele>369.0</ele><time>2026-04-04T07:54:07.029Z</time></trkpt><trkpt lat="42.7671717" lon="13.4048317"><ele>369.0</ele><time>2026-04-04T07:54:08.029Z</time></trkpt><trkpt lat="42.7670717" lon="13.40473"><ele>369.0</ele><time>2026-04-04T07:54:09.029Z</time></trkpt><trkpt lat="42.7669567" lon="13.404635"><ele>369.0</ele><time>2026-04-04T07:54:10.029Z</time></trkpt><trkpt lat="42.76683" lon="13.404555"><ele>369.0</ele><time>2026-04-04T07:54:11.029Z</time></trkpt><trkpt lat="42.7666933" lon="13.4044917"><ele>369.75</ele><time>2026-04-04T07:54:12.029Z</time></trkpt><trkpt lat="42.76655" lon="13.4044467"><ele>370.5</ele><time>2026-04-04T07:54:13.029Z</time></trkpt><trkpt lat="42.766415" lon="13.4044217"><ele>371.25</ele><time>2026-04-04T07:54:14.029Z</time></trkpt><trkpt lat="42.7662767" lon="13.404405"><ele>372.0</ele><time>2026-04-04T07:54:15.029Z</time></trkpt><trkpt lat="42.7661367" lon="13.404395"><ele>373.75</ele><time>2026-04-04T07:54:16.029Z</time></trkpt><trkpt lat="42.7659983" lon="13.4043933"><ele>375.5</ele><time>2026-04-04T07:54:17.029Z</time></trkpt><trkpt lat="42.7658617" lon="13.404395"><ele>377.25</ele><time>2026-04-04T07:54:18.029Z</time></trkpt><trkpt lat="42.7657217" lon="13.4043883"><ele>379.0</ele><time>2026-04-04T07:54:19.029Z</time></trkpt><trkpt lat="42.7655783" lon="13.4043783"><ele>379.0</ele><time>2026-04-04T07:54:20.029Z</time></trkpt><trkpt lat="42.7654483" lon="13.4043383"><ele>379.0</ele><time>2026-04-04T07:54:21.029Z</time></trkpt><trkpt lat="42.765315" lon="13.4042883"><ele>379.0</ele><time>2026-04-04T07:54:22.029Z</time></trkpt><trkpt lat="42.7651833" lon="13.40422"><ele>379.0</ele><time>2026-04-04T07:54:23.028Z</time></trkpt><trkpt lat="42.7650483" lon="13.4041417"><ele>381.0</ele><time>2026-04-04T07:54:24.029Z</time></trkpt><trkpt lat="42.7649117" lon="13.404085"><ele>383.0</ele><time>2026-04-04T07:54:25.029Z</time></trkpt><trkpt lat="42.764785" lon="13.4040333"><ele>385.0</ele><time>2026-04-04T07:54:26.029Z</time></trkpt><trkpt lat="42.76465" lon="13.403985"><ele>387.0</ele><time>2026-04-04T07:54:27.029Z</time></trkpt><trkpt lat="42.76452" lon="13.403945"><ele>387.0</ele><time>2026-04-04T07:54:28.029Z</time></trkpt><trkpt lat="42.7644033" lon="13.4039117"><ele>387.0</ele><time>2026-04-04T07:54:29.029Z</time></trkpt><trkpt lat="42.7642867" lon="13.4038733"><ele>387.0</ele><time>2026-04-04T07:54:30.029Z</time></trkpt><trkpt lat="42.7641683" lon="13.4038383"><ele>387.0</ele><time>2026-04-04T07:54:31.029Z</time></trkpt><trkpt lat="42.7640517" lon="13.403775"><ele>384.5</ele><time>2026-04-04T07:54:32.029Z</time></trkpt><trkpt lat="42.7639417" lon="13.4037167"><ele>382.0</ele><time>2026-04-04T07:54:33.029Z</time></trkpt><trkpt lat="42.76384" lon="13.403635"><ele>379.5</ele><time>2026-04-04T07:54:34.029Z</time></trkpt><trkpt lat="42.763755" lon="13.4035317"><ele>377.0</ele><time>2026-04-04T07:54:35.029Z</time></trkpt><trkpt lat="42.7636867" lon="13.4034167"><ele>377.0</ele><time>2026-04-04T07:54:36.029Z</time></trkpt><trkpt lat="42.7636333" lon="13.40327"><ele>377.0</ele><time>2026-04-04T07:54:37.029Z</time></trkpt><trkpt lat="42.7635967" lon="13.403115"><ele>377.0</ele><time>2026-04-04T07:54:38.029Z</time></trkpt><trkpt lat="42.7635783" lon="13.402965"><ele>377.0</ele><time>2026-04-04T07:54:39.029Z</time></trkpt><trkpt lat="42.7635717" lon="13.4028167"><ele>377.8</ele><time>2026-04-04T07:54:40.029Z</time></trkpt><trkpt lat="42.763575" lon="13.4026783"><ele>378.6</ele><time>2026-04-04T07:54:41.029Z</time></trkpt><trkpt lat="42.763575" lon="13.4025383"><ele>379.40000000000003</ele><time>2026-04-04T07:54:42.029Z</time></trkpt><trkpt lat="42.7635783" lon="13.4023983"><ele>380.20000000000005</ele><time>2026-04-04T07:54:43.029Z</time></trkpt><trkpt lat="42.7636" lon="13.4022567"><ele>381.0</ele><time>2026-04-04T07:54:44.029Z</time></trkpt><trkpt lat="42.7636367" lon="13.4020983"><ele>382.75</ele><time>2026-04-04T07:54:45.029Z</time></trkpt><trkpt lat="42.76371" lon="13.40197"><ele>384.5</ele><time>2026-04-04T07:54:46.029Z</time></trkpt><trkpt lat="42.7637933" lon="13.401815"><ele>386.25</ele><time>2026-04-04T07:54:47.029Z</time></trkpt><trkpt lat="42.76388" lon="13.4016817"><ele>388.0</ele><time>2026-04-04T07:54:48.029Z</time></trkpt><trkpt lat="42.7639783" lon="13.4015733"><ele>388.0</ele><time>2026-04-04T07:54:49.029Z</time></trkpt><trkpt lat="42.76408" lon="13.4014833"><ele>388.0</ele><time>2026-04-04T07:54:50.029Z</time></trkpt><trkpt lat="42.7641717" lon="13.40139"><ele>388.0</ele><time>2026-04-04T07:54:51.029Z</time></trkpt><trkpt lat="42.7642667" lon="13.4012733"><ele>388.0</ele><time>2026-04-04T07:54:52.028Z</time></trkpt><trkpt lat="42.7643417" lon="13.401145"><ele>388.25</ele><time>2026-04-04T07:54:53.029Z</time></trkpt><trkpt lat="42.7644017" lon="13.4010017"><ele>388.5</ele><time>2026-04-04T07:54:54.029Z</time></trkpt><trkpt lat="42.764435" lon="13.4008367"><ele>388.75</ele><time>2026-04-04T07:54:55.029Z</time></trkpt><trkpt lat="42.764445" lon="13.4006683"><ele>389.0</ele><time>2026-04-04T07:54:56.029Z</time></trkpt><trkpt lat="42.7644433" lon="13.4004983"><ele>389.0</ele><time>2026-04-04T07:54:57.029Z</time></trkpt><trkpt lat="42.76442" lon="13.4003367"><ele>389.0</ele><time>2026-04-04T07:54:58.029Z</time></trkpt><trkpt lat="42.7643717" lon="13.4002"><ele>389.0</ele><time>2026-04-04T07:54:59.029Z</time></trkpt><trkpt lat="42.76431" lon="13.4000767"><ele>389.0</ele><time>2026-04-04T07:55:00.029Z</time></trkpt><trkpt lat="42.7642533" lon="13.3999467"><ele>390.75</ele><time>2026-04-04T07:55:01.029Z</time></trkpt><trkpt lat="42.764205" lon="13.3998017"><ele>392.5</ele><time>2026-04-04T07:55:02.029Z</time></trkpt><trkpt lat="42.7641767" lon="13.3996417"><ele>394.25</ele><time>2026-04-04T07:55:03.029Z</time></trkpt><trkpt lat="42.7641617" lon="13.39947"><ele>396.0</ele><time>2026-04-04T07:55:04.029Z</time></trkpt><trkpt lat="42.7641417" lon="13.3992883"><ele>396.0</ele><time>2026-04-04T07:55:05.029Z</time></trkpt><trkpt lat="42.7641233" lon="13.3991117"><ele>396.0</ele><time>2026-04-04T07:55:06.029Z</time></trkpt><trkpt lat="42.7641083" lon="13.39894"><ele>396.0</ele><time>2026-04-04T07:55:07.029Z</time></trkpt><trkpt lat="42.76409" lon="13.398765"><ele>396.0</ele><time>2026-04-04T07:55:08.029Z</time></trkpt><trkpt lat="42.7640567" lon="13.3985867"><ele>395.5</ele><time>2026-04-04T07:55:09.029Z</time></trkpt><trkpt lat="42.7640133" lon="13.398405"><ele>395.0</ele><time>2026-04-04T07:55:10.029Z</time></trkpt><trkpt lat="42.7639717" lon="13.398235"><ele>394.5</ele><time>2026-04-04T07:55:11.028Z</time></trkpt><trkpt lat="42.763955" lon="13.3980567"><ele>394.0</ele><time>2026-04-04T07:55:12.029Z</time></trkpt><trkpt lat="42.7639417" lon="13.3978883"><ele>396.5</ele><time>2026-04-04T07:55:13.029Z</time></trkpt><trkpt lat="42.763945" lon="13.3977083"><ele>399.0</ele><time>2026-04-04T07:55:14.029Z</time></trkpt><trkpt lat="42.763985" lon="13.3975433"><ele>401.5</ele><time>2026-04-04T07:55:15.029Z</time></trkpt><trkpt lat="42.7640433" lon="13.397375"><ele>404.0</ele><time>2026-04-04T07:55:16.029Z</time></trkpt><trkpt lat="42.76412" lon="13.39723"><ele>406.25</ele><time>2026-04-04T07:55:17.029Z</time></trkpt><trkpt lat="42.7641983" lon="13.3971"><ele>408.5</ele><time>2026-04-04T07:55:18.029Z</time></trkpt><trkpt lat="42.7642767" lon="13.3969733"><ele>410.75</ele><time>2026-04-04T07:55:19.029Z</time></trkpt><trkpt lat="42.7643417" lon="13.396835"><ele>413.0</ele><time>2026-04-04T07:55:20.029Z</time></trkpt><trkpt lat="42.7643883" lon="13.3966833"><ele>409.75</ele><time>2026-04-04T07:55:21.029Z</time></trkpt><trkpt lat="42.7644033" lon="13.3965267"><ele>406.5</ele><time>2026-04-04T07:55:22.029Z</time></trkpt><trkpt lat="42.7643783" lon="13.3963567"><ele>403.25</ele><time>2026-04-04T07:55:23.029Z</time></trkpt><trkpt lat="42.76432" lon="13.3962"><ele>400.0</ele><time>2026-04-04T07:55:24.029Z</time></trkpt><trkpt lat="42.7642383" lon="13.39607"><ele>400.0</ele><time>2026-04-04T07:55:25.029Z</time></trkpt><trkpt lat="42.76414" lon="13.3959383"><ele>400.0</ele><time>2026-04-04T07:55:26.029Z</time></trkpt><trkpt lat="42.76404" lon="13.395805"><ele>400.0</ele><time>2026-04-04T07:55:27.029Z</time></trkpt><trkpt lat="42.76392" lon="13.3956733"><ele>400.0</ele><time>2026-04-04T07:55:28.029Z</time></trkpt><trkpt lat="42.7638167" lon="13.3955283"><ele>398.0</ele><time>2026-04-04T07:55:29.029Z</time></trkpt><trkpt lat="42.7637217" lon="13.3953683"><ele>396.0</ele><time>2026-04-04T07:55:30.029Z</time></trkpt><trkpt lat="42.7636467" lon="13.3951933"><ele>394.0</ele><time>2026-04-04T07:55:31.029Z</time></trkpt><trkpt lat="42.7635917" lon="13.3949933"><ele>394.0</ele><time>2026-04-04T07:55:32.029Z</time></trkpt><trkpt lat="42.7635417" lon="13.3948"><ele>394.0</ele><time>2026-04-04T07:55:33.029Z</time></trkpt><trkpt lat="42.7634967" lon="13.39459"><ele>394.0</ele><time>2026-04-04T07:55:34.029Z</time></trkpt><trkpt lat="42.7634733" lon="13.3943883"><ele>400.0</ele><time>2026-04-04T07:55:35.029Z</time></trkpt><trkpt lat="42.76346" lon="13.3941883"><ele>406.0</ele><time>2026-04-04T07:55:36.029Z</time></trkpt><trkpt lat="42.7634533" lon="13.393995"><ele>412.0</ele><time>2026-04-04T07:55:37.029Z</time></trkpt><trkpt lat="42.7634567" lon="13.393795"><ele>418.0</ele><time>2026-04-04T07:55:38.029Z</time></trkpt><trkpt lat="42.7634583" lon="13.3936033"><ele>418.5</ele><time>2026-04-04T07:55:39.029Z</time></trkpt><trkpt lat="42.7634467" lon="13.3934183"><ele>419.0</ele><time>2026-04-04T07:55:40.029Z</time></trkpt><trkpt lat="42.7634267" lon="13.3932383"><ele>419.5</ele><time>2026-04-04T07:55:41.029Z</time></trkpt><trkpt lat="42.7634133" lon="13.3930617"><ele>420.0</ele><time>2026-04-04T07:55:42.029Z</time></trkpt><trkpt lat="42.7634067" lon="13.392895"><ele>422.5</ele><time>2026-04-04T07:55:43.029Z</time></trkpt><trkpt lat="42.7634133" lon="13.3927333"><ele>425.0</ele><time>2026-04-04T07:55:44.029Z</time></trkpt><trkpt lat="42.76345" lon="13.3925667"><ele>427.5</ele><time>2026-04-04T07:55:45.029Z</time></trkpt><trkpt lat="42.763485" lon="13.392405"><ele>430.0</ele><time>2026-04-04T07:55:46.029Z</time></trkpt><trkpt lat="42.7635117" lon="13.3922367"><ele>431.75</ele><time>2026-04-04T07:55:47.029Z</time></trkpt><trkpt lat="42.7635333" lon="13.392055"><ele>433.5</ele><time>2026-04-04T07:55:48.029Z</time></trkpt><trkpt lat="42.7635283" lon="13.3918683"><ele>435.25</ele><time>2026-04-04T07:55:49.029Z</time></trkpt><trkpt lat="42.7635033" lon="13.39168"><ele>437.0</ele><time>2026-04-04T07:55:50.029Z</time></trkpt><trkpt lat="42.763455" lon="13.3914917"><ele>436.5</ele><time>2026-04-04T07:55:51.029Z</time></trkpt><trkpt lat="42.7633983" lon="13.3913183"><ele>436.0</ele><time>2026-04-04T07:55:52.029Z</time></trkpt><trkpt lat="42.7633733" lon="13.391145"><ele>435.5</ele><time>2026-04-04T07:55:53.029Z</time></trkpt><trkpt lat="42.7633617" lon="13.3909783"><ele>435.0</ele><time>2026-04-04T07:55:54.029Z</time></trkpt><trkpt lat="42.7633617" lon="13.3908117"><ele>435.0</ele><time>2026-04-04T07:55:55.029Z</time></trkpt><trkpt lat="42.7633817" lon="13.3906467"><ele>435.0</ele><time>2026-04-04T07:55:56.029Z</time></trkpt><trkpt lat="42.763435" lon="13.3904817"><ele>435.0</ele><time>2026-04-04T07:55:57.029Z</time></trkpt><trkpt lat="42.76345" lon="13.39031"><ele>435.0</ele><time>2026-04-04T07:55:58.029Z</time></trkpt><trkpt lat="42.763435" lon="13.3901367"><ele>433.25</ele><time>2026-04-04T07:55:59.029Z</time></trkpt><trkpt lat="42.7634133" lon="13.3899533"><ele>431.5</ele><time>2026-04-04T07:56:00.029Z</time></trkpt><trkpt lat="42.763395" lon="13.3897667"><ele>429.75</ele><time>2026-04-04T07:56:01.029Z</time></trkpt><trkpt lat="42.7633783" lon="13.38957"><ele>428.0</ele><time>2026-04-04T07:56:02.029Z</time></trkpt><trkpt lat="42.76337" lon="13.38937"><ele>424.66666666666663</ele><time>2026-04-04T07:56:03.029Z</time></trkpt><trkpt lat="42.763365" lon="13.38917"><ele>421.33333333333337</ele><time>2026-04-04T07:56:04.029Z</time></trkpt><trkpt lat="42.763355" lon="13.3889683"><ele>418.0</ele><time>2026-04-04T07:56:05.029Z</time></trkpt><trkpt lat="42.7633333" lon="13.3887567"><ele>417.0</ele><time>2026-04-04T07:56:06.029Z</time></trkpt><trkpt lat="42.763315" lon="13.3885517"><ele>416.0</ele><time>2026-04-04T07:56:07.029Z</time></trkpt><trkpt lat="42.7632833" lon="13.388355"><ele>415.0</ele><time>2026-04-04T07:56:08.029Z</time></trkpt><trkpt lat="42.763255" lon="13.388165"><ele>414.0</ele><time>2026-04-04T07:56:09.029Z</time></trkpt><trkpt lat="42.7632233" lon="13.3879783"><ele>414.0</ele><time>2026-04-04T07:56:10.029Z</time></trkpt><trkpt lat="42.7631967" lon="13.387795"><ele>414.0</ele><time>2026-04-04T07:56:11.029Z</time></trkpt><trkpt lat="42.763185" lon="13.3876067"><ele>414.0</ele><time>2026-04-04T07:56:12.029Z</time></trkpt><trkpt lat="42.7631883" lon="13.387415"><ele>414.0</ele><time>2026-04-04T07:56:13.029Z</time></trkpt><trkpt lat="42.7632033" lon="13.3872167"><ele>415.0</ele><time>2026-04-04T07:56:14.029Z</time></trkpt><trkpt lat="42.763225" lon="13.3870167"><ele>416.0</ele><time>2026-04-04T07:56:15.029Z</time></trkpt><trkpt lat="42.7632417" lon="13.3868183"><ele>417.0</ele><time>2026-04-04T07:56:16.029Z</time></trkpt><trkpt lat="42.763255" lon="13.3866267"><ele>418.0</ele><time>2026-04-04T07:56:17.029Z</time></trkpt><trkpt lat="42.763265" lon="13.3864317"><ele>416.5</ele><time>2026-04-04T07:56:18.028Z</time></trkpt><trkpt lat="42.763285" lon="13.3862333"><ele>415.0</ele><time>2026-04-04T07:56:19.029Z</time></trkpt><trkpt lat="42.763305" lon="13.386055"><ele>413.5</ele><time>2026-04-04T07:56:20.029Z</time></trkpt><trkpt lat="42.7633267" lon="13.3858933"><ele>412.0</ele><time>2026-04-04T07:56:21.029Z</time></trkpt><trkpt lat="42.76335" lon="13.3857383"><ele>412.0</ele><time>2026-04-04T07:56:22.028Z</time></trkpt><trkpt lat="42.7633933" lon="13.3855833"><ele>412.0</ele><time>2026-04-04T07:56:23.028Z</time></trkpt><trkpt lat="42.76345" lon="13.3854167"><ele>412.0</ele><time>2026-04-04T07:56:24.029Z</time></trkpt><trkpt lat="42.7635217" lon="13.3852533"><ele>412.0</ele><time>2026-04-04T07:56:25.029Z</time></trkpt><trkpt lat="42.7635933" lon="13.385085"><ele>413.0</ele><time>2026-04-04T07:56:26.029Z</time></trkpt><trkpt lat="42.7636767" lon="13.3849183"><ele>414.0</ele><time>2026-04-04T07:56:27.029Z</time></trkpt><trkpt lat="42.763735" lon="13.3847167"><ele>415.0</ele><time>2026-04-04T07:56:28.029Z</time></trkpt><trkpt lat="42.7637867" lon="13.3845217"><ele>415.0</ele><time>2026-04-04T07:56:29.029Z</time></trkpt><trkpt lat="42.76382" lon="13.384325"><ele>415.0</ele><time>2026-04-04T07:56:30.029Z</time></trkpt><trkpt lat="42.7638467" lon="13.3841167"><ele>415.0</ele><time>2026-04-04T07:56:31.029Z</time></trkpt><trkpt lat="42.76386" lon="13.3839267"><ele>415.0</ele><time>2026-04-04T07:56:32.029Z</time></trkpt><trkpt lat="42.763865" lon="13.38374"><ele>415.5</ele><time>2026-04-04T07:56:33.029Z</time></trkpt><trkpt lat="42.7638517" lon="13.38356"><ele>416.0</ele><time>2026-04-04T07:56:34.029Z</time></trkpt><trkpt lat="42.763815" lon="13.3833867"><ele>416.5</ele><time>2026-04-04T07:56:35.029Z</time></trkpt><trkpt lat="42.7637583" lon="13.38322"><ele>417.0</ele><time>2026-04-04T07:56:36.028Z</time></trkpt><trkpt lat="42.7637017" lon="13.38305"><ele>417.25</ele><time>2026-04-04T07:56:37.029Z</time></trkpt><trkpt lat="42.7636417" lon="13.3828833"><ele>417.5</ele><time>2026-04-04T07:56:38.029Z</time></trkpt><trkpt lat="42.763575" lon="13.3827167"><ele>417.75</ele><time>2026-04-04T07:56:39.029Z</time></trkpt><trkpt lat="42.7635233" lon="13.38255"><ele>418.0</ele><time>2026-04-04T07:56:40.029Z</time></trkpt><trkpt lat="42.763475" lon="13.3824"><ele>418.0</ele><time>2026-04-04T07:56:41.029Z</time></trkpt><trkpt lat="42.7634083" lon="13.382265"><ele>418.0</ele><time>2026-04-04T07:56:42.029Z</time></trkpt><trkpt lat="42.7633283" lon="13.382145"><ele>418.0</ele><time>2026-04-04T07:56:43.029Z</time></trkpt><trkpt lat="42.7632183" lon="13.3820567"><ele>418.0</ele><time>2026-04-04T07:56:44.029Z</time></trkpt><trkpt lat="42.7631" lon="13.3819883"><ele>420.5</ele><time>2026-04-04T07:56:45.029Z</time></trkpt><trkpt lat="42.762975" lon="13.3819467"><ele>423.0</ele><time>2026-04-04T07:56:46.029Z</time></trkpt><trkpt lat="42.7628433" lon="13.38195"><ele>425.5</ele><time>2026-04-04T07:56:47.029Z</time></trkpt><trkpt lat="42.7627267" lon="13.381985"><ele>428.0</ele><time>2026-04-04T07:56:48.029Z</time></trkpt><trkpt lat="42.7626117" lon="13.3820317"><ele>428.0</ele><time>2026-04-04T07:56:49.029Z</time></trkpt><trkpt lat="42.7625033" lon="13.3821"><ele>427.99999999999994</ele><time>2026-04-04T07:56:50.029Z</time></trkpt><trkpt lat="42.7624017" lon="13.3821717"><ele>427.99999999999994</ele><time>2026-04-04T07:56:51.029Z</time></trkpt><trkpt lat="42.7623067" lon="13.3822483"><ele>428.0</ele><time>2026-04-04T07:56:52.029Z</time></trkpt><trkpt lat="42.762215" lon="13.3822933"><ele>428.0</ele><time>2026-04-04T07:56:53.028Z</time></trkpt><trkpt lat="42.7621283" lon="13.382295"><ele>427.99999999999994</ele><time>2026-04-04T07:56:54.029Z</time></trkpt><trkpt lat="42.7620517" lon="13.3822567"><ele>428.0</ele><time>2026-04-04T07:56:55.029Z</time></trkpt><trkpt lat="42.7619917" lon="13.38219"><ele>428.0</ele><time>2026-04-04T07:56:56.029Z</time></trkpt><trkpt lat="42.76196" lon="13.38209"><ele>428.0</ele><time>2026-04-04T07:56:57.029Z</time></trkpt><trkpt lat="42.7619467" lon="13.3819667"><ele>427.99999999999994</ele><time>2026-04-04T07:56:58.028Z</time></trkpt><trkpt lat="42.7619517" lon="13.38183"><ele>428.0</ele><time>2026-04-04T07:56:59.029Z</time></trkpt><trkpt lat="42.7619867" lon="13.38167"><ele>428.0</ele><time>2026-04-04T07:57:00.029Z</time></trkpt><trkpt lat="42.762035" lon="13.3814917"><ele>428.0</ele><time>2026-04-04T07:57:01.029Z</time></trkpt><trkpt lat="42.7620833" lon="13.3812983"><ele>428.0</ele><time>2026-04-04T07:57:02.028Z</time></trkpt><trkpt lat="42.76213" lon="13.3810983"><ele>428.0</ele><time>2026-04-04T07:57:03.029Z</time></trkpt><trkpt lat="42.7621583" lon="13.380895"><ele>430.0</ele><time>2026-04-04T07:57:04.029Z</time></trkpt><trkpt lat="42.7621667" lon="13.3806917"><ele>432.0</ele><time>2026-04-04T07:57:05.029Z</time></trkpt><trkpt lat="42.7621683" lon="13.3804917"><ele>434.0</ele><time>2026-04-04T07:57:06.029Z</time></trkpt><trkpt lat="42.7621617" lon="13.3802883"><ele>436.0</ele><time>2026-04-04T07:57:07.029Z</time></trkpt><trkpt lat="42.762135" lon="13.3800967"><ele>436.25</ele><time>2026-04-04T07:57:08.029Z</time></trkpt><trkpt lat="42.7620883" lon="13.3798983"><ele>436.5</ele><time>2026-04-04T07:57:09.029Z</time></trkpt><trkpt lat="42.76204" lon="13.3797167"><ele>436.75</ele><time>2026-04-04T07:57:10.029Z</time></trkpt><trkpt lat="42.7619667" lon="13.3795383"><ele>437.0</ele><time>2026-04-04T07:57:11.029Z</time></trkpt><trkpt lat="42.761885" lon="13.3793717"><ele>436.5</ele><time>2026-04-04T07:57:12.029Z</time></trkpt><trkpt lat="42.7617967" lon="13.3792017"><ele>436.0</ele><time>2026-04-04T07:57:13.029Z</time></trkpt><trkpt lat="42.761705" lon="13.37905"><ele>435.5</ele><time>2026-04-04T07:57:14.029Z</time></trkpt><trkpt lat="42.7616167" lon="13.3789017"><ele>435.0</ele><time>2026-04-04T07:57:15.029Z</time></trkpt><trkpt lat="42.7615433" lon="13.37875"><ele>435.0</ele><time>2026-04-04T07:57:16.029Z</time></trkpt><trkpt lat="42.76149" lon="13.3786033"><ele>435.0</ele><time>2026-04-04T07:57:17.029Z</time></trkpt><trkpt lat="42.7614483" lon="13.3784667"><ele>435.0</ele><time>2026-04-04T07:57:18.029Z</time></trkpt><trkpt lat="42.7614283" lon="13.378345"><ele>435.0</ele><time>2026-04-04T07:57:19.029Z</time></trkpt><trkpt lat="42.7614383" lon="13.3782217"><ele>435.0</ele><time>2026-04-04T07:57:20.029Z</time></trkpt><trkpt lat="42.7614917" lon="13.3781283"><ele>435.0</ele><time>2026-04-04T07:57:21.029Z</time></trkpt><trkpt lat="42.7615867" lon="13.37808"><ele>435.0</ele><time>2026-04-04T07:57:22.029Z</time></trkpt><trkpt lat="42.7617017" lon="13.3780633"><ele>435.0</ele><time>2026-04-04T07:57:23.029Z</time></trkpt><trkpt lat="42.7618083" lon="13.3780683"><ele>435.0</ele><time>2026-04-04T07:57:24.029Z</time></trkpt><trkpt lat="42.76195" lon="13.37809"><ele>435.25</ele><time>2026-04-04T07:57:25.029Z</time></trkpt><trkpt lat="42.762095" lon="13.3781167"><ele>435.5</ele><time>2026-04-04T07:57:26.029Z</time></trkpt><trkpt lat="42.7622367" lon="13.378135"><ele>435.75</ele><time>2026-04-04T07:57:27.029Z</time></trkpt><trkpt lat="42.7623667" lon="13.3781367"><ele>436.0</ele><time>2026-04-04T07:57:28.029Z</time></trkpt><trkpt lat="42.7624867" lon="13.3781033"><ele>436.0</ele><time>2026-04-04T07:57:29.028Z</time></trkpt><trkpt lat="42.76259" lon="13.3780383"><ele>436.0</ele><time>2026-04-04T07:57:30.028Z</time></trkpt><trkpt lat="42.762685" lon="13.3779483"><ele>436.0</ele><time>2026-04-04T07:57:31.029Z</time></trkpt><trkpt lat="42.762765" lon="13.3778367"><ele>436.0</ele><time>2026-04-04T07:57:32.029Z</time></trkpt><trkpt lat="42.762825" lon="13.3777033"><ele>442.0</ele><time>2026-04-04T07:57:33.029Z</time></trkpt><trkpt lat="42.7628717" lon="13.3775533"><ele>448.0</ele><time>2026-04-04T07:57:34.029Z</time></trkpt><trkpt lat="42.7629017" lon="13.3773883"><ele>454.0</ele><time>2026-04-04T07:57:35.029Z</time></trkpt><trkpt lat="42.76292" lon="13.3772233"><ele>460.0</ele><time>2026-04-04T07:57:36.029Z</time></trkpt><trkpt lat="42.762925" lon="13.3770533"><ele>460.0</ele><time>2026-04-04T07:57:37.029Z</time></trkpt><trkpt lat="42.7629083" lon="13.3768833"><ele>460.0</ele><time>2026-04-04T07:57:38.029Z</time></trkpt><trkpt lat="42.76287" lon="13.3767067"><ele>460.0</ele><time>2026-04-04T07:57:39.029Z</time></trkpt><trkpt lat="42.7628117" lon="13.3765367"><ele>460.0</ele><time>2026-04-04T07:57:40.029Z</time></trkpt><trkpt lat="42.762755" lon="13.376385"><ele>455.0</ele><time>2026-04-04T07:57:41.029Z</time></trkpt><trkpt lat="42.7626883" lon="13.3762267"><ele>450.0</ele><time>2026-04-04T07:57:42.029Z</time></trkpt><trkpt lat="42.7626167" lon="13.3760633"><ele>445.0</ele><time>2026-04-04T07:57:43.029Z</time></trkpt><trkpt lat="42.762545" lon="13.3759"><ele>440.0</ele><time>2026-04-04T07:57:44.029Z</time></trkpt><trkpt lat="42.76249" lon="13.3757283"><ele>440.0</ele><time>2026-04-04T07:57:45.029Z</time></trkpt><trkpt lat="42.762445" lon="13.3755417"><ele>440.0</ele><time>2026-04-04T07:57:46.029Z</time></trkpt><trkpt lat="42.7623967" lon="13.3753633"><ele>440.0</ele><time>2026-04-04T07:57:47.029Z</time></trkpt><trkpt lat="42.762355" lon="13.3752017"><ele>440.0</ele><time>2026-04-04T07:57:48.029Z</time></trkpt><trkpt lat="42.7623083" lon="13.3750367"><ele>443.5</ele><time>2026-04-04T07:57:49.029Z</time></trkpt><trkpt lat="42.7622717" lon="13.374885"><ele>447.0</ele><time>2026-04-04T07:57:50.029Z</time></trkpt><trkpt lat="42.7622433" lon="13.374725"><ele>450.5</ele><time>2026-04-04T07:57:51.029Z</time></trkpt><trkpt lat="42.76219" lon="13.3745683"><ele>454.0</ele><time>2026-04-04T07:57:52.029Z</time></trkpt><trkpt lat="42.7621767" lon="13.374395"><ele>454.0</ele><time>2026-04-04T07:57:53.029Z</time></trkpt><trkpt lat="42.7621767" lon="13.3742233"><ele>454.0</ele><time>2026-04-04T07:57:54.029Z</time></trkpt><trkpt lat="42.7622033" lon="13.3740567"><ele>454.0</ele><time>2026-04-04T07:57:55.029Z</time></trkpt><trkpt lat="42.7622633" lon="13.3738817"><ele>454.0</ele><time>2026-04-04T07:57:56.029Z</time></trkpt><trkpt lat="42.762315" lon="13.3737283"><ele>452.2</ele><time>2026-04-04T07:57:57.029Z</time></trkpt><trkpt lat="42.7623817" lon="13.3735867"><ele>450.4</ele><time>2026-04-04T07:57:58.029Z</time></trkpt><trkpt lat="42.7624483" lon="13.3734717"><ele>448.6</ele><time>2026-04-04T07:57:59.029Z</time></trkpt><trkpt lat="42.7625183" lon="13.3733717"><ele>446.8</ele><time>2026-04-04T07:58:00.029Z</time></trkpt><trkpt lat="42.76259" lon="13.3732917"><ele>445.0</ele><time>2026-04-04T07:58:01.029Z</time></trkpt><trkpt lat="42.76266" lon="13.3732133"><ele>447.8</ele><time>2026-04-04T07:58:02.029Z</time></trkpt><trkpt lat="42.7627183" lon="13.3731317"><ele>450.6</ele><time>2026-04-04T07:58:03.029Z</time></trkpt><trkpt lat="42.7627733" lon="13.3730283"><ele>453.4</ele><time>2026-04-04T07:58:04.029Z</time></trkpt><trkpt lat="42.76282" lon="13.3728983"><ele>456.2</ele><time>2026-04-04T07:58:05.029Z</time></trkpt><trkpt lat="42.76287" lon="13.372765"><ele>459.0</ele><time>2026-04-04T07:58:06.029Z</time></trkpt><trkpt lat="42.7629283" lon="13.37263"><ele>459.0</ele><time>2026-04-04T07:58:07.029Z</time></trkpt><trkpt lat="42.7629917" lon="13.3725033"><ele>459.0</ele><time>2026-04-04T07:58:08.029Z</time></trkpt><trkpt lat="42.7630717" lon="13.37236"><ele>459.0</ele><time>2026-04-04T07:58:09.029Z</time></trkpt><trkpt lat="42.76315" lon="13.3722167"><ele>459.0</ele><time>2026-04-04T07:58:10.029Z</time></trkpt><trkpt lat="42.763215" lon="13.3720617"><ele>458.75</ele><time>2026-04-04T07:58:11.029Z</time></trkpt><trkpt lat="42.76326" lon="13.3719"><ele>458.5</ele><time>2026-04-04T07:58:12.029Z</time></trkpt><trkpt lat="42.7632867" lon="13.371725"><ele>458.25</ele><time>2026-04-04T07:58:13.029Z</time></trkpt><trkpt lat="42.7632983" lon="13.3715517"><ele>458.0</ele><time>2026-04-04T07:58:14.029Z</time></trkpt><trkpt lat="42.7632867" lon="13.3713783"><ele>459.75</ele><time>2026-04-04T07:58:15.028Z</time></trkpt><trkpt lat="42.7632667" lon="13.3711967"><ele>461.5</ele><time>2026-04-04T07:58:16.028Z</time></trkpt><trkpt lat="42.7632417" lon="13.3710383"><ele>463.25</ele><time>2026-04-04T07:58:17.029Z</time></trkpt><trkpt lat="42.763205" lon="13.3708683"><ele>465.0</ele><time>2026-04-04T07:58:18.029Z</time></trkpt><trkpt lat="42.7631633" lon="13.3707183"><ele>465.0</ele><time>2026-04-04T07:58:19.029Z</time></trkpt><trkpt lat="42.76313" lon="13.370585"><ele>465.0</ele><time>2026-04-04T07:58:20.029Z</time></trkpt><trkpt lat="42.7630883" lon="13.3704533"><ele>465.0</ele><time>2026-04-04T07:58:21.029Z</time></trkpt><trkpt lat="42.7630317" lon="13.3703233"><ele>465.0</ele><time>2026-04-04T07:58:22.029Z</time></trkpt><trkpt lat="42.76295" lon="13.37022"><ele>465.0</ele><time>2026-04-04T07:58:23.029Z</time></trkpt><trkpt lat="42.76287" lon="13.3701433"><ele>465.5</ele><time>2026-04-04T07:58:24.029Z</time></trkpt><trkpt lat="42.76276" lon="13.3701133"><ele>466.0</ele><time>2026-04-04T07:58:25.029Z</time></trkpt><trkpt lat="42.762635" lon="13.3701"><ele>466.5</ele><time>2026-04-04T07:58:26.029Z</time></trkpt><trkpt lat="42.7625217" lon="13.37011"><ele>467.0</ele><time>2026-04-04T07:58:27.029Z</time></trkpt><trkpt lat="42.762425" lon="13.370135"><ele>466.3333333333333</ele><time>2026-04-04T07:58:28.029Z</time></trkpt><trkpt lat="42.7623383" lon="13.37016"><ele>465.66666666666663</ele><time>2026-04-04T07:58:29.029Z</time></trkpt><trkpt lat="42.7622567" lon="13.3701717"><ele>465.0</ele><time>2026-04-04T07:58:30.029Z</time></trkpt><trkpt lat="42.7621833" lon="13.3701867"><ele>464.33333333333337</ele><time>2026-04-04T07:58:31.029Z</time></trkpt><trkpt lat="42.76212" lon="13.370205"><ele>463.6666666666667</ele><time>2026-04-04T07:58:32.029Z</time></trkpt><trkpt lat="42.76204" lon="13.3702267"><ele>463.0</ele><time>2026-04-04T07:58:34.029Z</time></trkpt><trkpt lat="42.76197" lon="13.3702217"><ele>463.00000000000006</ele><time>2026-04-04T07:58:37.029Z</time></trkpt><trkpt lat="42.761895" lon="13.37022"><ele>463.0</ele><time>2026-04-04T07:58:42.029Z</time></trkpt><trkpt lat="42.7618783" lon="13.3701217"><ele>463.0</ele><time>2026-04-04T08:00:36.029Z</time></trkpt><trkpt lat="42.7617817" lon="13.370175"><ele>463.0</ele><time>2026-04-04T08:00:42.029Z</time></trkpt><trkpt lat="42.7617017" lon="13.3702167"><ele>463.00000000000006</ele><time>2026-04-04T08:00:43.029Z</time></trkpt><trkpt lat="42.7616083" lon="13.37025"><ele>463.0</ele><time>2026-04-04T08:00:44.029Z</time></trkpt><trkpt lat="42.7615083" lon="13.3702817"><ele>463.50000000000006</ele><time>2026-04-04T08:00:45.029Z</time></trkpt><trkpt lat="42.761415" lon="13.3703067"><ele>464.0</ele><time>2026-04-04T08:00:46.029Z</time></trkpt><trkpt lat="42.76132" lon="13.3703333"><ele>464.5</ele><time>2026-04-04T08:00:47.029Z</time></trkpt><trkpt lat="42.76125" lon="13.3703567"><ele>465.0</ele><time>2026-04-04T08:00:48.029Z</time></trkpt><trkpt lat="42.7611817" lon="13.3703417"><ele>465.50000000000006</ele><time>2026-04-04T08:00:49.029Z</time></trkpt><trkpt lat="42.7611233" lon="13.3702883"><ele>466.0</ele><time>2026-04-04T08:00:50.029Z</time></trkpt><trkpt lat="42.7610917" lon="13.3702133"><ele>466.0</ele><time>2026-04-04T08:00:51.029Z</time></trkpt><trkpt lat="42.7610783" lon="13.37012"><ele>466.0</ele><time>2026-04-04T08:00:52.029Z</time></trkpt><trkpt lat="42.7610783" lon="13.3699983"><ele>466.0</ele><time>2026-04-04T08:00:53.029Z</time></trkpt><trkpt lat="42.7610917" lon="13.3698567"><ele>466.0</ele><time>2026-04-04T08:00:54.029Z</time></trkpt><trkpt lat="42.7611067" lon="13.3696867"><ele>466.0</ele><time>2026-04-04T08:00:55.029Z</time></trkpt><trkpt lat="42.7611217" lon="13.369505"><ele>470.75</ele><time>2026-04-04T08:00:56.029Z</time></trkpt><trkpt lat="42.761125" lon="13.36933"><ele>475.5</ele><time>2026-04-04T08:00:57.029Z</time></trkpt><trkpt lat="42.761125" lon="13.3691467"><ele>480.25</ele><time>2026-04-04T08:00:58.029Z</time></trkpt><trkpt lat="42.7611183" lon="13.3689733"><ele>485.0</ele><time>2026-04-04T08:00:59.029Z</time></trkpt><trkpt lat="42.76112" lon="13.3687967"><ele>485.0</ele><time>2026-04-04T08:01:00.029Z</time></trkpt><trkpt lat="42.761125" lon="13.36862"><ele>485.0</ele><time>2026-04-04T08:01:01.028Z</time></trkpt><trkpt lat="42.7611517" lon="13.368435"><ele>485.0</ele><time>2026-04-04T08:01:02.029Z</time></trkpt><trkpt lat="42.7611933" lon="13.36827"><ele>485.0</ele><time>2026-04-04T08:01:03.028Z</time></trkpt><trkpt lat="42.7612483" lon="13.3681283"><ele>480.0</ele><time>2026-04-04T08:01:04.029Z</time></trkpt><trkpt lat="42.7613267" lon="13.3680067"><ele>475.0</ele><time>2026-04-04T08:01:05.029Z</time></trkpt><trkpt lat="42.7614217" lon="13.3679017"><ele>470.0</ele><time>2026-04-04T08:01:06.029Z</time></trkpt><trkpt lat="42.7615217" lon="13.3678117"><ele>465.0</ele><time>2026-04-04T08:01:07.029Z</time></trkpt><trkpt lat="42.7616183" lon="13.3677017"><ele>465.0</ele><time>2026-04-04T08:01:08.029Z</time></trkpt><trkpt lat="42.7617067" lon="13.3675917"><ele>465.0</ele><time>2026-04-04T08:01:09.029Z</time></trkpt><trkpt lat="42.7617883" lon="13.3674683"><ele>465.0</ele><time>2026-04-04T08:01:10.029Z</time></trkpt><trkpt lat="42.7618517" lon="13.3673317"><ele>465.0</ele><time>2026-04-04T08:01:11.028Z</time></trkpt><trkpt lat="42.7618967" lon="13.3671883"><ele>467.5</ele><time>2026-04-04T08:01:12.029Z</time></trkpt><trkpt lat="42.7619283" lon="13.3670317"><ele>470.0</ele><time>2026-04-04T08:01:13.029Z</time></trkpt><trkpt lat="42.7619617" lon="13.3668817"><ele>472.5</ele><time>2026-04-04T08:01:14.029Z</time></trkpt><trkpt lat="42.761975" lon="13.3667267"><ele>475.0</ele><time>2026-04-04T08:01:15.029Z</time></trkpt><trkpt lat="42.7619717" lon="13.36657"><ele>475.0</ele><time>2026-04-04T08:01:16.029Z</time></trkpt><trkpt lat="42.7619533" lon="13.3664083"><ele>475.0</ele><time>2026-04-04T08:01:17.029Z</time></trkpt><trkpt lat="42.7619283" lon="13.366245"><ele>475.0</ele><time>2026-04-04T08:01:18.029Z</time></trkpt><trkpt lat="42.7619083" lon="13.36608"><ele>475.0</ele><time>2026-04-04T08:01:19.029Z</time></trkpt><trkpt lat="42.7618883" lon="13.36591"><ele>477.75</ele><time>2026-04-04T08:01:20.029Z</time></trkpt><trkpt lat="42.7618767" lon="13.3657283"><ele>480.5</ele><time>2026-04-04T08:01:21.029Z</time></trkpt><trkpt lat="42.76186" lon="13.3655533"><ele>483.25</ele><time>2026-04-04T08:01:22.029Z</time></trkpt><trkpt lat="42.7618433" lon="13.3653683"><ele>486.0</ele><time>2026-04-04T08:01:23.029Z</time></trkpt><trkpt lat="42.7618233" lon="13.3651967"><ele>483.5</ele><time>2026-04-04T08:01:24.029Z</time></trkpt><trkpt lat="42.7618067" lon="13.36503"><ele>481.0</ele><time>2026-04-04T08:01:25.029Z</time></trkpt><trkpt lat="42.7618167" lon="13.3648617"><ele>478.5</ele><time>2026-04-04T08:01:26.029Z</time></trkpt><trkpt lat="42.7618633" lon="13.3646833"><ele>476.0</ele><time>2026-04-04T08:01:27.029Z</time></trkpt><trkpt lat="42.7619283" lon="13.36453"><ele>476.0</ele><time>2026-04-04T08:01:28.029Z</time></trkpt><trkpt lat="42.7619983" lon="13.3643667"><ele>476.0</ele><time>2026-04-04T08:01:29.028Z</time></trkpt><trkpt lat="42.7620867" lon="13.3642033"><ele>476.0</ele><time>2026-04-04T08:01:30.029Z</time></trkpt><trkpt lat="42.7621767" lon="13.3640533"><ele>476.0</ele><time>2026-04-04T08:01:31.029Z</time></trkpt><trkpt lat="42.7622483" lon="13.3638883"><ele>476.3333333333333</ele><time>2026-04-04T08:01:32.029Z</time></trkpt><trkpt lat="42.7623033" lon="13.3637017"><ele>476.66666666666663</ele><time>2026-04-04T08:01:33.029Z</time></trkpt><trkpt lat="42.7623417" lon="13.3635033"><ele>477.0</ele><time>2026-04-04T08:01:34.029Z</time></trkpt><trkpt lat="42.7623583" lon="13.3632867"><ele>477.0</ele><time>2026-04-04T08:01:35.029Z</time></trkpt><trkpt lat="42.7623733" lon="13.3630683"><ele>477.0</ele><time>2026-04-04T08:01:36.029Z</time></trkpt><trkpt lat="42.7623733" lon="13.3628617"><ele>477.0</ele><time>2026-04-04T08:01:37.029Z</time></trkpt><trkpt lat="42.7623717" lon="13.3626517"><ele>477.0</ele><time>2026-04-04T08:01:38.029Z</time></trkpt><trkpt lat="42.76233" lon="13.362435"><ele>477.0</ele><time>2026-04-04T08:01:39.029Z</time></trkpt><trkpt lat="42.76228" lon="13.3622167"><ele>477.0</ele><time>2026-04-04T08:01:40.029Z</time></trkpt><trkpt lat="42.762205" lon="13.3620067"><ele>477.0</ele><time>2026-04-04T08:01:41.029Z</time></trkpt><trkpt lat="42.762135" lon="13.3617933"><ele>477.0</ele><time>2026-04-04T08:01:42.029Z</time></trkpt><trkpt lat="42.7620583" lon="13.3615983"><ele>477.0</ele><time>2026-04-04T08:01:43.029Z</time></trkpt><trkpt lat="42.7619733" lon="13.3614133"><ele>476.25</ele><time>2026-04-04T08:01:44.029Z</time></trkpt><trkpt lat="42.761915" lon="13.36124"><ele>475.5</ele><time>2026-04-04T08:01:45.029Z</time></trkpt><trkpt lat="42.7618783" lon="13.36107"><ele>474.75</ele><time>2026-04-04T08:01:46.029Z</time></trkpt><trkpt lat="42.7618683" lon="13.3609033"><ele>474.0</ele><time>2026-04-04T08:01:47.029Z</time></trkpt><trkpt lat="42.7618817" lon="13.3607383"><ele>474.0</ele><time>2026-04-04T08:01:48.029Z</time></trkpt><trkpt lat="42.7619167" lon="13.3605667"><ele>474.0</ele><time>2026-04-04T08:01:49.029Z</time></trkpt><trkpt lat="42.7619767" lon="13.360395"><ele>474.0</ele><time>2026-04-04T08:01:50.029Z</time></trkpt><trkpt lat="42.7620817" lon="13.36022"><ele>474.0</ele><time>2026-04-04T08:01:51.029Z</time></trkpt><trkpt lat="42.7621783" lon="13.3600433"><ele>471.66666666666663</ele><time>2026-04-04T08:01:52.029Z</time></trkpt><trkpt lat="42.7622983" lon="13.359885"><ele>469.3333333333333</ele><time>2026-04-04T08:01:53.029Z</time></trkpt><trkpt lat="42.7624133" lon="13.3597317"><ele>467.0</ele><time>2026-04-04T08:01:54.029Z</time></trkpt><trkpt lat="42.76252" lon="13.3595667"><ele>464.3333333333333</ele><time>2026-04-04T08:01:55.029Z</time></trkpt><trkpt lat="42.762615" lon="13.3593983"><ele>461.66666666666663</ele><time>2026-04-04T08:01:56.029Z</time></trkpt><trkpt lat="42.7626933" lon="13.3592067"><ele>459.0</ele><time>2026-04-04T08:01:57.029Z</time></trkpt><trkpt lat="42.7627483" lon="13.359"><ele>469.33333333333337</ele><time>2026-04-04T08:01:58.029Z</time></trkpt><trkpt lat="42.7628067" lon="13.3587917"><ele>479.6666666666667</ele><time>2026-04-04T08:01:59.029Z</time></trkpt><trkpt lat="42.7628717" lon="13.35857"><ele>490.0</ele><time>2026-04-04T08:02:00.028Z</time></trkpt><trkpt lat="42.762935" lon="13.3583567"><ele>490.0</ele><time>2026-04-04T08:02:01.029Z</time></trkpt><trkpt lat="42.7630017" lon="13.3581317"><ele>490.0</ele><time>2026-04-04T08:02:02.029Z</time></trkpt><trkpt lat="42.7630717" lon="13.3579117"><ele>490.0</ele><time>2026-04-04T08:02:03.029Z</time></trkpt><trkpt lat="42.7631433" lon="13.3576917"><ele>489.33333333333337</ele><time>2026-04-04T08:02:04.029Z</time></trkpt><trkpt lat="42.7631933" lon="13.357465"><ele>488.66666666666663</ele><time>2026-04-04T08:02:05.029Z</time></trkpt><trkpt lat="42.7632267" lon="13.3572533"><ele>488.0</ele><time>2026-04-04T08:02:06.029Z</time></trkpt><trkpt lat="42.7632483" lon="13.3570317"><ele>488.0</ele><time>2026-04-04T08:02:07.029Z</time></trkpt><trkpt lat="42.7632283" lon="13.35682"><ele>488.0</ele><time>2026-04-04T08:02:08.029Z</time></trkpt><trkpt lat="42.763235" lon="13.356605"><ele>488.0</ele><time>2026-04-04T08:02:09.029Z</time></trkpt><trkpt lat="42.7632367" lon="13.3563883"><ele>493.3333333333333</ele><time>2026-04-04T08:02:10.029Z</time></trkpt><trkpt lat="42.7632417" lon="13.3561633"><ele>498.66666666666663</ele><time>2026-04-04T08:02:11.029Z</time></trkpt><trkpt lat="42.7632483" lon="13.3559433"><ele>504.0</ele><time>2026-04-04T08:02:12.029Z</time></trkpt><trkpt lat="42.7632567" lon="13.35572"><ele>505.66666666666663</ele><time>2026-04-04T08:02:13.029Z</time></trkpt><trkpt lat="42.7632667" lon="13.3554983"><ele>507.3333333333333</ele><time>2026-04-04T08:02:14.029Z</time></trkpt><trkpt lat="42.7632883" lon="13.3552783"><ele>509.0</ele><time>2026-04-04T08:02:15.029Z</time></trkpt><trkpt lat="42.763305" lon="13.3550517"><ele>509.0</ele><time>2026-04-04T08:02:16.029Z</time></trkpt><trkpt lat="42.7633433" lon="13.3548317"><ele>509.0</ele><time>2026-04-04T08:02:17.029Z</time></trkpt><trkpt lat="42.763365" lon="13.3546083"><ele>509.0</ele><time>2026-04-04T08:02:18.029Z</time></trkpt><trkpt lat="42.7633933" lon="13.354425"><ele>509.0</ele><time>2026-04-04T08:02:19.029Z</time></trkpt><trkpt lat="42.7634183" lon="13.3542283"><ele>509.0</ele><time>2026-04-04T08:02:20.029Z</time></trkpt><trkpt lat="42.7634417" lon="13.3540267"><ele>509.0</ele><time>2026-04-04T08:02:21.029Z</time></trkpt><trkpt lat="42.763465" lon="13.3538217"><ele>509.0</ele><time>2026-04-04T08:02:22.029Z</time></trkpt><trkpt lat="42.764025" lon="13.3415217"><ele>517.0</ele><time>2026-04-04T08:03:18.029Z</time></trkpt><trkpt lat="42.7639767" lon="13.3412983"><ele>525.0</ele><time>2026-04-04T08:03:19.029Z</time></trkpt><trkpt lat="42.7639417" lon="13.3410533"><ele>533.0</ele><time>2026-04-04T08:03:20.029Z</time></trkpt><trkpt lat="42.7638983" lon="13.3408267"><ele>533.0</ele><time>2026-04-04T08:03:21.029Z</time></trkpt><trkpt lat="42.76385" lon="13.34063"><ele>533.0</ele><time>2026-04-04T08:03:22.029Z</time></trkpt><trkpt lat="42.7638033" lon="13.3404317"><ele>533.0</ele><time>2026-04-04T08:03:23.029Z</time></trkpt><trkpt lat="42.763775" lon="13.34023"><ele>533.5</ele><time>2026-04-04T08:03:24.028Z</time></trkpt><trkpt lat="42.7637633" lon="13.3400367"><ele>534.0</ele><time>2026-04-04T08:03:25.029Z</time></trkpt><trkpt lat="42.76377" lon="13.3398517"><ele>534.5</ele><time>2026-04-04T08:03:26.029Z</time></trkpt><trkpt lat="42.763795" lon="13.3396867"><ele>535.0</ele><time>2026-04-04T08:03:27.029Z</time></trkpt><trkpt lat="42.7638983" lon="13.33951"><ele>529.6666666666667</ele><time>2026-04-04T08:03:28.029Z</time></trkpt><trkpt lat="42.7640067" lon="13.3393467"><ele>524.3333333333334</ele><time>2026-04-04T08:03:29.029Z</time></trkpt><trkpt lat="42.7641017" lon="13.339195"><ele>519.0</ele><time>2026-04-04T08:03:30.028Z</time></trkpt><trkpt lat="42.764195" lon="13.3390217"><ele>516.0</ele><time>2026-04-04T08:03:31.029Z</time></trkpt><trkpt lat="42.7642917" lon="13.3388333"><ele>513.0</ele><time>2026-04-04T08:03:32.029Z</time></trkpt><trkpt lat="42.764375" lon="13.33865"><ele>510.0</ele><time>2026-04-04T08:03:33.029Z</time></trkpt><trkpt lat="42.7644567" lon="13.3384717"><ele>512.75</ele><time>2026-04-04T08:03:34.029Z</time></trkpt><trkpt lat="42.76453" lon="13.3382983"><ele>515.5</ele><time>2026-04-04T08:03:35.029Z</time></trkpt><trkpt lat="42.764605" lon="13.3381283"><ele>518.25</ele><time>2026-04-04T08:03:36.029Z</time></trkpt><trkpt lat="42.76468" lon="13.3379733"><ele>521.0</ele><time>2026-04-04T08:03:37.029Z</time></trkpt><trkpt lat="42.7647533" lon="13.337815"><ele>521.0</ele><time>2026-04-04T08:03:38.028Z</time></trkpt><trkpt lat="42.76482" lon="13.3376667"><ele>521.0</ele><time>2026-04-04T08:03:39.028Z</time></trkpt><trkpt lat="42.76489" lon="13.3375067"><ele>521.0</ele><time>2026-04-04T08:03:40.029Z</time></trkpt><trkpt lat="42.7649617" lon="13.3373517"><ele>521.0</ele><time>2026-04-04T08:03:41.029Z</time></trkpt><trkpt lat="42.7650317" lon="13.337195"><ele>518.75</ele><time>2026-04-04T08:03:42.029Z</time></trkpt><trkpt lat="42.7650917" lon="13.33704"><ele>516.5</ele><time>2026-04-04T08:03:43.029Z</time></trkpt><trkpt lat="42.76513" lon="13.336885"><ele>514.25</ele><time>2026-04-04T08:03:44.028Z</time></trkpt><trkpt lat="42.7651533" lon="13.3367133"><ele>512.0</ele><time>2026-04-04T08:03:45.029Z</time></trkpt><trkpt lat="42.7651633" lon="13.3365433"><ele>513.0</ele><time>2026-04-04T08:03:46.029Z</time></trkpt><trkpt lat="42.7651583" lon="13.3363533"><ele>514.0</ele><time>2026-04-04T08:03:47.029Z</time></trkpt><trkpt lat="42.7651383" lon="13.336155"><ele>515.0</ele><time>2026-04-04T08:03:48.029Z</time></trkpt><trkpt lat="42.7651117" lon="13.3359383"><ele>516.0</ele><time>2026-04-04T08:03:49.029Z</time></trkpt><trkpt lat="42.7650883" lon="13.3357083"><ele>520.0</ele><time>2026-04-04T08:03:50.029Z</time></trkpt><trkpt lat="42.7650667" lon="13.335465"><ele>524.0</ele><time>2026-04-04T08:03:51.029Z</time></trkpt><trkpt lat="42.7650417" lon="13.3352183"><ele>528.0</ele><time>2026-04-04T08:03:52.029Z</time></trkpt><trkpt lat="42.7650117" lon="13.334975"><ele>528.0</ele><time>2026-04-04T08:03:53.029Z</time></trkpt><trkpt lat="42.7649833" lon="13.334735"><ele>528.0</ele><time>2026-04-04T08:03:54.029Z</time></trkpt><trkpt lat="42.7649583" lon="13.3345"><ele>528.0</ele><time>2026-04-04T08:03:55.029Z</time></trkpt><trkpt lat="42.76493" lon="13.334265"><ele>529.6666666666666</ele><time>2026-04-04T08:03:56.029Z</time></trkpt><trkpt lat="42.7648983" lon="13.334045"><ele>531.3333333333333</ele><time>2026-04-04T08:03:57.029Z</time></trkpt><trkpt lat="42.7648683" lon="13.3338183"><ele>533.0</ele><time>2026-04-04T08:03:58.028Z</time></trkpt><trkpt lat="42.764855" lon="13.3335917"><ele>534.3333333333333</ele><time>2026-04-04T08:03:59.029Z</time></trkpt><trkpt lat="42.764865" lon="13.3333567"><ele>535.6666666666666</ele><time>2026-04-04T08:04:00.029Z</time></trkpt><trkpt lat="42.764895" lon="13.3331217"><ele>537.0</ele><time>2026-04-04T08:04:01.029Z</time></trkpt><trkpt lat="42.7649067" lon="13.3328817"><ele>537.0</ele><time>2026-04-04T08:04:02.029Z</time></trkpt><trkpt lat="42.7649083" lon="13.3326383"><ele>537.0</ele><time>2026-04-04T08:04:03.028Z</time></trkpt><trkpt lat="42.7648967" lon="13.3323917"><ele>537.0</ele><time>2026-04-04T08:04:04.029Z</time></trkpt><trkpt lat="42.76487" lon="13.3321667"><ele>535.0</ele><time>2026-04-04T08:04:05.029Z</time></trkpt><trkpt lat="42.764855" lon="13.3319567"><ele>533.0</ele><time>2026-04-04T08:04:06.029Z</time></trkpt><trkpt lat="42.76486" lon="13.33176"><ele>531.0</ele><time>2026-04-04T08:04:07.029Z</time></trkpt><trkpt lat="42.7648933" lon="13.3315967"><ele>529.0</ele><time>2026-04-04T08:04:08.029Z</time></trkpt><trkpt lat="42.7649633" lon="13.3314467"><ele>529.5</ele><time>2026-04-04T08:04:09.029Z</time></trkpt><trkpt lat="42.765065" lon="13.33133"><ele>530.0</ele><time>2026-04-04T08:04:10.029Z</time></trkpt><trkpt lat="42.76518" lon="13.33121"><ele>530.5</ele><time>2026-04-04T08:04:11.029Z</time></trkpt><trkpt lat="42.7653017" lon="13.331095"><ele>531.0</ele><time>2026-04-04T08:04:12.029Z</time></trkpt><trkpt lat="42.76543" lon="13.3309633"><ele>533.6666666666666</ele><time>2026-04-04T08:04:13.029Z</time></trkpt><trkpt lat="42.7655733" lon="13.3308267"><ele>536.3333333333333</ele><time>2026-04-04T08:04:14.029Z</time></trkpt><trkpt lat="42.765715" lon="13.330685"><ele>539.0</ele><time>2026-04-04T08:04:15.029Z</time></trkpt><trkpt lat="42.7658567" lon="13.3305367"><ele>539.0</ele><time>2026-04-04T08:04:16.029Z</time></trkpt><trkpt lat="42.7659867" lon="13.3303917"><ele>539.0</ele><time>2026-04-04T08:04:17.029Z</time></trkpt><trkpt lat="42.76611" lon="13.3302417"><ele>539.0</ele><time>2026-04-04T08:04:18.029Z</time></trkpt><trkpt lat="42.76622" lon="13.3301017"><ele>541.25</ele><time>2026-04-04T08:04:19.028Z</time></trkpt><trkpt lat="42.7663033" lon="13.3299617"><ele>543.5</ele><time>2026-04-04T08:04:20.029Z</time></trkpt><trkpt lat="42.7663667" lon="13.3298033"><ele>545.75</ele><time>2026-04-04T08:04:21.029Z</time></trkpt><trkpt lat="42.7664233" lon="13.32963"><ele>548.0</ele><time>2026-04-04T08:04:22.029Z</time></trkpt><trkpt lat="42.7664633" lon="13.3294317"><ele>548.0</ele><time>2026-04-04T08:04:23.029Z</time></trkpt><trkpt lat="42.76648" lon="13.3292017"><ele>548.0</ele><time>2026-04-04T08:04:24.029Z</time></trkpt><trkpt lat="42.7664833" lon="13.328975"><ele>548.0</ele><time>2026-04-04T08:04:25.029Z</time></trkpt><trkpt lat="42.7664917" lon="13.3287533"><ele>548.0</ele><time>2026-04-04T08:04:26.029Z</time></trkpt><trkpt lat="42.7665217" lon="13.3285467"><ele>548.0</ele><time>2026-04-04T08:04:27.028Z</time></trkpt><trkpt lat="42.76657" lon="13.3283517"><ele>548.0</ele><time>2026-04-04T08:04:28.029Z</time></trkpt><trkpt lat="42.7666517" lon="13.32817"><ele>550.6666666666666</ele><time>2026-04-04T08:04:29.029Z</time></trkpt><trkpt lat="42.7667483" lon="13.3279917"><ele>553.3333333333334</ele><time>2026-04-04T08:04:30.029Z</time></trkpt><trkpt lat="42.7668683" lon="13.3278"><ele>556.0</ele><time>2026-04-04T08:04:31.029Z</time></trkpt><trkpt lat="42.76699" lon="13.327615"><ele>558.3333333333334</ele><time>2026-04-04T08:04:32.029Z</time></trkpt><trkpt lat="42.76712" lon="13.3274383"><ele>560.6666666666666</ele><time>2026-04-04T08:04:33.029Z</time></trkpt><trkpt lat="42.767255" lon="13.3272783"><ele>563.0</ele><time>2026-04-04T08:04:34.029Z</time></trkpt><trkpt lat="42.7674" lon="13.3271317"><ele>563.0</ele><time>2026-04-04T08:04:35.028Z</time></trkpt><trkpt lat="42.7675483" lon="13.3270017"><ele>563.0</ele><time>2026-04-04T08:04:36.029Z</time></trkpt><trkpt lat="42.7677033" lon="13.3269"><ele>563.0</ele><time>2026-04-04T08:04:37.029Z</time></trkpt><trkpt lat="42.767855" lon="13.3267967"><ele>565.0</ele><time>2026-04-04T08:04:38.029Z</time></trkpt><trkpt lat="42.7680017" lon="13.3266767"><ele>567.0</ele><time>2026-04-04T08:04:39.028Z</time></trkpt><trkpt lat="42.7681383" lon="13.3265267"><ele>569.0</ele><time>2026-04-04T08:04:40.029Z</time></trkpt><trkpt lat="42.7682583" lon="13.326365"><ele>569.0</ele><time>2026-04-04T08:04:41.029Z</time></trkpt><trkpt lat="42.7683583" lon="13.3261867"><ele>569.0</ele><time>2026-04-04T08:04:42.029Z</time></trkpt><trkpt lat="42.768455" lon="13.3259883"><ele>569.0</ele><time>2026-04-04T08:04:43.029Z</time></trkpt><trkpt lat="42.7685367" lon="13.3257833"><ele>575.3333333333333</ele><time>2026-04-04T08:04:44.028Z</time></trkpt><trkpt lat="42.768615" lon="13.325575"><ele>581.6666666666666</ele><time>2026-04-04T08:04:45.029Z</time></trkpt><trkpt lat="42.7686983" lon="13.32539"><ele>588.0</ele><time>2026-04-04T08:04:46.029Z</time></trkpt><trkpt lat="42.7688" lon="13.3252133"><ele>588.0</ele><time>2026-04-04T08:04:47.029Z</time></trkpt><trkpt lat="42.7689067" lon="13.3250667"><ele>588.0</ele><time>2026-04-04T08:04:48.029Z</time></trkpt><trkpt lat="42.7690333" lon="13.324935"><ele>588.0</ele><time>2026-04-04T08:04:49.029Z</time></trkpt><trkpt lat="42.7691717" lon="13.3248033"><ele>589.0</ele><time>2026-04-04T08:04:50.028Z</time></trkpt><trkpt lat="42.7693233" lon="13.3246683"><ele>590.0</ele><time>2026-04-04T08:04:51.029Z</time></trkpt><trkpt lat="42.76946" lon="13.32451"><ele>591.0</ele><time>2026-04-04T08:04:52.029Z</time></trkpt><trkpt lat="42.76959" lon="13.3243333"><ele>589.3333333333334</ele><time>2026-04-04T08:04:53.029Z</time></trkpt><trkpt lat="42.76971" lon="13.32416"><ele>587.6666666666667</ele><time>2026-04-04T08:04:54.029Z</time></trkpt><trkpt lat="42.7698183" lon="13.323985"><ele>586.0</ele><time>2026-04-04T08:04:55.029Z</time></trkpt><trkpt lat="42.76992" lon="13.3238183"><ele>586.0</ele><time>2026-04-04T08:04:56.029Z</time></trkpt><trkpt lat="42.7700067" lon="13.3236483"><ele>586.0</ele><time>2026-04-04T08:04:57.029Z</time></trkpt><trkpt lat="42.7700767" lon="13.32347"><ele>586.0</ele><time>2026-04-04T08:04:58.029Z</time></trkpt><trkpt lat="42.77013" lon="13.3232783"><ele>586.0</ele><time>2026-04-04T08:04:59.029Z</time></trkpt><trkpt lat="42.770155" lon="13.32307"><ele>586.0</ele><time>2026-04-04T08:05:00.029Z</time></trkpt><trkpt lat="42.7701583" lon="13.322845"><ele>586.0</ele><time>2026-04-04T08:05:01.029Z</time></trkpt><trkpt lat="42.7701483" lon="13.3226083"><ele>585.3333333333334</ele><time>2026-04-04T08:05:02.029Z</time></trkpt><trkpt lat="42.77014" lon="13.3223633"><ele>584.6666666666666</ele><time>2026-04-04T08:05:03.029Z</time></trkpt><trkpt lat="42.7701283" lon="13.3221283"><ele>584.0</ele><time>2026-04-04T08:05:04.029Z</time></trkpt><trkpt lat="42.7701167" lon="13.3218917"><ele>587.6666666666666</ele><time>2026-04-04T08:05:05.029Z</time></trkpt><trkpt lat="42.7701017" lon="13.321665"><ele>591.3333333333334</ele><time>2026-04-04T08:05:06.029Z</time></trkpt><trkpt lat="42.7700967" lon="13.3214533"><ele>595.0</ele><time>2026-04-04T08:05:07.029Z</time></trkpt><trkpt lat="42.77011" lon="13.321255"><ele>595.0</ele><time>2026-04-04T08:05:08.029Z</time></trkpt><trkpt lat="42.7701367" lon="13.3210633"><ele>595.0</ele><time>2026-04-04T08:05:09.029Z</time></trkpt><trkpt lat="42.7701683" lon="13.3208867"><ele>595.0</ele><time>2026-04-04T08:05:10.029Z</time></trkpt><trkpt lat="42.770215" lon="13.3207217"><ele>595.0</ele><time>2026-04-04T08:05:11.029Z</time></trkpt><trkpt lat="42.7702883" lon="13.3205367"><ele>600.0</ele><time>2026-04-04T08:05:12.029Z</time></trkpt><trkpt lat="42.7703683" lon="13.320355"><ele>605.0</ele><time>2026-04-04T08:05:13.029Z</time></trkpt><trkpt lat="42.7704683" lon="13.32017"><ele>610.0</ele><time>2026-04-04T08:05:14.029Z</time></trkpt><trkpt lat="42.770555" lon="13.3200133"><ele>610.0</ele><time>2026-04-04T08:05:15.029Z</time></trkpt><trkpt lat="42.7706367" lon="13.3198483"><ele>610.0</ele><time>2026-04-04T08:05:16.029Z</time></trkpt><trkpt lat="42.7707267" lon="13.3196817"><ele>610.0</ele><time>2026-04-04T08:05:17.029Z</time></trkpt><trkpt lat="42.7708217" lon="13.3195133"><ele>613.6666666666667</ele><time>2026-04-04T08:05:18.029Z</time></trkpt><trkpt lat="42.7709183" lon="13.319335"><ele>617.3333333333334</ele><time>2026-04-04T08:05:19.029Z</time></trkpt><trkpt lat="42.7710167" lon="13.3191633"><ele>621.0</ele><time>2026-04-04T08:05:20.029Z</time></trkpt><trkpt lat="42.7711117" lon="13.3189867"><ele>613.6666666666666</ele><time>2026-04-04T08:05:21.029Z</time></trkpt><trkpt lat="42.7712017" lon="13.3188117"><ele>606.3333333333333</ele><time>2026-04-04T08:05:22.028Z</time></trkpt><trkpt lat="42.7712833" lon="13.3186317"><ele>599.0</ele><time>2026-04-04T08:05:23.029Z</time></trkpt><trkpt lat="42.7713683" lon="13.3184667"><ele>599.0</ele><time>2026-04-04T08:05:24.029Z</time></trkpt><trkpt lat="42.7714417" lon="13.3182983"><ele>599.0</ele><time>2026-04-04T08:05:25.029Z</time></trkpt><trkpt lat="42.7715217" lon="13.318135"><ele>599.0</ele><time>2026-04-04T08:05:26.029Z</time></trkpt><trkpt lat="42.7716017" lon="13.3179983"><ele>599.0</ele><time>2026-04-04T08:05:27.029Z</time></trkpt><trkpt lat="42.771675" lon="13.31786"><ele>600.5</ele><time>2026-04-04T08:05:28.029Z</time></trkpt><trkpt lat="42.7717433" lon="13.317725"><ele>602.0</ele><time>2026-04-04T08:05:29.029Z</time></trkpt><trkpt lat="42.7718133" lon="13.3175983"><ele>603.5</ele><time>2026-04-04T08:05:30.029Z</time></trkpt><trkpt lat="42.7718817" lon="13.3174667"><ele>605.0</ele><time>2026-04-04T08:05:31.029Z</time></trkpt><trkpt lat="42.7719383" lon="13.3173417"><ele>603.1666666666666</ele><time>2026-04-04T08:05:32.029Z</time></trkpt><trkpt lat="42.7719983" lon="13.3172217"><ele>601.3333333333333</ele><time>2026-04-04T08:05:33.029Z</time></trkpt><trkpt lat="42.77205" lon="13.3171183"><ele>599.5</ele><time>2026-04-04T08:05:34.029Z</time></trkpt><trkpt lat="42.7721033" lon="13.317025"><ele>597.6666666666666</ele><time>2026-04-04T08:05:35.029Z</time></trkpt><trkpt lat="42.7721467" lon="13.3169333"><ele>595.8333333333334</ele><time>2026-04-04T08:05:36.029Z</time></trkpt><trkpt lat="42.7721867" lon="13.3168517"><ele>594.0</ele><time>2026-04-04T08:05:37.029Z</time></trkpt><trkpt lat="42.77223" lon="13.3167767"><ele>594.0</ele><time>2026-04-04T08:05:38.029Z</time></trkpt><trkpt lat="42.7722967" lon="13.3166633"><ele>594.0</ele><time>2026-04-04T08:05:40.029Z</time></trkpt><trkpt lat="42.7723383" lon="13.3165817"><ele>594.0</ele><time>2026-04-04T08:05:43.029Z</time></trkpt><trkpt lat="42.7723917" lon="13.3164433"><ele>594.0</ele><time>2026-04-04T08:05:55.029Z</time></trkpt><trkpt lat="42.7724617" lon="13.31633"><ele>594.0</ele><time>2026-04-04T08:05:57.029Z</time></trkpt><trkpt lat="42.7725283" lon="13.3162233"><ele>593.8</ele><time>2026-04-04T08:05:59.029Z</time></trkpt><trkpt lat="42.7726" lon="13.316145"><ele>593.5999999999999</ele><time>2026-04-04T08:06:01.029Z</time></trkpt><trkpt lat="42.77267" lon="13.316085"><ele>593.4</ele><time>2026-04-04T08:06:03.029Z</time></trkpt><trkpt lat="42.7727717" lon="13.3160517"><ele>593.1999999999999</ele><time>2026-04-04T08:06:05.029Z</time></trkpt><trkpt lat="42.77289" lon="13.3160683"><ele>593.0</ele><time>2026-04-04T08:06:07.029Z</time></trkpt><trkpt lat="42.7729567" lon="13.3160917"><ele>593.0</ele><time>2026-04-04T08:06:08.029Z</time></trkpt><trkpt lat="42.7730267" lon="13.3161167"><ele>593.0</ele><time>2026-04-04T08:06:09.028Z</time></trkpt><trkpt lat="42.7730967" lon="13.3161433"><ele>593.0</ele><time>2026-04-04T08:06:10.029Z</time></trkpt><trkpt lat="42.773165" lon="13.316175"><ele>593.0</ele><time>2026-04-04T08:06:11.028Z</time></trkpt><trkpt lat="42.7732317" lon="13.3162083"><ele>593.0</ele><time>2026-04-04T08:06:12.029Z</time></trkpt><trkpt lat="42.7733117" lon="13.316235"><ele>593.0</ele><time>2026-04-04T08:06:13.028Z</time></trkpt><trkpt lat="42.7733917" lon="13.31627"><ele>593.0</ele><time>2026-04-04T08:06:14.029Z</time></trkpt><trkpt lat="42.7734783" lon="13.3162783"><ele>593.0</ele><time>2026-04-04T08:06:15.029Z</time></trkpt><trkpt lat="42.7735583" lon="13.3162633"><ele>593.0</ele><time>2026-04-04T08:06:16.029Z</time></trkpt><trkpt lat="42.7736467" lon="13.3162383"><ele>593.0</ele><time>2026-04-04T08:06:17.029Z</time></trkpt><trkpt lat="42.77372" lon="13.31618"><ele>593.0</ele><time>2026-04-04T08:06:18.029Z</time></trkpt><trkpt lat="42.77379" lon="13.316105"><ele>593.0</ele><time>2026-04-04T08:06:19.029Z</time></trkpt><trkpt lat="42.7738483" lon="13.3160083"><ele>596.6</ele><time>2026-04-04T08:06:20.029Z</time></trkpt><trkpt lat="42.7738967" lon="13.3158933"><ele>600.1999999999999</ele><time>2026-04-04T08:06:21.029Z</time></trkpt><trkpt lat="42.7739383" lon="13.3157533"><ele>603.8</ele><time>2026-04-04T08:06:22.029Z</time></trkpt><trkpt lat="42.7739717" lon="13.315615"><ele>607.4</ele><time>2026-04-04T08:06:23.029Z</time></trkpt><trkpt lat="42.77401" lon="13.31547"><ele>611.0</ele><time>2026-04-04T08:06:24.029Z</time></trkpt><trkpt lat="42.77405" lon="13.3153283"><ele>611.0</ele><time>2026-04-04T08:06:25.029Z</time></trkpt><trkpt lat="42.774085" lon="13.3151817"><ele>611.0</ele><time>2026-04-04T08:06:26.029Z</time></trkpt><trkpt lat="42.774115" lon="13.3150433"><ele>611.0</ele><time>2026-04-04T08:06:27.028Z</time></trkpt><trkpt lat="42.774145" lon="13.3149117"><ele>611.0</ele><time>2026-04-04T08:06:28.029Z</time></trkpt><trkpt lat="42.7741717" lon="13.3147833"><ele>611.0</ele><time>2026-04-04T08:06:29.029Z</time></trkpt><trkpt lat="42.7741933" lon="13.3146567"><ele>610.3333333333333</ele><time>2026-04-04T08:06:30.029Z</time></trkpt><trkpt lat="42.7742183" lon="13.31454"><ele>609.6666666666666</ele><time>2026-04-04T08:06:31.029Z</time></trkpt><trkpt lat="42.7742367" lon="13.31443"><ele>609.0</ele><time>2026-04-04T08:06:32.029Z</time></trkpt><trkpt lat="42.7742567" lon="13.314325"><ele>608.3333333333334</ele><time>2026-04-04T08:06:33.029Z</time></trkpt><trkpt lat="42.7742783" lon="13.3142233"><ele>607.6666666666667</ele><time>2026-04-04T08:06:34.029Z</time></trkpt><trkpt lat="42.7743017" lon="13.3141233"><ele>607.0</ele><time>2026-04-04T08:06:35.029Z</time></trkpt><trkpt lat="42.7743317" lon="13.3140033"><ele>612.2</ele><time>2026-04-04T08:06:36.029Z</time></trkpt><trkpt lat="42.774365" lon="13.3138683"><ele>617.4000000000001</ele><time>2026-04-04T08:06:37.029Z</time></trkpt><trkpt lat="42.7743917" lon="13.3137367"><ele>622.5999999999999</ele><time>2026-04-04T08:06:38.029Z</time></trkpt><trkpt lat="42.7744233" lon="13.313605"><ele>627.8</ele><time>2026-04-04T08:06:39.029Z</time></trkpt><trkpt lat="42.77446" lon="13.3134717"><ele>633.0</ele><time>2026-04-04T08:06:40.029Z</time></trkpt><trkpt lat="42.7744967" lon="13.3133333"><ele>633.0</ele><time>2026-04-04T08:06:41.028Z</time></trkpt><trkpt lat="42.77453" lon="13.31319"><ele>633.0</ele><time>2026-04-04T08:06:42.029Z</time></trkpt><trkpt lat="42.7745667" lon="13.3130417"><ele>633.0</ele><time>2026-04-04T08:06:43.029Z</time></trkpt><trkpt lat="42.774605" lon="13.3128983"><ele>633.0</ele><time>2026-04-04T08:06:44.029Z</time></trkpt><trkpt lat="42.7746333" lon="13.31276"><ele>633.0</ele><time>2026-04-04T08:06:45.029Z</time></trkpt><trkpt lat="42.774655" lon="13.31262"><ele>631.1999999999999</ele><time>2026-04-04T08:06:46.029Z</time></trkpt><trkpt lat="42.7746767" lon="13.312475"><ele>629.4</ele><time>2026-04-04T08:06:47.029Z</time></trkpt><trkpt lat="42.774705" lon="13.3123383"><ele>627.5999999999999</ele><time>2026-04-04T08:06:48.029Z</time></trkpt><trkpt lat="42.7747333" lon="13.3122117"><ele>625.8</ele><time>2026-04-04T08:06:49.029Z</time></trkpt><trkpt lat="42.7747567" lon="13.3120833"><ele>624.0</ele><time>2026-04-04T08:06:50.029Z</time></trkpt><trkpt lat="42.7747783" lon="13.3119667"><ele>622.5</ele><time>2026-04-04T08:06:51.029Z</time></trkpt><trkpt lat="42.774795" lon="13.3118483"><ele>621.0</ele><time>2026-04-04T08:06:52.029Z</time></trkpt><trkpt lat="42.7748017" lon="13.311725"><ele>619.5</ele><time>2026-04-04T08:06:53.028Z</time></trkpt><trkpt lat="42.7748" lon="13.3116033"><ele>618.0</ele><time>2026-04-04T08:06:54.029Z</time></trkpt><trkpt lat="42.7748" lon="13.3115017"><ele>616.5</ele><time>2026-04-04T08:06:55.029Z</time></trkpt><trkpt lat="42.7747883" lon="13.31138"><ele>615.0</ele><time>2026-04-04T08:06:57.028Z</time></trkpt><trkpt lat="42.7747967" lon="13.311255"><ele>614.2</ele><time>2026-04-04T08:06:59.029Z</time></trkpt><trkpt lat="42.7748117" lon="13.31112"><ele>613.4</ele><time>2026-04-04T08:07:01.029Z</time></trkpt><trkpt lat="42.774835" lon="13.3109267"><ele>612.6</ele><time>2026-04-04T08:07:03.029Z</time></trkpt><trkpt lat="42.77485" lon="13.31081"><ele>611.8</ele><time>2026-04-04T08:07:04.029Z</time></trkpt><trkpt lat="42.7748717" lon="13.31071"><ele>611.0</ele><time>2026-04-04T08:07:05.029Z</time></trkpt><trkpt lat="42.7748883" lon="13.3106033"><ele>609.8</ele><time>2026-04-04T08:07:06.029Z</time></trkpt><trkpt lat="42.7749117" lon="13.31047"><ele>608.6</ele><time>2026-04-04T08:07:07.029Z</time></trkpt><trkpt lat="42.7749333" lon="13.3103333"><ele>607.4</ele><time>2026-04-04T08:07:08.029Z</time></trkpt><trkpt lat="42.77495" lon="13.3101933"><ele>606.2</ele><time>2026-04-04T08:07:09.029Z</time></trkpt><trkpt lat="42.7749717" lon="13.3100617"><ele>605.0</ele><time>2026-04-04T08:07:10.028Z</time></trkpt><trkpt lat="42.7749817" lon="13.3099167"><ele>605.0</ele><time>2026-04-04T08:07:11.029Z</time></trkpt><trkpt lat="42.77499" lon="13.3097633"><ele>605.0</ele><time>2026-04-04T08:07:12.029Z</time></trkpt><trkpt lat="42.7749917" lon="13.3096117"><ele>605.0</ele><time>2026-04-04T08:07:13.029Z</time></trkpt><trkpt lat="42.7749883" lon="13.309455"><ele>605.0</ele><time>2026-04-04T08:07:14.029Z</time></trkpt><trkpt lat="42.7749917" lon="13.3092867"><ele>604.75</ele><time>2026-04-04T08:07:15.029Z</time></trkpt><trkpt lat="42.77499" lon="13.30912"><ele>604.5</ele><time>2026-04-04T08:07:16.029Z</time></trkpt><trkpt lat="42.77499" lon="13.308955"><ele>604.25</ele><time>2026-04-04T08:07:17.028Z</time></trkpt><trkpt lat="42.7749833" lon="13.3087833"><ele>604.0</ele><time>2026-04-04T08:07:18.029Z</time></trkpt><trkpt lat="42.7749833" lon="13.308605"><ele>603.75</ele><time>2026-04-04T08:07:19.029Z</time></trkpt><trkpt lat="42.7749867" lon="13.3084133"><ele>603.5</ele><time>2026-04-04T08:07:20.029Z</time></trkpt><trkpt lat="42.7749783" lon="13.30821"><ele>603.25</ele><time>2026-04-04T08:07:21.029Z</time></trkpt><trkpt lat="42.7749617" lon="13.3079983"><ele>603.0</ele><time>2026-04-04T08:07:22.029Z</time></trkpt><trkpt lat="42.77494" lon="13.3077833"><ele>604.3333333333334</ele><time>2026-04-04T08:07:23.029Z</time></trkpt><trkpt lat="42.7749033" lon="13.3075517"><ele>605.6666666666667</ele><time>2026-04-04T08:07:24.029Z</time></trkpt><trkpt lat="42.774875" lon="13.3073433"><ele>607.0</ele><time>2026-04-04T08:07:25.029Z</time></trkpt><trkpt lat="42.7748467" lon="13.307135"><ele>609.3333333333334</ele><time>2026-04-04T08:07:26.029Z</time></trkpt><trkpt lat="42.7748083" lon="13.30692"><ele>611.6666666666666</ele><time>2026-04-04T08:07:27.029Z</time></trkpt><trkpt lat="42.774775" lon="13.306695"><ele>614.0</ele><time>2026-04-04T08:07:28.029Z</time></trkpt><trkpt lat="42.774745" lon="13.3064667"><ele>619.3333333333333</ele><time>2026-04-04T08:07:29.029Z</time></trkpt><trkpt lat="42.7747067" lon="13.3062417"><ele>624.6666666666666</ele><time>2026-04-04T08:07:30.029Z</time></trkpt><trkpt lat="42.77465" lon="13.306025"><ele>630.0</ele><time>2026-04-04T08:07:31.029Z</time></trkpt><trkpt lat="42.7746233" lon="13.3058017"><ele>634.6666666666666</ele><time>2026-04-04T08:07:32.029Z</time></trkpt><trkpt lat="42.77458" lon="13.3055783"><ele>639.3333333333333</ele><time>2026-04-04T08:07:33.028Z</time></trkpt><trkpt lat="42.77454" lon="13.3053483"><ele>644.0</ele><time>2026-04-04T08:07:34.029Z</time></trkpt><trkpt lat="42.774485" lon="13.3051183"><ele>644.0</ele><time>2026-04-04T08:07:35.029Z</time></trkpt><trkpt lat="42.7744233" lon="13.30489"><ele>644.0</ele><time>2026-04-04T08:07:36.029Z</time></trkpt><trkpt lat="42.7743467" lon="13.3046633"><ele>644.0</ele><time>2026-04-04T08:07:37.029Z</time></trkpt><trkpt lat="42.7742583" lon="13.3044383"><ele>641.6666666666666</ele><time>2026-04-04T08:07:38.029Z</time></trkpt><trkpt lat="42.7741667" lon="13.304215"><ele>639.3333333333334</ele><time>2026-04-04T08:07:39.029Z</time></trkpt><trkpt lat="42.774065" lon="13.3039917"><ele>637.0</ele><time>2026-04-04T08:07:40.029Z</time></trkpt><trkpt lat="42.773955" lon="13.3037733"><ele>637.0</ele><time>2026-04-04T08:07:41.029Z</time></trkpt><trkpt lat="42.7738367" lon="13.30356"><ele>637.0</ele><time>2026-04-04T08:07:42.029Z</time></trkpt><trkpt lat="42.7737117" lon="13.3033567"><ele>637.0</ele><time>2026-04-04T08:07:43.029Z</time></trkpt><trkpt lat="42.773585" lon="13.3031567"><ele>634.3333333333334</ele><time>2026-04-04T08:07:44.029Z</time></trkpt><trkpt lat="42.773455" lon="13.3029567"><ele>631.6666666666666</ele><time>2026-04-04T08:07:45.029Z</time></trkpt><trkpt lat="42.7733333" lon="13.3027467"><ele>629.0</ele><time>2026-04-04T08:07:46.029Z</time></trkpt><trkpt lat="42.7732033" lon="13.3025483"><ele>629.0</ele><time>2026-04-04T08:07:47.029Z</time></trkpt><trkpt lat="42.7730733" lon="13.30236"><ele>629.0</ele><time>2026-04-04T08:07:48.029Z</time></trkpt><trkpt lat="42.772955" lon="13.3021533"><ele>629.0</ele><time>2026-04-04T08:07:49.029Z</time></trkpt><trkpt lat="42.772835" lon="13.3019567"><ele>626.3333333333333</ele><time>2026-04-04T08:07:50.029Z</time></trkpt><trkpt lat="42.7727367" lon="13.3017383"><ele>623.6666666666666</ele><time>2026-04-04T08:07:51.029Z</time></trkpt><trkpt lat="42.7726433" lon="13.3015183"><ele>621.0</ele><time>2026-04-04T08:07:52.029Z</time></trkpt><trkpt lat="42.7725733" lon="13.3013067"><ele>621.0</ele><time>2026-04-04T08:07:53.029Z</time></trkpt><trkpt lat="42.7725167" lon="13.3010933"><ele>621.0</ele><time>2026-04-04T08:07:54.029Z</time></trkpt><trkpt lat="42.772475" lon="13.3008633"><ele>621.0</ele><time>2026-04-04T08:07:55.029Z</time></trkpt><trkpt lat="42.7724383" lon="13.300645"><ele>623.0</ele><time>2026-04-04T08:07:56.029Z</time></trkpt><trkpt lat="42.7724133" lon="13.3004183"><ele>625.0</ele><time>2026-04-04T08:07:57.029Z</time></trkpt><trkpt lat="42.77238" lon="13.3001967"><ele>627.0</ele><time>2026-04-04T08:07:58.029Z</time></trkpt><trkpt lat="42.7723583" lon="13.2999633"><ele>629.3333333333334</ele><time>2026-04-04T08:07:59.029Z</time></trkpt><trkpt lat="42.7723267" lon="13.2997467"><ele>631.6666666666667</ele><time>2026-04-04T08:08:00.029Z</time></trkpt><trkpt lat="42.7722867" lon="13.2995233"><ele>634.0</ele><time>2026-04-04T08:08:01.029Z</time></trkpt><trkpt lat="42.7722333" lon="13.29931"><ele>634.0</ele><time>2026-04-04T08:08:02.029Z</time></trkpt><trkpt lat="42.7721683" lon="13.2990917"><ele>634.0</ele><time>2026-04-04T08:08:03.029Z</time></trkpt><trkpt lat="42.7720983" lon="13.298875"><ele>634.0</ele><time>2026-04-04T08:08:04.029Z</time></trkpt><trkpt lat="42.7720133" lon="13.2986617"><ele>632.6666666666667</ele><time>2026-04-04T08:08:05.029Z</time></trkpt><trkpt lat="42.7719183" lon="13.2984567"><ele>631.3333333333334</ele><time>2026-04-04T08:08:06.029Z</time></trkpt><trkpt lat="42.771815" lon="13.2982667"><ele>630.0</ele><time>2026-04-04T08:08:07.029Z</time></trkpt><trkpt lat="42.7716933" lon="13.2980783"><ele>637.0</ele><time>2026-04-04T08:08:08.029Z</time></trkpt><trkpt lat="42.77157" lon="13.2978917"><ele>644.0</ele><time>2026-04-04T08:08:09.029Z</time></trkpt><trkpt lat="42.7714433" lon="13.297705"><ele>651.0</ele><time>2026-04-04T08:08:10.029Z</time></trkpt><trkpt lat="42.7713117" lon="13.29752"><ele>651.0</ele><time>2026-04-04T08:08:11.029Z</time></trkpt><trkpt lat="42.77118" lon="13.2973317"><ele>651.0</ele><time>2026-04-04T08:08:12.029Z</time></trkpt><trkpt lat="42.77105" lon="13.29714"><ele>651.0</ele><time>2026-04-04T08:08:13.028Z</time></trkpt><trkpt lat="42.7709133" lon="13.296945"><ele>648.6666666666666</ele><time>2026-04-04T08:08:14.029Z</time></trkpt><trkpt lat="42.770795" lon="13.296735"><ele>646.3333333333333</ele><time>2026-04-04T08:08:15.029Z</time></trkpt><trkpt lat="42.7706817" lon="13.2965117"><ele>644.0</ele><time>2026-04-04T08:08:16.029Z</time></trkpt><trkpt lat="42.7705783" lon="13.2962933"><ele>644.0</ele><time>2026-04-04T08:08:17.029Z</time></trkpt><trkpt lat="42.7704767" lon="13.296075"><ele>644.0</ele><time>2026-04-04T08:08:18.029Z</time></trkpt><trkpt lat="42.77039" lon="13.2958367"><ele>644.0</ele><time>2026-04-04T08:08:19.029Z</time></trkpt><trkpt lat="42.7703067" lon="13.2955983"><ele>643.0</ele><time>2026-04-04T08:08:20.029Z</time></trkpt><trkpt lat="42.77021" lon="13.2953817"><ele>642.0</ele><time>2026-04-04T08:08:21.029Z</time></trkpt><trkpt lat="42.770115" lon="13.2951633"><ele>641.0</ele><time>2026-04-04T08:08:22.029Z</time></trkpt><trkpt lat="42.7700183" lon="13.2949433"><ele>636.3333333333333</ele><time>2026-04-04T08:08:23.029Z</time></trkpt><trkpt lat="42.7699133" lon="13.29473"><ele>631.6666666666666</ele><time>2026-04-04T08:08:24.029Z</time></trkpt><trkpt lat="42.7698033" lon="13.2945167"><ele>627.0</ele><time>2026-04-04T08:08:25.029Z</time></trkpt><trkpt lat="42.7696883" lon="13.2943067"><ele>627.0</ele><time>2026-04-04T08:08:26.029Z</time></trkpt><trkpt lat="42.7695683" lon="13.2940983"><ele>627.0</ele><time>2026-04-04T08:08:27.029Z</time></trkpt><trkpt lat="42.76945" lon="13.2938883"><ele>627.0</ele><time>2026-04-04T08:08:28.029Z</time></trkpt><trkpt lat="42.7693267" lon="13.293685"><ele>627.6666666666666</ele><time>2026-04-04T08:08:29.028Z</time></trkpt><trkpt lat="42.7692067" lon="13.2934783"><ele>628.3333333333333</ele><time>2026-04-04T08:08:30.028Z</time></trkpt><trkpt lat="42.7690783" lon="13.293275"><ele>629.0</ele><time>2026-04-04T08:08:31.029Z</time></trkpt><trkpt lat="42.76895" lon="13.29308"><ele>636.0</ele><time>2026-04-04T08:08:32.029Z</time></trkpt><trkpt lat="42.76882" lon="13.2928833"><ele>643.0</ele><time>2026-04-04T08:08:33.028Z</time></trkpt><trkpt lat="42.7686917" lon="13.292685"><ele>650.0</ele><time>2026-04-04T08:08:34.029Z</time></trkpt><trkpt lat="42.7685633" lon="13.2924933"><ele>651.6666666666666</ele><time>2026-04-04T08:08:35.029Z</time></trkpt><trkpt lat="42.7684417" lon="13.2922967"><ele>653.3333333333334</ele><time>2026-04-04T08:08:36.029Z</time></trkpt><trkpt lat="42.76832" lon="13.292105"><ele>655.0</ele><time>2026-04-04T08:08:37.029Z</time></trkpt><trkpt lat="42.7681983" lon="13.2919083"><ele>655.0</ele><time>2026-04-04T08:08:38.03Z</time></trkpt><trkpt lat="42.7680733" lon="13.2917183"><ele>655.0</ele><time>2026-04-04T08:08:39.03Z</time></trkpt><trkpt lat="42.7679483" lon="13.2915167"><ele>655.0</ele><time>2026-04-04T08:08:40.03Z</time></trkpt><trkpt lat="42.7678233" lon="13.291315"><ele>650.0</ele><time>2026-04-04T08:08:41.03Z</time></trkpt><trkpt lat="42.7677083" lon="13.2910983"><ele>645.0</ele><time>2026-04-04T08:08:42.03Z</time></trkpt><trkpt lat="42.76758" lon="13.2908883"><ele>640.0</ele><time>2026-04-04T08:08:43.03Z</time></trkpt><trkpt lat="42.7674433" lon="13.290685"><ele>643.3333333333334</ele><time>2026-04-04T08:08:44.03Z</time></trkpt><trkpt lat="42.7673067" lon="13.2904767"><ele>646.6666666666666</ele><time>2026-04-04T08:08:45.03Z</time></trkpt><trkpt lat="42.76718" lon="13.290255"><ele>650.0</ele><time>2026-04-04T08:08:46.03Z</time></trkpt><trkpt lat="42.767045" lon="13.29005"><ele>650.0</ele><time>2026-04-04T08:08:47.03Z</time></trkpt><trkpt lat="42.766915" lon="13.28985"><ele>650.0</ele><time>2026-04-04T08:08:48.029Z</time></trkpt><trkpt lat="42.766785" lon="13.28964"><ele>650.0</ele><time>2026-04-04T08:08:49.03Z</time></trkpt><trkpt lat="42.7666517" lon="13.2894433"><ele>648.0</ele><time>2026-04-04T08:08:50.03Z</time></trkpt><trkpt lat="42.76651" lon="13.2892583"><ele>646.0</ele><time>2026-04-04T08:08:51.03Z</time></trkpt><trkpt lat="42.7663633" lon="13.2890717"><ele>644.0</ele><time>2026-04-04T08:08:52.03Z</time></trkpt><trkpt lat="42.7662167" lon="13.2888833"><ele>643.6666666666666</ele><time>2026-04-04T08:08:53.03Z</time></trkpt><trkpt lat="42.766065" lon="13.288705"><ele>643.3333333333334</ele><time>2026-04-04T08:08:54.029Z</time></trkpt><trkpt lat="42.7658983" lon="13.2885333"><ele>643.0</ele><time>2026-04-04T08:08:55.03Z</time></trkpt><trkpt lat="42.7657433" lon="13.2883683"><ele>643.0</ele><time>2026-04-04T08:08:56.03Z</time></trkpt><trkpt lat="42.76557" lon="13.2882"><ele>643.0</ele><time>2026-04-04T08:08:57.03Z</time></trkpt><trkpt lat="42.765395" lon="13.2880333"><ele>643.0</ele><time>2026-04-04T08:08:58.03Z</time></trkpt><trkpt lat="42.765225" lon="13.2878717"><ele>643.0</ele><time>2026-04-04T08:08:59.03Z</time></trkpt><trkpt lat="42.7650533" lon="13.2877133"><ele>643.0</ele><time>2026-04-04T08:09:00.03Z</time></trkpt><trkpt lat="42.7648833" lon="13.287555"><ele>643.0</ele><time>2026-04-04T08:09:01.03Z</time></trkpt><trkpt lat="42.7647183" lon="13.2873917"><ele>641.6666666666667</ele><time>2026-04-04T08:09:02.029Z</time></trkpt><trkpt lat="42.76455" lon="13.2872333"><ele>640.3333333333334</ele><time>2026-04-04T08:09:03.03Z</time></trkpt><trkpt lat="42.76438" lon="13.2870833"><ele>639.0</ele><time>2026-04-04T08:09:04.03Z</time></trkpt><trkpt lat="42.76421" lon="13.2869233"><ele>639.0</ele><time>2026-04-04T08:09:05.03Z</time></trkpt><trkpt lat="42.7640467" lon="13.2867567"><ele>639.0</ele><time>2026-04-04T08:09:06.03Z</time></trkpt><trkpt lat="42.7638833" lon="13.2865967"><ele>639.0</ele><time>2026-04-04T08:09:07.03Z</time></trkpt><trkpt lat="42.76372" lon="13.2864533"><ele>639.6666666666666</ele><time>2026-04-04T08:09:08.03Z</time></trkpt><trkpt lat="42.7635467" lon="13.2863167"><ele>640.3333333333333</ele><time>2026-04-04T08:09:09.03Z</time></trkpt><trkpt lat="42.7633633" lon="13.286195"><ele>641.0</ele><time>2026-04-04T08:09:10.03Z</time></trkpt><trkpt lat="42.76318" lon="13.2860967"><ele>641.0</ele><time>2026-04-04T08:09:11.03Z</time></trkpt><trkpt lat="42.763005" lon="13.2860033"><ele>641.0</ele><time>2026-04-04T08:09:12.03Z</time></trkpt><trkpt lat="42.7628133" lon="13.2859133"><ele>641.0</ele><time>2026-04-04T08:09:13.03Z</time></trkpt><trkpt lat="42.7626083" lon="13.2858283"><ele>641.0</ele><time>2026-04-04T08:09:14.03Z</time></trkpt><trkpt lat="42.7624267" lon="13.2857583"><ele>641.0</ele><time>2026-04-04T08:09:15.03Z</time></trkpt><trkpt lat="42.7622367" lon="13.2856933"><ele>641.0</ele><time>2026-04-04T08:09:16.03Z</time></trkpt><trkpt lat="42.76204" lon="13.2856283"><ele>643.6666666666666</ele><time>2026-04-04T08:09:17.03Z</time></trkpt><trkpt lat="42.761845" lon="13.2855733"><ele>646.3333333333334</ele><time>2026-04-04T08:09:18.03Z</time></trkpt><trkpt lat="42.76165" lon="13.285515"><ele>649.0</ele><time>2026-04-04T08:09:19.03Z</time></trkpt><trkpt lat="42.7614467" lon="13.2854483"><ele>649.0</ele><time>2026-04-04T08:09:20.03Z</time></trkpt><trkpt lat="42.76124" lon="13.28539"><ele>649.0</ele><time>2026-04-04T08:09:21.03Z</time></trkpt><trkpt lat="42.76104" lon="13.285335"><ele>649.0</ele><time>2026-04-04T08:09:22.03Z</time></trkpt><trkpt lat="42.760845" lon="13.2852733"><ele>648.3333333333334</ele><time>2026-04-04T08:09:23.03Z</time></trkpt><trkpt lat="42.7606467" lon="13.2852033"><ele>647.6666666666666</ele><time>2026-04-04T08:09:24.03Z</time></trkpt><trkpt lat="42.7604533" lon="13.2851417"><ele>647.0</ele><time>2026-04-04T08:09:25.03Z</time></trkpt><trkpt lat="42.7602533" lon="13.2850733"><ele>645.6666666666666</ele><time>2026-04-04T08:09:26.03Z</time></trkpt><trkpt lat="42.760055" lon="13.2850067"><ele>644.3333333333334</ele><time>2026-04-04T08:09:27.03Z</time></trkpt><trkpt lat="42.759865" lon="13.2849083"><ele>643.0</ele><time>2026-04-04T08:09:28.03Z</time></trkpt><trkpt lat="42.759685" lon="13.2848067"><ele>646.0</ele><time>2026-04-04T08:09:29.03Z</time></trkpt><trkpt lat="42.759495" lon="13.2846867"><ele>649.0</ele><time>2026-04-04T08:09:30.03Z</time></trkpt><trkpt lat="42.7593117" lon="13.284565"><ele>652.0</ele><time>2026-04-04T08:09:31.03Z</time></trkpt><trkpt lat="42.7591417" lon="13.2844183"><ele>652.0</ele><time>2026-04-04T08:09:32.03Z</time></trkpt><trkpt lat="42.75897" lon="13.284265"><ele>652.0</ele><time>2026-04-04T08:09:33.03Z</time></trkpt><trkpt lat="42.7587983" lon="13.2841067"><ele>652.0</ele><time>2026-04-04T08:09:34.03Z</time></trkpt><trkpt lat="42.7586267" lon="13.2839433"><ele>650.0</ele><time>2026-04-04T08:09:35.03Z</time></trkpt><trkpt lat="42.75846" lon="13.28379"><ele>648.0</ele><time>2026-04-04T08:09:36.03Z</time></trkpt><trkpt lat="42.7582933" lon="13.283625"><ele>646.0</ele><time>2026-04-04T08:09:37.03Z</time></trkpt><trkpt lat="42.7581267" lon="13.28346"><ele>646.0</ele><time>2026-04-04T08:09:38.03Z</time></trkpt><trkpt lat="42.7579583" lon="13.28329"><ele>646.0</ele><time>2026-04-04T08:09:39.03Z</time></trkpt><trkpt lat="42.7577983" lon="13.2831183"><ele>646.0</ele><time>2026-04-04T08:09:40.03Z</time></trkpt><trkpt lat="42.7576283" lon="13.2829533"><ele>645.6666666666667</ele><time>2026-04-04T08:09:41.03Z</time></trkpt><trkpt lat="42.75745" lon="13.2828017"><ele>645.3333333333334</ele><time>2026-04-04T08:09:42.03Z</time></trkpt><trkpt lat="42.7572717" lon="13.282655"><ele>645.0</ele><time>2026-04-04T08:09:43.03Z</time></trkpt><trkpt lat="42.7570967" lon="13.2825233"><ele>645.0</ele><time>2026-04-04T08:09:44.03Z</time></trkpt><trkpt lat="42.7569183" lon="13.2824"><ele>645.0</ele><time>2026-04-04T08:09:45.029Z</time></trkpt><trkpt lat="42.7567367" lon="13.2822917"><ele>645.0</ele><time>2026-04-04T08:09:46.03Z</time></trkpt><trkpt lat="42.7565633" lon="13.2821833"><ele>647.0</ele><time>2026-04-04T08:09:47.03Z</time></trkpt><trkpt lat="42.7563876" lon="13.2820732"><ele>649.0</ele><time>2026-04-04T08:09:48.03Z</time></trkpt><trkpt lat="42.7562133" lon="13.2819477"><ele>651.0</ele><time>2026-04-04T08:09:49.03Z</time></trkpt><trkpt lat="42.7560462" lon="13.2817995"><ele>652.3333333333334</ele><time>2026-04-04T08:09:50.03Z</time></trkpt><trkpt lat="42.7558847" lon="13.2816391"><ele>653.6666666666667</ele><time>2026-04-04T08:09:51.03Z</time></trkpt><trkpt lat="42.7557295" lon="13.2814657"><ele>655.0</ele><time>2026-04-04T08:09:52.029Z</time></trkpt><trkpt lat="42.7555872" lon="13.2812722"><ele>661.0</ele><time>2026-04-04T08:09:53.03Z</time></trkpt><trkpt lat="42.7554554" lon="13.2810639"><ele>667.0</ele><time>2026-04-04T08:09:54.03Z</time></trkpt><trkpt lat="42.7553447" lon="13.2808374"><ele>673.0</ele><time>2026-04-04T08:09:55.03Z</time></trkpt><trkpt lat="42.7552492" lon="13.2805938"><ele>667.3333333333334</ele><time>2026-04-04T08:09:56.029Z</time></trkpt><trkpt lat="42.7551716" lon="13.2803352"><ele>661.6666666666666</ele><time>2026-04-04T08:09:57.03Z</time></trkpt><trkpt lat="42.7551127" lon="13.2800716"><ele>656.0</ele><time>2026-04-04T08:09:58.03Z</time></trkpt><trkpt lat="42.7550684" lon="13.2797965"><ele>659.0</ele><time>2026-04-04T08:09:59.03Z</time></trkpt><trkpt lat="42.7550146" lon="13.2795436"><ele>662.0</ele><time>2026-04-04T08:10:00.03Z</time></trkpt><trkpt lat="42.7549564" lon="13.2792789"><ele>665.0</ele><time>2026-04-04T08:10:01.03Z</time></trkpt><trkpt lat="42.7548924" lon="13.2790191"><ele>668.6666666666666</ele><time>2026-04-04T08:10:02.03Z</time></trkpt><trkpt lat="42.7548212" lon="13.2787637"><ele>672.3333333333334</ele><time>2026-04-04T08:10:03.03Z</time></trkpt><trkpt lat="42.7547388" lon="13.2785175"><ele>676.0</ele><time>2026-04-04T08:10:04.03Z</time></trkpt><trkpt lat="42.7546439" lon="13.2782862"><ele>678.6666666666667</ele><time>2026-04-04T08:10:05.03Z</time></trkpt><trkpt lat="42.7545376" lon="13.2780611"><ele>681.3333333333334</ele><time>2026-04-04T08:10:06.029Z</time></trkpt><trkpt lat="42.7544101" lon="13.277857"><ele>684.0</ele><time>2026-04-04T08:10:07.03Z</time></trkpt><trkpt lat="42.7542713" lon="13.2776653"><ele>684.3333333333334</ele><time>2026-04-04T08:10:08.029Z</time></trkpt><trkpt lat="42.7541208" lon="13.2774845"><ele>684.6666666666667</ele><time>2026-04-04T08:10:09.03Z</time></trkpt><trkpt lat="42.7539523" lon="13.2773249"><ele>685.0</ele><time>2026-04-04T08:10:10.03Z</time></trkpt><trkpt lat="42.7537842" lon="13.2771637"><ele>685.0</ele><time>2026-04-04T08:10:11.03Z</time></trkpt><trkpt lat="42.7536055" lon="13.2770165"><ele>685.0</ele><time>2026-04-04T08:10:12.03Z</time></trkpt><trkpt lat="42.7534302" lon="13.2768685"><ele>685.0</ele><time>2026-04-04T08:10:13.03Z</time></trkpt><trkpt lat="42.7532597" lon="13.2767184"><ele>686.3333333333334</ele><time>2026-04-04T08:10:14.029Z</time></trkpt><trkpt lat="42.7530971" lon="13.2765649"><ele>687.6666666666666</ele><time>2026-04-04T08:10:15.03Z</time></trkpt><trkpt lat="42.752933" lon="13.276405"><ele>689.0</ele><time>2026-04-04T08:10:16.03Z</time></trkpt><trkpt lat="42.7527729" lon="13.2762406"><ele>681.3333333333333</ele><time>2026-04-04T08:10:17.03Z</time></trkpt><trkpt lat="42.7526152" lon="13.2760697"><ele>673.6666666666666</ele><time>2026-04-04T08:10:18.03Z</time></trkpt><trkpt lat="42.7524658" lon="13.275894"><ele>666.0</ele><time>2026-04-04T08:10:19.03Z</time></trkpt><trkpt lat="42.7523253" lon="13.2757031"><ele>670.3333333333334</ele><time>2026-04-04T08:10:20.03Z</time></trkpt><trkpt lat="42.7521967" lon="13.27549"><ele>674.6666666666667</ele><time>2026-04-04T08:10:21.029Z</time></trkpt><trkpt lat="42.7520733" lon="13.27527"><ele>679.0</ele><time>2026-04-04T08:10:22.03Z</time></trkpt><trkpt lat="42.7519417" lon="13.2750533"><ele>672.6666666666667</ele><time>2026-04-04T08:10:23.03Z</time></trkpt><trkpt lat="42.7518167" lon="13.2748283"><ele>666.3333333333334</ele><time>2026-04-04T08:10:24.03Z</time></trkpt><trkpt lat="42.7516967" lon="13.2745967"><ele>660.0</ele><time>2026-04-04T08:10:25.03Z</time></trkpt><trkpt lat="42.7515767" lon="13.2743733"><ele>660.0</ele><time>2026-04-04T08:10:26.03Z</time></trkpt><trkpt lat="42.7514567" lon="13.2741517"><ele>660.0</ele><time>2026-04-04T08:10:27.03Z</time></trkpt><trkpt lat="42.7513367" lon="13.2739283"><ele>660.0</ele><time>2026-04-04T08:10:28.03Z</time></trkpt><trkpt lat="42.7512167" lon="13.2737017"><ele>659.6666666666666</ele><time>2026-04-04T08:10:29.029Z</time></trkpt><trkpt lat="42.751095" lon="13.2734783"><ele>659.3333333333333</ele><time>2026-04-04T08:10:30.03Z</time></trkpt><trkpt lat="42.7509733" lon="13.2732667"><ele>659.0</ele><time>2026-04-04T08:10:31.03Z</time></trkpt><trkpt lat="42.7508583" lon="13.2730433"><ele>664.6666666666666</ele><time>2026-04-04T08:10:32.03Z</time></trkpt><trkpt lat="42.7507333" lon="13.2728417"><ele>670.3333333333334</ele><time>2026-04-04T08:10:33.03Z</time></trkpt><trkpt lat="42.7506067" lon="13.2726533"><ele>676.0</ele><time>2026-04-04T08:10:34.03Z</time></trkpt><trkpt lat="42.7504583" lon="13.2724683"><ele>676.0</ele><time>2026-04-04T08:10:35.03Z</time></trkpt><trkpt lat="42.75032" lon="13.2722917"><ele>676.0</ele><time>2026-04-04T08:10:36.03Z</time></trkpt><trkpt lat="42.750165" lon="13.2721267"><ele>676.0</ele><time>2026-04-04T08:10:37.03Z</time></trkpt><trkpt lat="42.75" lon="13.2719733"><ele>678.6666666666667</ele><time>2026-04-04T08:10:38.03Z</time></trkpt><trkpt lat="42.7498267" lon="13.271835"><ele>681.3333333333334</ele><time>2026-04-04T08:10:39.03Z</time></trkpt><trkpt lat="42.749655" lon="13.27169"><ele>684.0</ele><time>2026-04-04T08:10:40.03Z</time></trkpt><trkpt lat="42.74947" lon="13.27156"><ele>685.6666666666666</ele><time>2026-04-04T08:10:41.03Z</time></trkpt><trkpt lat="42.7492867" lon="13.2714333"><ele>687.3333333333333</ele><time>2026-04-04T08:10:42.03Z</time></trkpt><trkpt lat="42.7491033" lon="13.2712983"><ele>689.0</ele><time>2026-04-04T08:10:43.03Z</time></trkpt><trkpt lat="42.74892" lon="13.271165"><ele>689.0</ele><time>2026-04-04T08:10:44.03Z</time></trkpt><trkpt lat="42.74874" lon="13.2710333"><ele>689.0</ele><time>2026-04-04T08:10:45.03Z</time></trkpt><trkpt lat="42.74857" lon="13.2709017"><ele>689.0</ele><time>2026-04-04T08:10:46.03Z</time></trkpt><trkpt lat="42.7483967" lon="13.27077"><ele>690.6666666666666</ele><time>2026-04-04T08:10:47.03Z</time></trkpt><trkpt lat="42.7482367" lon="13.2706433"><ele>692.3333333333334</ele><time>2026-04-04T08:10:48.03Z</time></trkpt><trkpt lat="42.74807" lon="13.27051"><ele>694.0</ele><time>2026-04-04T08:10:49.03Z</time></trkpt><trkpt lat="42.7479067" lon="13.270385"><ele>694.0</ele><time>2026-04-04T08:10:50.03Z</time></trkpt><trkpt lat="42.74775" lon="13.2702567"><ele>694.0</ele><time>2026-04-04T08:10:51.03Z</time></trkpt><trkpt lat="42.7475883" lon="13.270135"><ele>694.0</ele><time>2026-04-04T08:10:52.029Z</time></trkpt><trkpt lat="42.747435" lon="13.26999"><ele>691.3333333333334</ele><time>2026-04-04T08:10:53.03Z</time></trkpt><trkpt lat="42.74728" lon="13.269855"><ele>688.6666666666666</ele><time>2026-04-04T08:10:54.03Z</time></trkpt><trkpt lat="42.7471183" lon="13.2697117"><ele>686.0</ele><time>2026-04-04T08:10:55.03Z</time></trkpt><trkpt lat="42.746975" lon="13.2695433"><ele>678.3333333333333</ele><time>2026-04-04T08:10:56.03Z</time></trkpt><trkpt lat="42.7468267" lon="13.2693817"><ele>670.6666666666666</ele><time>2026-04-04T08:10:57.03Z</time></trkpt><trkpt lat="42.746675" lon="13.2692117"><ele>663.0</ele><time>2026-04-04T08:10:58.03Z</time></trkpt><trkpt lat="42.7465267" lon="13.2690383"><ele>668.6666666666666</ele><time>2026-04-04T08:10:59.03Z</time></trkpt><trkpt lat="42.7463717" lon="13.26887"><ele>674.3333333333333</ele><time>2026-04-04T08:11:00.03Z</time></trkpt><trkpt lat="42.7462117" lon="13.268705"><ele>680.0</ele><time>2026-04-04T08:11:01.03Z</time></trkpt><trkpt lat="42.7460517" lon="13.26854"><ele>680.3333333333333</ele><time>2026-04-04T08:11:02.03Z</time></trkpt><trkpt lat="42.745885" lon="13.2683717"><ele>680.6666666666666</ele><time>2026-04-04T08:11:03.03Z</time></trkpt><trkpt lat="42.74572" lon="13.268195"><ele>681.0</ele><time>2026-04-04T08:11:04.029Z</time></trkpt><trkpt lat="42.7455533" lon="13.2680233"><ele>681.0</ele><time>2026-04-04T08:11:05.029Z</time></trkpt><trkpt lat="42.7453817" lon="13.26786"><ele>681.0</ele><time>2026-04-04T08:11:06.03Z</time></trkpt><trkpt lat="42.7452167" lon="13.267695"><ele>681.0</ele><time>2026-04-04T08:11:07.03Z</time></trkpt><trkpt lat="42.7450483" lon="13.2675267"><ele>683.0</ele><time>2026-04-04T08:11:08.03Z</time></trkpt><trkpt lat="42.7448783" lon="13.2673733"><ele>685.0</ele><time>2026-04-04T08:11:09.029Z</time></trkpt><trkpt lat="42.7447033" lon="13.26723"><ele>687.0</ele><time>2026-04-04T08:11:10.03Z</time></trkpt><trkpt lat="42.7445233" lon="13.2670817"><ele>681.3333333333334</ele><time>2026-04-04T08:11:11.03Z</time></trkpt><trkpt lat="42.74435" lon="13.26694"><ele>675.6666666666667</ele><time>2026-04-04T08:11:12.03Z</time></trkpt><trkpt lat="42.744175" lon="13.2668067"><ele>670.0</ele><time>2026-04-04T08:11:13.03Z</time></trkpt><trkpt lat="42.7439983" lon="13.266675"><ele>670.0</ele><time>2026-04-04T08:11:14.03Z</time></trkpt><trkpt lat="42.7438183" lon="13.2665433"><ele>670.0</ele><time>2026-04-04T08:11:15.03Z</time></trkpt><trkpt lat="42.7436317" lon="13.2664017"><ele>670.0</ele><time>2026-04-04T08:11:16.029Z</time></trkpt><trkpt lat="42.7434417" lon="13.2662767"><ele>671.6666666666667</ele><time>2026-04-04T08:11:17.03Z</time></trkpt><trkpt lat="42.7432533" lon="13.26615"><ele>673.3333333333334</ele><time>2026-04-04T08:11:18.03Z</time></trkpt><trkpt lat="42.743075" lon="13.2660267"><ele>675.0</ele><time>2026-04-04T08:11:19.03Z</time></trkpt><trkpt lat="42.7428733" lon="13.2659233"><ele>673.3333333333334</ele><time>2026-04-04T08:11:20.03Z</time></trkpt><trkpt lat="42.7426917" lon="13.26579"><ele>671.6666666666667</ele><time>2026-04-04T08:11:21.03Z</time></trkpt><trkpt lat="42.742495" lon="13.2656917"><ele>670.0</ele><time>2026-04-04T08:11:22.03Z</time></trkpt><trkpt lat="42.7423067" lon="13.265575"><ele>672.0</ele><time>2026-04-04T08:11:23.03Z</time></trkpt><trkpt lat="42.7421133" lon="13.2654767"><ele>674.0</ele><time>2026-04-04T08:11:24.03Z</time></trkpt><trkpt lat="42.741925" lon="13.2653767"><ele>676.0</ele><time>2026-04-04T08:11:25.03Z</time></trkpt><trkpt lat="42.7417283" lon="13.265285"><ele>676.0</ele><time>2026-04-04T08:11:26.03Z</time></trkpt><trkpt lat="42.7415267" lon="13.2651917"><ele>676.0</ele><time>2026-04-04T08:11:27.03Z</time></trkpt><trkpt lat="42.7413333" lon="13.2651017"><ele>676.0</ele><time>2026-04-04T08:11:28.03Z</time></trkpt><trkpt lat="42.7411367" lon="13.2650233"><ele>674.3333333333334</ele><time>2026-04-04T08:11:29.03Z</time></trkpt><trkpt lat="42.7409367" lon="13.26494"><ele>672.6666666666666</ele><time>2026-04-04T08:11:30.03Z</time></trkpt><trkpt lat="42.7407333" lon="13.2648783"><ele>671.0</ele><time>2026-04-04T08:11:31.03Z</time></trkpt><trkpt lat="42.74052" lon="13.2648267"><ele>672.3333333333333</ele><time>2026-04-04T08:11:32.03Z</time></trkpt><trkpt lat="42.7403067" lon="13.2647783"><ele>673.6666666666666</ele><time>2026-04-04T08:11:33.03Z</time></trkpt><trkpt lat="42.7400883" lon="13.2647433"><ele>675.0</ele><time>2026-04-04T08:11:34.03Z</time></trkpt><trkpt lat="42.7398767" lon="13.26471"><ele>675.0</ele><time>2026-04-04T08:11:35.03Z</time></trkpt><trkpt lat="42.7396683" lon="13.2646717"><ele>675.0</ele><time>2026-04-04T08:11:36.03Z</time></trkpt><trkpt lat="42.7394533" lon="13.26465"><ele>675.0</ele><time>2026-04-04T08:11:37.03Z</time></trkpt><trkpt lat="42.7392417" lon="13.2646317"><ele>674.3333333333334</ele><time>2026-04-04T08:11:38.03Z</time></trkpt><trkpt lat="42.73903" lon="13.2646233"><ele>673.6666666666667</ele><time>2026-04-04T08:11:39.03Z</time></trkpt><trkpt lat="42.7388217" lon="13.264625"><ele>673.0</ele><time>2026-04-04T08:11:40.03Z</time></trkpt><trkpt lat="42.7386117" lon="13.2646383"><ele>672.3333333333334</ele><time>2026-04-04T08:11:41.03Z</time></trkpt><trkpt lat="42.7383967" lon="13.26466"><ele>671.6666666666666</ele><time>2026-04-04T08:11:42.03Z</time></trkpt><trkpt lat="42.7381933" lon="13.2646783"><ele>671.0</ele><time>2026-04-04T08:11:43.03Z</time></trkpt><trkpt lat="42.7379983" lon="13.2646967"><ele>671.0</ele><time>2026-04-04T08:11:44.029Z</time></trkpt><trkpt lat="42.7378217" lon="13.264725"><ele>671.0</ele><time>2026-04-04T08:11:45.029Z</time></trkpt><trkpt lat="42.7376533" lon="13.2647583"><ele>671.0</ele><time>2026-04-04T08:11:46.03Z</time></trkpt><trkpt lat="42.7375" lon="13.264805"><ele>672.0</ele><time>2026-04-04T08:11:47.03Z</time></trkpt><trkpt lat="42.7373583" lon="13.2648467"><ele>673.0</ele><time>2026-04-04T08:11:48.03Z</time></trkpt><trkpt lat="42.7372217" lon="13.2648883"><ele>674.0</ele><time>2026-04-04T08:11:49.03Z</time></trkpt><trkpt lat="42.7370967" lon="13.2649283"><ele>675.0</ele><time>2026-04-04T08:11:50.03Z</time></trkpt><trkpt lat="42.7369817" lon="13.2649417"><ele>675.8</ele><time>2026-04-04T08:11:51.03Z</time></trkpt><trkpt lat="42.7368833" lon="13.2649133"><ele>676.6</ele><time>2026-04-04T08:11:52.03Z</time></trkpt><trkpt lat="42.7367833" lon="13.26488"><ele>677.4000000000001</ele><time>2026-04-04T08:11:53.03Z</time></trkpt><trkpt lat="42.736695" lon="13.2648617"><ele>678.2</ele><time>2026-04-04T08:11:54.03Z</time></trkpt><trkpt lat="42.7366067" lon="13.2648867"><ele>679.0</ele><time>2026-04-04T08:11:55.03Z</time></trkpt><trkpt lat="42.7365317" lon="13.2649467"><ele>679.0</ele><time>2026-04-04T08:11:56.03Z</time></trkpt><trkpt lat="42.7364633" lon="13.26504"><ele>679.0</ele><time>2026-04-04T08:11:57.03Z</time></trkpt><trkpt lat="42.73639" lon="13.2651367"><ele>679.0</ele><time>2026-04-04T08:11:58.03Z</time></trkpt><trkpt lat="42.7362967" lon="13.2652117"><ele>679.0</ele><time>2026-04-04T08:11:59.03Z</time></trkpt><trkpt lat="42.7361817" lon="13.265285"><ele>679.0</ele><time>2026-04-04T08:12:00.03Z</time></trkpt><trkpt lat="42.736065" lon="13.2653467"><ele>679.25</ele><time>2026-04-04T08:12:01.03Z</time></trkpt><trkpt lat="42.7359417" lon="13.2654133"><ele>679.5</ele><time>2026-04-04T08:12:02.03Z</time></trkpt><trkpt lat="42.7358117" lon="13.2654817"><ele>679.75</ele><time>2026-04-04T08:12:03.03Z</time></trkpt><trkpt lat="42.73568" lon="13.2655517"><ele>680.0</ele><time>2026-04-04T08:12:04.03Z</time></trkpt><trkpt lat="42.7355467" lon="13.2656333"><ele>680.3333333333333</ele><time>2026-04-04T08:12:05.03Z</time></trkpt><trkpt lat="42.7354117" lon="13.2657267"><ele>680.6666666666666</ele><time>2026-04-04T08:12:06.03Z</time></trkpt><trkpt lat="42.735275" lon="13.2658217"><ele>681.0</ele><time>2026-04-04T08:12:07.03Z</time></trkpt><trkpt lat="42.7351283" lon="13.26592"><ele>681.6666666666666</ele><time>2026-04-04T08:12:08.029Z</time></trkpt><trkpt lat="42.7349833" lon="13.2660333"><ele>682.3333333333333</ele><time>2026-04-04T08:12:09.03Z</time></trkpt><trkpt lat="42.7348367" lon="13.2661383"><ele>683.0</ele><time>2026-04-04T08:12:10.03Z</time></trkpt><trkpt lat="42.7346883" lon="13.26625"><ele>683.0</ele><time>2026-04-04T08:12:11.03Z</time></trkpt><trkpt lat="42.7345533" lon="13.266365"><ele>683.0</ele><time>2026-04-04T08:12:12.03Z</time></trkpt><trkpt lat="42.7344133" lon="13.2664833"><ele>683.0</ele><time>2026-04-04T08:12:13.03Z</time></trkpt><trkpt lat="42.7342817" lon="13.2665983"><ele>683.6666666666666</ele><time>2026-04-04T08:12:14.03Z</time></trkpt><trkpt lat="42.734145" lon="13.2667317"><ele>684.3333333333334</ele><time>2026-04-04T08:12:15.03Z</time></trkpt><trkpt lat="42.7340183" lon="13.266865"><ele>685.0</ele><time>2026-04-04T08:12:16.03Z</time></trkpt><trkpt lat="42.7338867" lon="13.2670133"><ele>685.0</ele><time>2026-04-04T08:12:17.03Z</time></trkpt><trkpt lat="42.7337583" lon="13.26716"><ele>685.0</ele><time>2026-04-04T08:12:18.03Z</time></trkpt><trkpt lat="42.733625" lon="13.2673067"><ele>685.0</ele><time>2026-04-04T08:12:19.03Z</time></trkpt><trkpt lat="42.73349" lon="13.26746"><ele>685.3333333333334</ele><time>2026-04-04T08:12:20.03Z</time></trkpt><trkpt lat="42.7333617" lon="13.2676133"><ele>685.6666666666666</ele><time>2026-04-04T08:12:21.03Z</time></trkpt><trkpt lat="42.73323" lon="13.26778"><ele>686.0</ele><time>2026-04-04T08:12:22.03Z</time></trkpt><trkpt lat="42.733095" lon="13.2679383"><ele>686.0</ele><time>2026-04-04T08:12:23.03Z</time></trkpt><trkpt lat="42.73296" lon="13.2680917"><ele>686.0</ele><time>2026-04-04T08:12:24.029Z</time></trkpt><trkpt lat="42.7328283" lon="13.2682433"><ele>686.0</ele><time>2026-04-04T08:12:25.03Z</time></trkpt><trkpt lat="42.7326883" lon="13.2683833"><ele>685.0</ele><time>2026-04-04T08:12:26.03Z</time></trkpt><trkpt lat="42.7325483" lon="13.2685233"><ele>684.0</ele><time>2026-04-04T08:12:27.03Z</time></trkpt><trkpt lat="42.7324" lon="13.268655"><ele>683.0</ele><time>2026-04-04T08:12:28.03Z</time></trkpt><trkpt lat="42.7322533" lon="13.2687683"><ele>683.0</ele><time>2026-04-04T08:12:29.029Z</time></trkpt><trkpt lat="42.732095" lon="13.2688817"><ele>683.0</ele><time>2026-04-04T08:12:30.03Z</time></trkpt><trkpt lat="42.73193" lon="13.2689867"><ele>683.0</ele><time>2026-04-04T08:12:31.03Z</time></trkpt><trkpt lat="42.73177" lon="13.2690733"><ele>684.0</ele><time>2026-04-04T08:12:32.03Z</time></trkpt><trkpt lat="42.7316083" lon="13.26915"><ele>685.0</ele><time>2026-04-04T08:12:33.03Z</time></trkpt><trkpt lat="42.73144" lon="13.2692033"><ele>686.0</ele><time>2026-04-04T08:12:34.03Z</time></trkpt><trkpt lat="42.7312783" lon="13.2692483"><ele>686.0</ele><time>2026-04-04T08:12:35.03Z</time></trkpt><trkpt lat="42.73111" lon="13.26929"><ele>686.0</ele><time>2026-04-04T08:12:36.03Z</time></trkpt><trkpt lat="42.7309417" lon="13.2693233"><ele>686.0</ele><time>2026-04-04T08:12:37.03Z</time></trkpt><trkpt lat="42.73077" lon="13.2693433"><ele>685.6666666666666</ele><time>2026-04-04T08:12:38.03Z</time></trkpt><trkpt lat="42.7305983" lon="13.269345"><ele>685.3333333333334</ele><time>2026-04-04T08:12:39.03Z</time></trkpt><trkpt lat="42.7304167" lon="13.26934"><ele>685.0</ele><time>2026-04-04T08:12:40.03Z</time></trkpt><trkpt lat="42.7302383" lon="13.2693183"><ele>685.6666666666667</ele><time>2026-04-04T08:12:41.03Z</time></trkpt><trkpt lat="42.73006" lon="13.269295"><ele>686.3333333333334</ele><time>2026-04-04T08:12:42.03Z</time></trkpt><trkpt lat="42.7298767" lon="13.2692533"><ele>687.0</ele><time>2026-04-04T08:12:43.03Z</time></trkpt><trkpt lat="42.7297017" lon="13.2691983"><ele>687.0</ele><time>2026-04-04T08:12:44.03Z</time></trkpt><trkpt lat="42.72952" lon="13.2691333"><ele>687.0</ele><time>2026-04-04T08:12:45.03Z</time></trkpt><trkpt lat="42.7293433" lon="13.2690533"><ele>687.0</ele><time>2026-04-04T08:12:46.03Z</time></trkpt><trkpt lat="42.7291667" lon="13.268965"><ele>688.3333333333334</ele><time>2026-04-04T08:12:47.03Z</time></trkpt><trkpt lat="42.7289883" lon="13.2688633"><ele>689.6666666666667</ele><time>2026-04-04T08:12:48.03Z</time></trkpt><trkpt lat="42.7288167" lon="13.26875"><ele>691.0</ele><time>2026-04-04T08:12:49.03Z</time></trkpt><trkpt lat="42.72865" lon="13.2686217"><ele>690.0</ele><time>2026-04-04T08:12:50.03Z</time></trkpt><trkpt lat="42.7284883" lon="13.2684767"><ele>689.0</ele><time>2026-04-04T08:12:51.03Z</time></trkpt><trkpt lat="42.7283333" lon="13.2683133"><ele>688.0</ele><time>2026-04-04T08:12:52.03Z</time></trkpt><trkpt lat="42.7281833" lon="13.268135"><ele>688.0</ele><time>2026-04-04T08:12:53.03Z</time></trkpt><trkpt lat="42.72804" lon="13.2679517"><ele>688.0</ele><time>2026-04-04T08:12:54.03Z</time></trkpt><trkpt lat="42.7279" lon="13.2677667"><ele>688.0</ele><time>2026-04-04T08:12:55.03Z</time></trkpt><trkpt lat="42.7277717" lon="13.267565"><ele>688.0</ele><time>2026-04-04T08:12:56.03Z</time></trkpt><trkpt lat="42.72765" lon="13.2673567"><ele>688.0</ele><time>2026-04-04T08:12:57.03Z</time></trkpt><trkpt lat="42.727535" lon="13.2671383"><ele>688.0</ele><time>2026-04-04T08:12:58.03Z</time></trkpt><trkpt lat="42.72742" lon="13.26692"><ele>687.6666666666667</ele><time>2026-04-04T08:12:59.03Z</time></trkpt><trkpt lat="42.7273033" lon="13.2667083"><ele>687.3333333333334</ele><time>2026-04-04T08:13:00.03Z</time></trkpt><trkpt lat="42.7271883" lon="13.2665067"><ele>687.0</ele><time>2026-04-04T08:13:01.03Z</time></trkpt><trkpt lat="42.7270733" lon="13.26631"><ele>688.6666666666666</ele><time>2026-04-04T08:13:02.029Z</time></trkpt><trkpt lat="42.7269483" lon="13.2661217"><ele>690.3333333333333</ele><time>2026-04-04T08:13:03.03Z</time></trkpt><trkpt lat="42.726805" lon="13.265945"><ele>692.0</ele><time>2026-04-04T08:13:04.03Z</time></trkpt><trkpt lat="42.7266567" lon="13.2657733"><ele>692.0</ele><time>2026-04-04T08:13:05.03Z</time></trkpt><trkpt lat="42.726505" lon="13.2656183"><ele>692.0</ele><time>2026-04-04T08:13:06.03Z</time></trkpt><trkpt lat="42.7263383" lon="13.2654683"><ele>692.0</ele><time>2026-04-04T08:13:07.03Z</time></trkpt><trkpt lat="42.7261767" lon="13.26533"><ele>692.0</ele><time>2026-04-04T08:13:08.03Z</time></trkpt><trkpt lat="42.7260017" lon="13.2651983"><ele>692.0</ele><time>2026-04-04T08:13:09.03Z</time></trkpt><trkpt lat="42.725805" lon="13.2650767"><ele>692.0</ele><time>2026-04-04T08:13:10.03Z</time></trkpt><trkpt lat="42.7256267" lon="13.2649817"><ele>692.0</ele><time>2026-04-04T08:13:11.03Z</time></trkpt><trkpt lat="42.7254383" lon="13.264895"><ele>692.0</ele><time>2026-04-04T08:13:12.029Z</time></trkpt><trkpt lat="42.7252417" lon="13.2648167"><ele>692.0</ele><time>2026-04-04T08:13:13.03Z</time></trkpt><trkpt lat="42.7250267" lon="13.26475"><ele>700.0</ele><time>2026-04-04T08:13:14.03Z</time></trkpt><trkpt lat="42.7248367" lon="13.264705"><ele>708.0</ele><time>2026-04-04T08:13:15.03Z</time></trkpt><trkpt lat="42.72464" lon="13.2646433"><ele>716.0</ele><time>2026-04-04T08:13:16.03Z</time></trkpt><trkpt lat="42.7244333" lon="13.2645817"><ele>713.6666666666666</ele><time>2026-04-04T08:13:17.03Z</time></trkpt><trkpt lat="42.7242433" lon="13.2645133"><ele>711.3333333333334</ele><time>2026-04-04T08:13:18.03Z</time></trkpt><trkpt lat="42.72405" lon="13.2644283"><ele>709.0</ele><time>2026-04-04T08:13:19.03Z</time></trkpt><trkpt lat="42.723855" lon="13.264315"><ele>709.0</ele><time>2026-04-04T08:13:20.03Z</time></trkpt><trkpt lat="42.7236717" lon="13.2641933"><ele>709.0</ele><time>2026-04-04T08:13:21.03Z</time></trkpt><trkpt lat="42.723495" lon="13.26406"><ele>709.0</ele><time>2026-04-04T08:13:22.03Z</time></trkpt><trkpt lat="42.723315" lon="13.263935"><ele>707.0</ele><time>2026-04-04T08:13:23.03Z</time></trkpt><trkpt lat="42.7231283" lon="13.2638017"><ele>705.0</ele><time>2026-04-04T08:13:24.03Z</time></trkpt><trkpt lat="42.72294" lon="13.26367"><ele>703.0</ele><time>2026-04-04T08:13:25.03Z</time></trkpt><trkpt lat="42.7227517" lon="13.2635433"><ele>700.0</ele><time>2026-04-04T08:13:26.03Z</time></trkpt><trkpt lat="42.7225783" lon="13.263425"><ele>697.0</ele><time>2026-04-04T08:13:27.03Z</time></trkpt><trkpt lat="42.7224167" lon="13.263315"><ele>694.0</ele><time>2026-04-04T08:13:28.03Z</time></trkpt><trkpt lat="42.722245" lon="13.26321"><ele>696.6666666666667</ele><time>2026-04-04T08:13:29.03Z</time></trkpt><trkpt lat="42.722075" lon="13.2631067"><ele>699.3333333333334</ele><time>2026-04-04T08:13:30.03Z</time></trkpt><trkpt lat="42.721905" lon="13.2630083"><ele>702.0</ele><time>2026-04-04T08:13:31.03Z</time></trkpt><trkpt lat="42.721735" lon="13.2628917"><ele>702.0</ele><time>2026-04-04T08:13:32.03Z</time></trkpt><trkpt lat="42.721565" lon="13.262775"><ele>702.0</ele><time>2026-04-04T08:13:33.03Z</time></trkpt><trkpt lat="42.7213917" lon="13.262655"><ele>702.0</ele><time>2026-04-04T08:13:34.03Z</time></trkpt><trkpt lat="42.7212217" lon="13.2625367"><ele>702.6666666666666</ele><time>2026-04-04T08:13:35.03Z</time></trkpt><trkpt lat="42.7210433" lon="13.2624167"><ele>703.3333333333333</ele><time>2026-04-04T08:13:36.03Z</time></trkpt><trkpt lat="42.7208633" lon="13.2622917"><ele>704.0</ele><time>2026-04-04T08:13:37.03Z</time></trkpt><trkpt lat="42.72068" lon="13.2621683"><ele>702.6666666666666</ele><time>2026-04-04T08:13:38.03Z</time></trkpt><trkpt lat="42.7204917" lon="13.2620433"><ele>701.3333333333334</ele><time>2026-04-04T08:13:39.03Z</time></trkpt><trkpt lat="42.7203017" lon="13.2619217"><ele>700.0</ele><time>2026-04-04T08:13:40.03Z</time></trkpt><trkpt lat="42.720115" lon="13.2617933"><ele>700.0</ele><time>2026-04-04T08:13:41.03Z</time></trkpt><trkpt lat="42.7199217" lon="13.2616583"><ele>700.0</ele><time>2026-04-04T08:13:42.03Z</time></trkpt><trkpt lat="42.71973" lon="13.2615267"><ele>700.0</ele><time>2026-04-04T08:13:43.03Z</time></trkpt><trkpt lat="42.7195417" lon="13.261395"><ele>700.3333333333334</ele><time>2026-04-04T08:13:44.03Z</time></trkpt><trkpt lat="42.71935" lon="13.26127"><ele>700.6666666666666</ele><time>2026-04-04T08:13:45.03Z</time></trkpt><trkpt lat="42.7191483" lon="13.26114"><ele>701.0</ele><time>2026-04-04T08:13:46.03Z</time></trkpt><trkpt lat="42.7189483" lon="13.2610133"><ele>701.0</ele><time>2026-04-04T08:13:47.03Z</time></trkpt><trkpt lat="42.718755" lon="13.2608767"><ele>701.0</ele><time>2026-04-04T08:13:48.03Z</time></trkpt><trkpt lat="42.7185567" lon="13.2607467"><ele>701.0</ele><time>2026-04-04T08:13:49.03Z</time></trkpt><trkpt lat="42.7183617" lon="13.2606083"><ele>706.3333333333333</ele><time>2026-04-04T08:13:50.03Z</time></trkpt><trkpt lat="42.7181683" lon="13.2604733"><ele>711.6666666666666</ele><time>2026-04-04T08:13:51.03Z</time></trkpt><trkpt lat="42.7179717" lon="13.2603417"><ele>717.0</ele><time>2026-04-04T08:13:52.03Z</time></trkpt><trkpt lat="42.7177783" lon="13.2601983"><ele>714.3333333333334</ele><time>2026-04-04T08:13:53.03Z</time></trkpt><trkpt lat="42.7175867" lon="13.260075"><ele>711.6666666666667</ele><time>2026-04-04T08:13:54.03Z</time></trkpt><trkpt lat="42.71739" lon="13.2599417"><ele>709.0</ele><time>2026-04-04T08:13:55.03Z</time></trkpt><trkpt lat="42.717195" lon="13.2598017"><ele>708.0</ele><time>2026-04-04T08:13:56.03Z</time></trkpt><trkpt lat="42.7170067" lon="13.2596733"><ele>707.0</ele><time>2026-04-04T08:13:57.03Z</time></trkpt><trkpt lat="42.7168183" lon="13.259545"><ele>706.0</ele><time>2026-04-04T08:13:58.03Z</time></trkpt><trkpt lat="42.716625" lon="13.2594267"><ele>706.0</ele><time>2026-04-04T08:13:59.03Z</time></trkpt><trkpt lat="42.7164333" lon="13.2593033"><ele>706.0</ele><time>2026-04-04T08:14:00.03Z</time></trkpt><trkpt lat="42.71625" lon="13.2591783"><ele>706.0</ele><time>2026-04-04T08:14:01.03Z</time></trkpt><trkpt lat="42.7160533" lon="13.25905"><ele>705.0</ele><time>2026-04-04T08:14:02.03Z</time></trkpt><trkpt lat="42.715855" lon="13.25893"><ele>704.0</ele><time>2026-04-04T08:14:03.03Z</time></trkpt><trkpt lat="42.7156633" lon="13.258795"><ele>703.0</ele><time>2026-04-04T08:14:04.03Z</time></trkpt><trkpt lat="42.7154667" lon="13.2586717"><ele>703.0</ele><time>2026-04-04T08:14:05.029Z</time></trkpt><trkpt lat="42.7152717" lon="13.25855"><ele>703.0</ele><time>2026-04-04T08:14:06.03Z</time></trkpt><trkpt lat="42.7150733" lon="13.258435"><ele>703.0</ele><time>2026-04-04T08:14:07.03Z</time></trkpt><trkpt lat="42.71488" lon="13.2583233"><ele>702.3333333333334</ele><time>2026-04-04T08:14:08.03Z</time></trkpt><trkpt lat="42.714675" lon="13.2582233"><ele>701.6666666666666</ele><time>2026-04-04T08:14:09.03Z</time></trkpt><trkpt lat="42.71448" lon="13.2581217"><ele>701.0</ele><time>2026-04-04T08:14:10.03Z</time></trkpt><trkpt lat="42.7142783" lon="13.2580233"><ele>702.3333333333333</ele><time>2026-04-04T08:14:11.03Z</time></trkpt><trkpt lat="42.71407" lon="13.2579483"><ele>703.6666666666666</ele><time>2026-04-04T08:14:12.03Z</time></trkpt><trkpt lat="42.713865" lon="13.2578667"><ele>705.0</ele><time>2026-04-04T08:14:13.03Z</time></trkpt><trkpt lat="42.7136567" lon="13.2578017"><ele>704.3333333333334</ele><time>2026-04-04T08:14:14.03Z</time></trkpt><trkpt lat="42.7134467" lon="13.25774"><ele>703.6666666666667</ele><time>2026-04-04T08:14:15.029Z</time></trkpt><trkpt lat="42.7132433" lon="13.2576717"><ele>703.0</ele><time>2026-04-04T08:14:16.03Z</time></trkpt><trkpt lat="42.7130417" lon="13.2576067"><ele>703.0</ele><time>2026-04-04T08:14:17.03Z</time></trkpt><trkpt lat="42.712835" lon="13.2575517"><ele>703.0</ele><time>2026-04-04T08:14:18.03Z</time></trkpt><trkpt lat="42.7126267" lon="13.2575"><ele>703.0</ele><time>2026-04-04T08:14:19.03Z</time></trkpt><trkpt lat="42.712425" lon="13.257435"><ele>703.3333333333334</ele><time>2026-04-04T08:14:20.03Z</time></trkpt><trkpt lat="42.7122217" lon="13.2573717"><ele>703.6666666666666</ele><time>2026-04-04T08:14:21.03Z</time></trkpt><trkpt lat="42.71201" lon="13.25731"><ele>704.0</ele><time>2026-04-04T08:14:22.03Z</time></trkpt><trkpt lat="42.711805" lon="13.2572433"><ele>704.0</ele><time>2026-04-04T08:14:23.03Z</time></trkpt><trkpt lat="42.7116017" lon="13.2571633"><ele>704.0</ele><time>2026-04-04T08:14:24.03Z</time></trkpt><trkpt lat="42.711395" lon="13.25708"><ele>704.0</ele><time>2026-04-04T08:14:25.03Z</time></trkpt><trkpt lat="42.7111933" lon="13.2570017"><ele>704.0</ele><time>2026-04-04T08:14:26.029Z</time></trkpt><trkpt lat="42.7109933" lon="13.2569033"><ele>704.0</ele><time>2026-04-04T08:14:27.03Z</time></trkpt><trkpt lat="42.710795" lon="13.256805"><ele>704.0</ele><time>2026-04-04T08:14:28.03Z</time></trkpt><trkpt lat="42.7105983" lon="13.256715"><ele>704.0</ele><time>2026-04-04T08:14:29.03Z</time></trkpt><trkpt lat="42.7104067" lon="13.2566083"><ele>704.0</ele><time>2026-04-04T08:14:30.03Z</time></trkpt><trkpt lat="42.7102233" lon="13.2564883"><ele>704.0</ele><time>2026-04-04T08:14:31.03Z</time></trkpt><trkpt lat="42.710035" lon="13.2563783"><ele>707.0</ele><time>2026-04-04T08:14:32.03Z</time></trkpt><trkpt lat="42.7098483" lon="13.2562667"><ele>710.0</ele><time>2026-04-04T08:14:33.03Z</time></trkpt><trkpt lat="42.7096533" lon="13.2561467"><ele>713.0</ele><time>2026-04-04T08:14:34.03Z</time></trkpt><trkpt lat="42.70946" lon="13.2560367"><ele>712.0</ele><time>2026-04-04T08:14:35.03Z</time></trkpt><trkpt lat="42.7092683" lon="13.25593"><ele>711.0</ele><time>2026-04-04T08:14:36.03Z</time></trkpt><trkpt lat="42.7090783" lon="13.25581"><ele>710.0</ele><time>2026-04-04T08:14:37.03Z</time></trkpt><trkpt lat="42.7088817" lon="13.2557183"><ele>713.3333333333333</ele><time>2026-04-04T08:14:38.03Z</time></trkpt><trkpt lat="42.7086883" lon="13.2556167"><ele>716.6666666666666</ele><time>2026-04-04T08:14:39.03Z</time></trkpt><trkpt lat="42.7085" lon="13.2555167"><ele>720.0</ele><time>2026-04-04T08:14:40.03Z</time></trkpt><trkpt lat="42.708295" lon="13.2554367"><ele>720.0</ele><time>2026-04-04T08:14:41.03Z</time></trkpt><trkpt lat="42.7080983" lon="13.2553483"><ele>720.0</ele><time>2026-04-04T08:14:42.03Z</time></trkpt><trkpt lat="42.7078967" lon="13.2552533"><ele>720.0</ele><time>2026-04-04T08:14:43.03Z</time></trkpt><trkpt lat="42.7077" lon="13.2551583"><ele>718.3333333333334</ele><time>2026-04-04T08:14:44.03Z</time></trkpt><trkpt lat="42.7075" lon="13.2550617"><ele>716.6666666666667</ele><time>2026-04-04T08:14:45.03Z</time></trkpt><trkpt lat="42.7073" lon="13.25497"><ele>715.0</ele><time>2026-04-04T08:14:46.03Z</time></trkpt><trkpt lat="42.7070983" lon="13.254875"><ele>716.0</ele><time>2026-04-04T08:14:47.03Z</time></trkpt><trkpt lat="42.7069" lon="13.25479"><ele>717.0</ele><time>2026-04-04T08:14:48.03Z</time></trkpt><trkpt lat="42.7067083" lon="13.2546883"><ele>718.0</ele><time>2026-04-04T08:14:49.03Z</time></trkpt><trkpt lat="42.7065067" lon="13.254595"><ele>720.0</ele><time>2026-04-04T08:14:50.03Z</time></trkpt><trkpt lat="42.706305" lon="13.2545"><ele>722.0</ele><time>2026-04-04T08:14:51.03Z</time></trkpt><trkpt lat="42.7061067" lon="13.2544083"><ele>724.0</ele><time>2026-04-04T08:14:52.03Z</time></trkpt><trkpt lat="42.7059033" lon="13.2543217"><ele>724.0</ele><time>2026-04-04T08:14:53.03Z</time></trkpt><trkpt lat="42.7056983" lon="13.25425"><ele>724.0</ele><time>2026-04-04T08:14:54.03Z</time></trkpt><trkpt lat="42.705485" lon="13.2541933"><ele>724.0</ele><time>2026-04-04T08:14:55.03Z</time></trkpt><trkpt lat="42.7052817" lon="13.254135"><ele>723.6666666666667</ele><time>2026-04-04T08:14:56.03Z</time></trkpt><trkpt lat="42.7050767" lon="13.2540883"><ele>723.3333333333334</ele><time>2026-04-04T08:14:57.03Z</time></trkpt><trkpt lat="42.7048667" lon="13.25404"><ele>723.0</ele><time>2026-04-04T08:14:58.03Z</time></trkpt><trkpt lat="42.704655" lon="13.2539967"><ele>728.6666666666666</ele><time>2026-04-04T08:14:59.03Z</time></trkpt><trkpt lat="42.70444" lon="13.253935"><ele>734.3333333333333</ele><time>2026-04-04T08:15:00.03Z</time></trkpt><trkpt lat="42.704235" lon="13.2538817"><ele>740.0</ele><time>2026-04-04T08:15:01.03Z</time></trkpt><trkpt lat="42.704025" lon="13.2538117"><ele>740.0</ele><time>2026-04-04T08:15:02.029Z</time></trkpt><trkpt lat="42.7038217" lon="13.253765"><ele>740.0</ele><time>2026-04-04T08:15:03.03Z</time></trkpt><trkpt lat="42.70361" lon="13.253715"><ele>740.0</ele><time>2026-04-04T08:15:04.03Z</time></trkpt><trkpt lat="42.7034083" lon="13.25366"><ele>739.0</ele><time>2026-04-04T08:15:05.03Z</time></trkpt><trkpt lat="42.7032" lon="13.253595"><ele>738.0</ele><time>2026-04-04T08:15:06.03Z</time></trkpt><trkpt lat="42.7029883" lon="13.253515"><ele>737.0</ele><time>2026-04-04T08:15:07.03Z</time></trkpt><trkpt lat="42.7027883" lon="13.2534133"><ele>734.0</ele><time>2026-04-04T08:15:08.03Z</time></trkpt><trkpt lat="42.7025933" lon="13.253295"><ele>731.0</ele><time>2026-04-04T08:15:09.03Z</time></trkpt><trkpt lat="42.7023917" lon="13.2531783"><ele>728.0</ele><time>2026-04-04T08:15:10.03Z</time></trkpt><trkpt lat="42.7021917" lon="13.2530617"><ele>729.0</ele><time>2026-04-04T08:15:11.03Z</time></trkpt><trkpt lat="42.701995" lon="13.2529383"><ele>730.0</ele><time>2026-04-04T08:15:12.03Z</time></trkpt><trkpt lat="42.7018" lon="13.2528333"><ele>731.0</ele><time>2026-04-04T08:15:13.03Z</time></trkpt><trkpt lat="42.7016017" lon="13.2527183"><ele>731.0</ele><time>2026-04-04T08:15:14.03Z</time></trkpt><trkpt lat="42.7014183" lon="13.2525867"><ele>731.0</ele><time>2026-04-04T08:15:15.03Z</time></trkpt><trkpt lat="42.7012217" lon="13.2524833"><ele>731.0</ele><time>2026-04-04T08:15:16.03Z</time></trkpt><trkpt lat="42.70103" lon="13.25237"><ele>733.0</ele><time>2026-04-04T08:15:17.03Z</time></trkpt><trkpt lat="42.7008233" lon="13.252275"><ele>735.0</ele><time>2026-04-04T08:15:18.03Z</time></trkpt><trkpt lat="42.700625" lon="13.2521817"><ele>737.0</ele><time>2026-04-04T08:15:19.03Z</time></trkpt><trkpt lat="42.70042" lon="13.252105"><ele>733.0</ele><time>2026-04-04T08:15:20.03Z</time></trkpt><trkpt lat="42.700215" lon="13.252045"><ele>729.0</ele><time>2026-04-04T08:15:21.029Z</time></trkpt><trkpt lat="42.7000083" lon="13.251995"><ele>725.0</ele><time>2026-04-04T08:15:22.03Z</time></trkpt><trkpt lat="42.6998017" lon="13.25197"><ele>725.0</ele><time>2026-04-04T08:15:23.03Z</time></trkpt><trkpt lat="42.6995933" lon="13.2519533"><ele>725.0</ele><time>2026-04-04T08:15:24.03Z</time></trkpt><trkpt lat="42.6994017" lon="13.2519517"><ele>725.0</ele><time>2026-04-04T08:15:25.03Z</time></trkpt><trkpt lat="42.699195" lon="13.2519817"><ele>722.6666666666666</ele><time>2026-04-04T08:15:26.03Z</time></trkpt><trkpt lat="42.6989917" lon="13.2520317"><ele>720.3333333333334</ele><time>2026-04-04T08:15:27.029Z</time></trkpt><trkpt lat="42.698795" lon="13.2520833"><ele>718.0</ele><time>2026-04-04T08:15:28.03Z</time></trkpt><trkpt lat="42.6986" lon="13.2521433"><ele>718.0</ele><time>2026-04-04T08:15:29.03Z</time></trkpt><trkpt lat="42.6984017" lon="13.252235"><ele>718.0</ele><time>2026-04-04T08:15:30.03Z</time></trkpt><trkpt lat="42.698205" lon="13.252335"><ele>718.0</ele><time>2026-04-04T08:15:31.03Z</time></trkpt><trkpt lat="42.6980183" lon="13.2524333"><ele>718.0</ele><time>2026-04-04T08:15:32.029Z</time></trkpt><trkpt lat="42.6978283" lon="13.25256"><ele>718.0</ele><time>2026-04-04T08:15:33.03Z</time></trkpt><trkpt lat="42.6976367" lon="13.2527083"><ele>718.0</ele><time>2026-04-04T08:15:34.03Z</time></trkpt><trkpt lat="42.69746" lon="13.2528717"><ele>719.0</ele><time>2026-04-04T08:15:35.03Z</time></trkpt><trkpt lat="42.6972983" lon="13.2530433"><ele>720.0</ele><time>2026-04-04T08:15:36.03Z</time></trkpt><trkpt lat="42.6971567" lon="13.2532067"><ele>721.0</ele><time>2026-04-04T08:15:37.029Z</time></trkpt><trkpt lat="42.69701" lon="13.2533967"><ele>724.0</ele><time>2026-04-04T08:15:38.03Z</time></trkpt><trkpt lat="42.6968833" lon="13.2535783"><ele>727.0</ele><time>2026-04-04T08:15:39.03Z</time></trkpt><trkpt lat="42.6967683" lon="13.2537517"><ele>730.0</ele><time>2026-04-04T08:15:40.03Z</time></trkpt><trkpt lat="42.6966617" lon="13.2539367"><ele>733.6666666666667</ele><time>2026-04-04T08:15:41.03Z</time></trkpt><trkpt lat="42.6965467" lon="13.254135"><ele>737.3333333333334</ele><time>2026-04-04T08:15:42.029Z</time></trkpt><trkpt lat="42.6964367" lon="13.2543517"><ele>741.0</ele><time>2026-04-04T08:15:43.03Z</time></trkpt><trkpt lat="42.6963217" lon="13.2545767"><ele>739.3333333333334</ele><time>2026-04-04T08:15:44.03Z</time></trkpt><trkpt lat="42.6962167" lon="13.254805"><ele>737.6666666666667</ele><time>2026-04-04T08:15:45.03Z</time></trkpt><trkpt lat="42.6961167" lon="13.25502"><ele>736.0</ele><time>2026-04-04T08:15:46.03Z</time></trkpt><trkpt lat="42.6960017" lon="13.25525"><ele>736.0</ele><time>2026-04-04T08:15:47.03Z</time></trkpt><trkpt lat="42.6958967" lon="13.2554667"><ele>736.0</ele><time>2026-04-04T08:15:48.03Z</time></trkpt><trkpt lat="42.6958" lon="13.255675"><ele>736.0</ele><time>2026-04-04T08:15:49.03Z</time></trkpt><trkpt lat="42.6957067" lon="13.2558683"><ele>740.0</ele><time>2026-04-04T08:15:50.03Z</time></trkpt><trkpt lat="42.69561" lon="13.2560717"><ele>744.0</ele><time>2026-04-04T08:15:51.03Z</time></trkpt><trkpt lat="42.6954983" lon="13.2562833"><ele>748.0</ele><time>2026-04-04T08:15:52.03Z</time></trkpt><trkpt lat="42.69539" lon="13.25649"><ele>748.3333333333334</ele><time>2026-04-04T08:15:53.03Z</time></trkpt><trkpt lat="42.69528" lon="13.2567033"><ele>748.6666666666666</ele><time>2026-04-04T08:15:54.03Z</time></trkpt><trkpt lat="42.6951617" lon="13.2569183"><ele>749.0</ele><time>2026-04-04T08:15:55.03Z</time></trkpt><trkpt lat="42.6950383" lon="13.2571383"><ele>750.0</ele><time>2026-04-04T08:15:56.03Z</time></trkpt><trkpt lat="42.69491" lon="13.257375"><ele>751.0</ele><time>2026-04-04T08:15:57.03Z</time></trkpt><trkpt lat="42.6947733" lon="13.25762"><ele>752.0</ele><time>2026-04-04T08:15:58.03Z</time></trkpt><trkpt lat="42.694645" lon="13.2578683"><ele>752.0</ele><time>2026-04-04T08:15:59.03Z</time></trkpt><trkpt lat="42.694525" lon="13.258115"><ele>752.0</ele><time>2026-04-04T08:16:00.03Z</time></trkpt><trkpt lat="42.69441" lon="13.25836"><ele>752.0</ele><time>2026-04-04T08:16:01.03Z</time></trkpt><trkpt lat="42.6942967" lon="13.2586083"><ele>747.6666666666666</ele><time>2026-04-04T08:16:02.029Z</time></trkpt><trkpt lat="42.6941767" lon="13.2588617"><ele>743.3333333333334</ele><time>2026-04-04T08:16:03.03Z</time></trkpt><trkpt lat="42.694055" lon="13.2591133"><ele>739.0</ele><time>2026-04-04T08:16:04.03Z</time></trkpt><trkpt lat="42.6939417" lon="13.25936"><ele>738.6666666666667</ele><time>2026-04-04T08:16:05.03Z</time></trkpt><trkpt lat="42.6938233" lon="13.25961"><ele>738.3333333333334</ele><time>2026-04-04T08:16:06.03Z</time></trkpt><trkpt lat="42.6937" lon="13.259855"><ele>738.0</ele><time>2026-04-04T08:16:07.03Z</time></trkpt><trkpt lat="42.6935733" lon="13.2600933"><ele>738.0</ele><time>2026-04-04T08:16:08.03Z</time></trkpt><trkpt lat="42.6934433" lon="13.260345"><ele>738.0</ele><time>2026-04-04T08:16:09.03Z</time></trkpt><trkpt lat="42.6933167" lon="13.2605917"><ele>738.0</ele><time>2026-04-04T08:16:10.03Z</time></trkpt><trkpt lat="42.6931917" lon="13.2608417"><ele>738.0</ele><time>2026-04-04T08:16:11.03Z</time></trkpt><trkpt lat="42.6930683" lon="13.2611"><ele>738.0</ele><time>2026-04-04T08:16:12.03Z</time></trkpt><trkpt lat="42.6929433" lon="13.2613467"><ele>738.0</ele><time>2026-04-04T08:16:13.03Z</time></trkpt><trkpt lat="42.69281" lon="13.26159"><ele>738.3333333333334</ele><time>2026-04-04T08:16:14.03Z</time></trkpt><trkpt lat="42.6926767" lon="13.26182"><ele>738.6666666666667</ele><time>2026-04-04T08:16:15.03Z</time></trkpt><trkpt lat="42.69254" lon="13.2620417"><ele>739.0</ele><time>2026-04-04T08:16:16.03Z</time></trkpt><trkpt lat="42.6924017" lon="13.2622517"><ele>740.6666666666667</ele><time>2026-04-04T08:16:17.03Z</time></trkpt><trkpt lat="42.6922583" lon="13.2624517"><ele>742.3333333333334</ele><time>2026-04-04T08:16:18.03Z</time></trkpt><trkpt lat="42.6921083" lon="13.2626433"><ele>744.0</ele><time>2026-04-04T08:16:19.03Z</time></trkpt><trkpt lat="42.6919517" lon="13.262815"><ele>743.6666666666666</ele><time>2026-04-04T08:16:20.03Z</time></trkpt><trkpt lat="42.6917783" lon="13.2629717"><ele>743.3333333333333</ele><time>2026-04-04T08:16:21.03Z</time></trkpt><trkpt lat="42.691605" lon="13.2631317"><ele>743.0</ele><time>2026-04-04T08:16:22.03Z</time></trkpt><trkpt lat="42.6914183" lon="13.263275"><ele>743.0</ele><time>2026-04-04T08:16:23.03Z</time></trkpt><trkpt lat="42.6912283" lon="13.2633917"><ele>743.0</ele><time>2026-04-04T08:16:24.03Z</time></trkpt><trkpt lat="42.691025" lon="13.26349"><ele>743.0</ele><time>2026-04-04T08:16:25.03Z</time></trkpt><trkpt lat="42.6908217" lon="13.2635783"><ele>741.3333333333333</ele><time>2026-04-04T08:16:26.03Z</time></trkpt><trkpt lat="42.6906067" lon="13.263655"><ele>739.6666666666666</ele><time>2026-04-04T08:16:27.03Z</time></trkpt><trkpt lat="42.6903933" lon="13.2637217"><ele>738.0</ele><time>2026-04-04T08:16:28.03Z</time></trkpt><trkpt lat="42.690175" lon="13.26378"><ele>738.0</ele><time>2026-04-04T08:16:29.03Z</time></trkpt><trkpt lat="42.6899667" lon="13.2638433"><ele>738.0</ele><time>2026-04-04T08:16:30.03Z</time></trkpt><trkpt lat="42.68976" lon="13.2638917"><ele>738.0</ele><time>2026-04-04T08:16:31.03Z</time></trkpt><trkpt lat="42.68955" lon="13.26397"><ele>742.0</ele><time>2026-04-04T08:16:32.03Z</time></trkpt><trkpt lat="42.6893417" lon="13.2640333"><ele>746.0</ele><time>2026-04-04T08:16:33.03Z</time></trkpt><trkpt lat="42.6891283" lon="13.2641067"><ele>750.0</ele><time>2026-04-04T08:16:34.029Z</time></trkpt><trkpt lat="42.68892" lon="13.2641717"><ele>750.0</ele><time>2026-04-04T08:16:35.03Z</time></trkpt><trkpt lat="42.68871" lon="13.2642383"><ele>750.0</ele><time>2026-04-04T08:16:36.03Z</time></trkpt><trkpt lat="42.6884933" lon="13.2643"><ele>750.0</ele><time>2026-04-04T08:16:37.03Z</time></trkpt><trkpt lat="42.68828" lon="13.2643633"><ele>754.0</ele><time>2026-04-04T08:16:38.03Z</time></trkpt><trkpt lat="42.6880683" lon="13.2644267"><ele>758.0</ele><time>2026-04-04T08:16:39.03Z</time></trkpt><trkpt lat="42.6878667" lon="13.2644917"><ele>762.0</ele><time>2026-04-04T08:16:40.03Z</time></trkpt><trkpt lat="42.6876683" lon="13.2645767"><ele>764.6666666666667</ele><time>2026-04-04T08:16:41.03Z</time></trkpt><trkpt lat="42.6874733" lon="13.264685"><ele>767.3333333333334</ele><time>2026-04-04T08:16:42.03Z</time></trkpt><trkpt lat="42.68728" lon="13.264805"><ele>770.0</ele><time>2026-04-04T08:16:43.03Z</time></trkpt><trkpt lat="42.6870967" lon="13.2649433"><ele>764.6666666666667</ele><time>2026-04-04T08:16:44.03Z</time></trkpt><trkpt lat="42.68692" lon="13.2650967"><ele>759.3333333333334</ele><time>2026-04-04T08:16:45.03Z</time></trkpt><trkpt lat="42.686745" lon="13.2652683"><ele>754.0</ele><time>2026-04-04T08:16:46.03Z</time></trkpt><trkpt lat="42.6865717" lon="13.2654683"><ele>752.6666666666667</ele><time>2026-04-04T08:16:47.03Z</time></trkpt><trkpt lat="42.686405" lon="13.265655"><ele>751.3333333333334</ele><time>2026-04-04T08:16:48.03Z</time></trkpt><trkpt lat="42.686245" lon="13.2658367"><ele>750.0</ele><time>2026-04-04T08:16:49.03Z</time></trkpt><trkpt lat="42.6860867" lon="13.2660333"><ele>750.0</ele><time>2026-04-04T08:16:50.03Z</time></trkpt><trkpt lat="42.6859233" lon="13.2662267"><ele>750.0</ele><time>2026-04-04T08:16:51.03Z</time></trkpt><trkpt lat="42.6857683" lon="13.26641"><ele>750.0</ele><time>2026-04-04T08:16:52.03Z</time></trkpt><trkpt lat="42.6856067" lon="13.2665983"><ele>750.3333333333334</ele><time>2026-04-04T08:16:53.03Z</time></trkpt><trkpt lat="42.6854317" lon="13.266785"><ele>750.6666666666667</ele><time>2026-04-04T08:16:54.03Z</time></trkpt><trkpt lat="42.685255" lon="13.2669767"><ele>751.0</ele><time>2026-04-04T08:16:55.03Z</time></trkpt><trkpt lat="42.6850717" lon="13.2671517"><ele>755.5</ele><time>2026-04-04T08:16:56.03Z</time></trkpt><trkpt lat="42.6848817" lon="13.2673267"><ele>760.0</ele><time>2026-04-04T08:16:57.03Z</time></trkpt><trkpt lat="42.6846883" lon="13.2674817"><ele>760.0</ele><time>2026-04-04T08:16:58.03Z</time></trkpt><trkpt lat="42.6845" lon="13.2676167"><ele>760.0</ele><time>2026-04-04T08:16:59.03Z</time></trkpt><trkpt lat="42.6842933" lon="13.267725"><ele>760.0</ele><time>2026-04-04T08:17:00.03Z</time></trkpt><trkpt lat="42.68408" lon="13.2678133"><ele>757.0</ele><time>2026-04-04T08:17:01.03Z</time></trkpt><trkpt lat="42.6838633" lon="13.2678867"><ele>754.0</ele><time>2026-04-04T08:17:02.03Z</time></trkpt><trkpt lat="42.6836533" lon="13.2679367"><ele>751.0</ele><time>2026-04-04T08:17:03.03Z</time></trkpt><trkpt lat="42.6834417" lon="13.267965"><ele>751.0</ele><time>2026-04-04T08:17:04.029Z</time></trkpt><trkpt lat="42.6832317" lon="13.267975"><ele>751.0</ele><time>2026-04-04T08:17:05.03Z</time></trkpt><trkpt lat="42.6830133" lon="13.26796"><ele>751.0</ele><time>2026-04-04T08:17:06.03Z</time></trkpt><trkpt lat="42.6827967" lon="13.2679283"><ele>752.3333333333334</ele><time>2026-04-04T08:17:07.03Z</time></trkpt><trkpt lat="42.6825983" lon="13.2678867"><ele>753.6666666666666</ele><time>2026-04-04T08:17:08.03Z</time></trkpt><trkpt lat="42.682395" lon="13.2678717"><ele>755.0</ele><time>2026-04-04T08:17:09.03Z</time></trkpt><trkpt lat="42.6821717" lon="13.2678533"><ele>755.0</ele><time>2026-04-04T08:17:10.03Z</time></trkpt><trkpt lat="42.68196" lon="13.267845"><ele>755.0</ele><time>2026-04-04T08:17:11.03Z</time></trkpt><trkpt lat="42.6817517" lon="13.26784"><ele>755.0</ele><time>2026-04-04T08:17:12.03Z</time></trkpt><trkpt lat="42.681545" lon="13.2678667"><ele>755.6666666666666</ele><time>2026-04-04T08:17:13.03Z</time></trkpt><trkpt lat="42.681335" lon="13.267915"><ele>756.3333333333334</ele><time>2026-04-04T08:17:14.03Z</time></trkpt><trkpt lat="42.68112" lon="13.2679967"><ele>757.0</ele><time>2026-04-04T08:17:15.029Z</time></trkpt><trkpt lat="42.68091" lon="13.2680983"><ele>758.0</ele><time>2026-04-04T08:17:16.03Z</time></trkpt><trkpt lat="42.6807133" lon="13.26819"><ele>759.0</ele><time>2026-04-04T08:17:17.03Z</time></trkpt><trkpt lat="42.6805217" lon="13.2682883"><ele>760.0</ele><time>2026-04-04T08:17:18.03Z</time></trkpt><trkpt lat="42.68033" lon="13.2683917"><ele>759.3333333333334</ele><time>2026-04-04T08:17:19.03Z</time></trkpt><trkpt lat="42.68013" lon="13.2685067"><ele>758.6666666666666</ele><time>2026-04-04T08:17:20.029Z</time></trkpt><trkpt lat="42.6799367" lon="13.2686183"><ele>758.0</ele><time>2026-04-04T08:17:21.03Z</time></trkpt><trkpt lat="42.6797433" lon="13.2687067"><ele>758.0</ele><time>2026-04-04T08:17:22.03Z</time></trkpt><trkpt lat="42.6795383" lon="13.268775"><ele>758.0</ele><time>2026-04-04T08:17:23.03Z</time></trkpt><trkpt lat="42.6793267" lon="13.2688183"><ele>758.0</ele><time>2026-04-04T08:17:24.029Z</time></trkpt><trkpt lat="42.679115" lon="13.268835"><ele>758.3333333333333</ele><time>2026-04-04T08:17:25.03Z</time></trkpt><trkpt lat="42.6788883" lon="13.2688183"><ele>758.6666666666666</ele><time>2026-04-04T08:17:26.03Z</time></trkpt><trkpt lat="42.6786683" lon="13.268785"><ele>759.0</ele><time>2026-04-04T08:17:27.03Z</time></trkpt><trkpt lat="42.6784483" lon="13.26873"><ele>759.0</ele><time>2026-04-04T08:17:28.03Z</time></trkpt><trkpt lat="42.6782333" lon="13.2686583"><ele>759.0</ele><time>2026-04-04T08:17:29.03Z</time></trkpt><trkpt lat="42.6780233" lon="13.2685733"><ele>759.0</ele><time>2026-04-04T08:17:30.03Z</time></trkpt><trkpt lat="42.6778117" lon="13.2684767"><ele>760.3333333333334</ele><time>2026-04-04T08:17:31.03Z</time></trkpt><trkpt lat="42.6776017" lon="13.268375"><ele>761.6666666666667</ele><time>2026-04-04T08:17:32.03Z</time></trkpt><trkpt lat="42.6774017" lon="13.2682833"><ele>763.0</ele><time>2026-04-04T08:17:33.03Z</time></trkpt><trkpt lat="42.6772017" lon="13.2681783"><ele>762.3333333333334</ele><time>2026-04-04T08:17:34.03Z</time></trkpt><trkpt lat="42.6770067" lon="13.2680817"><ele>761.6666666666666</ele><time>2026-04-04T08:17:35.03Z</time></trkpt><trkpt lat="42.6768117" lon="13.2679817"><ele>761.0</ele><time>2026-04-04T08:17:36.03Z</time></trkpt><trkpt lat="42.6766133" lon="13.2678867"><ele>761.0</ele><time>2026-04-04T08:17:37.03Z</time></trkpt><trkpt lat="42.676405" lon="13.2677967"><ele>761.0</ele><time>2026-04-04T08:17:38.03Z</time></trkpt><trkpt lat="42.6762167" lon="13.2676917"><ele>761.0</ele><time>2026-04-04T08:17:39.03Z</time></trkpt><trkpt lat="42.6760367" lon="13.2675917"><ele>764.6666666666666</ele><time>2026-04-04T08:17:40.03Z</time></trkpt><trkpt lat="42.6758517" lon="13.267485"><ele>768.3333333333333</ele><time>2026-04-04T08:17:41.03Z</time></trkpt><trkpt lat="42.6756517" lon="13.2673833"><ele>772.0</ele><time>2026-04-04T08:17:42.03Z</time></trkpt><trkpt lat="42.6754533" lon="13.26728"><ele>769.6666666666666</ele><time>2026-04-04T08:17:43.03Z</time></trkpt><trkpt lat="42.6752583" lon="13.26718"><ele>767.3333333333333</ele><time>2026-04-04T08:17:44.03Z</time></trkpt><trkpt lat="42.6750633" lon="13.2670917"><ele>765.0</ele><time>2026-04-04T08:17:45.03Z</time></trkpt><trkpt lat="42.6748683" lon="13.2669967"><ele>765.0</ele><time>2026-04-04T08:17:46.03Z</time></trkpt><trkpt lat="42.674675" lon="13.266905"><ele>765.0</ele><time>2026-04-04T08:17:47.03Z</time></trkpt><trkpt lat="42.6744917" lon="13.2668133"><ele>765.0</ele><time>2026-04-04T08:17:48.03Z</time></trkpt><trkpt lat="42.6742967" lon="13.2667167"><ele>764.3333333333334</ele><time>2026-04-04T08:17:49.03Z</time></trkpt><trkpt lat="42.6741067" lon="13.2666233"><ele>763.6666666666667</ele><time>2026-04-04T08:17:50.03Z</time></trkpt><trkpt lat="42.6739117" lon="13.2665233"><ele>763.0</ele><time>2026-04-04T08:17:51.03Z</time></trkpt><trkpt lat="42.6737317" lon="13.26643"><ele>763.6666666666667</ele><time>2026-04-04T08:17:52.03Z</time></trkpt><trkpt lat="42.6735517" lon="13.2663433"><ele>764.3333333333334</ele><time>2026-04-04T08:17:53.03Z</time></trkpt><trkpt lat="42.673395" lon="13.2662667"><ele>765.0</ele><time>2026-04-04T08:17:54.03Z</time></trkpt><trkpt lat="42.673245" lon="13.2661867"><ele>765.0</ele><time>2026-04-04T08:17:55.03Z</time></trkpt><trkpt lat="42.6730867" lon="13.2661183"><ele>765.0</ele><time>2026-04-04T08:17:56.03Z</time></trkpt><trkpt lat="42.6729417" lon="13.266045"><ele>765.0</ele><time>2026-04-04T08:17:57.03Z</time></trkpt><trkpt lat="42.672815" lon="13.2659683"><ele>766.2</ele><time>2026-04-04T08:17:58.03Z</time></trkpt><trkpt lat="42.672695" lon="13.2658917"><ele>767.4</ele><time>2026-04-04T08:17:59.03Z</time></trkpt><trkpt lat="42.672595" lon="13.2658333"><ele>768.5999999999999</ele><time>2026-04-04T08:18:00.03Z</time></trkpt><trkpt lat="42.6725067" lon="13.265775"><ele>769.8</ele><time>2026-04-04T08:18:01.029Z</time></trkpt><trkpt lat="42.6724283" lon="13.26573"><ele>771.0</ele><time>2026-04-04T08:18:02.03Z</time></trkpt><trkpt lat="42.6723667" lon="13.2656883"><ele>771.0</ele><time>2026-04-04T08:18:03.03Z</time></trkpt><trkpt lat="42.67231" lon="13.26565"><ele>771.0</ele><time>2026-04-04T08:18:04.03Z</time></trkpt><trkpt lat="42.6721817" lon="13.2655683"><ele>771.0</ele><time>2026-04-04T08:18:06.03Z</time></trkpt><trkpt lat="42.6721083" lon="13.2655133"><ele>771.0</ele><time>2026-04-04T08:18:07.03Z</time></trkpt><trkpt lat="42.6720317" lon="13.26545"><ele>771.0</ele><time>2026-04-04T08:18:08.03Z</time></trkpt><trkpt lat="42.67195" lon="13.265375"><ele>770.1999999999999</ele><time>2026-04-04T08:18:09.03Z</time></trkpt><trkpt lat="42.67186" lon="13.265295"><ele>769.4</ele><time>2026-04-04T08:18:10.03Z</time></trkpt><trkpt lat="42.6717683" lon="13.2652133"><ele>768.6</ele><time>2026-04-04T08:18:11.03Z</time></trkpt><trkpt lat="42.67167" lon="13.26514"><ele>767.8</ele><time>2026-04-04T08:18:12.03Z</time></trkpt><trkpt lat="42.671565" lon="13.2650783"><ele>767.0</ele><time>2026-04-04T08:18:13.03Z</time></trkpt><trkpt lat="42.6714217" lon="13.2650167"><ele>767.0</ele><time>2026-04-04T08:18:14.03Z</time></trkpt><trkpt lat="42.6713367" lon="13.264975"><ele>767.0</ele><time>2026-04-04T08:18:15.03Z</time></trkpt><trkpt lat="42.6712533" lon="13.2649367"><ele>767.0</ele><time>2026-04-04T08:18:16.03Z</time></trkpt><trkpt lat="42.6711767" lon="13.26488"><ele>767.0</ele><time>2026-04-04T08:18:17.03Z</time></trkpt><trkpt lat="42.6711067" lon="13.2648233"><ele>767.0</ele><time>2026-04-04T08:18:18.03Z</time></trkpt><trkpt lat="42.671055" lon="13.2647667"><ele>767.0</ele><time>2026-04-04T08:18:19.03Z</time></trkpt><trkpt lat="42.6710083" lon="13.2646833"><ele>766.8333333333333</ele><time>2026-04-04T08:18:21.03Z</time></trkpt><trkpt lat="42.6709983" lon="13.2645633"><ele>766.6666666666666</ele><time>2026-04-04T08:18:24.03Z</time></trkpt><trkpt lat="42.67101" lon="13.2644067"><ele>766.5</ele><time>2026-04-04T08:18:26.03Z</time></trkpt><trkpt lat="42.6710167" lon="13.2643117"><ele>766.3333333333334</ele><time>2026-04-04T08:18:27.03Z</time></trkpt><trkpt lat="42.6710183" lon="13.2642133"><ele>766.1666666666667</ele><time>2026-04-04T08:18:28.03Z</time></trkpt><trkpt lat="42.6710167" lon="13.2641"><ele>766.0</ele><time>2026-04-04T08:18:29.029Z</time></trkpt><trkpt lat="42.6710083" lon="13.2639833"><ele>766.0</ele><time>2026-04-04T08:18:30.029Z</time></trkpt><trkpt lat="42.6709933" lon="13.26386"><ele>766.0</ele><time>2026-04-04T08:18:31.03Z</time></trkpt><trkpt lat="42.67098" lon="13.263725"><ele>766.0</ele><time>2026-04-04T08:18:32.029Z</time></trkpt><trkpt lat="42.6709617" lon="13.2635933"><ele>766.0</ele><time>2026-04-04T08:18:33.03Z</time></trkpt><trkpt lat="42.6709467" lon="13.26346"><ele>766.0</ele><time>2026-04-04T08:18:34.03Z</time></trkpt><trkpt lat="42.67093" lon="13.26332"><ele>766.0</ele><time>2026-04-04T08:18:35.03Z</time></trkpt><trkpt lat="42.6709117" lon="13.2631717"><ele>766.0</ele><time>2026-04-04T08:18:36.029Z</time></trkpt><trkpt lat="42.6709" lon="13.2630317"><ele>766.0</ele><time>2026-04-04T08:18:37.03Z</time></trkpt><trkpt lat="42.6708867" lon="13.2629017"><ele>766.0</ele><time>2026-04-04T08:18:38.03Z</time></trkpt><trkpt lat="42.6708733" lon="13.2627733"><ele>766.0</ele><time>2026-04-04T08:18:39.03Z</time></trkpt><trkpt lat="42.670865" lon="13.2626583"><ele>767.6666666666667</ele><time>2026-04-04T08:18:40.03Z</time></trkpt><trkpt lat="42.6708583" lon="13.26256"><ele>769.3333333333334</ele><time>2026-04-04T08:18:41.03Z</time></trkpt><trkpt lat="42.6708517" lon="13.2624233"><ele>771.0</ele><time>2026-04-04T08:18:43.03Z</time></trkpt><trkpt lat="42.67081" lon="13.2622917"><ele>772.6666666666667</ele><time>2026-04-04T08:20:30.029Z</time></trkpt><trkpt lat="42.6707217" lon="13.2622583"><ele>774.3333333333334</ele><time>2026-04-04T08:20:32.03Z</time></trkpt><trkpt lat="42.670655" lon="13.26226"><ele>776.0</ele><time>2026-04-04T08:20:33.03Z</time></trkpt><trkpt lat="42.6705833" lon="13.26225"><ele>776.8333333333334</ele><time>2026-04-04T08:20:34.03Z</time></trkpt><trkpt lat="42.670505" lon="13.2622467"><ele>777.6666666666667</ele><time>2026-04-04T08:20:35.03Z</time></trkpt><trkpt lat="42.6704183" lon="13.2622433"><ele>778.5</ele><time>2026-04-04T08:20:36.03Z</time></trkpt><trkpt lat="42.6703317" lon="13.26225"><ele>779.3333333333333</ele><time>2026-04-04T08:20:37.03Z</time></trkpt><trkpt lat="42.6702467" lon="13.2622767"><ele>780.1666666666666</ele><time>2026-04-04T08:20:38.03Z</time></trkpt><trkpt lat="42.67015" lon="13.2623333"><ele>781.0</ele><time>2026-04-04T08:20:39.03Z</time></trkpt><trkpt lat="42.6700633" lon="13.2624067"><ele>781.0</ele><time>2026-04-04T08:20:40.03Z</time></trkpt><trkpt lat="42.6699767" lon="13.262495"><ele>781.0</ele><time>2026-04-04T08:20:41.03Z</time></trkpt><trkpt lat="42.669895" lon="13.2625933"><ele>781.0</ele><time>2026-04-04T08:20:42.03Z</time></trkpt><trkpt lat="42.6698183" lon="13.2626983"><ele>781.0</ele><time>2026-04-04T08:20:43.029Z</time></trkpt><trkpt lat="42.6697483" lon="13.26281"><ele>781.0</ele><time>2026-04-04T08:20:44.03Z</time></trkpt><trkpt lat="42.669675" lon="13.2629267"><ele>781.0</ele><time>2026-04-04T08:20:45.03Z</time></trkpt><trkpt lat="42.6696017" lon="13.2630517"><ele>781.0</ele><time>2026-04-04T08:20:46.03Z</time></trkpt><trkpt lat="42.6695317" lon="13.263165"><ele>781.0</ele><time>2026-04-04T08:20:47.03Z</time></trkpt><trkpt lat="42.66945" lon="13.2632633"><ele>781.0</ele><time>2026-04-04T08:20:48.03Z</time></trkpt><trkpt lat="42.6693667" lon="13.263345"><ele>781.0</ele><time>2026-04-04T08:20:49.029Z</time></trkpt><trkpt lat="42.6692783" lon="13.2633983"><ele>781.0</ele><time>2026-04-04T08:20:50.03Z</time></trkpt><trkpt lat="42.6691767" lon="13.263425"><ele>781.0</ele><time>2026-04-04T08:20:51.03Z</time></trkpt><trkpt lat="42.669065" lon="13.26343"><ele>781.0</ele><time>2026-04-04T08:20:52.03Z</time></trkpt><trkpt lat="42.6689483" lon="13.2634083"><ele>781.0</ele><time>2026-04-04T08:20:53.03Z</time></trkpt><trkpt lat="42.6688317" lon="13.263385"><ele>781.0</ele><time>2026-04-04T08:20:54.03Z</time></trkpt><trkpt lat="42.6687083" lon="13.2633633"><ele>781.0</ele><time>2026-04-04T08:20:55.03Z</time></trkpt><trkpt lat="42.66858" lon="13.263345"><ele>781.0</ele><time>2026-04-04T08:20:56.03Z</time></trkpt><trkpt lat="42.66844" lon="13.263335"><ele>781.0</ele><time>2026-04-04T08:20:57.03Z</time></trkpt><trkpt lat="42.6683067" lon="13.2633283"><ele>781.75</ele><time>2026-04-04T08:20:58.03Z</time></trkpt><trkpt lat="42.6681767" lon="13.2633183"><ele>782.5</ele><time>2026-04-04T08:20:59.03Z</time></trkpt><trkpt lat="42.66804" lon="13.2633117"><ele>783.25</ele><time>2026-04-04T08:21:00.03Z</time></trkpt><trkpt lat="42.6679017" lon="13.2633167"><ele>784.0</ele><time>2026-04-04T08:21:01.03Z</time></trkpt><trkpt lat="42.66777" lon="13.2633133"><ele>784.0</ele><time>2026-04-04T08:21:02.03Z</time></trkpt><trkpt lat="42.6676417" lon="13.2632933"><ele>784.0</ele><time>2026-04-04T08:21:03.03Z</time></trkpt><trkpt lat="42.6675083" lon="13.2632633"><ele>784.0</ele><time>2026-04-04T08:21:04.03Z</time></trkpt><trkpt lat="42.6673783" lon="13.2632233"><ele>784.0</ele><time>2026-04-04T08:21:05.03Z</time></trkpt><trkpt lat="42.6672467" lon="13.26319"><ele>784.0</ele><time>2026-04-04T08:21:06.03Z</time></trkpt><trkpt lat="42.6671017" lon="13.2631633"><ele>784.0</ele><time>2026-04-04T08:21:07.03Z</time></trkpt><trkpt lat="42.6669517" lon="13.26314"><ele>784.0</ele><time>2026-04-04T08:21:08.03Z</time></trkpt><trkpt lat="42.666805" lon="13.2631233"><ele>784.0</ele><time>2026-04-04T08:21:09.03Z</time></trkpt><trkpt lat="42.6666533" lon="13.26313"><ele>785.0</ele><time>2026-04-04T08:21:10.03Z</time></trkpt><trkpt lat="42.6665067" lon="13.263155"><ele>786.0</ele><time>2026-04-04T08:21:11.03Z</time></trkpt><trkpt lat="42.66636" lon="13.2632067"><ele>787.0</ele><time>2026-04-04T08:21:12.03Z</time></trkpt><trkpt lat="42.6662133" lon="13.2632717"><ele>790.0</ele><time>2026-04-04T08:21:13.03Z</time></trkpt><trkpt lat="42.6660717" lon="13.2633533"><ele>793.0</ele><time>2026-04-04T08:21:14.03Z</time></trkpt><trkpt lat="42.6659267" lon="13.263435"><ele>796.0</ele><time>2026-04-04T08:21:15.03Z</time></trkpt><trkpt lat="42.66578" lon="13.2635267"><ele>796.0</ele><time>2026-04-04T08:21:16.03Z</time></trkpt><trkpt lat="42.6656317" lon="13.2636367"><ele>796.0</ele><time>2026-04-04T08:21:17.03Z</time></trkpt><trkpt lat="42.6654967" lon="13.26374"><ele>796.0</ele><time>2026-04-04T08:21:18.03Z</time></trkpt><trkpt lat="42.665365" lon="13.2638483"><ele>793.6666666666666</ele><time>2026-04-04T08:21:19.03Z</time></trkpt><trkpt lat="42.6652333" lon="13.26396"><ele>791.3333333333333</ele><time>2026-04-04T08:21:20.03Z</time></trkpt><trkpt lat="42.66509" lon="13.2640417"><ele>789.0</ele><time>2026-04-04T08:21:21.03Z</time></trkpt><trkpt lat="42.6649617" lon="13.264115"><ele>789.0</ele><time>2026-04-04T08:21:22.03Z</time></trkpt><trkpt lat="42.6648267" lon="13.2641833"><ele>789.0</ele><time>2026-04-04T08:21:23.029Z</time></trkpt><trkpt lat="42.66469" lon="13.2642467"><ele>789.0</ele><time>2026-04-04T08:21:24.03Z</time></trkpt><trkpt lat="42.6645517" lon="13.2643133"><ele>789.0</ele><time>2026-04-04T08:21:25.03Z</time></trkpt><trkpt lat="42.6644067" lon="13.26437"><ele>789.75</ele><time>2026-04-04T08:21:26.03Z</time></trkpt><trkpt lat="42.6642667" lon="13.2644367"><ele>790.5</ele><time>2026-04-04T08:21:27.03Z</time></trkpt><trkpt lat="42.66413" lon="13.264495"><ele>791.25</ele><time>2026-04-04T08:21:28.03Z</time></trkpt><trkpt lat="42.6639883" lon="13.2645417"><ele>792.0</ele><time>2026-04-04T08:21:29.03Z</time></trkpt><trkpt lat="42.6638617" lon="13.26457"><ele>792.0</ele><time>2026-04-04T08:21:30.03Z</time></trkpt><trkpt lat="42.6637317" lon="13.2645917"><ele>792.0</ele><time>2026-04-04T08:21:31.03Z</time></trkpt><trkpt lat="42.6636083" lon="13.2646033"><ele>792.0</ele><time>2026-04-04T08:21:32.03Z</time></trkpt><trkpt lat="42.6634867" lon="13.2646217"><ele>792.0</ele><time>2026-04-04T08:21:33.03Z</time></trkpt><trkpt lat="42.66338" lon="13.2646267"><ele>791.75</ele><time>2026-04-04T08:21:34.03Z</time></trkpt><trkpt lat="42.6632667" lon="13.264595"><ele>791.5</ele><time>2026-04-04T08:21:35.03Z</time></trkpt><trkpt lat="42.66316" lon="13.2645417"><ele>791.25</ele><time>2026-04-04T08:21:36.03Z</time></trkpt><trkpt lat="42.6630467" lon="13.2644683"><ele>791.0</ele><time>2026-04-04T08:21:37.03Z</time></trkpt><trkpt lat="42.66293" lon="13.2643817"><ele>791.0</ele><time>2026-04-04T08:21:38.03Z</time></trkpt><trkpt lat="42.6628267" lon="13.2642817"><ele>791.0</ele><time>2026-04-04T08:21:39.03Z</time></trkpt><trkpt lat="42.6627217" lon="13.264205"><ele>791.0</ele><time>2026-04-04T08:21:40.03Z</time></trkpt><trkpt lat="42.6626133" lon="13.2641417"><ele>791.0</ele><time>2026-04-04T08:21:41.03Z</time></trkpt><trkpt lat="42.6624983" lon="13.264085"><ele>790.25</ele><time>2026-04-04T08:21:42.03Z</time></trkpt><trkpt lat="42.6623733" lon="13.264065"><ele>789.5</ele><time>2026-04-04T08:21:43.03Z</time></trkpt><trkpt lat="42.6622467" lon="13.2640883"><ele>788.75</ele><time>2026-04-04T08:21:44.03Z</time></trkpt><trkpt lat="42.66212" lon="13.2641183"><ele>788.0</ele><time>2026-04-04T08:21:45.03Z</time></trkpt><trkpt lat="42.6620067" lon="13.26415"><ele>787.8</ele><time>2026-04-04T08:21:46.03Z</time></trkpt><trkpt lat="42.6618967" lon="13.264185"><ele>787.5999999999999</ele><time>2026-04-04T08:21:47.03Z</time></trkpt><trkpt lat="42.661795" lon="13.2642133"><ele>787.4000000000001</ele><time>2026-04-04T08:21:48.03Z</time></trkpt><trkpt lat="42.661695" lon="13.2642433"><ele>787.2</ele><time>2026-04-04T08:21:49.03Z</time></trkpt><trkpt lat="42.6616033" lon="13.264275"><ele>787.0</ele><time>2026-04-04T08:21:50.03Z</time></trkpt><trkpt lat="42.66152" lon="13.264315"><ele>787.0</ele><time>2026-04-04T08:21:51.03Z</time></trkpt><trkpt lat="42.66144" lon="13.264375"><ele>787.0</ele><time>2026-04-04T08:21:52.03Z</time></trkpt><trkpt lat="42.6613717" lon="13.2644533"><ele>787.0</ele><time>2026-04-04T08:21:53.03Z</time></trkpt><trkpt lat="42.66132" lon="13.2645533"><ele>787.0</ele><time>2026-04-04T08:21:54.03Z</time></trkpt><trkpt lat="42.6612717" lon="13.264665"><ele>787.0</ele><time>2026-04-04T08:21:55.029Z</time></trkpt><trkpt lat="42.66122" lon="13.26478"><ele>786.6</ele><time>2026-04-04T08:21:56.03Z</time></trkpt><trkpt lat="42.6611633" lon="13.2649017"><ele>786.2</ele><time>2026-04-04T08:21:57.03Z</time></trkpt><trkpt lat="42.6611033" lon="13.26503"><ele>785.8</ele><time>2026-04-04T08:21:58.03Z</time></trkpt><trkpt lat="42.6610467" lon="13.2651583"><ele>785.4</ele><time>2026-04-04T08:21:59.03Z</time></trkpt><trkpt lat="42.66099" lon="13.2652717"><ele>785.0</ele><time>2026-04-04T08:22:00.03Z</time></trkpt><trkpt lat="42.6609483" lon="13.2653783"><ele>786.1428571428572</ele><time>2026-04-04T08:22:01.03Z</time></trkpt><trkpt lat="42.6609133" lon="13.2654883"><ele>787.2857142857142</ele><time>2026-04-04T08:22:02.03Z</time></trkpt><trkpt lat="42.6608983" lon="13.2655983"><ele>788.4285714285714</ele><time>2026-04-04T08:22:03.03Z</time></trkpt><trkpt lat="42.6609067" lon="13.2656933"><ele>789.5714285714287</ele><time>2026-04-04T08:22:04.03Z</time></trkpt><trkpt lat="42.6609267" lon="13.2657783"><ele>790.7142857142858</ele><time>2026-04-04T08:22:05.03Z</time></trkpt><trkpt lat="42.6609617" lon="13.2658583"><ele>791.8571428571429</ele><time>2026-04-04T08:22:06.03Z</time></trkpt><trkpt lat="42.6609933" lon="13.265945"><ele>793.0</ele><time>2026-04-04T08:22:07.03Z</time></trkpt><trkpt lat="42.6610183" lon="13.2660417"><ele>793.3333333333333</ele><time>2026-04-04T08:22:08.03Z</time></trkpt><trkpt lat="42.6610283" lon="13.2661483"><ele>793.6666666666666</ele><time>2026-04-04T08:22:09.03Z</time></trkpt><trkpt lat="42.6610233" lon="13.2662583"><ele>794.0</ele><time>2026-04-04T08:22:10.03Z</time></trkpt><trkpt lat="42.6610117" lon="13.2663567"><ele>794.3333333333333</ele><time>2026-04-04T08:22:11.03Z</time></trkpt><trkpt lat="42.6609867" lon="13.2664633"><ele>794.6666666666666</ele><time>2026-04-04T08:22:12.03Z</time></trkpt><trkpt lat="42.6609583" lon="13.2665617"><ele>795.0</ele><time>2026-04-04T08:22:13.03Z</time></trkpt><trkpt lat="42.6609283" lon="13.2666533"><ele>795.1666666666666</ele><time>2026-04-04T08:22:14.03Z</time></trkpt><trkpt lat="42.6608867" lon="13.26674"><ele>795.3333333333333</ele><time>2026-04-04T08:22:15.03Z</time></trkpt><trkpt lat="42.6608383" lon="13.26682"><ele>795.5</ele><time>2026-04-04T08:22:16.03Z</time></trkpt><trkpt lat="42.66078" lon="13.266905"><ele>795.6666666666666</ele><time>2026-04-04T08:22:17.03Z</time></trkpt><trkpt lat="42.6607067" lon="13.26699"><ele>795.8333333333333</ele><time>2026-04-04T08:22:18.03Z</time></trkpt><trkpt lat="42.6606417" lon="13.2670717"><ele>796.0</ele><time>2026-04-04T08:22:19.03Z</time></trkpt><trkpt lat="42.66056" lon="13.2671483"><ele>796.0</ele><time>2026-04-04T08:22:20.03Z</time></trkpt><trkpt lat="42.660485" lon="13.26724"><ele>796.0</ele><time>2026-04-04T08:22:21.03Z</time></trkpt><trkpt lat="42.660405" lon="13.26733"><ele>796.0</ele><time>2026-04-04T08:22:22.03Z</time></trkpt><trkpt lat="42.6603233" lon="13.2674167"><ele>796.0</ele><time>2026-04-04T08:22:23.03Z</time></trkpt><trkpt lat="42.6602383" lon="13.2675133"><ele>796.0</ele><time>2026-04-04T08:22:24.03Z</time></trkpt><trkpt lat="42.660155" lon="13.2676"><ele>797.4</ele><time>2026-04-04T08:22:25.03Z</time></trkpt><trkpt lat="42.6600717" lon="13.2676783"><ele>798.8</ele><time>2026-04-04T08:22:26.03Z</time></trkpt><trkpt lat="42.659985" lon="13.2677467"><ele>800.1999999999999</ele><time>2026-04-04T08:22:27.03Z</time></trkpt><trkpt lat="42.6598933" lon="13.2678167"><ele>801.5999999999999</ele><time>2026-04-04T08:22:28.03Z</time></trkpt><trkpt lat="42.6598067" lon="13.267875"><ele>803.0</ele><time>2026-04-04T08:22:29.03Z</time></trkpt><trkpt lat="42.659715" lon="13.267925"><ele>803.0</ele><time>2026-04-04T08:22:30.03Z</time></trkpt><trkpt lat="42.65963" lon="13.2679917"><ele>803.0</ele><time>2026-04-04T08:22:31.03Z</time></trkpt><trkpt lat="42.65955" lon="13.2680683"><ele>803.0</ele><time>2026-04-04T08:22:32.03Z</time></trkpt><trkpt lat="42.659465" lon="13.2681433"><ele>803.0</ele><time>2026-04-04T08:22:33.03Z</time></trkpt><trkpt lat="42.6593817" lon="13.2682233"><ele>803.0</ele><time>2026-04-04T08:22:34.03Z</time></trkpt><trkpt lat="42.6592983" lon="13.268305"><ele>802.4</ele><time>2026-04-04T08:22:35.03Z</time></trkpt><trkpt lat="42.659215" lon="13.2683917"><ele>801.8</ele><time>2026-04-04T08:22:36.03Z</time></trkpt><trkpt lat="42.6591267" lon="13.2684767"><ele>801.2</ele><time>2026-04-04T08:22:37.03Z</time></trkpt><trkpt lat="42.6590333" lon="13.268555"><ele>800.6</ele><time>2026-04-04T08:22:38.03Z</time></trkpt><trkpt lat="42.6589467" lon="13.26863"><ele>800.0</ele><time>2026-04-04T08:22:39.03Z</time></trkpt><trkpt lat="42.6588517" lon="13.2686967"><ele>800.0</ele><time>2026-04-04T08:22:40.03Z</time></trkpt><trkpt lat="42.6587583" lon="13.268765"><ele>800.0</ele><time>2026-04-04T08:22:41.03Z</time></trkpt><trkpt lat="42.65866" lon="13.26881"><ele>800.0</ele><time>2026-04-04T08:22:42.03Z</time></trkpt><trkpt lat="42.6585567" lon="13.2688717"><ele>800.0</ele><time>2026-04-04T08:22:43.03Z</time></trkpt><trkpt lat="42.6584517" lon="13.26894"><ele>800.0</ele><time>2026-04-04T08:22:44.03Z</time></trkpt><trkpt lat="42.6583583" lon="13.2690217"><ele>800.4</ele><time>2026-04-04T08:22:45.03Z</time></trkpt><trkpt lat="42.6582767" lon="13.2691117"><ele>800.8</ele><time>2026-04-04T08:22:46.03Z</time></trkpt><trkpt lat="42.6582017" lon="13.2692167"><ele>801.2</ele><time>2026-04-04T08:22:47.029Z</time></trkpt><trkpt lat="42.658125" lon="13.2693367"><ele>801.6</ele><time>2026-04-04T08:22:48.03Z</time></trkpt><trkpt lat="42.6580533" lon="13.2694533"><ele>802.0</ele><time>2026-04-04T08:22:49.03Z</time></trkpt><trkpt lat="42.657975" lon="13.2695617"><ele>802.0</ele><time>2026-04-04T08:22:50.03Z</time></trkpt><trkpt lat="42.6578883" lon="13.2696733"><ele>802.0</ele><time>2026-04-04T08:22:51.03Z</time></trkpt><trkpt lat="42.6577867" lon="13.2697917"><ele>802.0</ele><time>2026-04-04T08:22:52.03Z</time></trkpt><trkpt lat="42.65768" lon="13.2699133"><ele>802.0</ele><time>2026-04-04T08:22:53.03Z</time></trkpt><trkpt lat="42.657575" lon="13.2700233"><ele>804.0</ele><time>2026-04-04T08:22:54.03Z</time></trkpt><trkpt lat="42.657475" lon="13.27015"><ele>806.0</ele><time>2026-04-04T08:22:55.03Z</time></trkpt><trkpt lat="42.6573783" lon="13.2702817"><ele>808.0</ele><time>2026-04-04T08:22:56.03Z</time></trkpt><trkpt lat="42.6572767" lon="13.2704067"><ele>810.0</ele><time>2026-04-04T08:22:57.03Z</time></trkpt><trkpt lat="42.6571667" lon="13.2705233"><ele>809.0</ele><time>2026-04-04T08:22:58.03Z</time></trkpt><trkpt lat="42.65707" lon="13.27065"><ele>808.0</ele><time>2026-04-04T08:22:59.03Z</time></trkpt><trkpt lat="42.656975" lon="13.2707717"><ele>807.0</ele><time>2026-04-04T08:23:00.029Z</time></trkpt><trkpt lat="42.6568833" lon="13.270895"><ele>806.0</ele><time>2026-04-04T08:23:01.03Z</time></trkpt><trkpt lat="42.65679" lon="13.2710167"><ele>806.0</ele><time>2026-04-04T08:23:02.029Z</time></trkpt><trkpt lat="42.656695" lon="13.2711317"><ele>806.0</ele><time>2026-04-04T08:23:03.03Z</time></trkpt><trkpt lat="42.6565867" lon="13.2712333"><ele>806.0</ele><time>2026-04-04T08:23:04.03Z</time></trkpt><trkpt lat="42.6564633" lon="13.2713183"><ele>806.0</ele><time>2026-04-04T08:23:05.03Z</time></trkpt><trkpt lat="42.656335" lon="13.2713817"><ele>806.0</ele><time>2026-04-04T08:23:06.03Z</time></trkpt><trkpt lat="42.6562017" lon="13.2714233"><ele>806.0</ele><time>2026-04-04T08:23:07.03Z</time></trkpt><trkpt lat="42.6560633" lon="13.2714583"><ele>806.0</ele><time>2026-04-04T08:23:08.03Z</time></trkpt><trkpt lat="42.655915" lon="13.27149"><ele>806.0</ele><time>2026-04-04T08:23:09.029Z</time></trkpt><trkpt lat="42.65577" lon="13.2715117"><ele>804.3333333333334</ele><time>2026-04-04T08:23:10.03Z</time></trkpt><trkpt lat="42.655615" lon="13.2715433"><ele>802.6666666666667</ele><time>2026-04-04T08:23:11.03Z</time></trkpt><trkpt lat="42.655465" lon="13.271575"><ele>801.0</ele><time>2026-04-04T08:23:12.03Z</time></trkpt><trkpt lat="42.655315" lon="13.2716"><ele>803.3333333333333</ele><time>2026-04-04T08:23:13.03Z</time></trkpt><trkpt lat="42.6551617" lon="13.2716283"><ele>805.6666666666666</ele><time>2026-04-04T08:23:14.03Z</time></trkpt><trkpt lat="42.65501" lon="13.2716633"><ele>808.0</ele><time>2026-04-04T08:23:15.03Z</time></trkpt><trkpt lat="42.65486" lon="13.2717083"><ele>808.0</ele><time>2026-04-04T08:23:16.03Z</time></trkpt><trkpt lat="42.6547133" lon="13.27174"><ele>808.0</ele><time>2026-04-04T08:23:17.03Z</time></trkpt><trkpt lat="42.65457" lon="13.2717717"><ele>808.0</ele><time>2026-04-04T08:23:18.03Z</time></trkpt><trkpt lat="42.6544367" lon="13.2718033"><ele>808.0</ele><time>2026-04-04T08:23:19.03Z</time></trkpt><trkpt lat="42.65431" lon="13.271835"><ele>810.0</ele><time>2026-04-04T08:23:20.03Z</time></trkpt><trkpt lat="42.65418" lon="13.2718583"><ele>812.0</ele><time>2026-04-04T08:23:21.03Z</time></trkpt><trkpt lat="42.6540467" lon="13.2718767"><ele>814.0</ele><time>2026-04-04T08:23:22.03Z</time></trkpt><trkpt lat="42.6539183" lon="13.2718833"><ele>816.0</ele><time>2026-04-04T08:23:23.03Z</time></trkpt><trkpt lat="42.6537833" lon="13.27187"><ele>816.0</ele><time>2026-04-04T08:23:24.03Z</time></trkpt><trkpt lat="42.65365" lon="13.271855"><ele>816.0</ele><time>2026-04-04T08:23:25.03Z</time></trkpt><trkpt lat="42.65352" lon="13.2718317"><ele>816.0</ele><time>2026-04-04T08:23:26.029Z</time></trkpt><trkpt lat="42.6533933" lon="13.27181"><ele>816.0</ele><time>2026-04-04T08:23:27.03Z</time></trkpt><trkpt lat="42.653265" lon="13.2717883"><ele>819.0</ele><time>2026-04-04T08:23:28.03Z</time></trkpt><trkpt lat="42.6531467" lon="13.2717683"><ele>822.0</ele><time>2026-04-04T08:23:29.03Z</time></trkpt><trkpt lat="42.6530417" lon="13.2717567"><ele>825.0</ele><time>2026-04-04T08:23:30.03Z</time></trkpt><trkpt lat="42.6529367" lon="13.2717483"><ele>828.0</ele><time>2026-04-04T08:23:31.03Z</time></trkpt><trkpt lat="42.6528383" lon="13.27175"><ele>831.0</ele><time>2026-04-04T08:23:32.03Z</time></trkpt><trkpt lat="42.6527517" lon="13.2717583"><ele>832.0</ele><time>2026-04-04T08:23:33.03Z</time></trkpt><trkpt lat="42.652675" lon="13.2717667"><ele>833.0</ele><time>2026-04-04T08:23:34.03Z</time></trkpt><trkpt lat="42.6525833" lon="13.271785"><ele>834.0</ele><time>2026-04-04T08:23:36.03Z</time></trkpt><trkpt lat="42.6525" lon="13.2718233"><ele>835.0</ele><time>2026-04-04T08:23:39.03Z</time></trkpt><trkpt lat="42.6524417" lon="13.271865"><ele>836.0</ele><time>2026-04-04T08:24:14.03Z</time></trkpt><trkpt lat="42.6523567" lon="13.2718417"><ele>837.0</ele><time>2026-04-04T08:24:18.03Z</time></trkpt><trkpt lat="42.652255" lon="13.2718383"><ele>837.0</ele><time>2026-04-04T08:24:20.03Z</time></trkpt><trkpt lat="42.6521817" lon="13.2718467"><ele>837.0</ele><time>2026-04-04T08:24:21.03Z</time></trkpt><trkpt lat="42.6521117" lon="13.271855"><ele>837.0</ele><time>2026-04-04T08:24:22.03Z</time></trkpt><trkpt lat="42.65204" lon="13.271855"><ele>837.0</ele><time>2026-04-04T08:24:23.03Z</time></trkpt><trkpt lat="42.651975" lon="13.2718633"><ele>837.0</ele><time>2026-04-04T08:24:24.029Z</time></trkpt><trkpt lat="42.6518767" lon="13.2718817"><ele>837.0</ele><time>2026-04-04T08:24:26.03Z</time></trkpt><trkpt lat="42.6517983" lon="13.2718783"><ele>836.5</ele><time>2026-04-04T08:24:28.029Z</time></trkpt><trkpt lat="42.651705" lon="13.27187"><ele>836.0</ele><time>2026-04-04T08:24:30.03Z</time></trkpt><trkpt lat="42.6515867" lon="13.2718583"><ele>835.5</ele><time>2026-04-04T08:24:32.03Z</time></trkpt><trkpt lat="42.651515" lon="13.271855"><ele>835.0</ele><time>2026-04-04T08:24:33.03Z</time></trkpt><trkpt lat="42.6514417" lon="13.271855"><ele>834.5</ele><time>2026-04-04T08:24:34.03Z</time></trkpt><trkpt lat="42.6513717" lon="13.2718517"><ele>834.0</ele><time>2026-04-04T08:24:35.03Z</time></trkpt><trkpt lat="42.6513067" lon="13.2718267"><ele>834.0</ele><time>2026-04-04T08:24:36.03Z</time></trkpt><trkpt lat="42.6512417" lon="13.2717917"><ele>834.0</ele><time>2026-04-04T08:24:37.03Z</time></trkpt><trkpt lat="42.6511783" lon="13.2717583"><ele>834.0</ele><time>2026-04-04T08:24:38.03Z</time></trkpt><trkpt lat="42.6511067" lon="13.2717333"><ele>834.0</ele><time>2026-04-04T08:24:39.03Z</time></trkpt><trkpt lat="42.6510333" lon="13.2717133"><ele>834.0</ele><time>2026-04-04T08:24:40.03Z</time></trkpt><trkpt lat="42.65096" lon="13.2716967"><ele>834.0</ele><time>2026-04-04T08:24:41.03Z</time></trkpt><trkpt lat="42.6508817" lon="13.2716917"><ele>834.0</ele><time>2026-04-04T08:24:42.03Z</time></trkpt><trkpt lat="42.6508133" lon="13.2716883"><ele>833.1666666666666</ele><time>2026-04-04T08:24:43.03Z</time></trkpt><trkpt lat="42.6507467" lon="13.27169"><ele>832.3333333333333</ele><time>2026-04-04T08:24:44.03Z</time></trkpt><trkpt lat="42.6506383" lon="13.27172"><ele>831.5</ele><time>2026-04-04T08:24:46.03Z</time></trkpt><trkpt lat="42.6505433" lon="13.2717817"><ele>830.6666666666666</ele><time>2026-04-04T08:24:48.03Z</time></trkpt><trkpt lat="42.650485" lon="13.271835"><ele>829.8333333333333</ele><time>2026-04-04T08:24:49.03Z</time></trkpt><trkpt lat="42.6504217" lon="13.2719033"><ele>829.0</ele><time>2026-04-04T08:24:50.03Z</time></trkpt><trkpt lat="42.65036" lon="13.271975"><ele>828.9999999999999</ele><time>2026-04-04T08:24:51.029Z</time></trkpt><trkpt lat="42.6503" lon="13.2720483"><ele>829.0</ele><time>2026-04-04T08:24:52.03Z</time></trkpt><trkpt lat="42.65021" lon="13.2721567"><ele>829.0</ele><time>2026-04-04T08:24:54.03Z</time></trkpt><trkpt lat="42.65015" lon="13.2721917"><ele>829.0</ele><time>2026-04-04T08:24:56.03Z</time></trkpt><trkpt lat="42.6502" lon="13.27211"><ele>828.9999999999999</ele><time>2026-04-04T08:25:05.03Z</time></trkpt><trkpt lat="42.6502783" lon="13.2720183"><ele>829.0</ele><time>2026-04-04T08:25:07.03Z</time></trkpt><trkpt lat="42.6503417" lon="13.2719583"><ele>829.0</ele><time>2026-04-04T08:25:08.03Z</time></trkpt><trkpt lat="42.6504133" lon="13.2718833"><ele>829.0</ele><time>2026-04-04T08:25:09.03Z</time></trkpt><trkpt lat="42.6504983" lon="13.27181"><ele>829.0</ele><time>2026-04-04T08:25:10.03Z</time></trkpt><trkpt lat="42.6505867" lon="13.271755"><ele>829.0</ele><time>2026-04-04T08:25:11.03Z</time></trkpt><trkpt lat="42.6506917" lon="13.2717267"><ele>829.0</ele><time>2026-04-04T08:25:12.03Z</time></trkpt><trkpt lat="42.65079" lon="13.2717067"><ele>829.0</ele><time>2026-04-04T08:25:13.03Z</time></trkpt><trkpt lat="42.6508867" lon="13.2716917"><ele>829.0</ele><time>2026-04-04T08:25:14.03Z</time></trkpt><trkpt lat="42.6509917" lon="13.271695"><ele>829.0</ele><time>2026-04-04T08:25:15.03Z</time></trkpt><trkpt lat="42.6512" lon="13.2717717"><ele>829.0</ele><time>2026-04-04T08:25:17.03Z</time></trkpt><trkpt lat="42.65129" lon="13.2718233"><ele>829.8333333333333</ele><time>2026-04-04T08:25:18.03Z</time></trkpt><trkpt lat="42.6513783" lon="13.27185"><ele>830.6666666666666</ele><time>2026-04-04T08:25:19.03Z</time></trkpt><trkpt lat="42.6514667" lon="13.2718633"><ele>831.5</ele><time>2026-04-04T08:25:20.03Z</time></trkpt><trkpt lat="42.6515517" lon="13.2718667"><ele>832.3333333333333</ele><time>2026-04-04T08:25:21.03Z</time></trkpt><trkpt lat="42.65164" lon="13.2718633"><ele>833.1666666666666</ele><time>2026-04-04T08:25:22.03Z</time></trkpt><trkpt lat="42.6517267" lon="13.27186"><ele>834.0</ele><time>2026-04-04T08:25:23.03Z</time></trkpt><trkpt lat="42.6518117" lon="13.271855"><ele>834.0</ele><time>2026-04-04T08:25:24.03Z</time></trkpt><trkpt lat="42.651895" lon="13.271835"><ele>834.0</ele><time>2026-04-04T08:25:25.03Z</time></trkpt><trkpt lat="42.6519783" lon="13.2718183"><ele>834.0</ele><time>2026-04-04T08:25:26.03Z</time></trkpt><trkpt lat="42.6520617" lon="13.2718"><ele>834.0</ele><time>2026-04-04T08:25:27.03Z</time></trkpt><trkpt lat="42.6521467" lon="13.271775"><ele>834.0</ele><time>2026-04-04T08:25:28.029Z</time></trkpt><trkpt lat="42.6522267" lon="13.2717533"><ele>834.0</ele><time>2026-04-04T08:25:29.03Z</time></trkpt><trkpt lat="42.6523" lon="13.2717333"><ele>834.5</ele><time>2026-04-04T08:25:30.03Z</time></trkpt><trkpt lat="42.6524083" lon="13.2717517"><ele>835.0</ele><time>2026-04-04T08:25:32.03Z</time></trkpt><trkpt lat="42.65246" lon="13.271805"><ele>835.5</ele><time>2026-04-04T08:25:34.029Z</time></trkpt><trkpt lat="42.6525533" lon="13.2718117"><ele>836.0</ele><time>2026-04-04T08:25:37.03Z</time></trkpt><trkpt lat="42.652625" lon="13.27179"><ele>836.5</ele><time>2026-04-04T08:25:39.03Z</time></trkpt><trkpt lat="42.6526967" lon="13.2717567"><ele>837.0</ele><time>2026-04-04T08:25:41.03Z</time></trkpt><trkpt lat="42.6527783" lon="13.2717533"><ele>836.0</ele><time>2026-04-04T08:25:43.03Z</time></trkpt><trkpt lat="42.6528617" lon="13.27175"><ele>835.0</ele><time>2026-04-04T08:25:45.029Z</time></trkpt><trkpt lat="42.6529417" lon="13.27175"><ele>834.0</ele><time>2026-04-04T08:25:47.03Z</time></trkpt><trkpt lat="42.6530167" lon="13.271755"><ele>833.0</ele><time>2026-04-04T08:25:49.03Z</time></trkpt><trkpt lat="42.6530933" lon="13.2717633"><ele>832.0</ele><time>2026-04-04T08:25:51.03Z</time></trkpt><trkpt lat="42.6531683" lon="13.2717817"><ele>831.0</ele><time>2026-04-04T08:25:53.03Z</time></trkpt><trkpt lat="42.6532333" lon="13.2717883"><ele>831.0</ele><time>2026-04-04T08:25:55.03Z</time></trkpt><trkpt lat="42.6533267" lon="13.2718033"><ele>831.0</ele><time>2026-04-04T08:25:57.03Z</time></trkpt><trkpt lat="42.653435" lon="13.2718467"><ele>831.0</ele><time>2026-04-04T08:25:59.029Z</time></trkpt><trkpt lat="42.653555" lon="13.2718833"><ele>831.0</ele><time>2026-04-04T08:26:01.03Z</time></trkpt><trkpt lat="42.6536283" lon="13.2718833"><ele>831.0</ele><time>2026-04-04T08:26:02.03Z</time></trkpt><trkpt lat="42.6537033" lon="13.2718867"><ele>828.5</ele><time>2026-04-04T08:26:03.03Z</time></trkpt><trkpt lat="42.6537817" lon="13.2718933"><ele>826.0</ele><time>2026-04-04T08:26:04.03Z</time></trkpt><trkpt lat="42.65386" lon="13.2719"><ele>823.5</ele><time>2026-04-04T08:26:05.03Z</time></trkpt><trkpt lat="42.6539467" lon="13.2718933"><ele>821.0</ele><time>2026-04-04T08:26:06.03Z</time></trkpt><trkpt lat="42.654035" lon="13.2718817"><ele>818.5</ele><time>2026-04-04T08:26:07.03Z</time></trkpt><trkpt lat="42.6541317" lon="13.271865"><ele>816.0</ele><time>2026-04-04T08:26:08.03Z</time></trkpt><trkpt lat="42.6542333" lon="13.2718483"><ele>816.0</ele><time>2026-04-04T08:26:09.03Z</time></trkpt><trkpt lat="42.65433" lon="13.2718317"><ele>816.0</ele><time>2026-04-04T08:26:10.03Z</time></trkpt><trkpt lat="42.6544317" lon="13.271815"><ele>816.0</ele><time>2026-04-04T08:26:11.03Z</time></trkpt><trkpt lat="42.6545367" lon="13.271785"><ele>816.0</ele><time>2026-04-04T08:26:12.03Z</time></trkpt><trkpt lat="42.654645" lon="13.2717617"><ele>816.0</ele><time>2026-04-04T08:26:13.03Z</time></trkpt><trkpt lat="42.6547583" lon="13.2717467"><ele>814.0</ele><time>2026-04-04T08:26:14.03Z</time></trkpt><trkpt lat="42.6548683" lon="13.2717267"><ele>812.0</ele><time>2026-04-04T08:26:15.03Z</time></trkpt><trkpt lat="42.65498" lon="13.2717"><ele>810.0</ele><time>2026-04-04T08:26:16.03Z</time></trkpt><trkpt lat="42.6551" lon="13.2716667"><ele>808.0</ele><time>2026-04-04T08:26:17.03Z</time></trkpt><trkpt lat="42.6553533" lon="13.2716367"><ele>804.5</ele><time>2026-04-04T08:26:19.03Z</time></trkpt><trkpt lat="42.65562" lon="13.2715867"><ele>801.0</ele><time>2026-04-04T08:26:21.03Z</time></trkpt><trkpt lat="42.6558833" lon="13.27151"><ele>798.5</ele><time>2026-04-04T08:26:23.03Z</time></trkpt><trkpt lat="42.6561267" lon="13.2714633"><ele>796.0</ele><time>2026-04-04T08:26:25.03Z</time></trkpt><trkpt lat="42.6563533" lon="13.2713983"><ele>801.0</ele><time>2026-04-04T08:26:27.03Z</time></trkpt><trkpt lat="42.6565717" lon="13.271285"><ele>806.0</ele><time>2026-04-04T08:26:29.03Z</time></trkpt><trkpt lat="42.656785" lon="13.271075"><ele>808.0</ele><time>2026-04-04T08:26:31.03Z</time></trkpt><trkpt lat="42.6569733" lon="13.2707967"><ele>810.0</ele><time>2026-04-04T08:26:33.03Z</time></trkpt><trkpt lat="42.6571633" lon="13.270525"><ele>810.0</ele><time>2026-04-04T08:26:35.03Z</time></trkpt><trkpt lat="42.6573733" lon="13.2702517"><ele>810.0</ele><time>2026-04-04T08:26:37.03Z</time></trkpt><trkpt lat="42.6575883" lon="13.2699833"><ele>806.0</ele><time>2026-04-04T08:26:39.03Z</time></trkpt><trkpt lat="42.657785" lon="13.2697517"><ele>802.0</ele><time>2026-04-04T08:26:41.029Z</time></trkpt><trkpt lat="42.6579733" lon="13.2694983"><ele>802.0</ele><time>2026-04-04T08:26:43.03Z</time></trkpt><trkpt lat="42.658155" lon="13.26922"><ele>802.0</ele><time>2026-04-04T08:26:45.03Z</time></trkpt><trkpt lat="42.6583433" lon="13.2689617"><ele>801.0</ele><time>2026-04-04T08:26:47.03Z</time></trkpt><trkpt lat="42.6585683" lon="13.2687817"><ele>800.0</ele><time>2026-04-04T08:26:49.03Z</time></trkpt><trkpt lat="42.6587883" lon="13.26865"><ele>800.0</ele><time>2026-04-04T08:26:51.03Z</time></trkpt><trkpt lat="42.6589967" lon="13.26852"><ele>800.0</ele><time>2026-04-04T08:26:53.03Z</time></trkpt><trkpt lat="42.659205" lon="13.2683483"><ele>800.0</ele><time>2026-04-04T08:26:55.03Z</time></trkpt><trkpt lat="42.659425" lon="13.268155"><ele>800.0</ele><time>2026-04-04T08:26:57.03Z</time></trkpt><trkpt lat="42.6596217" lon="13.2679983"><ele>801.5</ele><time>2026-04-04T08:26:59.03Z</time></trkpt><trkpt lat="42.6598383" lon="13.267835"><ele>803.0</ele><time>2026-04-04T08:27:01.03Z</time></trkpt><trkpt lat="42.6600567" lon="13.26767"><ele>803.0</ele><time>2026-04-04T08:27:03.03Z</time></trkpt><trkpt lat="42.6602683" lon="13.26747"><ele>803.0</ele><time>2026-04-04T08:27:05.03Z</time></trkpt><trkpt lat="42.660485" lon="13.26725"><ele>799.5</ele><time>2026-04-04T08:27:07.03Z</time></trkpt><trkpt lat="42.66069" lon="13.2669883"><ele>796.0</ele><time>2026-04-04T08:27:09.03Z</time></trkpt><trkpt lat="42.66086" lon="13.2667733"><ele>796.0</ele><time>2026-04-04T08:27:11.03Z</time></trkpt><trkpt lat="42.6609817" lon="13.26652"><ele>796.0</ele><time>2026-04-04T08:27:13.03Z</time></trkpt><trkpt lat="42.6610483" lon="13.2661683"><ele>795.5</ele><time>2026-04-04T08:27:15.03Z</time></trkpt><trkpt lat="42.6610067" lon="13.26584"><ele>795.0</ele><time>2026-04-04T08:27:17.03Z</time></trkpt><trkpt lat="42.660945" lon="13.2655433"><ele>794.0</ele><time>2026-04-04T08:27:19.03Z</time></trkpt><trkpt lat="42.661" lon="13.26524"><ele>793.0</ele><time>2026-04-04T08:27:21.03Z</time></trkpt><trkpt lat="42.6611367" lon="13.2649483"><ele>790.0</ele><time>2026-04-04T08:27:23.03Z</time></trkpt><trkpt lat="42.661275" lon="13.2646817"><ele>787.0</ele><time>2026-04-04T08:27:25.03Z</time></trkpt><trkpt lat="42.661425" lon="13.2644483"><ele>787.0</ele><time>2026-04-04T08:27:27.03Z</time></trkpt><trkpt lat="42.661615" lon="13.2643067"><ele>787.0</ele><time>2026-04-04T08:27:29.03Z</time></trkpt><trkpt lat="42.6618367" lon="13.2642383"><ele>787.0</ele><time>2026-04-04T08:27:31.03Z</time></trkpt><trkpt lat="42.6620933" lon="13.2641683"><ele>787.5</ele><time>2026-04-04T08:27:33.03Z</time></trkpt><trkpt lat="42.6623467" lon="13.2641117"><ele>788.0</ele><time>2026-04-04T08:27:35.03Z</time></trkpt><trkpt lat="42.662595" lon="13.264145"><ele>789.5</ele><time>2026-04-04T08:27:37.03Z</time></trkpt><trkpt lat="42.6628117" lon="13.2642683"><ele>791.0</ele><time>2026-04-04T08:27:39.03Z</time></trkpt><trkpt lat="42.6629967" lon="13.26445"><ele>791.0</ele><time>2026-04-04T08:27:41.03Z</time></trkpt><trkpt lat="42.6632" lon="13.2645833"><ele>791.0</ele><time>2026-04-04T08:27:43.029Z</time></trkpt><trkpt lat="42.6634417" lon="13.2646183"><ele>791.5</ele><time>2026-04-04T08:27:45.03Z</time></trkpt><trkpt lat="42.6636683" lon="13.2645983"><ele>792.0</ele><time>2026-04-04T08:27:47.03Z</time></trkpt><trkpt lat="42.66392" lon="13.26457"><ele>792.0</ele><time>2026-04-04T08:27:49.03Z</time></trkpt><trkpt lat="42.6641683" lon="13.2644917"><ele>792.0</ele><time>2026-04-04T08:27:51.03Z</time></trkpt><trkpt lat="42.6644367" lon="13.2643967"><ele>790.5</ele><time>2026-04-04T08:27:53.03Z</time></trkpt><trkpt lat="42.6647" lon="13.26428"><ele>789.0</ele><time>2026-04-04T08:27:55.03Z</time></trkpt><trkpt lat="42.664945" lon="13.2641617"><ele>789.0</ele><time>2026-04-04T08:27:57.03Z</time></trkpt><trkpt lat="42.6652217" lon="13.2639717"><ele>789.0</ele><time>2026-04-04T08:27:59.03Z</time></trkpt><trkpt lat="42.6654917" lon="13.263785"><ele>792.5</ele><time>2026-04-04T08:28:01.029Z</time></trkpt><trkpt lat="42.665765" lon="13.26358"><ele>796.0</ele><time>2026-04-04T08:28:03.03Z</time></trkpt><trkpt lat="42.6660517" lon="13.2634167"><ele>791.5</ele><time>2026-04-04T08:28:05.03Z</time></trkpt><trkpt lat="42.6663283" lon="13.26328"><ele>787.0</ele><time>2026-04-04T08:28:07.03Z</time></trkpt><trkpt lat="42.6666467" lon="13.263215"><ele>785.5</ele><time>2026-04-04T08:28:09.03Z</time></trkpt><trkpt lat="42.6669717" lon="13.2632183"><ele>784.0</ele><time>2026-04-04T08:28:11.03Z</time></trkpt><trkpt lat="42.6673017" lon="13.26328"><ele>784.0</ele><time>2026-04-04T08:28:13.03Z</time></trkpt><trkpt lat="42.66762" lon="13.2633333"><ele>784.0</ele><time>2026-04-04T08:28:15.03Z</time></trkpt><trkpt lat="42.6679383" lon="13.2633517"><ele>786.5</ele><time>2026-04-04T08:28:17.03Z</time></trkpt><trkpt lat="42.6682633" lon="13.2633583"><ele>789.0</ele><time>2026-04-04T08:28:19.03Z</time></trkpt><trkpt lat="42.6685783" lon="13.26338"><ele>785.0</ele><time>2026-04-04T08:28:21.029Z</time></trkpt><trkpt lat="42.6688967" lon="13.2634283"><ele>781.0</ele><time>2026-04-04T08:28:23.03Z</time></trkpt><trkpt lat="42.6691733" lon="13.2634267"><ele>781.0</ele><time>2026-04-04T08:28:25.03Z</time></trkpt><trkpt lat="42.669425" lon="13.2633367"><ele>781.0</ele><time>2026-04-04T08:28:27.03Z</time></trkpt><trkpt lat="42.6696183" lon="13.263085"><ele>781.0</ele><time>2026-04-04T08:28:29.03Z</time></trkpt><trkpt lat="42.669795" lon="13.2627567"><ele>781.0</ele><time>2026-04-04T08:28:31.03Z</time></trkpt><trkpt lat="42.6700083" lon="13.2624633"><ele>790.0</ele><time>2026-04-04T08:28:33.03Z</time></trkpt><trkpt lat="42.6702467" lon="13.262255"><ele>799.0</ele><time>2026-04-04T08:28:35.03Z</time></trkpt><trkpt lat="42.670505" lon="13.2622117"><ele>799.3333333333333</ele><time>2026-04-04T08:28:37.029Z</time></trkpt><trkpt lat="42.6707" lon="13.2622783"><ele>799.6666666666667</ele><time>2026-04-04T08:28:39.03Z</time></trkpt><trkpt lat="42.67081" lon="13.262385"><ele>800.0</ele><time>2026-04-04T08:28:41.03Z</time></trkpt><trkpt lat="42.6708467" lon="13.2625883"><ele>792.0</ele><time>2026-04-04T08:28:43.03Z</time></trkpt><trkpt lat="42.6708517" lon="13.2627333"><ele>784.0</ele><time>2026-04-04T08:28:44.03Z</time></trkpt><trkpt lat="42.6708867" lon="13.263065"><ele>776.0</ele><time>2026-04-04T08:28:46.03Z</time></trkpt><trkpt lat="42.6709283" lon="13.26341"><ele>771.0</ele><time>2026-04-04T08:28:48.03Z</time></trkpt><trkpt lat="42.6709683" lon="13.2637583"><ele>766.0</ele><time>2026-04-04T08:28:50.03Z</time></trkpt><trkpt lat="42.6709867" lon="13.2640983"><ele>766.0</ele><time>2026-04-04T08:28:52.03Z</time></trkpt><trkpt lat="42.6709833" lon="13.2644083"><ele>766.0</ele><time>2026-04-04T08:28:54.03Z</time></trkpt><trkpt lat="42.67092" lon="13.2647333"><ele>768.0</ele><time>2026-04-04T08:28:56.03Z</time></trkpt><trkpt lat="42.6708067" lon="13.265035"><ele>770.0</ele><time>2026-04-04T08:28:58.03Z</time></trkpt><trkpt lat="42.67065" lon="13.2652867"><ele>770.0</ele><time>2026-04-04T08:29:00.03Z</time></trkpt><trkpt lat="42.67046" lon="13.26551"><ele>770.0</ele><time>2026-04-04T08:29:02.03Z</time></trkpt><trkpt lat="42.67036" lon="13.26561"><ele>770.0</ele><time>2026-04-04T08:29:03.03Z</time></trkpt><trkpt lat="42.6702617" lon="13.2656967"><ele>771.4</ele><time>2026-04-04T08:29:04.03Z</time></trkpt><trkpt lat="42.6701633" lon="13.2657533"><ele>772.8</ele><time>2026-04-04T08:29:05.03Z</time></trkpt><trkpt lat="42.6700667" lon="13.26579"><ele>774.2</ele><time>2026-04-04T08:29:06.029Z</time></trkpt><trkpt lat="42.6699683" lon="13.265805"><ele>775.6</ele><time>2026-04-04T08:29:07.03Z</time></trkpt><trkpt lat="42.6698617" lon="13.2657983"><ele>777.0</ele><time>2026-04-04T08:29:08.03Z</time></trkpt><trkpt lat="42.6697367" lon="13.2657933"><ele>777.0</ele><time>2026-04-04T08:29:09.03Z</time></trkpt><trkpt lat="42.669605" lon="13.265765"><ele>777.0</ele><time>2026-04-04T08:29:10.03Z</time></trkpt><trkpt lat="42.6694633" lon="13.2657233"><ele>777.0</ele><time>2026-04-04T08:29:11.03Z</time></trkpt><trkpt lat="42.6693167" lon="13.2656617"><ele>777.0</ele><time>2026-04-04T08:29:12.03Z</time></trkpt><trkpt lat="42.6691667" lon="13.2655833"><ele>774.6666666666667</ele><time>2026-04-04T08:29:13.03Z</time></trkpt><trkpt lat="42.6690233" lon="13.2654933"><ele>772.3333333333334</ele><time>2026-04-04T08:29:14.03Z</time></trkpt><trkpt lat="42.6688767" lon="13.26539"><ele>770.0</ele><time>2026-04-04T08:29:15.03Z</time></trkpt><trkpt lat="42.668725" lon="13.2652817"><ele>772.0</ele><time>2026-04-04T08:29:16.031Z</time></trkpt><trkpt lat="42.66857" lon="13.2651833"><ele>774.0</ele><time>2026-04-04T08:29:17.031Z</time></trkpt><trkpt lat="42.6684167" lon="13.2650733"><ele>776.0</ele><time>2026-04-04T08:29:18.031Z</time></trkpt><trkpt lat="42.6682683" lon="13.26496"><ele>776.0</ele><time>2026-04-04T08:29:19.031Z</time></trkpt><trkpt lat="42.6681183" lon="13.2648617"><ele>776.0</ele><time>2026-04-04T08:29:20.031Z</time></trkpt><trkpt lat="42.667975" lon="13.2647733"><ele>776.0</ele><time>2026-04-04T08:29:21.031Z</time></trkpt><trkpt lat="42.6678267" lon="13.264695"><ele>777.0</ele><time>2026-04-04T08:29:22.031Z</time></trkpt><trkpt lat="42.667685" lon="13.264615"><ele>778.0</ele><time>2026-04-04T08:29:23.031Z</time></trkpt><trkpt lat="42.66754" lon="13.2645417"><ele>779.0</ele><time>2026-04-04T08:29:24.031Z</time></trkpt><trkpt lat="42.667375" lon="13.2644817"><ele>779.0</ele><time>2026-04-04T08:29:25.031Z</time></trkpt><trkpt lat="42.667205" lon="13.2644267"><ele>779.0</ele><time>2026-04-04T08:29:26.031Z</time></trkpt><trkpt lat="42.6670367" lon="13.264385"><ele>779.0</ele><time>2026-04-04T08:29:27.031Z</time></trkpt><trkpt lat="42.666865" lon="13.2643367"><ele>779.3333333333334</ele><time>2026-04-04T08:29:28.031Z</time></trkpt><trkpt lat="42.666685" lon="13.2643017"><ele>779.6666666666667</ele><time>2026-04-04T08:29:29.031Z</time></trkpt><trkpt lat="42.6665" lon="13.2642967"><ele>780.0</ele><time>2026-04-04T08:29:30.031Z</time></trkpt><trkpt lat="42.66631" lon="13.2643017"><ele>780.0</ele><time>2026-04-04T08:29:31.031Z</time></trkpt><trkpt lat="42.6661233" lon="13.2643283"><ele>780.0</ele><time>2026-04-04T08:29:32.031Z</time></trkpt><trkpt lat="42.665945" lon="13.2643767"><ele>780.0</ele><time>2026-04-04T08:29:33.031Z</time></trkpt><trkpt lat="42.6657567" lon="13.264425"><ele>780.3333333333333</ele><time>2026-04-04T08:29:34.031Z</time></trkpt><trkpt lat="42.6655717" lon="13.264505"><ele>780.6666666666666</ele><time>2026-04-04T08:29:35.031Z</time></trkpt><trkpt lat="42.66539" lon="13.264605"><ele>781.0</ele><time>2026-04-04T08:29:36.031Z</time></trkpt><trkpt lat="42.66522" lon="13.2647183"><ele>781.0</ele><time>2026-04-04T08:29:37.031Z</time></trkpt><trkpt lat="42.6650533" lon="13.2648233"><ele>781.0</ele><time>2026-04-04T08:29:38.031Z</time></trkpt><trkpt lat="42.6648933" lon="13.26494"><ele>781.0</ele><time>2026-04-04T08:29:39.031Z</time></trkpt><trkpt lat="42.6647367" lon="13.265075"><ele>781.0</ele><time>2026-04-04T08:29:40.031Z</time></trkpt><trkpt lat="42.6645867" lon="13.2652283"><ele>781.0</ele><time>2026-04-04T08:29:41.031Z</time></trkpt><trkpt lat="42.664445" lon="13.2653767"><ele>781.0</ele><time>2026-04-04T08:29:42.031Z</time></trkpt><trkpt lat="42.66432" lon="13.2655517"><ele>780.6666666666666</ele><time>2026-04-04T08:29:43.031Z</time></trkpt><trkpt lat="42.6641983" lon="13.26573"><ele>780.3333333333333</ele><time>2026-04-04T08:29:44.031Z</time></trkpt><trkpt lat="42.664085" lon="13.2659083"><ele>780.0</ele><time>2026-04-04T08:29:45.031Z</time></trkpt><trkpt lat="42.6639783" lon="13.2661033"><ele>780.0</ele><time>2026-04-04T08:29:46.031Z</time></trkpt><trkpt lat="42.6638783" lon="13.2663083"><ele>780.0</ele><time>2026-04-04T08:29:47.031Z</time></trkpt><trkpt lat="42.6637817" lon="13.2665067"><ele>780.0</ele><time>2026-04-04T08:29:48.031Z</time></trkpt><trkpt lat="42.6636867" lon="13.2666967"><ele>781.0</ele><time>2026-04-04T08:29:49.03Z</time></trkpt><trkpt lat="42.663595" lon="13.2668867"><ele>782.0</ele><time>2026-04-04T08:29:50.031Z</time></trkpt><trkpt lat="42.6635067" lon="13.2670817"><ele>783.0</ele><time>2026-04-04T08:29:51.031Z</time></trkpt><trkpt lat="42.6634233" lon="13.2672667"><ele>784.6666666666667</ele><time>2026-04-04T08:29:52.031Z</time></trkpt><trkpt lat="42.6633467" lon="13.2674533"><ele>786.3333333333334</ele><time>2026-04-04T08:29:53.031Z</time></trkpt><trkpt lat="42.6632617" lon="13.2676433"><ele>788.0</ele><time>2026-04-04T08:29:54.031Z</time></trkpt><trkpt lat="42.6631783" lon="13.2678267"><ele>796.0</ele><time>2026-04-04T08:29:55.031Z</time></trkpt><trkpt lat="42.6629833" lon="13.2681683"><ele>804.0</ele><time>2026-04-04T08:29:57.03Z</time></trkpt><trkpt lat="42.662875" lon="13.268325"><ele>801.3333333333333</ele><time>2026-04-04T08:29:58.03Z</time></trkpt><trkpt lat="42.6627667" lon="13.268485"><ele>798.6666666666666</ele><time>2026-04-04T08:29:59.031Z</time></trkpt><trkpt lat="42.662645" lon="13.26864"><ele>796.0</ele><time>2026-04-04T08:30:00.03Z</time></trkpt><trkpt lat="42.6625083" lon="13.26878"><ele>796.0</ele><time>2026-04-04T08:30:01.03Z</time></trkpt><trkpt lat="42.662365" lon="13.2688983"><ele>796.0</ele><time>2026-04-04T08:30:02.031Z</time></trkpt><trkpt lat="42.6622117" lon="13.26901"><ele>796.0</ele><time>2026-04-04T08:30:03.031Z</time></trkpt><trkpt lat="42.6620517" lon="13.2691183"><ele>799.6666666666666</ele><time>2026-04-04T08:30:04.031Z</time></trkpt><trkpt lat="42.6618817" lon="13.2692233"><ele>803.3333333333333</ele><time>2026-04-04T08:30:05.031Z</time></trkpt><trkpt lat="42.6617217" lon="13.2693467"><ele>807.0</ele><time>2026-04-04T08:30:06.031Z</time></trkpt><trkpt lat="42.6615533" lon="13.26946"><ele>807.0</ele><time>2026-04-04T08:30:07.031Z</time></trkpt><trkpt lat="42.66139" lon="13.26957"><ele>807.0</ele><time>2026-04-04T08:30:08.031Z</time></trkpt><trkpt lat="42.6612417" lon="13.26969"><ele>807.0</ele><time>2026-04-04T08:30:09.031Z</time></trkpt><trkpt lat="42.661085" lon="13.26981"><ele>810.6666666666667</ele><time>2026-04-04T08:30:10.031Z</time></trkpt><trkpt lat="42.66093" lon="13.2699217"><ele>814.3333333333334</ele><time>2026-04-04T08:30:11.031Z</time></trkpt><trkpt lat="42.6607683" lon="13.2700233"><ele>818.0</ele><time>2026-04-04T08:30:12.031Z</time></trkpt><trkpt lat="42.660595" lon="13.2701067"><ele>818.0</ele><time>2026-04-04T08:30:13.031Z</time></trkpt><trkpt lat="42.6604267" lon="13.2701933"><ele>818.0</ele><time>2026-04-04T08:30:14.031Z</time></trkpt><trkpt lat="42.66025" lon="13.2702717"><ele>818.0</ele><time>2026-04-04T08:30:15.031Z</time></trkpt><trkpt lat="42.6600767" lon="13.2703417"><ele>813.3333333333334</ele><time>2026-04-04T08:30:16.03Z</time></trkpt><trkpt lat="42.6598967" lon="13.2704117"><ele>808.6666666666667</ele><time>2026-04-04T08:30:17.031Z</time></trkpt><trkpt lat="42.6597133" lon="13.2704617"><ele>804.0</ele><time>2026-04-04T08:30:18.031Z</time></trkpt><trkpt lat="42.65953" lon="13.2704983"><ele>802.0</ele><time>2026-04-04T08:30:19.031Z</time></trkpt><trkpt lat="42.6593583" lon="13.2705233"><ele>800.0</ele><time>2026-04-04T08:30:20.031Z</time></trkpt><trkpt lat="42.6591967" lon="13.2705417"><ele>798.0</ele><time>2026-04-04T08:30:21.03Z</time></trkpt><trkpt lat="42.6590383" lon="13.2705483"><ele>798.0</ele><time>2026-04-04T08:30:22.031Z</time></trkpt><trkpt lat="42.6588817" lon="13.2705483"><ele>798.0</ele><time>2026-04-04T08:30:23.031Z</time></trkpt><trkpt lat="42.6587167" lon="13.2705367"><ele>798.0</ele><time>2026-04-04T08:30:24.031Z</time></trkpt><trkpt lat="42.6585567" lon="13.2705167"><ele>797.0</ele><time>2026-04-04T08:30:25.031Z</time></trkpt><trkpt lat="42.6583933" lon="13.2704967"><ele>796.0</ele><time>2026-04-04T08:30:26.031Z</time></trkpt><trkpt lat="42.6582333" lon="13.2704683"><ele>795.0</ele><time>2026-04-04T08:30:27.031Z</time></trkpt><trkpt lat="42.6580683" lon="13.27044"><ele>795.0</ele><time>2026-04-04T08:30:28.031Z</time></trkpt><trkpt lat="42.657905" lon="13.2704167"><ele>795.0</ele><time>2026-04-04T08:30:29.031Z</time></trkpt><trkpt lat="42.6577383" lon="13.2703767"><ele>795.0</ele><time>2026-04-04T08:30:30.031Z</time></trkpt><trkpt lat="42.6575667" lon="13.270355"><ele>800.0</ele><time>2026-04-04T08:30:31.031Z</time></trkpt><trkpt lat="42.657395" lon="13.2703183"><ele>805.0</ele><time>2026-04-04T08:30:32.031Z</time></trkpt><trkpt lat="42.6572217" lon="13.2702933"><ele>810.0</ele><time>2026-04-04T08:30:33.031Z</time></trkpt><trkpt lat="42.6570483" lon="13.2702633"><ele>818.6666666666667</ele><time>2026-04-04T08:30:34.031Z</time></trkpt><trkpt lat="42.6568783" lon="13.2702417"><ele>827.3333333333334</ele><time>2026-04-04T08:30:35.031Z</time></trkpt><trkpt lat="42.6567067" lon="13.270225"><ele>836.0</ele><time>2026-04-04T08:30:36.031Z</time></trkpt><trkpt lat="42.656535" lon="13.27022"><ele>836.0</ele><time>2026-04-04T08:30:37.031Z</time></trkpt><trkpt lat="42.6563667" lon="13.270235"><ele>836.0</ele><time>2026-04-04T08:30:38.031Z</time></trkpt><trkpt lat="42.6561967" lon="13.270235"><ele>836.0</ele><time>2026-04-04T08:30:39.031Z</time></trkpt><trkpt lat="42.656025" lon="13.2702683"><ele>841.3333333333334</ele><time>2026-04-04T08:30:40.031Z</time></trkpt><trkpt lat="42.6558567" lon="13.2702967"><ele>846.6666666666667</ele><time>2026-04-04T08:30:41.031Z</time></trkpt><trkpt lat="42.6556767" lon="13.270345"><ele>852.0</ele><time>2026-04-04T08:30:42.031Z</time></trkpt><trkpt lat="42.6555067" lon="13.2704"><ele>852.0</ele><time>2026-04-04T08:30:43.031Z</time></trkpt><trkpt lat="42.6553433" lon="13.2704367"><ele>852.0</ele><time>2026-04-04T08:30:44.031Z</time></trkpt><trkpt lat="42.6551717" lon="13.2705133"><ele>852.0</ele><time>2026-04-04T08:30:45.031Z</time></trkpt><trkpt lat="42.6549883" lon="13.2705883"><ele>852.0</ele><time>2026-04-04T08:30:46.031Z</time></trkpt><trkpt lat="42.65481" lon="13.2706517"><ele>852.0</ele><time>2026-04-04T08:30:47.031Z</time></trkpt><trkpt lat="42.6546333" lon="13.27071"><ele>852.0</ele><time>2026-04-04T08:30:48.031Z</time></trkpt><trkpt lat="42.6544467" lon="13.2707733"><ele>852.0</ele><time>2026-04-04T08:30:49.031Z</time></trkpt><trkpt lat="42.6542667" lon="13.270825"><ele>852.0</ele><time>2026-04-04T08:30:50.031Z</time></trkpt><trkpt lat="42.6540817" lon="13.270865"><ele>852.0</ele><time>2026-04-04T08:30:51.031Z</time></trkpt><trkpt lat="42.6539033" lon="13.2708917"><ele>852.0</ele><time>2026-04-04T08:30:52.031Z</time></trkpt><trkpt lat="42.6537083" lon="13.2709183"><ele>852.0</ele><time>2026-04-04T08:30:53.031Z</time></trkpt><trkpt lat="42.6535317" lon="13.2709117"><ele>852.0</ele><time>2026-04-04T08:30:54.03Z</time></trkpt><trkpt lat="42.6533367" lon="13.2709033"><ele>854.0</ele><time>2026-04-04T08:30:55.03Z</time></trkpt><trkpt lat="42.653165" lon="13.2708767"><ele>856.0</ele><time>2026-04-04T08:30:56.031Z</time></trkpt><trkpt lat="42.6529883" lon="13.270825"><ele>858.0</ele><time>2026-04-04T08:30:57.031Z</time></trkpt><trkpt lat="42.6528033" lon="13.2707883"><ele>859.3333333333333</ele><time>2026-04-04T08:30:58.031Z</time></trkpt><trkpt lat="42.6526133" lon="13.2707617"><ele>860.6666666666666</ele><time>2026-04-04T08:30:59.03Z</time></trkpt><trkpt lat="42.6524283" lon="13.2707183"><ele>862.0</ele><time>2026-04-04T08:31:00.031Z</time></trkpt><trkpt lat="42.6522433" lon="13.270685"><ele>862.0</ele><time>2026-04-04T08:31:01.031Z</time></trkpt><trkpt lat="42.6520667" lon="13.27061"><ele>862.0</ele><time>2026-04-04T08:31:02.031Z</time></trkpt><trkpt lat="42.65168" lon="13.27056"><ele>868.3333333333333</ele><time>2026-04-04T08:31:04.031Z</time></trkpt><trkpt lat="42.65149" lon="13.2705283"><ele>874.6666666666667</ele><time>2026-04-04T08:31:05.031Z</time></trkpt><trkpt lat="42.65131" lon="13.270475"><ele>881.0</ele><time>2026-04-04T08:31:06.031Z</time></trkpt><trkpt lat="42.65113" lon="13.2704467"><ele>880.3333333333334</ele><time>2026-04-04T08:31:07.031Z</time></trkpt><trkpt lat="42.6509617" lon="13.2704217"><ele>879.6666666666667</ele><time>2026-04-04T08:31:08.031Z</time></trkpt><trkpt lat="42.6507933" lon="13.27038"><ele>879.0</ele><time>2026-04-04T08:31:09.031Z</time></trkpt><trkpt lat="42.6506167" lon="13.2703367"><ele>879.0</ele><time>2026-04-04T08:31:10.031Z</time></trkpt><trkpt lat="42.6504517" lon="13.2702983"><ele>879.0</ele><time>2026-04-04T08:31:11.031Z</time></trkpt><trkpt lat="42.6502833" lon="13.270255"><ele>879.0</ele><time>2026-04-04T08:31:12.031Z</time></trkpt><trkpt lat="42.6501167" lon="13.270215"><ele>881.0</ele><time>2026-04-04T08:31:13.031Z</time></trkpt><trkpt lat="42.6497817" lon="13.270135"><ele>883.0</ele><time>2026-04-04T08:31:15.031Z</time></trkpt><trkpt lat="42.6496067" lon="13.2700983"><ele>886.0</ele><time>2026-04-04T08:31:16.031Z</time></trkpt><trkpt lat="42.6494333" lon="13.2700617"><ele>889.0</ele><time>2026-04-04T08:31:17.031Z</time></trkpt><trkpt lat="42.6492633" lon="13.2700217"><ele>892.0</ele><time>2026-04-04T08:31:18.031Z</time></trkpt><trkpt lat="42.6491183" lon="13.2699917"><ele>892.0</ele><time>2026-04-04T08:31:19.031Z</time></trkpt><trkpt lat="42.6489567" lon="13.2699417"><ele>892.0</ele><time>2026-04-04T08:31:20.03Z</time></trkpt><trkpt lat="42.6488" lon="13.2698933"><ele>892.0</ele><time>2026-04-04T08:31:21.031Z</time></trkpt><trkpt lat="42.6486517" lon="13.2698467"><ele>897.6666666666666</ele><time>2026-04-04T08:31:22.031Z</time></trkpt><trkpt lat="42.6484967" lon="13.2697667"><ele>903.3333333333333</ele><time>2026-04-04T08:31:23.031Z</time></trkpt><trkpt lat="42.6483317" lon="13.269665"><ele>909.0</ele><time>2026-04-04T08:31:24.031Z</time></trkpt><trkpt lat="42.6481317" lon="13.269585"><ele>909.0</ele><time>2026-04-04T08:31:25.031Z</time></trkpt><trkpt lat="42.6479233" lon="13.2695667"><ele>909.0</ele><time>2026-04-04T08:31:26.031Z</time></trkpt><trkpt lat="42.647725" lon="13.2696283"><ele>909.0</ele><time>2026-04-04T08:31:27.031Z</time></trkpt><trkpt lat="42.6475367" lon="13.2696883"><ele>910.6666666666667</ele><time>2026-04-04T08:31:28.031Z</time></trkpt><trkpt lat="42.647345" lon="13.2697467"><ele>912.3333333333334</ele><time>2026-04-04T08:31:29.031Z</time></trkpt><trkpt lat="42.6471533" lon="13.269815"><ele>914.0</ele><time>2026-04-04T08:31:30.031Z</time></trkpt><trkpt lat="42.6469683" lon="13.2698583"><ele>907.6666666666667</ele><time>2026-04-04T08:31:31.031Z</time></trkpt><trkpt lat="42.646795" lon="13.2698883"><ele>901.3333333333333</ele><time>2026-04-04T08:31:32.031Z</time></trkpt><trkpt lat="42.6466083" lon="13.2699083"><ele>895.0</ele><time>2026-04-04T08:31:33.031Z</time></trkpt><trkpt lat="42.6464367" lon="13.2699283"><ele>895.0</ele><time>2026-04-04T08:31:34.031Z</time></trkpt><trkpt lat="42.6462583" lon="13.26995"><ele>895.0</ele><time>2026-04-04T08:31:35.031Z</time></trkpt><trkpt lat="42.6459233" lon="13.2699283"><ele>895.6666666666666</ele><time>2026-04-04T08:31:37.031Z</time></trkpt><trkpt lat="42.6457483" lon="13.269915"><ele>896.3333333333333</ele><time>2026-04-04T08:31:38.031Z</time></trkpt><trkpt lat="42.6455817" lon="13.26989"><ele>897.0</ele><time>2026-04-04T08:31:39.031Z</time></trkpt><trkpt lat="42.6454167" lon="13.26984"><ele>904.6666666666667</ele><time>2026-04-04T08:31:40.031Z</time></trkpt><trkpt lat="42.6452617" lon="13.2697733"><ele>912.3333333333334</ele><time>2026-04-04T08:31:41.031Z</time></trkpt><trkpt lat="42.645095" lon="13.2696983"><ele>920.0</ele><time>2026-04-04T08:31:42.031Z</time></trkpt><trkpt lat="42.6449283" lon="13.2695933"><ele>920.0</ele><time>2026-04-04T08:31:43.031Z</time></trkpt><trkpt lat="42.64477" lon="13.2694833"><ele>920.0</ele><time>2026-04-04T08:31:44.031Z</time></trkpt><trkpt lat="42.6446117" lon="13.26936"><ele>920.0</ele><time>2026-04-04T08:31:45.031Z</time></trkpt><trkpt lat="42.6444617" lon="13.2692183"><ele>918.3333333333334</ele><time>2026-04-04T08:31:46.031Z</time></trkpt><trkpt lat="42.6443233" lon="13.26908"><ele>916.6666666666667</ele><time>2026-04-04T08:31:47.031Z</time></trkpt><trkpt lat="42.6441817" lon="13.26893"><ele>915.0</ele><time>2026-04-04T08:31:48.031Z</time></trkpt><trkpt lat="42.6440583" lon="13.268775"><ele>915.0</ele><time>2026-04-04T08:31:49.031Z</time></trkpt><trkpt lat="42.6439383" lon="13.2686017"><ele>915.0</ele><time>2026-04-04T08:31:50.031Z</time></trkpt><trkpt lat="42.6438267" lon="13.268405"><ele>915.0</ele><time>2026-04-04T08:31:51.031Z</time></trkpt><trkpt lat="42.643725" lon="13.2681933"><ele>914.0</ele><time>2026-04-04T08:31:52.03Z</time></trkpt><trkpt lat="42.6436383" lon="13.2679767"><ele>913.0</ele><time>2026-04-04T08:31:53.031Z</time></trkpt><trkpt lat="42.6435533" lon="13.26775"><ele>912.0</ele><time>2026-04-04T08:31:54.031Z</time></trkpt><trkpt lat="42.6434817" lon="13.2675283"><ele>906.6666666666667</ele><time>2026-04-04T08:31:55.031Z</time></trkpt><trkpt lat="42.6434117" lon="13.2673117"><ele>901.3333333333334</ele><time>2026-04-04T08:31:56.031Z</time></trkpt><trkpt lat="42.643355" lon="13.2670867"><ele>896.0</ele><time>2026-04-04T08:31:57.031Z</time></trkpt><trkpt lat="42.64331" lon="13.2668583"><ele>896.0</ele><time>2026-04-04T08:31:58.031Z</time></trkpt><trkpt lat="42.64328" lon="13.26664"><ele>896.0</ele><time>2026-04-04T08:31:59.031Z</time></trkpt><trkpt lat="42.643245" lon="13.2664283"><ele>896.0</ele><time>2026-04-04T08:32:00.031Z</time></trkpt><trkpt lat="42.6432217" lon="13.266205"><ele>899.6666666666667</ele><time>2026-04-04T08:32:01.031Z</time></trkpt><trkpt lat="42.6432033" lon="13.2659817"><ele>903.3333333333333</ele><time>2026-04-04T08:32:02.031Z</time></trkpt><trkpt lat="42.6431917" lon="13.2657567"><ele>907.0</ele><time>2026-04-04T08:32:03.031Z</time></trkpt><trkpt lat="42.64318" lon="13.2655383"><ele>909.25</ele><time>2026-04-04T08:32:04.031Z</time></trkpt><trkpt lat="42.6431683" lon="13.2653283"><ele>911.5</ele><time>2026-04-04T08:32:05.031Z</time></trkpt><trkpt lat="42.6431533" lon="13.2651283"><ele>913.75</ele><time>2026-04-04T08:32:06.031Z</time></trkpt><trkpt lat="42.6431483" lon="13.2649333"><ele>916.0</ele><time>2026-04-04T08:32:07.031Z</time></trkpt><trkpt lat="42.6431367" lon="13.2647417"><ele>916.25</ele><time>2026-04-04T08:32:08.031Z</time></trkpt><trkpt lat="42.6431283" lon="13.264555"><ele>916.5</ele><time>2026-04-04T08:32:09.03Z</time></trkpt><trkpt lat="42.6431183" lon="13.264375"><ele>916.75</ele><time>2026-04-04T08:32:10.031Z</time></trkpt><trkpt lat="42.6431117" lon="13.2642017"><ele>917.0</ele><time>2026-04-04T08:32:11.031Z</time></trkpt><trkpt lat="42.6431033" lon="13.26403"><ele>917.0000000000001</ele><time>2026-04-04T08:32:12.031Z</time></trkpt><trkpt lat="42.6430983" lon="13.2638767"><ele>917.0</ele><time>2026-04-04T08:32:13.031Z</time></trkpt><trkpt lat="42.6431033" lon="13.263765"><ele>917.0</ele><time>2026-04-04T08:32:14.031Z</time></trkpt><trkpt lat="42.64313" lon="13.2636633"><ele>917.0</ele><time>2026-04-04T08:32:15.031Z</time></trkpt><trkpt lat="42.6431817" lon="13.2635833"><ele>917.0000000000001</ele><time>2026-04-04T08:32:16.031Z</time></trkpt><trkpt lat="42.643245" lon="13.2635067"><ele>917.0</ele><time>2026-04-04T08:32:17.031Z</time></trkpt><trkpt lat="42.6433167" lon="13.2634217"><ele>917.0</ele><time>2026-04-04T08:32:18.031Z</time></trkpt><trkpt lat="42.643395" lon="13.2633333"><ele>917.0</ele><time>2026-04-04T08:32:19.031Z</time></trkpt><trkpt lat="42.6434617" lon="13.2632167"><ele>917.0</ele><time>2026-04-04T08:32:20.031Z</time></trkpt><trkpt lat="42.643495" lon="13.2630867"><ele>917.0</ele><time>2026-04-04T08:32:21.031Z</time></trkpt><trkpt lat="42.643505" lon="13.2629333"><ele>917.0</ele><time>2026-04-04T08:32:22.031Z</time></trkpt><trkpt lat="42.6435033" lon="13.2627683"><ele>916.75</ele><time>2026-04-04T08:32:23.031Z</time></trkpt><trkpt lat="42.6434867" lon="13.2626"><ele>916.5</ele><time>2026-04-04T08:32:24.031Z</time></trkpt><trkpt lat="42.643465" lon="13.262425"><ele>916.25</ele><time>2026-04-04T08:32:25.03Z</time></trkpt><trkpt lat="42.6434467" lon="13.2622467"><ele>916.0</ele><time>2026-04-04T08:32:26.03Z</time></trkpt><trkpt lat="42.6434283" lon="13.2620717"><ele>915.8</ele><time>2026-04-04T08:32:27.031Z</time></trkpt><trkpt lat="42.6434067" lon="13.2619233"><ele>915.5999999999999</ele><time>2026-04-04T08:32:28.031Z</time></trkpt><trkpt lat="42.643385" lon="13.2617917"><ele>915.4</ele><time>2026-04-04T08:32:29.031Z</time></trkpt><trkpt lat="42.6433683" lon="13.2616717"><ele>915.2</ele><time>2026-04-04T08:32:30.031Z</time></trkpt><trkpt lat="42.643355" lon="13.261565"><ele>915.0</ele><time>2026-04-04T08:32:31.031Z</time></trkpt><trkpt lat="42.6433183" lon="13.261405"><ele>915.0</ele><time>2026-04-04T08:32:33.031Z</time></trkpt><trkpt lat="42.6432367" lon="13.2613017"><ele>915.0</ele><time>2026-04-04T08:32:35.031Z</time></trkpt><trkpt lat="42.6431633" lon="13.2612583"><ele>915.0</ele><time>2026-04-04T08:32:36.031Z</time></trkpt><trkpt lat="42.643065" lon="13.26124"><ele>915.0</ele><time>2026-04-04T08:32:37.031Z</time></trkpt><trkpt lat="42.64294" lon="13.261245"><ele>915.0</ele><time>2026-04-04T08:32:38.031Z</time></trkpt><trkpt lat="42.6428183" lon="13.2612567"><ele>914.0</ele><time>2026-04-04T08:32:39.03Z</time></trkpt><trkpt lat="42.64271" lon="13.2612533"><ele>913.0</ele><time>2026-04-04T08:32:40.031Z</time></trkpt><trkpt lat="42.642615" lon="13.261235"><ele>912.0</ele><time>2026-04-04T08:32:41.031Z</time></trkpt><trkpt lat="42.6425517" lon="13.2612283"><ele>911.0</ele><time>2026-04-04T08:32:42.031Z</time></trkpt><trkpt lat="42.6424817" lon="13.2612217"><ele>910.0</ele><time>2026-04-04T08:32:44.031Z</time></trkpt><trkpt lat="42.642395" lon="13.2612133"><ele>909.0</ele><time>2026-04-04T08:32:46.031Z</time></trkpt><trkpt lat="42.6423067" lon="13.261215"><ele>909.0</ele><time>2026-04-04T08:32:48.031Z</time></trkpt><trkpt lat="42.6422383" lon="13.2612433"><ele>909.0000000000001</ele><time>2026-04-04T08:32:50.031Z</time></trkpt><trkpt lat="42.6421583" lon="13.26127"><ele>909.0000000000001</ele><time>2026-04-04T08:32:52.031Z</time></trkpt><trkpt lat="42.6420317" lon="13.26135"><ele>909.0</ele><time>2026-04-04T08:32:54.031Z</time></trkpt><trkpt lat="42.6419667" lon="13.261415"><ele>909.0</ele><time>2026-04-04T08:32:55.031Z</time></trkpt><trkpt lat="42.641925" lon="13.261505"><ele>909.1666666666666</ele><time>2026-04-04T08:32:56.031Z</time></trkpt><trkpt lat="42.64191" lon="13.2616083"><ele>909.3333333333333</ele><time>2026-04-04T08:32:57.03Z</time></trkpt><trkpt lat="42.64191" lon="13.2617083"><ele>909.5</ele><time>2026-04-04T08:32:58.031Z</time></trkpt><trkpt lat="42.64193" lon="13.261815"><ele>909.6666666666666</ele><time>2026-04-04T08:32:59.031Z</time></trkpt><trkpt lat="42.6419667" lon="13.2619067"><ele>909.8333333333333</ele><time>2026-04-04T08:33:00.031Z</time></trkpt><trkpt lat="42.6420283" lon="13.2619883"><ele>910.0</ele><time>2026-04-04T08:33:01.031Z</time></trkpt><trkpt lat="42.6420983" lon="13.2620483"><ele>910.0</ele><time>2026-04-04T08:33:02.031Z</time></trkpt><trkpt lat="42.642175" lon="13.2621183"><ele>910.0</ele><time>2026-04-04T08:33:03.031Z</time></trkpt><trkpt lat="42.6422517" lon="13.262205"><ele>910.0</ele><time>2026-04-04T08:33:04.031Z</time></trkpt><trkpt lat="42.64233" lon="13.262295"><ele>910.0</ele><time>2026-04-04T08:33:05.031Z</time></trkpt><trkpt lat="42.6424017" lon="13.2623867"><ele>910.0</ele><time>2026-04-04T08:33:06.031Z</time></trkpt><trkpt lat="42.642465" lon="13.2624683"><ele>908.8</ele><time>2026-04-04T08:33:07.031Z</time></trkpt><trkpt lat="42.64252" lon="13.2625567"><ele>907.6</ele><time>2026-04-04T08:33:08.031Z</time></trkpt><trkpt lat="42.6425683" lon="13.26266"><ele>906.4000000000001</ele><time>2026-04-04T08:33:09.031Z</time></trkpt><trkpt lat="42.6426133" lon="13.2627733"><ele>905.2</ele><time>2026-04-04T08:33:10.031Z</time></trkpt><trkpt lat="42.642655" lon="13.2629033"><ele>904.0</ele><time>2026-04-04T08:33:11.031Z</time></trkpt><trkpt lat="42.642675" lon="13.2630483"><ele>903.2</ele><time>2026-04-04T08:33:12.031Z</time></trkpt><trkpt lat="42.642665" lon="13.2631883"><ele>902.4000000000001</ele><time>2026-04-04T08:33:13.03Z</time></trkpt><trkpt lat="42.6426433" lon="13.2633217"><ele>901.6</ele><time>2026-04-04T08:33:14.031Z</time></trkpt><trkpt lat="42.6426017" lon="13.2634483"><ele>900.8</ele><time>2026-04-04T08:33:15.031Z</time></trkpt><trkpt lat="42.6425567" lon="13.2635733"><ele>900.0</ele><time>2026-04-04T08:33:16.031Z</time></trkpt><trkpt lat="42.64252" lon="13.2636917"><ele>900.0</ele><time>2026-04-04T08:33:17.031Z</time></trkpt><trkpt lat="42.64249" lon="13.2638217"><ele>900.0</ele><time>2026-04-04T08:33:18.031Z</time></trkpt><trkpt lat="42.6424567" lon="13.2639533"><ele>900.0</ele><time>2026-04-04T08:33:19.031Z</time></trkpt><trkpt lat="42.642425" lon="13.2640867"><ele>900.0</ele><time>2026-04-04T08:33:20.031Z</time></trkpt><trkpt lat="42.64239" lon="13.2642283"><ele>900.0</ele><time>2026-04-04T08:33:21.031Z</time></trkpt><trkpt lat="42.6423383" lon="13.2643717"><ele>900.25</ele><time>2026-04-04T08:33:22.031Z</time></trkpt><trkpt lat="42.6422767" lon="13.2645017"><ele>900.5</ele><time>2026-04-04T08:33:23.031Z</time></trkpt><trkpt lat="42.642195" lon="13.26462"><ele>900.75</ele><time>2026-04-04T08:33:24.031Z</time></trkpt><trkpt lat="42.64209" lon="13.2647367"><ele>901.0</ele><time>2026-04-04T08:33:25.031Z</time></trkpt><trkpt lat="42.641975" lon="13.26485"><ele>897.75</ele><time>2026-04-04T08:33:26.031Z</time></trkpt><trkpt lat="42.641865" lon="13.2649617"><ele>894.5</ele><time>2026-04-04T08:33:27.03Z</time></trkpt><trkpt lat="42.6417533" lon="13.26507"><ele>891.25</ele><time>2026-04-04T08:33:28.031Z</time></trkpt><trkpt lat="42.6416483" lon="13.26519"><ele>888.0</ele><time>2026-04-04T08:33:29.03Z</time></trkpt><trkpt lat="42.6415483" lon="13.265315"><ele>888.0</ele><time>2026-04-04T08:33:30.031Z</time></trkpt><trkpt lat="42.6414517" lon="13.26545"><ele>888.0</ele><time>2026-04-04T08:33:31.031Z</time></trkpt><trkpt lat="42.6413683" lon="13.2655783"><ele>888.0</ele><time>2026-04-04T08:33:32.031Z</time></trkpt><trkpt lat="42.641285" lon="13.2657067"><ele>888.0</ele><time>2026-04-04T08:33:33.031Z</time></trkpt><trkpt lat="42.6412017" lon="13.2658367"><ele>885.5</ele><time>2026-04-04T08:33:34.031Z</time></trkpt><trkpt lat="42.64113" lon="13.265975"><ele>883.0</ele><time>2026-04-04T08:33:35.031Z</time></trkpt><trkpt lat="42.6410583" lon="13.266115"><ele>880.5</ele><time>2026-04-04T08:33:36.031Z</time></trkpt><trkpt lat="42.6409783" lon="13.266255"><ele>878.0</ele><time>2026-04-04T08:33:37.031Z</time></trkpt><trkpt lat="42.6409017" lon="13.2663867"><ele>878.75</ele><time>2026-04-04T08:33:38.031Z</time></trkpt><trkpt lat="42.6408317" lon="13.26651"><ele>879.5</ele><time>2026-04-04T08:33:39.031Z</time></trkpt><trkpt lat="42.640775" lon="13.2666583"><ele>880.25</ele><time>2026-04-04T08:33:40.031Z</time></trkpt><trkpt lat="42.64074" lon="13.2668183"><ele>881.0</ele><time>2026-04-04T08:33:41.031Z</time></trkpt><trkpt lat="42.6407383" lon="13.266985"><ele>881.0</ele><time>2026-04-04T08:33:42.031Z</time></trkpt><trkpt lat="42.6407617" lon="13.2671367"><ele>880.9999999999999</ele><time>2026-04-04T08:33:43.031Z</time></trkpt><trkpt lat="42.64082" lon="13.2672617"><ele>880.9999999999999</ele><time>2026-04-04T08:33:44.031Z</time></trkpt><trkpt lat="42.6408883" lon="13.267365"><ele>881.0</ele><time>2026-04-04T08:33:45.031Z</time></trkpt><trkpt lat="42.6409667" lon="13.26745"><ele>881.0</ele><time>2026-04-04T08:33:46.031Z</time></trkpt><trkpt lat="42.6410583" lon="13.26751"><ele>881.0</ele><time>2026-04-04T08:33:47.031Z</time></trkpt><trkpt lat="42.6411583" lon="13.2675517"><ele>880.9999999999999</ele><time>2026-04-04T08:33:48.031Z</time></trkpt><trkpt lat="42.6412617" lon="13.2675583"><ele>880.9999999999999</ele><time>2026-04-04T08:33:49.031Z</time></trkpt><trkpt lat="42.641365" lon="13.267545"><ele>881.0</ele><time>2026-04-04T08:33:50.031Z</time></trkpt><trkpt lat="42.6414667" lon="13.26754"><ele>881.0</ele><time>2026-04-04T08:33:51.031Z</time></trkpt><trkpt lat="42.64157" lon="13.267525"><ele>881.0</ele><time>2026-04-04T08:33:52.031Z</time></trkpt><trkpt lat="42.641675" lon="13.267525"><ele>881.0</ele><time>2026-04-04T08:33:53.031Z</time></trkpt><trkpt lat="42.6417883" lon="13.2675533"><ele>881.0</ele><time>2026-04-04T08:33:54.031Z</time></trkpt><trkpt lat="42.6418917" lon="13.26762"><ele>881.0</ele><time>2026-04-04T08:33:55.031Z</time></trkpt><trkpt lat="42.641985" lon="13.2677167"><ele>881.25</ele><time>2026-04-04T08:33:56.031Z</time></trkpt><trkpt lat="42.6420667" lon="13.267825"><ele>881.5</ele><time>2026-04-04T08:33:57.03Z</time></trkpt><trkpt lat="42.64212" lon="13.26795"><ele>881.75</ele><time>2026-04-04T08:33:58.03Z</time></trkpt><trkpt lat="42.6421517" lon="13.268105"><ele>882.0</ele><time>2026-04-04T08:33:59.03Z</time></trkpt><trkpt lat="42.64215" lon="13.2682633"><ele>881.0</ele><time>2026-04-04T08:34:00.03Z</time></trkpt><trkpt lat="42.642125" lon="13.26842"><ele>880.0</ele><time>2026-04-04T08:34:01.03Z</time></trkpt><trkpt lat="42.64208" lon="13.2685767"><ele>879.0</ele><time>2026-04-04T08:34:02.03Z</time></trkpt><trkpt lat="42.6420383" lon="13.2687217"><ele>878.0</ele><time>2026-04-04T08:34:03.03Z</time></trkpt><trkpt lat="42.6420133" lon="13.268875"><ele>879.25</ele><time>2026-04-04T08:34:04.03Z</time></trkpt><trkpt lat="42.642005" lon="13.2690383"><ele>880.5</ele><time>2026-04-04T08:34:05.03Z</time></trkpt><trkpt lat="42.6420167" lon="13.2692"><ele>881.75</ele><time>2026-04-04T08:34:06.03Z</time></trkpt><trkpt lat="42.6420317" lon="13.2693433"><ele>883.0</ele><time>2026-04-04T08:34:07.03Z</time></trkpt><trkpt lat="42.6420617" lon="13.26948"><ele>883.0</ele><time>2026-04-04T08:34:08.03Z</time></trkpt><trkpt lat="42.6420867" lon="13.2696217"><ele>883.0</ele><time>2026-04-04T08:34:09.03Z</time></trkpt><trkpt lat="42.6421233" lon="13.2697533"><ele>883.0</ele><time>2026-04-04T08:34:10.03Z</time></trkpt><trkpt lat="42.6421817" lon="13.26986"><ele>883.0</ele><time>2026-04-04T08:34:11.03Z</time></trkpt><trkpt lat="42.64226" lon="13.2699567"><ele>883.0</ele><time>2026-04-04T08:34:12.03Z</time></trkpt><trkpt lat="42.6423617" lon="13.2700433"><ele>882.25</ele><time>2026-04-04T08:34:13.03Z</time></trkpt><trkpt lat="42.64248" lon="13.2701317"><ele>881.5</ele><time>2026-04-04T08:34:14.03Z</time></trkpt><trkpt lat="42.6425967" lon="13.2702283"><ele>880.75</ele><time>2026-04-04T08:34:15.03Z</time></trkpt><trkpt lat="42.642705" lon="13.2703233"><ele>880.0</ele><time>2026-04-04T08:34:16.03Z</time></trkpt><trkpt lat="42.642805" lon="13.2704167"><ele>880.0</ele><time>2026-04-04T08:34:17.029Z</time></trkpt><trkpt lat="42.6429033" lon="13.2704967"><ele>880.0</ele><time>2026-04-04T08:34:18.03Z</time></trkpt><trkpt lat="42.6430033" lon="13.2705633"><ele>880.0</ele><time>2026-04-04T08:34:19.03Z</time></trkpt><trkpt lat="42.643115" lon="13.2706133"><ele>880.0</ele><time>2026-04-04T08:34:20.03Z</time></trkpt><trkpt lat="42.6432333" lon="13.2706167"><ele>880.0</ele><time>2026-04-04T08:34:21.029Z</time></trkpt><trkpt lat="42.6433633" lon="13.2705833"><ele>880.0</ele><time>2026-04-04T08:34:22.03Z</time></trkpt><trkpt lat="42.643505" lon="13.270535"><ele>880.0</ele><time>2026-04-04T08:34:23.03Z</time></trkpt><trkpt lat="42.643645" lon="13.2704767"><ele>880.0</ele><time>2026-04-04T08:34:24.03Z</time></trkpt><trkpt lat="42.64378" lon="13.2704283"><ele>879.75</ele><time>2026-04-04T08:34:25.03Z</time></trkpt><trkpt lat="42.64391" lon="13.2703933"><ele>879.5</ele><time>2026-04-04T08:34:26.03Z</time></trkpt><trkpt lat="42.6440433" lon="13.2703683"><ele>879.25</ele><time>2026-04-04T08:34:27.03Z</time></trkpt><trkpt lat="42.64418" lon="13.27035"><ele>879.0</ele><time>2026-04-04T08:34:28.03Z</time></trkpt><trkpt lat="42.64431" lon="13.2703433"><ele>879.0</ele><time>2026-04-04T08:34:29.03Z</time></trkpt><trkpt lat="42.644455" lon="13.2703717"><ele>879.0</ele><time>2026-04-04T08:34:30.03Z</time></trkpt><trkpt lat="42.6445867" lon="13.27042"><ele>879.0</ele><time>2026-04-04T08:34:31.029Z</time></trkpt><trkpt lat="42.6447067" lon="13.2704833"><ele>879.0</ele><time>2026-04-04T08:34:32.03Z</time></trkpt><trkpt lat="42.6448217" lon="13.270575"><ele>872.25</ele><time>2026-04-04T08:34:33.03Z</time></trkpt><trkpt lat="42.6449317" lon="13.27067"><ele>865.5</ele><time>2026-04-04T08:34:34.03Z</time></trkpt><trkpt lat="42.645035" lon="13.2707617"><ele>858.75</ele><time>2026-04-04T08:34:35.03Z</time></trkpt><trkpt lat="42.64513" lon="13.27085"><ele>852.0</ele><time>2026-04-04T08:34:36.03Z</time></trkpt><trkpt lat="42.6452167" lon="13.2709183"><ele>852.0</ele><time>2026-04-04T08:34:37.03Z</time></trkpt><trkpt lat="42.6452783" lon="13.2710017"><ele>852.0</ele><time>2026-04-04T08:34:38.029Z</time></trkpt><trkpt lat="42.6453233" lon="13.2710867"><ele>852.0</ele><time>2026-04-04T08:34:39.03Z</time></trkpt><trkpt lat="42.6453367" lon="13.2711983"><ele>852.0</ele><time>2026-04-04T08:34:40.03Z</time></trkpt><trkpt lat="42.645325" lon="13.2713233"><ele>852.0</ele><time>2026-04-04T08:34:41.03Z</time></trkpt><trkpt lat="42.64529" lon="13.2714517"><ele>852.0</ele><time>2026-04-04T08:34:42.03Z</time></trkpt><trkpt lat="42.6452417" lon="13.2715817"><ele>849.2</ele><time>2026-04-04T08:34:43.03Z</time></trkpt><trkpt lat="42.64519" lon="13.271715"><ele>846.4000000000001</ele><time>2026-04-04T08:34:44.03Z</time></trkpt><trkpt lat="42.6451383" lon="13.27185"><ele>843.5999999999999</ele><time>2026-04-04T08:34:45.03Z</time></trkpt><trkpt lat="42.645095" lon="13.2719867"><ele>840.8</ele><time>2026-04-04T08:34:46.03Z</time></trkpt><trkpt lat="42.64507" lon="13.2721267"><ele>838.0</ele><time>2026-04-04T08:34:47.03Z</time></trkpt><trkpt lat="42.64509" lon="13.27223"><ele>835.5999999999999</ele><time>2026-04-04T08:34:48.03Z</time></trkpt><trkpt lat="42.645135" lon="13.2723167"><ele>833.1999999999999</ele><time>2026-04-04T08:34:49.03Z</time></trkpt><trkpt lat="42.6452083" lon="13.2723567"><ele>830.8</ele><time>2026-04-04T08:34:50.029Z</time></trkpt><trkpt lat="42.6453033" lon="13.2723517"><ele>828.4</ele><time>2026-04-04T08:34:51.03Z</time></trkpt><trkpt lat="42.6454167" lon="13.2723117"><ele>826.0</ele><time>2026-04-04T08:34:52.03Z</time></trkpt><trkpt lat="42.6455467" lon="13.27225"><ele>832.0</ele><time>2026-04-04T08:34:53.03Z</time></trkpt><trkpt lat="42.6456767" lon="13.2721883"><ele>838.0</ele><time>2026-04-04T08:34:54.03Z</time></trkpt><trkpt lat="42.6458133" lon="13.272125"><ele>844.0</ele><time>2026-04-04T08:34:55.03Z</time></trkpt><trkpt lat="42.6459533" lon="13.272055"><ele>850.0</ele><time>2026-04-04T08:34:56.03Z</time></trkpt><trkpt lat="42.6460867" lon="13.2720133"><ele>847.0</ele><time>2026-04-04T08:34:57.03Z</time></trkpt><trkpt lat="42.646215" lon="13.2719617"><ele>844.0</ele><time>2026-04-04T08:34:58.029Z</time></trkpt><trkpt lat="42.6463433" lon="13.2718967"><ele>841.0</ele><time>2026-04-04T08:34:59.03Z</time></trkpt><trkpt lat="42.6464633" lon="13.27184"><ele>838.0</ele><time>2026-04-04T08:35:00.03Z</time></trkpt><trkpt lat="42.6465983" lon="13.27177"><ele>838.0</ele><time>2026-04-04T08:35:01.03Z</time></trkpt><trkpt lat="42.64674" lon="13.2717133"><ele>838.0</ele><time>2026-04-04T08:35:02.03Z</time></trkpt><trkpt lat="42.64688" lon="13.2716683"><ele>838.0</ele><time>2026-04-04T08:35:03.03Z</time></trkpt><trkpt lat="42.6470217" lon="13.27163"><ele>838.0</ele><time>2026-04-04T08:35:04.03Z</time></trkpt><trkpt lat="42.6471483" lon="13.27159"><ele>835.5</ele><time>2026-04-04T08:35:05.03Z</time></trkpt><trkpt lat="42.6472833" lon="13.271545"><ele>833.0</ele><time>2026-04-04T08:35:06.03Z</time></trkpt><trkpt lat="42.6474167" lon="13.271495"><ele>830.5</ele><time>2026-04-04T08:35:07.03Z</time></trkpt><trkpt lat="42.6475367" lon="13.2714867"><ele>828.0</ele><time>2026-04-04T08:35:08.03Z</time></trkpt><trkpt lat="42.647665" lon="13.2715133"><ele>828.0</ele><time>2026-04-04T08:35:09.03Z</time></trkpt><trkpt lat="42.6477917" lon="13.27157"><ele>828.0</ele><time>2026-04-04T08:35:10.03Z</time></trkpt><trkpt lat="42.6479067" lon="13.2716533"><ele>828.0</ele><time>2026-04-04T08:35:11.03Z</time></trkpt><trkpt lat="42.6480167" lon="13.2717517"><ele>828.0</ele><time>2026-04-04T08:35:12.03Z</time></trkpt><trkpt lat="42.6481233" lon="13.27186"><ele>829.75</ele><time>2026-04-04T08:35:13.03Z</time></trkpt><trkpt lat="42.6482217" lon="13.271985"><ele>831.5</ele><time>2026-04-04T08:35:14.03Z</time></trkpt><trkpt lat="42.648305" lon="13.2721"><ele>833.25</ele><time>2026-04-04T08:35:15.03Z</time></trkpt><trkpt lat="42.6483767" lon="13.2722117"><ele>835.0</ele><time>2026-04-04T08:35:16.03Z</time></trkpt><trkpt lat="42.6484517" lon="13.2723083"><ele>832.1666666666666</ele><time>2026-04-04T08:35:17.03Z</time></trkpt><trkpt lat="42.6485267" lon="13.2723683"><ele>829.3333333333333</ele><time>2026-04-04T08:35:18.03Z</time></trkpt><trkpt lat="42.648595" lon="13.2724117"><ele>826.5</ele><time>2026-04-04T08:35:19.03Z</time></trkpt><trkpt lat="42.6486767" lon="13.2724433"><ele>823.6666666666667</ele><time>2026-04-04T08:35:20.03Z</time></trkpt><trkpt lat="42.64875" lon="13.2724683"><ele>820.8333333333334</ele><time>2026-04-04T08:35:21.03Z</time></trkpt><trkpt lat="42.64885" lon="13.272535"><ele>818.0</ele><time>2026-04-04T08:35:23.03Z</time></trkpt><trkpt lat="42.64888" lon="13.2726667"><ele>818.0000000000001</ele><time>2026-04-04T08:35:25.03Z</time></trkpt><trkpt lat="42.6488783" lon="13.272755"><ele>818.0</ele><time>2026-04-04T08:35:26.03Z</time></trkpt><trkpt lat="42.6488717" lon="13.272855"><ele>818.0</ele><time>2026-04-04T08:35:27.03Z</time></trkpt><trkpt lat="42.6488517" lon="13.2729767"><ele>818.0</ele><time>2026-04-04T08:35:28.03Z</time></trkpt><trkpt lat="42.6488283" lon="13.2731"><ele>818.0000000000001</ele><time>2026-04-04T08:35:29.03Z</time></trkpt><trkpt lat="42.6487933" lon="13.2732283"><ele>818.0</ele><time>2026-04-04T08:35:30.03Z</time></trkpt><trkpt lat="42.6487317" lon="13.2733567"><ele>816.75</ele><time>2026-04-04T08:35:31.03Z</time></trkpt><trkpt lat="42.6486517" lon="13.2734833"><ele>815.5</ele><time>2026-04-04T08:35:32.03Z</time></trkpt><trkpt lat="42.648565" lon="13.27361"><ele>814.25</ele><time>2026-04-04T08:35:33.03Z</time></trkpt><trkpt lat="42.6484767" lon="13.27375"><ele>813.0</ele><time>2026-04-04T08:35:34.03Z</time></trkpt><trkpt lat="42.6483867" lon="13.27389"><ele>814.75</ele><time>2026-04-04T08:35:35.03Z</time></trkpt><trkpt lat="42.6483033" lon="13.2740417"><ele>816.5</ele><time>2026-04-04T08:35:36.03Z</time></trkpt><trkpt lat="42.6482183" lon="13.27419"><ele>818.25</ele><time>2026-04-04T08:35:37.03Z</time></trkpt><trkpt lat="42.6481267" lon="13.2743417"><ele>820.0</ele><time>2026-04-04T08:35:38.03Z</time></trkpt><trkpt lat="42.6480317" lon="13.274495"><ele>820.0</ele><time>2026-04-04T08:35:39.03Z</time></trkpt><trkpt lat="42.6479333" lon="13.2746467"><ele>820.0</ele><time>2026-04-04T08:35:40.03Z</time></trkpt><trkpt lat="42.6478317" lon="13.2747833"><ele>820.0</ele><time>2026-04-04T08:35:41.03Z</time></trkpt><trkpt lat="42.6477283" lon="13.2749167"><ele>820.0</ele><time>2026-04-04T08:35:42.03Z</time></trkpt><trkpt lat="42.6476183" lon="13.275055"><ele>824.0</ele><time>2026-04-04T08:35:43.03Z</time></trkpt><trkpt lat="42.6474967" lon="13.2751833"><ele>828.0</ele><time>2026-04-04T08:35:44.03Z</time></trkpt><trkpt lat="42.6473867" lon="13.2753067"><ele>832.0</ele><time>2026-04-04T08:35:45.03Z</time></trkpt><trkpt lat="42.6472667" lon="13.275415"><ele>836.0</ele><time>2026-04-04T08:35:46.03Z</time></trkpt><trkpt lat="42.64714" lon="13.27551"><ele>836.0</ele><time>2026-04-04T08:35:47.03Z</time></trkpt><trkpt lat="42.6470117" lon="13.2755983"><ele>836.0</ele><time>2026-04-04T08:35:48.03Z</time></trkpt><trkpt lat="42.6468833" lon="13.275675"><ele>836.0</ele><time>2026-04-04T08:35:49.03Z</time></trkpt><trkpt lat="42.6467467" lon="13.2757317"><ele>836.0</ele><time>2026-04-04T08:35:50.03Z</time></trkpt><trkpt lat="42.646605" lon="13.2757633"><ele>836.0</ele><time>2026-04-04T08:35:51.03Z</time></trkpt><trkpt lat="42.646465" lon="13.275765"><ele>836.0</ele><time>2026-04-04T08:35:52.03Z</time></trkpt><trkpt lat="42.6463183" lon="13.27577"><ele>836.0</ele><time>2026-04-04T08:35:53.03Z</time></trkpt><trkpt lat="42.6461767" lon="13.2758017"><ele>836.0</ele><time>2026-04-04T08:35:54.03Z</time></trkpt><trkpt lat="42.6460233" lon="13.2758433"><ele>836.0</ele><time>2026-04-04T08:35:55.03Z</time></trkpt><trkpt lat="42.6458767" lon="13.2758917"><ele>836.0</ele><time>2026-04-04T08:35:56.03Z</time></trkpt><trkpt lat="42.64572" lon="13.2759433"><ele>836.0</ele><time>2026-04-04T08:35:57.03Z</time></trkpt><trkpt lat="42.6455717" lon="13.2759833"><ele>836.0</ele><time>2026-04-04T08:35:58.03Z</time></trkpt><trkpt lat="42.6454183" lon="13.2760217"><ele>836.0</ele><time>2026-04-04T08:35:59.03Z</time></trkpt><trkpt lat="42.6452667" lon="13.2760617"><ele>836.0</ele><time>2026-04-04T08:36:00.029Z</time></trkpt><trkpt lat="42.6451133" lon="13.27611"><ele>839.3333333333334</ele><time>2026-04-04T08:36:01.03Z</time></trkpt><trkpt lat="42.644965" lon="13.27616"><ele>842.6666666666667</ele><time>2026-04-04T08:36:02.03Z</time></trkpt><trkpt lat="42.6448067" lon="13.2762133"><ele>846.0</ele><time>2026-04-04T08:36:03.03Z</time></trkpt><trkpt lat="42.6446533" lon="13.2762767"><ele>846.0</ele><time>2026-04-04T08:36:04.03Z</time></trkpt><trkpt lat="42.64451" lon="13.2763317"><ele>846.0</ele><time>2026-04-04T08:36:05.03Z</time></trkpt><trkpt lat="42.6443617" lon="13.2764"><ele>846.0</ele><time>2026-04-04T08:36:06.03Z</time></trkpt><trkpt lat="42.64421" lon="13.2764633"><ele>842.6666666666667</ele><time>2026-04-04T08:36:07.03Z</time></trkpt><trkpt lat="42.6440617" lon="13.2765333"><ele>839.3333333333334</ele><time>2026-04-04T08:36:08.03Z</time></trkpt><trkpt lat="42.64392" lon="13.2766033"><ele>836.0</ele><time>2026-04-04T08:36:09.03Z</time></trkpt><trkpt lat="42.6437683" lon="13.2767017"><ele>843.0</ele><time>2026-04-04T08:36:10.03Z</time></trkpt><trkpt lat="42.6436133" lon="13.2767983"><ele>850.0</ele><time>2026-04-04T08:36:11.03Z</time></trkpt><trkpt lat="42.6434683" lon="13.2769067"><ele>857.0</ele><time>2026-04-04T08:36:12.03Z</time></trkpt><trkpt lat="42.6433433" lon="13.27702"><ele>857.0</ele><time>2026-04-04T08:36:13.03Z</time></trkpt><trkpt lat="42.6432167" lon="13.277125"><ele>857.0</ele><time>2026-04-04T08:36:14.03Z</time></trkpt><trkpt lat="42.6430917" lon="13.27724"><ele>857.0</ele><time>2026-04-04T08:36:15.03Z</time></trkpt><trkpt lat="42.64296" lon="13.2773467"><ele>854.75</ele><time>2026-04-04T08:36:16.03Z</time></trkpt><trkpt lat="42.6428367" lon="13.2774417"><ele>852.5</ele><time>2026-04-04T08:36:17.03Z</time></trkpt><trkpt lat="42.64272" lon="13.2775283"><ele>850.25</ele><time>2026-04-04T08:36:18.03Z</time></trkpt><trkpt lat="42.6426033" lon="13.2776"><ele>848.0</ele><time>2026-04-04T08:36:19.03Z</time></trkpt><trkpt lat="42.6424717" lon="13.2776367"><ele>848.0</ele><time>2026-04-04T08:36:20.03Z</time></trkpt><trkpt lat="42.642335" lon="13.2776783"><ele>848.0</ele><time>2026-04-04T08:36:21.03Z</time></trkpt><trkpt lat="42.6422017" lon="13.277725"><ele>848.0</ele><time>2026-04-04T08:36:22.03Z</time></trkpt><trkpt lat="42.6420783" lon="13.2778017"><ele>848.0</ele><time>2026-04-04T08:36:23.029Z</time></trkpt><trkpt lat="42.6419633" lon="13.2778717"><ele>847.25</ele><time>2026-04-04T08:36:24.029Z</time></trkpt><trkpt lat="42.6418533" lon="13.277965"><ele>846.5</ele><time>2026-04-04T08:36:25.03Z</time></trkpt><trkpt lat="42.6417367" lon="13.2780817"><ele>845.75</ele><time>2026-04-04T08:36:26.03Z</time></trkpt><trkpt lat="42.641625" lon="13.2782067"><ele>845.0</ele><time>2026-04-04T08:36:27.03Z</time></trkpt><trkpt lat="42.64151" lon="13.2783283"><ele>845.0</ele><time>2026-04-04T08:36:28.03Z</time></trkpt><trkpt lat="42.64139" lon="13.2784417"><ele>845.0</ele><time>2026-04-04T08:36:29.03Z</time></trkpt><trkpt lat="42.64125" lon="13.2785533"><ele>845.0</ele><time>2026-04-04T08:36:30.03Z</time></trkpt><trkpt lat="42.6410967" lon="13.2786733"><ele>842.6666666666667</ele><time>2026-04-04T08:36:31.03Z</time></trkpt><trkpt lat="42.6409217" lon="13.2788017"><ele>840.3333333333333</ele><time>2026-04-04T08:36:32.03Z</time></trkpt><trkpt lat="42.6407367" lon="13.278925"><ele>838.0</ele><time>2026-04-04T08:36:33.03Z</time></trkpt><trkpt lat="42.6405633" lon="13.279045"><ele>838.0</ele><time>2026-04-04T08:36:34.03Z</time></trkpt><trkpt lat="42.6403817" lon="13.279155"><ele>838.0</ele><time>2026-04-04T08:36:35.03Z</time></trkpt><trkpt lat="42.6402" lon="13.2792433"><ele>838.0</ele><time>2026-04-04T08:36:36.03Z</time></trkpt><trkpt lat="42.640025" lon="13.279335"><ele>843.6666666666666</ele><time>2026-04-04T08:36:37.03Z</time></trkpt><trkpt lat="42.63985" lon="13.2794417"><ele>849.3333333333333</ele><time>2026-04-04T08:36:38.03Z</time></trkpt><trkpt lat="42.639685" lon="13.2795583"><ele>855.0</ele><time>2026-04-04T08:36:39.03Z</time></trkpt><trkpt lat="42.6395267" lon="13.2796583"><ele>852.6666666666667</ele><time>2026-04-04T08:36:40.03Z</time></trkpt><trkpt lat="42.6393683" lon="13.279755"><ele>850.3333333333334</ele><time>2026-04-04T08:36:41.03Z</time></trkpt><trkpt lat="42.63922" lon="13.2798417"><ele>848.0</ele><time>2026-04-04T08:36:42.03Z</time></trkpt><trkpt lat="42.6390717" lon="13.279905"><ele>848.0</ele><time>2026-04-04T08:36:43.03Z</time></trkpt><trkpt lat="42.63893" lon="13.27996"><ele>848.0</ele><time>2026-04-04T08:36:44.03Z</time></trkpt><trkpt lat="42.63879" lon="13.2799833"><ele>848.0</ele><time>2026-04-04T08:36:45.03Z</time></trkpt><trkpt lat="42.6386383" lon="13.2799383"><ele>848.0</ele><time>2026-04-04T08:36:46.03Z</time></trkpt><trkpt lat="42.6384983" lon="13.27987"><ele>849.0</ele><time>2026-04-04T08:36:47.03Z</time></trkpt><trkpt lat="42.6383467" lon="13.2798167"><ele>850.0</ele><time>2026-04-04T08:36:48.03Z</time></trkpt><trkpt lat="42.6381867" lon="13.2797817"><ele>851.0</ele><time>2026-04-04T08:36:49.03Z</time></trkpt><trkpt lat="42.63802" lon="13.2797683"><ele>851.0</ele><time>2026-04-04T08:36:50.029Z</time></trkpt><trkpt lat="42.6378517" lon="13.2797783"><ele>851.0</ele><time>2026-04-04T08:36:51.03Z</time></trkpt><trkpt lat="42.637685" lon="13.2797983"><ele>851.0</ele><time>2026-04-04T08:36:52.03Z</time></trkpt><trkpt lat="42.6375217" lon="13.2798183"><ele>851.6666666666667</ele><time>2026-04-04T08:36:53.03Z</time></trkpt><trkpt lat="42.6373483" lon="13.2798383"><ele>852.3333333333333</ele><time>2026-04-04T08:36:54.03Z</time></trkpt><trkpt lat="42.6371717" lon="13.2798617"><ele>853.0</ele><time>2026-04-04T08:36:55.03Z</time></trkpt><trkpt lat="42.6369917" lon="13.2798983"><ele>853.0</ele><time>2026-04-04T08:36:56.03Z</time></trkpt><trkpt lat="42.6368067" lon="13.2799483"><ele>853.0</ele><time>2026-04-04T08:36:57.03Z</time></trkpt><trkpt lat="42.6366083" lon="13.2800233"><ele>853.0</ele><time>2026-04-04T08:36:58.03Z</time></trkpt><trkpt lat="42.6364317" lon="13.2801167"><ele>853.0</ele><time>2026-04-04T08:36:59.03Z</time></trkpt><trkpt lat="42.6362617" lon="13.2802283"><ele>853.0</ele><time>2026-04-04T08:37:00.03Z</time></trkpt><trkpt lat="42.636095" lon="13.2803583"><ele>853.0</ele><time>2026-04-04T08:37:01.03Z</time></trkpt><trkpt lat="42.6359433" lon="13.2805"><ele>850.3333333333333</ele><time>2026-04-04T08:37:02.03Z</time></trkpt><trkpt lat="42.6357883" lon="13.2806467"><ele>847.6666666666667</ele><time>2026-04-04T08:37:03.03Z</time></trkpt><trkpt lat="42.635635" lon="13.2807933"><ele>845.0</ele><time>2026-04-04T08:37:04.03Z</time></trkpt><trkpt lat="42.635475" lon="13.2809267"><ele>845.0</ele><time>2026-04-04T08:37:05.03Z</time></trkpt><trkpt lat="42.635325" lon="13.2810667"><ele>845.0</ele><time>2026-04-04T08:37:06.03Z</time></trkpt><trkpt lat="42.6351867" lon="13.2811917"><ele>845.0</ele><time>2026-04-04T08:37:07.03Z</time></trkpt><trkpt lat="42.6350683" lon="13.2813267"><ele>847.0</ele><time>2026-04-04T08:37:08.03Z</time></trkpt><trkpt lat="42.6349733" lon="13.2814983"><ele>849.0</ele><time>2026-04-04T08:37:09.03Z</time></trkpt><trkpt lat="42.6348967" lon="13.2816883"><ele>851.0</ele><time>2026-04-04T08:37:10.03Z</time></trkpt><trkpt lat="42.6348233" lon="13.2818767"><ele>851.0</ele><time>2026-04-04T08:37:11.03Z</time></trkpt><trkpt lat="42.6347417" lon="13.2820533"><ele>851.0</ele><time>2026-04-04T08:37:12.03Z</time></trkpt><trkpt lat="42.63464" lon="13.2822233"><ele>851.0</ele><time>2026-04-04T08:37:13.03Z</time></trkpt><trkpt lat="42.6345217" lon="13.2823867"><ele>852.6666666666667</ele><time>2026-04-04T08:37:14.03Z</time></trkpt><trkpt lat="42.6343983" lon="13.28252"><ele>854.3333333333333</ele><time>2026-04-04T08:37:15.03Z</time></trkpt><trkpt lat="42.634265" lon="13.282635"><ele>856.0</ele><time>2026-04-04T08:37:16.031Z</time></trkpt><trkpt lat="42.6341283" lon="13.2827283"><ele>856.0</ele><time>2026-04-04T08:37:17.031Z</time></trkpt><trkpt lat="42.6339783" lon="13.2828083"><ele>856.0</ele><time>2026-04-04T08:37:18.031Z</time></trkpt><trkpt lat="42.6338233" lon="13.2828817"><ele>856.0</ele><time>2026-04-04T08:37:19.031Z</time></trkpt><trkpt lat="42.6336683" lon="13.28295"><ele>857.0</ele><time>2026-04-04T08:37:20.031Z</time></trkpt><trkpt lat="42.633515" lon="13.2830233"><ele>858.0</ele><time>2026-04-04T08:37:21.031Z</time></trkpt><trkpt lat="42.6333733" lon="13.283115"><ele>859.0</ele><time>2026-04-04T08:37:22.031Z</time></trkpt><trkpt lat="42.633235" lon="13.2832033"><ele>859.0</ele><time>2026-04-04T08:37:23.03Z</time></trkpt><trkpt lat="42.6331183" lon="13.2833167"><ele>859.0</ele><time>2026-04-04T08:37:24.031Z</time></trkpt><trkpt lat="42.63302" lon="13.28346"><ele>859.0</ele><time>2026-04-04T08:37:25.031Z</time></trkpt><trkpt lat="42.6329567" lon="13.2836233"><ele>859.0</ele><time>2026-04-04T08:37:26.031Z</time></trkpt><trkpt lat="42.6329167" lon="13.2838133"><ele>863.3333333333333</ele><time>2026-04-04T08:37:27.031Z</time></trkpt><trkpt lat="42.632905" lon="13.284015"><ele>867.6666666666667</ele><time>2026-04-04T08:37:28.031Z</time></trkpt><trkpt lat="42.6329017" lon="13.284225"><ele>872.0</ele><time>2026-04-04T08:37:29.031Z</time></trkpt><trkpt lat="42.6329067" lon="13.2844433"><ele>872.0</ele><time>2026-04-04T08:37:30.031Z</time></trkpt><trkpt lat="42.6329017" lon="13.28466"><ele>872.0</ele><time>2026-04-04T08:37:31.031Z</time></trkpt><trkpt lat="42.63289" lon="13.2848717"><ele>872.0</ele><time>2026-04-04T08:37:32.031Z</time></trkpt><trkpt lat="42.632885" lon="13.2850833"><ele>871.6666666666667</ele><time>2026-04-04T08:37:33.031Z</time></trkpt><trkpt lat="42.6328733" lon="13.285285"><ele>871.3333333333333</ele><time>2026-04-04T08:37:34.031Z</time></trkpt><trkpt lat="42.632845" lon="13.2854917"><ele>871.0</ele><time>2026-04-04T08:37:35.031Z</time></trkpt><trkpt lat="42.6328083" lon="13.285695"><ele>870.5</ele><time>2026-04-04T08:37:36.031Z</time></trkpt><trkpt lat="42.6327567" lon="13.2858833"><ele>870.0</ele><time>2026-04-04T08:37:37.031Z</time></trkpt><trkpt lat="42.6326967" lon="13.2860483"><ele>869.5</ele><time>2026-04-04T08:37:38.031Z</time></trkpt><trkpt lat="42.632625" lon="13.2861883"><ele>869.0</ele><time>2026-04-04T08:37:39.031Z</time></trkpt><trkpt lat="42.6325333" lon="13.2863183"><ele>871.25</ele><time>2026-04-04T08:37:40.031Z</time></trkpt><trkpt lat="42.6324417" lon="13.2864317"><ele>873.5</ele><time>2026-04-04T08:37:41.031Z</time></trkpt><trkpt lat="42.6323533" lon="13.2865183"><ele>875.75</ele><time>2026-04-04T08:37:42.031Z</time></trkpt><trkpt lat="42.6322567" lon="13.2865983"><ele>878.0</ele><time>2026-04-04T08:37:43.031Z</time></trkpt><trkpt lat="42.6321517" lon="13.2866667"><ele>878.0</ele><time>2026-04-04T08:37:44.031Z</time></trkpt><trkpt lat="42.632025" lon="13.2867217"><ele>878.0</ele><time>2026-04-04T08:37:45.031Z</time></trkpt><trkpt lat="42.6318967" lon="13.2867733"><ele>878.0</ele><time>2026-04-04T08:37:46.031Z</time></trkpt><trkpt lat="42.631775" lon="13.2868117"><ele>878.0</ele><time>2026-04-04T08:37:47.031Z</time></trkpt><trkpt lat="42.63166" lon="13.2868367"><ele>878.5</ele><time>2026-04-04T08:37:48.031Z</time></trkpt><trkpt lat="42.6315517" lon="13.2868333"><ele>879.0</ele><time>2026-04-04T08:37:49.031Z</time></trkpt><trkpt lat="42.6314467" lon="13.2867883"><ele>879.5</ele><time>2026-04-04T08:37:50.031Z</time></trkpt><trkpt lat="42.63134" lon="13.2867083"><ele>880.0</ele><time>2026-04-04T08:37:51.031Z</time></trkpt><trkpt lat="42.6312283" lon="13.2866183"><ele>879.5</ele><time>2026-04-04T08:37:52.031Z</time></trkpt><trkpt lat="42.631115" lon="13.2865417"><ele>879.0</ele><time>2026-04-04T08:37:53.031Z</time></trkpt><trkpt lat="42.631" lon="13.2864733"><ele>878.5</ele><time>2026-04-04T08:37:54.031Z</time></trkpt><trkpt lat="42.63088" lon="13.2864017"><ele>878.0</ele><time>2026-04-04T08:37:55.031Z</time></trkpt><trkpt lat="42.6307533" lon="13.2863367"><ele>878.0</ele><time>2026-04-04T08:37:56.031Z</time></trkpt><trkpt lat="42.6306483" lon="13.2862633"><ele>878.0</ele><time>2026-04-04T08:37:57.03Z</time></trkpt><trkpt lat="42.630565" lon="13.2861633"><ele>878.0</ele><time>2026-04-04T08:37:58.031Z</time></trkpt><trkpt lat="42.6304933" lon="13.2860467"><ele>878.0</ele><time>2026-04-04T08:37:59.031Z</time></trkpt><trkpt lat="42.6304283" lon="13.2859167"><ele>878.0</ele><time>2026-04-04T08:38:00.031Z</time></trkpt><trkpt lat="42.63036" lon="13.2857933"><ele>878.0</ele><time>2026-04-04T08:38:01.031Z</time></trkpt><trkpt lat="42.6302767" lon="13.2856983"><ele>878.0</ele><time>2026-04-04T08:38:02.031Z</time></trkpt><trkpt lat="42.6301833" lon="13.2856433"><ele>878.0</ele><time>2026-04-04T08:38:03.031Z</time></trkpt><trkpt lat="42.6300767" lon="13.2856217"><ele>878.0</ele><time>2026-04-04T08:38:04.031Z</time></trkpt><trkpt lat="42.6299483" lon="13.2856217"><ele>882.5</ele><time>2026-04-04T08:38:05.031Z</time></trkpt><trkpt lat="42.6298133" lon="13.2856417"><ele>887.0</ele><time>2026-04-04T08:38:06.031Z</time></trkpt><trkpt lat="42.6296867" lon="13.2856817"><ele>891.5</ele><time>2026-04-04T08:38:07.031Z</time></trkpt><trkpt lat="42.6295567" lon="13.2857333"><ele>896.0</ele><time>2026-04-04T08:38:08.031Z</time></trkpt><trkpt lat="42.6294333" lon="13.2857833"><ele>896.0</ele><time>2026-04-04T08:38:09.031Z</time></trkpt><trkpt lat="42.62931" lon="13.2858283"><ele>896.0</ele><time>2026-04-04T08:38:10.031Z</time></trkpt><trkpt lat="42.62918" lon="13.2858717"><ele>896.0</ele><time>2026-04-04T08:38:11.031Z</time></trkpt><trkpt lat="42.6290517" lon="13.2859033"><ele>896.0</ele><time>2026-04-04T08:38:12.031Z</time></trkpt><trkpt lat="42.6289317" lon="13.2859433"><ele>896.0</ele><time>2026-04-04T08:38:13.031Z</time></trkpt><trkpt lat="42.6288133" lon="13.2859683"><ele>896.0</ele><time>2026-04-04T08:38:14.031Z</time></trkpt><trkpt lat="42.628695" lon="13.2860133"><ele>896.0</ele><time>2026-04-04T08:38:15.031Z</time></trkpt><trkpt lat="42.6285883" lon="13.2860517"><ele>896.0</ele><time>2026-04-04T08:38:16.031Z</time></trkpt><trkpt lat="42.628485" lon="13.2860733"><ele>895.5999999999999</ele><time>2026-04-04T08:38:17.031Z</time></trkpt><trkpt lat="42.6283883" lon="13.2860833"><ele>895.1999999999999</ele><time>2026-04-04T08:38:18.031Z</time></trkpt><trkpt lat="42.62829" lon="13.2860917"><ele>894.8000000000001</ele><time>2026-04-04T08:38:19.031Z</time></trkpt><trkpt lat="42.6281883" lon="13.2861033"><ele>894.4000000000001</ele><time>2026-04-04T08:38:20.031Z</time></trkpt><trkpt lat="42.6280817" lon="13.2861167"><ele>894.0</ele><time>2026-04-04T08:38:21.031Z</time></trkpt><trkpt lat="42.6279817" lon="13.2861683"><ele>894.0</ele><time>2026-04-04T08:38:22.03Z</time></trkpt><trkpt lat="42.6278833" lon="13.2862033"><ele>894.0000000000001</ele><time>2026-04-04T08:38:23.031Z</time></trkpt><trkpt lat="42.6277833" lon="13.2862367"><ele>894.0000000000001</ele><time>2026-04-04T08:38:24.031Z</time></trkpt><trkpt lat="42.627685" lon="13.2862767"><ele>894.0</ele><time>2026-04-04T08:38:25.031Z</time></trkpt><trkpt lat="42.627595" lon="13.2863217"><ele>894.0</ele><time>2026-04-04T08:38:26.031Z</time></trkpt><trkpt lat="42.627515" lon="13.2863833"><ele>894.6666666666666</ele><time>2026-04-04T08:38:27.031Z</time></trkpt><trkpt lat="42.6274583" lon="13.28647"><ele>895.3333333333333</ele><time>2026-04-04T08:38:28.031Z</time></trkpt><trkpt lat="42.6274233" lon="13.28657"><ele>896.0</ele><time>2026-04-04T08:38:29.031Z</time></trkpt><trkpt lat="42.6274217" lon="13.286665"><ele>896.6666666666666</ele><time>2026-04-04T08:38:30.031Z</time></trkpt><trkpt lat="42.627455" lon="13.2867617"><ele>897.3333333333333</ele><time>2026-04-04T08:38:31.031Z</time></trkpt><trkpt lat="42.6275233" lon="13.2868433"><ele>898.0</ele><time>2026-04-04T08:38:32.031Z</time></trkpt><trkpt lat="42.6276033" lon="13.2869033"><ele>898.0</ele><time>2026-04-04T08:38:33.031Z</time></trkpt><trkpt lat="42.62769" lon="13.2869383"><ele>898.0</ele><time>2026-04-04T08:38:34.031Z</time></trkpt><trkpt lat="42.6277783" lon="13.2869433"><ele>898.0</ele><time>2026-04-04T08:38:35.031Z</time></trkpt><trkpt lat="42.627865" lon="13.28693"><ele>898.0</ele><time>2026-04-04T08:38:36.031Z</time></trkpt><trkpt lat="42.6279483" lon="13.2869033"><ele>898.0</ele><time>2026-04-04T08:38:37.031Z</time></trkpt><trkpt lat="42.6280367" lon="13.286845"><ele>902.4</ele><time>2026-04-04T08:38:38.031Z</time></trkpt><trkpt lat="42.6281167" lon="13.2867983"><ele>906.8</ele><time>2026-04-04T08:38:39.031Z</time></trkpt><trkpt lat="42.628195" lon="13.2867517"><ele>911.2</ele><time>2026-04-04T08:38:40.031Z</time></trkpt><trkpt lat="42.628285" lon="13.28671"><ele>915.6</ele><time>2026-04-04T08:38:41.031Z</time></trkpt><trkpt lat="42.628375" lon="13.28668"><ele>920.0</ele><time>2026-04-04T08:38:42.031Z</time></trkpt><trkpt lat="42.62848" lon="13.2866533"><ele>920.0</ele><time>2026-04-04T08:38:43.031Z</time></trkpt><trkpt lat="42.628585" lon="13.2866533"><ele>920.0</ele><time>2026-04-04T08:38:44.031Z</time></trkpt><trkpt lat="42.628695" lon="13.2866533"><ele>920.0</ele><time>2026-04-04T08:38:45.031Z</time></trkpt><trkpt lat="42.62881" lon="13.286635"><ele>920.0</ele><time>2026-04-04T08:38:46.031Z</time></trkpt><trkpt lat="42.628925" lon="13.286615"><ele>920.0</ele><time>2026-04-04T08:38:47.031Z</time></trkpt><trkpt lat="42.6290383" lon="13.286605"><ele>921.5</ele><time>2026-04-04T08:38:48.031Z</time></trkpt><trkpt lat="42.6291533" lon="13.2865883"><ele>923.0</ele><time>2026-04-04T08:38:49.031Z</time></trkpt><trkpt lat="42.6292683" lon="13.2865533"><ele>924.5</ele><time>2026-04-04T08:38:50.031Z</time></trkpt><trkpt lat="42.6293867" lon="13.28652"><ele>926.0</ele><time>2026-04-04T08:38:51.031Z</time></trkpt><trkpt lat="42.6295" lon="13.286485"><ele>926.4</ele><time>2026-04-04T08:38:52.031Z</time></trkpt><trkpt lat="42.6296083" lon="13.2864567"><ele>926.8</ele><time>2026-04-04T08:38:53.031Z</time></trkpt><trkpt lat="42.6297133" lon="13.28643"><ele>927.1999999999999</ele><time>2026-04-04T08:38:54.03Z</time></trkpt><trkpt lat="42.6298017" lon="13.28642"><ele>927.5999999999999</ele><time>2026-04-04T08:38:55.031Z</time></trkpt><trkpt lat="42.629895" lon="13.286435"><ele>928.0</ele><time>2026-04-04T08:38:56.031Z</time></trkpt><trkpt lat="42.6299633" lon="13.2864617"><ele>927.9999999999999</ele><time>2026-04-04T08:38:57.031Z</time></trkpt><trkpt lat="42.6300433" lon="13.2864917"><ele>928.0</ele><time>2026-04-04T08:38:58.031Z</time></trkpt><trkpt lat="42.63013" lon="13.2865433"><ele>928.0</ele><time>2026-04-04T08:38:59.031Z</time></trkpt><trkpt lat="42.6302067" lon="13.2866083"><ele>928.0</ele><time>2026-04-04T08:39:00.031Z</time></trkpt><trkpt lat="42.6302667" lon="13.2866767"><ele>927.9999999999999</ele><time>2026-04-04T08:39:01.031Z</time></trkpt><trkpt lat="42.6303117" lon="13.28674"><ele>928.0</ele><time>2026-04-04T08:39:02.031Z</time></trkpt><trkpt lat="42.6303383" lon="13.2868233"><ele>928.0000000000001</ele><time>2026-04-04T08:39:03.031Z</time></trkpt><trkpt lat="42.6303517" lon="13.2869167"><ele>928.0</ele><time>2026-04-04T08:39:04.031Z</time></trkpt><trkpt lat="42.6303417" lon="13.2870017"><ele>928.0000000000001</ele><time>2026-04-04T08:39:05.031Z</time></trkpt><trkpt lat="42.6303183" lon="13.2870883"><ele>928.0000000000001</ele><time>2026-04-04T08:39:06.03Z</time></trkpt><trkpt lat="42.6302883" lon="13.2871783"><ele>928.0</ele><time>2026-04-04T08:39:07.031Z</time></trkpt><trkpt lat="42.6302633" lon="13.2872783"><ele>928.0000000000001</ele><time>2026-04-04T08:39:08.031Z</time></trkpt><trkpt lat="42.6302383" lon="13.2873817"><ele>928.0000000000001</ele><time>2026-04-04T08:39:09.031Z</time></trkpt><trkpt lat="42.6302133" lon="13.2874883"><ele>930.1666666666666</ele><time>2026-04-04T08:39:10.031Z</time></trkpt><trkpt lat="42.630185" lon="13.2875967"><ele>932.3333333333333</ele><time>2026-04-04T08:39:11.031Z</time></trkpt><trkpt lat="42.630155" lon="13.2877067"><ele>934.5</ele><time>2026-04-04T08:39:12.031Z</time></trkpt><trkpt lat="42.6301217" lon="13.2878117"><ele>936.6666666666667</ele><time>2026-04-04T08:39:13.03Z</time></trkpt><trkpt lat="42.6300933" lon="13.2879217"><ele>938.8333333333334</ele><time>2026-04-04T08:39:14.031Z</time></trkpt><trkpt lat="42.6300617" lon="13.2880433"><ele>941.0</ele><time>2026-04-04T08:39:15.031Z</time></trkpt><trkpt lat="42.6300233" lon="13.2881533"><ele>941.3333333333334</ele><time>2026-04-04T08:39:16.031Z</time></trkpt><trkpt lat="42.62998" lon="13.2882583"><ele>941.6666666666667</ele><time>2026-04-04T08:39:17.031Z</time></trkpt><trkpt lat="42.62994" lon="13.2883683"><ele>942.0</ele><time>2026-04-04T08:39:18.031Z</time></trkpt><trkpt lat="42.6298983" lon="13.2884617"><ele>942.3333333333333</ele><time>2026-04-04T08:39:19.031Z</time></trkpt><trkpt lat="42.629865" lon="13.2885517"><ele>942.6666666666666</ele><time>2026-04-04T08:39:20.031Z</time></trkpt><trkpt lat="42.6298383" lon="13.2886517"><ele>943.0</ele><time>2026-04-04T08:39:21.031Z</time></trkpt><trkpt lat="42.6298083" lon="13.288755"><ele>942.9999999999999</ele><time>2026-04-04T08:39:22.031Z</time></trkpt><trkpt lat="42.6297817" lon="13.2888583"><ele>943.0</ele><time>2026-04-04T08:39:23.031Z</time></trkpt><trkpt lat="42.6297533" lon="13.2889633"><ele>943.0</ele><time>2026-04-04T08:39:24.031Z</time></trkpt><trkpt lat="42.629725" lon="13.2890567"><ele>943.0</ele><time>2026-04-04T08:39:25.031Z</time></trkpt><trkpt lat="42.6296983" lon="13.2891533"><ele>942.9999999999999</ele><time>2026-04-04T08:39:26.031Z</time></trkpt><trkpt lat="42.62967" lon="13.2892483"><ele>943.0</ele><time>2026-04-04T08:39:27.031Z</time></trkpt><trkpt lat="42.6296467" lon="13.2893533"><ele>942.3333333333333</ele><time>2026-04-04T08:39:28.031Z</time></trkpt><trkpt lat="42.6296117" lon="13.28946"><ele>941.6666666666666</ele><time>2026-04-04T08:39:29.031Z</time></trkpt><trkpt lat="42.6295817" lon="13.2895717"><ele>941.0</ele><time>2026-04-04T08:39:30.031Z</time></trkpt><trkpt lat="42.6295567" lon="13.2896833"><ele>940.3333333333333</ele><time>2026-04-04T08:39:31.031Z</time></trkpt><trkpt lat="42.6295217" lon="13.2897833"><ele>939.6666666666666</ele><time>2026-04-04T08:39:32.031Z</time></trkpt><trkpt lat="42.6294967" lon="13.2898883"><ele>939.0</ele><time>2026-04-04T08:39:33.031Z</time></trkpt><trkpt lat="42.629475" lon="13.2900067"><ele>940.8333333333334</ele><time>2026-04-04T08:39:34.031Z</time></trkpt><trkpt lat="42.6294417" lon="13.2901217"><ele>942.6666666666667</ele><time>2026-04-04T08:39:35.031Z</time></trkpt><trkpt lat="42.62941" lon="13.2902433"><ele>944.5</ele><time>2026-04-04T08:39:36.031Z</time></trkpt><trkpt lat="42.629385" lon="13.290355"><ele>946.3333333333334</ele><time>2026-04-04T08:39:37.031Z</time></trkpt><trkpt lat="42.629365" lon="13.2904583"><ele>948.1666666666667</ele><time>2026-04-04T08:39:38.031Z</time></trkpt><trkpt lat="42.62934" lon="13.29057"><ele>950.0</ele><time>2026-04-04T08:39:39.031Z</time></trkpt><trkpt lat="42.629305" lon="13.2906683"><ele>950.0000000000001</ele><time>2026-04-04T08:39:40.031Z</time></trkpt><trkpt lat="42.6292633" lon="13.290755"><ele>950.0</ele><time>2026-04-04T08:39:41.031Z</time></trkpt><trkpt lat="42.6292017" lon="13.2908317"><ele>950.0</ele><time>2026-04-04T08:39:42.031Z</time></trkpt><trkpt lat="42.6291383" lon="13.2908933"><ele>950.0</ele><time>2026-04-04T08:39:43.031Z</time></trkpt><trkpt lat="42.629055" lon="13.290935"><ele>950.0000000000001</ele><time>2026-04-04T08:39:44.031Z</time></trkpt><trkpt lat="42.6289683" lon="13.2909783"><ele>950.0</ele><time>2026-04-04T08:39:45.031Z</time></trkpt><trkpt lat="42.62889" lon="13.291025"><ele>950.0000000000001</ele><time>2026-04-04T08:39:46.031Z</time></trkpt><trkpt lat="42.62881" lon="13.2910633"><ele>950.0</ele><time>2026-04-04T08:39:47.031Z</time></trkpt><trkpt lat="42.6287367" lon="13.2911083"><ele>950.0</ele><time>2026-04-04T08:39:48.031Z</time></trkpt><trkpt lat="42.628675" lon="13.2911417"><ele>950.0</ele><time>2026-04-04T08:39:49.031Z</time></trkpt><trkpt lat="42.628615" lon="13.2911717"><ele>950.0000000000001</ele><time>2026-04-04T08:39:50.03Z</time></trkpt><trkpt lat="42.628505" lon="13.291235"><ele>950.0</ele><time>2026-04-04T08:39:52.031Z</time></trkpt><trkpt lat="42.6284483" lon="13.2912817"><ele>950.4</ele><time>2026-04-04T08:39:53.031Z</time></trkpt><trkpt lat="42.62838" lon="13.291395"><ele>950.8</ele><time>2026-04-04T08:39:55.03Z</time></trkpt><trkpt lat="42.628335" lon="13.2915317"><ele>951.2</ele><time>2026-04-04T08:39:57.031Z</time></trkpt><trkpt lat="42.6283033" lon="13.2916667"><ele>951.6</ele><time>2026-04-04T08:39:59.031Z</time></trkpt><trkpt lat="42.6282417" lon="13.291815"><ele>952.0</ele><time>2026-04-04T08:40:01.031Z</time></trkpt><trkpt lat="42.6281917" lon="13.2919633"><ele>952.2</ele><time>2026-04-04T08:40:03.031Z</time></trkpt><trkpt lat="42.6281317" lon="13.2921317"><ele>952.4000000000001</ele><time>2026-04-04T08:40:05.031Z</time></trkpt><trkpt lat="42.6281033" lon="13.292215"><ele>952.5999999999999</ele><time>2026-04-04T08:40:06.031Z</time></trkpt><trkpt lat="42.62805" lon="13.2923333"><ele>952.8</ele><time>2026-04-04T08:40:08.031Z</time></trkpt><trkpt lat="42.627985" lon="13.2924483"><ele>953.0</ele><time>2026-04-04T08:40:10.031Z</time></trkpt><trkpt lat="42.6279333" lon="13.2925333"><ele>953.0000000000001</ele><time>2026-04-04T08:40:12.031Z</time></trkpt><trkpt lat="42.6278817" lon="13.2926233"><ele>953.0</ele><time>2026-04-04T08:40:14.031Z</time></trkpt><trkpt lat="42.6278167" lon="13.292755"><ele>953.0</ele><time>2026-04-04T08:40:16.031Z</time></trkpt><trkpt lat="42.6277767" lon="13.292825"><ele>953.0</ele><time>2026-04-04T08:40:17.031Z</time></trkpt><trkpt lat="42.6277317" lon="13.2929033"><ele>953.0000000000001</ele><time>2026-04-04T08:40:18.031Z</time></trkpt><trkpt lat="42.6276867" lon="13.292995"><ele>953.0</ele><time>2026-04-04T08:40:19.03Z</time></trkpt><trkpt lat="42.62763" lon="13.29309"><ele>953.1666666666667</ele><time>2026-04-04T08:40:20.031Z</time></trkpt><trkpt lat="42.6275867" lon="13.2931783"><ele>953.3333333333334</ele><time>2026-04-04T08:40:21.031Z</time></trkpt><trkpt lat="42.6275417" lon="13.2932683"><ele>953.5</ele><time>2026-04-04T08:40:22.031Z</time></trkpt><trkpt lat="42.6275" lon="13.29336"><ele>953.6666666666667</ele><time>2026-04-04T08:40:23.031Z</time></trkpt><trkpt lat="42.6274467" lon="13.2934617"><ele>953.8333333333334</ele><time>2026-04-04T08:40:24.031Z</time></trkpt><trkpt lat="42.6274017" lon="13.293565"><ele>954.0</ele><time>2026-04-04T08:40:25.031Z</time></trkpt><trkpt lat="42.6273533" lon="13.2936617"><ele>954.0</ele><time>2026-04-04T08:40:26.031Z</time></trkpt><trkpt lat="42.6273" lon="13.2937533"><ele>954.0</ele><time>2026-04-04T08:40:27.031Z</time></trkpt><trkpt lat="42.6272517" lon="13.2938467"><ele>954.0</ele><time>2026-04-04T08:40:28.031Z</time></trkpt><trkpt lat="42.6272" lon="13.2939433"><ele>954.0</ele><time>2026-04-04T08:40:29.03Z</time></trkpt><trkpt lat="42.627145" lon="13.2940417"><ele>954.0</ele><time>2026-04-04T08:40:30.031Z</time></trkpt><trkpt lat="42.6270933" lon="13.2941367"><ele>954.0</ele><time>2026-04-04T08:40:31.03Z</time></trkpt><trkpt lat="42.62704" lon="13.2942417"><ele>954.0</ele><time>2026-04-04T08:40:32.031Z</time></trkpt><trkpt lat="42.626985" lon="13.2943567"><ele>954.0000000000001</ele><time>2026-04-04T08:40:33.031Z</time></trkpt><trkpt lat="42.6269417" lon="13.29447"><ele>954.0000000000001</ele><time>2026-04-04T08:40:34.031Z</time></trkpt><trkpt lat="42.6268917" lon="13.294585"><ele>954.0</ele><time>2026-04-04T08:40:35.031Z</time></trkpt><trkpt lat="42.6268367" lon="13.2946933"><ele>954.0</ele><time>2026-04-04T08:40:36.031Z</time></trkpt><trkpt lat="42.6267867" lon="13.2948"><ele>955.0</ele><time>2026-04-04T08:40:37.031Z</time></trkpt><trkpt lat="42.626735" lon="13.294905"><ele>956.0</ele><time>2026-04-04T08:40:38.031Z</time></trkpt><trkpt lat="42.62669" lon="13.2950167"><ele>957.0</ele><time>2026-04-04T08:40:39.03Z</time></trkpt><trkpt lat="42.62664" lon="13.2951183"><ele>958.0</ele><time>2026-04-04T08:40:40.031Z</time></trkpt><trkpt lat="42.6265933" lon="13.2952183"><ele>959.0</ele><time>2026-04-04T08:40:41.031Z</time></trkpt><trkpt lat="42.6265467" lon="13.29531"><ele>960.0</ele><time>2026-04-04T08:40:42.031Z</time></trkpt><trkpt lat="42.626505" lon="13.2954017"><ele>960.0</ele><time>2026-04-04T08:40:43.031Z</time></trkpt><trkpt lat="42.6264667" lon="13.2954967"><ele>960.0</ele><time>2026-04-04T08:40:44.031Z</time></trkpt><trkpt lat="42.6264383" lon="13.2955883"><ele>960.0</ele><time>2026-04-04T08:40:45.031Z</time></trkpt><trkpt lat="42.62641" lon="13.2956783"><ele>960.0</ele><time>2026-04-04T08:40:46.031Z</time></trkpt><trkpt lat="42.62635" lon="13.2958167"><ele>960.0</ele><time>2026-04-04T08:40:48.031Z</time></trkpt><trkpt lat="42.6263" lon="13.2959233"><ele>960.0</ele><time>2026-04-04T08:40:50.031Z</time></trkpt><trkpt lat="42.6262733" lon="13.2960367"><ele>960.4</ele><time>2026-04-04T08:40:52.031Z</time></trkpt><trkpt lat="42.6262333" lon="13.2961483"><ele>960.8</ele><time>2026-04-04T08:40:54.031Z</time></trkpt><trkpt lat="42.6261983" lon="13.29625"><ele>961.2</ele><time>2026-04-04T08:40:56.031Z</time></trkpt><trkpt lat="42.6261583" lon="13.2963433"><ele>961.6</ele><time>2026-04-04T08:40:58.031Z</time></trkpt><trkpt lat="42.6261133" lon="13.2964683"><ele>962.0</ele><time>2026-04-04T08:41:00.031Z</time></trkpt><trkpt lat="42.6260667" lon="13.296625"><ele>962.8</ele><time>2026-04-04T08:41:02.031Z</time></trkpt><trkpt lat="42.626025" lon="13.2967717"><ele>963.6</ele><time>2026-04-04T08:41:04.031Z</time></trkpt><trkpt lat="42.62599" lon="13.29688"><ele>964.3999999999999</ele><time>2026-04-04T08:41:06.031Z</time></trkpt><trkpt lat="42.6259583" lon="13.29698"><ele>965.1999999999999</ele><time>2026-04-04T08:41:08.031Z</time></trkpt><trkpt lat="42.6259317" lon="13.29709"><ele>966.0</ele><time>2026-04-04T08:41:10.031Z</time></trkpt><trkpt lat="42.625905" lon="13.2972067"><ele>966.1999999999999</ele><time>2026-04-04T08:41:12.031Z</time></trkpt><trkpt lat="42.6258717" lon="13.297335"><ele>966.3999999999999</ele><time>2026-04-04T08:41:14.031Z</time></trkpt><trkpt lat="42.625845" lon="13.2974517"><ele>966.6</ele><time>2026-04-04T08:41:16.031Z</time></trkpt><trkpt lat="42.6258117" lon="13.2975567"><ele>966.8</ele><time>2026-04-04T08:41:18.031Z</time></trkpt><trkpt lat="42.62577" lon="13.2977"><ele>967.0</ele><time>2026-04-04T08:41:20.031Z</time></trkpt><trkpt lat="42.6257467" lon="13.2977817"><ele>967.0</ele><time>2026-04-04T08:41:21.031Z</time></trkpt><trkpt lat="42.6257217" lon="13.2978717"><ele>967.0</ele><time>2026-04-04T08:41:22.031Z</time></trkpt><trkpt lat="42.6257067" lon="13.2979567"><ele>967.0</ele><time>2026-04-04T08:41:23.031Z</time></trkpt><trkpt lat="42.6256883" lon="13.2980417"><ele>967.0</ele><time>2026-04-04T08:41:24.031Z</time></trkpt><trkpt lat="42.625655" lon="13.29813"><ele>967.0</ele><time>2026-04-04T08:41:25.031Z</time></trkpt><trkpt lat="42.6256217" lon="13.2982317"><ele>967.0</ele><time>2026-04-04T08:41:26.031Z</time></trkpt><trkpt lat="42.6255833" lon="13.29833"><ele>967.0</ele><time>2026-04-04T08:41:27.03Z</time></trkpt><trkpt lat="42.6255433" lon="13.298445"><ele>967.1666666666666</ele><time>2026-04-04T08:41:28.031Z</time></trkpt><trkpt lat="42.6255067" lon="13.2985517"><ele>967.3333333333333</ele><time>2026-04-04T08:41:29.031Z</time></trkpt><trkpt lat="42.625475" lon="13.2986583"><ele>967.5</ele><time>2026-04-04T08:41:30.031Z</time></trkpt><trkpt lat="42.62545" lon="13.2987567"><ele>967.6666666666667</ele><time>2026-04-04T08:41:31.031Z</time></trkpt><trkpt lat="42.6254217" lon="13.2988433"><ele>967.8333333333334</ele><time>2026-04-04T08:41:32.031Z</time></trkpt><trkpt lat="42.6253867" lon="13.2989217"><ele>968.0</ele><time>2026-04-04T08:41:33.031Z</time></trkpt><trkpt lat="42.6253133" lon="13.2990683"><ele>968.8</ele><time>2026-04-04T08:41:35.031Z</time></trkpt><trkpt lat="42.625265" lon="13.2991333"><ele>969.5999999999999</ele><time>2026-04-04T08:41:36.031Z</time></trkpt><trkpt lat="42.62518" lon="13.299245"><ele>970.4000000000001</ele><time>2026-04-04T08:41:38.03Z</time></trkpt><trkpt lat="42.625115" lon="13.29935"><ele>971.2</ele><time>2026-04-04T08:41:40.031Z</time></trkpt><trkpt lat="42.62504" lon="13.2994567"><ele>972.0</ele><time>2026-04-04T08:41:42.031Z</time></trkpt><trkpt lat="42.62496" lon="13.2995683"><ele>972.0</ele><time>2026-04-04T08:41:44.031Z</time></trkpt><trkpt lat="42.6248883" lon="13.2996983"><ele>972.0</ele><time>2026-04-04T08:41:46.031Z</time></trkpt><trkpt lat="42.624845" lon="13.29977"><ele>972.0</ele><time>2026-04-04T08:41:47.031Z</time></trkpt><trkpt lat="42.6248067" lon="13.2998433"><ele>972.0</ele><time>2026-04-04T08:41:48.031Z</time></trkpt><trkpt lat="42.624765" lon="13.299915"><ele>972.0</ele><time>2026-04-04T08:41:49.031Z</time></trkpt><trkpt lat="42.6246833" lon="13.300045"><ele>972.0</ele><time>2026-04-04T08:41:51.031Z</time></trkpt><trkpt lat="42.624605" lon="13.3001683"><ele>972.2</ele><time>2026-04-04T08:41:53.031Z</time></trkpt><trkpt lat="42.6245383" lon="13.30028"><ele>972.4000000000001</ele><time>2026-04-04T08:41:55.03Z</time></trkpt><trkpt lat="42.624455" lon="13.3004067"><ele>972.5999999999999</ele><time>2026-04-04T08:41:57.031Z</time></trkpt><trkpt lat="42.6243783" lon="13.3005483"><ele>972.8</ele><time>2026-04-04T08:41:59.031Z</time></trkpt><trkpt lat="42.6243383" lon="13.3006217"><ele>973.0</ele><time>2026-04-04T08:42:00.03Z</time></trkpt><trkpt lat="42.6242967" lon="13.3006917"><ele>973.3333333333333</ele><time>2026-04-04T08:42:01.031Z</time></trkpt><trkpt lat="42.62425" lon="13.3007633"><ele>973.6666666666666</ele><time>2026-04-04T08:42:02.031Z</time></trkpt><trkpt lat="42.62421" lon="13.30084"><ele>974.0</ele><time>2026-04-04T08:42:03.031Z</time></trkpt><trkpt lat="42.6241567" lon="13.3009283"><ele>974.3333333333333</ele><time>2026-04-04T08:42:04.031Z</time></trkpt><trkpt lat="42.6241" lon="13.3010117"><ele>974.6666666666666</ele><time>2026-04-04T08:42:05.031Z</time></trkpt><trkpt lat="42.6240383" lon="13.3010917"><ele>975.0</ele><time>2026-04-04T08:42:06.031Z</time></trkpt><trkpt lat="42.6239717" lon="13.3011817"><ele>975.0</ele><time>2026-04-04T08:42:07.031Z</time></trkpt><trkpt lat="42.62391" lon="13.3012783"><ele>975.0</ele><time>2026-04-04T08:42:08.031Z</time></trkpt><trkpt lat="42.6238517" lon="13.3013867"><ele>975.0</ele><time>2026-04-04T08:42:09.03Z</time></trkpt><trkpt lat="42.6237967" lon="13.3014933"><ele>975.0</ele><time>2026-04-04T08:42:10.031Z</time></trkpt><trkpt lat="42.6237417" lon="13.3015967"><ele>975.0</ele><time>2026-04-04T08:42:11.031Z</time></trkpt><trkpt lat="42.6236883" lon="13.3017017"><ele>975.0</ele><time>2026-04-04T08:42:12.031Z</time></trkpt><trkpt lat="42.6236433" lon="13.3018083"><ele>975.0</ele><time>2026-04-04T08:42:13.031Z</time></trkpt><trkpt lat="42.6236067" lon="13.301905"><ele>975.0</ele><time>2026-04-04T08:42:14.031Z</time></trkpt><trkpt lat="42.62357" lon="13.301985"><ele>975.0</ele><time>2026-04-04T08:42:15.031Z</time></trkpt><trkpt lat="42.6235217" lon="13.3021217"><ele>975.0</ele><time>2026-04-04T08:42:17.031Z</time></trkpt><trkpt lat="42.6234633" lon="13.3022133"><ele>975.0</ele><time>2026-04-04T08:42:19.031Z</time></trkpt><trkpt lat="42.623415" lon="13.302315"><ele>976.3333333333334</ele><time>2026-04-04T08:42:21.03Z</time></trkpt><trkpt lat="42.6233617" lon="13.3024217"><ele>977.6666666666667</ele><time>2026-04-04T08:42:23.031Z</time></trkpt><trkpt lat="42.6233017" lon="13.302535"><ele>979.0</ele><time>2026-04-04T08:42:25.031Z</time></trkpt><trkpt lat="42.6232667" lon="13.3026117"><ele>980.3333333333334</ele><time>2026-04-04T08:42:26.031Z</time></trkpt><trkpt lat="42.6232233" lon="13.3026867"><ele>981.6666666666667</ele><time>2026-04-04T08:42:27.031Z</time></trkpt><trkpt lat="42.6231783" lon="13.302775"><ele>983.0</ele><time>2026-04-04T08:42:28.031Z</time></trkpt><trkpt lat="42.6231383" lon="13.3028683"><ele>982.9999999999999</ele><time>2026-04-04T08:42:29.031Z</time></trkpt><trkpt lat="42.6230983" lon="13.3029433"><ele>983.0</ele><time>2026-04-04T08:42:30.031Z</time></trkpt><trkpt lat="42.6230567" lon="13.303025"><ele>982.9999999999999</ele><time>2026-04-04T08:42:31.031Z</time></trkpt><trkpt lat="42.6230117" lon="13.3031117"><ele>982.9999999999999</ele><time>2026-04-04T08:42:32.031Z</time></trkpt><trkpt lat="42.622975" lon="13.303195"><ele>983.0</ele><time>2026-04-04T08:42:33.031Z</time></trkpt><trkpt lat="42.6229383" lon="13.30328"><ele>982.9999999999999</ele><time>2026-04-04T08:42:34.031Z</time></trkpt><trkpt lat="42.6228933" lon="13.3033767"><ele>982.9999999999999</ele><time>2026-04-04T08:42:35.031Z</time></trkpt><trkpt lat="42.622855" lon="13.3034717"><ele>983.0000000000001</ele><time>2026-04-04T08:42:36.031Z</time></trkpt><trkpt lat="42.6228033" lon="13.303565"><ele>983.0</ele><time>2026-04-04T08:42:37.031Z</time></trkpt><trkpt lat="42.6227633" lon="13.3036617"><ele>983.0</ele><time>2026-04-04T08:42:38.031Z</time></trkpt><trkpt lat="42.622715" lon="13.3037617"><ele>983.0</ele><time>2026-04-04T08:42:39.031Z</time></trkpt><trkpt lat="42.6226667" lon="13.303865"><ele>983.0000000000001</ele><time>2026-04-04T08:42:40.031Z</time></trkpt><trkpt lat="42.6226183" lon="13.3039667"><ele>983.0</ele><time>2026-04-04T08:42:41.031Z</time></trkpt><trkpt lat="42.6225667" lon="13.3040733"><ele>983.0000000000001</ele><time>2026-04-04T08:42:42.031Z</time></trkpt><trkpt lat="42.62251" lon="13.3041767"><ele>983.0</ele><time>2026-04-04T08:42:43.031Z</time></trkpt><trkpt lat="42.62246" lon="13.3042783"><ele>983.0</ele><time>2026-04-04T08:42:44.031Z</time></trkpt><trkpt lat="42.6224083" lon="13.30438"><ele>983.0</ele><time>2026-04-04T08:42:45.031Z</time></trkpt><trkpt lat="42.622355" lon="13.3044667"><ele>983.0000000000001</ele><time>2026-04-04T08:42:46.031Z</time></trkpt><trkpt lat="42.622305" lon="13.3045583"><ele>983.0</ele><time>2026-04-04T08:42:47.031Z</time></trkpt><trkpt lat="42.62225" lon="13.3046517"><ele>983.0000000000001</ele><time>2026-04-04T08:42:48.031Z</time></trkpt><trkpt lat="42.6222" lon="13.3047383"><ele>983.0</ele><time>2026-04-04T08:42:49.031Z</time></trkpt><trkpt lat="42.622155" lon="13.3048283"><ele>983.0</ele><time>2026-04-04T08:42:50.031Z</time></trkpt><trkpt lat="42.6221067" lon="13.304905"><ele>983.0</ele><time>2026-04-04T08:42:51.031Z</time></trkpt><trkpt lat="42.6220583" lon="13.3049833"><ele>983.0000000000001</ele><time>2026-04-04T08:42:52.031Z</time></trkpt><trkpt lat="42.62201" lon="13.3050683"><ele>983.0</ele><time>2026-04-04T08:42:53.031Z</time></trkpt><trkpt lat="42.6219667" lon="13.3051467"><ele>983.0000000000001</ele><time>2026-04-04T08:42:54.031Z</time></trkpt><trkpt lat="42.62193" lon="13.3052183"><ele>983.0</ele><time>2026-04-04T08:42:55.031Z</time></trkpt><trkpt lat="42.6218817" lon="13.30538"><ele>983.0</ele><time>2026-04-04T08:42:57.031Z</time></trkpt><trkpt lat="42.6218617" lon="13.30548"><ele>983.0</ele><time>2026-04-04T08:42:58.031Z</time></trkpt><trkpt lat="42.621845" lon="13.3055733"><ele>983.0000000000001</ele><time>2026-04-04T08:42:59.031Z</time></trkpt><trkpt lat="42.621835" lon="13.305675"><ele>983.0</ele><time>2026-04-04T08:43:00.031Z</time></trkpt><trkpt lat="42.621825" lon="13.30576"><ele>983.0000000000001</ele><time>2026-04-04T08:43:01.031Z</time></trkpt><trkpt lat="42.6218167" lon="13.3059"><ele>983.0</ele><time>2026-04-04T08:43:03.031Z</time></trkpt><trkpt lat="42.6218683" lon="13.3059983"><ele>983.0</ele><time>2026-04-04T08:43:05.031Z</time></trkpt><trkpt lat="42.621925" lon="13.3059333"><ele>983.0</ele><time>2026-04-04T08:43:08.031Z</time></trkpt><trkpt lat="42.621865" lon="13.3058617"><ele>983.0000000000001</ele><time>2026-04-04T08:43:11.031Z</time></trkpt><trkpt lat="42.6218283" lon="13.30577"><ele>983.0</ele><time>2026-04-04T08:43:14.031Z</time></trkpt><trkpt lat="42.62186" lon="13.3056867"><ele>983.0000000000001</ele><time>2026-04-04T08:43:17.031Z</time></trkpt><trkpt lat="42.621875" lon="13.30558"><ele>983.0</ele><time>2026-04-04T08:43:19.031Z</time></trkpt><trkpt lat="42.6218833" lon="13.305465"><ele>983.0</ele><time>2026-04-04T08:43:21.031Z</time></trkpt><trkpt lat="42.6218967" lon="13.3053783"><ele>983.0</ele><time>2026-04-04T08:43:23.031Z</time></trkpt><trkpt lat="42.62193" lon="13.30527"><ele>983.0000000000001</ele><time>2026-04-04T08:43:26.031Z</time></trkpt><trkpt lat="42.62195" lon="13.305155"><ele>983.0</ele><time>2026-04-04T08:44:20.031Z</time></trkpt><trkpt lat="42.6220233" lon="13.30509"><ele>983.0000000000001</ele><time>2026-04-04T08:44:22.031Z</time></trkpt><trkpt lat="42.6221017" lon="13.3049617"><ele>983.0</ele><time>2026-04-04T08:44:24.031Z</time></trkpt><trkpt lat="42.622145" lon="13.3048817"><ele>983.0</ele><time>2026-04-04T08:44:25.031Z</time></trkpt><trkpt lat="42.6221933" lon="13.304795"><ele>983.0</ele><time>2026-04-04T08:44:26.031Z</time></trkpt><trkpt lat="42.622245" lon="13.30471"><ele>983.0000000000001</ele><time>2026-04-04T08:44:27.031Z</time></trkpt><trkpt lat="42.6223017" lon="13.3046167"><ele>983.0</ele><time>2026-04-04T08:44:28.031Z</time></trkpt><trkpt lat="42.622355" lon="13.3045117"><ele>983.0</ele><time>2026-04-04T08:44:29.031Z</time></trkpt><trkpt lat="42.6224217" lon="13.3044033"><ele>983.0</ele><time>2026-04-04T08:44:30.031Z</time></trkpt><trkpt lat="42.6224833" lon="13.304285"><ele>983.0</ele><time>2026-04-04T08:44:31.03Z</time></trkpt><trkpt lat="42.6225417" lon="13.30417"><ele>983.0</ele><time>2026-04-04T08:44:32.031Z</time></trkpt><trkpt lat="42.6225967" lon="13.3040583"><ele>983.0</ele><time>2026-04-04T08:44:33.031Z</time></trkpt><trkpt lat="42.6226567" lon="13.3039317"><ele>983.5999999999999</ele><time>2026-04-04T08:44:34.031Z</time></trkpt><trkpt lat="42.6227167" lon="13.3038067"><ele>984.1999999999999</ele><time>2026-04-04T08:44:35.031Z</time></trkpt><trkpt lat="42.62278" lon="13.3036783"><ele>984.8</ele><time>2026-04-04T08:44:36.031Z</time></trkpt><trkpt lat="42.6228383" lon="13.3035483"><ele>985.4</ele><time>2026-04-04T08:44:37.03Z</time></trkpt><trkpt lat="42.6229017" lon="13.3034267"><ele>986.0</ele><time>2026-04-04T08:44:38.031Z</time></trkpt><trkpt lat="42.6229633" lon="13.3032983"><ele>986.0</ele><time>2026-04-04T08:44:39.031Z</time></trkpt><trkpt lat="42.6230267" lon="13.3031667"><ele>985.9999999999999</ele><time>2026-04-04T08:44:40.031Z</time></trkpt><trkpt lat="42.6230817" lon="13.303025"><ele>985.9999999999999</ele><time>2026-04-04T08:44:41.031Z</time></trkpt><trkpt lat="42.62314" lon="13.302895"><ele>986.0</ele><time>2026-04-04T08:44:42.031Z</time></trkpt><trkpt lat="42.6231917" lon="13.3027883"><ele>986.0</ele><time>2026-04-04T08:44:43.031Z</time></trkpt><trkpt lat="42.6232417" lon="13.302685"><ele>985.5000000000001</ele><time>2026-04-04T08:44:44.031Z</time></trkpt><trkpt lat="42.6232933" lon="13.3025933"><ele>985.0</ele><time>2026-04-04T08:44:45.031Z</time></trkpt><trkpt lat="42.6233433" lon="13.3025"><ele>984.5</ele><time>2026-04-04T08:44:46.031Z</time></trkpt><trkpt lat="42.6233883" lon="13.3024067"><ele>984.0</ele><time>2026-04-04T08:44:47.031Z</time></trkpt><trkpt lat="42.6234333" lon="13.3023133"><ele>983.5000000000001</ele><time>2026-04-04T08:44:48.031Z</time></trkpt><trkpt lat="42.6234817" lon="13.30223"><ele>983.0</ele><time>2026-04-04T08:44:49.031Z</time></trkpt><trkpt lat="42.62354" lon="13.302125"><ele>982.4</ele><time>2026-04-04T08:44:50.031Z</time></trkpt><trkpt lat="42.6235867" lon="13.3020167"><ele>981.8</ele><time>2026-04-04T08:44:51.031Z</time></trkpt><trkpt lat="42.62364" lon="13.3019017"><ele>981.2</ele><time>2026-04-04T08:44:52.031Z</time></trkpt><trkpt lat="42.62369" lon="13.3018033"><ele>980.6</ele><time>2026-04-04T08:44:53.031Z</time></trkpt><trkpt lat="42.6237433" lon="13.3016883"><ele>980.0</ele><time>2026-04-04T08:44:54.031Z</time></trkpt><trkpt lat="42.6237983" lon="13.3015783"><ele>980.0</ele><time>2026-04-04T08:44:55.031Z</time></trkpt><trkpt lat="42.6238567" lon="13.3014717"><ele>980.0</ele><time>2026-04-04T08:44:56.031Z</time></trkpt><trkpt lat="42.6239167" lon="13.3013617"><ele>980.0</ele><time>2026-04-04T08:44:57.031Z</time></trkpt><trkpt lat="42.6239783" lon="13.30126"><ele>980.0</ele><time>2026-04-04T08:44:58.031Z</time></trkpt><trkpt lat="42.6240417" lon="13.301165"><ele>980.0</ele><time>2026-04-04T08:44:59.031Z</time></trkpt><trkpt lat="42.6241067" lon="13.3010683"><ele>979.0</ele><time>2026-04-04T08:45:00.031Z</time></trkpt><trkpt lat="42.6241733" lon="13.3009733"><ele>978.0</ele><time>2026-04-04T08:45:01.031Z</time></trkpt><trkpt lat="42.6242317" lon="13.3008683"><ele>977.0</ele><time>2026-04-04T08:45:02.031Z</time></trkpt><trkpt lat="42.6242917" lon="13.3007717"><ele>976.0</ele><time>2026-04-04T08:45:03.031Z</time></trkpt><trkpt lat="42.6243433" lon="13.3006833"><ele>975.0</ele><time>2026-04-04T08:45:04.031Z</time></trkpt><trkpt lat="42.624395" lon="13.3005967"><ele>974.5</ele><time>2026-04-04T08:45:05.03Z</time></trkpt><trkpt lat="42.624445" lon="13.30051"><ele>974.0</ele><time>2026-04-04T08:45:06.031Z</time></trkpt><trkpt lat="42.6245017" lon="13.3004217"><ele>973.5</ele><time>2026-04-04T08:45:07.031Z</time></trkpt><trkpt lat="42.6246017" lon="13.3002533"><ele>973.0</ele><time>2026-04-04T08:45:09.031Z</time></trkpt><trkpt lat="42.6247033" lon="13.30008"><ele>973.0</ele><time>2026-04-04T08:45:11.031Z</time></trkpt><trkpt lat="42.624795" lon="13.2999183"><ele>973.0</ele><time>2026-04-04T08:45:13.031Z</time></trkpt><trkpt lat="42.6249033" lon="13.29974"><ele>973.0</ele><time>2026-04-04T08:45:15.031Z</time></trkpt><trkpt lat="42.6250167" lon="13.2995533"><ele>972.8</ele><time>2026-04-04T08:45:17.031Z</time></trkpt><trkpt lat="42.6251283" lon="13.2993917"><ele>972.5999999999999</ele><time>2026-04-04T08:45:19.031Z</time></trkpt><trkpt lat="42.6252133" lon="13.2992583"><ele>972.4000000000001</ele><time>2026-04-04T08:45:21.031Z</time></trkpt><trkpt lat="42.6252767" lon="13.2991767"><ele>972.2</ele><time>2026-04-04T08:45:23.031Z</time></trkpt><trkpt lat="42.6253233" lon="13.2991117"><ele>972.0</ele><time>2026-04-04T08:45:25.031Z</time></trkpt><trkpt lat="42.62538" lon="13.299025"><ele>971.0</ele><time>2026-04-04T08:45:27.031Z</time></trkpt><trkpt lat="42.6254317" lon="13.2989167"><ele>970.0</ele><time>2026-04-04T08:45:29.031Z</time></trkpt><trkpt lat="42.625485" lon="13.2987583"><ele>969.0</ele><time>2026-04-04T08:45:31.031Z</time></trkpt><trkpt lat="42.625535" lon="13.298545"><ele>968.0</ele><time>2026-04-04T08:45:33.031Z</time></trkpt><trkpt lat="42.62561" lon="13.298315"><ele>968.0</ele><time>2026-04-04T08:45:35.031Z</time></trkpt><trkpt lat="42.6256683" lon="13.2981317"><ele>968.0</ele><time>2026-04-04T08:45:37.031Z</time></trkpt><trkpt lat="42.62571" lon="13.2979983"><ele>968.0</ele><time>2026-04-04T08:45:39.031Z</time></trkpt><trkpt lat="42.6257483" lon="13.297865"><ele>968.0</ele><time>2026-04-04T08:45:41.031Z</time></trkpt><trkpt lat="42.6257883" lon="13.2977517"><ele>967.8</ele><time>2026-04-04T08:45:43.031Z</time></trkpt><trkpt lat="42.62583" lon="13.2976217"><ele>967.5999999999999</ele><time>2026-04-04T08:45:45.03Z</time></trkpt><trkpt lat="42.62587" lon="13.2974983"><ele>967.4000000000001</ele><time>2026-04-04T08:45:47.031Z</time></trkpt><trkpt lat="42.6259" lon="13.29741"><ele>967.2</ele><time>2026-04-04T08:45:49.031Z</time></trkpt><trkpt lat="42.6259383" lon="13.297275"><ele>967.0</ele><time>2026-04-04T08:45:54.031Z</time></trkpt><trkpt lat="42.62597" lon="13.297135"><ele>966.6666666666666</ele><time>2026-04-04T08:45:56.031Z</time></trkpt><trkpt lat="42.6260317" lon="13.2969383"><ele>966.3333333333333</ele><time>2026-04-04T08:45:58.031Z</time></trkpt><trkpt lat="42.6260983" lon="13.2967183"><ele>966.0</ele><time>2026-04-04T08:46:00.031Z</time></trkpt><trkpt lat="42.6261633" lon="13.296535"><ele>964.6666666666667</ele><time>2026-04-04T08:46:02.031Z</time></trkpt><trkpt lat="42.6262267" lon="13.2963017"><ele>963.3333333333334</ele><time>2026-04-04T08:46:04.031Z</time></trkpt><trkpt lat="42.6262817" lon="13.2961183"><ele>962.0</ele><time>2026-04-04T08:46:06.031Z</time></trkpt><trkpt lat="42.626355" lon="13.2959167"><ele>962.0</ele><time>2026-04-04T08:46:08.031Z</time></trkpt><trkpt lat="42.6264367" lon="13.2957067"><ele>962.0</ele><time>2026-04-04T08:46:10.031Z</time></trkpt><trkpt lat="42.6265033" lon="13.2955117"><ele>962.0</ele><time>2026-04-04T08:46:12.031Z</time></trkpt><trkpt lat="42.6265883" lon="13.2953117"><ele>961.3333333333334</ele><time>2026-04-04T08:46:14.031Z</time></trkpt><trkpt lat="42.6266933" lon="13.29508"><ele>960.6666666666667</ele><time>2026-04-04T08:46:16.031Z</time></trkpt><trkpt lat="42.6268133" lon="13.2948467"><ele>960.0</ele><time>2026-04-04T08:46:18.031Z</time></trkpt><trkpt lat="42.62695" lon="13.2945717"><ele>957.0</ele><time>2026-04-04T08:46:20.031Z</time></trkpt><trkpt lat="42.6270867" lon="13.2942967"><ele>954.0</ele><time>2026-04-04T08:46:22.031Z</time></trkpt><trkpt lat="42.627225" lon="13.294025"><ele>954.0</ele><time>2026-04-04T08:46:24.031Z</time></trkpt><trkpt lat="42.627355" lon="13.2937783"><ele>954.0</ele><time>2026-04-04T08:46:26.031Z</time></trkpt><trkpt lat="42.627455" lon="13.29356"><ele>954.0</ele><time>2026-04-04T08:46:28.031Z</time></trkpt><trkpt lat="42.6275517" lon="13.293355"><ele>954.0</ele><time>2026-04-04T08:46:30.031Z</time></trkpt><trkpt lat="42.627655" lon="13.2931667"><ele>954.0</ele><time>2026-04-04T08:46:32.031Z</time></trkpt><trkpt lat="42.6277567" lon="13.2929733"><ele>954.0</ele><time>2026-04-04T08:46:34.03Z</time></trkpt><trkpt lat="42.62785" lon="13.29281"><ele>953.1666666666666</ele><time>2026-04-04T08:46:36.031Z</time></trkpt><trkpt lat="42.6279117" lon="13.292715"><ele>952.3333333333333</ele><time>2026-04-04T08:46:38.031Z</time></trkpt><trkpt lat="42.6279667" lon="13.292605"><ele>951.5</ele><time>2026-04-04T08:46:42.031Z</time></trkpt><trkpt lat="42.62801" lon="13.292535"><ele>950.6666666666666</ele><time>2026-04-04T08:46:46.031Z</time></trkpt><trkpt lat="42.6280333" lon="13.2924433"><ele>949.8333333333333</ele><time>2026-04-04T08:46:57.031Z</time></trkpt><trkpt lat="42.62795" lon="13.2925017"><ele>949.0</ele><time>2026-04-04T08:47:01.031Z</time></trkpt><trkpt lat="42.62796" lon="13.2925867"><ele>949.0</ele><time>2026-04-04T08:47:03.031Z</time></trkpt><trkpt lat="42.6279383" lon="13.2926767"><ele>949.0</ele><time>2026-04-04T08:47:06.031Z</time></trkpt></trkseg><trkseg><trkpt lat="42.6279483" lon="13.2927617"><ele>949.0</ele><time>2026-04-04T09:11:50.393Z</time></trkpt><trkpt lat="42.62784" lon="13.29273"><ele>949.0000000000001</ele><time>2026-04-04T09:13:55.027Z</time></trkpt><trkpt lat="42.6277867" lon="13.29281"><ele>949.0000000000001</ele><time>2026-04-04T09:13:58.027Z</time></trkpt><trkpt lat="42.6277383" lon="13.292985"><ele>949.0</ele><time>2026-04-04T09:15:02.027Z</time></trkpt><trkpt lat="42.6276967" lon="13.293065"><ele>949.0</ele><time>2026-04-04T09:15:03.026Z</time></trkpt><trkpt lat="42.6276483" lon="13.29315"><ele>949.7142857142858</ele><time>2026-04-04T09:15:04.027Z</time></trkpt><trkpt lat="42.627595" lon="13.2932317"><ele>950.4285714285714</ele><time>2026-04-04T09:15:05.027Z</time></trkpt><trkpt lat="42.62755" lon="13.2933067"><ele>951.1428571428571</ele><time>2026-04-04T09:15:06.027Z</time></trkpt><trkpt lat="42.6275083" lon="13.293385"><ele>951.8571428571429</ele><time>2026-04-04T09:15:07.027Z</time></trkpt><trkpt lat="42.627465" lon="13.29346"><ele>952.5714285714284</ele><time>2026-04-04T09:15:08.027Z</time></trkpt><trkpt lat="42.6274233" lon="13.2935433"><ele>953.2857142857142</ele><time>2026-04-04T09:15:09.027Z</time></trkpt><trkpt lat="42.6273833" lon="13.2936267"><ele>954.0</ele><time>2026-04-04T09:15:10.027Z</time></trkpt><trkpt lat="42.6273433" lon="13.2937167"><ele>954.0</ele><time>2026-04-04T09:15:11.027Z</time></trkpt><trkpt lat="42.6272967" lon="13.2937933"><ele>954.0</ele><time>2026-04-04T09:15:12.027Z</time></trkpt><trkpt lat="42.6272533" lon="13.2938717"><ele>954.0</ele><time>2026-04-04T09:15:13.027Z</time></trkpt><trkpt lat="42.62721" lon="13.29396"><ele>954.0</ele><time>2026-04-04T09:15:14.026Z</time></trkpt><trkpt lat="42.6271733" lon="13.2940483"><ele>954.0</ele><time>2026-04-04T09:15:15.027Z</time></trkpt><trkpt lat="42.6271283" lon="13.2941433"><ele>954.0</ele><time>2026-04-04T09:15:16.027Z</time></trkpt><trkpt lat="42.62707" lon="13.2942383"><ele>954.0</ele><time>2026-04-04T09:15:17.027Z</time></trkpt><trkpt lat="42.6270183" lon="13.2943383"><ele>954.0</ele><time>2026-04-04T09:15:18.027Z</time></trkpt><trkpt lat="42.62697" lon="13.294435"><ele>954.0</ele><time>2026-04-04T09:15:19.027Z</time></trkpt><trkpt lat="42.6269217" lon="13.2945283"><ele>954.0</ele><time>2026-04-04T09:15:20.026Z</time></trkpt><trkpt lat="42.62687" lon="13.2946283"><ele>954.0</ele><time>2026-04-04T09:15:21.027Z</time></trkpt><trkpt lat="42.6268233" lon="13.2947267"><ele>954.0</ele><time>2026-04-04T09:15:22.027Z</time></trkpt><trkpt lat="42.6267733" lon="13.2948333"><ele>955.0</ele><time>2026-04-04T09:15:23.027Z</time></trkpt><trkpt lat="42.626725" lon="13.2949367"><ele>956.0</ele><time>2026-04-04T09:15:24.027Z</time></trkpt><trkpt lat="42.6266733" lon="13.2950383"><ele>957.0</ele><time>2026-04-04T09:15:25.027Z</time></trkpt><trkpt lat="42.6266217" lon="13.2951383"><ele>958.0</ele><time>2026-04-04T09:15:26.027Z</time></trkpt><trkpt lat="42.6265783" lon="13.295245"><ele>959.0</ele><time>2026-04-04T09:15:27.027Z</time></trkpt><trkpt lat="42.6265417" lon="13.295345"><ele>960.0</ele><time>2026-04-04T09:15:28.027Z</time></trkpt><trkpt lat="42.6265033" lon="13.2954533"><ele>960.0</ele><time>2026-04-04T09:15:29.027Z</time></trkpt><trkpt lat="42.6264583" lon="13.2955567"><ele>960.0</ele><time>2026-04-04T09:15:30.027Z</time></trkpt><trkpt lat="42.6264167" lon="13.2956633"><ele>960.0</ele><time>2026-04-04T09:15:31.027Z</time></trkpt><trkpt lat="42.6263733" lon="13.2957717"><ele>960.0</ele><time>2026-04-04T09:15:32.026Z</time></trkpt><trkpt lat="42.6263317" lon="13.29588"><ele>960.0</ele><time>2026-04-04T09:15:33.026Z</time></trkpt><trkpt lat="42.6262983" lon="13.2959917"><ele>960.0</ele><time>2026-04-04T09:15:34.027Z</time></trkpt><trkpt lat="42.6262633" lon="13.2961033"><ele>960.4</ele><time>2026-04-04T09:15:35.027Z</time></trkpt><trkpt lat="42.62622" lon="13.2962183"><ele>960.8</ele><time>2026-04-04T09:15:36.027Z</time></trkpt><trkpt lat="42.6261767" lon="13.2963483"><ele>961.2</ele><time>2026-04-04T09:15:37.027Z</time></trkpt><trkpt lat="42.626135" lon="13.29647"><ele>961.6</ele><time>2026-04-04T09:15:38.027Z</time></trkpt><trkpt lat="42.626095" lon="13.296585"><ele>962.0</ele><time>2026-04-04T09:15:39.027Z</time></trkpt><trkpt lat="42.6260517" lon="13.29671"><ele>962.8</ele><time>2026-04-04T09:15:40.027Z</time></trkpt><trkpt lat="42.6260167" lon="13.2968367"><ele>963.6</ele><time>2026-04-04T09:15:41.027Z</time></trkpt><trkpt lat="42.625975" lon="13.2969683"><ele>964.3999999999999</ele><time>2026-04-04T09:15:42.027Z</time></trkpt><trkpt lat="42.6259383" lon="13.297095"><ele>965.1999999999999</ele><time>2026-04-04T09:15:43.027Z</time></trkpt><trkpt lat="42.6259067" lon="13.2972083"><ele>966.0</ele><time>2026-04-04T09:15:44.027Z</time></trkpt><trkpt lat="42.6258767" lon="13.2973183"><ele>966.1999999999999</ele><time>2026-04-04T09:15:45.027Z</time></trkpt><trkpt lat="42.62585" lon="13.297435"><ele>966.3999999999999</ele><time>2026-04-04T09:15:46.027Z</time></trkpt><trkpt lat="42.62583" lon="13.2975517"><ele>966.6</ele><time>2026-04-04T09:15:47.027Z</time></trkpt><trkpt lat="42.6257967" lon="13.2976717"><ele>966.8</ele><time>2026-04-04T09:15:48.027Z</time></trkpt><trkpt lat="42.625765" lon="13.2978017"><ele>967.0</ele><time>2026-04-04T09:15:49.027Z</time></trkpt><trkpt lat="42.6257233" lon="13.2979333"><ele>967.0</ele><time>2026-04-04T09:15:50.027Z</time></trkpt><trkpt lat="42.6256867" lon="13.2980633"><ele>967.0</ele><time>2026-04-04T09:15:51.027Z</time></trkpt><trkpt lat="42.62565" lon="13.2981883"><ele>967.0</ele><time>2026-04-04T09:15:52.027Z</time></trkpt><trkpt lat="42.6256083" lon="13.2983"><ele>967.0</ele><time>2026-04-04T09:15:53.027Z</time></trkpt><trkpt lat="42.6255733" lon="13.2984283"><ele>967.0</ele><time>2026-04-04T09:15:54.027Z</time></trkpt><trkpt lat="42.62554" lon="13.29855"><ele>967.2</ele><time>2026-04-04T09:15:55.027Z</time></trkpt><trkpt lat="42.625495" lon="13.298675"><ele>967.4000000000001</ele><time>2026-04-04T09:15:56.027Z</time></trkpt><trkpt lat="42.6254417" lon="13.298805"><ele>967.5999999999999</ele><time>2026-04-04T09:15:57.027Z</time></trkpt><trkpt lat="42.6253817" lon="13.298915"><ele>967.8</ele><time>2026-04-04T09:15:58.027Z</time></trkpt><trkpt lat="42.6253233" lon="13.2990233"><ele>968.0</ele><time>2026-04-04T09:15:59.027Z</time></trkpt><trkpt lat="42.6252583" lon="13.29914"><ele>968.6666666666667</ele><time>2026-04-04T09:16:00.027Z</time></trkpt><trkpt lat="42.6252017" lon="13.299235"><ele>969.3333333333334</ele><time>2026-04-04T09:16:01.027Z</time></trkpt><trkpt lat="42.62515" lon="13.2993167"><ele>970.0</ele><time>2026-04-04T09:16:02.027Z</time></trkpt><trkpt lat="42.6251017" lon="13.2993983"><ele>970.6666666666667</ele><time>2026-04-04T09:16:03.027Z</time></trkpt><trkpt lat="42.6250533" lon="13.2994733"><ele>971.3333333333334</ele><time>2026-04-04T09:16:04.027Z</time></trkpt><trkpt lat="42.625005" lon="13.299555"><ele>972.0</ele><time>2026-04-04T09:16:05.027Z</time></trkpt><trkpt lat="42.6249467" lon="13.2996383"><ele>972.0</ele><time>2026-04-04T09:16:06.027Z</time></trkpt><trkpt lat="42.6248817" lon="13.2997283"><ele>972.0</ele><time>2026-04-04T09:16:07.027Z</time></trkpt><trkpt lat="42.6248217" lon="13.2998317"><ele>972.0</ele><time>2026-04-04T09:16:08.027Z</time></trkpt><trkpt lat="42.6247567" lon="13.29993"><ele>972.0</ele><time>2026-04-04T09:16:09.027Z</time></trkpt><trkpt lat="42.624695" lon="13.30003"><ele>972.0</ele><time>2026-04-04T09:16:10.027Z</time></trkpt><trkpt lat="42.6246317" lon="13.3001433"><ele>972.2</ele><time>2026-04-04T09:16:11.027Z</time></trkpt><trkpt lat="42.6245717" lon="13.3002533"><ele>972.4000000000001</ele><time>2026-04-04T09:16:12.027Z</time></trkpt><trkpt lat="42.6245083" lon="13.3003583"><ele>972.5999999999999</ele><time>2026-04-04T09:16:13.027Z</time></trkpt><trkpt lat="42.6244533" lon="13.3004617"><ele>972.8</ele><time>2026-04-04T09:16:14.027Z</time></trkpt><trkpt lat="42.6243833" lon="13.3005767"><ele>973.0</ele><time>2026-04-04T09:16:15.027Z</time></trkpt><trkpt lat="42.624315" lon="13.3006983"><ele>973.4</ele><time>2026-04-04T09:16:16.027Z</time></trkpt><trkpt lat="42.6242417" lon="13.30081"><ele>973.8</ele><time>2026-04-04T09:16:17.027Z</time></trkpt><trkpt lat="42.6241633" lon="13.3009283"><ele>974.2</ele><time>2026-04-04T09:16:18.027Z</time></trkpt><trkpt lat="42.6240967" lon="13.3010433"><ele>974.6</ele><time>2026-04-04T09:16:19.027Z</time></trkpt><trkpt lat="42.6240283" lon="13.301165"><ele>975.0</ele><time>2026-04-04T09:16:20.027Z</time></trkpt><trkpt lat="42.6239467" lon="13.3012883"><ele>975.0</ele><time>2026-04-04T09:16:21.026Z</time></trkpt><trkpt lat="42.6238683" lon="13.301415"><ele>975.0</ele><time>2026-04-04T09:16:22.027Z</time></trkpt><trkpt lat="42.6237967" lon="13.3015417"><ele>975.0</ele><time>2026-04-04T09:16:23.027Z</time></trkpt><trkpt lat="42.6237233" lon="13.301675"><ele>975.0</ele><time>2026-04-04T09:16:24.027Z</time></trkpt><trkpt lat="42.62365" lon="13.3018133"><ele>975.0</ele><time>2026-04-04T09:16:25.027Z</time></trkpt><trkpt lat="42.6235833" lon="13.3019533"><ele>975.0</ele><time>2026-04-04T09:16:26.027Z</time></trkpt><trkpt lat="42.62352" lon="13.3020917"><ele>975.0</ele><time>2026-04-04T09:16:27.027Z</time></trkpt><trkpt lat="42.6234583" lon="13.3022233"><ele>975.0</ele><time>2026-04-04T09:16:28.027Z</time></trkpt><trkpt lat="42.6233917" lon="13.3023533"><ele>977.0</ele><time>2026-04-04T09:16:29.026Z</time></trkpt><trkpt lat="42.6233283" lon="13.30248"><ele>979.0</ele><time>2026-04-04T09:16:30.027Z</time></trkpt><trkpt lat="42.623275" lon="13.3026133"><ele>981.0</ele><time>2026-04-04T09:16:31.027Z</time></trkpt><trkpt lat="42.623215" lon="13.3027417"><ele>983.0</ele><time>2026-04-04T09:16:32.027Z</time></trkpt><trkpt lat="42.62315" lon="13.3028783"><ele>983.0</ele><time>2026-04-04T09:16:33.027Z</time></trkpt><trkpt lat="42.6230833" lon="13.303015"><ele>983.0</ele><time>2026-04-04T09:16:34.027Z</time></trkpt><trkpt lat="42.62302" lon="13.3031483"><ele>983.0</ele><time>2026-04-04T09:16:35.027Z</time></trkpt><trkpt lat="42.6229567" lon="13.3032833"><ele>983.0</ele><time>2026-04-04T09:16:36.027Z</time></trkpt><trkpt lat="42.6228917" lon="13.303415"><ele>983.0</ele><time>2026-04-04T09:16:37.027Z</time></trkpt><trkpt lat="42.6228233" lon="13.3035467"><ele>983.0</ele><time>2026-04-04T09:16:38.027Z</time></trkpt><trkpt lat="42.62276" lon="13.3036867"><ele>983.0</ele><time>2026-04-04T09:16:39.027Z</time></trkpt><trkpt lat="42.6226967" lon="13.303835"><ele>983.0</ele><time>2026-04-04T09:16:40.027Z</time></trkpt><trkpt lat="42.6226317" lon="13.3039783"><ele>983.0</ele><time>2026-04-04T09:16:41.027Z</time></trkpt><trkpt lat="42.6225683" lon="13.3041217"><ele>983.0</ele><time>2026-04-04T09:16:42.027Z</time></trkpt><trkpt lat="42.6224917" lon="13.3042633"><ele>983.0</ele><time>2026-04-04T09:16:43.027Z</time></trkpt><trkpt lat="42.622415" lon="13.304405"><ele>983.0</ele><time>2026-04-04T09:16:44.027Z</time></trkpt><trkpt lat="42.6223383" lon="13.30453"><ele>983.0</ele><time>2026-04-04T09:16:45.027Z</time></trkpt><trkpt lat="42.62226" lon="13.3046567"><ele>983.0</ele><time>2026-04-04T09:16:46.027Z</time></trkpt><trkpt lat="42.6221833" lon="13.30479"><ele>983.0</ele><time>2026-04-04T09:16:47.027Z</time></trkpt><trkpt lat="42.622105" lon="13.304925"><ele>983.0</ele><time>2026-04-04T09:16:48.027Z</time></trkpt><trkpt lat="42.6220267" lon="13.30506"><ele>983.0</ele><time>2026-04-04T09:16:49.027Z</time></trkpt><trkpt lat="42.6219583" lon="13.3051967"><ele>983.0</ele><time>2026-04-04T09:16:50.027Z</time></trkpt><trkpt lat="42.6219017" lon="13.3053233"><ele>983.0</ele><time>2026-04-04T09:16:51.027Z</time></trkpt><trkpt lat="42.6218333" lon="13.3054617"><ele>983.0</ele><time>2026-04-04T09:16:52.027Z</time></trkpt><trkpt lat="42.621755" lon="13.30559"><ele>983.0</ele><time>2026-04-04T09:16:53.026Z</time></trkpt><trkpt lat="42.6216817" lon="13.305725"><ele>983.0</ele><time>2026-04-04T09:16:54.026Z</time></trkpt><trkpt lat="42.6216017" lon="13.30586"><ele>983.0</ele><time>2026-04-04T09:16:55.026Z</time></trkpt><trkpt lat="42.62152" lon="13.30599"><ele>983.0</ele><time>2026-04-04T09:16:56.026Z</time></trkpt><trkpt lat="42.62145" lon="13.30612"><ele>983.0</ele><time>2026-04-04T09:16:57.026Z</time></trkpt><trkpt lat="42.6213717" lon="13.3062633"><ele>983.0</ele><time>2026-04-04T09:16:58.026Z</time></trkpt><trkpt lat="42.62129" lon="13.3063983"><ele>983.0</ele><time>2026-04-04T09:16:59.026Z</time></trkpt><trkpt lat="42.6212117" lon="13.3065433"><ele>983.0</ele><time>2026-04-04T09:17:00.026Z</time></trkpt><trkpt lat="42.6211383" lon="13.3067083"><ele>983.0</ele><time>2026-04-04T09:17:01.025Z</time></trkpt><trkpt lat="42.621085" lon="13.306865"><ele>983.0</ele><time>2026-04-04T09:17:02.026Z</time></trkpt><trkpt lat="42.6210583" lon="13.3070367"><ele>983.0</ele><time>2026-04-04T09:17:03.026Z</time></trkpt><trkpt lat="42.62105" lon="13.3071967"><ele>983.0</ele><time>2026-04-04T09:17:04.026Z</time></trkpt><trkpt lat="42.6210617" lon="13.3073583"><ele>983.0</ele><time>2026-04-04T09:17:05.026Z</time></trkpt><trkpt lat="42.62107" lon="13.3075133"><ele>983.0</ele><time>2026-04-04T09:17:06.025Z</time></trkpt><trkpt lat="42.6210733" lon="13.307655"><ele>983.0</ele><time>2026-04-04T09:17:07.026Z</time></trkpt><trkpt lat="42.6210683" lon="13.3077983"><ele>983.0</ele><time>2026-04-04T09:17:08.026Z</time></trkpt><trkpt lat="42.6210617" lon="13.307945"><ele>983.0</ele><time>2026-04-04T09:17:09.026Z</time></trkpt><trkpt lat="42.6210583" lon="13.3081"><ele>983.0</ele><time>2026-04-04T09:17:10.026Z</time></trkpt><trkpt lat="42.621055" lon="13.30825"><ele>983.0</ele><time>2026-04-04T09:17:11.026Z</time></trkpt><trkpt lat="42.6210417" lon="13.3084017"><ele>983.0</ele><time>2026-04-04T09:17:12.026Z</time></trkpt><trkpt lat="42.62102" lon="13.30854"><ele>983.0</ele><time>2026-04-04T09:17:13.026Z</time></trkpt><trkpt lat="42.621" lon="13.3086867"><ele>983.0</ele><time>2026-04-04T09:17:14.026Z</time></trkpt><trkpt lat="42.62099" lon="13.3088367"><ele>983.5</ele><time>2026-04-04T09:17:15.026Z</time></trkpt><trkpt lat="42.6209783" lon="13.3089883"><ele>984.0</ele><time>2026-04-04T09:17:16.026Z</time></trkpt><trkpt lat="42.620975" lon="13.30914"><ele>984.5</ele><time>2026-04-04T09:17:17.026Z</time></trkpt><trkpt lat="42.62098" lon="13.3092967"><ele>985.0</ele><time>2026-04-04T09:17:18.026Z</time></trkpt><trkpt lat="42.6209917" lon="13.30946"><ele>985.0</ele><time>2026-04-04T09:17:19.026Z</time></trkpt><trkpt lat="42.6210033" lon="13.3096233"><ele>985.0</ele><time>2026-04-04T09:17:20.026Z</time></trkpt><trkpt lat="42.6210133" lon="13.3097867"><ele>985.0</ele><time>2026-04-04T09:17:21.026Z</time></trkpt><trkpt lat="42.6210217" lon="13.3099383"><ele>985.0</ele><time>2026-04-04T09:17:22.026Z</time></trkpt><trkpt lat="42.6210217" lon="13.3100883"><ele>985.2</ele><time>2026-04-04T09:17:23.026Z</time></trkpt><trkpt lat="42.6210067" lon="13.310245"><ele>985.4</ele><time>2026-04-04T09:17:24.026Z</time></trkpt><trkpt lat="42.620985" lon="13.3103817"><ele>985.5999999999999</ele><time>2026-04-04T09:17:25.026Z</time></trkpt><trkpt lat="42.620945" lon="13.31052"><ele>985.8</ele><time>2026-04-04T09:17:26.026Z</time></trkpt><trkpt lat="42.6208983" lon="13.3106567"><ele>986.0</ele><time>2026-04-04T09:17:27.026Z</time></trkpt><trkpt lat="42.6208483" lon="13.3107933"><ele>985.8</ele><time>2026-04-04T09:17:28.026Z</time></trkpt><trkpt lat="42.6207983" lon="13.31093"><ele>985.5999999999999</ele><time>2026-04-04T09:17:29.025Z</time></trkpt><trkpt lat="42.6207517" lon="13.3110667"><ele>985.4</ele><time>2026-04-04T09:17:30.026Z</time></trkpt><trkpt lat="42.6207083" lon="13.311205"><ele>985.2</ele><time>2026-04-04T09:17:31.026Z</time></trkpt><trkpt lat="42.6206567" lon="13.31134"><ele>985.0</ele><time>2026-04-04T09:17:32.026Z</time></trkpt><trkpt lat="42.62061" lon="13.31148"><ele>985.0</ele><time>2026-04-04T09:17:33.026Z</time></trkpt><trkpt lat="42.6205667" lon="13.3116283"><ele>985.0</ele><time>2026-04-04T09:17:34.026Z</time></trkpt><trkpt lat="42.6205117" lon="13.3117667"><ele>985.0</ele><time>2026-04-04T09:17:35.026Z</time></trkpt><trkpt lat="42.62047" lon="13.3119217"><ele>985.0</ele><time>2026-04-04T09:17:36.026Z</time></trkpt><trkpt lat="42.62044" lon="13.3120817"><ele>984.25</ele><time>2026-04-04T09:17:37.026Z</time></trkpt><trkpt lat="42.6204133" lon="13.31225"><ele>983.5</ele><time>2026-04-04T09:17:38.026Z</time></trkpt><trkpt lat="42.6204" lon="13.31243"><ele>982.75</ele><time>2026-04-04T09:17:39.026Z</time></trkpt><trkpt lat="42.620405" lon="13.3126117"><ele>982.0</ele><time>2026-04-04T09:17:40.026Z</time></trkpt><trkpt lat="42.62042" lon="13.3128017"><ele>982.0</ele><time>2026-04-04T09:17:41.026Z</time></trkpt><trkpt lat="42.62043" lon="13.312985"><ele>982.0</ele><time>2026-04-04T09:17:42.026Z</time></trkpt><trkpt lat="42.6204317" lon="13.3131617"><ele>982.0</ele><time>2026-04-04T09:17:43.026Z</time></trkpt><trkpt lat="42.6204333" lon="13.3133267"><ele>982.0</ele><time>2026-04-04T09:17:44.026Z</time></trkpt><trkpt lat="42.620435" lon="13.313495"><ele>982.0</ele><time>2026-04-04T09:17:45.026Z</time></trkpt><trkpt lat="42.620435" lon="13.313675"><ele>982.0</ele><time>2026-04-04T09:17:46.026Z</time></trkpt><trkpt lat="42.6204367" lon="13.3138567"><ele>982.0</ele><time>2026-04-04T09:17:47.026Z</time></trkpt><trkpt lat="42.62044" lon="13.3140367"><ele>982.0</ele><time>2026-04-04T09:17:48.026Z</time></trkpt><trkpt lat="42.6204433" lon="13.314225"><ele>981.25</ele><time>2026-04-04T09:17:49.026Z</time></trkpt><trkpt lat="42.620455" lon="13.314415"><ele>980.5</ele><time>2026-04-04T09:17:50.026Z</time></trkpt><trkpt lat="42.6204617" lon="13.3146067"><ele>979.75</ele><time>2026-04-04T09:17:51.026Z</time></trkpt><trkpt lat="42.6204633" lon="13.314795"><ele>979.0</ele><time>2026-04-04T09:17:52.026Z</time></trkpt><trkpt lat="42.62044" lon="13.3149733"><ele>978.25</ele><time>2026-04-04T09:17:53.026Z</time></trkpt><trkpt lat="42.6204017" lon="13.3151483"><ele>977.5</ele><time>2026-04-04T09:17:54.026Z</time></trkpt><trkpt lat="42.62035" lon="13.3153133"><ele>976.75</ele><time>2026-04-04T09:17:55.026Z</time></trkpt><trkpt lat="42.620275" lon="13.3154667"><ele>976.0</ele><time>2026-04-04T09:17:56.026Z</time></trkpt><trkpt lat="42.6202033" lon="13.3156233"><ele>982.0</ele><time>2026-04-04T09:17:57.026Z</time></trkpt><trkpt lat="42.6201433" lon="13.3157833"><ele>988.0</ele><time>2026-04-04T09:17:58.026Z</time></trkpt><trkpt lat="42.6200983" lon="13.315945"><ele>994.0</ele><time>2026-04-04T09:17:59.026Z</time></trkpt><trkpt lat="42.6200883" lon="13.3161233"><ele>1000.0</ele><time>2026-04-04T09:18:00.026Z</time></trkpt><trkpt lat="42.6200733" lon="13.3162817"><ele>997.5</ele><time>2026-04-04T09:18:01.026Z</time></trkpt><trkpt lat="42.62006" lon="13.31644"><ele>995.0</ele><time>2026-04-04T09:18:02.026Z</time></trkpt><trkpt lat="42.620045" lon="13.3165867"><ele>992.5</ele><time>2026-04-04T09:18:03.026Z</time></trkpt><trkpt lat="42.6199817" lon="13.316735"><ele>990.0</ele><time>2026-04-04T09:18:04.026Z</time></trkpt><trkpt lat="42.6198983" lon="13.31686"><ele>990.0</ele><time>2026-04-04T09:18:05.026Z</time></trkpt><trkpt lat="42.6197883" lon="13.3169433"><ele>990.0</ele><time>2026-04-04T09:18:06.026Z</time></trkpt><trkpt lat="42.6196667" lon="13.317005"><ele>990.0</ele><time>2026-04-04T09:18:07.026Z</time></trkpt><trkpt lat="42.6195333" lon="13.317065"><ele>990.0</ele><time>2026-04-04T09:18:08.026Z</time></trkpt><trkpt lat="42.6194017" lon="13.3171283"><ele>991.25</ele><time>2026-04-04T09:18:09.026Z</time></trkpt><trkpt lat="42.6192817" lon="13.31721"><ele>992.5</ele><time>2026-04-04T09:18:10.026Z</time></trkpt><trkpt lat="42.61917" lon="13.317325"><ele>993.75</ele><time>2026-04-04T09:18:11.026Z</time></trkpt><trkpt lat="42.619075" lon="13.3174533"><ele>995.0</ele><time>2026-04-04T09:18:12.026Z</time></trkpt><trkpt lat="42.6189883" lon="13.3176133"><ele>995.0</ele><time>2026-04-04T09:18:13.026Z</time></trkpt><trkpt lat="42.6189133" lon="13.3177733"><ele>995.0</ele><time>2026-04-04T09:18:14.026Z</time></trkpt><trkpt lat="42.6188517" lon="13.3179417"><ele>995.0</ele><time>2026-04-04T09:18:15.026Z</time></trkpt><trkpt lat="42.6188067" lon="13.3181067"><ele>995.0</ele><time>2026-04-04T09:18:16.026Z</time></trkpt><trkpt lat="42.6187733" lon="13.3182833"><ele>993.5</ele><time>2026-04-04T09:18:17.026Z</time></trkpt><trkpt lat="42.6187467" lon="13.31847"><ele>992.0</ele><time>2026-04-04T09:18:18.026Z</time></trkpt><trkpt lat="42.61872" lon="13.3186683"><ele>990.5</ele><time>2026-04-04T09:18:19.026Z</time></trkpt><trkpt lat="42.6187033" lon="13.3188633"><ele>989.0</ele><time>2026-04-04T09:18:20.026Z</time></trkpt><trkpt lat="42.6186867" lon="13.31906"><ele>986.75</ele><time>2026-04-04T09:18:21.026Z</time></trkpt><trkpt lat="42.618665" lon="13.3192517"><ele>984.5</ele><time>2026-04-04T09:18:22.025Z</time></trkpt><trkpt lat="42.6186467" lon="13.3194267"><ele>982.25</ele><time>2026-04-04T09:18:23.026Z</time></trkpt><trkpt lat="42.6186267" lon="13.3195967"><ele>980.0</ele><time>2026-04-04T09:18:24.026Z</time></trkpt><trkpt lat="42.618605" lon="13.3197617"><ele>984.5</ele><time>2026-04-04T09:18:25.026Z</time></trkpt><trkpt lat="42.6185733" lon="13.3199283"><ele>989.0</ele><time>2026-04-04T09:18:26.026Z</time></trkpt><trkpt lat="42.6185117" lon="13.320095"><ele>993.5</ele><time>2026-04-04T09:18:27.026Z</time></trkpt><trkpt lat="42.6184367" lon="13.3202467"><ele>998.0</ele><time>2026-04-04T09:18:28.026Z</time></trkpt><trkpt lat="42.6183483" lon="13.3203683"><ele>998.0</ele><time>2026-04-04T09:18:29.026Z</time></trkpt><trkpt lat="42.6182483" lon="13.320455"><ele>998.0</ele><time>2026-04-04T09:18:30.026Z</time></trkpt><trkpt lat="42.6181533" lon="13.3205417"><ele>998.0</ele><time>2026-04-04T09:18:31.026Z</time></trkpt><trkpt lat="42.6180833" lon="13.32062"><ele>998.0</ele><time>2026-04-04T09:18:32.026Z</time></trkpt><trkpt lat="42.6180467" lon="13.3207"><ele>998.0</ele><time>2026-04-04T09:18:33.025Z</time></trkpt><trkpt lat="42.6180317" lon="13.3208033"><ele>995.5999999999999</ele><time>2026-04-04T09:18:34.026Z</time></trkpt><trkpt lat="42.6180283" lon="13.3209133"><ele>993.1999999999999</ele><time>2026-04-04T09:18:35.026Z</time></trkpt><trkpt lat="42.618035" lon="13.3210417"><ele>990.8</ele><time>2026-04-04T09:18:36.026Z</time></trkpt><trkpt lat="42.6180367" lon="13.3211767"><ele>988.4</ele><time>2026-04-04T09:18:37.026Z</time></trkpt><trkpt lat="42.6180333" lon="13.3213167"><ele>986.0</ele><time>2026-04-04T09:18:38.026Z</time></trkpt><trkpt lat="42.6180183" lon="13.3214467"><ele>985.8</ele><time>2026-04-04T09:18:39.026Z</time></trkpt><trkpt lat="42.617985" lon="13.3215717"><ele>985.5999999999999</ele><time>2026-04-04T09:18:40.026Z</time></trkpt><trkpt lat="42.6179317" lon="13.321685"><ele>985.4</ele><time>2026-04-04T09:18:41.026Z</time></trkpt><trkpt lat="42.6178533" lon="13.3217867"><ele>985.2</ele><time>2026-04-04T09:18:42.026Z</time></trkpt><trkpt lat="42.617755" lon="13.321875"><ele>985.0</ele><time>2026-04-04T09:18:43.025Z</time></trkpt><trkpt lat="42.6176583" lon="13.3219683"><ele>988.0</ele><time>2026-04-04T09:18:44.026Z</time></trkpt><trkpt lat="42.6175617" lon="13.3220833"><ele>991.0</ele><time>2026-04-04T09:18:45.026Z</time></trkpt><trkpt lat="42.6174667" lon="13.32221"><ele>994.0</ele><time>2026-04-04T09:18:46.026Z</time></trkpt><trkpt lat="42.6173933" lon="13.3223617"><ele>997.0</ele><time>2026-04-04T09:18:47.026Z</time></trkpt><trkpt lat="42.61734" lon="13.3225233"><ele>997.0</ele><time>2026-04-04T09:18:48.026Z</time></trkpt><trkpt lat="42.6172967" lon="13.3226883"><ele>997.0</ele><time>2026-04-04T09:18:49.026Z</time></trkpt><trkpt lat="42.61726" lon="13.322825"><ele>997.0</ele><time>2026-04-04T09:18:50.026Z</time></trkpt><trkpt lat="42.6172267" lon="13.3229683"><ele>997.0</ele><time>2026-04-04T09:18:51.026Z</time></trkpt><trkpt lat="42.6172033" lon="13.3230917"><ele>997.0</ele><time>2026-04-04T09:18:52.025Z</time></trkpt><trkpt lat="42.617175" lon="13.32321"><ele>997.3333333333333</ele><time>2026-04-04T09:18:53.026Z</time></trkpt><trkpt lat="42.61715" lon="13.323325"><ele>997.6666666666666</ele><time>2026-04-04T09:18:54.026Z</time></trkpt><trkpt lat="42.6171267" lon="13.3234367"><ele>998.0</ele><time>2026-04-04T09:18:55.026Z</time></trkpt><trkpt lat="42.6171167" lon="13.3235383"><ele>998.3333333333333</ele><time>2026-04-04T09:18:56.026Z</time></trkpt><trkpt lat="42.61713" lon="13.32364"><ele>998.6666666666666</ele><time>2026-04-04T09:18:57.026Z</time></trkpt><trkpt lat="42.6171717" lon="13.3237167"><ele>999.0</ele><time>2026-04-04T09:18:58.026Z</time></trkpt><trkpt lat="42.61724" lon="13.3237817"><ele>999.0</ele><time>2026-04-04T09:18:59.026Z</time></trkpt><trkpt lat="42.6173333" lon="13.32382"><ele>999.0000000000001</ele><time>2026-04-04T09:19:00.026Z</time></trkpt><trkpt lat="42.617455" lon="13.323825"><ele>999.0000000000001</ele><time>2026-04-04T09:19:01.026Z</time></trkpt><trkpt lat="42.6175667" lon="13.32385"><ele>999.0</ele><time>2026-04-04T09:19:02.026Z</time></trkpt><trkpt lat="42.617665" lon="13.3239167"><ele>999.0</ele><time>2026-04-04T09:19:03.026Z</time></trkpt><trkpt lat="42.6177467" lon="13.32401"><ele>998.25</ele><time>2026-04-04T09:19:04.026Z</time></trkpt><trkpt lat="42.617825" lon="13.3241317"><ele>997.5</ele><time>2026-04-04T09:19:05.026Z</time></trkpt><trkpt lat="42.6178983" lon="13.3242633"><ele>996.75</ele><time>2026-04-04T09:19:06.026Z</time></trkpt><trkpt lat="42.61798" lon="13.3243933"><ele>996.0</ele><time>2026-04-04T09:19:07.025Z</time></trkpt><trkpt lat="42.61805" lon="13.32451"><ele>996.0</ele><time>2026-04-04T09:19:08.026Z</time></trkpt><trkpt lat="42.6181017" lon="13.3246517"><ele>995.9999999999999</ele><time>2026-04-04T09:19:09.026Z</time></trkpt><trkpt lat="42.618115" lon="13.3247933"><ele>995.9999999999999</ele><time>2026-04-04T09:19:10.026Z</time></trkpt><trkpt lat="42.6180983" lon="13.3249483"><ele>996.0</ele><time>2026-04-04T09:19:11.026Z</time></trkpt><trkpt lat="42.618085" lon="13.3250933"><ele>996.0</ele><time>2026-04-04T09:19:12.026Z</time></trkpt><trkpt lat="42.61806" lon="13.3252583"><ele>997.5</ele><time>2026-04-04T09:19:13.026Z</time></trkpt><trkpt lat="42.618035" lon="13.3254267"><ele>999.0</ele><time>2026-04-04T09:19:14.025Z</time></trkpt><trkpt lat="42.6180233" lon="13.3256017"><ele>1000.5</ele><time>2026-04-04T09:19:15.025Z</time></trkpt><trkpt lat="42.6180017" lon="13.3257783"><ele>1002.0</ele><time>2026-04-04T09:19:16.026Z</time></trkpt><trkpt lat="42.6179883" lon="13.32595"><ele>1003.5</ele><time>2026-04-04T09:19:17.026Z</time></trkpt><trkpt lat="42.6179833" lon="13.3261167"><ele>1005.0</ele><time>2026-04-04T09:19:18.026Z</time></trkpt><trkpt lat="42.617995" lon="13.3262883"><ele>1006.5</ele><time>2026-04-04T09:19:19.026Z</time></trkpt><trkpt lat="42.617995" lon="13.3264633"><ele>1008.0</ele><time>2026-04-04T09:19:20.026Z</time></trkpt><trkpt lat="42.6179983" lon="13.3266217"><ele>1008.0</ele><time>2026-04-04T09:19:21.026Z</time></trkpt><trkpt lat="42.6179967" lon="13.3267833"><ele>1008.0</ele><time>2026-04-04T09:19:22.025Z</time></trkpt><trkpt lat="42.6179767" lon="13.3269417"><ele>1008.0</ele><time>2026-04-04T09:19:23.026Z</time></trkpt><trkpt lat="42.6179433" lon="13.3270783"><ele>1008.0</ele><time>2026-04-04T09:19:24.026Z</time></trkpt><trkpt lat="42.6179033" lon="13.327205"><ele>1008.0</ele><time>2026-04-04T09:19:25.026Z</time></trkpt><trkpt lat="42.6178683" lon="13.3273317"><ele>1008.8</ele><time>2026-04-04T09:19:26.026Z</time></trkpt><trkpt lat="42.6178517" lon="13.3274533"><ele>1009.5999999999999</ele><time>2026-04-04T09:19:27.026Z</time></trkpt><trkpt lat="42.6178517" lon="13.3275783"><ele>1010.4000000000001</ele><time>2026-04-04T09:19:28.026Z</time></trkpt><trkpt lat="42.61787" lon="13.3277"><ele>1011.2</ele><time>2026-04-04T09:19:29.026Z</time></trkpt><trkpt lat="42.6178983" lon="13.3278283"><ele>1012.0</ele><time>2026-04-04T09:19:30.026Z</time></trkpt><trkpt lat="42.6179317" lon="13.327955"><ele>1014.0</ele><time>2026-04-04T09:19:31.026Z</time></trkpt><trkpt lat="42.6179583" lon="13.3281"><ele>1016.0</ele><time>2026-04-04T09:19:32.026Z</time></trkpt><trkpt lat="42.6179817" lon="13.328245"><ele>1018.0</ele><time>2026-04-04T09:19:33.026Z</time></trkpt><trkpt lat="42.6180083" lon="13.328395"><ele>1020.0</ele><time>2026-04-04T09:19:34.026Z</time></trkpt><trkpt lat="42.61803" lon="13.3285483"><ele>1022.0</ele><time>2026-04-04T09:19:35.026Z</time></trkpt><trkpt lat="42.6180417" lon="13.328705"><ele>1022.0</ele><time>2026-04-04T09:19:36.026Z</time></trkpt><trkpt lat="42.6180583" lon="13.3288583"><ele>1022.0</ele><time>2026-04-04T09:19:37.026Z</time></trkpt><trkpt lat="42.61807" lon="13.329025"><ele>1022.0</ele><time>2026-04-04T09:19:38.026Z</time></trkpt><trkpt lat="42.6180867" lon="13.3291883"><ele>1022.0</ele><time>2026-04-04T09:19:39.026Z</time></trkpt><trkpt lat="42.6181017" lon="13.3293633"><ele>1023.6</ele><time>2026-04-04T09:19:40.026Z</time></trkpt><trkpt lat="42.618105" lon="13.329525"><ele>1025.2</ele><time>2026-04-04T09:19:41.026Z</time></trkpt><trkpt lat="42.61812" lon="13.32968"><ele>1026.8</ele><time>2026-04-04T09:19:42.026Z</time></trkpt><trkpt lat="42.6181483" lon="13.329825"><ele>1028.4</ele><time>2026-04-04T09:19:43.025Z</time></trkpt><trkpt lat="42.6181933" lon="13.3299533"><ele>1030.0</ele><time>2026-04-04T09:19:44.026Z</time></trkpt><trkpt lat="42.6182617" lon="13.3300617"><ele>1033.5</ele><time>2026-04-04T09:19:45.026Z</time></trkpt><trkpt lat="42.6183583" lon="13.3301567"><ele>1037.0</ele><time>2026-04-04T09:19:46.026Z</time></trkpt><trkpt lat="42.6184483" lon="13.3302533"><ele>1040.5</ele><time>2026-04-04T09:19:47.026Z</time></trkpt><trkpt lat="42.61855" lon="13.3303483"><ele>1044.0</ele><time>2026-04-04T09:19:48.026Z</time></trkpt><trkpt lat="42.618645" lon="13.3304433"><ele>1043.2</ele><time>2026-04-04T09:19:49.026Z</time></trkpt><trkpt lat="42.618735" lon="13.330525"><ele>1042.4</ele><time>2026-04-04T09:19:50.026Z</time></trkpt><trkpt lat="42.618815" lon="13.330615"><ele>1041.6</ele><time>2026-04-04T09:19:51.026Z</time></trkpt><trkpt lat="42.61887" lon="13.3307433"><ele>1040.8</ele><time>2026-04-04T09:19:52.026Z</time></trkpt><trkpt lat="42.618905" lon="13.33087"><ele>1040.0</ele><time>2026-04-04T09:19:53.026Z</time></trkpt><trkpt lat="42.6189067" lon="13.33101"><ele>1040.0</ele><time>2026-04-04T09:19:54.026Z</time></trkpt><trkpt lat="42.6188933" lon="13.3311483"><ele>1040.0</ele><time>2026-04-04T09:19:55.026Z</time></trkpt><trkpt lat="42.61887" lon="13.33129"><ele>1040.0</ele><time>2026-04-04T09:19:56.026Z</time></trkpt><trkpt lat="42.6188433" lon="13.331415"><ele>1040.0</ele><time>2026-04-04T09:19:57.026Z</time></trkpt><trkpt lat="42.6188133" lon="13.331525"><ele>1040.0</ele><time>2026-04-04T09:19:58.026Z</time></trkpt><trkpt lat="42.6187717" lon="13.3316283"><ele>1041.8</ele><time>2026-04-04T09:19:59.026Z</time></trkpt><trkpt lat="42.6187217" lon="13.3317183"><ele>1043.6</ele><time>2026-04-04T09:20:00.026Z</time></trkpt><trkpt lat="42.6186583" lon="13.3318217"><ele>1045.4</ele><time>2026-04-04T09:20:01.026Z</time></trkpt><trkpt lat="42.6185867" lon="13.3319167"><ele>1047.2</ele><time>2026-04-04T09:20:02.026Z</time></trkpt><trkpt lat="42.6185117" lon="13.332015"><ele>1049.0</ele><time>2026-04-04T09:20:03.025Z</time></trkpt><trkpt lat="42.618425" lon="13.3321217"><ele>1050.25</ele><time>2026-04-04T09:20:04.026Z</time></trkpt><trkpt lat="42.6183433" lon="13.33223"><ele>1051.5</ele><time>2026-04-04T09:20:05.025Z</time></trkpt><trkpt lat="42.6182683" lon="13.3323433"><ele>1052.75</ele><time>2026-04-04T09:20:06.025Z</time></trkpt><trkpt lat="42.61819" lon="13.332465"><ele>1054.0</ele><time>2026-04-04T09:20:07.026Z</time></trkpt><trkpt lat="42.6181233" lon="13.33259"><ele>1054.0</ele><time>2026-04-04T09:20:08.026Z</time></trkpt><trkpt lat="42.6180667" lon="13.3327167"><ele>1054.0</ele><time>2026-04-04T09:20:09.026Z</time></trkpt><trkpt lat="42.6180067" lon="13.3328433"><ele>1054.0</ele><time>2026-04-04T09:20:10.026Z</time></trkpt><trkpt lat="42.6179417" lon="13.33297"><ele>1054.0</ele><time>2026-04-04T09:20:11.026Z</time></trkpt><trkpt lat="42.6178817" lon="13.3330917"><ele>1054.0</ele><time>2026-04-04T09:20:12.026Z</time></trkpt><trkpt lat="42.6178167" lon="13.3332233"><ele>1056.8</ele><time>2026-04-04T09:20:13.026Z</time></trkpt><trkpt lat="42.6177517" lon="13.3333483"><ele>1059.6000000000001</ele><time>2026-04-04T09:20:14.026Z</time></trkpt><trkpt lat="42.6176933" lon="13.3334717"><ele>1062.4</ele><time>2026-04-04T09:20:15.026Z</time></trkpt><trkpt lat="42.617635" lon="13.3336"><ele>1065.2</ele><time>2026-04-04T09:20:16.026Z</time></trkpt><trkpt lat="42.6175767" lon="13.3337317"><ele>1068.0</ele><time>2026-04-04T09:20:17.026Z</time></trkpt><trkpt lat="42.6175217" lon="13.33387"><ele>1067.6</ele><time>2026-04-04T09:20:18.026Z</time></trkpt><trkpt lat="42.6174767" lon="13.334005"><ele>1067.1999999999998</ele><time>2026-04-04T09:20:19.026Z</time></trkpt><trkpt lat="42.617445" lon="13.3341333"><ele>1066.8</ele><time>2026-04-04T09:20:20.026Z</time></trkpt><trkpt lat="42.6174333" lon="13.334255"><ele>1066.3999999999999</ele><time>2026-04-04T09:20:21.026Z</time></trkpt><trkpt lat="42.617435" lon="13.3343783"><ele>1066.0</ele><time>2026-04-04T09:20:22.025Z</time></trkpt><trkpt lat="42.617455" lon="13.3345"><ele>1066.0</ele><time>2026-04-04T09:20:23.026Z</time></trkpt><trkpt lat="42.6174917" lon="13.33463"><ele>1066.0</ele><time>2026-04-04T09:20:24.025Z</time></trkpt><trkpt lat="42.6175317" lon="13.3347567"><ele>1066.0</ele><time>2026-04-04T09:20:25.026Z</time></trkpt><trkpt lat="42.617565" lon="13.3348917"><ele>1066.0</ele><time>2026-04-04T09:20:26.026Z</time></trkpt><trkpt lat="42.61759" lon="13.3350183"><ele>1066.0</ele><time>2026-04-04T09:20:27.026Z</time></trkpt><trkpt lat="42.6176017" lon="13.3351567"><ele>1066.6666666666665</ele><time>2026-04-04T09:20:28.026Z</time></trkpt><trkpt lat="42.617585" lon="13.33529"><ele>1067.3333333333333</ele><time>2026-04-04T09:20:29.026Z</time></trkpt><trkpt lat="42.6175667" lon="13.33541"><ele>1068.0</ele><time>2026-04-04T09:20:30.026Z</time></trkpt><trkpt lat="42.61755" lon="13.3355183"><ele>1068.6666666666667</ele><time>2026-04-04T09:20:31.026Z</time></trkpt><trkpt lat="42.6175267" lon="13.3356367"><ele>1069.3333333333335</ele><time>2026-04-04T09:20:32.026Z</time></trkpt><trkpt lat="42.6175067" lon="13.3357283"><ele>1070.0</ele><time>2026-04-04T09:20:33.026Z</time></trkpt><trkpt lat="42.6174667" lon="13.33583"><ele>1071.0</ele><time>2026-04-04T09:20:34.026Z</time></trkpt><trkpt lat="42.6174133" lon="13.3358867"><ele>1072.0</ele><time>2026-04-04T09:20:35.026Z</time></trkpt><trkpt lat="42.6173117" lon="13.3359017"><ele>1073.0</ele><time>2026-04-04T09:20:37.026Z</time></trkpt><trkpt lat="42.617255" lon="13.3358317"><ele>1074.0</ele><time>2026-04-04T09:20:38.026Z</time></trkpt><trkpt lat="42.61721" lon="13.3357233"><ele>1075.0</ele><time>2026-04-04T09:20:39.026Z</time></trkpt><trkpt lat="42.61716" lon="13.3355817"><ele>1073.75</ele><time>2026-04-04T09:20:40.026Z</time></trkpt><trkpt lat="42.6171167" lon="13.3354383"><ele>1072.5</ele><time>2026-04-04T09:20:41.025Z</time></trkpt><trkpt lat="42.6170717" lon="13.3352917"><ele>1071.25</ele><time>2026-04-04T09:20:42.026Z</time></trkpt><trkpt lat="42.6170233" lon="13.3351533"><ele>1070.0</ele><time>2026-04-04T09:20:43.026Z</time></trkpt><trkpt lat="42.6169683" lon="13.335005"><ele>1074.0</ele><time>2026-04-04T09:20:44.026Z</time></trkpt><trkpt lat="42.6169083" lon="13.3348583"><ele>1078.0</ele><time>2026-04-04T09:20:45.025Z</time></trkpt><trkpt lat="42.6168633" lon="13.3347167"><ele>1082.0</ele><time>2026-04-04T09:20:46.026Z</time></trkpt><trkpt lat="42.6168167" lon="13.3346"><ele>1086.0</ele><time>2026-04-04T09:20:47.026Z</time></trkpt><trkpt lat="42.6167733" lon="13.3344783"><ele>1090.0</ele><time>2026-04-04T09:20:48.026Z</time></trkpt><trkpt lat="42.6167267" lon="13.3343483"><ele>1090.0</ele><time>2026-04-04T09:20:49.026Z</time></trkpt><trkpt lat="42.616675" lon="13.3342117"><ele>1090.0</ele><time>2026-04-04T09:20:50.026Z</time></trkpt><trkpt lat="42.6166233" lon="13.3340783"><ele>1090.0</ele><time>2026-04-04T09:20:51.026Z</time></trkpt><trkpt lat="42.6165767" lon="13.333935"><ele>1090.0</ele><time>2026-04-04T09:20:52.026Z</time></trkpt><trkpt lat="42.6165367" lon="13.3338017"><ele>1090.0</ele><time>2026-04-04T09:20:53.026Z</time></trkpt><trkpt lat="42.616495" lon="13.333665"><ele>1089.5</ele><time>2026-04-04T09:20:54.026Z</time></trkpt><trkpt lat="42.6164583" lon="13.3335317"><ele>1089.0</ele><time>2026-04-04T09:20:55.026Z</time></trkpt><trkpt lat="42.6164133" lon="13.3333917"><ele>1088.5</ele><time>2026-04-04T09:20:56.026Z</time></trkpt><trkpt lat="42.616365" lon="13.3332483"><ele>1088.0</ele><time>2026-04-04T09:20:57.026Z</time></trkpt><trkpt lat="42.616305" lon="13.3331033"><ele>1087.5</ele><time>2026-04-04T09:20:58.026Z</time></trkpt><trkpt lat="42.6162283" lon="13.3329817"><ele>1087.0</ele><time>2026-04-04T09:20:59.026Z</time></trkpt><trkpt lat="42.61612" lon="13.33288"><ele>1086.5</ele><time>2026-04-04T09:21:00.026Z</time></trkpt><trkpt lat="42.61601" lon="13.3328033"><ele>1086.0</ele><time>2026-04-04T09:21:01.026Z</time></trkpt><trkpt lat="42.61591" lon="13.3327317"><ele>1088.6</ele><time>2026-04-04T09:21:02.026Z</time></trkpt><trkpt lat="42.6158283" lon="13.3326467"><ele>1091.1999999999998</ele><time>2026-04-04T09:21:03.026Z</time></trkpt><trkpt lat="42.615765" lon="13.332545"><ele>1093.8000000000002</ele><time>2026-04-04T09:21:04.026Z</time></trkpt><trkpt lat="42.61572" lon="13.332425"><ele>1096.4</ele><time>2026-04-04T09:21:05.026Z</time></trkpt><trkpt lat="42.615705" lon="13.3322917"><ele>1099.0</ele><time>2026-04-04T09:21:06.026Z</time></trkpt><trkpt lat="42.61571" lon="13.332145"><ele>1100.75</ele><time>2026-04-04T09:21:07.026Z</time></trkpt><trkpt lat="42.615745" lon="13.331995"><ele>1102.5</ele><time>2026-04-04T09:21:08.026Z</time></trkpt><trkpt lat="42.6157983" lon="13.3318367"><ele>1104.25</ele><time>2026-04-04T09:21:09.026Z</time></trkpt><trkpt lat="42.6158533" lon="13.33166"><ele>1106.0</ele><time>2026-04-04T09:21:10.026Z</time></trkpt><trkpt lat="42.615905" lon="13.3314883"><ele>1108.75</ele><time>2026-04-04T09:21:11.026Z</time></trkpt><trkpt lat="42.6159517" lon="13.3313133"><ele>1111.5</ele><time>2026-04-04T09:21:12.026Z</time></trkpt><trkpt lat="42.6159967" lon="13.3311317"><ele>1114.25</ele><time>2026-04-04T09:21:13.026Z</time></trkpt><trkpt lat="42.6160233" lon="13.3309433"><ele>1117.0</ele><time>2026-04-04T09:21:14.026Z</time></trkpt><trkpt lat="42.6160433" lon="13.3307667"><ele>1117.0</ele><time>2026-04-04T09:21:15.026Z</time></trkpt><trkpt lat="42.6160617" lon="13.3305867"><ele>1117.0</ele><time>2026-04-04T09:21:16.026Z</time></trkpt><trkpt lat="42.6160917" lon="13.3304067"><ele>1117.0</ele><time>2026-04-04T09:21:17.026Z</time></trkpt><trkpt lat="42.61614" lon="13.3302517"><ele>1117.0</ele><time>2026-04-04T09:21:18.026Z</time></trkpt><trkpt lat="42.6161833" lon="13.3301083"><ele>1114.4</ele><time>2026-04-04T09:21:19.026Z</time></trkpt><trkpt lat="42.61624" lon="13.32998"><ele>1111.8000000000002</ele><time>2026-04-04T09:21:20.026Z</time></trkpt><trkpt lat="42.6162917" lon="13.3298567"><ele>1109.2</ele><time>2026-04-04T09:21:21.026Z</time></trkpt><trkpt lat="42.6163183" lon="13.3297267"><ele>1106.6000000000001</ele><time>2026-04-04T09:21:22.025Z</time></trkpt><trkpt lat="42.6163267" lon="13.329595"><ele>1104.0</ele><time>2026-04-04T09:21:23.026Z</time></trkpt><trkpt lat="42.6163217" lon="13.32947"><ele>1103.2</ele><time>2026-04-04T09:21:24.026Z</time></trkpt><trkpt lat="42.6163117" lon="13.3293317"><ele>1102.4</ele><time>2026-04-04T09:21:25.026Z</time></trkpt><trkpt lat="42.6162683" lon="13.3292017"><ele>1101.6</ele><time>2026-04-04T09:21:26.026Z</time></trkpt><trkpt lat="42.616195" lon="13.32911"><ele>1100.8</ele><time>2026-04-04T09:21:27.026Z</time></trkpt><trkpt lat="42.6161" lon="13.3290483"><ele>1100.0</ele><time>2026-04-04T09:21:28.026Z</time></trkpt><trkpt lat="42.6159967" lon="13.3290417"><ele>1104.25</ele><time>2026-04-04T09:21:29.026Z</time></trkpt><trkpt lat="42.6158917" lon="13.329085"><ele>1108.5</ele><time>2026-04-04T09:21:30.026Z</time></trkpt><trkpt lat="42.615805" lon="13.3291767"><ele>1112.75</ele><time>2026-04-04T09:21:31.026Z</time></trkpt><trkpt lat="42.6157417" lon="13.3293067"><ele>1117.0</ele><time>2026-04-04T09:21:32.026Z</time></trkpt><trkpt lat="42.61569" lon="13.32945"><ele>1117.0</ele><time>2026-04-04T09:21:33.026Z</time></trkpt><trkpt lat="42.6156467" lon="13.3295933"><ele>1117.0</ele><time>2026-04-04T09:21:34.026Z</time></trkpt><trkpt lat="42.61561" lon="13.3297267"><ele>1117.0</ele><time>2026-04-04T09:21:35.026Z</time></trkpt><trkpt lat="42.6155767" lon="13.3298433"><ele>1117.0</ele><time>2026-04-04T09:21:36.026Z</time></trkpt><trkpt lat="42.615535" lon="13.3299617"><ele>1117.0</ele><time>2026-04-04T09:21:37.026Z</time></trkpt><trkpt lat="42.6154917" lon="13.3300833"><ele>1118.2</ele><time>2026-04-04T09:21:38.026Z</time></trkpt><trkpt lat="42.6154467" lon="13.33021"><ele>1119.4</ele><time>2026-04-04T09:21:39.026Z</time></trkpt><trkpt lat="42.615405" lon="13.3303383"><ele>1120.6</ele><time>2026-04-04T09:21:40.025Z</time></trkpt><trkpt lat="42.6153617" lon="13.3304683"><ele>1121.8</ele><time>2026-04-04T09:21:41.026Z</time></trkpt><trkpt lat="42.6153167" lon="13.330595"><ele>1123.0</ele><time>2026-04-04T09:21:42.026Z</time></trkpt><trkpt lat="42.6152733" lon="13.33072"><ele>1124.0</ele><time>2026-04-04T09:21:43.026Z</time></trkpt><trkpt lat="42.6152283" lon="13.3308417"><ele>1125.0</ele><time>2026-04-04T09:21:44.026Z</time></trkpt><trkpt lat="42.6151833" lon="13.3309583"><ele>1126.0</ele><time>2026-04-04T09:21:45.026Z</time></trkpt><trkpt lat="42.615145" lon="13.3310683"><ele>1127.0</ele><time>2026-04-04T09:21:46.026Z</time></trkpt><trkpt lat="42.6150983" lon="13.3311717"><ele>1128.0</ele><time>2026-04-04T09:21:47.026Z</time></trkpt><trkpt lat="42.6150533" lon="13.33127"><ele>1128.0</ele><time>2026-04-04T09:21:48.026Z</time></trkpt><trkpt lat="42.6150167" lon="13.3313783"><ele>1128.0</ele><time>2026-04-04T09:21:49.026Z</time></trkpt><trkpt lat="42.6149717" lon="13.3314817"><ele>1128.0</ele><time>2026-04-04T09:21:50.026Z</time></trkpt><trkpt lat="42.6149233" lon="13.3315967"><ele>1128.0</ele><time>2026-04-04T09:21:51.025Z</time></trkpt><trkpt lat="42.6148717" lon="13.33171"><ele>1128.0</ele><time>2026-04-04T09:21:52.026Z</time></trkpt><trkpt lat="42.6148233" lon="13.3318317"><ele>1127.75</ele><time>2026-04-04T09:21:53.026Z</time></trkpt><trkpt lat="42.6147683" lon="13.3319633"><ele>1127.5</ele><time>2026-04-04T09:21:54.026Z</time></trkpt><trkpt lat="42.6147233" lon="13.3321033"><ele>1127.25</ele><time>2026-04-04T09:21:55.026Z</time></trkpt><trkpt lat="42.6146833" lon="13.3322617"><ele>1127.0</ele><time>2026-04-04T09:21:56.026Z</time></trkpt><trkpt lat="42.6146517" lon="13.3324117"><ele>1125.0</ele><time>2026-04-04T09:21:57.026Z</time></trkpt><trkpt lat="42.6146167" lon="13.3325633"><ele>1123.0</ele><time>2026-04-04T09:21:58.026Z</time></trkpt><trkpt lat="42.6145717" lon="13.332715"><ele>1121.0</ele><time>2026-04-04T09:21:59.026Z</time></trkpt><trkpt lat="42.6145233" lon="13.3328667"><ele>1119.0</ele><time>2026-04-04T09:22:00.026Z</time></trkpt><trkpt lat="42.614475" lon="13.3330067"><ele>1118.4</ele><time>2026-04-04T09:22:01.026Z</time></trkpt><trkpt lat="42.6144433" lon="13.3331483"><ele>1117.8000000000002</ele><time>2026-04-04T09:22:02.026Z</time></trkpt><trkpt lat="42.6144383" lon="13.33329"><ele>1117.1999999999998</ele><time>2026-04-04T09:22:03.026Z</time></trkpt><trkpt lat="42.6144517" lon="13.3334367"><ele>1116.6</ele><time>2026-04-04T09:22:04.025Z</time></trkpt><trkpt lat="42.61448" lon="13.3335817"><ele>1116.0</ele><time>2026-04-04T09:22:05.026Z</time></trkpt><trkpt lat="42.6145067" lon="13.3337233"><ele>1116.0</ele><time>2026-04-04T09:22:06.026Z</time></trkpt><trkpt lat="42.6145367" lon="13.333865"><ele>1116.0</ele><time>2026-04-04T09:22:07.026Z</time></trkpt><trkpt lat="42.6145533" lon="13.3340117"><ele>1116.0</ele><time>2026-04-04T09:22:08.026Z</time></trkpt><trkpt lat="42.614565" lon="13.3341617"><ele>1116.0</ele><time>2026-04-04T09:22:09.026Z</time></trkpt><trkpt lat="42.6145633" lon="13.33431"><ele>1116.0</ele><time>2026-04-04T09:22:10.026Z</time></trkpt><trkpt lat="42.6145633" lon="13.3344667"><ele>1118.0</ele><time>2026-04-04T09:22:11.026Z</time></trkpt><trkpt lat="42.6145717" lon="13.3346233"><ele>1120.0</ele><time>2026-04-04T09:22:12.026Z</time></trkpt><trkpt lat="42.6145867" lon="13.334785"><ele>1122.0</ele><time>2026-04-04T09:22:13.026Z</time></trkpt><trkpt lat="42.6146083" lon="13.3349433"><ele>1124.0</ele><time>2026-04-04T09:22:14.026Z</time></trkpt><trkpt lat="42.61462" lon="13.335105"><ele>1126.25</ele><time>2026-04-04T09:22:15.026Z</time></trkpt><trkpt lat="42.6146233" lon="13.33528"><ele>1128.5</ele><time>2026-04-04T09:22:16.025Z</time></trkpt><trkpt lat="42.6146267" lon="13.3354467"><ele>1130.75</ele><time>2026-04-04T09:22:17.026Z</time></trkpt><trkpt lat="42.6146233" lon="13.3356083"><ele>1133.0</ele><time>2026-04-04T09:22:18.026Z</time></trkpt><trkpt lat="42.614615" lon="13.33578"><ele>1133.75</ele><time>2026-04-04T09:22:19.026Z</time></trkpt><trkpt lat="42.6146017" lon="13.335945"><ele>1134.5</ele><time>2026-04-04T09:22:20.026Z</time></trkpt><trkpt lat="42.6145933" lon="13.3361033"><ele>1135.25</ele><time>2026-04-04T09:22:21.026Z</time></trkpt><trkpt lat="42.6145883" lon="13.3362617"><ele>1136.0</ele><time>2026-04-04T09:22:22.026Z</time></trkpt><trkpt lat="42.6145783" lon="13.3364233"><ele>1136.0</ele><time>2026-04-04T09:22:23.026Z</time></trkpt><trkpt lat="42.614565" lon="13.3365883"><ele>1136.0</ele><time>2026-04-04T09:22:24.026Z</time></trkpt><trkpt lat="42.614555" lon="13.3367417"><ele>1136.0</ele><time>2026-04-04T09:22:25.026Z</time></trkpt><trkpt lat="42.6145433" lon="13.3368933"><ele>1136.0</ele><time>2026-04-04T09:22:26.026Z</time></trkpt><trkpt lat="42.614515" lon="13.3370333"><ele>1137.5</ele><time>2026-04-04T09:22:27.025Z</time></trkpt><trkpt lat="42.6144683" lon="13.3371567"><ele>1139.0</ele><time>2026-04-04T09:22:28.026Z</time></trkpt><trkpt lat="42.6144133" lon="13.3372467"><ele>1140.5</ele><time>2026-04-04T09:22:29.025Z</time></trkpt><trkpt lat="42.6143483" lon="13.3373083"><ele>1142.0</ele><time>2026-04-04T09:22:30.026Z</time></trkpt><trkpt lat="42.61427" lon="13.337335"><ele>1143.5</ele><time>2026-04-04T09:22:31.026Z</time></trkpt><trkpt lat="42.6142033" lon="13.3373433"><ele>1145.0</ele><time>2026-04-04T09:22:32.026Z</time></trkpt><trkpt lat="42.61412" lon="13.3373133"><ele>1145.0</ele><time>2026-04-04T09:22:33.025Z</time></trkpt><trkpt lat="42.6140417" lon="13.3372383"><ele>1145.0</ele><time>2026-04-04T09:22:34.026Z</time></trkpt><trkpt lat="42.61398" lon="13.3371367"><ele>1145.0</ele><time>2026-04-04T09:22:35.026Z</time></trkpt><trkpt lat="42.6139617" lon="13.3369983"><ele>1145.0</ele><time>2026-04-04T09:22:36.026Z</time></trkpt><trkpt lat="42.61397" lon="13.33685"><ele>1145.0</ele><time>2026-04-04T09:22:37.026Z</time></trkpt><trkpt lat="42.6139883" lon="13.3367033"><ele>1145.0</ele><time>2026-04-04T09:22:38.026Z</time></trkpt><trkpt lat="42.6139967" lon="13.3365633"><ele>1145.0</ele><time>2026-04-04T09:22:39.026Z</time></trkpt><trkpt lat="42.61399" lon="13.3364367"><ele>1145.0</ele><time>2026-04-04T09:22:40.026Z</time></trkpt><trkpt lat="42.613955" lon="13.3363283"><ele>1145.0</ele><time>2026-04-04T09:22:41.026Z</time></trkpt><trkpt lat="42.61391" lon="13.3362283"><ele>1145.0</ele><time>2026-04-04T09:22:42.026Z</time></trkpt><trkpt lat="42.61386" lon="13.3361217"><ele>1145.4</ele><time>2026-04-04T09:22:43.026Z</time></trkpt><trkpt lat="42.6138083" lon="13.33602"><ele>1145.8</ele><time>2026-04-04T09:22:44.026Z</time></trkpt><trkpt lat="42.6137567" lon="13.3359067"><ele>1146.2</ele><time>2026-04-04T09:22:45.026Z</time></trkpt><trkpt lat="42.6137017" lon="13.3358017"><ele>1146.6</ele><time>2026-04-04T09:22:46.026Z</time></trkpt><trkpt lat="42.6136433" lon="13.335705"><ele>1147.0</ele><time>2026-04-04T09:22:47.026Z</time></trkpt><trkpt lat="42.6135683" lon="13.33562"><ele>1148.8</ele><time>2026-04-04T09:22:48.026Z</time></trkpt><trkpt lat="42.61349" lon="13.3355283"><ele>1150.6</ele><time>2026-04-04T09:22:49.026Z</time></trkpt><trkpt lat="42.6133967" lon="13.3354583"><ele>1152.3999999999999</ele><time>2026-04-04T09:22:50.026Z</time></trkpt><trkpt lat="42.6133083" lon="13.3353967"><ele>1154.2</ele><time>2026-04-04T09:22:51.026Z</time></trkpt><trkpt lat="42.61322" lon="13.335325"><ele>1156.0</ele><time>2026-04-04T09:22:52.026Z</time></trkpt><trkpt lat="42.6131433" lon="13.3352467"><ele>1156.0</ele><time>2026-04-04T09:22:53.026Z</time></trkpt><trkpt lat="42.6130683" lon="13.3351667"><ele>1156.0</ele><time>2026-04-04T09:22:54.026Z</time></trkpt><trkpt lat="42.6130017" lon="13.3350667"><ele>1156.0</ele><time>2026-04-04T09:22:55.026Z</time></trkpt><trkpt lat="42.6129367" lon="13.3349517"><ele>1156.0</ele><time>2026-04-04T09:22:56.026Z</time></trkpt><trkpt lat="42.61287" lon="13.3348183"><ele>1156.0</ele><time>2026-04-04T09:22:57.026Z</time></trkpt><trkpt lat="42.6127983" lon="13.3346733"><ele>1157.5</ele><time>2026-04-04T09:22:58.026Z</time></trkpt><trkpt lat="42.6127283" lon="13.3345183"><ele>1159.0</ele><time>2026-04-04T09:22:59.026Z</time></trkpt><trkpt lat="42.612655" lon="13.33437"><ele>1160.5</ele><time>2026-04-04T09:23:00.026Z</time></trkpt><trkpt lat="42.6125683" lon="13.3342483"><ele>1162.0</ele><time>2026-04-04T09:23:01.026Z</time></trkpt><trkpt lat="42.6124633" lon="13.3341483"><ele>1162.0</ele><time>2026-04-04T09:23:02.026Z</time></trkpt><trkpt lat="42.6123467" lon="13.3340917"><ele>1162.0</ele><time>2026-04-04T09:23:03.026Z</time></trkpt><trkpt lat="42.6122233" lon="13.334055"><ele>1162.0</ele><time>2026-04-04T09:23:04.026Z</time></trkpt><trkpt lat="42.6121" lon="13.3340233"><ele>1162.0</ele><time>2026-04-04T09:23:05.026Z</time></trkpt><trkpt lat="42.6119767" lon="13.333995"><ele>1164.0</ele><time>2026-04-04T09:23:06.026Z</time></trkpt><trkpt lat="42.6118483" lon="13.3339683"><ele>1166.0</ele><time>2026-04-04T09:23:07.026Z</time></trkpt><trkpt lat="42.6117183" lon="13.33395"><ele>1168.0</ele><time>2026-04-04T09:23:08.026Z</time></trkpt><trkpt lat="42.6115883" lon="13.33394"><ele>1170.0</ele><time>2026-04-04T09:23:09.026Z</time></trkpt><trkpt lat="42.61146" lon="13.3339567"><ele>1170.0</ele><time>2026-04-04T09:23:10.026Z</time></trkpt><trkpt lat="42.6113383" lon="13.3340033"><ele>1170.0</ele><time>2026-04-04T09:23:11.026Z</time></trkpt><trkpt lat="42.6112133" lon="13.33408"><ele>1170.0</ele><time>2026-04-04T09:23:12.026Z</time></trkpt><trkpt lat="42.6110817" lon="13.3341717"><ele>1170.0</ele><time>2026-04-04T09:23:13.026Z</time></trkpt><trkpt lat="42.61096" lon="13.3342667"><ele>1170.0</ele><time>2026-04-04T09:23:14.025Z</time></trkpt><trkpt lat="42.6108533" lon="13.3343633"><ele>1170.0</ele><time>2026-04-04T09:23:15.026Z</time></trkpt><trkpt lat="42.61077" lon="13.33448"><ele>1170.0</ele><time>2026-04-04T09:23:16.026Z</time></trkpt><trkpt lat="42.6107133" lon="13.3346267"><ele>1170.0</ele><time>2026-04-04T09:23:17.026Z</time></trkpt><trkpt lat="42.6106633" lon="13.3347833"><ele>1172.25</ele><time>2026-04-04T09:23:18.026Z</time></trkpt><trkpt lat="42.6105967" lon="13.33495"><ele>1174.5</ele><time>2026-04-04T09:23:19.026Z</time></trkpt><trkpt lat="42.610525" lon="13.3351067"><ele>1176.75</ele><time>2026-04-04T09:23:20.026Z</time></trkpt><trkpt lat="42.610445" lon="13.3352717"><ele>1179.0</ele><time>2026-04-04T09:23:21.026Z</time></trkpt><trkpt lat="42.6103483" lon="13.3354483"><ele>1179.0</ele><time>2026-04-04T09:23:22.026Z</time></trkpt><trkpt lat="42.610265" lon="13.3355983"><ele>1179.0</ele><time>2026-04-04T09:23:23.026Z</time></trkpt><trkpt lat="42.6101833" lon="13.3357567"><ele>1179.0</ele><time>2026-04-04T09:23:24.026Z</time></trkpt><trkpt lat="42.6101083" lon="13.3359217"><ele>1179.0</ele><time>2026-04-04T09:23:25.026Z</time></trkpt><trkpt lat="42.610035" lon="13.3360883"><ele>1179.0</ele><time>2026-04-04T09:23:26.026Z</time></trkpt><trkpt lat="42.6099567" lon="13.3362467"><ele>1179.0</ele><time>2026-04-04T09:23:27.026Z</time></trkpt><trkpt lat="42.609875" lon="13.3363983"><ele>1179.0</ele><time>2026-04-04T09:23:28.026Z</time></trkpt><trkpt lat="42.6097867" lon="13.336535"><ele>1179.0</ele><time>2026-04-04T09:23:29.026Z</time></trkpt><trkpt lat="42.6096867" lon="13.3366617"><ele>1180.5</ele><time>2026-04-04T09:23:30.026Z</time></trkpt><trkpt lat="42.609565" lon="13.336765"><ele>1182.0</ele><time>2026-04-04T09:23:31.026Z</time></trkpt><trkpt lat="42.6094383" lon="13.3368417"><ele>1183.5</ele><time>2026-04-04T09:23:32.026Z</time></trkpt><trkpt lat="42.6093067" lon="13.3368683"><ele>1185.0</ele><time>2026-04-04T09:23:33.026Z</time></trkpt><trkpt lat="42.6091617" lon="13.33689"><ele>1185.0</ele><time>2026-04-04T09:23:34.026Z</time></trkpt><trkpt lat="42.609015" lon="13.3369033"><ele>1185.0</ele><time>2026-04-04T09:23:35.026Z</time></trkpt><trkpt lat="42.6088633" lon="13.336925"><ele>1185.0</ele><time>2026-04-04T09:23:36.026Z</time></trkpt><trkpt lat="42.60871" lon="13.336955"><ele>1185.6666666666667</ele><time>2026-04-04T09:23:37.026Z</time></trkpt><trkpt lat="42.608555" lon="13.33699"><ele>1186.3333333333335</ele><time>2026-04-04T09:23:38.026Z</time></trkpt><trkpt lat="42.608405" lon="13.33703"><ele>1187.0</ele><time>2026-04-04T09:23:39.026Z</time></trkpt><trkpt lat="42.6082633" lon="13.33705"><ele>1187.0</ele><time>2026-04-04T09:23:40.026Z</time></trkpt><trkpt lat="42.60812" lon="13.3370667"><ele>1187.0</ele><time>2026-04-04T09:23:41.026Z</time></trkpt><trkpt lat="42.607985" lon="13.3370867"><ele>1187.0</ele><time>2026-04-04T09:23:42.026Z</time></trkpt><trkpt lat="42.607855" lon="13.337105"><ele>1187.0</ele><time>2026-04-04T09:23:43.026Z</time></trkpt><trkpt lat="42.6077233" lon="13.3371233"><ele>1189.0</ele><time>2026-04-04T09:23:44.026Z</time></trkpt><trkpt lat="42.6075867" lon="13.3371217"><ele>1191.0</ele><time>2026-04-04T09:23:45.026Z</time></trkpt><trkpt lat="42.6074517" lon="13.3370917"><ele>1193.0</ele><time>2026-04-04T09:23:46.026Z</time></trkpt><trkpt lat="42.6073233" lon="13.3370383"><ele>1195.0</ele><time>2026-04-04T09:23:47.026Z</time></trkpt><trkpt lat="42.6072067" lon="13.336935"><ele>1195.0</ele><time>2026-04-04T09:23:48.026Z</time></trkpt><trkpt lat="42.6070917" lon="13.336815"><ele>1195.0</ele><time>2026-04-04T09:23:49.026Z</time></trkpt><trkpt lat="42.606985" lon="13.3366733"><ele>1195.0</ele><time>2026-04-04T09:23:50.026Z</time></trkpt><trkpt lat="42.60688" lon="13.3365417"><ele>1195.0</ele><time>2026-04-04T09:23:51.026Z</time></trkpt><trkpt lat="42.6067767" lon="13.3364183"><ele>1197.5</ele><time>2026-04-04T09:23:52.026Z</time></trkpt><trkpt lat="42.6066917" lon="13.3362833"><ele>1200.0</ele><time>2026-04-04T09:23:53.026Z</time></trkpt><trkpt lat="42.6066483" lon="13.336125"><ele>1202.5</ele><time>2026-04-04T09:23:54.026Z</time></trkpt><trkpt lat="42.6066533" lon="13.335965"><ele>1205.0</ele><time>2026-04-04T09:23:55.026Z</time></trkpt><trkpt lat="42.606685" lon="13.335805"><ele>1205.0</ele><time>2026-04-04T09:23:56.026Z</time></trkpt><trkpt lat="42.60674" lon="13.33565"><ele>1205.0</ele><time>2026-04-04T09:23:57.026Z</time></trkpt><trkpt lat="42.6068133" lon="13.3355"><ele>1205.0</ele><time>2026-04-04T09:23:58.026Z</time></trkpt><trkpt lat="42.6069017" lon="13.3353583"><ele>1205.0</ele><time>2026-04-04T09:23:59.026Z</time></trkpt><trkpt lat="42.606975" lon="13.335205"><ele>1204.8</ele><time>2026-04-04T09:24:00.025Z</time></trkpt><trkpt lat="42.6070283" lon="13.335055"><ele>1204.6</ele><time>2026-04-04T09:24:01.026Z</time></trkpt><trkpt lat="42.6070517" lon="13.3349083"><ele>1204.4</ele><time>2026-04-04T09:24:02.026Z</time></trkpt><trkpt lat="42.6070117" lon="13.334785"><ele>1204.2</ele><time>2026-04-04T09:24:03.026Z</time></trkpt><trkpt lat="42.60694" lon="13.3347067"><ele>1204.0</ele><time>2026-04-04T09:24:04.026Z</time></trkpt><trkpt lat="42.60686" lon="13.3346667"><ele>1204.0</ele><time>2026-04-04T09:24:05.026Z</time></trkpt><trkpt lat="42.6067617" lon="13.3346717"><ele>1204.0</ele><time>2026-04-04T09:24:06.026Z</time></trkpt><trkpt lat="42.60667" lon="13.3347233"><ele>1204.0</ele><time>2026-04-04T09:24:07.026Z</time></trkpt><trkpt lat="42.606595" lon="13.3348267"><ele>1204.0</ele><time>2026-04-04T09:24:08.026Z</time></trkpt><trkpt lat="42.606545" lon="13.3349733"><ele>1204.0</ele><time>2026-04-04T09:24:09.026Z</time></trkpt><trkpt lat="42.6065083" lon="13.335125"><ele>1204.25</ele><time>2026-04-04T09:24:10.026Z</time></trkpt><trkpt lat="42.6064783" lon="13.33529"><ele>1204.5</ele><time>2026-04-04T09:24:11.026Z</time></trkpt><trkpt lat="42.6064417" lon="13.3354333"><ele>1204.75</ele><time>2026-04-04T09:24:12.026Z</time></trkpt><trkpt lat="42.606395" lon="13.33557"><ele>1205.0</ele><time>2026-04-04T09:24:13.025Z</time></trkpt><trkpt lat="42.6063383" lon="13.335705"><ele>1205.0</ele><time>2026-04-04T09:24:14.025Z</time></trkpt><trkpt lat="42.606265" lon="13.3358083"><ele>1205.0</ele><time>2026-04-04T09:24:15.026Z</time></trkpt><trkpt lat="42.6061867" lon="13.3358867"><ele>1205.0</ele><time>2026-04-04T09:24:16.026Z</time></trkpt><trkpt lat="42.606105" lon="13.3359383"><ele>1205.0</ele><time>2026-04-04T09:24:17.026Z</time></trkpt><trkpt lat="42.60604" lon="13.3360067"><ele>1205.0</ele><time>2026-04-04T09:24:18.026Z</time></trkpt><trkpt lat="42.6059917" lon="13.3361"><ele>1208.2</ele><time>2026-04-04T09:24:19.026Z</time></trkpt><trkpt lat="42.605985" lon="13.3362117"><ele>1211.4</ele><time>2026-04-04T09:24:20.026Z</time></trkpt><trkpt lat="42.6059917" lon="13.3363417"><ele>1214.6</ele><time>2026-04-04T09:24:21.026Z</time></trkpt><trkpt lat="42.6060117" lon="13.3364867"><ele>1217.8</ele><time>2026-04-04T09:24:22.026Z</time></trkpt><trkpt lat="42.6060417" lon="13.336645"><ele>1221.0</ele><time>2026-04-04T09:24:23.026Z</time></trkpt><trkpt lat="42.6060683" lon="13.3368133"><ele>1221.0</ele><time>2026-04-04T09:24:24.025Z</time></trkpt><trkpt lat="42.6060967" lon="13.336985"><ele>1221.0</ele><time>2026-04-04T09:24:25.026Z</time></trkpt><trkpt lat="42.606115" lon="13.3371717"><ele>1221.0</ele><time>2026-04-04T09:24:26.026Z</time></trkpt><trkpt lat="42.606135" lon="13.337355"><ele>1221.0</ele><time>2026-04-04T09:24:27.026Z</time></trkpt><trkpt lat="42.60615" lon="13.3375483"><ele>1220.0</ele><time>2026-04-04T09:24:28.026Z</time></trkpt><trkpt lat="42.606175" lon="13.3377367"><ele>1219.0</ele><time>2026-04-04T09:24:29.026Z</time></trkpt><trkpt lat="42.6061967" lon="13.3379217"><ele>1218.0</ele><time>2026-04-04T09:24:30.026Z</time></trkpt><trkpt lat="42.6062233" lon="13.33811"><ele>1217.0</ele><time>2026-04-04T09:24:31.026Z</time></trkpt><trkpt lat="42.60625" lon="13.3382983"><ele>1217.0</ele><time>2026-04-04T09:24:32.026Z</time></trkpt><trkpt lat="42.606265" lon="13.3384633"><ele>1217.0</ele><time>2026-04-04T09:24:33.026Z</time></trkpt><trkpt lat="42.6062617" lon="13.338605"><ele>1217.0</ele><time>2026-04-04T09:24:34.026Z</time></trkpt><trkpt lat="42.606235" lon="13.3387217"><ele>1217.0</ele><time>2026-04-04T09:24:35.026Z</time></trkpt><trkpt lat="42.6061883" lon="13.338795"><ele>1217.0</ele><time>2026-04-04T09:24:36.026Z</time></trkpt><trkpt lat="42.60613" lon="13.33885"><ele>1218.6666666666667</ele><time>2026-04-04T09:24:37.026Z</time></trkpt><trkpt lat="42.6060583" lon="13.33888"><ele>1220.3333333333335</ele><time>2026-04-04T09:24:38.026Z</time></trkpt><trkpt lat="42.6059833" lon="13.338855"><ele>1222.0</ele><time>2026-04-04T09:24:39.026Z</time></trkpt><trkpt lat="42.60591" lon="13.3388017"><ele>1223.6666666666667</ele><time>2026-04-04T09:24:40.026Z</time></trkpt><trkpt lat="42.6058567" lon="13.3387017"><ele>1225.3333333333333</ele><time>2026-04-04T09:24:41.026Z</time></trkpt><trkpt lat="42.6058133" lon="13.33857"><ele>1227.0</ele><time>2026-04-04T09:24:42.026Z</time></trkpt><trkpt lat="42.6057767" lon="13.33842"><ele>1227.0</ele><time>2026-04-04T09:24:43.026Z</time></trkpt><trkpt lat="42.6057333" lon="13.338255"><ele>1227.0</ele><time>2026-04-04T09:24:44.026Z</time></trkpt><trkpt lat="42.6056917" lon="13.3380967"><ele>1227.0</ele><time>2026-04-04T09:24:45.026Z</time></trkpt><trkpt lat="42.60566" lon="13.3379433"><ele>1227.0</ele><time>2026-04-04T09:24:46.026Z</time></trkpt><trkpt lat="42.6056133" lon="13.3377917"><ele>1226.0</ele><time>2026-04-04T09:24:47.026Z</time></trkpt><trkpt lat="42.605555" lon="13.3376483"><ele>1225.0</ele><time>2026-04-04T09:24:48.026Z</time></trkpt><trkpt lat="42.6054733" lon="13.3375283"><ele>1224.0</ele><time>2026-04-04T09:24:49.026Z</time></trkpt><trkpt lat="42.6053783" lon="13.33745"><ele>1223.0</ele><time>2026-04-04T09:24:50.026Z</time></trkpt><trkpt lat="42.6052767" lon="13.3373917"><ele>1227.2</ele><time>2026-04-04T09:24:51.026Z</time></trkpt><trkpt lat="42.6051733" lon="13.337345"><ele>1231.4</ele><time>2026-04-04T09:24:52.026Z</time></trkpt><trkpt lat="42.6050883" lon="13.3372717"><ele>1235.6000000000001</ele><time>2026-04-04T09:24:53.026Z</time></trkpt><trkpt lat="42.6050183" lon="13.3371817"><ele>1239.8</ele><time>2026-04-04T09:24:54.026Z</time></trkpt><trkpt lat="42.60497" lon="13.3370733"><ele>1244.0</ele><time>2026-04-04T09:24:55.026Z</time></trkpt><trkpt lat="42.60496" lon="13.336955"><ele>1244.0</ele><time>2026-04-04T09:24:56.026Z</time></trkpt><trkpt lat="42.6049783" lon="13.33681"><ele>1244.0</ele><time>2026-04-04T09:24:57.026Z</time></trkpt><trkpt lat="42.6050067" lon="13.3366567"><ele>1244.0</ele><time>2026-04-04T09:24:58.026Z</time></trkpt><trkpt lat="42.605045" lon="13.3364833"><ele>1244.0</ele><time>2026-04-04T09:24:59.026Z</time></trkpt><trkpt lat="42.6050783" lon="13.3363033"><ele>1244.5</ele><time>2026-04-04T09:25:00.026Z</time></trkpt><trkpt lat="42.6051233" lon="13.3361233"><ele>1245.0</ele><time>2026-04-04T09:25:01.026Z</time></trkpt><trkpt lat="42.605155" lon="13.3359233"><ele>1245.5</ele><time>2026-04-04T09:25:02.026Z</time></trkpt><trkpt lat="42.6051917" lon="13.3357267"><ele>1246.0</ele><time>2026-04-04T09:25:03.026Z</time></trkpt><trkpt lat="42.6052133" lon="13.3355483"><ele>1244.8</ele><time>2026-04-04T09:25:04.026Z</time></trkpt><trkpt lat="42.60522" lon="13.3353833"><ele>1243.6</ele><time>2026-04-04T09:25:05.026Z</time></trkpt><trkpt lat="42.605225" lon="13.3352333"><ele>1242.4</ele><time>2026-04-04T09:25:06.026Z</time></trkpt><trkpt lat="42.6052167" lon="13.3350867"><ele>1241.2</ele><time>2026-04-04T09:25:07.026Z</time></trkpt><trkpt lat="42.6051783" lon="13.334965"><ele>1240.0</ele><time>2026-04-04T09:25:08.026Z</time></trkpt><trkpt lat="42.6051117" lon="13.334875"><ele>1240.0</ele><time>2026-04-04T09:25:09.025Z</time></trkpt><trkpt lat="42.6050217" lon="13.33482"><ele>1240.0</ele><time>2026-04-04T09:25:10.026Z</time></trkpt><trkpt lat="42.604915" lon="13.33482"><ele>1240.0</ele><time>2026-04-04T09:25:11.026Z</time></trkpt><trkpt lat="42.6048183" lon="13.3348817"><ele>1240.0</ele><time>2026-04-04T09:25:12.026Z</time></trkpt><trkpt lat="42.6047433" lon="13.3349917"><ele>1240.0</ele><time>2026-04-04T09:25:13.026Z</time></trkpt><trkpt lat="42.6046933" lon="13.3351567"><ele>1240.0</ele><time>2026-04-04T09:25:14.026Z</time></trkpt><trkpt lat="42.6046617" lon="13.3353317"><ele>1240.0</ele><time>2026-04-04T09:25:15.025Z</time></trkpt><trkpt lat="42.604625" lon="13.3355033"><ele>1240.0</ele><time>2026-04-04T09:25:16.026Z</time></trkpt><trkpt lat="42.6045833" lon="13.3356817"><ele>1240.0</ele><time>2026-04-04T09:25:17.025Z</time></trkpt><trkpt lat="42.6045333" lon="13.3358767"><ele>1242.6666666666665</ele><time>2026-04-04T09:25:18.026Z</time></trkpt><trkpt lat="42.6044867" lon="13.3360733"><ele>1245.3333333333333</ele><time>2026-04-04T09:25:19.026Z</time></trkpt><trkpt lat="42.60443" lon="13.3362667"><ele>1248.0</ele><time>2026-04-04T09:25:20.026Z</time></trkpt><trkpt lat="42.604375" lon="13.3364633"><ele>1249.75</ele><time>2026-04-04T09:25:21.026Z</time></trkpt><trkpt lat="42.6043217" lon="13.3366517"><ele>1251.5</ele><time>2026-04-04T09:25:22.026Z</time></trkpt><trkpt lat="42.6042733" lon="13.3368367"><ele>1253.25</ele><time>2026-04-04T09:25:23.026Z</time></trkpt><trkpt lat="42.6042233" lon="13.337"><ele>1255.0</ele><time>2026-04-04T09:25:24.026Z</time></trkpt><trkpt lat="42.6041783" lon="13.3371267"><ele>1255.0</ele><time>2026-04-04T09:25:25.026Z</time></trkpt><trkpt lat="42.60413" lon="13.3372117"><ele>1255.0</ele><time>2026-04-04T09:25:26.026Z</time></trkpt><trkpt lat="42.604065" lon="13.3372717"><ele>1255.0</ele><time>2026-04-04T09:25:27.026Z</time></trkpt><trkpt lat="42.603995" lon="13.3373033"><ele>1255.0</ele><time>2026-04-04T09:25:28.026Z</time></trkpt><trkpt lat="42.6039133" lon="13.3373083"><ele>1255.0</ele><time>2026-04-04T09:25:29.026Z</time></trkpt><trkpt lat="42.603825" lon="13.3372683"><ele>1255.0</ele><time>2026-04-04T09:25:30.026Z</time></trkpt><trkpt lat="42.6037367" lon="13.3371983"><ele>1256.5</ele><time>2026-04-04T09:25:31.026Z</time></trkpt><trkpt lat="42.603645" lon="13.3371067"><ele>1258.0</ele><time>2026-04-04T09:25:32.025Z</time></trkpt><trkpt lat="42.6035517" lon="13.336965"><ele>1259.5</ele><time>2026-04-04T09:25:33.026Z</time></trkpt><trkpt lat="42.6034733" lon="13.33681"><ele>1261.0</ele><time>2026-04-04T09:25:34.026Z</time></trkpt><trkpt lat="42.6033917" lon="13.3366517"><ele>1261.0</ele><time>2026-04-04T09:25:35.026Z</time></trkpt><trkpt lat="42.6033083" lon="13.336495"><ele>1261.0</ele><time>2026-04-04T09:25:36.026Z</time></trkpt><trkpt lat="42.6032317" lon="13.3363517"><ele>1261.0</ele><time>2026-04-04T09:25:37.026Z</time></trkpt><trkpt lat="42.6031417" lon="13.33623"><ele>1261.0</ele><time>2026-04-04T09:25:38.026Z</time></trkpt><trkpt lat="42.6030367" lon="13.3361133"><ele>1259.0</ele><time>2026-04-04T09:25:39.026Z</time></trkpt><trkpt lat="42.60293" lon="13.3359883"><ele>1257.0</ele><time>2026-04-04T09:25:40.026Z</time></trkpt><trkpt lat="42.60282" lon="13.3358783"><ele>1255.0</ele><time>2026-04-04T09:25:41.026Z</time></trkpt><trkpt lat="42.602715" lon="13.3357817"><ele>1253.0</ele><time>2026-04-04T09:25:42.026Z</time></trkpt><trkpt lat="42.6026133" lon="13.33568"><ele>1254.0</ele><time>2026-04-04T09:25:43.026Z</time></trkpt><trkpt lat="42.6025" lon="13.3356083"><ele>1255.0</ele><time>2026-04-04T09:25:44.026Z</time></trkpt><trkpt lat="42.602385" lon="13.3355717"><ele>1256.0</ele><time>2026-04-04T09:25:45.026Z</time></trkpt><trkpt lat="42.6022683" lon="13.335555"><ele>1257.0</ele><time>2026-04-04T09:25:46.026Z</time></trkpt><trkpt lat="42.6021583" lon="13.3355533"><ele>1257.0</ele><time>2026-04-04T09:25:47.026Z</time></trkpt><trkpt lat="42.6020483" lon="13.3355283"><ele>1257.0</ele><time>2026-04-04T09:25:48.026Z</time></trkpt><trkpt lat="42.6019483" lon="13.335485"><ele>1257.0</ele><time>2026-04-04T09:25:49.026Z</time></trkpt><trkpt lat="42.6018533" lon="13.3354"><ele>1257.0</ele><time>2026-04-04T09:25:50.026Z</time></trkpt><trkpt lat="42.601765" lon="13.3352717"><ele>1260.5</ele><time>2026-04-04T09:25:51.026Z</time></trkpt><trkpt lat="42.6016783" lon="13.3351433"><ele>1264.0</ele><time>2026-04-04T09:25:52.026Z</time></trkpt><trkpt lat="42.6016067" lon="13.335"><ele>1267.5</ele><time>2026-04-04T09:25:53.026Z</time></trkpt><trkpt lat="42.6015567" lon="13.334855"><ele>1271.0</ele><time>2026-04-04T09:25:54.026Z</time></trkpt><trkpt lat="42.6015367" lon="13.33471"><ele>1271.0</ele><time>2026-04-04T09:25:55.026Z</time></trkpt><trkpt lat="42.60154" lon="13.3345533"><ele>1271.0</ele><time>2026-04-04T09:25:56.026Z</time></trkpt><trkpt lat="42.60157" lon="13.334395"><ele>1271.0</ele><time>2026-04-04T09:25:57.026Z</time></trkpt><trkpt lat="42.6015933" lon="13.3342517"><ele>1271.0</ele><time>2026-04-04T09:25:58.026Z</time></trkpt><trkpt lat="42.6016067" lon="13.334105"><ele>1271.0</ele><time>2026-04-04T09:25:59.026Z</time></trkpt><trkpt lat="42.6015967" lon="13.3339583"><ele>1271.0</ele><time>2026-04-04T09:26:00.026Z</time></trkpt><trkpt lat="42.6015417" lon="13.3338517"><ele>1271.0</ele><time>2026-04-04T09:26:01.026Z</time></trkpt><trkpt lat="42.6014583" lon="13.3337717"><ele>1271.0</ele><time>2026-04-04T09:26:02.026Z</time></trkpt><trkpt lat="42.6013433" lon="13.333735"><ele>1271.0</ele><time>2026-04-04T09:26:03.026Z</time></trkpt><trkpt lat="42.6012167" lon="13.3337133"><ele>1272.75</ele><time>2026-04-04T09:26:04.026Z</time></trkpt><trkpt lat="42.6010967" lon="13.33368"><ele>1274.5</ele><time>2026-04-04T09:26:05.026Z</time></trkpt><trkpt lat="42.600975" lon="13.33363"><ele>1276.25</ele><time>2026-04-04T09:26:06.026Z</time></trkpt><trkpt lat="42.6008567" lon="13.3335683"><ele>1278.0</ele><time>2026-04-04T09:26:07.026Z</time></trkpt><trkpt lat="42.6007517" lon="13.3334817"><ele>1278.0</ele><time>2026-04-04T09:26:08.026Z</time></trkpt><trkpt lat="42.6006633" lon="13.3333667"><ele>1278.0</ele><time>2026-04-04T09:26:09.025Z</time></trkpt><trkpt lat="42.6005833" lon="13.3332633"><ele>1278.0</ele><time>2026-04-04T09:26:10.026Z</time></trkpt><trkpt lat="42.6005" lon="13.333175"><ele>1278.0</ele><time>2026-04-04T09:26:11.026Z</time></trkpt><trkpt lat="42.600415" lon="13.333125"><ele>1278.0</ele><time>2026-04-04T09:26:12.026Z</time></trkpt><trkpt lat="42.6003217" lon="13.3331417"><ele>1279.0</ele><time>2026-04-04T09:26:13.026Z</time></trkpt><trkpt lat="42.60023" lon="13.3332133"><ele>1280.0</ele><time>2026-04-04T09:26:14.026Z</time></trkpt><trkpt lat="42.6001333" lon="13.3332933"><ele>1281.0</ele><time>2026-04-04T09:26:15.026Z</time></trkpt><trkpt lat="42.600025" lon="13.3333733"><ele>1282.0</ele><time>2026-04-04T09:26:16.026Z</time></trkpt><trkpt lat="42.5999017" lon="13.3334083"><ele>1282.0</ele><time>2026-04-04T09:26:17.026Z</time></trkpt><trkpt lat="42.5997733" lon="13.3334067"><ele>1282.0</ele><time>2026-04-04T09:26:18.026Z</time></trkpt><trkpt lat="42.5996367" lon="13.3333817"><ele>1282.0</ele><time>2026-04-04T09:26:19.026Z</time></trkpt><trkpt lat="42.5994983" lon="13.3333533"><ele>1282.0</ele><time>2026-04-04T09:26:20.026Z</time></trkpt><trkpt lat="42.5993767" lon="13.3333217"><ele>1283.0</ele><time>2026-04-04T09:26:21.026Z</time></trkpt><trkpt lat="42.599265" lon="13.3333"><ele>1284.0</ele><time>2026-04-04T09:26:22.026Z</time></trkpt><trkpt lat="42.59916" lon="13.3332717"><ele>1285.0</ele><time>2026-04-04T09:26:23.026Z</time></trkpt><trkpt lat="42.5990683" lon="13.3332167"><ele>1286.0</ele><time>2026-04-04T09:26:24.026Z</time></trkpt><trkpt lat="42.5989883" lon="13.333145"><ele>1287.0</ele><time>2026-04-04T09:26:25.026Z</time></trkpt><trkpt lat="42.5989233" lon="13.333045"><ele>1287.0</ele><time>2026-04-04T09:26:26.026Z</time></trkpt><trkpt lat="42.5988933" lon="13.3329333"><ele>1287.0</ele><time>2026-04-04T09:26:27.025Z</time></trkpt><trkpt lat="42.5988733" lon="13.3328167"><ele>1287.0</ele><time>2026-04-04T09:26:28.026Z</time></trkpt><trkpt lat="42.59889" lon="13.3326983"><ele>1287.0</ele><time>2026-04-04T09:26:29.026Z</time></trkpt><trkpt lat="42.5989367" lon="13.3325717"><ele>1287.0</ele><time>2026-04-04T09:26:30.026Z</time></trkpt><trkpt lat="42.5990067" lon="13.3324567"><ele>1287.0</ele><time>2026-04-04T09:26:31.026Z</time></trkpt><trkpt lat="42.5990867" lon="13.332335"><ele>1287.0</ele><time>2026-04-04T09:26:32.026Z</time></trkpt><trkpt lat="42.5991417" lon="13.3322117"><ele>1287.0</ele><time>2026-04-04T09:26:33.026Z</time></trkpt><trkpt lat="42.59915" lon="13.3320717"><ele>1287.0</ele><time>2026-04-04T09:26:34.026Z</time></trkpt><trkpt lat="42.59913" lon="13.331925"><ele>1287.0</ele><time>2026-04-04T09:26:35.026Z</time></trkpt><trkpt lat="42.5990817" lon="13.33179"><ele>1288.25</ele><time>2026-04-04T09:26:36.026Z</time></trkpt><trkpt lat="42.59901" lon="13.3316583"><ele>1289.5</ele><time>2026-04-04T09:26:37.026Z</time></trkpt><trkpt lat="42.598945" lon="13.3315183"><ele>1290.75</ele><time>2026-04-04T09:26:38.026Z</time></trkpt><trkpt lat="42.5988833" lon="13.3313717"><ele>1292.0</ele><time>2026-04-04T09:26:39.026Z</time></trkpt><trkpt lat="42.5988233" lon="13.3312183"><ele>1292.5</ele><time>2026-04-04T09:26:40.026Z</time></trkpt><trkpt lat="42.598785" lon="13.3310417"><ele>1293.0</ele><time>2026-04-04T09:26:41.026Z</time></trkpt><trkpt lat="42.59874" lon="13.330865"><ele>1293.5</ele><time>2026-04-04T09:26:42.025Z</time></trkpt><trkpt lat="42.598705" lon="13.3306967"><ele>1294.0</ele><time>2026-04-04T09:26:43.026Z</time></trkpt><trkpt lat="42.5986617" lon="13.33055"><ele>1296.0</ele><time>2026-04-04T09:26:44.026Z</time></trkpt><trkpt lat="42.5986" lon="13.330405"><ele>1298.0</ele><time>2026-04-04T09:26:45.026Z</time></trkpt><trkpt lat="42.5985317" lon="13.3302617"><ele>1300.0</ele><time>2026-04-04T09:26:46.026Z</time></trkpt><trkpt lat="42.5984533" lon="13.3301217"><ele>1302.0</ele><time>2026-04-04T09:26:47.026Z</time></trkpt><trkpt lat="42.5983717" lon="13.3299917"><ele>1302.0</ele><time>2026-04-04T09:26:48.026Z</time></trkpt><trkpt lat="42.5982617" lon="13.329885"><ele>1302.0</ele><time>2026-04-04T09:26:49.026Z</time></trkpt><trkpt lat="42.5981683" lon="13.3297733"><ele>1302.0</ele><time>2026-04-04T09:26:50.026Z</time></trkpt><trkpt lat="42.5980633" lon="13.3296717"><ele>1302.0</ele><time>2026-04-04T09:26:51.026Z</time></trkpt><trkpt lat="42.5979667" lon="13.3295567"><ele>1302.6</ele><time>2026-04-04T09:26:52.026Z</time></trkpt><trkpt lat="42.5978967" lon="13.3294533"><ele>1303.1999999999998</ele><time>2026-04-04T09:26:53.026Z</time></trkpt><trkpt lat="42.5978433" lon="13.32934"><ele>1303.8</ele><time>2026-04-04T09:26:54.026Z</time></trkpt><trkpt lat="42.5978233" lon="13.3292133"><ele>1304.4</ele><time>2026-04-04T09:26:55.026Z</time></trkpt><trkpt lat="42.59783" lon="13.329085"><ele>1305.0</ele><time>2026-04-04T09:26:56.026Z</time></trkpt><trkpt lat="42.5978617" lon="13.3289583"><ele>1308.2</ele><time>2026-04-04T09:26:57.026Z</time></trkpt><trkpt lat="42.5979183" lon="13.32882"><ele>1311.4</ele><time>2026-04-04T09:26:58.026Z</time></trkpt><trkpt lat="42.59798" lon="13.32875"><ele>1314.6</ele><time>2026-04-04T09:26:59.026Z</time></trkpt><trkpt lat="42.5980517" lon="13.328695"><ele>1317.8</ele><time>2026-04-04T09:27:00.026Z</time></trkpt><trkpt lat="42.5981417" lon="13.3286667"><ele>1321.0</ele><time>2026-04-04T09:27:01.026Z</time></trkpt><trkpt lat="42.5982467" lon="13.3286867"><ele>1321.0</ele><time>2026-04-04T09:27:02.026Z</time></trkpt><trkpt lat="42.59838" lon="13.3287367"><ele>1321.0</ele><time>2026-04-04T09:27:03.026Z</time></trkpt><trkpt lat="42.5985217" lon="13.3287817"><ele>1321.0</ele><time>2026-04-04T09:27:04.026Z</time></trkpt><trkpt lat="42.5986633" lon="13.3288233"><ele>1321.0</ele><time>2026-04-04T09:27:05.026Z</time></trkpt><trkpt lat="42.5987967" lon="13.328855"><ele>1322.75</ele><time>2026-04-04T09:27:06.026Z</time></trkpt><trkpt lat="42.5989317" lon="13.3288683"><ele>1324.5</ele><time>2026-04-04T09:27:07.025Z</time></trkpt><trkpt lat="42.599065" lon="13.3288633"><ele>1326.25</ele><time>2026-04-04T09:27:08.026Z</time></trkpt><trkpt lat="42.5992117" lon="13.3288233"><ele>1328.0</ele><time>2026-04-04T09:27:09.026Z</time></trkpt><trkpt lat="42.59936" lon="13.3287983"><ele>1326.5</ele><time>2026-04-04T09:27:10.026Z</time></trkpt><trkpt lat="42.5995033" lon="13.3287717"><ele>1325.0</ele><time>2026-04-04T09:27:11.026Z</time></trkpt><trkpt lat="42.5996283" lon="13.3287533"><ele>1323.5</ele><time>2026-04-04T09:27:12.026Z</time></trkpt><trkpt lat="42.5997683" lon="13.3287333"><ele>1322.0</ele><time>2026-04-04T09:27:13.026Z</time></trkpt><trkpt lat="42.5998883" lon="13.3286867"><ele>1322.0</ele><time>2026-04-04T09:27:14.026Z</time></trkpt><trkpt lat="42.599995" lon="13.3286133"><ele>1322.0</ele><time>2026-04-04T09:27:15.026Z</time></trkpt><trkpt lat="42.6000867" lon="13.328525"><ele>1322.0</ele><time>2026-04-04T09:27:16.026Z</time></trkpt><trkpt lat="42.60018" lon="13.3284183"><ele>1322.0</ele><time>2026-04-04T09:27:17.026Z</time></trkpt><trkpt lat="42.6002683" lon="13.328295"><ele>1321.75</ele><time>2026-04-04T09:27:18.026Z</time></trkpt><trkpt lat="42.6003633" lon="13.3281817"><ele>1321.5</ele><time>2026-04-04T09:27:19.026Z</time></trkpt><trkpt lat="42.6004467" lon="13.3280567"><ele>1321.25</ele><time>2026-04-04T09:27:20.026Z</time></trkpt><trkpt lat="42.6005167" lon="13.3279233"><ele>1321.0</ele><time>2026-04-04T09:27:21.026Z</time></trkpt><trkpt lat="42.6005717" lon="13.32777"><ele>1321.0</ele><time>2026-04-04T09:27:22.025Z</time></trkpt><trkpt lat="42.600605" lon="13.3276017"><ele>1321.0</ele><time>2026-04-04T09:27:23.025Z</time></trkpt><trkpt lat="42.60061" lon="13.3274333"><ele>1321.0</ele><time>2026-04-04T09:27:24.026Z</time></trkpt><trkpt lat="42.6006133" lon="13.3272533"><ele>1321.0</ele><time>2026-04-04T09:27:25.026Z</time></trkpt><trkpt lat="42.60058" lon="13.3270833"><ele>1321.25</ele><time>2026-04-04T09:27:26.026Z</time></trkpt><trkpt lat="42.60053" lon="13.32692"><ele>1321.5</ele><time>2026-04-04T09:27:27.026Z</time></trkpt><trkpt lat="42.60048" lon="13.3267683"><ele>1321.75</ele><time>2026-04-04T09:27:28.026Z</time></trkpt><trkpt lat="42.6004117" lon="13.3266433"><ele>1322.0</ele><time>2026-04-04T09:27:29.026Z</time></trkpt><trkpt lat="42.600335" lon="13.3265367"><ele>1322.5</ele><time>2026-04-04T09:27:30.026Z</time></trkpt><trkpt lat="42.6002183" lon="13.3264683"><ele>1323.0</ele><time>2026-04-04T09:27:31.026Z</time></trkpt><trkpt lat="42.6001083" lon="13.3264033"><ele>1323.5</ele><time>2026-04-04T09:27:32.026Z</time></trkpt><trkpt lat="42.6000017" lon="13.32638"><ele>1324.0</ele><time>2026-04-04T09:27:33.026Z</time></trkpt><trkpt lat="42.5998933" lon="13.3263733"><ele>1324.75</ele><time>2026-04-04T09:27:34.026Z</time></trkpt><trkpt lat="42.59979" lon="13.3263983"><ele>1325.5</ele><time>2026-04-04T09:27:35.026Z</time></trkpt><trkpt lat="42.5996683" lon="13.3264283"><ele>1326.25</ele><time>2026-04-04T09:27:36.025Z</time></trkpt><trkpt lat="42.599545" lon="13.3264767"><ele>1327.0</ele><time>2026-04-04T09:27:37.026Z</time></trkpt><trkpt lat="42.599425" lon="13.3264967"><ele>1327.0</ele><time>2026-04-04T09:27:38.026Z</time></trkpt><trkpt lat="42.5993033" lon="13.32651"><ele>1327.0</ele><time>2026-04-04T09:27:39.026Z</time></trkpt><trkpt lat="42.5991717" lon="13.32652"><ele>1327.0</ele><time>2026-04-04T09:27:40.026Z</time></trkpt><trkpt lat="42.5990417" lon="13.326535"><ele>1327.0</ele><time>2026-04-04T09:27:41.026Z</time></trkpt><trkpt lat="42.5989" lon="13.3265383"><ele>1327.0</ele><time>2026-04-04T09:27:42.026Z</time></trkpt><trkpt lat="42.59877" lon="13.3265567"><ele>1327.0</ele><time>2026-04-04T09:27:43.026Z</time></trkpt><trkpt lat="42.5986417" lon="13.3265817"><ele>1327.0</ele><time>2026-04-04T09:27:44.026Z</time></trkpt><trkpt lat="42.5985067" lon="13.3266333"><ele>1327.0</ele><time>2026-04-04T09:27:45.026Z</time></trkpt><trkpt lat="42.5983967" lon="13.326715"><ele>1327.5</ele><time>2026-04-04T09:27:46.026Z</time></trkpt><trkpt lat="42.5983067" lon="13.3268317"><ele>1328.0</ele><time>2026-04-04T09:27:47.026Z</time></trkpt><trkpt lat="42.5982433" lon="13.3269717"><ele>1328.5</ele><time>2026-04-04T09:27:48.026Z</time></trkpt><trkpt lat="42.5981783" lon="13.32712"><ele>1329.0</ele><time>2026-04-04T09:27:49.026Z</time></trkpt><trkpt lat="42.5981067" lon="13.32726"><ele>1329.0</ele><time>2026-04-04T09:27:50.025Z</time></trkpt><trkpt lat="42.598015" lon="13.3273617"><ele>1329.0</ele><time>2026-04-04T09:27:51.026Z</time></trkpt><trkpt lat="42.5979283" lon="13.32743"><ele>1329.0</ele><time>2026-04-04T09:27:52.026Z</time></trkpt><trkpt lat="42.5978417" lon="13.3274567"><ele>1329.0</ele><time>2026-04-04T09:27:53.026Z</time></trkpt><trkpt lat="42.59776" lon="13.32746"><ele>1329.0</ele><time>2026-04-04T09:27:54.026Z</time></trkpt><trkpt lat="42.5976767" lon="13.32744"><ele>1329.0</ele><time>2026-04-04T09:27:55.026Z</time></trkpt><trkpt lat="42.59759" lon="13.327405"><ele>1329.0</ele><time>2026-04-04T09:27:56.026Z</time></trkpt><trkpt lat="42.597515" lon="13.327335"><ele>1329.0</ele><time>2026-04-04T09:27:57.026Z</time></trkpt><trkpt lat="42.5974417" lon="13.32724"><ele>1329.0</ele><time>2026-04-04T09:27:58.026Z</time></trkpt><trkpt lat="42.59736" lon="13.327135"><ele>1329.0</ele><time>2026-04-04T09:27:59.026Z</time></trkpt><trkpt lat="42.59727" lon="13.3270217"><ele>1328.5</ele><time>2026-04-04T09:28:00.026Z</time></trkpt><trkpt lat="42.5971667" lon="13.3269067"><ele>1328.0</ele><time>2026-04-04T09:28:01.026Z</time></trkpt><trkpt lat="42.5970633" lon="13.3267933"><ele>1327.5</ele><time>2026-04-04T09:28:02.026Z</time></trkpt><trkpt lat="42.5969533" lon="13.3266867"><ele>1327.0</ele><time>2026-04-04T09:28:03.026Z</time></trkpt><trkpt lat="42.5968417" lon="13.3265717"><ele>1327.0</ele><time>2026-04-04T09:28:04.026Z</time></trkpt><trkpt lat="42.596725" lon="13.3264717"><ele>1327.0</ele><time>2026-04-04T09:28:05.026Z</time></trkpt><trkpt lat="42.5966083" lon="13.3264083"><ele>1327.0</ele><time>2026-04-04T09:28:06.025Z</time></trkpt><trkpt lat="42.596485" lon="13.3263467"><ele>1327.0</ele><time>2026-04-04T09:28:07.026Z</time></trkpt><trkpt lat="42.596355" lon="13.326315"><ele>1326.5</ele><time>2026-04-04T09:28:08.026Z</time></trkpt><trkpt lat="42.5962267" lon="13.3263133"><ele>1326.0</ele><time>2026-04-04T09:28:09.026Z</time></trkpt><trkpt lat="42.596095" lon="13.326335"><ele>1325.5</ele><time>2026-04-04T09:28:10.026Z</time></trkpt><trkpt lat="42.5959517" lon="13.32637"><ele>1325.0</ele><time>2026-04-04T09:28:11.025Z</time></trkpt><trkpt lat="42.5958133" lon="13.3264133"><ele>1325.0</ele><time>2026-04-04T09:28:12.026Z</time></trkpt><trkpt lat="42.595665" lon="13.3264533"><ele>1325.0</ele><time>2026-04-04T09:28:13.026Z</time></trkpt><trkpt lat="42.59551" lon="13.3264967"><ele>1325.0</ele><time>2026-04-04T09:28:14.026Z</time></trkpt><trkpt lat="42.5953583" lon="13.32653"><ele>1324.3333333333335</ele><time>2026-04-04T09:28:15.026Z</time></trkpt><trkpt lat="42.5952067" lon="13.3265583"><ele>1323.6666666666667</ele><time>2026-04-04T09:28:16.026Z</time></trkpt><trkpt lat="42.5950567" lon="13.32659"><ele>1323.0</ele><time>2026-04-04T09:28:17.026Z</time></trkpt><trkpt lat="42.594905" lon="13.326605"><ele>1323.0</ele><time>2026-04-04T09:28:18.026Z</time></trkpt><trkpt lat="42.5947533" lon="13.3266417"><ele>1323.0</ele><time>2026-04-04T09:28:19.026Z</time></trkpt><trkpt lat="42.5946117" lon="13.326685"><ele>1323.0</ele><time>2026-04-04T09:28:20.026Z</time></trkpt><trkpt lat="42.5944733" lon="13.3267533"><ele>1323.0</ele><time>2026-04-04T09:28:21.026Z</time></trkpt><trkpt lat="42.59435" lon="13.3268433"><ele>1322.0</ele><time>2026-04-04T09:28:22.026Z</time></trkpt><trkpt lat="42.5942417" lon="13.3269733"><ele>1321.0</ele><time>2026-04-04T09:28:23.026Z</time></trkpt><trkpt lat="42.59415" lon="13.3271133"><ele>1320.0</ele><time>2026-04-04T09:28:24.026Z</time></trkpt><trkpt lat="42.5940567" lon="13.3272567"><ele>1319.0</ele><time>2026-04-04T09:28:25.026Z</time></trkpt><trkpt lat="42.5939667" lon="13.3273933"><ele>1319.0</ele><time>2026-04-04T09:28:26.026Z</time></trkpt><trkpt lat="42.5938783" lon="13.3275283"><ele>1319.0</ele><time>2026-04-04T09:28:27.026Z</time></trkpt><trkpt lat="42.5937717" lon="13.3276467"><ele>1319.0</ele><time>2026-04-04T09:28:28.026Z</time></trkpt><trkpt lat="42.5936483" lon="13.3277467"><ele>1319.0</ele><time>2026-04-04T09:28:29.026Z</time></trkpt><trkpt lat="42.59351" lon="13.327845"><ele>1318.5</ele><time>2026-04-04T09:28:30.026Z</time></trkpt><trkpt lat="42.5933833" lon="13.3279233"><ele>1318.0</ele><time>2026-04-04T09:28:31.026Z</time></trkpt><trkpt lat="42.59325" lon="13.328005"><ele>1317.5</ele><time>2026-04-04T09:28:32.026Z</time></trkpt><trkpt lat="42.5931233" lon="13.3280833"><ele>1317.0</ele><time>2026-04-04T09:28:33.026Z</time></trkpt><trkpt lat="42.5929983" lon="13.3281583"><ele>1317.0</ele><time>2026-04-04T09:28:34.026Z</time></trkpt><trkpt lat="42.5928717" lon="13.3282183"><ele>1317.0</ele><time>2026-04-04T09:28:35.026Z</time></trkpt><trkpt lat="42.59274" lon="13.3282617"><ele>1317.0</ele><time>2026-04-04T09:28:36.026Z</time></trkpt><trkpt lat="42.5926067" lon="13.3282733"><ele>1317.0</ele><time>2026-04-04T09:28:37.026Z</time></trkpt><trkpt lat="42.5924667" lon="13.3282567"><ele>1313.0</ele><time>2026-04-04T09:28:38.026Z</time></trkpt><trkpt lat="42.5923217" lon="13.3282133"><ele>1309.0</ele><time>2026-04-04T09:28:39.026Z</time></trkpt><trkpt lat="42.59218" lon="13.3281383"><ele>1305.0</ele><time>2026-04-04T09:28:40.026Z</time></trkpt><trkpt lat="42.5920417" lon="13.3280333"><ele>1302.0</ele><time>2026-04-04T09:28:41.026Z</time></trkpt><trkpt lat="42.5918983" lon="13.3279167"><ele>1299.0</ele><time>2026-04-04T09:28:42.026Z</time></trkpt><trkpt lat="42.5917483" lon="13.327805"><ele>1296.0</ele><time>2026-04-04T09:28:43.026Z</time></trkpt><trkpt lat="42.5916067" lon="13.327705"><ele>1296.0</ele><time>2026-04-04T09:28:44.026Z</time></trkpt><trkpt lat="42.591465" lon="13.3276117"><ele>1296.0</ele><time>2026-04-04T09:28:45.026Z</time></trkpt><trkpt lat="42.5913317" lon="13.32753"><ele>1296.0</ele><time>2026-04-04T09:28:46.026Z</time></trkpt><trkpt lat="42.5911933" lon="13.3274433"><ele>1295.75</ele><time>2026-04-04T09:28:47.026Z</time></trkpt><trkpt lat="42.59106" lon="13.3273733"><ele>1295.5</ele><time>2026-04-04T09:28:48.026Z</time></trkpt><trkpt lat="42.59093" lon="13.327315"><ele>1295.25</ele><time>2026-04-04T09:28:49.026Z</time></trkpt><trkpt lat="42.5908017" lon="13.3272783"><ele>1295.0</ele><time>2026-04-04T09:28:50.026Z</time></trkpt><trkpt lat="42.5906583" lon="13.3272767"><ele>1295.0</ele><time>2026-04-04T09:28:51.026Z</time></trkpt><trkpt lat="42.59054" lon="13.3273133"><ele>1295.0</ele><time>2026-04-04T09:28:52.026Z</time></trkpt><trkpt lat="42.5904517" lon="13.3274183"><ele>1295.0</ele><time>2026-04-04T09:28:53.026Z</time></trkpt><trkpt lat="42.5904033" lon="13.3275667"><ele>1295.0</ele><time>2026-04-04T09:28:54.026Z</time></trkpt><trkpt lat="42.5903883" lon="13.327745"><ele>1295.0</ele><time>2026-04-04T09:28:55.026Z</time></trkpt><trkpt lat="42.590395" lon="13.32793"><ele>1295.0</ele><time>2026-04-04T09:28:56.026Z</time></trkpt><trkpt lat="42.5904083" lon="13.3281133"><ele>1295.0</ele><time>2026-04-04T09:28:57.026Z</time></trkpt><trkpt lat="42.5904167" lon="13.3283"><ele>1295.0</ele><time>2026-04-04T09:28:58.026Z</time></trkpt><trkpt lat="42.590425" lon="13.3284883"><ele>1295.75</ele><time>2026-04-04T09:28:59.026Z</time></trkpt><trkpt lat="42.590435" lon="13.3286717"><ele>1296.5</ele><time>2026-04-04T09:29:00.026Z</time></trkpt><trkpt lat="42.59043" lon="13.3288483"><ele>1297.25</ele><time>2026-04-04T09:29:01.026Z</time></trkpt><trkpt lat="42.5904133" lon="13.3290083"><ele>1298.0</ele><time>2026-04-04T09:29:02.026Z</time></trkpt><trkpt lat="42.5903783" lon="13.3291767"><ele>1294.75</ele><time>2026-04-04T09:29:03.026Z</time></trkpt><trkpt lat="42.590335" lon="13.3293483"><ele>1291.5</ele><time>2026-04-04T09:29:04.026Z</time></trkpt><trkpt lat="42.5902933" lon="13.3295183"><ele>1288.25</ele><time>2026-04-04T09:29:05.026Z</time></trkpt><trkpt lat="42.5902483" lon="13.3296933"><ele>1285.0</ele><time>2026-04-04T09:29:06.026Z</time></trkpt><trkpt lat="42.5901967" lon="13.329865"><ele>1285.0</ele><time>2026-04-04T09:29:07.026Z</time></trkpt><trkpt lat="42.5901467" lon="13.33003"><ele>1285.0</ele><time>2026-04-04T09:29:08.026Z</time></trkpt><trkpt lat="42.5901" lon="13.3301733"><ele>1285.0</ele><time>2026-04-04T09:29:09.026Z</time></trkpt><trkpt lat="42.5900433" lon="13.3302933"><ele>1285.0</ele><time>2026-04-04T09:29:10.026Z</time></trkpt><trkpt lat="42.5899683" lon="13.330385"><ele>1285.0</ele><time>2026-04-04T09:29:11.026Z</time></trkpt><trkpt lat="42.5898783" lon="13.330425"><ele>1285.0</ele><time>2026-04-04T09:29:12.026Z</time></trkpt><trkpt lat="42.5897883" lon="13.330415"><ele>1285.0</ele><time>2026-04-04T09:29:13.026Z</time></trkpt><trkpt lat="42.5896917" lon="13.3303833"><ele>1285.0</ele><time>2026-04-04T09:29:14.026Z</time></trkpt><trkpt lat="42.589595" lon="13.3303233"><ele>1285.0</ele><time>2026-04-04T09:29:15.026Z</time></trkpt><trkpt lat="42.5894983" lon="13.3302667"><ele>1283.5</ele><time>2026-04-04T09:29:16.025Z</time></trkpt><trkpt lat="42.5893983" lon="13.3301917"><ele>1282.0</ele><time>2026-04-04T09:29:17.026Z</time></trkpt><trkpt lat="42.5892833" lon="13.33011"><ele>1280.5</ele><time>2026-04-04T09:29:18.026Z</time></trkpt><trkpt lat="42.5891583" lon="13.33003"><ele>1279.0</ele><time>2026-04-04T09:29:19.026Z</time></trkpt><trkpt lat="42.5890317" lon="13.32993"><ele>1279.0</ele><time>2026-04-04T09:29:20.026Z</time></trkpt><trkpt lat="42.5888967" lon="13.32984"><ele>1279.0</ele><time>2026-04-04T09:29:21.026Z</time></trkpt><trkpt lat="42.5887483" lon="13.3297483"><ele>1279.0</ele><time>2026-04-04T09:29:22.026Z</time></trkpt><trkpt lat="42.5886083" lon="13.3296417"><ele>1280.0</ele><time>2026-04-04T09:29:23.026Z</time></trkpt><trkpt lat="42.588465" lon="13.3295333"><ele>1281.0</ele><time>2026-04-04T09:29:24.025Z</time></trkpt><trkpt lat="42.5883233" lon="13.32942"><ele>1282.0</ele><time>2026-04-04T09:29:25.026Z</time></trkpt><trkpt lat="42.5881717" lon="13.3292983"><ele>1282.0</ele><time>2026-04-04T09:29:26.026Z</time></trkpt><trkpt lat="42.5880283" lon="13.329195"><ele>1282.0</ele><time>2026-04-04T09:29:27.026Z</time></trkpt><trkpt lat="42.587885" lon="13.329085"><ele>1282.0</ele><time>2026-04-04T09:29:28.026Z</time></trkpt><trkpt lat="42.587725" lon="13.3289617"><ele>1283.6666666666665</ele><time>2026-04-04T09:29:29.026Z</time></trkpt><trkpt lat="42.5875733" lon="13.3288417"><ele>1285.3333333333333</ele><time>2026-04-04T09:29:30.026Z</time></trkpt><trkpt lat="42.5874233" lon="13.32873"><ele>1287.0</ele><time>2026-04-04T09:29:31.026Z</time></trkpt><trkpt lat="42.58727" lon="13.3286167"><ele>1287.0</ele><time>2026-04-04T09:29:32.026Z</time></trkpt><trkpt lat="42.5871217" lon="13.328485"><ele>1287.0</ele><time>2026-04-04T09:29:33.026Z</time></trkpt><trkpt lat="42.58698" lon="13.328375"><ele>1287.0</ele><time>2026-04-04T09:29:34.026Z</time></trkpt><trkpt lat="42.5868367" lon="13.3282633"><ele>1289.3333333333333</ele><time>2026-04-04T09:29:35.026Z</time></trkpt><trkpt lat="42.586705" lon="13.32815"><ele>1291.6666666666665</ele><time>2026-04-04T09:29:36.026Z</time></trkpt><trkpt lat="42.5865783" lon="13.328025"><ele>1294.0</ele><time>2026-04-04T09:29:37.026Z</time></trkpt><trkpt lat="42.58646" lon="13.3279033"><ele>1294.0</ele><time>2026-04-04T09:29:38.026Z</time></trkpt><trkpt lat="42.5863383" lon="13.32777"><ele>1294.0</ele><time>2026-04-04T09:29:39.026Z</time></trkpt><trkpt lat="42.58623" lon="13.3276233"><ele>1294.0</ele><time>2026-04-04T09:29:40.026Z</time></trkpt><trkpt lat="42.58613" lon="13.3274667"><ele>1296.6666666666665</ele><time>2026-04-04T09:29:41.026Z</time></trkpt><trkpt lat="42.586035" lon="13.3273017"><ele>1299.3333333333333</ele><time>2026-04-04T09:29:42.026Z</time></trkpt><trkpt lat="42.5859433" lon="13.327125"><ele>1302.0</ele><time>2026-04-04T09:29:43.026Z</time></trkpt><trkpt lat="42.585845" lon="13.32693"><ele>1302.0</ele><time>2026-04-04T09:29:44.026Z</time></trkpt><trkpt lat="42.585745" lon="13.3267317"><ele>1302.0</ele><time>2026-04-04T09:29:45.026Z</time></trkpt><trkpt lat="42.5856417" lon="13.3265433"><ele>1302.0</ele><time>2026-04-04T09:29:46.025Z</time></trkpt><trkpt lat="42.58554" lon="13.3263483"><ele>1301.3333333333333</ele><time>2026-04-04T09:29:47.026Z</time></trkpt><trkpt lat="42.58544" lon="13.326155"><ele>1300.6666666666665</ele><time>2026-04-04T09:29:48.026Z</time></trkpt><trkpt lat="42.5853433" lon="13.3259583"><ele>1300.0</ele><time>2026-04-04T09:29:49.026Z</time></trkpt><trkpt lat="42.585245" lon="13.32576"><ele>1298.6666666666665</ele><time>2026-04-04T09:29:50.026Z</time></trkpt><trkpt lat="42.5851433" lon="13.3255633"><ele>1297.3333333333333</ele><time>2026-04-04T09:29:51.026Z</time></trkpt><trkpt lat="42.5850433" lon="13.3253667"><ele>1296.0</ele><time>2026-04-04T09:29:52.026Z</time></trkpt><trkpt lat="42.584935" lon="13.325165"><ele>1296.0</ele><time>2026-04-04T09:29:53.026Z</time></trkpt><trkpt lat="42.584825" lon="13.3249617"><ele>1296.0</ele><time>2026-04-04T09:29:54.025Z</time></trkpt><trkpt lat="42.5847083" lon="13.3247517"><ele>1296.0</ele><time>2026-04-04T09:29:55.026Z</time></trkpt><trkpt lat="42.5845983" lon="13.3245483"><ele>1297.0</ele><time>2026-04-04T09:29:56.026Z</time></trkpt><trkpt lat="42.5844933" lon="13.3243417"><ele>1298.0</ele><time>2026-04-04T09:29:57.026Z</time></trkpt><trkpt lat="42.58438" lon="13.324125"><ele>1299.0</ele><time>2026-04-04T09:29:58.026Z</time></trkpt><trkpt lat="42.584275" lon="13.3239317"><ele>1297.0</ele><time>2026-04-04T09:29:59.026Z</time></trkpt><trkpt lat="42.5841733" lon="13.32374"><ele>1295.0</ele><time>2026-04-04T09:30:00.026Z</time></trkpt><trkpt lat="42.5840733" lon="13.323545"><ele>1293.0</ele><time>2026-04-04T09:30:01.026Z</time></trkpt><trkpt lat="42.5839783" lon="13.32335"><ele>1293.0</ele><time>2026-04-04T09:30:02.026Z</time></trkpt><trkpt lat="42.5838783" lon="13.323165"><ele>1293.0</ele><time>2026-04-04T09:30:03.026Z</time></trkpt><trkpt lat="42.5837817" lon="13.3229817"><ele>1293.0</ele><time>2026-04-04T09:30:04.026Z</time></trkpt><trkpt lat="42.5836767" lon="13.3228"><ele>1293.0</ele><time>2026-04-04T09:30:05.026Z</time></trkpt><trkpt lat="42.58357" lon="13.322615"><ele>1293.0</ele><time>2026-04-04T09:30:06.026Z</time></trkpt><trkpt lat="42.5834517" lon="13.3224467"><ele>1293.0</ele><time>2026-04-04T09:30:07.026Z</time></trkpt><trkpt lat="42.583315" lon="13.3222783"><ele>1290.0</ele><time>2026-04-04T09:30:08.026Z</time></trkpt><trkpt lat="42.5831717" lon="13.32211"><ele>1287.0</ele><time>2026-04-04T09:30:09.026Z</time></trkpt><trkpt lat="42.5830233" lon="13.3219383"><ele>1284.0</ele><time>2026-04-04T09:30:10.026Z</time></trkpt><trkpt lat="42.5828833" lon="13.321765"><ele>1284.6666666666667</ele><time>2026-04-04T09:30:11.026Z</time></trkpt><trkpt lat="42.5827433" lon="13.3216033"><ele>1285.3333333333335</ele><time>2026-04-04T09:30:12.026Z</time></trkpt><trkpt lat="42.5826017" lon="13.3214433"><ele>1286.0</ele><time>2026-04-04T09:30:13.026Z</time></trkpt><trkpt lat="42.58246" lon="13.3212917"><ele>1286.0</ele><time>2026-04-04T09:30:14.026Z</time></trkpt><trkpt lat="42.5823083" lon="13.3211383"><ele>1286.0</ele><time>2026-04-04T09:30:15.026Z</time></trkpt><trkpt lat="42.5821517" lon="13.3210017"><ele>1286.0</ele><time>2026-04-04T09:30:16.026Z</time></trkpt><trkpt lat="42.5819967" lon="13.3208817"><ele>1288.3333333333335</ele><time>2026-04-04T09:30:17.026Z</time></trkpt><trkpt lat="42.5818333" lon="13.320765"><ele>1290.6666666666667</ele><time>2026-04-04T09:30:18.026Z</time></trkpt><trkpt lat="42.58168" lon="13.3206367"><ele>1293.0</ele><time>2026-04-04T09:30:19.026Z</time></trkpt><trkpt lat="42.5815217" lon="13.320505"><ele>1291.6666666666667</ele><time>2026-04-04T09:30:20.026Z</time></trkpt><trkpt lat="42.5813667" lon="13.320365"><ele>1290.3333333333335</ele><time>2026-04-04T09:30:21.026Z</time></trkpt><trkpt lat="42.5812133" lon="13.3202317"><ele>1289.0</ele><time>2026-04-04T09:30:22.026Z</time></trkpt><trkpt lat="42.58106" lon="13.3201083"><ele>1289.0</ele><time>2026-04-04T09:30:23.026Z</time></trkpt><trkpt lat="42.58091" lon="13.3199783"><ele>1289.0</ele><time>2026-04-04T09:30:24.026Z</time></trkpt><trkpt lat="42.580755" lon="13.3198533"><ele>1289.0</ele><time>2026-04-04T09:30:25.026Z</time></trkpt><trkpt lat="42.5805983" lon="13.31972"><ele>1288.6666666666667</ele><time>2026-04-04T09:30:26.026Z</time></trkpt><trkpt lat="42.5804433" lon="13.31958"><ele>1288.3333333333333</ele><time>2026-04-04T09:30:27.026Z</time></trkpt><trkpt lat="42.5802883" lon="13.3194533"><ele>1288.0</ele><time>2026-04-04T09:30:28.026Z</time></trkpt><trkpt lat="42.5801333" lon="13.3193283"><ele>1288.0</ele><time>2026-04-04T09:30:29.025Z</time></trkpt><trkpt lat="42.5799867" lon="13.3192"><ele>1288.0</ele><time>2026-04-04T09:30:30.026Z</time></trkpt><trkpt lat="42.5798283" lon="13.3190767"><ele>1288.0</ele><time>2026-04-04T09:30:31.026Z</time></trkpt><trkpt lat="42.5796783" lon="13.3189567"><ele>1286.0</ele><time>2026-04-04T09:30:32.026Z</time></trkpt><trkpt lat="42.5795233" lon="13.31886"><ele>1284.0</ele><time>2026-04-04T09:30:33.026Z</time></trkpt><trkpt lat="42.579365" lon="13.31878"><ele>1282.0</ele><time>2026-04-04T09:30:34.026Z</time></trkpt><trkpt lat="42.5791983" lon="13.31874"><ele>1282.0</ele><time>2026-04-04T09:30:35.026Z</time></trkpt><trkpt lat="42.5790367" lon="13.3187417"><ele>1282.0</ele><time>2026-04-04T09:30:36.025Z</time></trkpt><trkpt lat="42.5788633" lon="13.318765"><ele>1282.0</ele><time>2026-04-04T09:30:37.026Z</time></trkpt><trkpt lat="42.5786783" lon="13.3188083"><ele>1282.0</ele><time>2026-04-04T09:30:38.026Z</time></trkpt><trkpt lat="42.5785017" lon="13.318855"><ele>1282.0</ele><time>2026-04-04T09:30:39.026Z</time></trkpt><trkpt lat="42.5783217" lon="13.3188983"><ele>1282.0</ele><time>2026-04-04T09:30:40.026Z</time></trkpt><trkpt lat="42.57815" lon="13.31895"><ele>1284.3333333333333</ele><time>2026-04-04T09:30:41.026Z</time></trkpt><trkpt lat="42.5779633" lon="13.3190433"><ele>1286.6666666666667</ele><time>2026-04-04T09:30:42.026Z</time></trkpt><trkpt lat="42.577815" lon="13.319125"><ele>1289.0</ele><time>2026-04-04T09:30:43.026Z</time></trkpt><trkpt lat="42.5776683" lon="13.319235"><ele>1289.0</ele><time>2026-04-04T09:30:44.026Z</time></trkpt><trkpt lat="42.5775217" lon="13.3193617"><ele>1289.0</ele><time>2026-04-04T09:30:45.026Z</time></trkpt><trkpt lat="42.577385" lon="13.3194883"><ele>1289.0</ele><time>2026-04-04T09:30:46.026Z</time></trkpt><trkpt lat="42.5772583" lon="13.3196083"><ele>1289.0</ele><time>2026-04-04T09:30:47.026Z</time></trkpt><trkpt lat="42.5771383" lon="13.3197267"><ele>1289.0</ele><time>2026-04-04T09:30:48.025Z</time></trkpt><trkpt lat="42.5770167" lon="13.3198367"><ele>1289.0</ele><time>2026-04-04T09:30:49.026Z</time></trkpt><trkpt lat="42.5769117" lon="13.3199333"><ele>1289.0</ele><time>2026-04-04T09:30:50.026Z</time></trkpt><trkpt lat="42.5767967" lon="13.3200333"><ele>1288.75</ele><time>2026-04-04T09:30:51.026Z</time></trkpt><trkpt lat="42.576685" lon="13.3201317"><ele>1288.5</ele><time>2026-04-04T09:30:52.026Z</time></trkpt><trkpt lat="42.5765717" lon="13.3202183"><ele>1288.25</ele><time>2026-04-04T09:30:53.026Z</time></trkpt><trkpt lat="42.5764583" lon="13.3203117"><ele>1288.0</ele><time>2026-04-04T09:30:54.026Z</time></trkpt><trkpt lat="42.5763417" lon="13.3204183"><ele>1288.0</ele><time>2026-04-04T09:30:55.026Z</time></trkpt><trkpt lat="42.5762233" lon="13.320525"><ele>1288.0</ele><time>2026-04-04T09:30:56.026Z</time></trkpt><trkpt lat="42.5761" lon="13.32064"><ele>1288.0</ele><time>2026-04-04T09:30:57.026Z</time></trkpt><trkpt lat="42.5759733" lon="13.3207517"><ele>1288.0</ele><time>2026-04-04T09:30:58.026Z</time></trkpt><trkpt lat="42.5758433" lon="13.3208567"><ele>1290.3333333333333</ele><time>2026-04-04T09:30:59.026Z</time></trkpt><trkpt lat="42.5757133" lon="13.3209633"><ele>1292.6666666666667</ele><time>2026-04-04T09:31:00.026Z</time></trkpt><trkpt lat="42.5755767" lon="13.3210617"><ele>1295.0</ele><time>2026-04-04T09:31:01.026Z</time></trkpt><trkpt lat="42.5754317" lon="13.3211383"><ele>1295.3333333333335</ele><time>2026-04-04T09:31:02.026Z</time></trkpt><trkpt lat="42.5752817" lon="13.3212067"><ele>1295.6666666666667</ele><time>2026-04-04T09:31:03.026Z</time></trkpt><trkpt lat="42.5751233" lon="13.3212783"><ele>1296.0</ele><time>2026-04-04T09:31:04.026Z</time></trkpt><trkpt lat="42.574975" lon="13.3213383"><ele>1296.0</ele><time>2026-04-04T09:31:05.026Z</time></trkpt><trkpt lat="42.5748317" lon="13.3213967"><ele>1296.0</ele><time>2026-04-04T09:31:06.026Z</time></trkpt><trkpt lat="42.5746867" lon="13.3214517"><ele>1296.0</ele><time>2026-04-04T09:31:07.026Z</time></trkpt><trkpt lat="42.5745517" lon="13.3215"><ele>1296.0</ele><time>2026-04-04T09:31:08.025Z</time></trkpt><trkpt lat="42.5744083" lon="13.3215483"><ele>1298.0</ele><time>2026-04-04T09:31:09.026Z</time></trkpt><trkpt lat="42.5742617" lon="13.3216033"><ele>1300.0</ele><time>2026-04-04T09:31:10.026Z</time></trkpt><trkpt lat="42.5741117" lon="13.3216717"><ele>1302.0</ele><time>2026-04-04T09:31:11.026Z</time></trkpt><trkpt lat="42.5739533" lon="13.3217433"><ele>1302.0</ele><time>2026-04-04T09:31:12.026Z</time></trkpt><trkpt lat="42.5737933" lon="13.32181"><ele>1302.0</ele><time>2026-04-04T09:31:13.026Z</time></trkpt><trkpt lat="42.5736383" lon="13.3218617"><ele>1302.0</ele><time>2026-04-04T09:31:14.026Z</time></trkpt><trkpt lat="42.573485" lon="13.321935"><ele>1302.0</ele><time>2026-04-04T09:31:15.025Z</time></trkpt><trkpt lat="42.5733467" lon="13.32203"><ele>1302.0</ele><time>2026-04-04T09:31:16.026Z</time></trkpt><trkpt lat="42.5732233" lon="13.3221417"><ele>1302.0</ele><time>2026-04-04T09:31:17.026Z</time></trkpt><trkpt lat="42.573135" lon="13.32228"><ele>1302.0</ele><time>2026-04-04T09:31:18.026Z</time></trkpt><trkpt lat="42.5730917" lon="13.3224467"><ele>1302.5</ele><time>2026-04-04T09:31:19.025Z</time></trkpt><trkpt lat="42.57307" lon="13.3226267"><ele>1303.0</ele><time>2026-04-04T09:31:20.026Z</time></trkpt><trkpt lat="42.5730483" lon="13.322815"><ele>1303.5</ele><time>2026-04-04T09:31:21.026Z</time></trkpt><trkpt lat="42.5730333" lon="13.32301"><ele>1304.0</ele><time>2026-04-04T09:31:22.026Z</time></trkpt><trkpt lat="42.5729933" lon="13.3231917"><ele>1305.0</ele><time>2026-04-04T09:31:23.026Z</time></trkpt><trkpt lat="42.5729433" lon="13.323365"><ele>1306.0</ele><time>2026-04-04T09:31:24.026Z</time></trkpt><trkpt lat="42.572875" lon="13.3235333"><ele>1307.0</ele><time>2026-04-04T09:31:25.026Z</time></trkpt><trkpt lat="42.5727767" lon="13.3236833"><ele>1308.0</ele><time>2026-04-04T09:31:26.026Z</time></trkpt><trkpt lat="42.5726533" lon="13.3238183"><ele>1306.0</ele><time>2026-04-04T09:31:27.026Z</time></trkpt><trkpt lat="42.57252" lon="13.32395"><ele>1304.0</ele><time>2026-04-04T09:31:28.026Z</time></trkpt><trkpt lat="42.57239" lon="13.3240717"><ele>1302.0</ele><time>2026-04-04T09:31:29.026Z</time></trkpt><trkpt lat="42.5722517" lon="13.3241983"><ele>1302.0</ele><time>2026-04-04T09:31:30.026Z</time></trkpt><trkpt lat="42.5721183" lon="13.3243267"><ele>1302.0</ele><time>2026-04-04T09:31:31.026Z</time></trkpt><trkpt lat="42.57199" lon="13.3244483"><ele>1302.0</ele><time>2026-04-04T09:31:32.026Z</time></trkpt><trkpt lat="42.5718733" lon="13.3245667"><ele>1302.5</ele><time>2026-04-04T09:31:33.026Z</time></trkpt><trkpt lat="42.5717533" lon="13.3246817"><ele>1303.0</ele><time>2026-04-04T09:31:34.025Z</time></trkpt><trkpt lat="42.57162" lon="13.32478"><ele>1303.5</ele><time>2026-04-04T09:31:35.026Z</time></trkpt><trkpt lat="42.5714917" lon="13.3248533"><ele>1304.0</ele><time>2026-04-04T09:31:36.026Z</time></trkpt><trkpt lat="42.5713533" lon="13.3249"><ele>1304.0</ele><time>2026-04-04T09:31:37.026Z</time></trkpt><trkpt lat="42.57121" lon="13.3248983"><ele>1304.0</ele><time>2026-04-04T09:31:38.026Z</time></trkpt><trkpt lat="42.5710617" lon="13.32488"><ele>1304.0</ele><time>2026-04-04T09:31:39.026Z</time></trkpt><trkpt lat="42.5709067" lon="13.32487"><ele>1304.0</ele><time>2026-04-04T09:31:40.026Z</time></trkpt><trkpt lat="42.5707567" lon="13.3248667"><ele>1304.6666666666667</ele><time>2026-04-04T09:31:41.026Z</time></trkpt><trkpt lat="42.5706067" lon="13.3249133"><ele>1305.3333333333333</ele><time>2026-04-04T09:31:42.026Z</time></trkpt><trkpt lat="42.5704717" lon="13.324995"><ele>1306.0</ele><time>2026-04-04T09:31:43.026Z</time></trkpt><trkpt lat="42.5703367" lon="13.3251067"><ele>1306.0</ele><time>2026-04-04T09:31:44.025Z</time></trkpt><trkpt lat="42.57022" lon="13.3252367"><ele>1306.0</ele><time>2026-04-04T09:31:45.026Z</time></trkpt><trkpt lat="42.570125" lon="13.325375"><ele>1306.0</ele><time>2026-04-04T09:31:46.026Z</time></trkpt><trkpt lat="42.5700317" lon="13.3255167"><ele>1306.0</ele><time>2026-04-04T09:31:47.026Z</time></trkpt><trkpt lat="42.5699383" lon="13.3256617"><ele>1306.75</ele><time>2026-04-04T09:31:48.025Z</time></trkpt><trkpt lat="42.5698367" lon="13.3257967"><ele>1307.5</ele><time>2026-04-04T09:31:49.026Z</time></trkpt><trkpt lat="42.5697233" lon="13.32591"><ele>1308.25</ele><time>2026-04-04T09:31:50.026Z</time></trkpt><trkpt lat="42.56961" lon="13.3259933"><ele>1309.0</ele><time>2026-04-04T09:31:51.026Z</time></trkpt><trkpt lat="42.5694967" lon="13.326055"><ele>1309.25</ele><time>2026-04-04T09:31:52.026Z</time></trkpt><trkpt lat="42.5693833" lon="13.3260817"><ele>1309.5</ele><time>2026-04-04T09:31:53.026Z</time></trkpt><trkpt lat="42.56927" lon="13.3260767"><ele>1309.75</ele><time>2026-04-04T09:31:54.026Z</time></trkpt><trkpt lat="42.5691267" lon="13.3260233"><ele>1310.0</ele><time>2026-04-04T09:31:55.026Z</time></trkpt><trkpt lat="42.56899" lon="13.32596"><ele>1310.0</ele><time>2026-04-04T09:31:56.026Z</time></trkpt><trkpt lat="42.5688433" lon="13.3258967"><ele>1310.0</ele><time>2026-04-04T09:31:57.026Z</time></trkpt><trkpt lat="42.5687" lon="13.325825"><ele>1310.0</ele><time>2026-04-04T09:31:58.026Z</time></trkpt><trkpt lat="42.56856" lon="13.3257667"><ele>1308.6666666666667</ele><time>2026-04-04T09:31:59.026Z</time></trkpt><trkpt lat="42.5684183" lon="13.3257333"><ele>1307.3333333333333</ele><time>2026-04-04T09:32:00.025Z</time></trkpt><trkpt lat="42.5682667" lon="13.3257367"><ele>1306.0</ele><time>2026-04-04T09:32:01.026Z</time></trkpt><trkpt lat="42.5681117" lon="13.32577"><ele>1306.0</ele><time>2026-04-04T09:32:02.026Z</time></trkpt><trkpt lat="42.5679483" lon="13.3258183"><ele>1306.0</ele><time>2026-04-04T09:32:03.026Z</time></trkpt><trkpt lat="42.56779" lon="13.32587"><ele>1306.0</ele><time>2026-04-04T09:32:04.025Z</time></trkpt><trkpt lat="42.5676333" lon="13.3259417"><ele>1305.0</ele><time>2026-04-04T09:32:05.026Z</time></trkpt><trkpt lat="42.5674783" lon="13.3260333"><ele>1304.0</ele><time>2026-04-04T09:32:06.026Z</time></trkpt><trkpt lat="42.5673367" lon="13.3261467"><ele>1303.0</ele><time>2026-04-04T09:32:07.026Z</time></trkpt><trkpt lat="42.56721" lon="13.3262767"><ele>1303.3333333333333</ele><time>2026-04-04T09:32:08.026Z</time></trkpt><trkpt lat="42.5670833" lon="13.3264183"><ele>1303.6666666666667</ele><time>2026-04-04T09:32:09.026Z</time></trkpt><trkpt lat="42.5669367" lon="13.3265717"><ele>1304.0</ele><time>2026-04-04T09:32:10.026Z</time></trkpt><trkpt lat="42.5667917" lon="13.326695"><ele>1304.0</ele><time>2026-04-04T09:32:11.025Z</time></trkpt><trkpt lat="42.5666433" lon="13.3267917"><ele>1304.0</ele><time>2026-04-04T09:32:12.025Z</time></trkpt><trkpt lat="42.5664983" lon="13.3268433"><ele>1304.0</ele><time>2026-04-04T09:32:13.026Z</time></trkpt><trkpt lat="42.5663467" lon="13.32687"><ele>1304.0</ele><time>2026-04-04T09:32:14.026Z</time></trkpt><trkpt lat="42.5661917" lon="13.3268833"><ele>1304.0</ele><time>2026-04-04T09:32:15.026Z</time></trkpt><trkpt lat="42.5660383" lon="13.3268917"><ele>1304.0</ele><time>2026-04-04T09:32:16.026Z</time></trkpt><trkpt lat="42.5659033" lon="13.3268983"><ele>1304.0</ele><time>2026-04-04T09:32:17.026Z</time></trkpt><trkpt lat="42.5657717" lon="13.3269033"><ele>1304.0</ele><time>2026-04-04T09:32:18.026Z</time></trkpt><trkpt lat="42.565645" lon="13.3269467"><ele>1304.0</ele><time>2026-04-04T09:32:19.026Z</time></trkpt><trkpt lat="42.5655267" lon="13.3270167"><ele>1304.0</ele><time>2026-04-04T09:32:20.026Z</time></trkpt><trkpt lat="42.5654217" lon="13.3270867"><ele>1304.0</ele><time>2026-04-04T09:32:21.026Z</time></trkpt><trkpt lat="42.5653283" lon="13.3271717"><ele>1304.75</ele><time>2026-04-04T09:32:22.026Z</time></trkpt><trkpt lat="42.56524" lon="13.3272767"><ele>1305.5</ele><time>2026-04-04T09:32:23.026Z</time></trkpt><trkpt lat="42.5651617" lon="13.3274"><ele>1306.25</ele><time>2026-04-04T09:32:24.026Z</time></trkpt><trkpt lat="42.5650817" lon="13.3275167"><ele>1307.0</ele><time>2026-04-04T09:32:25.026Z</time></trkpt><trkpt lat="42.5649933" lon="13.3276167"><ele>1307.0</ele><time>2026-04-04T09:32:26.026Z</time></trkpt><trkpt lat="42.5649" lon="13.3277017"><ele>1307.0</ele><time>2026-04-04T09:32:27.026Z</time></trkpt><trkpt lat="42.5648117" lon="13.3277583"><ele>1307.0</ele><time>2026-04-04T09:32:28.026Z</time></trkpt><trkpt lat="42.5647367" lon="13.3278017"><ele>1307.0</ele><time>2026-04-04T09:32:29.026Z</time></trkpt><trkpt lat="42.5646617" lon="13.3278283"><ele>1307.0</ele><time>2026-04-04T09:32:30.026Z</time></trkpt><trkpt lat="42.564575" lon="13.32785"><ele>1306.1666666666667</ele><time>2026-04-04T09:32:31.026Z</time></trkpt><trkpt lat="42.5644933" lon="13.3278683"><ele>1305.3333333333335</ele><time>2026-04-04T09:32:32.026Z</time></trkpt><trkpt lat="42.5644133" lon="13.3278883"><ele>1304.5</ele><time>2026-04-04T09:32:33.026Z</time></trkpt><trkpt lat="42.5643317" lon="13.3279283"><ele>1303.6666666666667</ele><time>2026-04-04T09:32:34.026Z</time></trkpt><trkpt lat="42.564245" lon="13.327975"><ele>1302.8333333333333</ele><time>2026-04-04T09:32:35.026Z</time></trkpt><trkpt lat="42.564165" lon="13.3280133"><ele>1302.0</ele><time>2026-04-04T09:32:36.026Z</time></trkpt><trkpt lat="42.5640933" lon="13.3280533"><ele>1302.0</ele><time>2026-04-04T09:32:37.026Z</time></trkpt><trkpt lat="42.5640233" lon="13.3280867"><ele>1302.0</ele><time>2026-04-04T09:32:38.026Z</time></trkpt><trkpt lat="42.5639617" lon="13.328115"><ele>1302.0</ele><time>2026-04-04T09:32:39.026Z</time></trkpt><trkpt lat="42.5638983" lon="13.3281383"><ele>1302.0</ele><time>2026-04-04T09:32:40.026Z</time></trkpt><trkpt lat="42.56378" lon="13.3281"><ele>1302.0</ele><time>2026-04-04T09:32:42.026Z</time></trkpt><trkpt lat="42.56371" lon="13.328035"><ele>1302.0</ele><time>2026-04-04T09:32:43.026Z</time></trkpt><trkpt lat="42.5636333" lon="13.3279583"><ele>1301.3999999999999</ele><time>2026-04-04T09:32:44.026Z</time></trkpt><trkpt lat="42.563555" lon="13.3278767"><ele>1300.8</ele><time>2026-04-04T09:32:45.025Z</time></trkpt><trkpt lat="42.5634817" lon="13.3277867"><ele>1300.2</ele><time>2026-04-04T09:32:46.026Z</time></trkpt><trkpt lat="42.5634017" lon="13.327705"><ele>1299.6</ele><time>2026-04-04T09:32:47.026Z</time></trkpt><trkpt lat="42.5633" lon="13.32762"><ele>1299.0</ele><time>2026-04-04T09:32:48.026Z</time></trkpt><trkpt lat="42.5632033" lon="13.3275333"><ele>1299.0</ele><time>2026-04-04T09:32:49.026Z</time></trkpt><trkpt lat="42.56309" lon="13.3274517"><ele>1299.0</ele><time>2026-04-04T09:32:50.026Z</time></trkpt><trkpt lat="42.5629917" lon="13.327355"><ele>1299.0</ele><time>2026-04-04T09:32:51.026Z</time></trkpt><trkpt lat="42.5628883" lon="13.3272667"><ele>1299.0</ele><time>2026-04-04T09:32:52.026Z</time></trkpt><trkpt lat="42.5627883" lon="13.3271667"><ele>1298.5</ele><time>2026-04-04T09:32:53.026Z</time></trkpt><trkpt lat="42.5626867" lon="13.3270733"><ele>1298.0</ele><time>2026-04-04T09:32:54.026Z</time></trkpt><trkpt lat="42.56258" lon="13.3269867"><ele>1297.5</ele><time>2026-04-04T09:32:55.026Z</time></trkpt><trkpt lat="42.5624833" lon="13.3268967"><ele>1297.0</ele><time>2026-04-04T09:32:56.026Z</time></trkpt><trkpt lat="42.5623933" lon="13.32681"><ele>1297.0</ele><time>2026-04-04T09:32:57.026Z</time></trkpt><trkpt lat="42.5622983" lon="13.3267217"><ele>1297.0</ele><time>2026-04-04T09:32:58.026Z</time></trkpt><trkpt lat="42.562195" lon="13.3266583"><ele>1297.0</ele><time>2026-04-04T09:32:59.026Z</time></trkpt><trkpt lat="42.5620817" lon="13.326605"><ele>1297.0</ele><time>2026-04-04T09:33:00.026Z</time></trkpt><trkpt lat="42.5619667" lon="13.326565"><ele>1297.75</ele><time>2026-04-04T09:33:01.026Z</time></trkpt><trkpt lat="42.56185" lon="13.3265483"><ele>1298.5</ele><time>2026-04-04T09:33:02.026Z</time></trkpt><trkpt lat="42.5617333" lon="13.3265517"><ele>1299.25</ele><time>2026-04-04T09:33:03.026Z</time></trkpt><trkpt lat="42.561615" lon="13.3265567"><ele>1300.0</ele><time>2026-04-04T09:33:04.026Z</time></trkpt><trkpt lat="42.5615017" lon="13.3265633"><ele>1300.0</ele><time>2026-04-04T09:33:05.026Z</time></trkpt><trkpt lat="42.5613983" lon="13.32658"><ele>1300.0</ele><time>2026-04-04T09:33:06.026Z</time></trkpt><trkpt lat="42.5613033" lon="13.3265983"><ele>1300.0</ele><time>2026-04-04T09:33:07.026Z</time></trkpt><trkpt lat="42.5612133" lon="13.32662"><ele>1300.0</ele><time>2026-04-04T09:33:08.026Z</time></trkpt><trkpt lat="42.5611233" lon="13.326645"><ele>1300.0</ele><time>2026-04-04T09:33:09.026Z</time></trkpt><trkpt lat="42.5610283" lon="13.326675"><ele>1300.6</ele><time>2026-04-04T09:33:10.026Z</time></trkpt><trkpt lat="42.5609367" lon="13.3267083"><ele>1301.2</ele><time>2026-04-04T09:33:11.026Z</time></trkpt><trkpt lat="42.560845" lon="13.3267467"><ele>1301.8000000000002</ele><time>2026-04-04T09:33:12.025Z</time></trkpt><trkpt lat="42.560755" lon="13.326785"><ele>1302.4</ele><time>2026-04-04T09:33:13.026Z</time></trkpt><trkpt lat="42.560665" lon="13.3268267"><ele>1303.0</ele><time>2026-04-04T09:33:14.025Z</time></trkpt><trkpt lat="42.5605867" lon="13.3268917"><ele>1303.0</ele><time>2026-04-04T09:33:15.026Z</time></trkpt><trkpt lat="42.5605183" lon="13.3269683"><ele>1303.0</ele><time>2026-04-04T09:33:16.026Z</time></trkpt><trkpt lat="42.5604717" lon="13.327065"><ele>1303.0</ele><time>2026-04-04T09:33:17.026Z</time></trkpt><trkpt lat="42.5604317" lon="13.3271783"><ele>1303.0</ele><time>2026-04-04T09:33:18.026Z</time></trkpt><trkpt lat="42.5603867" lon="13.3272783"><ele>1303.0</ele><time>2026-04-04T09:33:19.026Z</time></trkpt><trkpt lat="42.5603367" lon="13.3273733"><ele>1303.0</ele><time>2026-04-04T09:33:20.026Z</time></trkpt><trkpt lat="42.5602667" lon="13.3274383"><ele>1303.2</ele><time>2026-04-04T09:33:21.026Z</time></trkpt><trkpt lat="42.5601783" lon="13.3274917"><ele>1303.4</ele><time>2026-04-04T09:33:22.026Z</time></trkpt><trkpt lat="42.5600833" lon="13.3275517"><ele>1303.6000000000001</ele><time>2026-04-04T09:33:23.025Z</time></trkpt><trkpt lat="42.5599883" lon="13.3276117"><ele>1303.8000000000002</ele><time>2026-04-04T09:33:24.026Z</time></trkpt><trkpt lat="42.5598883" lon="13.32769"><ele>1304.0</ele><time>2026-04-04T09:33:25.026Z</time></trkpt><trkpt lat="42.5598033" lon="13.327775"><ele>1304.0</ele><time>2026-04-04T09:33:26.026Z</time></trkpt><trkpt lat="42.5597133" lon="13.32786"><ele>1304.0</ele><time>2026-04-04T09:33:27.026Z</time></trkpt><trkpt lat="42.5596233" lon="13.3279517"><ele>1304.0</ele><time>2026-04-04T09:33:28.026Z</time></trkpt><trkpt lat="42.55954" lon="13.3280383"><ele>1304.0</ele><time>2026-04-04T09:33:29.026Z</time></trkpt><trkpt lat="42.55946" lon="13.3281217"><ele>1304.0</ele><time>2026-04-04T09:33:30.026Z</time></trkpt><trkpt lat="42.55939" lon="13.3282017"><ele>1303.8333333333335</ele><time>2026-04-04T09:33:31.026Z</time></trkpt><trkpt lat="42.559315" lon="13.3282717"><ele>1303.6666666666667</ele><time>2026-04-04T09:33:32.026Z</time></trkpt><trkpt lat="42.559235" lon="13.3283283"><ele>1303.5</ele><time>2026-04-04T09:33:33.026Z</time></trkpt><trkpt lat="42.55917" lon="13.328405"><ele>1303.3333333333333</ele><time>2026-04-04T09:33:34.026Z</time></trkpt><trkpt lat="42.5591217" lon="13.3284883"><ele>1303.1666666666665</ele><time>2026-04-04T09:33:35.026Z</time></trkpt><trkpt lat="42.5590983" lon="13.32857"><ele>1303.0</ele><time>2026-04-04T09:33:36.025Z</time></trkpt><trkpt lat="42.5591183" lon="13.3287383"><ele>1303.0</ele><time>2026-04-04T09:33:38.025Z</time></trkpt><trkpt lat="42.55916" lon="13.328825"><ele>1303.0</ele><time>2026-04-04T09:33:39.026Z</time></trkpt><trkpt lat="42.5592117" lon="13.3289133"><ele>1303.0</ele><time>2026-04-04T09:33:40.026Z</time></trkpt><trkpt lat="42.5592667" lon="13.3290067"><ele>1303.0</ele><time>2026-04-04T09:33:41.026Z</time></trkpt><trkpt lat="42.5593383" lon="13.3291083"><ele>1303.0</ele><time>2026-04-04T09:33:42.026Z</time></trkpt><trkpt lat="42.559415" lon="13.32922"><ele>1302.8000000000002</ele><time>2026-04-04T09:33:43.026Z</time></trkpt><trkpt lat="42.5594833" lon="13.3293317"><ele>1302.6</ele><time>2026-04-04T09:33:44.026Z</time></trkpt><trkpt lat="42.5595517" lon="13.32946"><ele>1302.4</ele><time>2026-04-04T09:33:45.026Z</time></trkpt><trkpt lat="42.5596083" lon="13.3295817"><ele>1302.1999999999998</ele><time>2026-04-04T09:33:46.026Z</time></trkpt><trkpt lat="42.55965" lon="13.3297183"><ele>1302.0</ele><time>2026-04-04T09:33:47.026Z</time></trkpt><trkpt lat="42.55966" lon="13.3298683"><ele>1302.0</ele><time>2026-04-04T09:33:48.025Z</time></trkpt><trkpt lat="42.5596517" lon="13.3300033"><ele>1302.0</ele><time>2026-04-04T09:33:49.026Z</time></trkpt><trkpt lat="42.5596283" lon="13.330135"><ele>1302.0</ele><time>2026-04-04T09:33:50.026Z</time></trkpt><trkpt lat="42.5595733" lon="13.3302767"><ele>1302.0</ele><time>2026-04-04T09:33:51.026Z</time></trkpt><trkpt lat="42.55951" lon="13.3304133"><ele>1302.0</ele><time>2026-04-04T09:33:52.026Z</time></trkpt><trkpt lat="42.55945" lon="13.3305533"><ele>1301.5</ele><time>2026-04-04T09:33:53.026Z</time></trkpt><trkpt lat="42.5594" lon="13.3307017"><ele>1301.0</ele><time>2026-04-04T09:33:54.026Z</time></trkpt><trkpt lat="42.55936" lon="13.330865"><ele>1300.5</ele><time>2026-04-04T09:33:55.026Z</time></trkpt><trkpt lat="42.55933" lon="13.3310467"><ele>1300.0</ele><time>2026-04-04T09:33:56.026Z</time></trkpt><trkpt lat="42.5593117" lon="13.331235"><ele>1300.5</ele><time>2026-04-04T09:33:57.026Z</time></trkpt><trkpt lat="42.559295" lon="13.331425"><ele>1301.0</ele><time>2026-04-04T09:33:58.025Z</time></trkpt><trkpt lat="42.5592917" lon="13.3316117"><ele>1301.5</ele><time>2026-04-04T09:33:59.026Z</time></trkpt><trkpt lat="42.5592867" lon="13.331805"><ele>1302.0</ele><time>2026-04-04T09:34:00.026Z</time></trkpt><trkpt lat="42.55928" lon="13.3319967"><ele>1302.0</ele><time>2026-04-04T09:34:01.026Z</time></trkpt><trkpt lat="42.5592817" lon="13.3322017"><ele>1302.0</ele><time>2026-04-04T09:34:02.026Z</time></trkpt><trkpt lat="42.5592783" lon="13.3324133"><ele>1302.0</ele><time>2026-04-04T09:34:03.026Z</time></trkpt><trkpt lat="42.5592733" lon="13.3326283"><ele>1303.0</ele><time>2026-04-04T09:34:04.026Z</time></trkpt><trkpt lat="42.5592667" lon="13.3328433"><ele>1304.0</ele><time>2026-04-04T09:34:05.026Z</time></trkpt><trkpt lat="42.5592683" lon="13.33306"><ele>1305.0</ele><time>2026-04-04T09:34:06.026Z</time></trkpt><trkpt lat="42.5592717" lon="13.3332783"><ele>1305.6666666666667</ele><time>2026-04-04T09:34:07.026Z</time></trkpt><trkpt lat="42.5592833" lon="13.3334867"><ele>1306.3333333333335</ele><time>2026-04-04T09:34:08.026Z</time></trkpt><trkpt lat="42.5592883" lon="13.333695"><ele>1307.0</ele><time>2026-04-04T09:34:09.026Z</time></trkpt><trkpt lat="42.5592817" lon="13.3339033"><ele>1308.5</ele><time>2026-04-04T09:34:10.026Z</time></trkpt><trkpt lat="42.5592567" lon="13.3341183"><ele>1310.0</ele><time>2026-04-04T09:34:11.026Z</time></trkpt><trkpt lat="42.5592367" lon="13.334315"><ele>1311.5</ele><time>2026-04-04T09:34:12.026Z</time></trkpt><trkpt lat="42.5592183" lon="13.3345"><ele>1313.0</ele><time>2026-04-04T09:34:13.026Z</time></trkpt><trkpt lat="42.5591883" lon="13.3347033"><ele>1314.75</ele><time>2026-04-04T09:34:14.026Z</time></trkpt><trkpt lat="42.559155" lon="13.33489"><ele>1316.5</ele><time>2026-04-04T09:34:15.026Z</time></trkpt><trkpt lat="42.55913" lon="13.335065"><ele>1318.25</ele><time>2026-04-04T09:34:16.026Z</time></trkpt><trkpt lat="42.559095" lon="13.33524"><ele>1320.0</ele><time>2026-04-04T09:34:17.026Z</time></trkpt><trkpt lat="42.55905" lon="13.33542"><ele>1321.5</ele><time>2026-04-04T09:34:18.025Z</time></trkpt><trkpt lat="42.5590083" lon="13.3355917"><ele>1323.0</ele><time>2026-04-04T09:34:19.026Z</time></trkpt><trkpt lat="42.5589667" lon="13.3357633"><ele>1324.5</ele><time>2026-04-04T09:34:20.026Z</time></trkpt><trkpt lat="42.5589233" lon="13.33593"><ele>1326.0</ele><time>2026-04-04T09:34:21.026Z</time></trkpt><trkpt lat="42.558895" lon="13.3360833"><ele>1326.0</ele><time>2026-04-04T09:34:22.026Z</time></trkpt><trkpt lat="42.5588733" lon="13.3362383"><ele>1326.0</ele><time>2026-04-04T09:34:23.026Z</time></trkpt><trkpt lat="42.5588683" lon="13.3363933"><ele>1326.0</ele><time>2026-04-04T09:34:24.025Z</time></trkpt><trkpt lat="42.5588933" lon="13.3365717"><ele>1326.0</ele><time>2026-04-04T09:34:25.026Z</time></trkpt><trkpt lat="42.5589317" lon="13.3367283"><ele>1325.5</ele><time>2026-04-04T09:34:26.026Z</time></trkpt><trkpt lat="42.5589833" lon="13.3368717"><ele>1325.0</ele><time>2026-04-04T09:34:27.026Z</time></trkpt><trkpt lat="42.5590233" lon="13.3370117"><ele>1324.5</ele><time>2026-04-04T09:34:28.026Z</time></trkpt><trkpt lat="42.5590717" lon="13.33714"><ele>1324.0</ele><time>2026-04-04T09:34:29.026Z</time></trkpt><trkpt lat="42.5591117" lon="13.33729"><ele>1324.0</ele><time>2026-04-04T09:34:30.026Z</time></trkpt><trkpt lat="42.55914" lon="13.337455"><ele>1324.0</ele><time>2026-04-04T09:34:31.026Z</time></trkpt><trkpt lat="42.5591583" lon="13.3376217"><ele>1324.0</ele><time>2026-04-04T09:34:32.026Z</time></trkpt><trkpt lat="42.5591583" lon="13.33779"><ele>1324.0</ele><time>2026-04-04T09:34:33.026Z</time></trkpt><trkpt lat="42.559135" lon="13.3379517"><ele>1325.0</ele><time>2026-04-04T09:34:34.026Z</time></trkpt><trkpt lat="42.5590883" lon="13.3381183"><ele>1326.0</ele><time>2026-04-04T09:34:35.026Z</time></trkpt><trkpt lat="42.5590367" lon="13.3382683"><ele>1327.0</ele><time>2026-04-04T09:34:36.026Z</time></trkpt><trkpt lat="42.558975" lon="13.338385"><ele>1328.0</ele><time>2026-04-04T09:34:37.026Z</time></trkpt><trkpt lat="42.55889" lon="13.3384933"><ele>1328.0</ele><time>2026-04-04T09:34:38.025Z</time></trkpt><trkpt lat="42.558795" lon="13.3385817"><ele>1328.0</ele><time>2026-04-04T09:34:39.026Z</time></trkpt><trkpt lat="42.5586983" lon="13.3386533"><ele>1328.0</ele><time>2026-04-04T09:34:40.026Z</time></trkpt><trkpt lat="42.5586083" lon="13.3387233"><ele>1328.0</ele><time>2026-04-04T09:34:41.026Z</time></trkpt><trkpt lat="42.558535" lon="13.3388067"><ele>1328.0</ele><time>2026-04-04T09:34:42.026Z</time></trkpt><trkpt lat="42.5584767" lon="13.3389017"><ele>1327.8333333333335</ele><time>2026-04-04T09:34:43.026Z</time></trkpt><trkpt lat="42.5584267" lon="13.3390167"><ele>1327.6666666666667</ele><time>2026-04-04T09:34:44.026Z</time></trkpt><trkpt lat="42.558395" lon="13.339135"><ele>1327.5</ele><time>2026-04-04T09:34:45.026Z</time></trkpt><trkpt lat="42.558375" lon="13.339245"><ele>1327.3333333333333</ele><time>2026-04-04T09:34:46.025Z</time></trkpt><trkpt lat="42.5583633" lon="13.3393483"><ele>1327.1666666666665</ele><time>2026-04-04T09:34:47.026Z</time></trkpt><trkpt lat="42.5583717" lon="13.3394333"><ele>1327.0</ele><time>2026-04-04T09:34:48.026Z</time></trkpt><trkpt lat="42.5583883" lon="13.3395283"><ele>1327.0</ele><time>2026-04-04T09:34:49.026Z</time></trkpt><trkpt lat="42.5584133" lon="13.3396217"><ele>1327.0</ele><time>2026-04-04T09:34:50.026Z</time></trkpt><trkpt lat="42.5584317" lon="13.3397317"><ele>1327.0</ele><time>2026-04-04T09:34:51.026Z</time></trkpt><trkpt lat="42.5584583" lon="13.339845"><ele>1327.0</ele><time>2026-04-04T09:34:52.026Z</time></trkpt><trkpt lat="42.5584833" lon="13.3399617"><ele>1327.0</ele><time>2026-04-04T09:34:53.026Z</time></trkpt><trkpt lat="42.5584983" lon="13.3400767"><ele>1327.0</ele><time>2026-04-04T09:34:54.026Z</time></trkpt><trkpt lat="42.5584983" lon="13.340195"><ele>1327.3999999999999</ele><time>2026-04-04T09:34:55.026Z</time></trkpt><trkpt lat="42.5584783" lon="13.340305"><ele>1327.8</ele><time>2026-04-04T09:34:56.026Z</time></trkpt><trkpt lat="42.558435" lon="13.34041"><ele>1328.2</ele><time>2026-04-04T09:34:57.026Z</time></trkpt><trkpt lat="42.55836" lon="13.3405133"><ele>1328.6</ele><time>2026-04-04T09:34:58.026Z</time></trkpt><trkpt lat="42.5582717" lon="13.3406083"><ele>1329.0</ele><time>2026-04-04T09:34:59.026Z</time></trkpt><trkpt lat="42.55818" lon="13.3406933"><ele>1330.3333333333333</ele><time>2026-04-04T09:35:00.026Z</time></trkpt><trkpt lat="42.5580867" lon="13.34077"><ele>1331.6666666666667</ele><time>2026-04-04T09:35:01.026Z</time></trkpt><trkpt lat="42.5580067" lon="13.3408383"><ele>1333.0</ele><time>2026-04-04T09:35:02.026Z</time></trkpt><trkpt lat="42.5579383" lon="13.3409067"><ele>1334.3333333333335</ele><time>2026-04-04T09:35:03.026Z</time></trkpt><trkpt lat="42.5578817" lon="13.340975"><ele>1335.6666666666667</ele><time>2026-04-04T09:35:04.026Z</time></trkpt><trkpt lat="42.5578367" lon="13.3410433"><ele>1337.0</ele><time>2026-04-04T09:35:05.026Z</time></trkpt><trkpt lat="42.557795" lon="13.34112"><ele>1335.3333333333335</ele><time>2026-04-04T09:35:06.026Z</time></trkpt><trkpt lat="42.5577633" lon="13.3411967"><ele>1333.6666666666667</ele><time>2026-04-04T09:35:07.026Z</time></trkpt><trkpt lat="42.557735" lon="13.3412833"><ele>1332.0</ele><time>2026-04-04T09:35:08.025Z</time></trkpt><trkpt lat="42.5577133" lon="13.3413867"><ele>1330.3333333333333</ele><time>2026-04-04T09:35:09.026Z</time></trkpt><trkpt lat="42.5576933" lon="13.3415017"><ele>1328.6666666666665</ele><time>2026-04-04T09:35:10.026Z</time></trkpt><trkpt lat="42.5576717" lon="13.34163"><ele>1327.0</ele><time>2026-04-04T09:35:11.025Z</time></trkpt><trkpt lat="42.55765" lon="13.341755"><ele>1327.0</ele><time>2026-04-04T09:35:12.026Z</time></trkpt><trkpt lat="42.5576267" lon="13.3418817"><ele>1327.0</ele><time>2026-04-04T09:35:13.026Z</time></trkpt><trkpt lat="42.557605" lon="13.342005"><ele>1327.0</ele><time>2026-04-04T09:35:14.026Z</time></trkpt><trkpt lat="42.5575867" lon="13.3421217"><ele>1327.0</ele><time>2026-04-04T09:35:15.026Z</time></trkpt><trkpt lat="42.5575767" lon="13.34223"><ele>1327.0</ele><time>2026-04-04T09:35:16.026Z</time></trkpt><trkpt lat="42.5575617" lon="13.34234"><ele>1327.0</ele><time>2026-04-04T09:35:17.026Z</time></trkpt><trkpt lat="42.557545" lon="13.3424433"><ele>1327.3333333333333</ele><time>2026-04-04T09:35:18.026Z</time></trkpt><trkpt lat="42.55753" lon="13.34254"><ele>1327.6666666666665</ele><time>2026-04-04T09:35:19.026Z</time></trkpt><trkpt lat="42.557515" lon="13.3426267"><ele>1328.0</ele><time>2026-04-04T09:35:20.025Z</time></trkpt><trkpt lat="42.5574967" lon="13.3427717"><ele>1328.3333333333333</ele><time>2026-04-04T09:35:22.026Z</time></trkpt><trkpt lat="42.5574917" lon="13.3428733"><ele>1328.6666666666667</ele><time>2026-04-04T09:35:24.026Z</time></trkpt><trkpt lat="42.5574983" lon="13.343"><ele>1329.0</ele><time>2026-04-04T09:35:26.026Z</time></trkpt><trkpt lat="42.557505" lon="13.34312"><ele>1329.0</ele><time>2026-04-04T09:35:28.026Z</time></trkpt></trkseg><trkseg><trkpt lat="42.557565" lon="13.3432917"><ele>1329.0</ele><time>2026-04-04T09:55:27.026Z</time></trkpt><trkpt lat="42.5576" lon="13.3434"><ele>1329.0</ele><time>2026-04-04T09:55:29.027Z</time></trkpt><trkpt lat="42.557635" lon="13.34355"><ele>1329.0</ele><time>2026-04-04T09:55:31.027Z</time></trkpt><trkpt lat="42.5576817" lon="13.3437"><ele>1329.0</ele><time>2026-04-04T09:55:33.027Z</time></trkpt><trkpt lat="42.5577417" lon="13.3438467"><ele>1329.0</ele><time>2026-04-04T09:55:35.027Z</time></trkpt><trkpt lat="42.5578117" lon="13.343985"><ele>1328.8333333333333</ele><time>2026-04-04T09:55:37.026Z</time></trkpt><trkpt lat="42.5578567" lon="13.3440483"><ele>1328.6666666666667</ele><time>2026-04-04T09:55:38.027Z</time></trkpt><trkpt lat="42.5579067" lon="13.3441083"><ele>1328.5</ele><time>2026-04-04T09:55:39.027Z</time></trkpt><trkpt lat="42.5579967" lon="13.344215"><ele>1328.3333333333335</ele><time>2026-04-04T09:55:41.027Z</time></trkpt><trkpt lat="42.5581183" lon="13.344255"><ele>1328.1666666666667</ele><time>2026-04-04T09:55:43.027Z</time></trkpt><trkpt lat="42.5581833" lon="13.3442567"><ele>1328.0</ele><time>2026-04-04T09:55:44.027Z</time></trkpt><trkpt lat="42.5582517" lon="13.3442483"><ele>1328.0</ele><time>2026-04-04T09:55:45.027Z</time></trkpt><trkpt lat="42.5583283" lon="13.344235"><ele>1328.0</ele><time>2026-04-04T09:55:46.027Z</time></trkpt><trkpt lat="42.5583983" lon="13.3442133"><ele>1328.0</ele><time>2026-04-04T09:55:47.027Z</time></trkpt><trkpt lat="42.5584717" lon="13.344185"><ele>1328.0</ele><time>2026-04-04T09:55:48.027Z</time></trkpt><trkpt lat="42.5585417" lon="13.3441517"><ele>1328.0</ele><time>2026-04-04T09:55:49.027Z</time></trkpt><trkpt lat="42.5586217" lon="13.3441067"><ele>1328.0</ele><time>2026-04-04T09:55:50.027Z</time></trkpt><trkpt lat="42.5586883" lon="13.3440717"><ele>1327.5</ele><time>2026-04-04T09:55:51.027Z</time></trkpt><trkpt lat="42.5587617" lon="13.3440283"><ele>1327.0</ele><time>2026-04-04T09:55:52.027Z</time></trkpt><trkpt lat="42.5588333" lon="13.3439917"><ele>1326.5</ele><time>2026-04-04T09:55:53.027Z</time></trkpt><trkpt lat="42.5589117" lon="13.3439517"><ele>1326.0</ele><time>2026-04-04T09:55:54.027Z</time></trkpt><trkpt lat="42.558995" lon="13.3439133"><ele>1325.5</ele><time>2026-04-04T09:55:55.027Z</time></trkpt><trkpt lat="42.5590867" lon="13.3438817"><ele>1325.0</ele><time>2026-04-04T09:55:56.027Z</time></trkpt><trkpt lat="42.55916" lon="13.3438517"><ele>1327.8333333333335</ele><time>2026-04-04T09:55:57.027Z</time></trkpt><trkpt lat="42.5592367" lon="13.3438283"><ele>1330.6666666666667</ele><time>2026-04-04T09:55:58.027Z</time></trkpt><trkpt lat="42.5593167" lon="13.3438067"><ele>1333.5</ele><time>2026-04-04T09:55:59.027Z</time></trkpt><trkpt lat="42.5593933" lon="13.34379"><ele>1336.3333333333333</ele><time>2026-04-04T09:56:00.027Z</time></trkpt><trkpt lat="42.5594717" lon="13.343775"><ele>1339.1666666666665</ele><time>2026-04-04T09:56:01.027Z</time></trkpt><trkpt lat="42.5595533" lon="13.3437617"><ele>1342.0</ele><time>2026-04-04T09:56:02.027Z</time></trkpt><trkpt lat="42.5596367" lon="13.343745"><ele>1342.0</ele><time>2026-04-04T09:56:03.027Z</time></trkpt><trkpt lat="42.5597233" lon="13.34373"><ele>1342.0</ele><time>2026-04-04T09:56:04.027Z</time></trkpt><trkpt lat="42.5598083" lon="13.3437183"><ele>1342.0</ele><time>2026-04-04T09:56:05.027Z</time></trkpt><trkpt lat="42.55989" lon="13.3437033"><ele>1342.0</ele><time>2026-04-04T09:56:06.027Z</time></trkpt><trkpt lat="42.55996" lon="13.343695"><ele>1342.0</ele><time>2026-04-04T09:56:07.027Z</time></trkpt><trkpt lat="42.5600383" lon="13.3436983"><ele>1342.0</ele><time>2026-04-04T09:56:08.027Z</time></trkpt><trkpt lat="42.560125" lon="13.3436883"><ele>1342.0</ele><time>2026-04-04T09:56:09.027Z</time></trkpt><trkpt lat="42.5602167" lon="13.3436733"><ele>1342.0</ele><time>2026-04-04T09:56:10.027Z</time></trkpt><trkpt lat="42.560315" lon="13.34366"><ele>1342.0</ele><time>2026-04-04T09:56:11.027Z</time></trkpt><trkpt lat="42.5604167" lon="13.3436483"><ele>1342.0</ele><time>2026-04-04T09:56:12.027Z</time></trkpt><trkpt lat="42.5605167" lon="13.34364"><ele>1342.0</ele><time>2026-04-04T09:56:13.027Z</time></trkpt><trkpt lat="42.5606317" lon="13.3436283"><ele>1340.75</ele><time>2026-04-04T09:56:14.027Z</time></trkpt><trkpt lat="42.5607483" lon="13.3436067"><ele>1339.5</ele><time>2026-04-04T09:56:15.027Z</time></trkpt><trkpt lat="42.560865" lon="13.34359"><ele>1338.25</ele><time>2026-04-04T09:56:16.027Z</time></trkpt><trkpt lat="42.5609833" lon="13.3435783"><ele>1337.0</ele><time>2026-04-04T09:56:17.027Z</time></trkpt><trkpt lat="42.5611" lon="13.3435817"><ele>1338.5</ele><time>2026-04-04T09:56:18.027Z</time></trkpt><trkpt lat="42.56122" lon="13.3435867"><ele>1340.0</ele><time>2026-04-04T09:56:19.027Z</time></trkpt><trkpt lat="42.5613433" lon="13.34361"><ele>1341.5</ele><time>2026-04-04T09:56:20.027Z</time></trkpt><trkpt lat="42.5614733" lon="13.3436483"><ele>1343.0</ele><time>2026-04-04T09:56:21.027Z</time></trkpt><trkpt lat="42.5616" lon="13.3437083"><ele>1343.0</ele><time>2026-04-04T09:56:22.027Z</time></trkpt><trkpt lat="42.5617183" lon="13.343775"><ele>1343.0</ele><time>2026-04-04T09:56:23.027Z</time></trkpt><trkpt lat="42.5618383" lon="13.3438333"><ele>1343.0</ele><time>2026-04-04T09:56:24.027Z</time></trkpt><trkpt lat="42.5619583" lon="13.3438933"><ele>1343.0</ele><time>2026-04-04T09:56:25.027Z</time></trkpt><trkpt lat="42.5620717" lon="13.3439583"><ele>1341.2</ele><time>2026-04-04T09:56:26.027Z</time></trkpt><trkpt lat="42.5621717" lon="13.3440183"><ele>1339.4</ele><time>2026-04-04T09:56:27.027Z</time></trkpt><trkpt lat="42.5622483" lon="13.3440933"><ele>1337.6000000000001</ele><time>2026-04-04T09:56:28.027Z</time></trkpt><trkpt lat="42.5623" lon="13.344185"><ele>1335.8000000000002</ele><time>2026-04-04T09:56:29.027Z</time></trkpt><trkpt lat="42.5623283" lon="13.3443017"><ele>1334.0</ele><time>2026-04-04T09:56:30.027Z</time></trkpt><trkpt lat="42.5623467" lon="13.3444367"><ele>1334.0</ele><time>2026-04-04T09:56:31.027Z</time></trkpt><trkpt lat="42.5623533" lon="13.3445817"><ele>1334.0</ele><time>2026-04-04T09:56:32.027Z</time></trkpt><trkpt lat="42.5623383" lon="13.3447433"><ele>1334.0</ele><time>2026-04-04T09:56:33.027Z</time></trkpt><trkpt lat="42.5623267" lon="13.3448933"><ele>1334.0</ele><time>2026-04-04T09:56:34.027Z</time></trkpt><trkpt lat="42.5623033" lon="13.345035"><ele>1334.0</ele><time>2026-04-04T09:56:35.026Z</time></trkpt><trkpt lat="42.562245" lon="13.3451733"><ele>1334.0</ele><time>2026-04-04T09:56:36.027Z</time></trkpt><trkpt lat="42.5621633" lon="13.34528"><ele>1334.0</ele><time>2026-04-04T09:56:37.027Z</time></trkpt><trkpt lat="42.5620583" lon="13.3453717"><ele>1334.0</ele><time>2026-04-04T09:56:38.027Z</time></trkpt><trkpt lat="42.5619583" lon="13.3454567"><ele>1334.0</ele><time>2026-04-04T09:56:39.027Z</time></trkpt><trkpt lat="42.5618517" lon="13.3455433"><ele>1333.2</ele><time>2026-04-04T09:56:40.027Z</time></trkpt><trkpt lat="42.561775" lon="13.3456283"><ele>1332.4</ele><time>2026-04-04T09:56:41.027Z</time></trkpt><trkpt lat="42.56172" lon="13.3457267"><ele>1331.6</ele><time>2026-04-04T09:56:42.027Z</time></trkpt><trkpt lat="42.5616667" lon="13.3458417"><ele>1330.8</ele><time>2026-04-04T09:56:43.027Z</time></trkpt><trkpt lat="42.561645" lon="13.3459683"><ele>1330.0</ele><time>2026-04-04T09:56:44.027Z</time></trkpt><trkpt lat="42.5616583" lon="13.3460967"><ele>1330.0</ele><time>2026-04-04T09:56:45.027Z</time></trkpt><trkpt lat="42.5617017" lon="13.3462233"><ele>1330.0</ele><time>2026-04-04T09:56:46.027Z</time></trkpt><trkpt lat="42.5617533" lon="13.346345"><ele>1330.0</ele><time>2026-04-04T09:56:47.027Z</time></trkpt><trkpt lat="42.5618233" lon="13.3464483"><ele>1330.0</ele><time>2026-04-04T09:56:48.027Z</time></trkpt><trkpt lat="42.5619" lon="13.34653"><ele>1330.0</ele><time>2026-04-04T09:56:49.027Z</time></trkpt><trkpt lat="42.5619933" lon="13.3466"><ele>1332.75</ele><time>2026-04-04T09:56:50.027Z</time></trkpt><trkpt lat="42.5620967" lon="13.3466683"><ele>1335.5</ele><time>2026-04-04T09:56:51.027Z</time></trkpt><trkpt lat="42.562205" lon="13.3467333"><ele>1338.25</ele><time>2026-04-04T09:56:52.027Z</time></trkpt><trkpt lat="42.562315" lon="13.3468"><ele>1341.0</ele><time>2026-04-04T09:56:53.027Z</time></trkpt><trkpt lat="42.5624183" lon="13.3468667"><ele>1341.0</ele><time>2026-04-04T09:56:54.027Z</time></trkpt><trkpt lat="42.5625117" lon="13.3469467"><ele>1341.0</ele><time>2026-04-04T09:56:55.027Z</time></trkpt><trkpt lat="42.5625883" lon="13.3470417"><ele>1341.0</ele><time>2026-04-04T09:56:56.027Z</time></trkpt><trkpt lat="42.5626333" lon="13.3471533"><ele>1341.0</ele><time>2026-04-04T09:56:57.027Z</time></trkpt><trkpt lat="42.5626533" lon="13.3472833"><ele>1341.0</ele><time>2026-04-04T09:56:58.027Z</time></trkpt><trkpt lat="42.5626517" lon="13.3474167"><ele>1339.0</ele><time>2026-04-04T09:56:59.027Z</time></trkpt><trkpt lat="42.5626217" lon="13.3475617"><ele>1337.0</ele><time>2026-04-04T09:57:00.027Z</time></trkpt><trkpt lat="42.562575" lon="13.3477067"><ele>1335.0</ele><time>2026-04-04T09:57:01.027Z</time></trkpt><trkpt lat="42.5625067" lon="13.3478367"><ele>1333.0</ele><time>2026-04-04T09:57:02.027Z</time></trkpt><trkpt lat="42.5624283" lon="13.3479517"><ele>1334.0</ele><time>2026-04-04T09:57:03.026Z</time></trkpt><trkpt lat="42.5623383" lon="13.3480517"><ele>1335.0</ele><time>2026-04-04T09:57:04.027Z</time></trkpt><trkpt lat="42.5622433" lon="13.3481517"><ele>1336.0</ele><time>2026-04-04T09:57:05.027Z</time></trkpt><trkpt lat="42.562145" lon="13.3482617"><ele>1337.0</ele><time>2026-04-04T09:57:06.027Z</time></trkpt><trkpt lat="42.56204" lon="13.348385"><ele>1334.5</ele><time>2026-04-04T09:57:07.027Z</time></trkpt><trkpt lat="42.5619433" lon="13.34851"><ele>1332.0</ele><time>2026-04-04T09:57:08.027Z</time></trkpt><trkpt lat="42.5618533" lon="13.34863"><ele>1329.5</ele><time>2026-04-04T09:57:09.027Z</time></trkpt><trkpt lat="42.5617717" lon="13.3487483"><ele>1327.0</ele><time>2026-04-04T09:57:10.027Z</time></trkpt><trkpt lat="42.5616917" lon="13.3488683"><ele>1328.0</ele><time>2026-04-04T09:57:11.027Z</time></trkpt><trkpt lat="42.5616117" lon="13.3489933"><ele>1329.0</ele><time>2026-04-04T09:57:12.027Z</time></trkpt><trkpt lat="42.5615317" lon="13.34911"><ele>1330.0</ele><time>2026-04-04T09:57:13.027Z</time></trkpt><trkpt lat="42.5614417" lon="13.3492367"><ele>1331.0</ele><time>2026-04-04T09:57:14.027Z</time></trkpt><trkpt lat="42.5613783" lon="13.3493683"><ele>1331.0</ele><time>2026-04-04T09:57:15.027Z</time></trkpt><trkpt lat="42.5613333" lon="13.3494983"><ele>1331.0</ele><time>2026-04-04T09:57:16.027Z</time></trkpt><trkpt lat="42.56132" lon="13.3496317"><ele>1331.0</ele><time>2026-04-04T09:57:17.027Z</time></trkpt><trkpt lat="42.561345" lon="13.3497617"><ele>1331.0</ele><time>2026-04-04T09:57:18.026Z</time></trkpt><trkpt lat="42.561385" lon="13.3499"><ele>1331.0</ele><time>2026-04-04T09:57:19.027Z</time></trkpt><trkpt lat="42.5614483" lon="13.3500167"><ele>1331.5</ele><time>2026-04-04T09:57:20.027Z</time></trkpt><trkpt lat="42.5615317" lon="13.350125"><ele>1332.0</ele><time>2026-04-04T09:57:21.027Z</time></trkpt><trkpt lat="42.5616233" lon="13.3502083"><ele>1332.5</ele><time>2026-04-04T09:57:22.027Z</time></trkpt><trkpt lat="42.5617383" lon="13.35022"><ele>1333.0</ele><time>2026-04-04T09:57:23.027Z</time></trkpt><trkpt lat="42.561855" lon="13.35018"><ele>1333.0</ele><time>2026-04-04T09:57:24.027Z</time></trkpt><trkpt lat="42.5619533" lon="13.3500933"><ele>1333.0</ele><time>2026-04-04T09:57:25.027Z</time></trkpt><trkpt lat="42.5620517" lon="13.3499883"><ele>1333.0</ele><time>2026-04-04T09:57:26.027Z</time></trkpt><trkpt lat="42.56216" lon="13.34987"><ele>1333.0</ele><time>2026-04-04T09:57:27.027Z</time></trkpt><trkpt lat="42.562265" lon="13.3497467"><ele>1333.5</ele><time>2026-04-04T09:57:28.027Z</time></trkpt><trkpt lat="42.5623683" lon="13.3496433"><ele>1334.0</ele><time>2026-04-04T09:57:29.027Z</time></trkpt><trkpt lat="42.5624767" lon="13.349545"><ele>1334.5</ele><time>2026-04-04T09:57:30.027Z</time></trkpt><trkpt lat="42.5625783" lon="13.3494583"><ele>1335.0</ele><time>2026-04-04T09:57:31.027Z</time></trkpt><trkpt lat="42.5626883" lon="13.3493933"><ele>1335.0</ele><time>2026-04-04T09:57:32.027Z</time></trkpt><trkpt lat="42.5627983" lon="13.3493517"><ele>1335.0</ele><time>2026-04-04T09:57:33.027Z</time></trkpt><trkpt lat="42.562925" lon="13.3493583"><ele>1335.0</ele><time>2026-04-04T09:57:34.027Z</time></trkpt><trkpt lat="42.5630483" lon="13.3494067"><ele>1335.0</ele><time>2026-04-04T09:57:35.027Z</time></trkpt><trkpt lat="42.563165" lon="13.349465"><ele>1334.0</ele><time>2026-04-04T09:57:36.027Z</time></trkpt><trkpt lat="42.5632967" lon="13.3495283"><ele>1333.0</ele><time>2026-04-04T09:57:37.027Z</time></trkpt><trkpt lat="42.5634283" lon="13.3496"><ele>1332.0</ele><time>2026-04-04T09:57:38.027Z</time></trkpt><trkpt lat="42.5635483" lon="13.34966"><ele>1331.0</ele><time>2026-04-04T09:57:39.027Z</time></trkpt><trkpt lat="42.56366" lon="13.3497133"><ele>1331.6</ele><time>2026-04-04T09:57:40.027Z</time></trkpt><trkpt lat="42.5637617" lon="13.3497817"><ele>1332.1999999999998</ele><time>2026-04-04T09:57:41.027Z</time></trkpt><trkpt lat="42.56385" lon="13.3498667"><ele>1332.8000000000002</ele><time>2026-04-04T09:57:42.027Z</time></trkpt><trkpt lat="42.563925" lon="13.3499617"><ele>1333.4</ele><time>2026-04-04T09:57:43.027Z</time></trkpt><trkpt lat="42.56398" lon="13.3500883"><ele>1334.0</ele><time>2026-04-04T09:57:44.027Z</time></trkpt><trkpt lat="42.5640033" lon="13.35023"><ele>1334.0</ele><time>2026-04-04T09:57:45.027Z</time></trkpt><trkpt lat="42.5640167" lon="13.3503967"><ele>1334.0</ele><time>2026-04-04T09:57:46.027Z</time></trkpt><trkpt lat="42.5640133" lon="13.3505767"><ele>1334.0</ele><time>2026-04-04T09:57:47.027Z</time></trkpt><trkpt lat="42.5640017" lon="13.3507483"><ele>1334.0</ele><time>2026-04-04T09:57:48.027Z</time></trkpt><trkpt lat="42.56396" lon="13.3509167"><ele>1334.25</ele><time>2026-04-04T09:57:49.027Z</time></trkpt><trkpt lat="42.5638917" lon="13.3510583"><ele>1334.5</ele><time>2026-04-04T09:57:50.027Z</time></trkpt><trkpt lat="42.5637983" lon="13.3511733"><ele>1334.75</ele><time>2026-04-04T09:57:51.027Z</time></trkpt><trkpt lat="42.5636917" lon="13.3512833"><ele>1335.0</ele><time>2026-04-04T09:57:52.027Z</time></trkpt><trkpt lat="42.5635817" lon="13.3513867"><ele>1334.0</ele><time>2026-04-04T09:57:53.027Z</time></trkpt><trkpt lat="42.5634717" lon="13.3514883"><ele>1333.0</ele><time>2026-04-04T09:57:54.027Z</time></trkpt><trkpt lat="42.5633733" lon="13.3516083"><ele>1332.0</ele><time>2026-04-04T09:57:55.027Z</time></trkpt><trkpt lat="42.5632917" lon="13.3517433"><ele>1331.0</ele><time>2026-04-04T09:57:56.027Z</time></trkpt><trkpt lat="42.5632183" lon="13.3518933"><ele>1331.0</ele><time>2026-04-04T09:57:57.027Z</time></trkpt><trkpt lat="42.56315" lon="13.3520433"><ele>1331.0</ele><time>2026-04-04T09:57:58.027Z</time></trkpt><trkpt lat="42.5630817" lon="13.3522"><ele>1331.0</ele><time>2026-04-04T09:57:59.027Z</time></trkpt><trkpt lat="42.5630117" lon="13.3523567"><ele>1331.0</ele><time>2026-04-04T09:58:00.027Z</time></trkpt><trkpt lat="42.5629433" lon="13.3524983"><ele>1330.4</ele><time>2026-04-04T09:58:01.027Z</time></trkpt><trkpt lat="42.5628867" lon="13.35263"><ele>1329.8</ele><time>2026-04-04T09:58:02.027Z</time></trkpt><trkpt lat="42.5628333" lon="13.352755"><ele>1329.2</ele><time>2026-04-04T09:58:03.026Z</time></trkpt><trkpt lat="42.5627833" lon="13.3528833"><ele>1328.6000000000001</ele><time>2026-04-04T09:58:04.027Z</time></trkpt><trkpt lat="42.56276" lon="13.3530267"><ele>1328.0</ele><time>2026-04-04T09:58:05.027Z</time></trkpt><trkpt lat="42.5627467" lon="13.35318"><ele>1328.0</ele><time>2026-04-04T09:58:06.027Z</time></trkpt><trkpt lat="42.562745" lon="13.3533333"><ele>1328.0</ele><time>2026-04-04T09:58:07.027Z</time></trkpt><trkpt lat="42.562775" lon="13.3534767"><ele>1328.0</ele><time>2026-04-04T09:58:08.027Z</time></trkpt><trkpt lat="42.56282" lon="13.3536183"><ele>1328.0</ele><time>2026-04-04T09:58:09.027Z</time></trkpt><trkpt lat="42.5628917" lon="13.3537383"><ele>1329.0</ele><time>2026-04-04T09:58:10.027Z</time></trkpt><trkpt lat="42.56299" lon="13.3538433"><ele>1330.0</ele><time>2026-04-04T09:58:11.027Z</time></trkpt><trkpt lat="42.5630983" lon="13.3539217"><ele>1331.0</ele><time>2026-04-04T09:58:12.026Z</time></trkpt><trkpt lat="42.5632017" lon="13.3540017"><ele>1332.0</ele><time>2026-04-04T09:58:13.027Z</time></trkpt><trkpt lat="42.5633083" lon="13.354085"><ele>1332.0</ele><time>2026-04-04T09:58:14.027Z</time></trkpt><trkpt lat="42.563405" lon="13.3541833"><ele>1332.0</ele><time>2026-04-04T09:58:15.027Z</time></trkpt><trkpt lat="42.56349" lon="13.3543"><ele>1332.0</ele><time>2026-04-04T09:58:16.027Z</time></trkpt><trkpt lat="42.5635517" lon="13.35443"><ele>1332.0</ele><time>2026-04-04T09:58:17.026Z</time></trkpt><trkpt lat="42.5635783" lon="13.3545617"><ele>1332.0</ele><time>2026-04-04T09:58:18.027Z</time></trkpt><trkpt lat="42.5635833" lon="13.354695"><ele>1332.0</ele><time>2026-04-04T09:58:19.027Z</time></trkpt><trkpt lat="42.563535" lon="13.3548183"><ele>1332.0</ele><time>2026-04-04T09:58:20.027Z</time></trkpt><trkpt lat="42.5634583" lon="13.3549333"><ele>1332.0</ele><time>2026-04-04T09:58:21.027Z</time></trkpt><trkpt lat="42.56336" lon="13.3549983"><ele>1332.0</ele><time>2026-04-04T09:58:22.027Z</time></trkpt><trkpt lat="42.5632433" lon="13.35503"><ele>1332.25</ele><time>2026-04-04T09:58:23.027Z</time></trkpt><trkpt lat="42.5631167" lon="13.3550317"><ele>1332.5</ele><time>2026-04-04T09:58:24.027Z</time></trkpt><trkpt lat="42.5629817" lon="13.3550333"><ele>1332.75</ele><time>2026-04-04T09:58:25.027Z</time></trkpt><trkpt lat="42.562835" lon="13.355045"><ele>1333.0</ele><time>2026-04-04T09:58:26.027Z</time></trkpt><trkpt lat="42.562705" lon="13.3550533"><ele>1332.25</ele><time>2026-04-04T09:58:27.027Z</time></trkpt><trkpt lat="42.56257" lon="13.35507"><ele>1331.5</ele><time>2026-04-04T09:58:28.026Z</time></trkpt><trkpt lat="42.56244" lon="13.35508"><ele>1330.75</ele><time>2026-04-04T09:58:29.027Z</time></trkpt><trkpt lat="42.5623083" lon="13.355095"><ele>1330.0</ele><time>2026-04-04T09:58:30.027Z</time></trkpt><trkpt lat="42.5621617" lon="13.3551517"><ele>1330.0</ele><time>2026-04-04T09:58:31.027Z</time></trkpt><trkpt lat="42.5620267" lon="13.35522"><ele>1330.0</ele><time>2026-04-04T09:58:32.027Z</time></trkpt><trkpt lat="42.5619183" lon="13.355315"><ele>1330.0</ele><time>2026-04-04T09:58:33.027Z</time></trkpt><trkpt lat="42.5618467" lon="13.35545"><ele>1330.0</ele><time>2026-04-04T09:58:34.027Z</time></trkpt><trkpt lat="42.5618133" lon="13.3556017"><ele>1330.0</ele><time>2026-04-04T09:58:35.027Z</time></trkpt><trkpt lat="42.5618133" lon="13.355755"><ele>1330.0</ele><time>2026-04-04T09:58:36.027Z</time></trkpt><trkpt lat="42.5618433" lon="13.3558983"><ele>1330.0</ele><time>2026-04-04T09:58:37.027Z</time></trkpt><trkpt lat="42.561885" lon="13.3560467"><ele>1330.0</ele><time>2026-04-04T09:58:38.027Z</time></trkpt><trkpt lat="42.5619367" lon="13.3561967"><ele>1330.0</ele><time>2026-04-04T09:58:39.027Z</time></trkpt><trkpt lat="42.5619933" lon="13.3563433"><ele>1330.0</ele><time>2026-04-04T09:58:40.027Z</time></trkpt><trkpt lat="42.5620517" lon="13.3564967"><ele>1330.0</ele><time>2026-04-04T09:58:41.027Z</time></trkpt><trkpt lat="42.5620983" lon="13.3566467"><ele>1330.0</ele><time>2026-04-04T09:58:42.027Z</time></trkpt><trkpt lat="42.562125" lon="13.3567917"><ele>1329.75</ele><time>2026-04-04T09:58:43.027Z</time></trkpt><trkpt lat="42.5621233" lon="13.3569417"><ele>1329.5</ele><time>2026-04-04T09:58:44.027Z</time></trkpt><trkpt lat="42.562075" lon="13.357095"><ele>1329.25</ele><time>2026-04-04T09:58:45.027Z</time></trkpt><trkpt lat="42.5619933" lon="13.3572117"><ele>1329.0</ele><time>2026-04-04T09:58:46.027Z</time></trkpt><trkpt lat="42.561885" lon="13.35728"><ele>1329.0</ele><time>2026-04-04T09:58:47.027Z</time></trkpt><trkpt lat="42.561755" lon="13.35734"><ele>1329.0</ele><time>2026-04-04T09:58:48.027Z</time></trkpt><trkpt lat="42.5616283" lon="13.357405"><ele>1329.0</ele><time>2026-04-04T09:58:49.026Z</time></trkpt><trkpt lat="42.5615083" lon="13.3574817"><ele>1329.0</ele><time>2026-04-04T09:58:50.027Z</time></trkpt><trkpt lat="42.5614133" lon="13.3575683"><ele>1329.0</ele><time>2026-04-04T09:58:51.027Z</time></trkpt><trkpt lat="42.5613417" lon="13.3576733"><ele>1329.0</ele><time>2026-04-04T09:58:52.027Z</time></trkpt><trkpt lat="42.5612883" lon="13.357805"><ele>1329.0</ele><time>2026-04-04T09:58:53.027Z</time></trkpt><trkpt lat="42.5612633" lon="13.357945"><ele>1329.0</ele><time>2026-04-04T09:58:54.027Z</time></trkpt><trkpt lat="42.5612683" lon="13.3580817"><ele>1329.0</ele><time>2026-04-04T09:58:55.027Z</time></trkpt><trkpt lat="42.561295" lon="13.3582217"><ele>1328.8000000000002</ele><time>2026-04-04T09:58:56.027Z</time></trkpt><trkpt lat="42.56135" lon="13.3583317"><ele>1328.6000000000001</ele><time>2026-04-04T09:58:57.027Z</time></trkpt><trkpt lat="42.5614233" lon="13.3584233"><ele>1328.4</ele><time>2026-04-04T09:58:58.027Z</time></trkpt><trkpt lat="42.561525" lon="13.35848"><ele>1328.2</ele><time>2026-04-04T09:58:59.027Z</time></trkpt><trkpt lat="42.5616617" lon="13.3585183"><ele>1328.0</ele><time>2026-04-04T09:59:00.026Z</time></trkpt><trkpt lat="42.5618133" lon="13.35856"><ele>1328.0</ele><time>2026-04-04T09:59:01.027Z</time></trkpt><trkpt lat="42.5619467" lon="13.3586033"><ele>1328.0</ele><time>2026-04-04T09:59:02.027Z</time></trkpt><trkpt lat="42.562095" lon="13.35866"><ele>1328.0</ele><time>2026-04-04T09:59:03.027Z</time></trkpt><trkpt lat="42.5622283" lon="13.3587067"><ele>1328.0</ele><time>2026-04-04T09:59:04.027Z</time></trkpt><trkpt lat="42.5623633" lon="13.3587617"><ele>1329.0</ele><time>2026-04-04T09:59:05.027Z</time></trkpt><trkpt lat="42.5624917" lon="13.3588133"><ele>1330.0</ele><time>2026-04-04T09:59:06.027Z</time></trkpt><trkpt lat="42.562625" lon="13.3588683"><ele>1331.0</ele><time>2026-04-04T09:59:07.027Z</time></trkpt><trkpt lat="42.56275" lon="13.3589283"><ele>1332.0</ele><time>2026-04-04T09:59:08.026Z</time></trkpt><trkpt lat="42.56288" lon="13.359005"><ele>1332.25</ele><time>2026-04-04T09:59:09.026Z</time></trkpt><trkpt lat="42.56301" lon="13.3591"><ele>1332.5</ele><time>2026-04-04T09:59:10.027Z</time></trkpt><trkpt lat="42.5631317" lon="13.3592217"><ele>1332.75</ele><time>2026-04-04T09:59:11.027Z</time></trkpt><trkpt lat="42.56323" lon="13.3593633"><ele>1333.0</ele><time>2026-04-04T09:59:12.027Z</time></trkpt><trkpt lat="42.56333" lon="13.35952"><ele>1333.0</ele><time>2026-04-04T09:59:13.027Z</time></trkpt><trkpt lat="42.5634067" lon="13.35968"><ele>1333.0</ele><time>2026-04-04T09:59:14.027Z</time></trkpt><trkpt lat="42.5634983" lon="13.3598383"><ele>1333.0</ele><time>2026-04-04T09:59:15.027Z</time></trkpt><trkpt lat="42.56359" lon="13.35999"><ele>1333.0</ele><time>2026-04-04T09:59:16.027Z</time></trkpt><trkpt lat="42.5636883" lon="13.3601467"><ele>1333.25</ele><time>2026-04-04T09:59:17.027Z</time></trkpt><trkpt lat="42.56378" lon="13.36029"><ele>1333.5</ele><time>2026-04-04T09:59:18.027Z</time></trkpt><trkpt lat="42.5638667" lon="13.360445"><ele>1333.75</ele><time>2026-04-04T09:59:19.027Z</time></trkpt><trkpt lat="42.5639417" lon="13.36059"><ele>1334.0</ele><time>2026-04-04T09:59:20.027Z</time></trkpt><trkpt lat="42.5639983" lon="13.3607383"><ele>1333.75</ele><time>2026-04-04T09:59:21.027Z</time></trkpt><trkpt lat="42.5640267" lon="13.3608917"><ele>1333.5</ele><time>2026-04-04T09:59:22.027Z</time></trkpt><trkpt lat="42.5640267" lon="13.361055"><ele>1333.25</ele><time>2026-04-04T09:59:23.027Z</time></trkpt><trkpt lat="42.5640167" lon="13.3612317"><ele>1333.0</ele><time>2026-04-04T09:59:24.026Z</time></trkpt><trkpt lat="42.5639917" lon="13.3614183"><ele>1333.0</ele><time>2026-04-04T09:59:25.027Z</time></trkpt><trkpt lat="42.5639583" lon="13.3616033"><ele>1333.0</ele><time>2026-04-04T09:59:26.027Z</time></trkpt><trkpt lat="42.563935" lon="13.3617967"><ele>1333.0</ele><time>2026-04-04T09:59:27.027Z</time></trkpt><trkpt lat="42.5639083" lon="13.3619883"><ele>1333.0</ele><time>2026-04-04T09:59:28.027Z</time></trkpt><trkpt lat="42.5638867" lon="13.3621783"><ele>1333.75</ele><time>2026-04-04T09:59:29.027Z</time></trkpt><trkpt lat="42.5638733" lon="13.3623567"><ele>1334.5</ele><time>2026-04-04T09:59:30.027Z</time></trkpt><trkpt lat="42.56385" lon="13.3625267"><ele>1335.25</ele><time>2026-04-04T09:59:31.027Z</time></trkpt><trkpt lat="42.56379" lon="13.3626583"><ele>1336.0</ele><time>2026-04-04T09:59:32.027Z</time></trkpt><trkpt lat="42.5637283" lon="13.36275"><ele>1335.8</ele><time>2026-04-04T09:59:33.027Z</time></trkpt><trkpt lat="42.5636583" lon="13.36281"><ele>1335.6</ele><time>2026-04-04T09:59:34.027Z</time></trkpt><trkpt lat="42.5635767" lon="13.362835"><ele>1335.4</ele><time>2026-04-04T09:59:35.027Z</time></trkpt><trkpt lat="42.5635017" lon="13.3628267"><ele>1335.2</ele><time>2026-04-04T09:59:36.027Z</time></trkpt><trkpt lat="42.563415" lon="13.362765"><ele>1335.0</ele><time>2026-04-04T09:59:37.027Z</time></trkpt><trkpt lat="42.5633133" lon="13.3626667"><ele>1335.0</ele><time>2026-04-04T09:59:38.027Z</time></trkpt><trkpt lat="42.5632017" lon="13.3625517"><ele>1335.0</ele><time>2026-04-04T09:59:39.027Z</time></trkpt><trkpt lat="42.5630867" lon="13.3624433"><ele>1335.0</ele><time>2026-04-04T09:59:40.027Z</time></trkpt><trkpt lat="42.5629717" lon="13.362345"><ele>1335.0</ele><time>2026-04-04T09:59:41.027Z</time></trkpt><trkpt lat="42.5628583" lon="13.36226"><ele>1333.0</ele><time>2026-04-04T09:59:42.027Z</time></trkpt><trkpt lat="42.5627383" lon="13.3621867"><ele>1331.0</ele><time>2026-04-04T09:59:43.027Z</time></trkpt><trkpt lat="42.562615" lon="13.3621367"><ele>1329.0</ele><time>2026-04-04T09:59:44.027Z</time></trkpt><trkpt lat="42.5624867" lon="13.3621067"><ele>1327.0</ele><time>2026-04-04T09:59:45.027Z</time></trkpt><trkpt lat="42.5623617" lon="13.3620867"><ele>1327.0</ele><time>2026-04-04T09:59:46.027Z</time></trkpt><trkpt lat="42.5622333" lon="13.3620983"><ele>1327.0</ele><time>2026-04-04T09:59:47.027Z</time></trkpt><trkpt lat="42.56211" lon="13.3621333"><ele>1327.0</ele><time>2026-04-04T09:59:48.027Z</time></trkpt><trkpt lat="42.5619917" lon="13.362185"><ele>1327.0</ele><time>2026-04-04T09:59:49.027Z</time></trkpt><trkpt lat="42.5618733" lon="13.3622483"><ele>1330.75</ele><time>2026-04-04T09:59:50.027Z</time></trkpt><trkpt lat="42.5617683" lon="13.3623117"><ele>1334.5</ele><time>2026-04-04T09:59:51.027Z</time></trkpt><trkpt lat="42.5616583" lon="13.3623867"><ele>1338.25</ele><time>2026-04-04T09:59:52.027Z</time></trkpt><trkpt lat="42.5615667" lon="13.3624633"><ele>1342.0</ele><time>2026-04-04T09:59:53.027Z</time></trkpt><trkpt lat="42.5614867" lon="13.36256"><ele>1342.0</ele><time>2026-04-04T09:59:54.027Z</time></trkpt><trkpt lat="42.5614267" lon="13.3626833"><ele>1342.0</ele><time>2026-04-04T09:59:55.027Z</time></trkpt><trkpt lat="42.5613767" lon="13.3628267"><ele>1342.0</ele><time>2026-04-04T09:59:56.027Z</time></trkpt><trkpt lat="42.5613533" lon="13.3629833"><ele>1342.0</ele><time>2026-04-04T09:59:57.027Z</time></trkpt><trkpt lat="42.5613533" lon="13.3631433"><ele>1344.75</ele><time>2026-04-04T09:59:58.027Z</time></trkpt><trkpt lat="42.5613333" lon="13.363325"><ele>1347.5</ele><time>2026-04-04T09:59:59.027Z</time></trkpt><trkpt lat="42.5613133" lon="13.3634983"><ele>1350.25</ele><time>2026-04-04T10:00:00.027Z</time></trkpt><trkpt lat="42.5612683" lon="13.36365"><ele>1353.0</ele><time>2026-04-04T10:00:01.027Z</time></trkpt><trkpt lat="42.5612033" lon="13.3637833"><ele>1351.0</ele><time>2026-04-04T10:00:02.027Z</time></trkpt><trkpt lat="42.5611233" lon="13.3639"><ele>1349.0</ele><time>2026-04-04T10:00:03.027Z</time></trkpt><trkpt lat="42.56103" lon="13.3640167"><ele>1347.0</ele><time>2026-04-04T10:00:04.027Z</time></trkpt><trkpt lat="42.5609383" lon="13.3641367"><ele>1345.0</ele><time>2026-04-04T10:00:05.027Z</time></trkpt><trkpt lat="42.560855" lon="13.3642533"><ele>1345.0</ele><time>2026-04-04T10:00:06.027Z</time></trkpt><trkpt lat="42.560765" lon="13.364375"><ele>1345.0</ele><time>2026-04-04T10:00:07.027Z</time></trkpt><trkpt lat="42.5606717" lon="13.3644983"><ele>1345.0</ele><time>2026-04-04T10:00:08.027Z</time></trkpt><trkpt lat="42.5605717" lon="13.36462"><ele>1345.0</ele><time>2026-04-04T10:00:09.027Z</time></trkpt><trkpt lat="42.5604667" lon="13.36473"><ele>1346.25</ele><time>2026-04-04T10:00:10.027Z</time></trkpt><trkpt lat="42.5603567" lon="13.3648267"><ele>1347.5</ele><time>2026-04-04T10:00:11.027Z</time></trkpt><trkpt lat="42.56023" lon="13.3649267"><ele>1348.75</ele><time>2026-04-04T10:00:12.026Z</time></trkpt><trkpt lat="42.5601067" lon="13.3650083"><ele>1350.0</ele><time>2026-04-04T10:00:13.027Z</time></trkpt><trkpt lat="42.5599883" lon="13.365075"><ele>1350.0</ele><time>2026-04-04T10:00:14.027Z</time></trkpt><trkpt lat="42.559885" lon="13.365125"><ele>1350.0</ele><time>2026-04-04T10:00:15.027Z</time></trkpt><trkpt lat="42.5597983" lon="13.3651633"><ele>1350.0</ele><time>2026-04-04T10:00:16.027Z</time></trkpt><trkpt lat="42.55973" lon="13.3651983"><ele>1350.0</ele><time>2026-04-04T10:00:17.027Z</time></trkpt><trkpt lat="42.559665" lon="13.365235"><ele>1350.0</ele><time>2026-04-04T10:00:18.027Z</time></trkpt><trkpt lat="42.5595933" lon="13.365265"><ele>1350.0</ele><time>2026-04-04T10:00:19.027Z</time></trkpt><trkpt lat="42.5595067" lon="13.3652817"><ele>1352.0</ele><time>2026-04-04T10:00:20.027Z</time></trkpt><trkpt lat="42.5594033" lon="13.365275"><ele>1354.0</ele><time>2026-04-04T10:00:21.027Z</time></trkpt><trkpt lat="42.5593033" lon="13.3652233"><ele>1356.0</ele><time>2026-04-04T10:00:22.027Z</time></trkpt><trkpt lat="42.5592083" lon="13.365135"><ele>1358.0</ele><time>2026-04-04T10:00:23.027Z</time></trkpt><trkpt lat="42.5591333" lon="13.3650067"><ele>1360.0</ele><time>2026-04-04T10:00:24.027Z</time></trkpt><trkpt lat="42.559075" lon="13.36487"><ele>1360.0</ele><time>2026-04-04T10:00:25.027Z</time></trkpt><trkpt lat="42.5590367" lon="13.3647117"><ele>1360.0</ele><time>2026-04-04T10:00:26.027Z</time></trkpt><trkpt lat="42.5590067" lon="13.3645567"><ele>1360.0</ele><time>2026-04-04T10:00:27.027Z</time></trkpt><trkpt lat="42.5589717" lon="13.364415"><ele>1360.0</ele><time>2026-04-04T10:00:28.027Z</time></trkpt><trkpt lat="42.558905" lon="13.364305"><ele>1360.6</ele><time>2026-04-04T10:00:29.027Z</time></trkpt><trkpt lat="42.5588283" lon="13.3642417"><ele>1361.2</ele><time>2026-04-04T10:00:30.027Z</time></trkpt><trkpt lat="42.5587283" lon="13.364205"><ele>1361.8000000000002</ele><time>2026-04-04T10:00:31.026Z</time></trkpt><trkpt lat="42.55862" lon="13.3641933"><ele>1362.4</ele><time>2026-04-04T10:00:32.027Z</time></trkpt><trkpt lat="42.558515" lon="13.3641717"><ele>1363.0</ele><time>2026-04-04T10:00:33.027Z</time></trkpt><trkpt lat="42.5584133" lon="13.364155"><ele>1363.0</ele><time>2026-04-04T10:00:34.027Z</time></trkpt><trkpt lat="42.5583167" lon="13.3641433"><ele>1363.0</ele><time>2026-04-04T10:00:35.027Z</time></trkpt><trkpt lat="42.5582083" lon="13.364145"><ele>1363.0</ele><time>2026-04-04T10:00:36.027Z</time></trkpt><trkpt lat="42.5581067" lon="13.3641433"><ele>1363.0</ele><time>2026-04-04T10:00:37.027Z</time></trkpt><trkpt lat="42.5580083" lon="13.3641583"><ele>1363.0</ele><time>2026-04-04T10:00:38.027Z</time></trkpt><trkpt lat="42.5579217" lon="13.3641817"><ele>1362.0</ele><time>2026-04-04T10:00:39.027Z</time></trkpt><trkpt lat="42.5578467" lon="13.3642217"><ele>1361.0</ele><time>2026-04-04T10:00:40.027Z</time></trkpt><trkpt lat="42.5577917" lon="13.3642733"><ele>1360.0</ele><time>2026-04-04T10:00:41.027Z</time></trkpt><trkpt lat="42.5577467" lon="13.3643367"><ele>1359.0</ele><time>2026-04-04T10:00:42.027Z</time></trkpt><trkpt lat="42.5577317" lon="13.3645017"><ele>1358.0</ele><time>2026-04-04T10:00:44.027Z</time></trkpt><trkpt lat="42.5577633" lon="13.364595"><ele>1357.0</ele><time>2026-04-04T10:00:45.027Z</time></trkpt><trkpt lat="42.5578" lon="13.3646983"><ele>1357.0</ele><time>2026-04-04T10:00:46.027Z</time></trkpt><trkpt lat="42.5578567" lon="13.3648067"><ele>1357.0</ele><time>2026-04-04T10:00:47.027Z</time></trkpt><trkpt lat="42.55791" lon="13.3649217"><ele>1357.0</ele><time>2026-04-04T10:00:48.027Z</time></trkpt><trkpt lat="42.5579633" lon="13.3650333"><ele>1357.0</ele><time>2026-04-04T10:00:49.027Z</time></trkpt><trkpt lat="42.558005" lon="13.3651467"><ele>1357.0</ele><time>2026-04-04T10:00:50.027Z</time></trkpt><trkpt lat="42.558035" lon="13.36527"><ele>1360.1999999999998</ele><time>2026-04-04T10:00:51.026Z</time></trkpt><trkpt lat="42.5580583" lon="13.3653917"><ele>1363.4</ele><time>2026-04-04T10:00:52.027Z</time></trkpt><trkpt lat="42.5580633" lon="13.365525"><ele>1366.6</ele><time>2026-04-04T10:00:53.027Z</time></trkpt><trkpt lat="42.5580317" lon="13.3656517"><ele>1369.8000000000002</ele><time>2026-04-04T10:00:54.027Z</time></trkpt><trkpt lat="42.5579783" lon="13.3657767"><ele>1373.0</ele><time>2026-04-04T10:00:55.027Z</time></trkpt><trkpt lat="42.5579067" lon="13.3658817"><ele>1371.25</ele><time>2026-04-04T10:00:56.027Z</time></trkpt><trkpt lat="42.5578117" lon="13.365975"><ele>1369.5</ele><time>2026-04-04T10:00:57.027Z</time></trkpt><trkpt lat="42.5577167" lon="13.366075"><ele>1367.75</ele><time>2026-04-04T10:00:58.027Z</time></trkpt><trkpt lat="42.5576267" lon="13.3661767"><ele>1366.0</ele><time>2026-04-04T10:00:59.027Z</time></trkpt><trkpt lat="42.5575483" lon="13.36629"><ele>1368.1999999999998</ele><time>2026-04-04T10:01:00.027Z</time></trkpt><trkpt lat="42.5574917" lon="13.3664167"><ele>1370.3999999999999</ele><time>2026-04-04T10:01:01.027Z</time></trkpt><trkpt lat="42.5574617" lon="13.366555"><ele>1372.6</ele><time>2026-04-04T10:01:02.026Z</time></trkpt><trkpt lat="42.5574533" lon="13.3667083"><ele>1374.8</ele><time>2026-04-04T10:01:03.027Z</time></trkpt><trkpt lat="42.5574533" lon="13.3668633"><ele>1377.0</ele><time>2026-04-04T10:01:04.027Z</time></trkpt><trkpt lat="42.557455" lon="13.3670117"><ele>1377.0</ele><time>2026-04-04T10:01:05.027Z</time></trkpt><trkpt lat="42.5574583" lon="13.36716"><ele>1377.0</ele><time>2026-04-04T10:01:06.027Z</time></trkpt><trkpt lat="42.5574683" lon="13.367305"><ele>1377.0</ele><time>2026-04-04T10:01:07.027Z</time></trkpt><trkpt lat="42.557475" lon="13.36745"><ele>1377.0</ele><time>2026-04-04T10:01:08.027Z</time></trkpt><trkpt lat="42.557475" lon="13.3676017"><ele>1377.0</ele><time>2026-04-04T10:01:09.027Z</time></trkpt><trkpt lat="42.5574733" lon="13.367745"><ele>1378.1999999999998</ele><time>2026-04-04T10:01:10.027Z</time></trkpt><trkpt lat="42.5574583" lon="13.367885"><ele>1379.4</ele><time>2026-04-04T10:01:11.027Z</time></trkpt><trkpt lat="42.5574617" lon="13.3680183"><ele>1380.6</ele><time>2026-04-04T10:01:12.026Z</time></trkpt><trkpt lat="42.5574667" lon="13.3681383"><ele>1381.8000000000002</ele><time>2026-04-04T10:01:13.027Z</time></trkpt><trkpt lat="42.5574617" lon="13.3682583"><ele>1383.0</ele><time>2026-04-04T10:01:14.027Z</time></trkpt><trkpt lat="42.557455" lon="13.3683667"><ele>1383.3333333333333</ele><time>2026-04-04T10:01:15.027Z</time></trkpt><trkpt lat="42.5574433" lon="13.3684633"><ele>1383.6666666666667</ele><time>2026-04-04T10:01:16.027Z</time></trkpt><trkpt lat="42.5574117" lon="13.3685817"><ele>1384.0</ele><time>2026-04-04T10:01:18.027Z</time></trkpt><trkpt lat="42.5573833" lon="13.3686817"><ele>1384.3333333333335</ele><time>2026-04-04T10:01:20.027Z</time></trkpt><trkpt lat="42.557385" lon="13.3687817"><ele>1384.6666666666667</ele><time>2026-04-04T10:01:23.027Z</time></trkpt><trkpt lat="42.557425" lon="13.3688883"><ele>1385.0</ele><time>2026-04-04T10:01:26.027Z</time></trkpt><trkpt lat="42.55745" lon="13.369"><ele>1385.1666666666667</ele><time>2026-04-04T10:01:28.027Z</time></trkpt><trkpt lat="42.5574883" lon="13.3691533"><ele>1385.3333333333335</ele><time>2026-04-04T10:01:30.027Z</time></trkpt><trkpt lat="42.5575117" lon="13.3692383"><ele>1385.5</ele><time>2026-04-04T10:01:31.027Z</time></trkpt><trkpt lat="42.5575467" lon="13.3693217"><ele>1385.6666666666667</ele><time>2026-04-04T10:01:32.027Z</time></trkpt><trkpt lat="42.5575733" lon="13.3694067"><ele>1385.8333333333333</ele><time>2026-04-04T10:01:33.027Z</time></trkpt><trkpt lat="42.557645" lon="13.3695333"><ele>1386.0</ele><time>2026-04-04T10:01:35.027Z</time></trkpt><trkpt lat="42.5576867" lon="13.369605"><ele>1386.0</ele><time>2026-04-04T10:01:37.027Z</time></trkpt><trkpt lat="42.5577583" lon="13.3696833"><ele>1386.0</ele><time>2026-04-04T10:01:40.027Z</time></trkpt><trkpt lat="42.5578533" lon="13.3696667"><ele>1386.0</ele><time>2026-04-04T10:01:42.027Z</time></trkpt><trkpt lat="42.5579117" lon="13.369615"><ele>1386.0</ele><time>2026-04-04T10:01:43.026Z</time></trkpt><trkpt lat="42.55797" lon="13.3695533"><ele>1386.0</ele><time>2026-04-04T10:01:44.026Z</time></trkpt><trkpt lat="42.5580333" lon="13.369485"><ele>1386.0</ele><time>2026-04-04T10:01:45.027Z</time></trkpt><trkpt lat="42.5580933" lon="13.3694183"><ele>1385.5</ele><time>2026-04-04T10:01:46.027Z</time></trkpt><trkpt lat="42.5581617" lon="13.36935"><ele>1385.0</ele><time>2026-04-04T10:01:47.027Z</time></trkpt><trkpt lat="42.5582383" lon="13.3692883"><ele>1384.5</ele><time>2026-04-04T10:01:48.027Z</time></trkpt><trkpt lat="42.5583133" lon="13.3692283"><ele>1384.0</ele><time>2026-04-04T10:01:49.027Z</time></trkpt><trkpt lat="42.5583933" lon="13.369165"><ele>1383.5</ele><time>2026-04-04T10:01:50.027Z</time></trkpt><trkpt lat="42.5584517" lon="13.36908"><ele>1383.0</ele><time>2026-04-04T10:01:51.027Z</time></trkpt><trkpt lat="42.5585017" lon="13.3690033"><ele>1383.0</ele><time>2026-04-04T10:01:52.027Z</time></trkpt><trkpt lat="42.5585533" lon="13.3689383"><ele>1383.0</ele><time>2026-04-04T10:01:53.027Z</time></trkpt><trkpt lat="42.558595" lon="13.3688733"><ele>1383.0</ele><time>2026-04-04T10:01:54.027Z</time></trkpt><trkpt lat="42.5586867" lon="13.3688017"><ele>1383.0</ele><time>2026-04-04T10:01:56.027Z</time></trkpt><trkpt lat="42.55877" lon="13.3688433"><ele>1383.0</ele><time>2026-04-04T10:01:58.027Z</time></trkpt><trkpt lat="42.5588267" lon="13.36889"><ele>1383.0</ele><time>2026-04-04T10:01:59.027Z</time></trkpt><trkpt lat="42.55888" lon="13.3689567"><ele>1384.1666666666667</ele><time>2026-04-04T10:02:00.027Z</time></trkpt><trkpt lat="42.5589367" lon="13.369045"><ele>1385.3333333333333</ele><time>2026-04-04T10:02:01.027Z</time></trkpt><trkpt lat="42.5589833" lon="13.3691383"><ele>1386.5</ele><time>2026-04-04T10:02:02.027Z</time></trkpt><trkpt lat="42.559035" lon="13.3692317"><ele>1387.6666666666665</ele><time>2026-04-04T10:02:03.027Z</time></trkpt><trkpt lat="42.5590783" lon="13.3693317"><ele>1388.8333333333333</ele><time>2026-04-04T10:02:04.027Z</time></trkpt><trkpt lat="42.5591167" lon="13.369435"><ele>1390.0</ele><time>2026-04-04T10:02:05.027Z</time></trkpt><trkpt lat="42.559145" lon="13.3695417"><ele>1390.0</ele><time>2026-04-04T10:02:06.027Z</time></trkpt><trkpt lat="42.5591633" lon="13.3696617"><ele>1390.0</ele><time>2026-04-04T10:02:07.027Z</time></trkpt><trkpt lat="42.5591767" lon="13.3697817"><ele>1390.0</ele><time>2026-04-04T10:02:08.027Z</time></trkpt><trkpt lat="42.5591733" lon="13.36991"><ele>1390.0</ele><time>2026-04-04T10:02:09.027Z</time></trkpt><trkpt lat="42.5591733" lon="13.3700267"><ele>1390.0</ele><time>2026-04-04T10:02:10.027Z</time></trkpt><trkpt lat="42.5591917" lon="13.370145"><ele>1390.0</ele><time>2026-04-04T10:02:11.027Z</time></trkpt><trkpt lat="42.5591817" lon="13.3702833"><ele>1388.2</ele><time>2026-04-04T10:02:12.027Z</time></trkpt><trkpt lat="42.5591767" lon="13.3704267"><ele>1386.4</ele><time>2026-04-04T10:02:13.027Z</time></trkpt><trkpt lat="42.55918" lon="13.37056"><ele>1384.6</ele><time>2026-04-04T10:02:14.027Z</time></trkpt><trkpt lat="42.55921" lon="13.370675"><ele>1382.8</ele><time>2026-04-04T10:02:15.027Z</time></trkpt><trkpt lat="42.5592433" lon="13.3707833"><ele>1381.0</ele><time>2026-04-04T10:02:16.027Z</time></trkpt><trkpt lat="42.5592883" lon="13.3708733"><ele>1380.4</ele><time>2026-04-04T10:02:17.027Z</time></trkpt><trkpt lat="42.5593433" lon="13.3709383"><ele>1379.8</ele><time>2026-04-04T10:02:18.027Z</time></trkpt><trkpt lat="42.559425" lon="13.3709733"><ele>1379.2</ele><time>2026-04-04T10:02:19.027Z</time></trkpt><trkpt lat="42.5595217" lon="13.3710033"><ele>1378.6000000000001</ele><time>2026-04-04T10:02:20.027Z</time></trkpt><trkpt lat="42.5596317" lon="13.37102"><ele>1378.0</ele><time>2026-04-04T10:02:21.027Z</time></trkpt><trkpt lat="42.5597483" lon="13.37104"><ele>1378.0</ele><time>2026-04-04T10:02:22.027Z</time></trkpt><trkpt lat="42.5598733" lon="13.37106"><ele>1378.0</ele><time>2026-04-04T10:02:23.027Z</time></trkpt><trkpt lat="42.5599933" lon="13.3710833"><ele>1378.0</ele><time>2026-04-04T10:02:24.027Z</time></trkpt><trkpt lat="42.56011" lon="13.3711"><ele>1378.0</ele><time>2026-04-04T10:02:25.027Z</time></trkpt><trkpt lat="42.5602283" lon="13.3711133"><ele>1378.0</ele><time>2026-04-04T10:02:26.027Z</time></trkpt><trkpt lat="42.5603433" lon="13.371115"><ele>1378.0</ele><time>2026-04-04T10:02:27.027Z</time></trkpt><trkpt lat="42.5604567" lon="13.37111"><ele>1378.0</ele><time>2026-04-04T10:02:28.027Z</time></trkpt><trkpt lat="42.5605733" lon="13.371095"><ele>1378.0</ele><time>2026-04-04T10:02:29.027Z</time></trkpt><trkpt lat="42.5606867" lon="13.3710717"><ele>1377.0</ele><time>2026-04-04T10:02:30.027Z</time></trkpt><trkpt lat="42.5607983" lon="13.3710467"><ele>1376.0</ele><time>2026-04-04T10:02:31.027Z</time></trkpt><trkpt lat="42.5609217" lon="13.3710217"><ele>1375.0</ele><time>2026-04-04T10:02:32.027Z</time></trkpt><trkpt lat="42.561035" lon="13.3709983"><ele>1374.0</ele><time>2026-04-04T10:02:33.026Z</time></trkpt><trkpt lat="42.5611433" lon="13.37097"><ele>1373.6</ele><time>2026-04-04T10:02:34.027Z</time></trkpt><trkpt lat="42.561255" lon="13.3709667"><ele>1373.2</ele><time>2026-04-04T10:02:35.026Z</time></trkpt><trkpt lat="42.5613633" lon="13.3709867"><ele>1372.8</ele><time>2026-04-04T10:02:36.027Z</time></trkpt><trkpt lat="42.561465" lon="13.37103"><ele>1372.3999999999999</ele><time>2026-04-04T10:02:37.027Z</time></trkpt><trkpt lat="42.561565" lon="13.3710767"><ele>1372.0</ele><time>2026-04-04T10:02:38.027Z</time></trkpt><trkpt lat="42.5616667" lon="13.3711133"><ele>1372.0</ele><time>2026-04-04T10:02:39.027Z</time></trkpt><trkpt lat="42.5617617" lon="13.37117"><ele>1372.0</ele><time>2026-04-04T10:02:40.027Z</time></trkpt><trkpt lat="42.561855" lon="13.371235"><ele>1372.0</ele><time>2026-04-04T10:02:41.026Z</time></trkpt><trkpt lat="42.5619317" lon="13.3712917"><ele>1372.0</ele><time>2026-04-04T10:02:42.027Z</time></trkpt><trkpt lat="42.5619933" lon="13.371375"><ele>1372.0</ele><time>2026-04-04T10:02:43.027Z</time></trkpt><trkpt lat="42.5620283" lon="13.37145"><ele>1372.0</ele><time>2026-04-04T10:02:44.027Z</time></trkpt><trkpt lat="42.562045" lon="13.371535"><ele>1370.857142857143</ele><time>2026-04-04T10:02:45.027Z</time></trkpt><trkpt lat="42.5620317" lon="13.371625"><ele>1369.7142857142858</ele><time>2026-04-04T10:02:46.027Z</time></trkpt><trkpt lat="42.562" lon="13.3717117"><ele>1368.5714285714284</ele><time>2026-04-04T10:02:47.027Z</time></trkpt><trkpt lat="42.5619667" lon="13.3717933"><ele>1367.4285714285716</ele><time>2026-04-04T10:02:48.027Z</time></trkpt><trkpt lat="42.5619317" lon="13.3718783"><ele>1366.2857142857142</ele><time>2026-04-04T10:02:49.027Z</time></trkpt><trkpt lat="42.56189" lon="13.371975"><ele>1365.142857142857</ele><time>2026-04-04T10:02:50.027Z</time></trkpt><trkpt lat="42.5618433" lon="13.372055"><ele>1364.0</ele><time>2026-04-04T10:02:51.027Z</time></trkpt><trkpt lat="42.5617783" lon="13.3721233"><ele>1362.4</ele><time>2026-04-04T10:02:52.027Z</time></trkpt><trkpt lat="42.561695" lon="13.3721767"><ele>1360.8000000000002</ele><time>2026-04-04T10:02:53.026Z</time></trkpt><trkpt lat="42.5616083" lon="13.3722067"><ele>1359.1999999999998</ele><time>2026-04-04T10:02:54.027Z</time></trkpt><trkpt lat="42.5615117" lon="13.3721967"><ele>1357.6</ele><time>2026-04-04T10:02:55.027Z</time></trkpt><trkpt lat="42.5614233" lon="13.3721817"><ele>1356.0</ele><time>2026-04-04T10:02:56.027Z</time></trkpt><trkpt lat="42.5613217" lon="13.3721533"><ele>1356.0</ele><time>2026-04-04T10:02:57.027Z</time></trkpt><trkpt lat="42.56122" lon="13.372105"><ele>1356.0</ele><time>2026-04-04T10:02:58.027Z</time></trkpt><trkpt lat="42.5611067" lon="13.3720533"><ele>1356.0</ele><time>2026-04-04T10:02:59.027Z</time></trkpt><trkpt lat="42.5610117" lon="13.3720217"><ele>1356.0</ele><time>2026-04-04T10:03:00.027Z</time></trkpt><trkpt lat="42.5609183" lon="13.3720067"><ele>1356.0</ele><time>2026-04-04T10:03:01.027Z</time></trkpt><trkpt lat="42.5608183" lon="13.3719983"><ele>1356.0</ele><time>2026-04-04T10:03:02.027Z</time></trkpt><trkpt lat="42.56073" lon="13.3720117"><ele>1356.0</ele><time>2026-04-04T10:03:03.027Z</time></trkpt><trkpt lat="42.5606367" lon="13.3720583"><ele>1356.0</ele><time>2026-04-04T10:03:04.027Z</time></trkpt><trkpt lat="42.5605483" lon="13.3721033"><ele>1356.0</ele><time>2026-04-04T10:03:05.027Z</time></trkpt><trkpt lat="42.5604567" lon="13.3721467"><ele>1356.0</ele><time>2026-04-04T10:03:06.027Z</time></trkpt><trkpt lat="42.56037" lon="13.3721983"><ele>1354.4</ele><time>2026-04-04T10:03:07.027Z</time></trkpt><trkpt lat="42.5602567" lon="13.3722233"><ele>1352.8</ele><time>2026-04-04T10:03:08.026Z</time></trkpt><trkpt lat="42.5601483" lon="13.3722267"><ele>1351.2</ele><time>2026-04-04T10:03:09.027Z</time></trkpt><trkpt lat="42.5600367" lon="13.3722267"><ele>1349.6000000000001</ele><time>2026-04-04T10:03:10.027Z</time></trkpt><trkpt lat="42.55993" lon="13.372245"><ele>1348.0</ele><time>2026-04-04T10:03:11.027Z</time></trkpt><trkpt lat="42.5598333" lon="13.372265"><ele>1348.0</ele><time>2026-04-04T10:03:12.027Z</time></trkpt><trkpt lat="42.5597333" lon="13.3723117"><ele>1348.0</ele><time>2026-04-04T10:03:13.027Z</time></trkpt><trkpt lat="42.559635" lon="13.3723817"><ele>1348.0</ele><time>2026-04-04T10:03:14.027Z</time></trkpt><trkpt lat="42.5595417" lon="13.372465"><ele>1348.0</ele><time>2026-04-04T10:03:15.027Z</time></trkpt><trkpt lat="42.559435" lon="13.3725633"><ele>1346.5</ele><time>2026-04-04T10:03:16.027Z</time></trkpt><trkpt lat="42.5593233" lon="13.3726583"><ele>1345.0</ele><time>2026-04-04T10:03:17.027Z</time></trkpt><trkpt lat="42.5592033" lon="13.37274"><ele>1343.5</ele><time>2026-04-04T10:03:18.027Z</time></trkpt><trkpt lat="42.5590733" lon="13.3727983"><ele>1342.0</ele><time>2026-04-04T10:03:19.027Z</time></trkpt><trkpt lat="42.5589367" lon="13.3728383"><ele>1342.0</ele><time>2026-04-04T10:03:20.027Z</time></trkpt><trkpt lat="42.5588117" lon="13.3728567"><ele>1342.0</ele><time>2026-04-04T10:03:21.027Z</time></trkpt><trkpt lat="42.5586783" lon="13.3728867"><ele>1342.0</ele><time>2026-04-04T10:03:22.027Z</time></trkpt><trkpt lat="42.5585483" lon="13.3729167"><ele>1342.0</ele><time>2026-04-04T10:03:23.027Z</time></trkpt><trkpt lat="42.5584167" lon="13.3729517"><ele>1342.0</ele><time>2026-04-04T10:03:24.027Z</time></trkpt><trkpt lat="42.5582917" lon="13.3729783"><ele>1342.0</ele><time>2026-04-04T10:03:25.027Z</time></trkpt><trkpt lat="42.5581667" lon="13.3730133"><ele>1342.0</ele><time>2026-04-04T10:03:26.027Z</time></trkpt><trkpt lat="42.5580483" lon="13.3730517"><ele>1342.0</ele><time>2026-04-04T10:03:27.027Z</time></trkpt><trkpt lat="42.55793" lon="13.373115"><ele>1341.0</ele><time>2026-04-04T10:03:28.027Z</time></trkpt><trkpt lat="42.5578233" lon="13.3731967"><ele>1340.0</ele><time>2026-04-04T10:03:29.027Z</time></trkpt><trkpt lat="42.5577233" lon="13.3733167"><ele>1339.0</ele><time>2026-04-04T10:03:30.027Z</time></trkpt><trkpt lat="42.557645" lon="13.3734567"><ele>1338.0</ele><time>2026-04-04T10:03:31.027Z</time></trkpt><trkpt lat="42.55755" lon="13.3735967"><ele>1338.0</ele><time>2026-04-04T10:03:32.026Z</time></trkpt><trkpt lat="42.5574567" lon="13.3737333"><ele>1338.0</ele><time>2026-04-04T10:03:33.027Z</time></trkpt><trkpt lat="42.5573683" lon="13.3738683"><ele>1338.0</ele><time>2026-04-04T10:03:34.027Z</time></trkpt><trkpt lat="42.5572867" lon="13.374015"><ele>1338.0</ele><time>2026-04-04T10:03:35.027Z</time></trkpt><trkpt lat="42.5572117" lon="13.3741683"><ele>1338.0</ele><time>2026-04-04T10:03:36.027Z</time></trkpt><trkpt lat="42.5571483" lon="13.3743317"><ele>1338.0</ele><time>2026-04-04T10:03:37.027Z</time></trkpt><trkpt lat="42.5570967" lon="13.3745"><ele>1338.0</ele><time>2026-04-04T10:03:38.027Z</time></trkpt><trkpt lat="42.5570483" lon="13.3746783"><ele>1338.0</ele><time>2026-04-04T10:03:39.027Z</time></trkpt><trkpt lat="42.5570033" lon="13.3748567"><ele>1338.5</ele><time>2026-04-04T10:03:40.027Z</time></trkpt><trkpt lat="42.5569483" lon="13.375045"><ele>1339.0</ele><time>2026-04-04T10:03:41.027Z</time></trkpt><trkpt lat="42.55689" lon="13.3752467"><ele>1339.5</ele><time>2026-04-04T10:03:42.027Z</time></trkpt><trkpt lat="42.556825" lon="13.3754067"><ele>1340.0</ele><time>2026-04-04T10:03:43.027Z</time></trkpt><trkpt lat="42.556735" lon="13.3755583"><ele>1340.0</ele><time>2026-04-04T10:03:44.027Z</time></trkpt><trkpt lat="42.556645" lon="13.37566"><ele>1340.0</ele><time>2026-04-04T10:03:45.027Z</time></trkpt><trkpt lat="42.5565517" lon="13.3757267"><ele>1340.0</ele><time>2026-04-04T10:03:46.027Z</time></trkpt><trkpt lat="42.55644" lon="13.3757817"><ele>1340.0</ele><time>2026-04-04T10:03:47.027Z</time></trkpt><trkpt lat="42.5563383" lon="13.375835"><ele>1340.0</ele><time>2026-04-04T10:03:48.027Z</time></trkpt><trkpt lat="42.5562383" lon="13.3758867"><ele>1340.0</ele><time>2026-04-04T10:03:49.027Z</time></trkpt><trkpt lat="42.5561567" lon="13.3759583"><ele>1340.0</ele><time>2026-04-04T10:03:50.027Z</time></trkpt><trkpt lat="42.5560733" lon="13.376065"><ele>1340.0</ele><time>2026-04-04T10:03:51.027Z</time></trkpt><trkpt lat="42.556" lon="13.3761983"><ele>1340.0</ele><time>2026-04-04T10:03:52.027Z</time></trkpt><trkpt lat="42.5559367" lon="13.3763333"><ele>1339.5</ele><time>2026-04-04T10:03:53.027Z</time></trkpt><trkpt lat="42.5558783" lon="13.3764683"><ele>1339.0</ele><time>2026-04-04T10:03:54.026Z</time></trkpt><trkpt lat="42.5558183" lon="13.376595"><ele>1338.5</ele><time>2026-04-04T10:03:55.027Z</time></trkpt><trkpt lat="42.5557533" lon="13.3767267"><ele>1338.0</ele><time>2026-04-04T10:03:56.027Z</time></trkpt><trkpt lat="42.555695" lon="13.3768583"><ele>1338.0</ele><time>2026-04-04T10:03:57.027Z</time></trkpt><trkpt lat="42.55564" lon="13.376985"><ele>1338.0</ele><time>2026-04-04T10:03:58.027Z</time></trkpt><trkpt lat="42.5555817" lon="13.3771317"><ele>1338.0</ele><time>2026-04-04T10:03:59.027Z</time></trkpt><trkpt lat="42.55552" lon="13.3772717"><ele>1338.0</ele><time>2026-04-04T10:04:00.027Z</time></trkpt><trkpt lat="42.555455" lon="13.377415"><ele>1338.0</ele><time>2026-04-04T10:04:01.027Z</time></trkpt><trkpt lat="42.5554" lon="13.3775483"><ele>1338.0</ele><time>2026-04-04T10:04:02.027Z</time></trkpt><trkpt lat="42.5553433" lon="13.377685"><ele>1338.0</ele><time>2026-04-04T10:04:03.027Z</time></trkpt><trkpt lat="42.5552983" lon="13.3778083"><ele>1338.0</ele><time>2026-04-04T10:04:04.027Z</time></trkpt><trkpt lat="42.5552617" lon="13.377935"><ele>1338.0</ele><time>2026-04-04T10:04:05.027Z</time></trkpt><trkpt lat="42.5552333" lon="13.3780767"><ele>1338.0</ele><time>2026-04-04T10:04:06.027Z</time></trkpt><trkpt lat="42.555215" lon="13.3782267"><ele>1338.0</ele><time>2026-04-04T10:04:07.027Z</time></trkpt><trkpt lat="42.5552217" lon="13.37838"><ele>1338.0</ele><time>2026-04-04T10:04:08.027Z</time></trkpt><trkpt lat="42.55525" lon="13.3785267"><ele>1338.0</ele><time>2026-04-04T10:04:09.027Z</time></trkpt><trkpt lat="42.5552967" lon="13.3786717"><ele>1338.0</ele><time>2026-04-04T10:04:10.027Z</time></trkpt><trkpt lat="42.5553617" lon="13.3788083"><ele>1338.0</ele><time>2026-04-04T10:04:11.027Z</time></trkpt><trkpt lat="42.5554117" lon="13.37894"><ele>1338.0</ele><time>2026-04-04T10:04:12.026Z</time></trkpt><trkpt lat="42.5554417" lon="13.379065"><ele>1338.0</ele><time>2026-04-04T10:04:13.026Z</time></trkpt><trkpt lat="42.5554483" lon="13.379185"><ele>1338.0</ele><time>2026-04-04T10:04:14.027Z</time></trkpt><trkpt lat="42.5554433" lon="13.3792933"><ele>1338.1666666666667</ele><time>2026-04-04T10:04:15.027Z</time></trkpt><trkpt lat="42.5554167" lon="13.3793883"><ele>1338.3333333333333</ele><time>2026-04-04T10:04:16.026Z</time></trkpt><trkpt lat="42.5553717" lon="13.3794767"><ele>1338.5</ele><time>2026-04-04T10:04:17.027Z</time></trkpt><trkpt lat="42.5553183" lon="13.37956"><ele>1338.6666666666665</ele><time>2026-04-04T10:04:18.027Z</time></trkpt><trkpt lat="42.5552417" lon="13.3796317"><ele>1338.8333333333333</ele><time>2026-04-04T10:04:19.027Z</time></trkpt><trkpt lat="42.555165" lon="13.379695"><ele>1339.0</ele><time>2026-04-04T10:04:20.027Z</time></trkpt><trkpt lat="42.5550767" lon="13.3797483"><ele>1341.5</ele><time>2026-04-04T10:04:21.027Z</time></trkpt><trkpt lat="42.55497" lon="13.3797883"><ele>1344.0</ele><time>2026-04-04T10:04:22.026Z</time></trkpt><trkpt lat="42.5548467" lon="13.3798267"><ele>1346.5</ele><time>2026-04-04T10:04:23.027Z</time></trkpt><trkpt lat="42.5547133" lon="13.3798617"><ele>1349.0</ele><time>2026-04-04T10:04:24.027Z</time></trkpt><trkpt lat="42.55458" lon="13.3799133"><ele>1347.5</ele><time>2026-04-04T10:04:25.027Z</time></trkpt><trkpt lat="42.554435" lon="13.3799567"><ele>1346.0</ele><time>2026-04-04T10:04:26.027Z</time></trkpt><trkpt lat="42.554285" lon="13.379995"><ele>1344.5</ele><time>2026-04-04T10:04:27.027Z</time></trkpt><trkpt lat="42.5541467" lon="13.380035"><ele>1343.0</ele><time>2026-04-04T10:04:28.027Z</time></trkpt><trkpt lat="42.5540017" lon="13.3800933"><ele>1343.0</ele><time>2026-04-04T10:04:29.027Z</time></trkpt><trkpt lat="42.5538817" lon="13.3801633"><ele>1343.0</ele><time>2026-04-04T10:04:30.027Z</time></trkpt><trkpt lat="42.5537767" lon="13.380245"><ele>1343.0</ele><time>2026-04-04T10:04:31.027Z</time></trkpt><trkpt lat="42.5536817" lon="13.3803383"><ele>1343.0</ele><time>2026-04-04T10:04:32.027Z</time></trkpt><trkpt lat="42.5536217" lon="13.3804617"><ele>1341.25</ele><time>2026-04-04T10:04:33.027Z</time></trkpt><trkpt lat="42.5535767" lon="13.3806133"><ele>1339.5</ele><time>2026-04-04T10:04:34.027Z</time></trkpt><trkpt lat="42.55357" lon="13.3807783"><ele>1337.75</ele><time>2026-04-04T10:04:35.027Z</time></trkpt><trkpt lat="42.5535767" lon="13.380955"><ele>1336.0</ele><time>2026-04-04T10:04:36.027Z</time></trkpt><trkpt lat="42.553595" lon="13.3811217"><ele>1336.0</ele><time>2026-04-04T10:04:37.027Z</time></trkpt><trkpt lat="42.55361" lon="13.3812833"><ele>1336.0</ele><time>2026-04-04T10:04:38.027Z</time></trkpt><trkpt lat="42.553605" lon="13.3814417"><ele>1336.0</ele><time>2026-04-04T10:04:39.027Z</time></trkpt><trkpt lat="42.553585" lon="13.3816"><ele>1336.0</ele><time>2026-04-04T10:04:40.027Z</time></trkpt><trkpt lat="42.5535517" lon="13.3817333"><ele>1336.4</ele><time>2026-04-04T10:04:41.027Z</time></trkpt><trkpt lat="42.5534983" lon="13.3818383"><ele>1336.8</ele><time>2026-04-04T10:04:42.027Z</time></trkpt><trkpt lat="42.5534183" lon="13.3819183"><ele>1337.2</ele><time>2026-04-04T10:04:43.027Z</time></trkpt><trkpt lat="42.55333" lon="13.381965"><ele>1337.6000000000001</ele><time>2026-04-04T10:04:44.027Z</time></trkpt><trkpt lat="42.5532233" lon="13.3819783"><ele>1338.0</ele><time>2026-04-04T10:04:45.027Z</time></trkpt><trkpt lat="42.5530967" lon="13.3819633"><ele>1338.0</ele><time>2026-04-04T10:04:46.027Z</time></trkpt><trkpt lat="42.55296" lon="13.3819417"><ele>1338.0</ele><time>2026-04-04T10:04:47.027Z</time></trkpt><trkpt lat="42.5528367" lon="13.3819217"><ele>1338.0</ele><time>2026-04-04T10:04:48.027Z</time></trkpt><trkpt lat="42.55271" lon="13.3818833"><ele>1338.0</ele><time>2026-04-04T10:04:49.026Z</time></trkpt><trkpt lat="42.5525817" lon="13.3818583"><ele>1338.25</ele><time>2026-04-04T10:04:50.027Z</time></trkpt><trkpt lat="42.5524433" lon="13.38183"><ele>1338.5</ele><time>2026-04-04T10:04:51.027Z</time></trkpt><trkpt lat="42.5523133" lon="13.38181"><ele>1338.75</ele><time>2026-04-04T10:04:52.027Z</time></trkpt><trkpt lat="42.55217" lon="13.3817933"><ele>1339.0</ele><time>2026-04-04T10:04:53.027Z</time></trkpt><trkpt lat="42.5520283" lon="13.3817783"><ele>1339.0</ele><time>2026-04-04T10:04:54.027Z</time></trkpt><trkpt lat="42.5518883" lon="13.3817617"><ele>1339.0</ele><time>2026-04-04T10:04:55.027Z</time></trkpt><trkpt lat="42.55174" lon="13.3817483"><ele>1339.0</ele><time>2026-04-04T10:04:56.026Z</time></trkpt><trkpt lat="42.5515867" lon="13.3817317"><ele>1339.0</ele><time>2026-04-04T10:04:57.027Z</time></trkpt><trkpt lat="42.5514367" lon="13.381725"><ele>1339.0</ele><time>2026-04-04T10:04:58.027Z</time></trkpt><trkpt lat="42.551295" lon="13.3817283"><ele>1339.0</ele><time>2026-04-04T10:04:59.027Z</time></trkpt><trkpt lat="42.5511483" lon="13.3817333"><ele>1339.0</ele><time>2026-04-04T10:05:00.027Z</time></trkpt><trkpt lat="42.5510067" lon="13.381755"><ele>1339.0</ele><time>2026-04-04T10:05:01.027Z</time></trkpt><trkpt lat="42.5508617" lon="13.381775"><ele>1340.0</ele><time>2026-04-04T10:05:02.027Z</time></trkpt><trkpt lat="42.5507133" lon="13.3817983"><ele>1341.0</ele><time>2026-04-04T10:05:03.027Z</time></trkpt><trkpt lat="42.5505733" lon="13.381825"><ele>1342.0</ele><time>2026-04-04T10:05:04.026Z</time></trkpt><trkpt lat="42.5504333" lon="13.38185"><ele>1343.0</ele><time>2026-04-04T10:05:05.027Z</time></trkpt><trkpt lat="42.55029" lon="13.3818717"><ele>1343.0</ele><time>2026-04-04T10:05:06.027Z</time></trkpt><trkpt lat="42.550145" lon="13.3819017"><ele>1343.0</ele><time>2026-04-04T10:05:07.027Z</time></trkpt><trkpt lat="42.5500183" lon="13.3819267"><ele>1343.0</ele><time>2026-04-04T10:05:08.026Z</time></trkpt><trkpt lat="42.5499017" lon="13.3819467"><ele>1343.0</ele><time>2026-04-04T10:05:09.027Z</time></trkpt><trkpt lat="42.5497917" lon="13.381985"><ele>1343.0</ele><time>2026-04-04T10:05:10.027Z</time></trkpt><trkpt lat="42.549695" lon="13.382055"><ele>1343.0</ele><time>2026-04-04T10:05:11.027Z</time></trkpt><trkpt lat="42.5495867" lon="13.3821483"><ele>1343.0</ele><time>2026-04-04T10:05:12.027Z</time></trkpt><trkpt lat="42.549475" lon="13.382255"><ele>1343.0</ele><time>2026-04-04T10:05:13.027Z</time></trkpt><trkpt lat="42.5493667" lon="13.38236"><ele>1343.0</ele><time>2026-04-04T10:05:14.027Z</time></trkpt><trkpt lat="42.549255" lon="13.3824717"><ele>1343.0</ele><time>2026-04-04T10:05:15.027Z</time></trkpt><trkpt lat="42.5491383" lon="13.3825867"><ele>1343.0</ele><time>2026-04-04T10:05:16.027Z</time></trkpt><trkpt lat="42.5490167" lon="13.3827033"><ele>1343.0</ele><time>2026-04-04T10:05:17.027Z</time></trkpt><trkpt lat="42.5489" lon="13.3828183"><ele>1343.0</ele><time>2026-04-04T10:05:18.027Z</time></trkpt><trkpt lat="42.548785" lon="13.3829367"><ele>1343.0</ele><time>2026-04-04T10:05:19.027Z</time></trkpt><trkpt lat="42.5486833" lon="13.3830533"><ele>1343.0</ele><time>2026-04-04T10:05:20.027Z</time></trkpt><trkpt lat="42.5485717" lon="13.383165"><ele>1343.0</ele><time>2026-04-04T10:05:21.027Z</time></trkpt><trkpt lat="42.5484533" lon="13.3832817"><ele>1343.25</ele><time>2026-04-04T10:05:22.027Z</time></trkpt><trkpt lat="42.548335" lon="13.383395"><ele>1343.5</ele><time>2026-04-04T10:05:23.027Z</time></trkpt><trkpt lat="42.54821" lon="13.3835117"><ele>1343.75</ele><time>2026-04-04T10:05:24.027Z</time></trkpt><trkpt lat="42.5480933" lon="13.3836233"><ele>1344.0</ele><time>2026-04-04T10:05:25.027Z</time></trkpt><trkpt lat="42.54798" lon="13.3837433"><ele>1342.75</ele><time>2026-04-04T10:05:26.027Z</time></trkpt><trkpt lat="42.5478717" lon="13.38387"><ele>1341.5</ele><time>2026-04-04T10:05:27.027Z</time></trkpt><trkpt lat="42.5477817" lon="13.384005"><ele>1340.25</ele><time>2026-04-04T10:05:28.027Z</time></trkpt><trkpt lat="42.5477017" lon="13.38415"><ele>1339.0</ele><time>2026-04-04T10:05:29.026Z</time></trkpt><trkpt lat="42.5476383" lon="13.3843067"><ele>1339.0</ele><time>2026-04-04T10:05:30.027Z</time></trkpt><trkpt lat="42.5475917" lon="13.3844617"><ele>1339.0</ele><time>2026-04-04T10:05:31.027Z</time></trkpt><trkpt lat="42.5475533" lon="13.3846217"><ele>1339.0</ele><time>2026-04-04T10:05:32.026Z</time></trkpt><trkpt lat="42.5475067" lon="13.3847933"><ele>1339.0</ele><time>2026-04-04T10:05:33.027Z</time></trkpt><trkpt lat="42.5474533" lon="13.3849667"><ele>1339.25</ele><time>2026-04-04T10:05:34.027Z</time></trkpt><trkpt lat="42.5474" lon="13.385135"><ele>1339.5</ele><time>2026-04-04T10:05:35.027Z</time></trkpt><trkpt lat="42.5473467" lon="13.385305"><ele>1339.75</ele><time>2026-04-04T10:05:36.027Z</time></trkpt><trkpt lat="42.5472983" lon="13.38547"><ele>1340.0</ele><time>2026-04-04T10:05:37.026Z</time></trkpt><trkpt lat="42.547255" lon="13.38563"><ele>1340.5</ele><time>2026-04-04T10:05:38.027Z</time></trkpt><trkpt lat="42.547205" lon="13.3858117"><ele>1341.0</ele><time>2026-04-04T10:05:39.027Z</time></trkpt><trkpt lat="42.54715" lon="13.3859933"><ele>1341.5</ele><time>2026-04-04T10:05:40.027Z</time></trkpt><trkpt lat="42.5470967" lon="13.38618"><ele>1342.0</ele><time>2026-04-04T10:05:41.027Z</time></trkpt><trkpt lat="42.5470417" lon="13.38637"><ele>1340.75</ele><time>2026-04-04T10:05:42.027Z</time></trkpt><trkpt lat="42.546985" lon="13.38656"><ele>1339.5</ele><time>2026-04-04T10:05:43.027Z</time></trkpt><trkpt lat="42.5469333" lon="13.38675"><ele>1338.25</ele><time>2026-04-04T10:05:44.027Z</time></trkpt><trkpt lat="42.54688" lon="13.3869317"><ele>1337.0</ele><time>2026-04-04T10:05:45.027Z</time></trkpt><trkpt lat="42.5468283" lon="13.38711"><ele>1337.0</ele><time>2026-04-04T10:05:46.027Z</time></trkpt><trkpt lat="42.5467683" lon="13.3872933"><ele>1337.0</ele><time>2026-04-04T10:05:47.027Z</time></trkpt><trkpt lat="42.546715" lon="13.387475"><ele>1337.0</ele><time>2026-04-04T10:05:48.027Z</time></trkpt><trkpt lat="42.5466567" lon="13.387665"><ele>1337.0</ele><time>2026-04-04T10:05:49.027Z</time></trkpt><trkpt lat="42.5465983" lon="13.3878567"><ele>1338.25</ele><time>2026-04-04T10:05:50.027Z</time></trkpt><trkpt lat="42.546535" lon="13.3880433"><ele>1339.5</ele><time>2026-04-04T10:05:51.027Z</time></trkpt><trkpt lat="42.5464733" lon="13.3882233"><ele>1340.75</ele><time>2026-04-04T10:05:52.027Z</time></trkpt><trkpt lat="42.5464" lon="13.3883983"><ele>1342.0</ele><time>2026-04-04T10:05:53.027Z</time></trkpt><trkpt lat="42.5463233" lon="13.3885483"><ele>1342.0</ele><time>2026-04-04T10:05:54.027Z</time></trkpt><trkpt lat="42.5462283" lon="13.3886983"><ele>1342.0</ele><time>2026-04-04T10:05:55.027Z</time></trkpt><trkpt lat="42.5461167" lon="13.3888533"><ele>1342.0</ele><time>2026-04-04T10:05:56.027Z</time></trkpt><trkpt lat="42.5460167" lon="13.3890033"><ele>1342.3333333333333</ele><time>2026-04-04T10:05:57.027Z</time></trkpt><trkpt lat="42.5459167" lon="13.38916"><ele>1342.6666666666667</ele><time>2026-04-04T10:05:58.027Z</time></trkpt><trkpt lat="42.545815" lon="13.3893183"><ele>1343.0</ele><time>2026-04-04T10:05:59.027Z</time></trkpt><trkpt lat="42.545715" lon="13.3894767"><ele>1343.0</ele><time>2026-04-04T10:06:00.027Z</time></trkpt><trkpt lat="42.5456083" lon="13.3896417"><ele>1343.0</ele><time>2026-04-04T10:06:01.027Z</time></trkpt><trkpt lat="42.5455083" lon="13.3898067"><ele>1343.0</ele><time>2026-04-04T10:06:02.027Z</time></trkpt><trkpt lat="42.5454" lon="13.3899633"><ele>1341.0</ele><time>2026-04-04T10:06:03.027Z</time></trkpt><trkpt lat="42.5452917" lon="13.3901217"><ele>1339.0</ele><time>2026-04-04T10:06:04.027Z</time></trkpt><trkpt lat="42.5451783" lon="13.39029"><ele>1337.0</ele><time>2026-04-04T10:06:05.027Z</time></trkpt><trkpt lat="42.5450667" lon="13.3904583"><ele>1338.3333333333335</ele><time>2026-04-04T10:06:06.027Z</time></trkpt><trkpt lat="42.5449517" lon="13.3906317"><ele>1339.6666666666667</ele><time>2026-04-04T10:06:07.027Z</time></trkpt><trkpt lat="42.5448467" lon="13.3907983"><ele>1341.0</ele><time>2026-04-04T10:06:08.027Z</time></trkpt><trkpt lat="42.544745" lon="13.3909583"><ele>1341.0</ele><time>2026-04-04T10:06:09.026Z</time></trkpt><trkpt lat="42.5446317" lon="13.3911283"><ele>1341.0</ele><time>2026-04-04T10:06:10.027Z</time></trkpt><trkpt lat="42.5445283" lon="13.3912933"><ele>1341.0</ele><time>2026-04-04T10:06:11.027Z</time></trkpt><trkpt lat="42.5444167" lon="13.3914633"><ele>1340.6666666666667</ele><time>2026-04-04T10:06:12.027Z</time></trkpt><trkpt lat="42.5443017" lon="13.391635"><ele>1340.3333333333335</ele><time>2026-04-04T10:06:13.027Z</time></trkpt><trkpt lat="42.544185" lon="13.3918117"><ele>1340.0</ele><time>2026-04-04T10:06:14.027Z</time></trkpt><trkpt lat="42.544065" lon="13.391985"><ele>1340.0</ele><time>2026-04-04T10:06:15.027Z</time></trkpt><trkpt lat="42.54395" lon="13.3921617"><ele>1340.0</ele><time>2026-04-04T10:06:16.027Z</time></trkpt><trkpt lat="42.5438383" lon="13.3923317"><ele>1340.0</ele><time>2026-04-04T10:06:17.027Z</time></trkpt><trkpt lat="42.543725" lon="13.3924983"><ele>1339.0</ele><time>2026-04-04T10:06:18.027Z</time></trkpt><trkpt lat="42.54362" lon="13.3926633"><ele>1338.0</ele><time>2026-04-04T10:06:19.027Z</time></trkpt><trkpt lat="42.543515" lon="13.3928317"><ele>1337.0</ele><time>2026-04-04T10:06:20.027Z</time></trkpt><trkpt lat="42.5434217" lon="13.39299"><ele>1339.6666666666667</ele><time>2026-04-04T10:06:21.027Z</time></trkpt><trkpt lat="42.54332" lon="13.3931517"><ele>1342.3333333333333</ele><time>2026-04-04T10:06:22.027Z</time></trkpt><trkpt lat="42.54321" lon="13.3933117"><ele>1345.0</ele><time>2026-04-04T10:06:23.027Z</time></trkpt><trkpt lat="42.5430983" lon="13.393465"><ele>1345.0</ele><time>2026-04-04T10:06:24.027Z</time></trkpt><trkpt lat="42.5429717" lon="13.3935867"><ele>1345.0</ele><time>2026-04-04T10:06:25.027Z</time></trkpt><trkpt lat="42.5428433" lon="13.3936817"><ele>1345.0</ele><time>2026-04-04T10:06:26.027Z</time></trkpt><trkpt lat="42.5426983" lon="13.3937617"><ele>1346.6666666666665</ele><time>2026-04-04T10:06:27.027Z</time></trkpt><trkpt lat="42.5425483" lon="13.3938483"><ele>1348.3333333333333</ele><time>2026-04-04T10:06:28.027Z</time></trkpt><trkpt lat="42.542405" lon="13.393935"><ele>1350.0</ele><time>2026-04-04T10:06:29.027Z</time></trkpt><trkpt lat="42.5422533" lon="13.394015"><ele>1350.0</ele><time>2026-04-04T10:06:30.027Z</time></trkpt><trkpt lat="42.5421033" lon="13.39409"><ele>1350.0</ele><time>2026-04-04T10:06:31.027Z</time></trkpt><trkpt lat="42.5419583" lon="13.394155"><ele>1350.0</ele><time>2026-04-04T10:06:32.027Z</time></trkpt><trkpt lat="42.54182" lon="13.39422"><ele>1347.75</ele><time>2026-04-04T10:06:33.027Z</time></trkpt><trkpt lat="42.541685" lon="13.394295"><ele>1345.5</ele><time>2026-04-04T10:06:34.027Z</time></trkpt><trkpt lat="42.5415467" lon="13.3943617"><ele>1343.25</ele><time>2026-04-04T10:06:35.027Z</time></trkpt><trkpt lat="42.5414133" lon="13.394455"><ele>1341.0</ele><time>2026-04-04T10:06:36.027Z</time></trkpt><trkpt lat="42.5413017" lon="13.3945667"><ele>1340.0</ele><time>2026-04-04T10:06:37.027Z</time></trkpt><trkpt lat="42.541185" lon="13.3947017"><ele>1339.0</ele><time>2026-04-04T10:06:38.027Z</time></trkpt><trkpt lat="42.5410767" lon="13.39485"><ele>1338.0</ele><time>2026-04-04T10:06:39.027Z</time></trkpt><trkpt lat="42.5409717" lon="13.395005"><ele>1338.0</ele><time>2026-04-04T10:06:40.027Z</time></trkpt><trkpt lat="42.540885" lon="13.395155"><ele>1338.0</ele><time>2026-04-04T10:06:41.027Z</time></trkpt><trkpt lat="42.5408183" lon="13.3953083"><ele>1338.0</ele><time>2026-04-04T10:06:42.027Z</time></trkpt><trkpt lat="42.5407717" lon="13.3954733"><ele>1338.0</ele><time>2026-04-04T10:06:43.027Z</time></trkpt><trkpt lat="42.5407333" lon="13.3956517"><ele>1339.4</ele><time>2026-04-04T10:06:44.027Z</time></trkpt><trkpt lat="42.54071" lon="13.3958183"><ele>1340.8000000000002</ele><time>2026-04-04T10:06:45.027Z</time></trkpt><trkpt lat="42.540685" lon="13.395965"><ele>1342.2</ele><time>2026-04-04T10:06:46.027Z</time></trkpt><trkpt lat="42.5406333" lon="13.39609"><ele>1343.6</ele><time>2026-04-04T10:06:47.027Z</time></trkpt><trkpt lat="42.5405583" lon="13.39619"><ele>1345.0</ele><time>2026-04-04T10:06:48.027Z</time></trkpt><trkpt lat="42.5404517" lon="13.396255"><ele>1342.25</ele><time>2026-04-04T10:06:49.027Z</time></trkpt><trkpt lat="42.5403317" lon="13.396295"><ele>1339.5</ele><time>2026-04-04T10:06:50.027Z</time></trkpt><trkpt lat="42.5402117" lon="13.3963033"><ele>1336.75</ele><time>2026-04-04T10:06:51.027Z</time></trkpt><trkpt lat="42.540095" lon="13.396315"><ele>1334.0</ele><time>2026-04-04T10:06:52.027Z</time></trkpt><trkpt lat="42.5399817" lon="13.39633"><ele>1334.4</ele><time>2026-04-04T10:06:53.027Z</time></trkpt><trkpt lat="42.5398683" lon="13.3963483"><ele>1334.8000000000002</ele><time>2026-04-04T10:06:54.027Z</time></trkpt><trkpt lat="42.5397583" lon="13.3963817"><ele>1335.1999999999998</ele><time>2026-04-04T10:06:55.027Z</time></trkpt><trkpt lat="42.53966" lon="13.3964433"><ele>1335.6</ele><time>2026-04-04T10:06:56.026Z</time></trkpt><trkpt lat="42.53957" lon="13.396535"><ele>1336.0</ele><time>2026-04-04T10:06:57.027Z</time></trkpt><trkpt lat="42.5394883" lon="13.39665"><ele>1336.0</ele><time>2026-04-04T10:06:58.027Z</time></trkpt><trkpt lat="42.5394033" lon="13.396775"><ele>1336.0</ele><time>2026-04-04T10:06:59.027Z</time></trkpt><trkpt lat="42.53931" lon="13.3969"><ele>1336.0</ele><time>2026-04-04T10:07:00.027Z</time></trkpt><trkpt lat="42.5392167" lon="13.3969967"><ele>1336.0</ele><time>2026-04-04T10:07:01.027Z</time></trkpt><trkpt lat="42.539115" lon="13.39707"><ele>1336.0</ele><time>2026-04-04T10:07:02.027Z</time></trkpt><trkpt lat="42.539" lon="13.3971183"><ele>1336.0</ele><time>2026-04-04T10:07:03.027Z</time></trkpt><trkpt lat="42.53889" lon="13.3971567"><ele>1336.0</ele><time>2026-04-04T10:07:04.027Z</time></trkpt><trkpt lat="42.5387817" lon="13.3972033"><ele>1336.0</ele><time>2026-04-04T10:07:05.027Z</time></trkpt><trkpt lat="42.5386833" lon="13.397265"><ele>1336.0</ele><time>2026-04-04T10:07:06.027Z</time></trkpt><trkpt lat="42.5385933" lon="13.3973583"><ele>1336.0</ele><time>2026-04-04T10:07:07.027Z</time></trkpt><trkpt lat="42.53851" lon="13.397475"><ele>1336.0</ele><time>2026-04-04T10:07:08.027Z</time></trkpt><trkpt lat="42.538435" lon="13.397615"><ele>1336.0</ele><time>2026-04-04T10:07:09.027Z</time></trkpt><trkpt lat="42.5383617" lon="13.397755"><ele>1336.0</ele><time>2026-04-04T10:07:10.027Z</time></trkpt><trkpt lat="42.5382817" lon="13.397895"><ele>1336.0</ele><time>2026-04-04T10:07:11.027Z</time></trkpt><trkpt lat="42.5381933" lon="13.3979983"><ele>1336.0</ele><time>2026-04-04T10:07:12.027Z</time></trkpt><trkpt lat="42.5380883" lon="13.3980817"><ele>1336.0</ele><time>2026-04-04T10:07:13.027Z</time></trkpt><trkpt lat="42.5379767" lon="13.398135"><ele>1336.75</ele><time>2026-04-04T10:07:14.027Z</time></trkpt><trkpt lat="42.53786" lon="13.398175"><ele>1337.5</ele><time>2026-04-04T10:07:15.027Z</time></trkpt><trkpt lat="42.5377383" lon="13.3982367"><ele>1338.25</ele><time>2026-04-04T10:07:16.027Z</time></trkpt><trkpt lat="42.5376183" lon="13.3983017"><ele>1339.0</ele><time>2026-04-04T10:07:17.027Z</time></trkpt><trkpt lat="42.537505" lon="13.3984"><ele>1339.0</ele><time>2026-04-04T10:07:18.027Z</time></trkpt><trkpt lat="42.5373967" lon="13.3985033"><ele>1339.0</ele><time>2026-04-04T10:07:19.027Z</time></trkpt><trkpt lat="42.5372967" lon="13.3986033"><ele>1339.0</ele><time>2026-04-04T10:07:20.027Z</time></trkpt><trkpt lat="42.5372017" lon="13.3987017"><ele>1339.0</ele><time>2026-04-04T10:07:21.027Z</time></trkpt><trkpt lat="42.53711" lon="13.39881"><ele>1337.25</ele><time>2026-04-04T10:07:22.027Z</time></trkpt><trkpt lat="42.53703" lon="13.3989233"><ele>1335.5</ele><time>2026-04-04T10:07:23.027Z</time></trkpt><trkpt lat="42.53696" lon="13.3990483"><ele>1333.75</ele><time>2026-04-04T10:07:24.027Z</time></trkpt><trkpt lat="42.5368967" lon="13.3991833"><ele>1332.0</ele><time>2026-04-04T10:07:25.027Z</time></trkpt><trkpt lat="42.5368467" lon="13.399335"><ele>1332.0</ele><time>2026-04-04T10:07:26.027Z</time></trkpt><trkpt lat="42.5368067" lon="13.3995017"><ele>1332.0</ele><time>2026-04-04T10:07:27.027Z</time></trkpt><trkpt lat="42.5367717" lon="13.3996733"><ele>1332.0</ele><time>2026-04-04T10:07:28.027Z</time></trkpt><trkpt lat="42.5367483" lon="13.3998567"><ele>1332.0</ele><time>2026-04-04T10:07:29.027Z</time></trkpt><trkpt lat="42.5367317" lon="13.400045"><ele>1334.0</ele><time>2026-04-04T10:07:30.026Z</time></trkpt><trkpt lat="42.53672" lon="13.4002367"><ele>1336.0</ele><time>2026-04-04T10:07:31.027Z</time></trkpt><trkpt lat="42.5367017" lon="13.40042"><ele>1338.0</ele><time>2026-04-04T10:07:32.027Z</time></trkpt><trkpt lat="42.5366833" lon="13.4006067"><ele>1340.0</ele><time>2026-04-04T10:07:33.027Z</time></trkpt><trkpt lat="42.53666" lon="13.4007917"><ele>1340.5</ele><time>2026-04-04T10:07:34.027Z</time></trkpt><trkpt lat="42.5366367" lon="13.4009733"><ele>1341.0</ele><time>2026-04-04T10:07:35.027Z</time></trkpt><trkpt lat="42.5366133" lon="13.401155"><ele>1341.5</ele><time>2026-04-04T10:07:36.027Z</time></trkpt><trkpt lat="42.53659" lon="13.4013383"><ele>1342.0</ele><time>2026-04-04T10:07:37.027Z</time></trkpt><trkpt lat="42.536565" lon="13.40151"><ele>1342.5</ele><time>2026-04-04T10:07:38.027Z</time></trkpt><trkpt lat="42.53651" lon="13.4016667"><ele>1343.0</ele><time>2026-04-04T10:07:39.027Z</time></trkpt><trkpt lat="42.5364517" lon="13.4018067"><ele>1343.5</ele><time>2026-04-04T10:07:40.027Z</time></trkpt><trkpt lat="42.536385" lon="13.4019367"><ele>1344.0</ele><time>2026-04-04T10:07:41.027Z</time></trkpt><trkpt lat="42.5363133" lon="13.4020667"><ele>1346.0</ele><time>2026-04-04T10:07:42.027Z</time></trkpt><trkpt lat="42.5362467" lon="13.4021933"><ele>1348.0</ele><time>2026-04-04T10:07:43.027Z</time></trkpt><trkpt lat="42.5361833" lon="13.4023267"><ele>1350.0</ele><time>2026-04-04T10:07:44.027Z</time></trkpt><trkpt lat="42.5361267" lon="13.4024583"><ele>1352.0</ele><time>2026-04-04T10:07:45.027Z</time></trkpt><trkpt lat="42.536065" lon="13.4025933"><ele>1346.75</ele><time>2026-04-04T10:07:46.027Z</time></trkpt><trkpt lat="42.5360033" lon="13.4027283"><ele>1341.5</ele><time>2026-04-04T10:07:47.027Z</time></trkpt><trkpt lat="42.53595" lon="13.4028783"><ele>1336.25</ele><time>2026-04-04T10:07:48.027Z</time></trkpt><trkpt lat="42.5359117" lon="13.403035"><ele>1331.0</ele><time>2026-04-04T10:07:49.026Z</time></trkpt><trkpt lat="42.535885" lon="13.4032017"><ele>1330.75</ele><time>2026-04-04T10:07:50.027Z</time></trkpt><trkpt lat="42.5358667" lon="13.4033767"><ele>1330.5</ele><time>2026-04-04T10:07:51.027Z</time></trkpt><trkpt lat="42.535865" lon="13.4035517"><ele>1330.25</ele><time>2026-04-04T10:07:52.027Z</time></trkpt><trkpt lat="42.5358667" lon="13.4037317"><ele>1330.0</ele><time>2026-04-04T10:07:53.027Z</time></trkpt><trkpt lat="42.5358933" lon="13.4039133"><ele>1329.5</ele><time>2026-04-04T10:07:54.027Z</time></trkpt><trkpt lat="42.5359117" lon="13.404105"><ele>1329.0</ele><time>2026-04-04T10:07:55.026Z</time></trkpt><trkpt lat="42.535935" lon="13.40428"><ele>1328.5</ele><time>2026-04-04T10:07:56.027Z</time></trkpt><trkpt lat="42.5359567" lon="13.4044567"><ele>1328.0</ele><time>2026-04-04T10:07:57.027Z</time></trkpt><trkpt lat="42.53598" lon="13.404625"><ele>1328.5</ele><time>2026-04-04T10:07:58.027Z</time></trkpt><trkpt lat="42.535995" lon="13.4047833"><ele>1329.0</ele><time>2026-04-04T10:07:59.027Z</time></trkpt><trkpt lat="42.53601" lon="13.4049433"><ele>1329.5</ele><time>2026-04-04T10:08:00.027Z</time></trkpt><trkpt lat="42.53602" lon="13.405095"><ele>1330.0</ele><time>2026-04-04T10:08:01.027Z</time></trkpt><trkpt lat="42.5360267" lon="13.40525"><ele>1330.0</ele><time>2026-04-04T10:08:02.027Z</time></trkpt><trkpt lat="42.5360233" lon="13.4053967"><ele>1330.0</ele><time>2026-04-04T10:08:03.027Z</time></trkpt><trkpt lat="42.535995" lon="13.405545"><ele>1330.0</ele><time>2026-04-04T10:08:04.027Z</time></trkpt><trkpt lat="42.5359583" lon="13.4056833"><ele>1330.0</ele><time>2026-04-04T10:08:05.027Z</time></trkpt><trkpt lat="42.53593" lon="13.4058183"><ele>1330.0</ele><time>2026-04-04T10:08:06.027Z</time></trkpt><trkpt lat="42.535885" lon="13.4059533"><ele>1330.0</ele><time>2026-04-04T10:08:07.027Z</time></trkpt><trkpt lat="42.535845" lon="13.4060917"><ele>1330.0</ele><time>2026-04-04T10:08:08.027Z</time></trkpt><trkpt lat="42.5358083" lon="13.4062333"><ele>1330.0</ele><time>2026-04-04T10:08:09.027Z</time></trkpt><trkpt lat="42.5357783" lon="13.4063833"><ele>1330.0</ele><time>2026-04-04T10:08:10.027Z</time></trkpt><trkpt lat="42.53576" lon="13.40654"><ele>1331.5</ele><time>2026-04-04T10:08:11.027Z</time></trkpt><trkpt lat="42.53574" lon="13.4067033"><ele>1333.0</ele><time>2026-04-04T10:08:12.028Z</time></trkpt><trkpt lat="42.5357217" lon="13.4068617"><ele>1334.5</ele><time>2026-04-04T10:08:13.028Z</time></trkpt><trkpt lat="42.5357067" lon="13.4070167"><ele>1336.0</ele><time>2026-04-04T10:08:14.028Z</time></trkpt><trkpt lat="42.5356917" lon="13.40717"><ele>1337.8</ele><time>2026-04-04T10:08:15.028Z</time></trkpt><trkpt lat="42.535675" lon="13.4073167"><ele>1339.6</ele><time>2026-04-04T10:08:16.028Z</time></trkpt><trkpt lat="42.5356633" lon="13.40745"><ele>1341.4</ele><time>2026-04-04T10:08:17.028Z</time></trkpt><trkpt lat="42.5356433" lon="13.40758"><ele>1343.2</ele><time>2026-04-04T10:08:18.028Z</time></trkpt><trkpt lat="42.535625" lon="13.40771"><ele>1345.0</ele><time>2026-04-04T10:08:19.028Z</time></trkpt><trkpt lat="42.53561" lon="13.4078433"><ele>1345.0</ele><time>2026-04-04T10:08:20.028Z</time></trkpt><trkpt lat="42.5356" lon="13.407975"><ele>1345.0</ele><time>2026-04-04T10:08:21.028Z</time></trkpt><trkpt lat="42.5355967" lon="13.4081067"><ele>1345.0</ele><time>2026-04-04T10:08:22.028Z</time></trkpt><trkpt lat="42.535595" lon="13.408245"><ele>1345.0</ele><time>2026-04-04T10:08:23.028Z</time></trkpt><trkpt lat="42.535605" lon="13.40839"><ele>1345.0</ele><time>2026-04-04T10:08:24.028Z</time></trkpt><trkpt lat="42.5356133" lon="13.40854"><ele>1344.6</ele><time>2026-04-04T10:08:25.028Z</time></trkpt><trkpt lat="42.5356233" lon="13.40869"><ele>1344.2</ele><time>2026-04-04T10:08:26.028Z</time></trkpt><trkpt lat="42.535635" lon="13.4088383"><ele>1343.8000000000002</ele><time>2026-04-04T10:08:27.028Z</time></trkpt><trkpt lat="42.5356383" lon="13.4089967"><ele>1343.4</ele><time>2026-04-04T10:08:28.028Z</time></trkpt><trkpt lat="42.535645" lon="13.4091283"><ele>1343.0</ele><time>2026-04-04T10:08:29.028Z</time></trkpt><trkpt lat="42.5356467" lon="13.4092567"><ele>1339.6000000000001</ele><time>2026-04-04T10:08:30.028Z</time></trkpt><trkpt lat="42.5356467" lon="13.40939"><ele>1336.2</ele><time>2026-04-04T10:08:31.028Z</time></trkpt><trkpt lat="42.5356317" lon="13.40952"><ele>1332.8</ele><time>2026-04-04T10:08:32.028Z</time></trkpt><trkpt lat="42.5356117" lon="13.4096333"><ele>1329.4</ele><time>2026-04-04T10:08:33.028Z</time></trkpt><trkpt lat="42.5355733" lon="13.4097383"><ele>1326.0</ele><time>2026-04-04T10:08:34.027Z</time></trkpt><trkpt lat="42.5355317" lon="13.4098483"><ele>1324.6</ele><time>2026-04-04T10:08:35.028Z</time></trkpt><trkpt lat="42.5354817" lon="13.4099583"><ele>1323.1999999999998</ele><time>2026-04-04T10:08:36.028Z</time></trkpt><trkpt lat="42.5354417" lon="13.4100617"><ele>1321.8000000000002</ele><time>2026-04-04T10:08:37.028Z</time></trkpt><trkpt lat="42.5353967" lon="13.410155"><ele>1320.4</ele><time>2026-04-04T10:08:38.028Z</time></trkpt><trkpt lat="42.535315" lon="13.4102533"><ele>1319.0</ele><time>2026-04-04T10:08:40.027Z</time></trkpt><trkpt lat="42.53523" lon="13.4103133"><ele>1319.0</ele><time>2026-04-04T10:08:42.028Z</time></trkpt><trkpt lat="42.5351583" lon="13.4103733"><ele>1319.0</ele><time>2026-04-04T10:08:44.028Z</time></trkpt><trkpt lat="42.5350883" lon="13.4104233"><ele>1319.0</ele><time>2026-04-04T10:08:46.028Z</time></trkpt><trkpt lat="42.5349667" lon="13.4104033"><ele>1319.0</ele><time>2026-04-04T10:08:48.028Z</time></trkpt><trkpt lat="42.5348867" lon="13.4103717"><ele>1319.0</ele><time>2026-04-04T10:08:49.028Z</time></trkpt><trkpt lat="42.5348167" lon="13.41033"><ele>1319.0</ele><time>2026-04-04T10:08:50.028Z</time></trkpt><trkpt lat="42.53474" lon="13.4102783"><ele>1319.0</ele><time>2026-04-04T10:08:51.028Z</time></trkpt><trkpt lat="42.53467" lon="13.4102283"><ele>1319.0</ele><time>2026-04-04T10:08:52.028Z</time></trkpt><trkpt lat="42.5346133" lon="13.410185"><ele>1319.0</ele><time>2026-04-04T10:08:53.028Z</time></trkpt><trkpt lat="42.5345467" lon="13.4101333"><ele>1319.0</ele><time>2026-04-04T10:08:55.028Z</time></trkpt><trkpt lat="42.5344617" lon="13.4101367"><ele>1319.0</ele><time>2026-04-04T10:15:38.028Z</time></trkpt><trkpt lat="42.534385" lon="13.4101"><ele>1319.0</ele><time>2026-04-04T10:15:40.028Z</time></trkpt><trkpt lat="42.5342933" lon="13.410075"><ele>1322.0</ele><time>2026-04-04T10:15:42.028Z</time></trkpt><trkpt lat="42.5341867" lon="13.410055"><ele>1325.0</ele><time>2026-04-04T10:15:44.028Z</time></trkpt><trkpt lat="42.5340883" lon="13.4100167"><ele>1328.0</ele><time>2026-04-04T10:15:46.028Z</time></trkpt><trkpt lat="42.5339717" lon="13.409985"><ele>1331.0</ele><time>2026-04-04T10:15:48.028Z</time></trkpt><trkpt lat="42.5339033" lon="13.4099767"><ele>1334.0</ele><time>2026-04-04T10:15:49.028Z</time></trkpt><trkpt lat="42.5338283" lon="13.40996"><ele>1336.6666666666667</ele><time>2026-04-04T10:15:50.028Z</time></trkpt><trkpt lat="42.5337117" lon="13.4099117"><ele>1339.3333333333335</ele><time>2026-04-04T10:15:52.028Z</time></trkpt><trkpt lat="42.5336483" lon="13.4098783"><ele>1342.0</ele><time>2026-04-04T10:15:53.028Z</time></trkpt><trkpt lat="42.5335783" lon="13.4098367"><ele>1344.6666666666667</ele><time>2026-04-04T10:15:54.028Z</time></trkpt><trkpt lat="42.533515" lon="13.409795"><ele>1347.3333333333333</ele><time>2026-04-04T10:15:55.028Z</time></trkpt><trkpt lat="42.5334483" lon="13.4097433"><ele>1350.0</ele><time>2026-04-04T10:15:56.028Z</time></trkpt><trkpt lat="42.5333867" lon="13.4097017"><ele>1346.0</ele><time>2026-04-04T10:15:57.028Z</time></trkpt><trkpt lat="42.5333217" lon="13.4096517"><ele>1342.0</ele><time>2026-04-04T10:15:58.028Z</time></trkpt><trkpt lat="42.5332533" lon="13.4096"><ele>1338.0</ele><time>2026-04-04T10:15:59.028Z</time></trkpt><trkpt lat="42.5331867" lon="13.4095533"><ele>1334.0</ele><time>2026-04-04T10:16:00.028Z</time></trkpt><trkpt lat="42.53312" lon="13.40951"><ele>1330.0</ele><time>2026-04-04T10:16:01.028Z</time></trkpt><trkpt lat="42.5330533" lon="13.409475"><ele>1326.0</ele><time>2026-04-04T10:16:02.028Z</time></trkpt><trkpt lat="42.5329867" lon="13.4094433"><ele>1322.0</ele><time>2026-04-04T10:16:03.028Z</time></trkpt><trkpt lat="42.5329183" lon="13.4094283"><ele>1322.0</ele><time>2026-04-04T10:16:04.028Z</time></trkpt><trkpt lat="42.532845" lon="13.4094283"><ele>1322.0</ele><time>2026-04-04T10:16:05.028Z</time></trkpt><trkpt lat="42.53277" lon="13.409445"><ele>1322.0</ele><time>2026-04-04T10:16:06.028Z</time></trkpt><trkpt lat="42.5326983" lon="13.4094733"><ele>1322.0</ele><time>2026-04-04T10:16:07.028Z</time></trkpt><trkpt lat="42.5326317" lon="13.409495"><ele>1322.0</ele><time>2026-04-04T10:16:08.028Z</time></trkpt><trkpt lat="42.5325617" lon="13.40951"><ele>1322.0</ele><time>2026-04-04T10:16:09.028Z</time></trkpt><trkpt lat="42.5324967" lon="13.4095267"><ele>1322.0</ele><time>2026-04-04T10:16:10.027Z</time></trkpt><trkpt lat="42.5324217" lon="13.4095483"><ele>1322.0</ele><time>2026-04-04T10:16:11.028Z</time></trkpt><trkpt lat="42.5323483" lon="13.4095733"><ele>1322.0</ele><time>2026-04-04T10:16:12.028Z</time></trkpt><trkpt lat="42.5322767" lon="13.4096167"><ele>1322.0</ele><time>2026-04-04T10:16:13.028Z</time></trkpt><trkpt lat="42.5322133" lon="13.409665"><ele>1322.0</ele><time>2026-04-04T10:16:14.028Z</time></trkpt><trkpt lat="42.5321533" lon="13.409715"><ele>1322.0</ele><time>2026-04-04T10:16:15.028Z</time></trkpt><trkpt lat="42.532095" lon="13.4097783"><ele>1322.0</ele><time>2026-04-04T10:16:16.028Z</time></trkpt><trkpt lat="42.5320383" lon="13.4098467"><ele>1322.0</ele><time>2026-04-04T10:16:17.028Z</time></trkpt><trkpt lat="42.5319817" lon="13.40992"><ele>1323.5</ele><time>2026-04-04T10:16:18.028Z</time></trkpt><trkpt lat="42.5319167" lon="13.4099833"><ele>1325.0</ele><time>2026-04-04T10:16:19.028Z</time></trkpt><trkpt lat="42.5318483" lon="13.4100483"><ele>1326.5</ele><time>2026-04-04T10:16:20.028Z</time></trkpt><trkpt lat="42.53178" lon="13.4101167"><ele>1328.0</ele><time>2026-04-04T10:16:21.027Z</time></trkpt><trkpt lat="42.5317" lon="13.410175"><ele>1329.5</ele><time>2026-04-04T10:16:22.028Z</time></trkpt><trkpt lat="42.5316233" lon="13.4102433"><ele>1331.0</ele><time>2026-04-04T10:16:23.028Z</time></trkpt><trkpt lat="42.5315483" lon="13.4103083"><ele>1331.0</ele><time>2026-04-04T10:16:24.028Z</time></trkpt><trkpt lat="42.5314633" lon="13.4103617"><ele>1331.0</ele><time>2026-04-04T10:16:25.028Z</time></trkpt><trkpt lat="42.5313733" lon="13.4104183"><ele>1331.0</ele><time>2026-04-04T10:16:26.028Z</time></trkpt><trkpt lat="42.5312883" lon="13.410465"><ele>1331.0</ele><time>2026-04-04T10:16:27.028Z</time></trkpt><trkpt lat="42.5311983" lon="13.4105067"><ele>1331.0</ele><time>2026-04-04T10:16:28.028Z</time></trkpt><trkpt lat="42.531115" lon="13.41054"><ele>1329.4</ele><time>2026-04-04T10:16:29.028Z</time></trkpt><trkpt lat="42.53102" lon="13.4105617"><ele>1327.8</ele><time>2026-04-04T10:16:30.028Z</time></trkpt><trkpt lat="42.5309233" lon="13.410555"><ele>1326.2</ele><time>2026-04-04T10:16:31.027Z</time></trkpt><trkpt lat="42.5308267" lon="13.4105233"><ele>1324.6000000000001</ele><time>2026-04-04T10:16:32.028Z</time></trkpt><trkpt lat="42.5307367" lon="13.4104683"><ele>1323.0</ele><time>2026-04-04T10:16:33.028Z</time></trkpt><trkpt lat="42.530645" lon="13.4103917"><ele>1323.0</ele><time>2026-04-04T10:16:34.028Z</time></trkpt><trkpt lat="42.5305533" lon="13.4103083"><ele>1323.0</ele><time>2026-04-04T10:16:35.028Z</time></trkpt><trkpt lat="42.5304617" lon="13.4102117"><ele>1323.0</ele><time>2026-04-04T10:16:36.028Z</time></trkpt><trkpt lat="42.530375" lon="13.4101217"><ele>1323.0</ele><time>2026-04-04T10:16:37.028Z</time></trkpt><trkpt lat="42.5302917" lon="13.4100333"><ele>1323.0</ele><time>2026-04-04T10:16:38.028Z</time></trkpt><trkpt lat="42.530205" lon="13.409945"><ele>1322.2</ele><time>2026-04-04T10:16:39.028Z</time></trkpt><trkpt lat="42.5301083" lon="13.4098617"><ele>1321.4</ele><time>2026-04-04T10:16:40.028Z</time></trkpt><trkpt lat="42.5300167" lon="13.40979"><ele>1320.6000000000001</ele><time>2026-04-04T10:16:41.028Z</time></trkpt><trkpt lat="42.5299283" lon="13.40971"><ele>1319.8000000000002</ele><time>2026-04-04T10:16:42.028Z</time></trkpt><trkpt lat="42.5298383" lon="13.4096217"><ele>1319.0</ele><time>2026-04-04T10:16:43.028Z</time></trkpt><trkpt lat="42.52975" lon="13.409535"><ele>1319.0</ele><time>2026-04-04T10:16:44.028Z</time></trkpt><trkpt lat="42.52967" lon="13.4094483"><ele>1319.0</ele><time>2026-04-04T10:16:45.028Z</time></trkpt><trkpt lat="42.529585" lon="13.409365"><ele>1319.0</ele><time>2026-04-04T10:16:46.028Z</time></trkpt><trkpt lat="42.5294967" lon="13.40927"><ele>1319.0</ele><time>2026-04-04T10:16:47.028Z</time></trkpt><trkpt lat="42.5294183" lon="13.4091617"><ele>1319.0</ele><time>2026-04-04T10:16:48.028Z</time></trkpt><trkpt lat="42.5293467" lon="13.4090467"><ele>1320.0</ele><time>2026-04-04T10:16:49.028Z</time></trkpt><trkpt lat="42.5292717" lon="13.4089383"><ele>1321.0</ele><time>2026-04-04T10:16:50.028Z</time></trkpt><trkpt lat="42.529205" lon="13.4088133"><ele>1322.0</ele><time>2026-04-04T10:16:51.028Z</time></trkpt><trkpt lat="42.529135" lon="13.40869"><ele>1323.0</ele><time>2026-04-04T10:16:52.028Z</time></trkpt><trkpt lat="42.52906" lon="13.4085683"><ele>1323.0</ele><time>2026-04-04T10:16:53.028Z</time></trkpt><trkpt lat="42.5289883" lon="13.4084567"><ele>1323.0</ele><time>2026-04-04T10:16:54.028Z</time></trkpt><trkpt lat="42.5289133" lon="13.4083417"><ele>1323.0</ele><time>2026-04-04T10:16:55.028Z</time></trkpt><trkpt lat="42.5288483" lon="13.4082267"><ele>1323.0</ele><time>2026-04-04T10:16:56.028Z</time></trkpt><trkpt lat="42.52878" lon="13.4081233"><ele>1323.0</ele><time>2026-04-04T10:16:57.028Z</time></trkpt><trkpt lat="42.52871" lon="13.4080117"><ele>1324.0</ele><time>2026-04-04T10:16:58.028Z</time></trkpt><trkpt lat="42.5286433" lon="13.407895"><ele>1325.0</ele><time>2026-04-04T10:16:59.028Z</time></trkpt><trkpt lat="42.5285783" lon="13.40778"><ele>1326.0</ele><time>2026-04-04T10:17:00.028Z</time></trkpt><trkpt lat="42.52852" lon="13.4076583"><ele>1327.0</ele><time>2026-04-04T10:17:01.028Z</time></trkpt><trkpt lat="42.5284617" lon="13.4075533"><ele>1328.0</ele><time>2026-04-04T10:17:02.028Z</time></trkpt><trkpt lat="42.5283983" lon="13.4074467"><ele>1328.0</ele><time>2026-04-04T10:17:03.028Z</time></trkpt><trkpt lat="42.5283383" lon="13.407335"><ele>1328.0</ele><time>2026-04-04T10:17:04.028Z</time></trkpt><trkpt lat="42.5282767" lon="13.4072267"><ele>1328.0</ele><time>2026-04-04T10:17:05.028Z</time></trkpt><trkpt lat="42.52821" lon="13.4071267"><ele>1328.0</ele><time>2026-04-04T10:17:06.028Z</time></trkpt><trkpt lat="42.528145" lon="13.4070217"><ele>1328.0</ele><time>2026-04-04T10:17:07.028Z</time></trkpt><trkpt lat="42.5280717" lon="13.4069167"><ele>1328.8000000000002</ele><time>2026-04-04T10:17:08.028Z</time></trkpt><trkpt lat="42.528" lon="13.4068067"><ele>1329.6</ele><time>2026-04-04T10:17:09.028Z</time></trkpt><trkpt lat="42.5279317" lon="13.4066967"><ele>1330.4</ele><time>2026-04-04T10:17:10.028Z</time></trkpt><trkpt lat="42.5278667" lon="13.406585"><ele>1331.1999999999998</ele><time>2026-04-04T10:17:11.028Z</time></trkpt><trkpt lat="42.527805" lon="13.4064733"><ele>1332.0</ele><time>2026-04-04T10:17:12.028Z</time></trkpt><trkpt lat="42.52774" lon="13.4063833"><ele>1330.0</ele><time>2026-04-04T10:17:13.027Z</time></trkpt><trkpt lat="42.5276733" lon="13.4063133"><ele>1328.0</ele><time>2026-04-04T10:17:14.028Z</time></trkpt><trkpt lat="42.52761" lon="13.4062617"><ele>1326.0</ele><time>2026-04-04T10:17:15.028Z</time></trkpt><trkpt lat="42.5275383" lon="13.4062183"><ele>1324.0</ele><time>2026-04-04T10:17:16.028Z</time></trkpt><trkpt lat="42.5274583" lon="13.40619"><ele>1322.0</ele><time>2026-04-04T10:17:17.028Z</time></trkpt><trkpt lat="42.5273783" lon="13.4061883"><ele>1320.0</ele><time>2026-04-04T10:17:18.028Z</time></trkpt><trkpt lat="42.527295" lon="13.406205"><ele>1320.0</ele><time>2026-04-04T10:17:19.028Z</time></trkpt><trkpt lat="42.5272167" lon="13.40625"><ele>1320.0</ele><time>2026-04-04T10:17:20.028Z</time></trkpt><trkpt lat="42.5271433" lon="13.4063117"><ele>1320.0</ele><time>2026-04-04T10:17:21.028Z</time></trkpt><trkpt lat="42.5270617" lon="13.406375"><ele>1320.0</ele><time>2026-04-04T10:17:22.028Z</time></trkpt><trkpt lat="42.5269733" lon="13.40644"><ele>1320.0</ele><time>2026-04-04T10:17:23.028Z</time></trkpt><trkpt lat="42.5268833" lon="13.406495"><ele>1321.4</ele><time>2026-04-04T10:17:24.028Z</time></trkpt><trkpt lat="42.5267867" lon="13.4065417"><ele>1322.8</ele><time>2026-04-04T10:17:25.028Z</time></trkpt><trkpt lat="42.5266933" lon="13.40657"><ele>1324.1999999999998</ele><time>2026-04-04T10:17:26.028Z</time></trkpt><trkpt lat="42.5265983" lon="13.4065783"><ele>1325.6</ele><time>2026-04-04T10:17:27.028Z</time></trkpt><trkpt lat="42.52651" lon="13.4065633"><ele>1327.0</ele><time>2026-04-04T10:17:28.028Z</time></trkpt><trkpt lat="42.5264233" lon="13.4065183"><ele>1327.0</ele><time>2026-04-04T10:17:29.028Z</time></trkpt><trkpt lat="42.5263367" lon="13.40645"><ele>1327.0</ele><time>2026-04-04T10:17:30.028Z</time></trkpt><trkpt lat="42.5262567" lon="13.4063633"><ele>1327.0</ele><time>2026-04-04T10:17:31.028Z</time></trkpt><trkpt lat="42.526175" lon="13.4062717"><ele>1327.0</ele><time>2026-04-04T10:17:32.028Z</time></trkpt><trkpt lat="42.526085" lon="13.40619"><ele>1327.0</ele><time>2026-04-04T10:17:33.028Z</time></trkpt><trkpt lat="42.5259883" lon="13.4061267"><ele>1326.6</ele><time>2026-04-04T10:17:34.028Z</time></trkpt><trkpt lat="42.525885" lon="13.4060817"><ele>1326.1999999999998</ele><time>2026-04-04T10:17:35.028Z</time></trkpt><trkpt lat="42.525775" lon="13.4060617"><ele>1325.8</ele><time>2026-04-04T10:17:36.027Z</time></trkpt><trkpt lat="42.525665" lon="13.4060583"><ele>1325.4</ele><time>2026-04-04T10:17:37.028Z</time></trkpt><trkpt lat="42.5255483" lon="13.4060633"><ele>1325.0</ele><time>2026-04-04T10:17:38.028Z</time></trkpt><trkpt lat="42.52543" lon="13.4060567"><ele>1325.25</ele><time>2026-04-04T10:17:39.028Z</time></trkpt><trkpt lat="42.5253167" lon="13.406055"><ele>1325.5</ele><time>2026-04-04T10:17:40.028Z</time></trkpt><trkpt lat="42.5252" lon="13.4060533"><ele>1325.75</ele><time>2026-04-04T10:17:41.028Z</time></trkpt><trkpt lat="42.5250833" lon="13.406045"><ele>1326.0</ele><time>2026-04-04T10:17:42.028Z</time></trkpt><trkpt lat="42.5249667" lon="13.4060417"><ele>1326.0</ele><time>2026-04-04T10:17:43.028Z</time></trkpt><trkpt lat="42.5248517" lon="13.4060433"><ele>1326.0</ele><time>2026-04-04T10:17:44.027Z</time></trkpt><trkpt lat="42.524735" lon="13.4060533"><ele>1326.0</ele><time>2026-04-04T10:17:45.028Z</time></trkpt><trkpt lat="42.5246233" lon="13.4060483"><ele>1326.0</ele><time>2026-04-04T10:17:46.028Z</time></trkpt><trkpt lat="42.5245267" lon="13.4060483"><ele>1326.0</ele><time>2026-04-04T10:17:47.028Z</time></trkpt><trkpt lat="42.5244417" lon="13.4060267"><ele>1327.8333333333333</ele><time>2026-04-04T10:17:48.028Z</time></trkpt><trkpt lat="42.52435" lon="13.40599"><ele>1329.6666666666667</ele><time>2026-04-04T10:17:49.028Z</time></trkpt><trkpt lat="42.5242633" lon="13.4059317"><ele>1331.5</ele><time>2026-04-04T10:17:50.028Z</time></trkpt><trkpt lat="42.52418" lon="13.405875"><ele>1333.3333333333335</ele><time>2026-04-04T10:17:51.028Z</time></trkpt><trkpt lat="42.5241183" lon="13.4058067"><ele>1335.1666666666667</ele><time>2026-04-04T10:17:52.028Z</time></trkpt><trkpt lat="42.5240683" lon="13.4057183"><ele>1337.0</ele><time>2026-04-04T10:17:53.028Z</time></trkpt><trkpt lat="42.5240333" lon="13.4056117"><ele>1337.0</ele><time>2026-04-04T10:17:54.028Z</time></trkpt><trkpt lat="42.5240167" lon="13.4055"><ele>1337.0</ele><time>2026-04-04T10:17:55.028Z</time></trkpt><trkpt lat="42.5240283" lon="13.4053817"><ele>1337.0</ele><time>2026-04-04T10:17:56.028Z</time></trkpt><trkpt lat="42.52406" lon="13.4052767"><ele>1337.0</ele><time>2026-04-04T10:17:57.028Z</time></trkpt><trkpt lat="42.5241067" lon="13.40518"><ele>1337.0</ele><time>2026-04-04T10:17:58.028Z</time></trkpt><trkpt lat="42.52416" lon="13.4050883"><ele>1337.0</ele><time>2026-04-04T10:17:59.028Z</time></trkpt><trkpt lat="42.5242167" lon="13.404995"><ele>1336.3333333333335</ele><time>2026-04-04T10:18:00.028Z</time></trkpt><trkpt lat="42.5242683" lon="13.4049033"><ele>1335.6666666666667</ele><time>2026-04-04T10:18:01.028Z</time></trkpt><trkpt lat="42.5243117" lon="13.4048217"><ele>1335.0</ele><time>2026-04-04T10:18:02.028Z</time></trkpt><trkpt lat="42.5243483" lon="13.4047183"><ele>1334.3333333333333</ele><time>2026-04-04T10:18:03.028Z</time></trkpt><trkpt lat="42.5243617" lon="13.4046017"><ele>1333.6666666666665</ele><time>2026-04-04T10:18:04.028Z</time></trkpt><trkpt lat="42.524355" lon="13.4044817"><ele>1333.0</ele><time>2026-04-04T10:18:05.028Z</time></trkpt><trkpt lat="42.52433" lon="13.4043717"><ele>1332.8000000000002</ele><time>2026-04-04T10:18:06.028Z</time></trkpt><trkpt lat="42.524275" lon="13.4042867"><ele>1332.6</ele><time>2026-04-04T10:18:07.027Z</time></trkpt><trkpt lat="42.52419" lon="13.4042233"><ele>1332.4</ele><time>2026-04-04T10:18:08.028Z</time></trkpt><trkpt lat="42.5241067" lon="13.4041683"><ele>1332.1999999999998</ele><time>2026-04-04T10:18:09.028Z</time></trkpt><trkpt lat="42.5240117" lon="13.40412"><ele>1332.0</ele><time>2026-04-04T10:18:10.028Z</time></trkpt><trkpt lat="42.5239017" lon="13.4040767"><ele>1332.0</ele><time>2026-04-04T10:18:11.028Z</time></trkpt><trkpt lat="42.523785" lon="13.4040333"><ele>1332.0</ele><time>2026-04-04T10:18:12.028Z</time></trkpt><trkpt lat="42.5236783" lon="13.4039867"><ele>1332.0</ele><time>2026-04-04T10:18:13.028Z</time></trkpt><trkpt lat="42.5235783" lon="13.403935"><ele>1332.0</ele><time>2026-04-04T10:18:14.028Z</time></trkpt><trkpt lat="42.5234767" lon="13.4038767"><ele>1333.0</ele><time>2026-04-04T10:18:15.028Z</time></trkpt><trkpt lat="42.52338" lon="13.40383"><ele>1334.0</ele><time>2026-04-04T10:18:16.028Z</time></trkpt><trkpt lat="42.5232867" lon="13.40379"><ele>1335.0</ele><time>2026-04-04T10:18:17.028Z</time></trkpt><trkpt lat="42.5232117" lon="13.4037317"><ele>1336.0</ele><time>2026-04-04T10:18:18.028Z</time></trkpt><trkpt lat="42.52315" lon="13.4036633"><ele>1337.0</ele><time>2026-04-04T10:18:19.028Z</time></trkpt><trkpt lat="42.52311" lon="13.403585"><ele>1338.0</ele><time>2026-04-04T10:18:20.028Z</time></trkpt><trkpt lat="42.523095" lon="13.4034783"><ele>1338.0</ele><time>2026-04-04T10:18:21.028Z</time></trkpt><trkpt lat="42.5230867" lon="13.4033633"><ele>1338.0</ele><time>2026-04-04T10:18:22.028Z</time></trkpt><trkpt lat="42.5230983" lon="13.40323"><ele>1338.0</ele><time>2026-04-04T10:18:23.028Z</time></trkpt><trkpt lat="42.5231117" lon="13.4031183"><ele>1338.0</ele><time>2026-04-04T10:18:24.028Z</time></trkpt><trkpt lat="42.5231433" lon="13.4030067"><ele>1338.0</ele><time>2026-04-04T10:18:25.028Z</time></trkpt><trkpt lat="42.5231867" lon="13.4029"><ele>1338.0</ele><time>2026-04-04T10:18:26.028Z</time></trkpt><trkpt lat="42.523245" lon="13.4028"><ele>1339.8000000000002</ele><time>2026-04-04T10:18:27.028Z</time></trkpt><trkpt lat="42.5233233" lon="13.40272"><ele>1341.6</ele><time>2026-04-04T10:18:28.028Z</time></trkpt><trkpt lat="42.5234" lon="13.4026717"><ele>1343.4</ele><time>2026-04-04T10:18:29.028Z</time></trkpt><trkpt lat="42.523485" lon="13.40264"><ele>1345.1999999999998</ele><time>2026-04-04T10:18:30.028Z</time></trkpt><trkpt lat="42.52357" lon="13.4026083"><ele>1347.0</ele><time>2026-04-04T10:18:31.028Z</time></trkpt><trkpt lat="42.5236617" lon="13.4025817"><ele>1343.1999999999998</ele><time>2026-04-04T10:18:32.028Z</time></trkpt><trkpt lat="42.523765" lon="13.4025333"><ele>1339.4</ele><time>2026-04-04T10:18:33.028Z</time></trkpt><trkpt lat="42.52387" lon="13.402475"><ele>1335.6</ele><time>2026-04-04T10:18:34.028Z</time></trkpt><trkpt lat="42.5239733" lon="13.4024183"><ele>1331.8000000000002</ele><time>2026-04-04T10:18:35.028Z</time></trkpt><trkpt lat="42.5240667" lon="13.4023533"><ele>1328.0</ele><time>2026-04-04T10:18:36.028Z</time></trkpt><trkpt lat="42.5241467" lon="13.4022583"><ele>1328.0</ele><time>2026-04-04T10:18:37.028Z</time></trkpt><trkpt lat="42.524195" lon="13.4021783"><ele>1328.0</ele><time>2026-04-04T10:18:38.028Z</time></trkpt><trkpt lat="42.524225" lon="13.4020867"><ele>1328.0</ele><time>2026-04-04T10:18:39.028Z</time></trkpt><trkpt lat="42.5242467" lon="13.4019817"><ele>1328.0</ele><time>2026-04-04T10:18:40.028Z</time></trkpt><trkpt lat="42.5242417" lon="13.401865"><ele>1328.0</ele><time>2026-04-04T10:18:41.028Z</time></trkpt><trkpt lat="42.5242283" lon="13.401735"><ele>1328.0</ele><time>2026-04-04T10:18:42.028Z</time></trkpt><trkpt lat="42.5242" lon="13.4016167"><ele>1327.4</ele><time>2026-04-04T10:18:43.028Z</time></trkpt><trkpt lat="42.5241767" lon="13.4014967"><ele>1326.8000000000002</ele><time>2026-04-04T10:18:44.028Z</time></trkpt><trkpt lat="42.524145" lon="13.40138"><ele>1326.2</ele><time>2026-04-04T10:18:45.028Z</time></trkpt><trkpt lat="42.5241017" lon="13.4012583"><ele>1325.6</ele><time>2026-04-04T10:18:46.028Z</time></trkpt><trkpt lat="42.5240483" lon="13.401145"><ele>1325.0</ele><time>2026-04-04T10:18:47.028Z</time></trkpt><trkpt lat="42.5239933" lon="13.40104"><ele>1325.0</ele><time>2026-04-04T10:18:48.028Z</time></trkpt><trkpt lat="42.5239317" lon="13.400945"><ele>1325.0</ele><time>2026-04-04T10:18:49.027Z</time></trkpt><trkpt lat="42.523855" lon="13.4008583"><ele>1325.0</ele><time>2026-04-04T10:18:50.028Z</time></trkpt><trkpt lat="42.523765" lon="13.4007867"><ele>1325.0</ele><time>2026-04-04T10:18:51.028Z</time></trkpt><trkpt lat="42.523685" lon="13.4007133"><ele>1325.0</ele><time>2026-04-04T10:18:52.028Z</time></trkpt><trkpt lat="42.5235917" lon="13.40065"><ele>1327.6</ele><time>2026-04-04T10:18:53.028Z</time></trkpt><trkpt lat="42.5235217" lon="13.400565"><ele>1330.2</ele><time>2026-04-04T10:18:54.028Z</time></trkpt><trkpt lat="42.52346" lon="13.4004783"><ele>1332.8000000000002</ele><time>2026-04-04T10:18:55.028Z</time></trkpt><trkpt lat="42.5234033" lon="13.4003833"><ele>1335.4</ele><time>2026-04-04T10:18:56.028Z</time></trkpt><trkpt lat="42.5233733" lon="13.400265"><ele>1338.0</ele><time>2026-04-04T10:18:57.028Z</time></trkpt><trkpt lat="42.5233533" lon="13.4001383"><ele>1338.0</ele><time>2026-04-04T10:18:58.028Z</time></trkpt><trkpt lat="42.52336" lon="13.4000083"><ele>1338.0</ele><time>2026-04-04T10:18:59.028Z</time></trkpt><trkpt lat="42.5233733" lon="13.399875"><ele>1338.0</ele><time>2026-04-04T10:19:00.028Z</time></trkpt><trkpt lat="42.5233983" lon="13.3997467"><ele>1338.0</ele><time>2026-04-04T10:19:01.028Z</time></trkpt><trkpt lat="42.5234233" lon="13.3996217"><ele>1338.0</ele><time>2026-04-04T10:19:02.028Z</time></trkpt><trkpt lat="42.5234517" lon="13.3994717"><ele>1338.25</ele><time>2026-04-04T10:19:03.028Z</time></trkpt><trkpt lat="42.5234867" lon="13.39931"><ele>1338.5</ele><time>2026-04-04T10:19:04.027Z</time></trkpt><trkpt lat="42.523505" lon="13.3991533"><ele>1338.75</ele><time>2026-04-04T10:19:05.028Z</time></trkpt><trkpt lat="42.5234917" lon="13.3990067"><ele>1339.0</ele><time>2026-04-04T10:19:06.028Z</time></trkpt><trkpt lat="42.5234683" lon="13.39887"><ele>1337.6</ele><time>2026-04-04T10:19:07.028Z</time></trkpt><trkpt lat="42.5234233" lon="13.398755"><ele>1336.2</ele><time>2026-04-04T10:19:08.028Z</time></trkpt><trkpt lat="42.5233617" lon="13.398645"><ele>1334.8</ele><time>2026-04-04T10:19:09.028Z</time></trkpt><trkpt lat="42.5232983" lon="13.3985317"><ele>1333.3999999999999</ele><time>2026-04-04T10:19:10.028Z</time></trkpt><trkpt lat="42.52323" lon="13.39842"><ele>1332.0</ele><time>2026-04-04T10:19:11.028Z</time></trkpt><trkpt lat="42.523165" lon="13.3983083"><ele>1332.0</ele><time>2026-04-04T10:19:12.028Z</time></trkpt><trkpt lat="42.5231233" lon="13.3981783"><ele>1332.0</ele><time>2026-04-04T10:19:13.028Z</time></trkpt><trkpt lat="42.523095" lon="13.3980383"><ele>1332.0</ele><time>2026-04-04T10:19:14.028Z</time></trkpt><trkpt lat="42.523085" lon="13.3978867"><ele>1332.0</ele><time>2026-04-04T10:19:15.028Z</time></trkpt><trkpt lat="42.523085" lon="13.397745"><ele>1332.0</ele><time>2026-04-04T10:19:16.028Z</time></trkpt><trkpt lat="42.52308" lon="13.397605"><ele>1332.0</ele><time>2026-04-04T10:19:17.028Z</time></trkpt><trkpt lat="42.5230917" lon="13.3974667"><ele>1332.0</ele><time>2026-04-04T10:19:18.028Z</time></trkpt><trkpt lat="42.5231217" lon="13.3973517"><ele>1332.0</ele><time>2026-04-04T10:19:19.028Z</time></trkpt><trkpt lat="42.5231667" lon="13.397265"><ele>1332.0</ele><time>2026-04-04T10:19:20.028Z</time></trkpt><trkpt lat="42.5232383" lon="13.3972083"><ele>1332.0</ele><time>2026-04-04T10:19:21.028Z</time></trkpt><trkpt lat="42.52334" lon="13.39718"><ele>1333.5</ele><time>2026-04-04T10:19:22.028Z</time></trkpt><trkpt lat="42.523455" lon="13.3971517"><ele>1335.0</ele><time>2026-04-04T10:19:23.028Z</time></trkpt><trkpt lat="42.5235783" lon="13.3971117"><ele>1336.5</ele><time>2026-04-04T10:19:24.028Z</time></trkpt><trkpt lat="42.5237017" lon="13.3970717"><ele>1338.0</ele><time>2026-04-04T10:19:25.028Z</time></trkpt><trkpt lat="42.5238267" lon="13.3970283"><ele>1338.0</ele><time>2026-04-04T10:19:26.028Z</time></trkpt><trkpt lat="42.5239483" lon="13.396995"><ele>1338.0</ele><time>2026-04-04T10:19:27.028Z</time></trkpt><trkpt lat="42.5240767" lon="13.3969617"><ele>1338.0</ele><time>2026-04-04T10:19:28.028Z</time></trkpt><trkpt lat="42.5242067" lon="13.3969267"><ele>1338.0</ele><time>2026-04-04T10:19:29.028Z</time></trkpt><trkpt lat="42.5243317" lon="13.3968867"><ele>1338.0</ele><time>2026-04-04T10:19:30.028Z</time></trkpt><trkpt lat="42.5244433" lon="13.3968517"><ele>1338.0</ele><time>2026-04-04T10:19:31.028Z</time></trkpt><trkpt lat="42.5245633" lon="13.3968133"><ele>1338.0</ele><time>2026-04-04T10:19:32.028Z</time></trkpt><trkpt lat="42.524685" lon="13.3967717"><ele>1338.0</ele><time>2026-04-04T10:19:33.028Z</time></trkpt><trkpt lat="42.524795" lon="13.3967333"><ele>1337.0</ele><time>2026-04-04T10:19:34.028Z</time></trkpt><trkpt lat="42.5249017" lon="13.396695"><ele>1336.0</ele><time>2026-04-04T10:19:35.028Z</time></trkpt><trkpt lat="42.5250267" lon="13.3966517"><ele>1335.0</ele><time>2026-04-04T10:19:36.028Z</time></trkpt><trkpt lat="42.5251467" lon="13.3966167"><ele>1334.0</ele><time>2026-04-04T10:19:37.028Z</time></trkpt><trkpt lat="42.5252633" lon="13.39658"><ele>1334.0</ele><time>2026-04-04T10:19:38.028Z</time></trkpt><trkpt lat="42.5253783" lon="13.3965567"><ele>1334.0</ele><time>2026-04-04T10:19:39.028Z</time></trkpt><trkpt lat="42.5254933" lon="13.39654"><ele>1334.0</ele><time>2026-04-04T10:19:40.028Z</time></trkpt><trkpt lat="42.5256133" lon="13.39654"><ele>1334.0</ele><time>2026-04-04T10:19:41.028Z</time></trkpt><trkpt lat="42.5257417" lon="13.3965583"><ele>1332.75</ele><time>2026-04-04T10:19:42.028Z</time></trkpt><trkpt lat="42.5258667" lon="13.39659"><ele>1331.5</ele><time>2026-04-04T10:19:43.028Z</time></trkpt><trkpt lat="42.5260017" lon="13.39662"><ele>1330.25</ele><time>2026-04-04T10:19:44.028Z</time></trkpt><trkpt lat="42.5261383" lon="13.3966433"><ele>1329.0</ele><time>2026-04-04T10:19:45.028Z</time></trkpt><trkpt lat="42.5262717" lon="13.3966783"><ele>1328.75</ele><time>2026-04-04T10:19:46.028Z</time></trkpt><trkpt lat="42.5264067" lon="13.3967167"><ele>1328.5</ele><time>2026-04-04T10:19:47.028Z</time></trkpt><trkpt lat="42.5265483" lon="13.396755"><ele>1328.25</ele><time>2026-04-04T10:19:48.028Z</time></trkpt><trkpt lat="42.5266933" lon="13.3967883"><ele>1328.0</ele><time>2026-04-04T10:19:49.028Z</time></trkpt><trkpt lat="42.52683" lon="13.3968283"><ele>1328.0</ele><time>2026-04-04T10:19:50.028Z</time></trkpt><trkpt lat="42.5269617" lon="13.3968583"><ele>1328.0</ele><time>2026-04-04T10:19:51.028Z</time></trkpt><trkpt lat="42.5270933" lon="13.3968867"><ele>1328.0</ele><time>2026-04-04T10:19:52.028Z</time></trkpt><trkpt lat="42.5272333" lon="13.3969033"><ele>1328.0</ele><time>2026-04-04T10:19:53.027Z</time></trkpt><trkpt lat="42.5273833" lon="13.3969083"><ele>1328.25</ele><time>2026-04-04T10:19:54.028Z</time></trkpt><trkpt lat="42.5275283" lon="13.3969133"><ele>1328.5</ele><time>2026-04-04T10:19:55.028Z</time></trkpt><trkpt lat="42.5276717" lon="13.3969017"><ele>1328.75</ele><time>2026-04-04T10:19:56.028Z</time></trkpt><trkpt lat="42.5278" lon="13.3968917"><ele>1329.0</ele><time>2026-04-04T10:19:57.028Z</time></trkpt><trkpt lat="42.5279217" lon="13.3968683"><ele>1327.4</ele><time>2026-04-04T10:19:58.028Z</time></trkpt><trkpt lat="42.5280333" lon="13.3968367"><ele>1325.8000000000002</ele><time>2026-04-04T10:19:59.028Z</time></trkpt><trkpt lat="42.5281167" lon="13.3967783"><ele>1324.1999999999998</ele><time>2026-04-04T10:20:00.028Z</time></trkpt><trkpt lat="42.5281817" lon="13.3966883"><ele>1322.6</ele><time>2026-04-04T10:20:01.028Z</time></trkpt><trkpt lat="42.5282083" lon="13.39658"><ele>1321.0</ele><time>2026-04-04T10:20:02.028Z</time></trkpt><trkpt lat="42.52821" lon="13.396445"><ele>1321.5</ele><time>2026-04-04T10:20:03.028Z</time></trkpt><trkpt lat="42.5282017" lon="13.3963117"><ele>1322.0</ele><time>2026-04-04T10:20:04.028Z</time></trkpt><trkpt lat="42.5281783" lon="13.3961517"><ele>1322.5</ele><time>2026-04-04T10:20:05.028Z</time></trkpt><trkpt lat="42.5281433" lon="13.395985"><ele>1323.0</ele><time>2026-04-04T10:20:06.028Z</time></trkpt><trkpt lat="42.5281033" lon="13.3958117"><ele>1323.0</ele><time>2026-04-04T10:20:07.028Z</time></trkpt><trkpt lat="42.5280767" lon="13.39564"><ele>1323.0</ele><time>2026-04-04T10:20:08.028Z</time></trkpt><trkpt lat="42.528085" lon="13.39546"><ele>1323.0</ele><time>2026-04-04T10:20:09.028Z</time></trkpt><trkpt lat="42.5281183" lon="13.3952767"><ele>1323.0</ele><time>2026-04-04T10:20:10.028Z</time></trkpt><trkpt lat="42.5281583" lon="13.3950967"><ele>1323.5</ele><time>2026-04-04T10:20:11.028Z</time></trkpt><trkpt lat="42.5281967" lon="13.3949083"><ele>1324.0</ele><time>2026-04-04T10:20:12.028Z</time></trkpt><trkpt lat="42.528225" lon="13.3947317"><ele>1324.5</ele><time>2026-04-04T10:20:13.028Z</time></trkpt><trkpt lat="42.5282267" lon="13.394575"><ele>1325.0</ele><time>2026-04-04T10:20:14.028Z</time></trkpt><trkpt lat="42.5282167" lon="13.3944267"><ele>1323.75</ele><time>2026-04-04T10:20:15.028Z</time></trkpt><trkpt lat="42.52819" lon="13.394285"><ele>1322.5</ele><time>2026-04-04T10:20:16.028Z</time></trkpt><trkpt lat="42.528165" lon="13.39412"><ele>1321.25</ele><time>2026-04-04T10:20:17.028Z</time></trkpt><trkpt lat="42.5281183" lon="13.39395"><ele>1320.0</ele><time>2026-04-04T10:20:18.028Z</time></trkpt><trkpt lat="42.52806" lon="13.3937767"><ele>1318.3333333333333</ele><time>2026-04-04T10:20:19.028Z</time></trkpt><trkpt lat="42.5279767" lon="13.3936017"><ele>1316.6666666666665</ele><time>2026-04-04T10:20:20.028Z</time></trkpt><trkpt lat="42.527875" lon="13.3934383"><ele>1315.0</ele><time>2026-04-04T10:20:21.028Z</time></trkpt><trkpt lat="42.527775" lon="13.393265"><ele>1319.3333333333333</ele><time>2026-04-04T10:20:22.028Z</time></trkpt><trkpt lat="42.5276567" lon="13.39307"><ele>1323.6666666666667</ele><time>2026-04-04T10:20:23.028Z</time></trkpt><trkpt lat="42.5275467" lon="13.3928767"><ele>1328.0</ele><time>2026-04-04T10:20:24.028Z</time></trkpt><trkpt lat="42.52743" lon="13.3926933"><ele>1328.0</ele><time>2026-04-04T10:20:25.027Z</time></trkpt><trkpt lat="42.5273167" lon="13.3925233"><ele>1328.0</ele><time>2026-04-04T10:20:26.028Z</time></trkpt><trkpt lat="42.5272033" lon="13.3923467"><ele>1328.0</ele><time>2026-04-04T10:20:27.028Z</time></trkpt><trkpt lat="42.527105" lon="13.3921883"><ele>1330.0</ele><time>2026-04-04T10:20:28.028Z</time></trkpt><trkpt lat="42.52702" lon="13.39204"><ele>1332.0</ele><time>2026-04-04T10:20:29.028Z</time></trkpt><trkpt lat="42.5269433" lon="13.3919017"><ele>1334.0</ele><time>2026-04-04T10:20:30.028Z</time></trkpt><trkpt lat="42.52685" lon="13.3917833"><ele>1336.0</ele><time>2026-04-04T10:20:31.028Z</time></trkpt><trkpt lat="42.5267383" lon="13.391695"><ele>1336.0</ele><time>2026-04-04T10:20:32.028Z</time></trkpt><trkpt lat="42.526615" lon="13.3916217"><ele>1336.0</ele><time>2026-04-04T10:20:33.028Z</time></trkpt><trkpt lat="42.5264883" lon="13.3915483"><ele>1336.0</ele><time>2026-04-04T10:20:34.028Z</time></trkpt><trkpt lat="42.5263517" lon="13.391475"><ele>1336.0</ele><time>2026-04-04T10:20:35.028Z</time></trkpt><trkpt lat="42.5262183" lon="13.3913783"><ele>1333.6666666666665</ele><time>2026-04-04T10:20:36.028Z</time></trkpt><trkpt lat="42.5260967" lon="13.391255"><ele>1331.3333333333333</ele><time>2026-04-04T10:20:37.028Z</time></trkpt><trkpt lat="42.5259767" lon="13.3911183"><ele>1329.0</ele><time>2026-04-04T10:20:38.028Z</time></trkpt><trkpt lat="42.5258467" lon="13.390985"><ele>1329.0</ele><time>2026-04-04T10:20:39.028Z</time></trkpt><trkpt lat="42.5257033" lon="13.3908667"><ele>1329.0</ele><time>2026-04-04T10:20:40.028Z</time></trkpt><trkpt lat="42.5255517" lon="13.3907633"><ele>1329.0</ele><time>2026-04-04T10:20:41.028Z</time></trkpt><trkpt lat="42.52539" lon="13.3906733"><ele>1327.3333333333333</ele><time>2026-04-04T10:20:42.028Z</time></trkpt><trkpt lat="42.52523" lon="13.39059"><ele>1325.6666666666665</ele><time>2026-04-04T10:20:43.028Z</time></trkpt><trkpt lat="42.5250683" lon="13.3905083"><ele>1324.0</ele><time>2026-04-04T10:20:44.028Z</time></trkpt><trkpt lat="42.5249083" lon="13.3904267"><ele>1324.0</ele><time>2026-04-04T10:20:45.027Z</time></trkpt><trkpt lat="42.5247633" lon="13.390355"><ele>1324.0</ele><time>2026-04-04T10:20:46.028Z</time></trkpt><trkpt lat="42.524645" lon="13.3902867"><ele>1324.0</ele><time>2026-04-04T10:20:47.028Z</time></trkpt><trkpt lat="42.5245333" lon="13.3902233"><ele>1324.0</ele><time>2026-04-04T10:20:48.028Z</time></trkpt><trkpt lat="42.5244333" lon="13.3901533"><ele>1324.2</ele><time>2026-04-04T10:20:49.028Z</time></trkpt><trkpt lat="42.5243467" lon="13.3900783"><ele>1324.4</ele><time>2026-04-04T10:20:50.028Z</time></trkpt><trkpt lat="42.5242767" lon="13.390005"><ele>1324.6</ele><time>2026-04-04T10:20:51.028Z</time></trkpt><trkpt lat="42.5242067" lon="13.38991"><ele>1324.8</ele><time>2026-04-04T10:20:52.028Z</time></trkpt><trkpt lat="42.52415" lon="13.38979"><ele>1325.0</ele><time>2026-04-04T10:20:53.028Z</time></trkpt><trkpt lat="42.5241067" lon="13.3896633"><ele>1325.0</ele><time>2026-04-04T10:20:54.028Z</time></trkpt><trkpt lat="42.5240733" lon="13.3895133"><ele>1325.0</ele><time>2026-04-04T10:20:55.028Z</time></trkpt><trkpt lat="42.5240367" lon="13.3893583"><ele>1325.0</ele><time>2026-04-04T10:20:56.028Z</time></trkpt><trkpt lat="42.523995" lon="13.3892067"><ele>1325.0</ele><time>2026-04-04T10:20:57.028Z</time></trkpt><trkpt lat="42.5239417" lon="13.3890567"><ele>1325.0</ele><time>2026-04-04T10:20:58.028Z</time></trkpt><trkpt lat="42.5238817" lon="13.3889517"><ele>1325.0</ele><time>2026-04-04T10:20:59.028Z</time></trkpt><trkpt lat="42.523805" lon="13.38887"><ele>1325.0</ele><time>2026-04-04T10:21:00.028Z</time></trkpt><trkpt lat="42.523705" lon="13.3888283"><ele>1325.0</ele><time>2026-04-04T10:21:01.028Z</time></trkpt><trkpt lat="42.5235717" lon="13.3888033"><ele>1325.0</ele><time>2026-04-04T10:21:02.028Z</time></trkpt><trkpt lat="42.5234333" lon="13.38877"><ele>1326.0</ele><time>2026-04-04T10:21:03.028Z</time></trkpt><trkpt lat="42.5233017" lon="13.3887417"><ele>1327.0</ele><time>2026-04-04T10:21:04.028Z</time></trkpt><trkpt lat="42.5232" lon="13.3887117"><ele>1328.0</ele><time>2026-04-04T10:21:05.028Z</time></trkpt><trkpt lat="42.5231267" lon="13.388645"><ele>1329.0</ele><time>2026-04-04T10:21:06.028Z</time></trkpt><trkpt lat="42.5230683" lon="13.3885683"><ele>1330.0</ele><time>2026-04-04T10:21:07.028Z</time></trkpt><trkpt lat="42.5230283" lon="13.3884567"><ele>1330.0</ele><time>2026-04-04T10:21:08.028Z</time></trkpt><trkpt lat="42.5230183" lon="13.3883417"><ele>1330.0</ele><time>2026-04-04T10:21:09.028Z</time></trkpt><trkpt lat="42.5230417" lon="13.3882167"><ele>1330.0</ele><time>2026-04-04T10:21:10.028Z</time></trkpt><trkpt lat="42.5231133" lon="13.3880717"><ele>1330.0</ele><time>2026-04-04T10:21:11.028Z</time></trkpt><trkpt lat="42.5231933" lon="13.3879067"><ele>1329.75</ele><time>2026-04-04T10:21:12.028Z</time></trkpt><trkpt lat="42.52327" lon="13.3877333"><ele>1329.5</ele><time>2026-04-04T10:21:13.028Z</time></trkpt><trkpt lat="42.5233333" lon="13.3875467"><ele>1329.25</ele><time>2026-04-04T10:21:14.028Z</time></trkpt><trkpt lat="42.5233717" lon="13.38736"><ele>1329.0</ele><time>2026-04-04T10:21:15.028Z</time></trkpt><trkpt lat="42.5234017" lon="13.3871717"><ele>1329.75</ele><time>2026-04-04T10:21:16.028Z</time></trkpt><trkpt lat="42.5234483" lon="13.387"><ele>1330.5</ele><time>2026-04-04T10:21:17.028Z</time></trkpt><trkpt lat="42.52351" lon="13.3868517"><ele>1331.25</ele><time>2026-04-04T10:21:18.028Z</time></trkpt><trkpt lat="42.5235783" lon="13.3867533"><ele>1332.0</ele><time>2026-04-04T10:21:19.028Z</time></trkpt><trkpt lat="42.52368" lon="13.38668"><ele>1329.25</ele><time>2026-04-04T10:21:20.028Z</time></trkpt><trkpt lat="42.5238017" lon="13.3866033"><ele>1326.5</ele><time>2026-04-04T10:21:21.028Z</time></trkpt><trkpt lat="42.5239133" lon="13.3865133"><ele>1323.75</ele><time>2026-04-04T10:21:22.028Z</time></trkpt><trkpt lat="42.524005" lon="13.3863967"><ele>1321.0</ele><time>2026-04-04T10:21:23.028Z</time></trkpt><trkpt lat="42.5240733" lon="13.3862433"><ele>1321.0</ele><time>2026-04-04T10:21:24.028Z</time></trkpt><trkpt lat="42.52411" lon="13.386075"><ele>1321.0</ele><time>2026-04-04T10:21:25.028Z</time></trkpt><trkpt lat="42.5241117" lon="13.3858983"><ele>1321.0</ele><time>2026-04-04T10:21:26.028Z</time></trkpt><trkpt lat="42.524085" lon="13.3857367"><ele>1321.0</ele><time>2026-04-04T10:21:27.028Z</time></trkpt><trkpt lat="42.5240367" lon="13.3855867"><ele>1320.75</ele><time>2026-04-04T10:21:28.028Z</time></trkpt><trkpt lat="42.5239567" lon="13.3854617"><ele>1320.5</ele><time>2026-04-04T10:21:29.028Z</time></trkpt><trkpt lat="42.52386" lon="13.3853883"><ele>1320.25</ele><time>2026-04-04T10:21:30.028Z</time></trkpt><trkpt lat="42.5237367" lon="13.3853583"><ele>1320.0</ele><time>2026-04-04T10:21:31.028Z</time></trkpt><trkpt lat="42.5236017" lon="13.3853783"><ele>1320.0</ele><time>2026-04-04T10:21:32.028Z</time></trkpt><trkpt lat="42.5234833" lon="13.3854233"><ele>1320.0</ele><time>2026-04-04T10:21:33.028Z</time></trkpt><trkpt lat="42.5233583" lon="13.3854767"><ele>1320.0</ele><time>2026-04-04T10:21:34.028Z</time></trkpt><trkpt lat="42.523235" lon="13.38553"><ele>1320.0</ele><time>2026-04-04T10:21:35.028Z</time></trkpt><trkpt lat="42.523115" lon="13.3855683"><ele>1321.8</ele><time>2026-04-04T10:21:36.028Z</time></trkpt><trkpt lat="42.523005" lon="13.385595"><ele>1323.6</ele><time>2026-04-04T10:21:37.028Z</time></trkpt><trkpt lat="42.5229017" lon="13.3856267"><ele>1325.4</ele><time>2026-04-04T10:21:38.028Z</time></trkpt><trkpt lat="42.5227967" lon="13.385655"><ele>1327.2</ele><time>2026-04-04T10:21:39.027Z</time></trkpt><trkpt lat="42.5226967" lon="13.3856783"><ele>1329.0</ele><time>2026-04-04T10:21:40.028Z</time></trkpt><trkpt lat="42.5226017" lon="13.3856917"><ele>1328.8333333333333</ele><time>2026-04-04T10:21:41.028Z</time></trkpt><trkpt lat="42.522515" lon="13.3856933"><ele>1328.6666666666667</ele><time>2026-04-04T10:21:42.028Z</time></trkpt><trkpt lat="42.5224333" lon="13.38568"><ele>1328.5</ele><time>2026-04-04T10:21:43.028Z</time></trkpt><trkpt lat="42.5223667" lon="13.3856333"><ele>1328.3333333333335</ele><time>2026-04-04T10:21:44.028Z</time></trkpt><trkpt lat="42.52231" lon="13.3855717"><ele>1328.1666666666667</ele><time>2026-04-04T10:21:45.028Z</time></trkpt><trkpt lat="42.5222717" lon="13.38549"><ele>1328.0</ele><time>2026-04-04T10:21:46.028Z</time></trkpt><trkpt lat="42.5222467" lon="13.3853883"><ele>1328.0</ele><time>2026-04-04T10:21:47.028Z</time></trkpt><trkpt lat="42.522245" lon="13.3852783"><ele>1328.0</ele><time>2026-04-04T10:21:48.028Z</time></trkpt><trkpt lat="42.52224" lon="13.385165"><ele>1328.0</ele><time>2026-04-04T10:21:49.028Z</time></trkpt><trkpt lat="42.5222467" lon="13.38505"><ele>1328.0</ele><time>2026-04-04T10:21:50.028Z</time></trkpt><trkpt lat="42.522275" lon="13.3849483"><ele>1328.0</ele><time>2026-04-04T10:21:51.028Z</time></trkpt><trkpt lat="42.5223267" lon="13.3848583"><ele>1328.0</ele><time>2026-04-04T10:21:52.028Z</time></trkpt><trkpt lat="42.522375" lon="13.384765"><ele>1327.6000000000001</ele><time>2026-04-04T10:21:53.028Z</time></trkpt><trkpt lat="42.5224067" lon="13.38465"><ele>1327.2</ele><time>2026-04-04T10:21:54.027Z</time></trkpt><trkpt lat="42.5224133" lon="13.38452"><ele>1326.8</ele><time>2026-04-04T10:21:55.028Z</time></trkpt><trkpt lat="42.5223917" lon="13.3843883"><ele>1326.4</ele><time>2026-04-04T10:21:56.028Z</time></trkpt><trkpt lat="42.5223483" lon="13.384265"><ele>1326.0</ele><time>2026-04-04T10:21:57.028Z</time></trkpt><trkpt lat="42.5222867" lon="13.3841633"><ele>1326.0</ele><time>2026-04-04T10:21:58.028Z</time></trkpt><trkpt lat="42.52224" lon="13.3840467"><ele>1326.0</ele><time>2026-04-04T10:21:59.028Z</time></trkpt><trkpt lat="42.5222083" lon="13.3839183"><ele>1326.0</ele><time>2026-04-04T10:22:00.028Z</time></trkpt><trkpt lat="42.5222083" lon="13.3837883"><ele>1326.0</ele><time>2026-04-04T10:22:01.028Z</time></trkpt><trkpt lat="42.5222367" lon="13.38368"><ele>1326.0</ele><time>2026-04-04T10:22:02.028Z</time></trkpt><trkpt lat="42.5222833" lon="13.3835867"><ele>1326.5</ele><time>2026-04-04T10:22:03.028Z</time></trkpt><trkpt lat="42.5223483" lon="13.3835033"><ele>1327.0</ele><time>2026-04-04T10:22:04.028Z</time></trkpt><trkpt lat="42.5224217" lon="13.38342"><ele>1327.5</ele><time>2026-04-04T10:22:05.028Z</time></trkpt><trkpt lat="42.5224867" lon="13.383345"><ele>1328.0</ele><time>2026-04-04T10:22:06.028Z</time></trkpt><trkpt lat="42.522545" lon="13.3832717"><ele>1328.5</ele><time>2026-04-04T10:22:07.028Z</time></trkpt><trkpt lat="42.5226033" lon="13.3831883"><ele>1329.0</ele><time>2026-04-04T10:22:08.027Z</time></trkpt><trkpt lat="42.5226617" lon="13.3831033"><ele>1329.0</ele><time>2026-04-04T10:22:09.028Z</time></trkpt><trkpt lat="42.5227133" lon="13.3830167"><ele>1329.0</ele><time>2026-04-04T10:22:10.028Z</time></trkpt><trkpt lat="42.5227633" lon="13.38292"><ele>1329.0</ele><time>2026-04-04T10:22:11.028Z</time></trkpt><trkpt lat="42.5227917" lon="13.3828083"><ele>1329.0</ele><time>2026-04-04T10:22:12.028Z</time></trkpt><trkpt lat="42.5228117" lon="13.38268"><ele>1329.0</ele><time>2026-04-04T10:22:13.028Z</time></trkpt><trkpt lat="42.522815" lon="13.3825517"><ele>1329.0</ele><time>2026-04-04T10:22:14.028Z</time></trkpt><trkpt lat="42.5228067" lon="13.382415"><ele>1330.0</ele><time>2026-04-04T10:22:15.028Z</time></trkpt><trkpt lat="42.5227933" lon="13.38228"><ele>1331.0</ele><time>2026-04-04T10:22:16.028Z</time></trkpt><trkpt lat="42.5227733" lon="13.38214"><ele>1332.0</ele><time>2026-04-04T10:22:17.028Z</time></trkpt><trkpt lat="42.5227417" lon="13.382005"><ele>1333.0</ele><time>2026-04-04T10:22:18.027Z</time></trkpt><trkpt lat="42.5226983" lon="13.3818783"><ele>1334.0</ele><time>2026-04-04T10:22:19.028Z</time></trkpt><trkpt lat="42.5226533" lon="13.3817683"><ele>1334.0</ele><time>2026-04-04T10:22:20.028Z</time></trkpt><trkpt lat="42.5226083" lon="13.381655"><ele>1334.0</ele><time>2026-04-04T10:22:21.028Z</time></trkpt><trkpt lat="42.5225783" lon="13.3815433"><ele>1334.0</ele><time>2026-04-04T10:22:22.028Z</time></trkpt><trkpt lat="42.5225667" lon="13.38142"><ele>1334.0</ele><time>2026-04-04T10:22:23.028Z</time></trkpt><trkpt lat="42.5225817" lon="13.381305"><ele>1334.0</ele><time>2026-04-04T10:22:24.028Z</time></trkpt><trkpt lat="42.5226233" lon="13.3812067"><ele>1334.0</ele><time>2026-04-04T10:22:25.028Z</time></trkpt><trkpt lat="42.522665" lon="13.3811117"><ele>1334.2</ele><time>2026-04-04T10:22:26.027Z</time></trkpt><trkpt lat="42.522715" lon="13.381"><ele>1334.4</ele><time>2026-04-04T10:22:27.028Z</time></trkpt><trkpt lat="42.5227483" lon="13.38088"><ele>1334.6</ele><time>2026-04-04T10:22:28.028Z</time></trkpt><trkpt lat="42.5227717" lon="13.3807433"><ele>1334.8</ele><time>2026-04-04T10:22:29.028Z</time></trkpt><trkpt lat="42.522775" lon="13.38062"><ele>1335.0</ele><time>2026-04-04T10:22:30.028Z</time></trkpt><trkpt lat="42.522765" lon="13.3805067"><ele>1335.8333333333333</ele><time>2026-04-04T10:22:31.028Z</time></trkpt><trkpt lat="42.522755" lon="13.3804017"><ele>1336.6666666666667</ele><time>2026-04-04T10:22:32.028Z</time></trkpt><trkpt lat="42.5227317" lon="13.3803067"><ele>1337.5</ele><time>2026-04-04T10:22:33.028Z</time></trkpt><trkpt lat="42.52271" lon="13.3802117"><ele>1338.3333333333335</ele><time>2026-04-04T10:22:34.028Z</time></trkpt><trkpt lat="42.5226983" lon="13.3801183"><ele>1339.1666666666667</ele><time>2026-04-04T10:22:35.028Z</time></trkpt><trkpt lat="42.5227133" lon="13.3800283"><ele>1340.0</ele><time>2026-04-04T10:22:36.028Z</time></trkpt><trkpt lat="42.5227783" lon="13.379905"><ele>1340.0</ele><time>2026-04-04T10:22:38.028Z</time></trkpt><trkpt lat="42.5228583" lon="13.3797933"><ele>1340.0</ele><time>2026-04-04T10:22:40.028Z</time></trkpt><trkpt lat="42.5228983" lon="13.3797267"><ele>1340.0</ele><time>2026-04-04T10:22:41.028Z</time></trkpt><trkpt lat="42.5229683" lon="13.3795967"><ele>1340.0</ele><time>2026-04-04T10:22:43.028Z</time></trkpt><trkpt lat="42.5230283" lon="13.3794417"><ele>1340.0</ele><time>2026-04-04T10:22:45.028Z</time></trkpt><trkpt lat="42.5230517" lon="13.3793483"><ele>1336.6666666666667</ele><time>2026-04-04T10:22:46.028Z</time></trkpt><trkpt lat="42.5230667" lon="13.379255"><ele>1333.3333333333335</ele><time>2026-04-04T10:22:47.028Z</time></trkpt><trkpt lat="42.523075" lon="13.37917"><ele>1330.0</ele><time>2026-04-04T10:22:48.028Z</time></trkpt><trkpt lat="42.5230817" lon="13.3790567"><ele>1326.6666666666667</ele><time>2026-04-04T10:22:50.028Z</time></trkpt><trkpt lat="42.5230817" lon="13.3789583"><ele>1323.3333333333333</ele><time>2026-04-04T10:22:52.027Z</time></trkpt><trkpt lat="42.5230683" lon="13.37883"><ele>1320.0</ele><time>2026-04-04T10:22:54.028Z</time></trkpt><trkpt lat="42.5230517" lon="13.3787233"><ele>1320.0</ele><time>2026-04-04T10:22:56.028Z</time></trkpt><trkpt lat="42.52305" lon="13.3786133"><ele>1320.0</ele><time>2026-04-04T10:24:52.028Z</time></trkpt><trkpt lat="42.52301" lon="13.3784567"><ele>1320.0</ele><time>2026-04-04T10:24:54.028Z</time></trkpt><trkpt lat="42.5229833" lon="13.3783683"><ele>1320.0</ele><time>2026-04-04T10:24:55.028Z</time></trkpt><trkpt lat="42.5229667" lon="13.3782767"><ele>1320.0</ele><time>2026-04-04T10:24:56.028Z</time></trkpt><trkpt lat="42.5229367" lon="13.3781917"><ele>1320.0</ele><time>2026-04-04T10:24:57.028Z</time></trkpt><trkpt lat="42.5228633" lon="13.3780683"><ele>1321.5</ele><time>2026-04-04T10:24:59.027Z</time></trkpt><trkpt lat="42.522755" lon="13.3779933"><ele>1323.0</ele><time>2026-04-04T10:25:01.028Z</time></trkpt><trkpt lat="42.5226917" lon="13.3779617"><ele>1324.5</ele><time>2026-04-04T10:25:02.028Z</time></trkpt><trkpt lat="42.5226217" lon="13.377925"><ele>1326.0</ele><time>2026-04-04T10:25:03.028Z</time></trkpt><trkpt lat="42.5225533" lon="13.3778817"><ele>1327.5</ele><time>2026-04-04T10:25:04.028Z</time></trkpt><trkpt lat="42.52249" lon="13.3778183"><ele>1329.0</ele><time>2026-04-04T10:25:05.028Z</time></trkpt><trkpt lat="42.5224283" lon="13.3777483"><ele>1329.0</ele><time>2026-04-04T10:25:06.028Z</time></trkpt><trkpt lat="42.5223867" lon="13.3776667"><ele>1329.0</ele><time>2026-04-04T10:25:07.028Z</time></trkpt><trkpt lat="42.52236" lon="13.3775767"><ele>1329.0</ele><time>2026-04-04T10:25:08.028Z</time></trkpt><trkpt lat="42.5223483" lon="13.37748"><ele>1329.0</ele><time>2026-04-04T10:25:09.028Z</time></trkpt><trkpt lat="42.5223583" lon="13.3773733"><ele>1329.0</ele><time>2026-04-04T10:25:10.028Z</time></trkpt><trkpt lat="42.5223867" lon="13.3772833"><ele>1329.0</ele><time>2026-04-04T10:25:11.028Z</time></trkpt><trkpt lat="42.522435" lon="13.3771867"><ele>1330.1666666666667</ele><time>2026-04-04T10:25:12.028Z</time></trkpt><trkpt lat="42.5224917" lon="13.3770867"><ele>1331.3333333333333</ele><time>2026-04-04T10:25:13.028Z</time></trkpt><trkpt lat="42.5225517" lon="13.3769983"><ele>1332.5</ele><time>2026-04-04T10:25:14.028Z</time></trkpt><trkpt lat="42.5225933" lon="13.3769083"><ele>1333.6666666666665</ele><time>2026-04-04T10:25:15.028Z</time></trkpt><trkpt lat="42.52263" lon="13.3768033"><ele>1334.8333333333333</ele><time>2026-04-04T10:25:16.028Z</time></trkpt><trkpt lat="42.52266" lon="13.3766967"><ele>1336.0</ele><time>2026-04-04T10:25:17.028Z</time></trkpt><trkpt lat="42.52269" lon="13.3765767"><ele>1336.0</ele><time>2026-04-04T10:25:18.028Z</time></trkpt><trkpt lat="42.52271" lon="13.37644"><ele>1336.0</ele><time>2026-04-04T10:25:19.028Z</time></trkpt><trkpt lat="42.5227367" lon="13.3762817"><ele>1336.0</ele><time>2026-04-04T10:25:20.028Z</time></trkpt><trkpt lat="42.5227717" lon="13.3761167"><ele>1336.0</ele><time>2026-04-04T10:25:21.028Z</time></trkpt><trkpt lat="42.5228017" lon="13.37595"><ele>1338.0</ele><time>2026-04-04T10:25:22.028Z</time></trkpt><trkpt lat="42.5228283" lon="13.37578"><ele>1340.0</ele><time>2026-04-04T10:25:23.028Z</time></trkpt><trkpt lat="42.5228517" lon="13.3756217"><ele>1342.0</ele><time>2026-04-04T10:25:24.028Z</time></trkpt><trkpt lat="42.522875" lon="13.3754833"><ele>1344.0</ele><time>2026-04-04T10:25:25.028Z</time></trkpt><trkpt lat="42.5229167" lon="13.3753533"><ele>1339.25</ele><time>2026-04-04T10:25:26.028Z</time></trkpt><trkpt lat="42.5229783" lon="13.37524"><ele>1334.5</ele><time>2026-04-04T10:25:27.028Z</time></trkpt><trkpt lat="42.5230583" lon="13.3751333"><ele>1329.75</ele><time>2026-04-04T10:25:28.028Z</time></trkpt><trkpt lat="42.52315" lon="13.3750283"><ele>1325.0</ele><time>2026-04-04T10:25:29.028Z</time></trkpt><trkpt lat="42.52324" lon="13.37493"><ele>1325.0</ele><time>2026-04-04T10:25:30.028Z</time></trkpt><trkpt lat="42.5233333" lon="13.3748267"><ele>1325.0</ele><time>2026-04-04T10:25:31.028Z</time></trkpt><trkpt lat="42.5234383" lon="13.3747133"><ele>1325.0</ele><time>2026-04-04T10:25:32.028Z</time></trkpt><trkpt lat="42.5235283" lon="13.3745883"><ele>1325.0</ele><time>2026-04-04T10:25:33.028Z</time></trkpt><trkpt lat="42.5236183" lon="13.3744583"><ele>1326.75</ele><time>2026-04-04T10:25:34.028Z</time></trkpt><trkpt lat="42.523685" lon="13.374315"><ele>1328.5</ele><time>2026-04-04T10:25:35.028Z</time></trkpt><trkpt lat="42.5237233" lon="13.3741717"><ele>1330.25</ele><time>2026-04-04T10:25:36.028Z</time></trkpt><trkpt lat="42.523735" lon="13.374035"><ele>1332.0</ele><time>2026-04-04T10:25:37.028Z</time></trkpt><trkpt lat="42.5237367" lon="13.3738817"><ele>1332.1999999999998</ele><time>2026-04-04T10:25:38.028Z</time></trkpt><trkpt lat="42.5237283" lon="13.37374"><ele>1332.4</ele><time>2026-04-04T10:25:39.028Z</time></trkpt><trkpt lat="42.5237133" lon="13.3735967"><ele>1332.6</ele><time>2026-04-04T10:25:40.028Z</time></trkpt><trkpt lat="42.523685" lon="13.3734483"><ele>1332.8000000000002</ele><time>2026-04-04T10:25:41.027Z</time></trkpt><trkpt lat="42.523655" lon="13.3733167"><ele>1333.0</ele><time>2026-04-04T10:25:42.028Z</time></trkpt><trkpt lat="42.5236233" lon="13.3731717"><ele>1333.0</ele><time>2026-04-04T10:25:43.028Z</time></trkpt><trkpt lat="42.52359" lon="13.373035"><ele>1333.0</ele><time>2026-04-04T10:25:44.028Z</time></trkpt><trkpt lat="42.52356" lon="13.3729033"><ele>1333.0</ele><time>2026-04-04T10:25:45.028Z</time></trkpt><trkpt lat="42.5235267" lon="13.372775"><ele>1333.0</ele><time>2026-04-04T10:25:46.028Z</time></trkpt><trkpt lat="42.52349" lon="13.3726583"><ele>1333.0</ele><time>2026-04-04T10:25:47.028Z</time></trkpt><trkpt lat="42.52345" lon="13.3725567"><ele>1332.3333333333333</ele><time>2026-04-04T10:25:48.028Z</time></trkpt><trkpt lat="42.5234133" lon="13.3724583"><ele>1331.6666666666665</ele><time>2026-04-04T10:25:49.028Z</time></trkpt><trkpt lat="42.5233783" lon="13.372345"><ele>1331.0</ele><time>2026-04-04T10:25:50.028Z</time></trkpt><trkpt lat="42.52334" lon="13.3722417"><ele>1330.3333333333333</ele><time>2026-04-04T10:25:51.028Z</time></trkpt><trkpt lat="42.5232967" lon="13.3721467"><ele>1329.6666666666667</ele><time>2026-04-04T10:25:52.028Z</time></trkpt><trkpt lat="42.5232633" lon="13.3720517"><ele>1329.0</ele><time>2026-04-04T10:25:53.028Z</time></trkpt><trkpt lat="42.523225" lon="13.3719517"><ele>1328.142857142857</ele><time>2026-04-04T10:25:54.028Z</time></trkpt><trkpt lat="42.523185" lon="13.3718567"><ele>1327.2857142857142</ele><time>2026-04-04T10:25:55.028Z</time></trkpt><trkpt lat="42.523145" lon="13.371765"><ele>1326.4285714285716</ele><time>2026-04-04T10:25:56.028Z</time></trkpt><trkpt lat="42.5231033" lon="13.371685"><ele>1325.5714285714284</ele><time>2026-04-04T10:25:57.028Z</time></trkpt><trkpt lat="42.523065" lon="13.371605"><ele>1324.7142857142858</ele><time>2026-04-04T10:25:58.028Z</time></trkpt><trkpt lat="42.5230317" lon="13.3715267"><ele>1323.857142857143</ele><time>2026-04-04T10:25:59.027Z</time></trkpt><trkpt lat="42.522985" lon="13.3714483"><ele>1323.0</ele><time>2026-04-04T10:26:00.028Z</time></trkpt><trkpt lat="42.5229333" lon="13.3713667"><ele>1322.6000000000001</ele><time>2026-04-04T10:26:01.028Z</time></trkpt><trkpt lat="42.522865" lon="13.3712867"><ele>1322.2</ele><time>2026-04-04T10:26:02.028Z</time></trkpt><trkpt lat="42.5227917" lon="13.3712033"><ele>1321.8</ele><time>2026-04-04T10:26:03.028Z</time></trkpt><trkpt lat="42.5227117" lon="13.3711333"><ele>1321.4</ele><time>2026-04-04T10:26:04.028Z</time></trkpt><trkpt lat="42.5226217" lon="13.371095"><ele>1321.0</ele><time>2026-04-04T10:26:05.028Z</time></trkpt><trkpt lat="42.5225317" lon="13.3710883"><ele>1321.0</ele><time>2026-04-04T10:26:06.028Z</time></trkpt><trkpt lat="42.5224467" lon="13.37113"><ele>1321.0</ele><time>2026-04-04T10:26:07.028Z</time></trkpt><trkpt lat="42.522365" lon="13.3712117"><ele>1321.0</ele><time>2026-04-04T10:26:08.028Z</time></trkpt><trkpt lat="42.5222917" lon="13.3713133"><ele>1321.0</ele><time>2026-04-04T10:26:09.028Z</time></trkpt><trkpt lat="42.52222" lon="13.3714317"><ele>1321.0</ele><time>2026-04-04T10:26:10.028Z</time></trkpt><trkpt lat="42.5221533" lon="13.371545"><ele>1321.6</ele><time>2026-04-04T10:26:11.028Z</time></trkpt><trkpt lat="42.5220867" lon="13.371655"><ele>1322.1999999999998</ele><time>2026-04-04T10:26:12.028Z</time></trkpt><trkpt lat="42.5220233" lon="13.37175"><ele>1322.8000000000002</ele><time>2026-04-04T10:26:13.028Z</time></trkpt><trkpt lat="42.5219633" lon="13.3718283"><ele>1323.4</ele><time>2026-04-04T10:26:14.028Z</time></trkpt><trkpt lat="42.5218933" lon="13.3718967"><ele>1324.0</ele><time>2026-04-04T10:26:15.028Z</time></trkpt><trkpt lat="42.521815" lon="13.37195"><ele>1324.0</ele><time>2026-04-04T10:26:16.028Z</time></trkpt><trkpt lat="42.5217167" lon="13.37201"><ele>1324.0</ele><time>2026-04-04T10:26:17.028Z</time></trkpt><trkpt lat="42.5216183" lon="13.37206"><ele>1324.0</ele><time>2026-04-04T10:26:18.028Z</time></trkpt><trkpt lat="42.5215183" lon="13.372095"><ele>1324.0</ele><time>2026-04-04T10:26:19.028Z</time></trkpt><trkpt lat="42.521425" lon="13.3721433"><ele>1324.0</ele><time>2026-04-04T10:26:20.028Z</time></trkpt><trkpt lat="42.521335" lon="13.3721983"><ele>1325.8000000000002</ele><time>2026-04-04T10:26:21.028Z</time></trkpt><trkpt lat="42.5212467" lon="13.3722633"><ele>1327.6000000000001</ele><time>2026-04-04T10:26:22.028Z</time></trkpt><trkpt lat="42.5211683" lon="13.3723433"><ele>1329.4</ele><time>2026-04-04T10:26:23.028Z</time></trkpt><trkpt lat="42.5210983" lon="13.37243"><ele>1331.2</ele><time>2026-04-04T10:26:24.028Z</time></trkpt><trkpt lat="42.52103" lon="13.3725267"><ele>1333.0</ele><time>2026-04-04T10:26:25.027Z</time></trkpt><trkpt lat="42.520955" lon="13.3726283"><ele>1333.0</ele><time>2026-04-04T10:26:26.028Z</time></trkpt><trkpt lat="42.52088" lon="13.37271"><ele>1333.0</ele><time>2026-04-04T10:26:27.028Z</time></trkpt><trkpt lat="42.5208017" lon="13.3727783"><ele>1333.0</ele><time>2026-04-04T10:26:28.028Z</time></trkpt><trkpt lat="42.5207183" lon="13.3728267"><ele>1333.0</ele><time>2026-04-04T10:26:29.028Z</time></trkpt><trkpt lat="42.5206333" lon="13.3728417"><ele>1333.0</ele><time>2026-04-04T10:26:30.028Z</time></trkpt><trkpt lat="42.5205517" lon="13.37283"><ele>1333.0</ele><time>2026-04-04T10:26:31.028Z</time></trkpt><trkpt lat="42.5204717" lon="13.3727733"><ele>1334.8000000000002</ele><time>2026-04-04T10:26:32.028Z</time></trkpt><trkpt lat="42.5203983" lon="13.372695"><ele>1336.6</ele><time>2026-04-04T10:26:33.028Z</time></trkpt><trkpt lat="42.5203317" lon="13.3725967"><ele>1338.4</ele><time>2026-04-04T10:26:34.028Z</time></trkpt><trkpt lat="42.5202767" lon="13.3724917"><ele>1340.1999999999998</ele><time>2026-04-04T10:26:35.028Z</time></trkpt><trkpt lat="42.520245" lon="13.372385"><ele>1342.0</ele><time>2026-04-04T10:26:36.028Z</time></trkpt><trkpt lat="42.520235" lon="13.3722767"><ele>1341.6</ele><time>2026-04-04T10:26:37.028Z</time></trkpt><trkpt lat="42.52026" lon="13.3721683"><ele>1341.1999999999998</ele><time>2026-04-04T10:26:38.028Z</time></trkpt><trkpt lat="42.520315" lon="13.37205"><ele>1340.8</ele><time>2026-04-04T10:26:39.028Z</time></trkpt><trkpt lat="42.5203933" lon="13.3719333"><ele>1340.4</ele><time>2026-04-04T10:26:40.028Z</time></trkpt><trkpt lat="42.5204717" lon="13.371805"><ele>1340.0</ele><time>2026-04-04T10:26:41.028Z</time></trkpt><trkpt lat="42.520545" lon="13.3716733"><ele>1337.4</ele><time>2026-04-04T10:26:42.028Z</time></trkpt><trkpt lat="42.5206217" lon="13.3715433"><ele>1334.8</ele><time>2026-04-04T10:26:43.028Z</time></trkpt><trkpt lat="42.5206867" lon="13.371405"><ele>1332.1999999999998</ele><time>2026-04-04T10:26:44.028Z</time></trkpt><trkpt lat="42.5207417" lon="13.3712817"><ele>1329.6</ele><time>2026-04-04T10:26:45.028Z</time></trkpt><trkpt lat="42.5207817" lon="13.3711667"><ele>1327.0</ele><time>2026-04-04T10:26:46.028Z</time></trkpt><trkpt lat="42.5207933" lon="13.3710567"><ele>1327.0</ele><time>2026-04-04T10:26:47.028Z</time></trkpt><trkpt lat="42.5207783" lon="13.37095"><ele>1327.0</ele><time>2026-04-04T10:26:48.028Z</time></trkpt><trkpt lat="42.5207383" lon="13.3708567"><ele>1327.0</ele><time>2026-04-04T10:26:49.028Z</time></trkpt><trkpt lat="42.520695" lon="13.3707833"><ele>1327.0</ele><time>2026-04-04T10:26:50.028Z</time></trkpt><trkpt lat="42.5206333" lon="13.3707333"><ele>1327.0</ele><time>2026-04-04T10:26:51.028Z</time></trkpt><trkpt lat="42.520565" lon="13.3706983"><ele>1327.0</ele><time>2026-04-04T10:26:52.028Z</time></trkpt><trkpt lat="42.5204883" lon="13.370685"><ele>1327.0</ele><time>2026-04-04T10:26:53.028Z</time></trkpt><trkpt lat="42.5204067" lon="13.3706783"><ele>1327.0</ele><time>2026-04-04T10:26:54.027Z</time></trkpt><trkpt lat="42.5203167" lon="13.370675"><ele>1327.0</ele><time>2026-04-04T10:26:55.028Z</time></trkpt><trkpt lat="42.5202283" lon="13.3706583"><ele>1327.0</ele><time>2026-04-04T10:26:56.028Z</time></trkpt><trkpt lat="42.5201383" lon="13.370615"><ele>1327.0</ele><time>2026-04-04T10:26:57.028Z</time></trkpt><trkpt lat="42.5200517" lon="13.37054"><ele>1327.75</ele><time>2026-04-04T10:26:58.028Z</time></trkpt><trkpt lat="42.51996" lon="13.3704567"><ele>1328.5</ele><time>2026-04-04T10:26:59.028Z</time></trkpt><trkpt lat="42.5198733" lon="13.370365"><ele>1329.25</ele><time>2026-04-04T10:27:00.028Z</time></trkpt><trkpt lat="42.51979" lon="13.3702567"><ele>1330.0</ele><time>2026-04-04T10:27:01.028Z</time></trkpt><trkpt lat="42.519705" lon="13.3701483"><ele>1330.0</ele><time>2026-04-04T10:27:02.028Z</time></trkpt><trkpt lat="42.51962" lon="13.3700383"><ele>1330.0</ele><time>2026-04-04T10:27:03.028Z</time></trkpt><trkpt lat="42.5195467" lon="13.3699283"><ele>1330.0</ele><time>2026-04-04T10:27:04.028Z</time></trkpt><trkpt lat="42.51949" lon="13.3698083"><ele>1330.0</ele><time>2026-04-04T10:27:05.028Z</time></trkpt><trkpt lat="42.5194533" lon="13.3696867"><ele>1330.0</ele><time>2026-04-04T10:27:06.028Z</time></trkpt><trkpt lat="42.519445" lon="13.36957"><ele>1330.0</ele><time>2026-04-04T10:27:07.028Z</time></trkpt><trkpt lat="42.5194633" lon="13.3694417"><ele>1330.0</ele><time>2026-04-04T10:27:08.028Z</time></trkpt><trkpt lat="42.519485" lon="13.3692967"><ele>1330.0</ele><time>2026-04-04T10:27:09.028Z</time></trkpt><trkpt lat="42.5194967" lon="13.36915"><ele>1330.0</ele><time>2026-04-04T10:27:10.028Z</time></trkpt><trkpt lat="42.51949" lon="13.3689967"><ele>1330.0</ele><time>2026-04-04T10:27:11.028Z</time></trkpt><trkpt lat="42.519455" lon="13.3688483"><ele>1330.0</ele><time>2026-04-04T10:27:12.027Z</time></trkpt><trkpt lat="42.5193983" lon="13.3687133"><ele>1330.0</ele><time>2026-04-04T10:27:13.028Z</time></trkpt><trkpt lat="42.5193233" lon="13.368585"><ele>1330.0</ele><time>2026-04-04T10:27:14.028Z</time></trkpt><trkpt lat="42.5192317" lon="13.368475"><ele>1330.0</ele><time>2026-04-04T10:27:15.028Z</time></trkpt><trkpt lat="42.5191283" lon="13.3683817"><ele>1330.0</ele><time>2026-04-04T10:27:16.028Z</time></trkpt><trkpt lat="42.5190133" lon="13.3683017"><ele>1330.0</ele><time>2026-04-04T10:27:17.028Z</time></trkpt><trkpt lat="42.5188983" lon="13.368265"><ele>1330.0</ele><time>2026-04-04T10:27:18.027Z</time></trkpt><trkpt lat="42.5187883" lon="13.3682717"><ele>1330.0</ele><time>2026-04-04T10:27:19.027Z</time></trkpt><trkpt lat="42.5186733" lon="13.3682967"><ele>1329.5</ele><time>2026-04-04T10:27:20.028Z</time></trkpt><trkpt lat="42.5185567" lon="13.3683367"><ele>1329.0</ele><time>2026-04-04T10:27:21.028Z</time></trkpt><trkpt lat="42.5184517" lon="13.3683983"><ele>1328.5</ele><time>2026-04-04T10:27:22.028Z</time></trkpt><trkpt lat="42.5183517" lon="13.368485"><ele>1328.0</ele><time>2026-04-04T10:27:23.027Z</time></trkpt><trkpt lat="42.5182683" lon="13.3685917"><ele>1328.0</ele><time>2026-04-04T10:27:24.028Z</time></trkpt><trkpt lat="42.5181883" lon="13.368705"><ele>1328.0</ele><time>2026-04-04T10:27:25.028Z</time></trkpt><trkpt lat="42.5181167" lon="13.3688083"><ele>1328.0</ele><time>2026-04-04T10:27:26.028Z</time></trkpt><trkpt lat="42.5180317" lon="13.3688967"><ele>1328.0</ele><time>2026-04-04T10:27:27.028Z</time></trkpt><trkpt lat="42.5179433" lon="13.3689633"><ele>1328.0</ele><time>2026-04-04T10:27:28.028Z</time></trkpt><trkpt lat="42.5178517" lon="13.3690033"><ele>1330.0</ele><time>2026-04-04T10:27:29.027Z</time></trkpt><trkpt lat="42.5177517" lon="13.3690183"><ele>1332.0</ele><time>2026-04-04T10:27:30.028Z</time></trkpt><trkpt lat="42.5176433" lon="13.369025"><ele>1334.0</ele><time>2026-04-04T10:27:31.028Z</time></trkpt><trkpt lat="42.517535" lon="13.3690333"><ele>1336.0</ele><time>2026-04-04T10:27:32.028Z</time></trkpt><trkpt lat="42.5174217" lon="13.3690383"><ele>1338.0</ele><time>2026-04-04T10:27:33.028Z</time></trkpt><trkpt lat="42.51731" lon="13.3690517"><ele>1338.0</ele><time>2026-04-04T10:27:34.028Z</time></trkpt><trkpt lat="42.5172" lon="13.3690633"><ele>1338.0</ele><time>2026-04-04T10:27:35.028Z</time></trkpt><trkpt lat="42.517095" lon="13.36909"><ele>1338.0</ele><time>2026-04-04T10:27:36.028Z</time></trkpt><trkpt lat="42.516995" lon="13.3691167"><ele>1338.0</ele><time>2026-04-04T10:27:37.028Z</time></trkpt><trkpt lat="42.5169" lon="13.3691433"><ele>1338.0</ele><time>2026-04-04T10:27:38.028Z</time></trkpt><trkpt lat="42.5167933" lon="13.3691817"><ele>1336.0</ele><time>2026-04-04T10:27:39.028Z</time></trkpt><trkpt lat="42.5166917" lon="13.3692233"><ele>1334.0</ele><time>2026-04-04T10:27:40.028Z</time></trkpt><trkpt lat="42.5165767" lon="13.3692733"><ele>1332.0</ele><time>2026-04-04T10:27:41.028Z</time></trkpt><trkpt lat="42.51646" lon="13.3693217"><ele>1330.0</ele><time>2026-04-04T10:27:42.028Z</time></trkpt><trkpt lat="42.5163433" lon="13.3693967"><ele>1330.0</ele><time>2026-04-04T10:27:43.028Z</time></trkpt><trkpt lat="42.5162367" lon="13.36949"><ele>1330.0</ele><time>2026-04-04T10:27:44.028Z</time></trkpt><trkpt lat="42.51614" lon="13.3695933"><ele>1330.0</ele><time>2026-04-04T10:27:45.028Z</time></trkpt><trkpt lat="42.5160417" lon="13.36972"><ele>1330.0</ele><time>2026-04-04T10:27:46.028Z</time></trkpt><trkpt lat="42.5159467" lon="13.3698533"><ele>1330.25</ele><time>2026-04-04T10:27:47.028Z</time></trkpt><trkpt lat="42.515855" lon="13.36998"><ele>1330.5</ele><time>2026-04-04T10:27:48.028Z</time></trkpt><trkpt lat="42.5157583" lon="13.3700933"><ele>1330.75</ele><time>2026-04-04T10:27:49.028Z</time></trkpt><trkpt lat="42.5156633" lon="13.3701917"><ele>1331.0</ele><time>2026-04-04T10:27:50.028Z</time></trkpt><trkpt lat="42.5155667" lon="13.3702783"><ele>1331.0</ele><time>2026-04-04T10:27:51.028Z</time></trkpt><trkpt lat="42.5154683" lon="13.3703617"><ele>1331.0</ele><time>2026-04-04T10:27:52.028Z</time></trkpt><trkpt lat="42.5153717" lon="13.3704367"><ele>1331.0</ele><time>2026-04-04T10:27:53.028Z</time></trkpt><trkpt lat="42.51527" lon="13.3705117"><ele>1331.0</ele><time>2026-04-04T10:27:54.028Z</time></trkpt><trkpt lat="42.5151717" lon="13.370575"><ele>1329.6</ele><time>2026-04-04T10:27:55.027Z</time></trkpt><trkpt lat="42.5150667" lon="13.3706217"><ele>1328.1999999999998</ele><time>2026-04-04T10:27:56.028Z</time></trkpt><trkpt lat="42.5149617" lon="13.37065"><ele>1326.8000000000002</ele><time>2026-04-04T10:27:57.028Z</time></trkpt><trkpt lat="42.5148483" lon="13.3706467"><ele>1325.4</ele><time>2026-04-04T10:27:58.028Z</time></trkpt><trkpt lat="42.5147433" lon="13.370605"><ele>1324.0</ele><time>2026-04-04T10:27:59.028Z</time></trkpt><trkpt lat="42.51463" lon="13.3705567"><ele>1321.5</ele><time>2026-04-04T10:28:00.028Z</time></trkpt><trkpt lat="42.5145217" lon="13.37048"><ele>1319.0</ele><time>2026-04-04T10:28:01.028Z</time></trkpt><trkpt lat="42.5144117" lon="13.3703867"><ele>1316.5</ele><time>2026-04-04T10:28:02.028Z</time></trkpt><trkpt lat="42.5142983" lon="13.3702883"><ele>1314.0</ele><time>2026-04-04T10:28:03.028Z</time></trkpt><trkpt lat="42.5141867" lon="13.370195"><ele>1314.0</ele><time>2026-04-04T10:28:04.028Z</time></trkpt><trkpt lat="42.5140767" lon="13.3701133"><ele>1314.0</ele><time>2026-04-04T10:28:05.028Z</time></trkpt><trkpt lat="42.51397" lon="13.3700267"><ele>1314.0</ele><time>2026-04-04T10:28:06.028Z</time></trkpt><trkpt lat="42.5138617" lon="13.36993"><ele>1314.0</ele><time>2026-04-04T10:28:07.028Z</time></trkpt><trkpt lat="42.5137617" lon="13.369825"><ele>1313.0</ele><time>2026-04-04T10:28:08.028Z</time></trkpt><trkpt lat="42.5136667" lon="13.3697117"><ele>1312.0</ele><time>2026-04-04T10:28:09.028Z</time></trkpt><trkpt lat="42.5135767" lon="13.3695867"><ele>1311.0</ele><time>2026-04-04T10:28:10.028Z</time></trkpt><trkpt lat="42.5134883" lon="13.3694517"><ele>1310.0</ele><time>2026-04-04T10:28:11.028Z</time></trkpt><trkpt lat="42.5134083" lon="13.3693017"><ele>1310.0</ele><time>2026-04-04T10:28:12.028Z</time></trkpt><trkpt lat="42.51337" lon="13.3691517"><ele>1310.0</ele><time>2026-04-04T10:28:13.028Z</time></trkpt><trkpt lat="42.5133333" lon="13.3689783"><ele>1310.0</ele><time>2026-04-04T10:28:14.028Z</time></trkpt><trkpt lat="42.51331" lon="13.3687933"><ele>1310.0</ele><time>2026-04-04T10:28:15.028Z</time></trkpt><trkpt lat="42.5132867" lon="13.3686083"><ele>1309.5</ele><time>2026-04-04T10:28:16.028Z</time></trkpt><trkpt lat="42.51327" lon="13.3684083"><ele>1309.0</ele><time>2026-04-04T10:28:17.028Z</time></trkpt><trkpt lat="42.5132483" lon="13.36822"><ele>1308.5</ele><time>2026-04-04T10:28:18.028Z</time></trkpt><trkpt lat="42.5132183" lon="13.368055"><ele>1308.0</ele><time>2026-04-04T10:28:19.028Z</time></trkpt><trkpt lat="42.5131817" lon="13.3678883"><ele>1308.0</ele><time>2026-04-04T10:28:20.028Z</time></trkpt><trkpt lat="42.513135" lon="13.3677317"><ele>1308.0</ele><time>2026-04-04T10:28:21.027Z</time></trkpt><trkpt lat="42.5130883" lon="13.36758"><ele>1308.0</ele><time>2026-04-04T10:28:22.028Z</time></trkpt><trkpt lat="42.5130283" lon="13.3674433"><ele>1308.0</ele><time>2026-04-04T10:28:23.028Z</time></trkpt><trkpt lat="42.5129567" lon="13.3673183"><ele>1306.0</ele><time>2026-04-04T10:28:24.028Z</time></trkpt><trkpt lat="42.51288" lon="13.367195"><ele>1304.0</ele><time>2026-04-04T10:28:25.028Z</time></trkpt><trkpt lat="42.5128217" lon="13.3670733"><ele>1302.0</ele><time>2026-04-04T10:28:26.028Z</time></trkpt><trkpt lat="42.5127667" lon="13.3669483"><ele>1300.0</ele><time>2026-04-04T10:28:27.028Z</time></trkpt><trkpt lat="42.5127167" lon="13.3668283"><ele>1298.0</ele><time>2026-04-04T10:28:28.027Z</time></trkpt><trkpt lat="42.512675" lon="13.3667067"><ele>1298.0</ele><time>2026-04-04T10:28:29.028Z</time></trkpt><trkpt lat="42.5126367" lon="13.36658"><ele>1298.0</ele><time>2026-04-04T10:28:30.028Z</time></trkpt><trkpt lat="42.512595" lon="13.36644"><ele>1298.0</ele><time>2026-04-04T10:28:31.028Z</time></trkpt><trkpt lat="42.51255" lon="13.3662867"><ele>1298.0</ele><time>2026-04-04T10:28:32.028Z</time></trkpt><trkpt lat="42.512495" lon="13.3661267"><ele>1299.25</ele><time>2026-04-04T10:28:33.028Z</time></trkpt><trkpt lat="42.5124367" lon="13.365955"><ele>1300.5</ele><time>2026-04-04T10:28:34.028Z</time></trkpt><trkpt lat="42.5123767" lon="13.3657933"><ele>1301.75</ele><time>2026-04-04T10:28:35.028Z</time></trkpt><trkpt lat="42.5123133" lon="13.365625"><ele>1303.0</ele><time>2026-04-04T10:28:36.028Z</time></trkpt><trkpt lat="42.51226" lon="13.3654483"><ele>1303.75</ele><time>2026-04-04T10:28:37.028Z</time></trkpt><trkpt lat="42.5122067" lon="13.36527"><ele>1304.5</ele><time>2026-04-04T10:28:38.028Z</time></trkpt><trkpt lat="42.5121633" lon="13.3651"><ele>1305.25</ele><time>2026-04-04T10:28:39.028Z</time></trkpt><trkpt lat="42.5121183" lon="13.3649317"><ele>1306.0</ele><time>2026-04-04T10:28:40.028Z</time></trkpt><trkpt lat="42.5120817" lon="13.3647667"><ele>1300.25</ele><time>2026-04-04T10:28:41.028Z</time></trkpt><trkpt lat="42.5120517" lon="13.3645917"><ele>1294.5</ele><time>2026-04-04T10:28:42.028Z</time></trkpt><trkpt lat="42.5120267" lon="13.3644033"><ele>1288.75</ele><time>2026-04-04T10:28:43.028Z</time></trkpt><trkpt lat="42.512" lon="13.36421"><ele>1283.0</ele><time>2026-04-04T10:28:44.028Z</time></trkpt><trkpt lat="42.5119717" lon="13.3640283"><ele>1284.25</ele><time>2026-04-04T10:28:45.028Z</time></trkpt><trkpt lat="42.5119517" lon="13.363835"><ele>1285.5</ele><time>2026-04-04T10:28:46.028Z</time></trkpt><trkpt lat="42.5119283" lon="13.36364"><ele>1286.75</ele><time>2026-04-04T10:28:47.028Z</time></trkpt><trkpt lat="42.511895" lon="13.363455"><ele>1288.0</ele><time>2026-04-04T10:28:48.028Z</time></trkpt><trkpt lat="42.5118583" lon="13.36329"><ele>1288.0</ele><time>2026-04-04T10:28:49.028Z</time></trkpt><trkpt lat="42.51183" lon="13.3631333"><ele>1288.0</ele><time>2026-04-04T10:28:50.028Z</time></trkpt><trkpt lat="42.5117967" lon="13.3629867"><ele>1288.0</ele><time>2026-04-04T10:28:51.028Z</time></trkpt><trkpt lat="42.5117667" lon="13.3628433"><ele>1288.0</ele><time>2026-04-04T10:28:52.028Z</time></trkpt><trkpt lat="42.5117233" lon="13.3627383"><ele>1288.0</ele><time>2026-04-04T10:28:53.028Z</time></trkpt><trkpt lat="42.5116583" lon="13.3626483"><ele>1286.4</ele><time>2026-04-04T10:28:54.028Z</time></trkpt><trkpt lat="42.511585" lon="13.3625933"><ele>1284.8000000000002</ele><time>2026-04-04T10:28:55.028Z</time></trkpt><trkpt lat="42.5115033" lon="13.3625717"><ele>1283.2</ele><time>2026-04-04T10:28:56.028Z</time></trkpt><trkpt lat="42.5114067" lon="13.3625717"><ele>1281.6</ele><time>2026-04-04T10:28:57.028Z</time></trkpt><trkpt lat="42.5112983" lon="13.362575"><ele>1280.0</ele><time>2026-04-04T10:28:58.028Z</time></trkpt><trkpt lat="42.5111983" lon="13.36257"><ele>1280.0</ele><time>2026-04-04T10:28:59.028Z</time></trkpt><trkpt lat="42.5110967" lon="13.36253"><ele>1280.0</ele><time>2026-04-04T10:29:00.028Z</time></trkpt><trkpt lat="42.5110083" lon="13.362455"><ele>1280.0</ele><time>2026-04-04T10:29:01.028Z</time></trkpt><trkpt lat="42.5109283" lon="13.362355"><ele>1280.0</ele><time>2026-04-04T10:29:02.028Z</time></trkpt><trkpt lat="42.5108633" lon="13.36223"><ele>1280.0</ele><time>2026-04-04T10:29:03.028Z</time></trkpt><trkpt lat="42.5108067" lon="13.3620967"><ele>1282.0</ele><time>2026-04-04T10:29:04.028Z</time></trkpt><trkpt lat="42.510755" lon="13.3619483"><ele>1284.0</ele><time>2026-04-04T10:29:05.028Z</time></trkpt><trkpt lat="42.5107083" lon="13.36179"><ele>1286.0</ele><time>2026-04-04T10:29:06.028Z</time></trkpt><trkpt lat="42.5106567" lon="13.3616217"><ele>1288.0</ele><time>2026-04-04T10:29:07.028Z</time></trkpt><trkpt lat="42.5106267" lon="13.361445"><ele>1288.25</ele><time>2026-04-04T10:29:08.028Z</time></trkpt><trkpt lat="42.5105983" lon="13.3612783"><ele>1288.5</ele><time>2026-04-04T10:29:09.028Z</time></trkpt><trkpt lat="42.51059" lon="13.3611167"><ele>1288.75</ele><time>2026-04-04T10:29:10.027Z</time></trkpt><trkpt lat="42.5106" lon="13.3609667"><ele>1289.0</ele><time>2026-04-04T10:29:11.028Z</time></trkpt><trkpt lat="42.5106017" lon="13.360825"><ele>1289.0</ele><time>2026-04-04T10:29:12.028Z</time></trkpt><trkpt lat="42.510585" lon="13.3606983"><ele>1289.0</ele><time>2026-04-04T10:29:13.028Z</time></trkpt><trkpt lat="42.51054" lon="13.3605867"><ele>1289.0</ele><time>2026-04-04T10:29:14.028Z</time></trkpt><trkpt lat="42.5104617" lon="13.3604917"><ele>1289.0</ele><time>2026-04-04T10:29:15.028Z</time></trkpt><trkpt lat="42.51036" lon="13.3604383"><ele>1289.0</ele><time>2026-04-04T10:29:16.028Z</time></trkpt><trkpt lat="42.5102467" lon="13.36042"><ele>1288.5</ele><time>2026-04-04T10:29:17.028Z</time></trkpt><trkpt lat="42.5101167" lon="13.36044"><ele>1288.0</ele><time>2026-04-04T10:29:18.027Z</time></trkpt><trkpt lat="42.5099883" lon="13.3604817"><ele>1287.5</ele><time>2026-04-04T10:29:19.028Z</time></trkpt><trkpt lat="42.5098583" lon="13.3605367"><ele>1287.0</ele><time>2026-04-04T10:29:20.028Z</time></trkpt><trkpt lat="42.509735" lon="13.3605683"><ele>1284.6</ele><time>2026-04-04T10:29:21.028Z</time></trkpt><trkpt lat="42.5096217" lon="13.36056"><ele>1282.1999999999998</ele><time>2026-04-04T10:29:22.028Z</time></trkpt><trkpt lat="42.5095233" lon="13.3605067"><ele>1279.8</ele><time>2026-04-04T10:29:23.028Z</time></trkpt><trkpt lat="42.5094233" lon="13.36044"><ele>1277.4</ele><time>2026-04-04T10:29:24.028Z</time></trkpt><trkpt lat="42.5093283" lon="13.360355"><ele>1275.0</ele><time>2026-04-04T10:29:25.028Z</time></trkpt><trkpt lat="42.5092167" lon="13.36028"><ele>1275.0</ele><time>2026-04-04T10:29:26.028Z</time></trkpt><trkpt lat="42.5091033" lon="13.360235"><ele>1275.0</ele><time>2026-04-04T10:29:27.027Z</time></trkpt><trkpt lat="42.5089917" lon="13.3602333"><ele>1275.0</ele><time>2026-04-04T10:29:28.028Z</time></trkpt><trkpt lat="42.5088933" lon="13.3602917"><ele>1275.0</ele><time>2026-04-04T10:29:29.028Z</time></trkpt><trkpt lat="42.5087933" lon="13.3603767"><ele>1276.75</ele><time>2026-04-04T10:29:30.028Z</time></trkpt><trkpt lat="42.5086733" lon="13.360465"><ele>1278.5</ele><time>2026-04-04T10:29:31.028Z</time></trkpt><trkpt lat="42.5085583" lon="13.3605583"><ele>1280.25</ele><time>2026-04-04T10:29:32.027Z</time></trkpt><trkpt lat="42.508435" lon="13.3606483"><ele>1282.0</ele><time>2026-04-04T10:29:33.027Z</time></trkpt><trkpt lat="42.508305" lon="13.3607383"><ele>1278.0</ele><time>2026-04-04T10:29:34.028Z</time></trkpt><trkpt lat="42.5081817" lon="13.3608283"><ele>1274.0</ele><time>2026-04-04T10:29:35.028Z</time></trkpt><trkpt lat="42.5080617" lon="13.360915"><ele>1270.0</ele><time>2026-04-04T10:29:36.028Z</time></trkpt><trkpt lat="42.5079483" lon="13.3609833"><ele>1266.0</ele><time>2026-04-04T10:29:37.028Z</time></trkpt><trkpt lat="42.50784" lon="13.36103"><ele>1264.3999999999999</ele><time>2026-04-04T10:29:38.028Z</time></trkpt><trkpt lat="42.507735" lon="13.361035"><ele>1262.8</ele><time>2026-04-04T10:29:39.028Z</time></trkpt><trkpt lat="42.5076517" lon="13.360985"><ele>1261.1999999999998</ele><time>2026-04-04T10:29:40.028Z</time></trkpt><trkpt lat="42.5075817" lon="13.3608917"><ele>1259.6</ele><time>2026-04-04T10:29:41.028Z</time></trkpt><trkpt lat="42.507515" lon="13.3607667"><ele>1258.0</ele><time>2026-04-04T10:29:42.028Z</time></trkpt><trkpt lat="42.50746" lon="13.3606217"><ele>1260.75</ele><time>2026-04-04T10:29:43.028Z</time></trkpt><trkpt lat="42.5074033" lon="13.360455"><ele>1263.5</ele><time>2026-04-04T10:29:44.028Z</time></trkpt><trkpt lat="42.507345" lon="13.3602933"><ele>1266.25</ele><time>2026-04-04T10:29:45.028Z</time></trkpt><trkpt lat="42.50729" lon="13.36012"><ele>1269.0</ele><time>2026-04-04T10:29:46.028Z</time></trkpt><trkpt lat="42.5072233" lon="13.359965"><ele>1269.0</ele><time>2026-04-04T10:29:47.028Z</time></trkpt><trkpt lat="42.507165" lon="13.3598017"><ele>1269.0</ele><time>2026-04-04T10:29:48.028Z</time></trkpt><trkpt lat="42.5071167" lon="13.35964"><ele>1269.0</ele><time>2026-04-04T10:29:49.028Z</time></trkpt><trkpt lat="42.5070817" lon="13.3594717"><ele>1269.0</ele><time>2026-04-04T10:29:50.027Z</time></trkpt><trkpt lat="42.5070633" lon="13.3592783"><ele>1268.0</ele><time>2026-04-04T10:29:51.028Z</time></trkpt><trkpt lat="42.5070283" lon="13.3590983"><ele>1267.0</ele><time>2026-04-04T10:29:52.028Z</time></trkpt><trkpt lat="42.5069767" lon="13.3589433"><ele>1266.0</ele><time>2026-04-04T10:29:53.028Z</time></trkpt><trkpt lat="42.5068983" lon="13.3587983"><ele>1265.0</ele><time>2026-04-04T10:29:54.028Z</time></trkpt><trkpt lat="42.5067983" lon="13.3586617"><ele>1265.0</ele><time>2026-04-04T10:29:55.028Z</time></trkpt><trkpt lat="42.5067" lon="13.35853"><ele>1265.0</ele><time>2026-04-04T10:29:56.028Z</time></trkpt><trkpt lat="42.5066" lon="13.358405"><ele>1265.0</ele><time>2026-04-04T10:29:57.028Z</time></trkpt><trkpt lat="42.5065233" lon="13.3582817"><ele>1265.0</ele><time>2026-04-04T10:29:58.027Z</time></trkpt><trkpt lat="42.5064283" lon="13.358175"><ele>1265.0</ele><time>2026-04-04T10:29:59.028Z</time></trkpt><trkpt lat="42.5063267" lon="13.3580867"><ele>1265.0</ele><time>2026-04-04T10:30:00.028Z</time></trkpt><trkpt lat="42.5062217" lon="13.3580267"><ele>1265.0</ele><time>2026-04-04T10:30:01.028Z</time></trkpt><trkpt lat="42.50609" lon="13.3579867"><ele>1265.0</ele><time>2026-04-04T10:30:02.028Z</time></trkpt><trkpt lat="42.5059433" lon="13.35794"><ele>1263.5</ele><time>2026-04-04T10:30:03.028Z</time></trkpt><trkpt lat="42.505815" lon="13.35788"><ele>1262.0</ele><time>2026-04-04T10:30:04.028Z</time></trkpt><trkpt lat="42.505695" lon="13.357805"><ele>1260.5</ele><time>2026-04-04T10:30:05.028Z</time></trkpt><trkpt lat="42.5055783" lon="13.35768"><ele>1259.0</ele><time>2026-04-04T10:30:06.028Z</time></trkpt><trkpt lat="42.5054783" lon="13.3575383"><ele>1257.75</ele><time>2026-04-04T10:30:07.028Z</time></trkpt><trkpt lat="42.505395" lon="13.357385"><ele>1256.5</ele><time>2026-04-04T10:30:08.027Z</time></trkpt><trkpt lat="42.50531" lon="13.3572433"><ele>1255.25</ele><time>2026-04-04T10:30:09.027Z</time></trkpt><trkpt lat="42.5052283" lon="13.3571133"><ele>1254.0</ele><time>2026-04-04T10:30:10.028Z</time></trkpt><trkpt lat="42.50513" lon="13.357"><ele>1254.0</ele><time>2026-04-04T10:30:11.028Z</time></trkpt><trkpt lat="42.505015" lon="13.35693"><ele>1254.0</ele><time>2026-04-04T10:30:12.028Z</time></trkpt><trkpt lat="42.5049" lon="13.3568883"><ele>1254.0</ele><time>2026-04-04T10:30:13.027Z</time></trkpt><trkpt lat="42.5048083" lon="13.3568333"><ele>1254.0</ele><time>2026-04-04T10:30:14.027Z</time></trkpt><trkpt lat="42.50472" lon="13.3567567"><ele>1254.0</ele><time>2026-04-04T10:30:15.028Z</time></trkpt><trkpt lat="42.5046333" lon="13.3566533"><ele>1254.0</ele><time>2026-04-04T10:30:16.028Z</time></trkpt><trkpt lat="42.5045717" lon="13.356515"><ele>1254.0</ele><time>2026-04-04T10:30:17.028Z</time></trkpt><trkpt lat="42.5045233" lon="13.3563617"><ele>1254.0</ele><time>2026-04-04T10:30:18.028Z</time></trkpt><trkpt lat="42.50446" lon="13.3562133"><ele>1253.25</ele><time>2026-04-04T10:30:19.028Z</time></trkpt><trkpt lat="42.5043767" lon="13.3560767"><ele>1252.5</ele><time>2026-04-04T10:30:20.028Z</time></trkpt><trkpt lat="42.5042667" lon="13.35596"><ele>1251.75</ele><time>2026-04-04T10:30:21.028Z</time></trkpt><trkpt lat="42.50415" lon="13.3558717"><ele>1251.0</ele><time>2026-04-04T10:30:22.028Z</time></trkpt><trkpt lat="42.5040367" lon="13.3557983"><ele>1251.0</ele><time>2026-04-04T10:30:23.028Z</time></trkpt><trkpt lat="42.5039167" lon="13.3557483"><ele>1251.0</ele><time>2026-04-04T10:30:24.028Z</time></trkpt><trkpt lat="42.5037917" lon="13.3557067"><ele>1251.0</ele><time>2026-04-04T10:30:25.028Z</time></trkpt><trkpt lat="42.5036633" lon="13.3556917"><ele>1251.0</ele><time>2026-04-04T10:30:26.028Z</time></trkpt><trkpt lat="42.5035483" lon="13.35568"><ele>1249.6</ele><time>2026-04-04T10:30:27.028Z</time></trkpt><trkpt lat="42.5034483" lon="13.3556733"><ele>1248.1999999999998</ele><time>2026-04-04T10:30:28.028Z</time></trkpt><trkpt lat="42.5033533" lon="13.355655"><ele>1246.8000000000002</ele><time>2026-04-04T10:30:29.028Z</time></trkpt><trkpt lat="42.50327" lon="13.3556067"><ele>1245.4</ele><time>2026-04-04T10:30:30.028Z</time></trkpt><trkpt lat="42.50319" lon="13.3555417"><ele>1244.0</ele><time>2026-04-04T10:30:31.028Z</time></trkpt><trkpt lat="42.5031267" lon="13.3554467"><ele>1244.0</ele><time>2026-04-04T10:30:32.028Z</time></trkpt><trkpt lat="42.503085" lon="13.3553517"><ele>1244.0</ele><time>2026-04-04T10:30:33.028Z</time></trkpt><trkpt lat="42.5030783" lon="13.35523"><ele>1244.0</ele><time>2026-04-04T10:30:34.028Z</time></trkpt><trkpt lat="42.5030933" lon="13.355095"><ele>1244.0</ele><time>2026-04-04T10:30:35.028Z</time></trkpt><trkpt lat="42.5031083" lon="13.3549517"><ele>1244.0</ele><time>2026-04-04T10:30:36.028Z</time></trkpt><trkpt lat="42.50311" lon="13.35481"><ele>1245.0</ele><time>2026-04-04T10:30:37.028Z</time></trkpt><trkpt lat="42.50309" lon="13.3546633"><ele>1246.0</ele><time>2026-04-04T10:30:38.028Z</time></trkpt><trkpt lat="42.5030533" lon="13.3545317"><ele>1247.0</ele><time>2026-04-04T10:30:39.028Z</time></trkpt><trkpt lat="42.50298" lon="13.3544167"><ele>1248.0</ele><time>2026-04-04T10:30:40.028Z</time></trkpt><trkpt lat="42.5028767" lon="13.3543367"><ele>1249.0</ele><time>2026-04-04T10:30:41.028Z</time></trkpt><trkpt lat="42.5027667" lon="13.3543017"><ele>1246.25</ele><time>2026-04-04T10:30:42.028Z</time></trkpt><trkpt lat="42.502645" lon="13.354295"><ele>1243.5</ele><time>2026-04-04T10:30:43.028Z</time></trkpt><trkpt lat="42.5025217" lon="13.3542833"><ele>1240.75</ele><time>2026-04-04T10:30:44.028Z</time></trkpt><trkpt lat="42.5024" lon="13.3542767"><ele>1238.0</ele><time>2026-04-04T10:30:45.028Z</time></trkpt><trkpt lat="42.502285" lon="13.3542617"><ele>1238.0</ele><time>2026-04-04T10:30:46.028Z</time></trkpt><trkpt lat="42.5021717" lon="13.3542267"><ele>1238.0</ele><time>2026-04-04T10:30:47.028Z</time></trkpt><trkpt lat="42.50206" lon="13.3541683"><ele>1238.0</ele><time>2026-04-04T10:30:48.028Z</time></trkpt><trkpt lat="42.501945" lon="13.3540883"><ele>1238.0</ele><time>2026-04-04T10:30:49.028Z</time></trkpt><trkpt lat="42.5018433" lon="13.354"><ele>1237.4</ele><time>2026-04-04T10:30:50.028Z</time></trkpt><trkpt lat="42.50176" lon="13.3539067"><ele>1236.8</ele><time>2026-04-04T10:30:51.028Z</time></trkpt><trkpt lat="42.501685" lon="13.3537833"><ele>1236.2</ele><time>2026-04-04T10:30:52.028Z</time></trkpt><trkpt lat="42.501635" lon="13.3536483"><ele>1235.6</ele><time>2026-04-04T10:30:53.028Z</time></trkpt><trkpt lat="42.5016117" lon="13.3535"><ele>1235.0</ele><time>2026-04-04T10:30:54.028Z</time></trkpt><trkpt lat="42.5016083" lon="13.353345"><ele>1235.0</ele><time>2026-04-04T10:30:55.028Z</time></trkpt><trkpt lat="42.5016" lon="13.3531817"><ele>1235.0</ele><time>2026-04-04T10:30:56.028Z</time></trkpt><trkpt lat="42.5015817" lon="13.35302"><ele>1235.0</ele><time>2026-04-04T10:30:57.028Z</time></trkpt><trkpt lat="42.501535" lon="13.352885"><ele>1235.0</ele><time>2026-04-04T10:30:58.028Z</time></trkpt><trkpt lat="42.5014733" lon="13.352765"><ele>1235.5</ele><time>2026-04-04T10:30:59.028Z</time></trkpt><trkpt lat="42.5013967" lon="13.3526617"><ele>1236.0</ele><time>2026-04-04T10:31:00.028Z</time></trkpt><trkpt lat="42.5013" lon="13.3525717"><ele>1236.5</ele><time>2026-04-04T10:31:01.028Z</time></trkpt><trkpt lat="42.501195" lon="13.3525133"><ele>1237.0</ele><time>2026-04-04T10:31:02.028Z</time></trkpt><trkpt lat="42.5010717" lon="13.352495"><ele>1233.75</ele><time>2026-04-04T10:31:03.028Z</time></trkpt><trkpt lat="42.50095" lon="13.3524583"><ele>1230.5</ele><time>2026-04-04T10:31:04.028Z</time></trkpt><trkpt lat="42.5008233" lon="13.35242"><ele>1227.25</ele><time>2026-04-04T10:31:05.028Z</time></trkpt><trkpt lat="42.5007033" lon="13.3523733"><ele>1224.0</ele><time>2026-04-04T10:31:06.028Z</time></trkpt><trkpt lat="42.50059" lon="13.3523283"><ele>1224.0</ele><time>2026-04-04T10:31:07.028Z</time></trkpt><trkpt lat="42.500475" lon="13.3522867"><ele>1224.0</ele><time>2026-04-04T10:31:08.028Z</time></trkpt><trkpt lat="42.5003617" lon="13.352245"><ele>1224.0</ele><time>2026-04-04T10:31:09.028Z</time></trkpt><trkpt lat="42.5002467" lon="13.3522133"><ele>1224.0</ele><time>2026-04-04T10:31:10.028Z</time></trkpt><trkpt lat="42.5001283" lon="13.3521967"><ele>1224.2</ele><time>2026-04-04T10:31:11.028Z</time></trkpt><trkpt lat="42.50002" lon="13.3521933"><ele>1224.4</ele><time>2026-04-04T10:31:12.028Z</time></trkpt><trkpt lat="42.4999217" lon="13.35217"><ele>1224.6</ele><time>2026-04-04T10:31:13.028Z</time></trkpt><trkpt lat="42.4998383" lon="13.35211"><ele>1224.8</ele><time>2026-04-04T10:31:14.028Z</time></trkpt><trkpt lat="42.4997567" lon="13.3520367"><ele>1225.0</ele><time>2026-04-04T10:31:15.028Z</time></trkpt><trkpt lat="42.4996917" lon="13.35193"><ele>1225.0</ele><time>2026-04-04T10:31:16.028Z</time></trkpt><trkpt lat="42.499645" lon="13.3518033"><ele>1225.0</ele><time>2026-04-04T10:31:17.027Z</time></trkpt><trkpt lat="42.499625" lon="13.3516567"><ele>1225.0</ele><time>2026-04-04T10:31:18.028Z</time></trkpt><trkpt lat="42.4996033" lon="13.35152"><ele>1225.0</ele><time>2026-04-04T10:31:19.028Z</time></trkpt><trkpt lat="42.4995683" lon="13.351395"><ele>1225.0</ele><time>2026-04-04T10:31:20.028Z</time></trkpt><trkpt lat="42.499505" lon="13.351305"><ele>1225.4</ele><time>2026-04-04T10:31:21.028Z</time></trkpt><trkpt lat="42.4994233" lon="13.351245"><ele>1225.8</ele><time>2026-04-04T10:31:22.028Z</time></trkpt><trkpt lat="42.4993283" lon="13.3512167"><ele>1226.2</ele><time>2026-04-04T10:31:23.028Z</time></trkpt><trkpt lat="42.4992233" lon="13.351215"><ele>1226.6</ele><time>2026-04-04T10:31:24.028Z</time></trkpt><trkpt lat="42.49913" lon="13.3512183"><ele>1227.0</ele><time>2026-04-04T10:31:25.028Z</time></trkpt><trkpt lat="42.4990467" lon="13.3512467"><ele>1227.0</ele><time>2026-04-04T10:31:26.028Z</time></trkpt><trkpt lat="42.4989867" lon="13.3513017"><ele>1227.0</ele><time>2026-04-04T10:31:27.028Z</time></trkpt><trkpt lat="42.4989417" lon="13.3513867"><ele>1227.0</ele><time>2026-04-04T10:31:28.028Z</time></trkpt><trkpt lat="42.4989133" lon="13.3514967"><ele>1227.0</ele><time>2026-04-04T10:31:29.028Z</time></trkpt><trkpt lat="42.4988833" lon="13.35162"><ele>1227.0</ele><time>2026-04-04T10:31:30.028Z</time></trkpt><trkpt lat="42.498855" lon="13.35176"><ele>1227.0</ele><time>2026-04-04T10:31:31.028Z</time></trkpt><trkpt lat="42.4988233" lon="13.35191"><ele>1225.75</ele><time>2026-04-04T10:31:32.028Z</time></trkpt><trkpt lat="42.498785" lon="13.35208"><ele>1224.5</ele><time>2026-04-04T10:31:33.028Z</time></trkpt><trkpt lat="42.4987517" lon="13.352245"><ele>1223.25</ele><time>2026-04-04T10:31:34.027Z</time></trkpt><trkpt lat="42.498725" lon="13.3524167"><ele>1222.0</ele><time>2026-04-04T10:31:35.028Z</time></trkpt><trkpt lat="42.4986733" lon="13.352585"><ele>1222.5</ele><time>2026-04-04T10:31:36.028Z</time></trkpt><trkpt lat="42.498615" lon="13.3527383"><ele>1223.0</ele><time>2026-04-04T10:31:37.028Z</time></trkpt><trkpt lat="42.49854" lon="13.3528983"><ele>1223.5</ele><time>2026-04-04T10:31:38.028Z</time></trkpt><trkpt lat="42.4984533" lon="13.3530267"><ele>1224.0</ele><time>2026-04-04T10:31:39.028Z</time></trkpt><trkpt lat="42.4984" lon="13.3531667"><ele>1224.0</ele><time>2026-04-04T10:31:40.028Z</time></trkpt><trkpt lat="42.4983817" lon="13.3533033"><ele>1224.0</ele><time>2026-04-04T10:31:41.028Z</time></trkpt><trkpt lat="42.4983867" lon="13.3534317"><ele>1224.0</ele><time>2026-04-04T10:31:42.028Z</time></trkpt><trkpt lat="42.4984067" lon="13.3535683"><ele>1224.0</ele><time>2026-04-04T10:31:43.028Z</time></trkpt><trkpt lat="42.4984333" lon="13.3537067"><ele>1224.0</ele><time>2026-04-04T10:31:44.028Z</time></trkpt><trkpt lat="42.4984467" lon="13.3538367"><ele>1222.6666666666667</ele><time>2026-04-04T10:31:45.028Z</time></trkpt><trkpt lat="42.4984333" lon="13.353955"><ele>1221.3333333333333</ele><time>2026-04-04T10:31:46.028Z</time></trkpt><trkpt lat="42.4983933" lon="13.3540617"><ele>1220.0</ele><time>2026-04-04T10:31:47.028Z</time></trkpt><trkpt lat="42.4983283" lon="13.35413"><ele>1218.6666666666665</ele><time>2026-04-04T10:31:48.028Z</time></trkpt><trkpt lat="42.4982533" lon="13.35417"><ele>1217.3333333333333</ele><time>2026-04-04T10:31:49.028Z</time></trkpt><trkpt lat="42.4981533" lon="13.3541683"><ele>1216.0</ele><time>2026-04-04T10:31:50.028Z</time></trkpt><trkpt lat="42.4980283" lon="13.354155"><ele>1217.75</ele><time>2026-04-04T10:31:51.028Z</time></trkpt><trkpt lat="42.497895" lon="13.35416"><ele>1219.5</ele><time>2026-04-04T10:31:52.028Z</time></trkpt><trkpt lat="42.49777" lon="13.3541983"><ele>1221.25</ele><time>2026-04-04T10:31:53.028Z</time></trkpt><trkpt lat="42.4976467" lon="13.3542817"><ele>1223.0</ele><time>2026-04-04T10:31:54.028Z</time></trkpt><trkpt lat="42.4975267" lon="13.3543817"><ele>1223.0</ele><time>2026-04-04T10:31:55.027Z</time></trkpt><trkpt lat="42.497415" lon="13.354495"><ele>1223.0</ele><time>2026-04-04T10:31:56.027Z</time></trkpt><trkpt lat="42.497305" lon="13.3546133"><ele>1223.0</ele><time>2026-04-04T10:31:57.028Z</time></trkpt><trkpt lat="42.497195" lon="13.354725"><ele>1223.0</ele><time>2026-04-04T10:31:58.028Z</time></trkpt><trkpt lat="42.497075" lon="13.3548483"><ele>1223.0</ele><time>2026-04-04T10:31:59.028Z</time></trkpt><trkpt lat="42.4969617" lon="13.3549717"><ele>1223.0</ele><time>2026-04-04T10:32:00.028Z</time></trkpt><trkpt lat="42.4968517" lon="13.35509"><ele>1223.0</ele><time>2026-04-04T10:32:01.028Z</time></trkpt><trkpt lat="42.4967467" lon="13.3551933"><ele>1223.0</ele><time>2026-04-04T10:32:02.028Z</time></trkpt><trkpt lat="42.496645" lon="13.3552883"><ele>1223.0</ele><time>2026-04-04T10:32:03.028Z</time></trkpt><trkpt lat="42.496545" lon="13.3553733"><ele>1223.0</ele><time>2026-04-04T10:32:04.028Z</time></trkpt><trkpt lat="42.4964483" lon="13.35547"><ele>1223.0</ele><time>2026-04-04T10:32:05.028Z</time></trkpt><trkpt lat="42.49636" lon="13.3555717"><ele>1223.0</ele><time>2026-04-04T10:32:06.028Z</time></trkpt><trkpt lat="42.4962867" lon="13.3556817"><ele>1224.6</ele><time>2026-04-04T10:32:07.028Z</time></trkpt><trkpt lat="42.496225" lon="13.3558167"><ele>1226.1999999999998</ele><time>2026-04-04T10:32:08.028Z</time></trkpt><trkpt lat="42.496195" lon="13.35597"><ele>1227.8</ele><time>2026-04-04T10:32:09.028Z</time></trkpt><trkpt lat="42.4962067" lon="13.3561133"><ele>1229.3999999999999</ele><time>2026-04-04T10:32:10.028Z</time></trkpt><trkpt lat="42.496245" lon="13.3562383"><ele>1231.0</ele><time>2026-04-04T10:32:11.028Z</time></trkpt><trkpt lat="42.4963117" lon="13.356355"><ele>1227.0</ele><time>2026-04-04T10:32:12.028Z</time></trkpt><trkpt lat="42.4964067" lon="13.3564483"><ele>1223.0</ele><time>2026-04-04T10:32:13.028Z</time></trkpt><trkpt lat="42.4965117" lon="13.3565433"><ele>1219.0</ele><time>2026-04-04T10:32:14.028Z</time></trkpt><trkpt lat="42.4966217" lon="13.3566367"><ele>1215.0</ele><time>2026-04-04T10:32:15.028Z</time></trkpt><trkpt lat="42.49672" lon="13.356735"><ele>1215.0</ele><time>2026-04-04T10:32:16.028Z</time></trkpt><trkpt lat="42.4967867" lon="13.3568433"><ele>1215.0</ele><time>2026-04-04T10:32:17.028Z</time></trkpt><trkpt lat="42.4968317" lon="13.3569767"><ele>1215.0</ele><time>2026-04-04T10:32:18.028Z</time></trkpt><trkpt lat="42.4968483" lon="13.357115"><ele>1215.0</ele><time>2026-04-04T10:32:19.028Z</time></trkpt><trkpt lat="42.496835" lon="13.3572517"><ele>1215.0</ele><time>2026-04-04T10:32:20.028Z</time></trkpt><trkpt lat="42.49679" lon="13.3574"><ele>1215.0</ele><time>2026-04-04T10:32:21.028Z</time></trkpt><trkpt lat="42.49672" lon="13.3575333"><ele>1215.0</ele><time>2026-04-04T10:32:22.028Z</time></trkpt><trkpt lat="42.4966417" lon="13.3576433"><ele>1215.0</ele><time>2026-04-04T10:32:23.028Z</time></trkpt><trkpt lat="42.4965567" lon="13.3577133"><ele>1215.0</ele><time>2026-04-04T10:32:24.028Z</time></trkpt><trkpt lat="42.4964617" lon="13.357755"><ele>1215.0</ele><time>2026-04-04T10:32:25.028Z</time></trkpt><trkpt lat="42.4963517" lon="13.3577667"><ele>1217.5</ele><time>2026-04-04T10:32:26.028Z</time></trkpt><trkpt lat="42.4962183" lon="13.35774"><ele>1220.0</ele><time>2026-04-04T10:32:27.028Z</time></trkpt><trkpt lat="42.4960817" lon="13.3577233"><ele>1222.5</ele><time>2026-04-04T10:32:28.028Z</time></trkpt><trkpt lat="42.4959533" lon="13.3577317"><ele>1225.0</ele><time>2026-04-04T10:32:29.028Z</time></trkpt><trkpt lat="42.495835" lon="13.35777"><ele>1225.0</ele><time>2026-04-04T10:32:30.028Z</time></trkpt><trkpt lat="42.495725" lon="13.3578367"><ele>1225.0</ele><time>2026-04-04T10:32:31.028Z</time></trkpt><trkpt lat="42.4956217" lon="13.35793"><ele>1225.0</ele><time>2026-04-04T10:32:32.028Z</time></trkpt><trkpt lat="42.49554" lon="13.3580517"><ele>1225.0</ele><time>2026-04-04T10:32:33.028Z</time></trkpt><trkpt lat="42.49548" lon="13.35819"><ele>1225.0</ele><time>2026-04-04T10:32:34.028Z</time></trkpt><trkpt lat="42.4954367" lon="13.358355"><ele>1225.0</ele><time>2026-04-04T10:32:35.028Z</time></trkpt><trkpt lat="42.495415" lon="13.3585267"><ele>1225.0</ele><time>2026-04-04T10:32:36.027Z</time></trkpt><trkpt lat="42.4954067" lon="13.358715"><ele>1225.0</ele><time>2026-04-04T10:32:37.028Z</time></trkpt><trkpt lat="42.4954167" lon="13.3588983"><ele>1219.75</ele><time>2026-04-04T10:32:38.027Z</time></trkpt><trkpt lat="42.4954483" lon="13.359075"><ele>1214.5</ele><time>2026-04-04T10:32:39.028Z</time></trkpt><trkpt lat="42.4955033" lon="13.3592533"><ele>1209.25</ele><time>2026-04-04T10:32:40.028Z</time></trkpt><trkpt lat="42.4955667" lon="13.3594217"><ele>1204.0</ele><time>2026-04-04T10:32:41.028Z</time></trkpt><trkpt lat="42.49561" lon="13.3596"><ele>1205.0</ele><time>2026-04-04T10:32:42.028Z</time></trkpt><trkpt lat="42.4956417" lon="13.3597783"><ele>1206.0</ele><time>2026-04-04T10:32:43.028Z</time></trkpt><trkpt lat="42.4956633" lon="13.3599567"><ele>1207.0</ele><time>2026-04-04T10:32:44.028Z</time></trkpt><trkpt lat="42.495655" lon="13.36015"><ele>1208.0</ele><time>2026-04-04T10:32:45.028Z</time></trkpt><trkpt lat="42.4956633" lon="13.36033"><ele>1208.0</ele><time>2026-04-04T10:32:46.028Z</time></trkpt><trkpt lat="42.495675" lon="13.3604967"><ele>1208.0</ele><time>2026-04-04T10:32:47.028Z</time></trkpt><trkpt lat="42.49567" lon="13.3606467"><ele>1208.0</ele><time>2026-04-04T10:32:48.028Z</time></trkpt><trkpt lat="42.4956417" lon="13.3607783"><ele>1208.0</ele><time>2026-04-04T10:32:49.028Z</time></trkpt><trkpt lat="42.495595" lon="13.3608617"><ele>1208.0</ele><time>2026-04-04T10:32:50.028Z</time></trkpt><trkpt lat="42.4954767" lon="13.360915"><ele>1207.75</ele><time>2026-04-04T10:32:52.028Z</time></trkpt><trkpt lat="42.4954033" lon="13.360855"><ele>1207.5</ele><time>2026-04-04T10:32:53.028Z</time></trkpt><trkpt lat="42.4953133" lon="13.3607533"><ele>1207.25</ele><time>2026-04-04T10:32:54.028Z</time></trkpt><trkpt lat="42.4952217" lon="13.3606133"><ele>1207.0</ele><time>2026-04-04T10:32:55.028Z</time></trkpt><trkpt lat="42.49512" lon="13.3604817"><ele>1209.5</ele><time>2026-04-04T10:32:56.028Z</time></trkpt><trkpt lat="42.495025" lon="13.36036"><ele>1212.0</ele><time>2026-04-04T10:32:57.028Z</time></trkpt><trkpt lat="42.4949367" lon="13.3602483"><ele>1214.5</ele><time>2026-04-04T10:32:58.028Z</time></trkpt><trkpt lat="42.49485" lon="13.3601433"><ele>1217.0</ele><time>2026-04-04T10:32:59.028Z</time></trkpt><trkpt lat="42.4947567" lon="13.3600433"><ele>1217.0</ele><time>2026-04-04T10:33:00.028Z</time></trkpt><trkpt lat="42.4946583" lon="13.3599733"><ele>1217.0</ele><time>2026-04-04T10:33:01.028Z</time></trkpt><trkpt lat="42.4945583" lon="13.3599367"><ele>1217.0</ele><time>2026-04-04T10:33:02.028Z</time></trkpt><trkpt lat="42.4944467" lon="13.3599217"><ele>1217.0</ele><time>2026-04-04T10:33:03.028Z</time></trkpt><trkpt lat="42.4943283" lon="13.3599233"><ele>1217.0</ele><time>2026-04-04T10:33:04.028Z</time></trkpt><trkpt lat="42.4942183" lon="13.359905"><ele>1217.0</ele><time>2026-04-04T10:33:05.028Z</time></trkpt><trkpt lat="42.4941117" lon="13.3598683"><ele>1217.0</ele><time>2026-04-04T10:33:06.028Z</time></trkpt><trkpt lat="42.4939967" lon="13.3598217"><ele>1217.0</ele><time>2026-04-04T10:33:07.027Z</time></trkpt><trkpt lat="42.4938917" lon="13.3597467"><ele>1217.0</ele><time>2026-04-04T10:33:08.028Z</time></trkpt><trkpt lat="42.493785" lon="13.3596467"><ele>1214.0</ele><time>2026-04-04T10:33:09.028Z</time></trkpt><trkpt lat="42.49368" lon="13.35954"><ele>1211.0</ele><time>2026-04-04T10:33:10.028Z</time></trkpt><trkpt lat="42.493575" lon="13.359435"><ele>1208.0</ele><time>2026-04-04T10:33:11.028Z</time></trkpt><trkpt lat="42.4934483" lon="13.3593533"><ele>1205.0</ele><time>2026-04-04T10:33:12.028Z</time></trkpt><trkpt lat="42.4933233" lon="13.3593033"><ele>1205.0</ele><time>2026-04-04T10:33:13.028Z</time></trkpt><trkpt lat="42.4931967" lon="13.35928"><ele>1205.0</ele><time>2026-04-04T10:33:14.028Z</time></trkpt><trkpt lat="42.493065" lon="13.359295"><ele>1205.0</ele><time>2026-04-04T10:33:15.028Z</time></trkpt><trkpt lat="42.492925" lon="13.3593317"><ele>1205.0</ele><time>2026-04-04T10:33:16.028Z</time></trkpt><trkpt lat="42.49279" lon="13.3593717"><ele>1203.0</ele><time>2026-04-04T10:33:17.028Z</time></trkpt><trkpt lat="42.4926633" lon="13.359405"><ele>1201.0</ele><time>2026-04-04T10:33:18.028Z</time></trkpt><trkpt lat="42.49254" lon="13.3594367"><ele>1199.0</ele><time>2026-04-04T10:33:19.028Z</time></trkpt><trkpt lat="42.4924217" lon="13.3594533"><ele>1197.0</ele><time>2026-04-04T10:33:20.028Z</time></trkpt><trkpt lat="42.4923067" lon="13.3594333"><ele>1197.0</ele><time>2026-04-04T10:33:21.028Z</time></trkpt><trkpt lat="42.492205" lon="13.3593567"><ele>1197.0</ele><time>2026-04-04T10:33:22.028Z</time></trkpt><trkpt lat="42.492115" lon="13.3592483"><ele>1197.0</ele><time>2026-04-04T10:33:23.028Z</time></trkpt><trkpt lat="42.4920433" lon="13.3591183"><ele>1197.0</ele><time>2026-04-04T10:33:24.028Z</time></trkpt><trkpt lat="42.4919833" lon="13.3589717"><ele>1195.8</ele><time>2026-04-04T10:33:25.028Z</time></trkpt><trkpt lat="42.4919567" lon="13.3588333"><ele>1194.6</ele><time>2026-04-04T10:33:26.028Z</time></trkpt><trkpt lat="42.4919683" lon="13.3586883"><ele>1193.3999999999999</ele><time>2026-04-04T10:33:27.028Z</time></trkpt><trkpt lat="42.4919933" lon="13.358545"><ele>1192.2</ele><time>2026-04-04T10:33:28.027Z</time></trkpt><trkpt lat="42.4920233" lon="13.3584033"><ele>1191.0</ele><time>2026-04-04T10:33:29.028Z</time></trkpt><trkpt lat="42.4920567" lon="13.35827"><ele>1191.0</ele><time>2026-04-04T10:33:30.028Z</time></trkpt><trkpt lat="42.49207" lon="13.358135"><ele>1191.0</ele><time>2026-04-04T10:33:31.028Z</time></trkpt><trkpt lat="42.49206" lon="13.3580183"><ele>1191.0</ele><time>2026-04-04T10:33:32.028Z</time></trkpt><trkpt lat="42.4920267" lon="13.357925"><ele>1191.0</ele><time>2026-04-04T10:33:33.028Z</time></trkpt><trkpt lat="42.4919667" lon="13.3578417"><ele>1191.0</ele><time>2026-04-04T10:33:34.028Z</time></trkpt><trkpt lat="42.4918867" lon="13.3577917"><ele>1191.0</ele><time>2026-04-04T10:33:35.028Z</time></trkpt><trkpt lat="42.4917933" lon="13.3577667"><ele>1192.2</ele><time>2026-04-04T10:33:36.028Z</time></trkpt><trkpt lat="42.491685" lon="13.3577633"><ele>1193.3999999999999</ele><time>2026-04-04T10:33:37.028Z</time></trkpt><trkpt lat="42.4915883" lon="13.3577767"><ele>1194.6</ele><time>2026-04-04T10:33:38.028Z</time></trkpt><trkpt lat="42.4914967" lon="13.35781"><ele>1195.8</ele><time>2026-04-04T10:33:39.028Z</time></trkpt><trkpt lat="42.4914117" lon="13.3578733"><ele>1197.0</ele><time>2026-04-04T10:33:40.028Z</time></trkpt><trkpt lat="42.49133" lon="13.3579567"><ele>1195.8</ele><time>2026-04-04T10:33:41.028Z</time></trkpt><trkpt lat="42.491245" lon="13.358045"><ele>1194.6</ele><time>2026-04-04T10:33:42.028Z</time></trkpt><trkpt lat="42.491165" lon="13.3581233"><ele>1193.3999999999999</ele><time>2026-04-04T10:33:43.028Z</time></trkpt><trkpt lat="42.4910783" lon="13.3582017"><ele>1192.2</ele><time>2026-04-04T10:33:44.028Z</time></trkpt><trkpt lat="42.4909967" lon="13.3582633"><ele>1191.0</ele><time>2026-04-04T10:33:45.028Z</time></trkpt><trkpt lat="42.49091" lon="13.358315"><ele>1191.0</ele><time>2026-04-04T10:33:46.028Z</time></trkpt><trkpt lat="42.4908183" lon="13.3583467"><ele>1191.0</ele><time>2026-04-04T10:33:47.028Z</time></trkpt><trkpt lat="42.4907233" lon="13.3583517"><ele>1191.0</ele><time>2026-04-04T10:33:48.028Z</time></trkpt><trkpt lat="42.4906367" lon="13.3583233"><ele>1191.0</ele><time>2026-04-04T10:33:49.028Z</time></trkpt><trkpt lat="42.4905517" lon="13.358245"><ele>1191.0</ele><time>2026-04-04T10:33:50.028Z</time></trkpt><trkpt lat="42.4904767" lon="13.3581383"><ele>1190.25</ele><time>2026-04-04T10:33:51.028Z</time></trkpt><trkpt lat="42.4904033" lon="13.3580183"><ele>1189.5</ele><time>2026-04-04T10:33:52.028Z</time></trkpt><trkpt lat="42.4903283" lon="13.3579017"><ele>1188.75</ele><time>2026-04-04T10:33:53.028Z</time></trkpt><trkpt lat="42.4902483" lon="13.3577867"><ele>1188.0</ele><time>2026-04-04T10:33:54.028Z</time></trkpt><trkpt lat="42.4901433" lon="13.3576883"><ele>1188.0</ele><time>2026-04-04T10:33:55.028Z</time></trkpt><trkpt lat="42.4900267" lon="13.3576133"><ele>1188.0</ele><time>2026-04-04T10:33:56.028Z</time></trkpt><trkpt lat="42.4899083" lon="13.357555"><ele>1188.0</ele><time>2026-04-04T10:33:57.028Z</time></trkpt><trkpt lat="42.4897883" lon="13.35751"><ele>1188.0</ele><time>2026-04-04T10:33:58.028Z</time></trkpt><trkpt lat="42.4896767" lon="13.35747"><ele>1188.6666666666667</ele><time>2026-04-04T10:33:59.028Z</time></trkpt><trkpt lat="42.489575" lon="13.3574467"><ele>1189.3333333333333</ele><time>2026-04-04T10:34:00.028Z</time></trkpt><trkpt lat="42.4894917" lon="13.35743"><ele>1190.0</ele><time>2026-04-04T10:34:01.028Z</time></trkpt><trkpt lat="42.489415" lon="13.35744"><ele>1190.6666666666665</ele><time>2026-04-04T10:34:02.028Z</time></trkpt><trkpt lat="42.489345" lon="13.3574983"><ele>1191.3333333333333</ele><time>2026-04-04T10:34:03.028Z</time></trkpt><trkpt lat="42.4892917" lon="13.357585"><ele>1192.0</ele><time>2026-04-04T10:34:04.028Z</time></trkpt><trkpt lat="42.4892533" lon="13.3576983"><ele>1192.0</ele><time>2026-04-04T10:34:05.028Z</time></trkpt><trkpt lat="42.489225" lon="13.3578283"><ele>1192.0</ele><time>2026-04-04T10:34:06.028Z</time></trkpt><trkpt lat="42.4892083" lon="13.3579783"><ele>1192.0</ele><time>2026-04-04T10:34:07.028Z</time></trkpt><trkpt lat="42.489195" lon="13.358135"><ele>1192.0</ele><time>2026-04-04T10:34:08.028Z</time></trkpt><trkpt lat="42.4891833" lon="13.3582883"><ele>1192.0</ele><time>2026-04-04T10:34:09.028Z</time></trkpt><trkpt lat="42.4891617" lon="13.3584333"><ele>1190.6</ele><time>2026-04-04T10:34:10.028Z</time></trkpt><trkpt lat="42.489145" lon="13.3585833"><ele>1189.2</ele><time>2026-04-04T10:34:11.027Z</time></trkpt><trkpt lat="42.48912" lon="13.35872"><ele>1187.8</ele><time>2026-04-04T10:34:12.028Z</time></trkpt><trkpt lat="42.4890883" lon="13.3588467"><ele>1186.4</ele><time>2026-04-04T10:34:13.027Z</time></trkpt><trkpt lat="42.4890433" lon="13.3589583"><ele>1185.0</ele><time>2026-04-04T10:34:14.028Z</time></trkpt><trkpt lat="42.4889767" lon="13.3590533"><ele>1184.2</ele><time>2026-04-04T10:34:15.028Z</time></trkpt><trkpt lat="42.4888933" lon="13.3591367"><ele>1183.4</ele><time>2026-04-04T10:34:16.027Z</time></trkpt><trkpt lat="42.488815" lon="13.3592217"><ele>1182.6</ele><time>2026-04-04T10:34:17.028Z</time></trkpt><trkpt lat="42.488725" lon="13.359305"><ele>1181.8</ele><time>2026-04-04T10:34:18.028Z</time></trkpt><trkpt lat="42.4886367" lon="13.359405"><ele>1181.0</ele><time>2026-04-04T10:34:19.028Z</time></trkpt><trkpt lat="42.4885417" lon="13.3595017"><ele>1181.0</ele><time>2026-04-04T10:34:20.027Z</time></trkpt><trkpt lat="42.488445" lon="13.3596117"><ele>1181.0</ele><time>2026-04-04T10:34:21.028Z</time></trkpt><trkpt lat="42.4883483" lon="13.3597083"><ele>1181.0</ele><time>2026-04-04T10:34:22.028Z</time></trkpt><trkpt lat="42.4882517" lon="13.3597883"><ele>1181.0</ele><time>2026-04-04T10:34:23.027Z</time></trkpt><trkpt lat="42.4881633" lon="13.3598583"><ele>1181.0</ele><time>2026-04-04T10:34:24.028Z</time></trkpt><trkpt lat="42.4880717" lon="13.3598867"><ele>1181.0</ele><time>2026-04-04T10:34:25.028Z</time></trkpt><trkpt lat="42.4879767" lon="13.35987"><ele>1181.0</ele><time>2026-04-04T10:34:26.028Z</time></trkpt><trkpt lat="42.4878933" lon="13.3598083"><ele>1181.0</ele><time>2026-04-04T10:34:27.028Z</time></trkpt><trkpt lat="42.487805" lon="13.3597167"><ele>1181.0</ele><time>2026-04-04T10:34:28.028Z</time></trkpt><trkpt lat="42.4877117" lon="13.3596067"><ele>1181.0</ele><time>2026-04-04T10:34:29.028Z</time></trkpt><trkpt lat="42.4876183" lon="13.359495"><ele>1181.0</ele><time>2026-04-04T10:34:30.028Z</time></trkpt><trkpt lat="42.4875233" lon="13.3594"><ele>1181.0</ele><time>2026-04-04T10:34:31.028Z</time></trkpt><trkpt lat="42.4874233" lon="13.3593467"><ele>1181.0</ele><time>2026-04-04T10:34:32.028Z</time></trkpt><trkpt lat="42.4873283" lon="13.3593167"><ele>1181.0</ele><time>2026-04-04T10:34:33.028Z</time></trkpt><trkpt lat="42.487225" lon="13.3592983"><ele>1181.0</ele><time>2026-04-04T10:34:34.028Z</time></trkpt><trkpt lat="42.4871133" lon="13.35931"><ele>1181.0</ele><time>2026-04-04T10:34:35.028Z</time></trkpt><trkpt lat="42.4870083" lon="13.35936"><ele>1181.0</ele><time>2026-04-04T10:34:36.028Z</time></trkpt><trkpt lat="42.486915" lon="13.3594233"><ele>1181.0</ele><time>2026-04-04T10:34:37.028Z</time></trkpt><trkpt lat="42.48684" lon="13.35952"><ele>1181.0</ele><time>2026-04-04T10:34:38.028Z</time></trkpt><trkpt lat="42.486785" lon="13.3596483"><ele>1180.5</ele><time>2026-04-04T10:34:39.028Z</time></trkpt><trkpt lat="42.4867583" lon="13.3597983"><ele>1180.0</ele><time>2026-04-04T10:34:40.027Z</time></trkpt><trkpt lat="42.486755" lon="13.3599667"><ele>1179.5</ele><time>2026-04-04T10:34:41.028Z</time></trkpt><trkpt lat="42.48677" lon="13.3601567"><ele>1179.0</ele><time>2026-04-04T10:34:42.028Z</time></trkpt><trkpt lat="42.4867817" lon="13.3603667"><ele>1177.6666666666667</ele><time>2026-04-04T10:34:43.028Z</time></trkpt><trkpt lat="42.4867883" lon="13.3605867"><ele>1176.3333333333335</ele><time>2026-04-04T10:34:44.028Z</time></trkpt><trkpt lat="42.4868017" lon="13.360805"><ele>1175.0</ele><time>2026-04-04T10:34:45.028Z</time></trkpt><trkpt lat="42.4868183" lon="13.361015"><ele>1175.0</ele><time>2026-04-04T10:34:46.028Z</time></trkpt><trkpt lat="42.4868217" lon="13.36123"><ele>1175.0</ele><time>2026-04-04T10:34:47.027Z</time></trkpt><trkpt lat="42.4868333" lon="13.3614467"><ele>1175.0</ele><time>2026-04-04T10:34:48.028Z</time></trkpt><trkpt lat="42.486845" lon="13.3616533"><ele>1175.0</ele><time>2026-04-04T10:34:49.028Z</time></trkpt><trkpt lat="42.4868533" lon="13.3618433"><ele>1175.0</ele><time>2026-04-04T10:34:50.028Z</time></trkpt><trkpt lat="42.4868583" lon="13.36204"><ele>1175.0</ele><time>2026-04-04T10:34:51.028Z</time></trkpt><trkpt lat="42.48687" lon="13.3622267"><ele>1175.0</ele><time>2026-04-04T10:34:52.028Z</time></trkpt><trkpt lat="42.4868783" lon="13.3624217"><ele>1174.5</ele><time>2026-04-04T10:34:53.028Z</time></trkpt><trkpt lat="42.4868783" lon="13.36261"><ele>1174.0</ele><time>2026-04-04T10:34:54.028Z</time></trkpt><trkpt lat="42.4868533" lon="13.3628017"><ele>1173.5</ele><time>2026-04-04T10:34:55.028Z</time></trkpt><trkpt lat="42.486815" lon="13.3629983"><ele>1173.0</ele><time>2026-04-04T10:34:56.028Z</time></trkpt><trkpt lat="42.4867717" lon="13.3631817"><ele>1171.75</ele><time>2026-04-04T10:34:57.028Z</time></trkpt><trkpt lat="42.4867217" lon="13.36337"><ele>1170.5</ele><time>2026-04-04T10:34:58.028Z</time></trkpt><trkpt lat="42.486665" lon="13.3635483"><ele>1169.25</ele><time>2026-04-04T10:34:59.028Z</time></trkpt><trkpt lat="42.486615" lon="13.3637067"><ele>1168.0</ele><time>2026-04-04T10:35:00.028Z</time></trkpt><trkpt lat="42.4865633" lon="13.3638483"><ele>1168.5</ele><time>2026-04-04T10:35:01.028Z</time></trkpt><trkpt lat="42.486515" lon="13.36396"><ele>1169.0</ele><time>2026-04-04T10:35:02.028Z</time></trkpt><trkpt lat="42.486465" lon="13.3640517"><ele>1169.5</ele><time>2026-04-04T10:35:03.028Z</time></trkpt><trkpt lat="42.4864133" lon="13.3641117"><ele>1170.0</ele><time>2026-04-04T10:35:04.028Z</time></trkpt><trkpt lat="42.4863567" lon="13.3641617"><ele>1170.5</ele><time>2026-04-04T10:35:05.028Z</time></trkpt><trkpt lat="42.4862917" lon="13.3642017"><ele>1171.0</ele><time>2026-04-04T10:35:06.028Z</time></trkpt><trkpt lat="42.4862117" lon="13.36423"><ele>1171.0</ele><time>2026-04-04T10:35:07.028Z</time></trkpt><trkpt lat="42.486125" lon="13.364255"><ele>1171.0</ele><time>2026-04-04T10:35:08.028Z</time></trkpt><trkpt lat="42.4860317" lon="13.3642817"><ele>1171.0</ele><time>2026-04-04T10:35:09.028Z</time></trkpt><trkpt lat="42.4859267" lon="13.3643117"><ele>1171.0</ele><time>2026-04-04T10:35:10.028Z</time></trkpt><trkpt lat="42.48582" lon="13.3643433"><ele>1171.0</ele><time>2026-04-04T10:35:11.028Z</time></trkpt><trkpt lat="42.4857117" lon="13.364385"><ele>1171.0</ele><time>2026-04-04T10:35:12.028Z</time></trkpt><trkpt lat="42.4856" lon="13.3644233"><ele>1171.0</ele><time>2026-04-04T10:35:13.028Z</time></trkpt><trkpt lat="42.48548" lon="13.364465"><ele>1171.0</ele><time>2026-04-04T10:35:14.028Z</time></trkpt><trkpt lat="42.4853667" lon="13.3645017"><ele>1171.0</ele><time>2026-04-04T10:35:15.028Z</time></trkpt><trkpt lat="42.4852567" lon="13.3645333"><ele>1172.25</ele><time>2026-04-04T10:35:16.028Z</time></trkpt><trkpt lat="42.4851367" lon="13.3645567"><ele>1173.5</ele><time>2026-04-04T10:35:17.028Z</time></trkpt><trkpt lat="42.4850083" lon="13.3645867"><ele>1174.75</ele><time>2026-04-04T10:35:18.028Z</time></trkpt><trkpt lat="42.4848783" lon="13.3645933"><ele>1176.0</ele><time>2026-04-04T10:35:19.028Z</time></trkpt><trkpt lat="42.4847483" lon="13.3645967"><ele>1176.0</ele><time>2026-04-04T10:35:20.028Z</time></trkpt><trkpt lat="42.4846133" lon="13.36458"><ele>1176.0</ele><time>2026-04-04T10:35:21.028Z</time></trkpt><trkpt lat="42.48448" lon="13.364545"><ele>1176.0</ele><time>2026-04-04T10:35:22.028Z</time></trkpt><trkpt lat="42.4843567" lon="13.3645017"><ele>1176.0</ele><time>2026-04-04T10:35:23.028Z</time></trkpt><trkpt lat="42.4842283" lon="13.3644517"><ele>1177.25</ele><time>2026-04-04T10:35:24.028Z</time></trkpt><trkpt lat="42.484095" lon="13.36439"><ele>1178.5</ele><time>2026-04-04T10:35:25.028Z</time></trkpt><trkpt lat="42.4839667" lon="13.364315"><ele>1179.75</ele><time>2026-04-04T10:35:26.028Z</time></trkpt><trkpt lat="42.48384" lon="13.3642333"><ele>1181.0</ele><time>2026-04-04T10:35:27.028Z</time></trkpt><trkpt lat="42.48372" lon="13.364145"><ele>1181.0</ele><time>2026-04-04T10:35:28.028Z</time></trkpt><trkpt lat="42.4836117" lon="13.3640317"><ele>1181.0</ele><time>2026-04-04T10:35:29.028Z</time></trkpt><trkpt lat="42.4835133" lon="13.363905"><ele>1181.0</ele><time>2026-04-04T10:35:30.027Z</time></trkpt><trkpt lat="42.4834133" lon="13.3637783"><ele>1181.0</ele><time>2026-04-04T10:35:31.028Z</time></trkpt><trkpt lat="42.483315" lon="13.3636283"><ele>1183.5</ele><time>2026-04-04T10:35:32.028Z</time></trkpt><trkpt lat="42.48323" lon="13.36347"><ele>1186.0</ele><time>2026-04-04T10:35:33.028Z</time></trkpt><trkpt lat="42.4831517" lon="13.3633033"><ele>1188.5</ele><time>2026-04-04T10:35:34.028Z</time></trkpt><trkpt lat="42.483095" lon="13.3631367"><ele>1191.0</ele><time>2026-04-04T10:35:35.028Z</time></trkpt><trkpt lat="42.48304" lon="13.3629533"><ele>1191.5</ele><time>2026-04-04T10:35:36.028Z</time></trkpt><trkpt lat="42.4829967" lon="13.362775"><ele>1192.0</ele><time>2026-04-04T10:35:37.028Z</time></trkpt><trkpt lat="42.48296" lon="13.362585"><ele>1192.5</ele><time>2026-04-04T10:35:38.028Z</time></trkpt><trkpt lat="42.482925" lon="13.362395"><ele>1193.0</ele><time>2026-04-04T10:35:39.028Z</time></trkpt><trkpt lat="42.48289" lon="13.36221"><ele>1194.5</ele><time>2026-04-04T10:35:40.028Z</time></trkpt><trkpt lat="42.4828583" lon="13.3620233"><ele>1196.0</ele><time>2026-04-04T10:35:41.028Z</time></trkpt><trkpt lat="42.48283" lon="13.3618283"><ele>1197.5</ele><time>2026-04-04T10:35:42.028Z</time></trkpt><trkpt lat="42.4827983" lon="13.3616467"><ele>1199.0</ele><time>2026-04-04T10:35:43.028Z</time></trkpt><trkpt lat="42.482775" lon="13.3614517"><ele>1201.25</ele><time>2026-04-04T10:35:44.028Z</time></trkpt><trkpt lat="42.4827417" lon="13.3612717"><ele>1203.5</ele><time>2026-04-04T10:35:45.027Z</time></trkpt><trkpt lat="42.4827067" lon="13.3611217"><ele>1205.75</ele><time>2026-04-04T10:35:46.028Z</time></trkpt><trkpt lat="42.4826667" lon="13.36098"><ele>1208.0</ele><time>2026-04-04T10:35:47.028Z</time></trkpt><trkpt lat="42.48261" lon="13.36085"><ele>1208.0</ele><time>2026-04-04T10:35:48.028Z</time></trkpt><trkpt lat="42.482535" lon="13.360755"><ele>1208.0</ele><time>2026-04-04T10:35:49.028Z</time></trkpt><trkpt lat="42.482445" lon="13.3607"><ele>1208.0</ele><time>2026-04-04T10:35:50.028Z</time></trkpt><trkpt lat="42.4823383" lon="13.36069"><ele>1208.0</ele><time>2026-04-04T10:35:51.028Z</time></trkpt><trkpt lat="42.4822483" lon="13.3607283"><ele>1208.0</ele><time>2026-04-04T10:35:52.028Z</time></trkpt><trkpt lat="42.48217" lon="13.3608267"><ele>1208.0</ele><time>2026-04-04T10:35:53.028Z</time></trkpt><trkpt lat="42.4821167" lon="13.3609533"><ele>1208.0</ele><time>2026-04-04T10:35:54.028Z</time></trkpt><trkpt lat="42.48208" lon="13.36111"><ele>1208.0</ele><time>2026-04-04T10:35:55.028Z</time></trkpt><trkpt lat="42.48207" lon="13.3612833"><ele>1208.0</ele><time>2026-04-04T10:35:56.028Z</time></trkpt><trkpt lat="42.4820567" lon="13.3614617"><ele>1211.0</ele><time>2026-04-04T10:35:57.028Z</time></trkpt><trkpt lat="42.4820533" lon="13.3616417"><ele>1214.0</ele><time>2026-04-04T10:35:58.028Z</time></trkpt><trkpt lat="42.4820417" lon="13.3618267"><ele>1217.0</ele><time>2026-04-04T10:35:59.028Z</time></trkpt><trkpt lat="42.482025" lon="13.3620183"><ele>1220.0</ele><time>2026-04-04T10:36:00.028Z</time></trkpt><trkpt lat="42.481995" lon="13.362195"><ele>1219.25</ele><time>2026-04-04T10:36:01.028Z</time></trkpt><trkpt lat="42.481945" lon="13.3623783"><ele>1218.5</ele><time>2026-04-04T10:36:02.028Z</time></trkpt><trkpt lat="42.48189" lon="13.36256"><ele>1217.75</ele><time>2026-04-04T10:36:03.028Z</time></trkpt><trkpt lat="42.4818233" lon="13.36274"><ele>1217.0</ele><time>2026-04-04T10:36:04.028Z</time></trkpt><trkpt lat="42.4817483" lon="13.3629217"><ele>1214.6666666666667</ele><time>2026-04-04T10:36:05.028Z</time></trkpt><trkpt lat="42.481665" lon="13.3630967"><ele>1212.3333333333333</ele><time>2026-04-04T10:36:06.027Z</time></trkpt><trkpt lat="42.4815783" lon="13.3632683"><ele>1210.0</ele><time>2026-04-04T10:36:07.028Z</time></trkpt><trkpt lat="42.481505" lon="13.36344"><ele>1210.0</ele><time>2026-04-04T10:36:08.028Z</time></trkpt><trkpt lat="42.4814433" lon="13.3635967"><ele>1210.0</ele><time>2026-04-04T10:36:09.028Z</time></trkpt><trkpt lat="42.48137" lon="13.3637433"><ele>1210.0</ele><time>2026-04-04T10:36:10.028Z</time></trkpt><trkpt lat="42.4812933" lon="13.363885"><ele>1210.0</ele><time>2026-04-04T10:36:11.028Z</time></trkpt><trkpt lat="42.4812017" lon="13.3639783"><ele>1210.25</ele><time>2026-04-04T10:36:12.028Z</time></trkpt><trkpt lat="42.4810983" lon="13.3640367"><ele>1210.5</ele><time>2026-04-04T10:36:13.028Z</time></trkpt><trkpt lat="42.48099" lon="13.3640283"><ele>1210.75</ele><time>2026-04-04T10:36:14.028Z</time></trkpt><trkpt lat="42.4808817" lon="13.3639717"><ele>1211.0</ele><time>2026-04-04T10:36:15.028Z</time></trkpt><trkpt lat="42.4807733" lon="13.36387"><ele>1212.75</ele><time>2026-04-04T10:36:16.028Z</time></trkpt><trkpt lat="42.4806583" lon="13.3637667"><ele>1214.5</ele><time>2026-04-04T10:36:17.028Z</time></trkpt><trkpt lat="42.48055" lon="13.3636683"><ele>1216.25</ele><time>2026-04-04T10:36:18.028Z</time></trkpt><trkpt lat="42.4804267" lon="13.363565"><ele>1218.0</ele><time>2026-04-04T10:36:19.028Z</time></trkpt><trkpt lat="42.480295" lon="13.36346"><ele>1218.0</ele><time>2026-04-04T10:36:20.028Z</time></trkpt><trkpt lat="42.480175" lon="13.3633283"><ele>1218.0</ele><time>2026-04-04T10:36:21.028Z</time></trkpt><trkpt lat="42.480055" lon="13.363195"><ele>1218.0</ele><time>2026-04-04T10:36:22.028Z</time></trkpt><trkpt lat="42.47995" lon="13.36304"><ele>1223.0</ele><time>2026-04-04T10:36:23.028Z</time></trkpt><trkpt lat="42.4798467" lon="13.3628883"><ele>1228.0</ele><time>2026-04-04T10:36:24.028Z</time></trkpt><trkpt lat="42.4797367" lon="13.3627383"><ele>1233.0</ele><time>2026-04-04T10:36:25.028Z</time></trkpt><trkpt lat="42.479625" lon="13.3626"><ele>1231.0</ele><time>2026-04-04T10:36:26.028Z</time></trkpt><trkpt lat="42.4795067" lon="13.3624667"><ele>1229.0</ele><time>2026-04-04T10:36:27.028Z</time></trkpt><trkpt lat="42.4793883" lon="13.3623567"><ele>1227.0</ele><time>2026-04-04T10:36:28.028Z</time></trkpt><trkpt lat="42.4792533" lon="13.3622683"><ele>1225.0</ele><time>2026-04-04T10:36:29.028Z</time></trkpt><trkpt lat="42.4791167" lon="13.3621967"><ele>1227.3333333333333</ele><time>2026-04-04T10:36:30.028Z</time></trkpt><trkpt lat="42.4789667" lon="13.3621217"><ele>1229.6666666666667</ele><time>2026-04-04T10:36:31.027Z</time></trkpt><trkpt lat="42.4788183" lon="13.36205"><ele>1232.0</ele><time>2026-04-04T10:36:32.028Z</time></trkpt><trkpt lat="42.4786733" lon="13.3619667"><ele>1232.0</ele><time>2026-04-04T10:36:33.028Z</time></trkpt><trkpt lat="42.478535" lon="13.361875"><ele>1232.0</ele><time>2026-04-04T10:36:34.028Z</time></trkpt><trkpt lat="42.4784033" lon="13.361765"><ele>1232.0</ele><time>2026-04-04T10:36:35.028Z</time></trkpt><trkpt lat="42.47828" lon="13.3616433"><ele>1232.0</ele><time>2026-04-04T10:36:36.028Z</time></trkpt><trkpt lat="42.478155" lon="13.3615167"><ele>1232.0</ele><time>2026-04-04T10:36:37.028Z</time></trkpt><trkpt lat="42.4780433" lon="13.36139"><ele>1232.0</ele><time>2026-04-04T10:36:38.027Z</time></trkpt><trkpt lat="42.4779217" lon="13.3612583"><ele>1233.25</ele><time>2026-04-04T10:36:39.027Z</time></trkpt><trkpt lat="42.477805" lon="13.3611317"><ele>1234.5</ele><time>2026-04-04T10:36:40.027Z</time></trkpt><trkpt lat="42.4776917" lon="13.3610167"><ele>1235.75</ele><time>2026-04-04T10:36:41.028Z</time></trkpt><trkpt lat="42.47758" lon="13.3608967"><ele>1237.0</ele><time>2026-04-04T10:36:42.028Z</time></trkpt><trkpt lat="42.4774667" lon="13.3607833"><ele>1237.0</ele><time>2026-04-04T10:36:43.028Z</time></trkpt><trkpt lat="42.4773633" lon="13.3606717"><ele>1237.0</ele><time>2026-04-04T10:36:44.028Z</time></trkpt><trkpt lat="42.4772617" lon="13.3605667"><ele>1237.0</ele><time>2026-04-04T10:36:45.028Z</time></trkpt><trkpt lat="42.47715" lon="13.3604617"><ele>1237.0</ele><time>2026-04-04T10:36:46.028Z</time></trkpt><trkpt lat="42.4770217" lon="13.3603333"><ele>1240.0</ele><time>2026-04-04T10:36:47.028Z</time></trkpt><trkpt lat="42.4769033" lon="13.3602033"><ele>1243.0</ele><time>2026-04-04T10:36:48.028Z</time></trkpt><trkpt lat="42.4767867" lon="13.360075"><ele>1246.0</ele><time>2026-04-04T10:36:49.028Z</time></trkpt><trkpt lat="42.4766667" lon="13.3599517"><ele>1246.0</ele><time>2026-04-04T10:36:50.028Z</time></trkpt><trkpt lat="42.4765417" lon="13.359825"><ele>1246.0</ele><time>2026-04-04T10:36:51.028Z</time></trkpt><trkpt lat="42.4764117" lon="13.3596983"><ele>1246.0</ele><time>2026-04-04T10:36:52.028Z</time></trkpt><trkpt lat="42.4761633" lon="13.3594567"><ele>1248.3333333333333</ele><time>2026-04-04T10:36:54.028Z</time></trkpt><trkpt lat="42.4760433" lon="13.3593417"><ele>1250.6666666666667</ele><time>2026-04-04T10:36:55.028Z</time></trkpt><trkpt lat="42.4759217" lon="13.3592133"><ele>1253.0</ele><time>2026-04-04T10:36:56.028Z</time></trkpt><trkpt lat="42.4757967" lon="13.35909"><ele>1257.5</ele><time>2026-04-04T10:36:57.028Z</time></trkpt><trkpt lat="42.4754617" lon="13.3587283"><ele>1262.0</ele><time>2026-04-04T10:37:00.028Z</time></trkpt><trkpt lat="42.4753467" lon="13.3586167"><ele>1262.0</ele><time>2026-04-04T10:37:01.028Z</time></trkpt><trkpt lat="42.475235" lon="13.3585033"><ele>1262.0</ele><time>2026-04-04T10:37:02.028Z</time></trkpt><trkpt lat="42.4751233" lon="13.3583817"><ele>1262.0</ele><time>2026-04-04T10:37:03.028Z</time></trkpt><trkpt lat="42.4749217" lon="13.3581333"><ele>1261.3333333333335</ele><time>2026-04-04T10:37:05.028Z</time></trkpt><trkpt lat="42.4747367" lon="13.3578533"><ele>1260.6666666666667</ele><time>2026-04-04T10:37:07.028Z</time></trkpt><trkpt lat="42.4746583" lon="13.3577083"><ele>1260.0</ele><time>2026-04-04T10:37:08.028Z</time></trkpt><trkpt lat="42.4745083" lon="13.3574083"><ele>1260.0</ele><time>2026-04-04T10:37:10.028Z</time></trkpt><trkpt lat="42.474425" lon="13.357275"><ele>1260.0</ele><time>2026-04-04T10:37:11.028Z</time></trkpt><trkpt lat="42.4742083" lon="13.3570733"><ele>1260.0</ele><time>2026-04-04T10:37:13.028Z</time></trkpt><trkpt lat="42.474095" lon="13.357"><ele>1263.6666666666667</ele><time>2026-04-04T10:37:14.028Z</time></trkpt><trkpt lat="42.473835" lon="13.3568817"><ele>1267.3333333333335</ele><time>2026-04-04T10:37:16.028Z</time></trkpt><trkpt lat="42.4736967" lon="13.3568433"><ele>1271.0</ele><time>2026-04-04T10:37:17.028Z</time></trkpt><trkpt lat="42.47356" lon="13.3567867"><ele>1271.0</ele><time>2026-04-04T10:37:18.028Z</time></trkpt><trkpt lat="42.4732933" lon="13.35665"><ele>1271.0</ele><time>2026-04-04T10:37:20.028Z</time></trkpt><trkpt lat="42.4730283" lon="13.3564717"><ele>1272.0</ele><time>2026-04-04T10:37:22.028Z</time></trkpt><trkpt lat="42.4729067" lon="13.35637"><ele>1273.0</ele><time>2026-04-04T10:37:23.028Z</time></trkpt><trkpt lat="42.4727917" lon="13.356255"><ele>1274.0</ele><time>2026-04-04T10:37:24.027Z</time></trkpt><trkpt lat="42.4725783" lon="13.3560017"><ele>1275.0</ele><time>2026-04-04T10:37:26.027Z</time></trkpt><trkpt lat="42.47247" lon="13.3558733"><ele>1276.0</ele><time>2026-04-04T10:37:27.028Z</time></trkpt><trkpt lat="42.4723567" lon="13.3557467"><ele>1277.0</ele><time>2026-04-04T10:37:28.028Z</time></trkpt><trkpt lat="42.4722483" lon="13.3556083"><ele>1278.0</ele><time>2026-04-04T10:37:29.028Z</time></trkpt><trkpt lat="42.4721333" lon="13.3554767"><ele>1278.25</ele><time>2026-04-04T10:37:30.028Z</time></trkpt><trkpt lat="42.4720183" lon="13.3553483"><ele>1278.5</ele><time>2026-04-04T10:37:31.028Z</time></trkpt><trkpt lat="42.4719083" lon="13.3552267"><ele>1278.75</ele><time>2026-04-04T10:37:32.028Z</time></trkpt><trkpt lat="42.471795" lon="13.355115"><ele>1279.0</ele><time>2026-04-04T10:37:33.028Z</time></trkpt><trkpt lat="42.4716833" lon="13.3550017"><ele>1279.0</ele><time>2026-04-04T10:37:34.027Z</time></trkpt><trkpt lat="42.4715733" lon="13.3548817"><ele>1279.0</ele><time>2026-04-04T10:37:35.028Z</time></trkpt><trkpt lat="42.47147" lon="13.35477"><ele>1279.0</ele><time>2026-04-04T10:37:36.028Z</time></trkpt><trkpt lat="42.4713667" lon="13.3546617"><ele>1279.0</ele><time>2026-04-04T10:37:37.028Z</time></trkpt><trkpt lat="42.4712733" lon="13.354555"><ele>1279.75</ele><time>2026-04-04T10:37:38.028Z</time></trkpt><trkpt lat="42.4711783" lon="13.3544483"><ele>1280.5</ele><time>2026-04-04T10:37:39.028Z</time></trkpt><trkpt lat="42.4710667" lon="13.3543317"><ele>1281.25</ele><time>2026-04-04T10:37:40.028Z</time></trkpt><trkpt lat="42.470965" lon="13.3542183"><ele>1282.0</ele><time>2026-04-04T10:37:41.028Z</time></trkpt><trkpt lat="42.4708617" lon="13.354105"><ele>1282.0</ele><time>2026-04-04T10:37:42.028Z</time></trkpt><trkpt lat="42.470755" lon="13.35398"><ele>1282.0</ele><time>2026-04-04T10:37:43.028Z</time></trkpt><trkpt lat="42.4706467" lon="13.3538633"><ele>1282.0</ele><time>2026-04-04T10:37:44.028Z</time></trkpt><trkpt lat="42.4705333" lon="13.3537583"><ele>1282.0</ele><time>2026-04-04T10:37:45.028Z</time></trkpt><trkpt lat="42.4704183" lon="13.35366"><ele>1281.0</ele><time>2026-04-04T10:37:46.028Z</time></trkpt><trkpt lat="42.4702883" lon="13.353575"><ele>1280.0</ele><time>2026-04-04T10:37:47.028Z</time></trkpt><trkpt lat="42.4701583" lon="13.3535183"><ele>1279.0</ele><time>2026-04-04T10:37:48.028Z</time></trkpt><trkpt lat="42.4700283" lon="13.35349"><ele>1278.0</ele><time>2026-04-04T10:37:49.028Z</time></trkpt><trkpt lat="42.469895" lon="13.3534817"><ele>1278.0</ele><time>2026-04-04T10:37:50.028Z</time></trkpt><trkpt lat="42.46976" lon="13.353485"><ele>1278.0</ele><time>2026-04-04T10:37:51.028Z</time></trkpt><trkpt lat="42.4696183" lon="13.3534883"><ele>1278.0</ele><time>2026-04-04T10:37:52.028Z</time></trkpt><trkpt lat="42.4694733" lon="13.3535033"><ele>1278.0</ele><time>2026-04-04T10:37:53.028Z</time></trkpt><trkpt lat="42.4693283" lon="13.353525"><ele>1279.5</ele><time>2026-04-04T10:37:54.028Z</time></trkpt><trkpt lat="42.469195" lon="13.3535567"><ele>1281.0</ele><time>2026-04-04T10:37:55.028Z</time></trkpt><trkpt lat="42.4690617" lon="13.3536017"><ele>1282.5</ele><time>2026-04-04T10:37:56.028Z</time></trkpt><trkpt lat="42.4689317" lon="13.3536483"><ele>1284.0</ele><time>2026-04-04T10:37:57.028Z</time></trkpt><trkpt lat="42.468805" lon="13.3537017"><ele>1284.5</ele><time>2026-04-04T10:37:58.028Z</time></trkpt><trkpt lat="42.468685" lon="13.35376"><ele>1285.0</ele><time>2026-04-04T10:37:59.027Z</time></trkpt><trkpt lat="42.4685783" lon="13.3538533"><ele>1285.5</ele><time>2026-04-04T10:38:00.028Z</time></trkpt><trkpt lat="42.4684867" lon="13.3539567"><ele>1286.0</ele><time>2026-04-04T10:38:01.028Z</time></trkpt><trkpt lat="42.4684" lon="13.3540717"><ele>1286.0</ele><time>2026-04-04T10:38:02.028Z</time></trkpt><trkpt lat="42.4683267" lon="13.354205"><ele>1286.0</ele><time>2026-04-04T10:38:03.028Z</time></trkpt><trkpt lat="42.4682533" lon="13.3543417"><ele>1286.0</ele><time>2026-04-04T10:38:04.028Z</time></trkpt><trkpt lat="42.4681783" lon="13.3544833"><ele>1286.0</ele><time>2026-04-04T10:38:05.028Z</time></trkpt><trkpt lat="42.4681033" lon="13.3546117"><ele>1287.5</ele><time>2026-04-04T10:38:06.028Z</time></trkpt><trkpt lat="42.468025" lon="13.3547317"><ele>1289.0</ele><time>2026-04-04T10:38:07.028Z</time></trkpt><trkpt lat="42.4679317" lon="13.3548333"><ele>1290.5</ele><time>2026-04-04T10:38:08.028Z</time></trkpt><trkpt lat="42.46784" lon="13.3549183"><ele>1292.0</ele><time>2026-04-04T10:38:09.028Z</time></trkpt><trkpt lat="42.4677467" lon="13.354985"><ele>1292.0</ele><time>2026-04-04T10:38:10.028Z</time></trkpt><trkpt lat="42.4676467" lon="13.3549933"><ele>1292.0</ele><time>2026-04-04T10:38:11.028Z</time></trkpt><trkpt lat="42.4675467" lon="13.354975"><ele>1292.0</ele><time>2026-04-04T10:38:12.028Z</time></trkpt><trkpt lat="42.4674533" lon="13.354935"><ele>1292.0</ele><time>2026-04-04T10:38:13.028Z</time></trkpt><trkpt lat="42.4673467" lon="13.3548733"><ele>1292.0</ele><time>2026-04-04T10:38:14.028Z</time></trkpt><trkpt lat="42.467235" lon="13.3548133"><ele>1292.0</ele><time>2026-04-04T10:38:15.028Z</time></trkpt><trkpt lat="42.4671" lon="13.354775"><ele>1292.0</ele><time>2026-04-04T10:38:16.028Z</time></trkpt><trkpt lat="42.4669667" lon="13.3547433"><ele>1292.0</ele><time>2026-04-04T10:38:17.028Z</time></trkpt><trkpt lat="42.466825" lon="13.3547217"><ele>1292.0</ele><time>2026-04-04T10:38:18.028Z</time></trkpt><trkpt lat="42.4666817" lon="13.3547217"><ele>1292.0</ele><time>2026-04-04T10:38:19.028Z</time></trkpt><trkpt lat="42.4665417" lon="13.3547333"><ele>1292.0</ele><time>2026-04-04T10:38:20.028Z</time></trkpt><trkpt lat="42.4664033" lon="13.354775"><ele>1292.0</ele><time>2026-04-04T10:38:21.028Z</time></trkpt><trkpt lat="42.4662667" lon="13.3548367"><ele>1292.0</ele><time>2026-04-04T10:38:22.028Z</time></trkpt><trkpt lat="42.4661317" lon="13.3549167"><ele>1288.3333333333335</ele><time>2026-04-04T10:38:23.028Z</time></trkpt><trkpt lat="42.465995" lon="13.355015"><ele>1284.6666666666667</ele><time>2026-04-04T10:38:24.028Z</time></trkpt><trkpt lat="42.4658617" lon="13.3551083"><ele>1281.0</ele><time>2026-04-04T10:38:25.027Z</time></trkpt><trkpt lat="42.4657333" lon="13.355215"><ele>1281.0</ele><time>2026-04-04T10:38:26.028Z</time></trkpt><trkpt lat="42.4656117" lon="13.355325"><ele>1281.0</ele><time>2026-04-04T10:38:27.028Z</time></trkpt><trkpt lat="42.4654867" lon="13.3554383"><ele>1281.0</ele><time>2026-04-04T10:38:28.028Z</time></trkpt><trkpt lat="42.465365" lon="13.35555"><ele>1281.0</ele><time>2026-04-04T10:38:29.028Z</time></trkpt><trkpt lat="42.465245" lon="13.3556667"><ele>1284.5</ele><time>2026-04-04T10:38:30.028Z</time></trkpt><trkpt lat="42.4651467" lon="13.3557883"><ele>1288.0</ele><time>2026-04-04T10:38:31.028Z</time></trkpt><trkpt lat="42.465015" lon="13.35588"><ele>1291.5</ele><time>2026-04-04T10:38:32.028Z</time></trkpt><trkpt lat="42.4649117" lon="13.3559533"><ele>1295.0</ele><time>2026-04-04T10:38:33.027Z</time></trkpt><trkpt lat="42.4648" lon="13.3560033"><ele>1295.0</ele><time>2026-04-04T10:38:34.028Z</time></trkpt><trkpt lat="42.4646667" lon="13.3560283"><ele>1295.0</ele><time>2026-04-04T10:38:35.028Z</time></trkpt><trkpt lat="42.464535" lon="13.3560133"><ele>1295.0</ele><time>2026-04-04T10:38:36.028Z</time></trkpt><trkpt lat="42.464395" lon="13.3559717"><ele>1295.0</ele><time>2026-04-04T10:38:37.028Z</time></trkpt><trkpt lat="42.464255" lon="13.3559383"><ele>1293.0</ele><time>2026-04-04T10:38:38.028Z</time></trkpt><trkpt lat="42.464115" lon="13.3559183"><ele>1291.0</ele><time>2026-04-04T10:38:39.028Z</time></trkpt><trkpt lat="42.4639767" lon="13.355935"><ele>1289.0</ele><time>2026-04-04T10:38:40.028Z</time></trkpt><trkpt lat="42.4638467" lon="13.3559817"><ele>1287.0</ele><time>2026-04-04T10:38:41.028Z</time></trkpt><trkpt lat="42.463725" lon="13.35605"><ele>1284.5</ele><time>2026-04-04T10:38:42.028Z</time></trkpt><trkpt lat="42.463605" lon="13.3561383"><ele>1282.0</ele><time>2026-04-04T10:38:43.028Z</time></trkpt><trkpt lat="42.4634833" lon="13.3562233"><ele>1279.5</ele><time>2026-04-04T10:38:44.028Z</time></trkpt><trkpt lat="42.4633517" lon="13.3563"><ele>1277.0</ele><time>2026-04-04T10:38:45.028Z</time></trkpt><trkpt lat="42.46322" lon="13.3563717"><ele>1277.5</ele><time>2026-04-04T10:38:46.028Z</time></trkpt><trkpt lat="42.4630867" lon="13.3564517"><ele>1278.0</ele><time>2026-04-04T10:38:47.027Z</time></trkpt><trkpt lat="42.4629617" lon="13.3565467"><ele>1278.5</ele><time>2026-04-04T10:38:48.028Z</time></trkpt><trkpt lat="42.4628517" lon="13.3566533"><ele>1279.0</ele><time>2026-04-04T10:38:49.028Z</time></trkpt><trkpt lat="42.46276" lon="13.3568"><ele>1279.0</ele><time>2026-04-04T10:38:50.028Z</time></trkpt><trkpt lat="42.462705" lon="13.3569483"><ele>1279.0</ele><time>2026-04-04T10:38:51.028Z</time></trkpt><trkpt lat="42.4626483" lon="13.3570967"><ele>1279.0</ele><time>2026-04-04T10:38:52.028Z</time></trkpt><trkpt lat="42.4625933" lon="13.3572283"><ele>1279.0</ele><time>2026-04-04T10:38:53.028Z</time></trkpt><trkpt lat="42.46254" lon="13.3573533"><ele>1282.8000000000002</ele><time>2026-04-04T10:38:54.028Z</time></trkpt><trkpt lat="42.4624883" lon="13.3574767"><ele>1286.6000000000001</ele><time>2026-04-04T10:38:55.028Z</time></trkpt><trkpt lat="42.46244" lon="13.357595"><ele>1290.4</ele><time>2026-04-04T10:38:56.028Z</time></trkpt><trkpt lat="42.4623883" lon="13.3577"><ele>1294.2</ele><time>2026-04-04T10:38:57.028Z</time></trkpt><trkpt lat="42.4623117" lon="13.35779"><ele>1298.0</ele><time>2026-04-04T10:38:58.028Z</time></trkpt><trkpt lat="42.46223" lon="13.357845"><ele>1298.0</ele><time>2026-04-04T10:38:59.028Z</time></trkpt><trkpt lat="42.4621367" lon="13.3578417"><ele>1298.0</ele><time>2026-04-04T10:39:00.028Z</time></trkpt><trkpt lat="42.4620467" lon="13.3577867"><ele>1298.0</ele><time>2026-04-04T10:39:01.028Z</time></trkpt><trkpt lat="42.4619633" lon="13.357695"><ele>1298.0</ele><time>2026-04-04T10:39:02.028Z</time></trkpt><trkpt lat="42.4618967" lon="13.3575783"><ele>1298.0</ele><time>2026-04-04T10:39:03.028Z</time></trkpt><trkpt lat="42.461835" lon="13.357455"><ele>1298.1666666666667</ele><time>2026-04-04T10:39:04.028Z</time></trkpt><trkpt lat="42.4617767" lon="13.3573333"><ele>1298.3333333333335</ele><time>2026-04-04T10:39:05.028Z</time></trkpt><trkpt lat="42.4617117" lon="13.357225"><ele>1298.5</ele><time>2026-04-04T10:39:06.028Z</time></trkpt><trkpt lat="42.4616417" lon="13.35716"><ele>1298.6666666666667</ele><time>2026-04-04T10:39:07.028Z</time></trkpt><trkpt lat="42.4615717" lon="13.35712"><ele>1298.8333333333333</ele><time>2026-04-04T10:39:08.027Z</time></trkpt><trkpt lat="42.4615033" lon="13.357095"><ele>1299.0</ele><time>2026-04-04T10:39:09.028Z</time></trkpt><trkpt lat="42.4614033" lon="13.3571867"><ele>1299.0</ele><time>2026-04-04T10:39:11.028Z</time></trkpt><trkpt lat="42.461325" lon="13.357275"><ele>1299.0</ele><time>2026-04-04T10:39:12.028Z</time></trkpt><trkpt lat="42.4612317" lon="13.357395"><ele>1299.0</ele><time>2026-04-04T10:39:13.028Z</time></trkpt><trkpt lat="42.4611333" lon="13.3575133"><ele>1299.0</ele><time>2026-04-04T10:39:14.028Z</time></trkpt><trkpt lat="42.4610317" lon="13.357625"><ele>1299.5</ele><time>2026-04-04T10:39:15.028Z</time></trkpt><trkpt lat="42.4609283" lon="13.357715"><ele>1300.0</ele><time>2026-04-04T10:39:16.028Z</time></trkpt><trkpt lat="42.4608183" lon="13.357805"><ele>1300.5</ele><time>2026-04-04T10:39:17.028Z</time></trkpt><trkpt lat="42.4607067" lon="13.3578833"><ele>1301.0</ele><time>2026-04-04T10:39:18.028Z</time></trkpt><trkpt lat="42.4605983" lon="13.35794"><ele>1301.0</ele><time>2026-04-04T10:39:19.028Z</time></trkpt><trkpt lat="42.4605" lon="13.35798"><ele>1301.0</ele><time>2026-04-04T10:39:20.028Z</time></trkpt><trkpt lat="42.4604067" lon="13.3579833"><ele>1301.0</ele><time>2026-04-04T10:39:21.028Z</time></trkpt><trkpt lat="42.4603217" lon="13.35794"><ele>1301.0</ele><time>2026-04-04T10:39:22.028Z</time></trkpt><trkpt lat="42.4602467" lon="13.3578733"><ele>1301.0</ele><time>2026-04-04T10:39:23.028Z</time></trkpt><trkpt lat="42.4601867" lon="13.35778"><ele>1305.0</ele><time>2026-04-04T10:39:24.028Z</time></trkpt><trkpt lat="42.4601633" lon="13.357675"><ele>1309.0</ele><time>2026-04-04T10:39:25.028Z</time></trkpt><trkpt lat="42.46019" lon="13.3575333"><ele>1313.0</ele><time>2026-04-04T10:39:26.028Z</time></trkpt><trkpt lat="42.4602417" lon="13.357405"><ele>1317.0</ele><time>2026-04-04T10:39:27.028Z</time></trkpt><trkpt lat="42.4603267" lon="13.3572833"><ele>1321.0</ele><time>2026-04-04T10:39:28.028Z</time></trkpt><trkpt lat="42.4604167" lon="13.3571517"><ele>1315.25</ele><time>2026-04-04T10:39:29.028Z</time></trkpt><trkpt lat="42.4604967" lon="13.3570083"><ele>1309.5</ele><time>2026-04-04T10:39:30.028Z</time></trkpt><trkpt lat="42.4605767" lon="13.3568617"><ele>1303.75</ele><time>2026-04-04T10:39:31.028Z</time></trkpt><trkpt lat="42.4606617" lon="13.3567067"><ele>1298.0</ele><time>2026-04-04T10:39:32.028Z</time></trkpt><trkpt lat="42.4607283" lon="13.3565467"><ele>1298.0</ele><time>2026-04-04T10:39:33.028Z</time></trkpt><trkpt lat="42.46079" lon="13.3563767"><ele>1298.0</ele><time>2026-04-04T10:39:34.028Z</time></trkpt><trkpt lat="42.4608333" lon="13.3562"><ele>1298.0</ele><time>2026-04-04T10:39:35.028Z</time></trkpt><trkpt lat="42.460845" lon="13.35602"><ele>1298.0</ele><time>2026-04-04T10:39:36.028Z</time></trkpt><trkpt lat="42.4608533" lon="13.3558233"><ele>1298.25</ele><time>2026-04-04T10:39:37.027Z</time></trkpt><trkpt lat="42.4608367" lon="13.3556683"><ele>1298.5</ele><time>2026-04-04T10:39:38.028Z</time></trkpt><trkpt lat="42.4608233" lon="13.3555117"><ele>1298.75</ele><time>2026-04-04T10:39:39.028Z</time></trkpt><trkpt lat="42.460805" lon="13.355365"><ele>1299.0</ele><time>2026-04-04T10:39:40.028Z</time></trkpt><trkpt lat="42.4607817" lon="13.355215"><ele>1299.0</ele><time>2026-04-04T10:39:41.028Z</time></trkpt><trkpt lat="42.4607567" lon="13.3550583"><ele>1299.0</ele><time>2026-04-04T10:39:42.028Z</time></trkpt><trkpt lat="42.4607317" lon="13.3549117"><ele>1299.0</ele><time>2026-04-04T10:39:43.028Z</time></trkpt><trkpt lat="42.4606983" lon="13.3547667"><ele>1299.0</ele><time>2026-04-04T10:39:44.028Z</time></trkpt><trkpt lat="42.4606717" lon="13.354615"><ele>1297.75</ele><time>2026-04-04T10:39:45.028Z</time></trkpt><trkpt lat="42.4606383" lon="13.35446"><ele>1296.5</ele><time>2026-04-04T10:39:46.028Z</time></trkpt><trkpt lat="42.46062" lon="13.3542983"><ele>1295.25</ele><time>2026-04-04T10:39:47.028Z</time></trkpt><trkpt lat="42.460605" lon="13.3541317"><ele>1294.0</ele><time>2026-04-04T10:39:48.028Z</time></trkpt><trkpt lat="42.4605733" lon="13.353975"><ele>1291.75</ele><time>2026-04-04T10:39:49.028Z</time></trkpt><trkpt lat="42.4605367" lon="13.3538267"><ele>1289.5</ele><time>2026-04-04T10:39:50.028Z</time></trkpt><trkpt lat="42.4604867" lon="13.35368"><ele>1287.25</ele><time>2026-04-04T10:39:51.028Z</time></trkpt><trkpt lat="42.460425" lon="13.3535333"><ele>1285.0</ele><time>2026-04-04T10:39:52.028Z</time></trkpt><trkpt lat="42.4603567" lon="13.3534033"><ele>1289.5</ele><time>2026-04-04T10:39:53.028Z</time></trkpt><trkpt lat="42.46028" lon="13.35329"><ele>1294.0</ele><time>2026-04-04T10:39:54.027Z</time></trkpt><trkpt lat="42.4602033" lon="13.3531733"><ele>1298.5</ele><time>2026-04-04T10:39:55.028Z</time></trkpt><trkpt lat="42.4601233" lon="13.35306"><ele>1303.0</ele><time>2026-04-04T10:39:56.028Z</time></trkpt><trkpt lat="42.46005" lon="13.3529483"><ele>1303.2</ele><time>2026-04-04T10:39:57.028Z</time></trkpt><trkpt lat="42.45998" lon="13.352835"><ele>1303.4</ele><time>2026-04-04T10:39:58.028Z</time></trkpt><trkpt lat="42.4599217" lon="13.35272"><ele>1303.6000000000001</ele><time>2026-04-04T10:39:59.028Z</time></trkpt><trkpt lat="42.4598617" lon="13.352615"><ele>1303.8000000000002</ele><time>2026-04-04T10:40:00.028Z</time></trkpt><trkpt lat="42.4598083" lon="13.3525083"><ele>1304.0</ele><time>2026-04-04T10:40:01.028Z</time></trkpt><trkpt lat="42.4597617" lon="13.3524167"><ele>1304.0</ele><time>2026-04-04T10:40:02.028Z</time></trkpt><trkpt lat="42.4597117" lon="13.3523367"><ele>1304.0</ele><time>2026-04-04T10:40:03.028Z</time></trkpt><trkpt lat="42.45968" lon="13.35226"><ele>1304.0</ele><time>2026-04-04T10:40:04.028Z</time></trkpt><trkpt lat="42.4596417" lon="13.352155"><ele>1304.0</ele><time>2026-04-04T10:40:06.028Z</time></trkpt><trkpt lat="42.4595917" lon="13.3520683"><ele>1304.0</ele><time>2026-04-04T10:40:09.028Z</time></trkpt><trkpt lat="42.4595817" lon="13.352165"><ele>1304.0</ele><time>2026-04-04T10:40:14.028Z</time></trkpt><trkpt lat="42.4596067" lon="13.3522483"><ele>1304.0</ele><time>2026-04-04T10:40:16.028Z</time></trkpt><trkpt lat="42.4596933" lon="13.35228"><ele>1304.6666666666667</ele><time>2026-04-04T10:46:21.029Z</time></trkpt><trkpt lat="42.4596783" lon="13.3521733"><ele>1305.3333333333335</ele><time>2026-04-04T10:46:24.029Z</time></trkpt><trkpt lat="42.4596167" lon="13.3520583"><ele>1306.0</ele><time>2026-04-04T10:46:26.029Z</time></trkpt><trkpt lat="42.459575" lon="13.3519633"><ele>1306.6666666666667</ele><time>2026-04-04T10:46:28.029Z</time></trkpt><trkpt lat="42.4595267" lon="13.351845"><ele>1307.3333333333333</ele><time>2026-04-04T10:46:30.029Z</time></trkpt><trkpt lat="42.4595" lon="13.3517633"><ele>1308.0</ele><time>2026-04-04T10:46:31.029Z</time></trkpt><trkpt lat="42.4594683" lon="13.3516783"><ele>1306.5</ele><time>2026-04-04T10:46:32.029Z</time></trkpt><trkpt lat="42.45944" lon="13.3515833"><ele>1305.0</ele><time>2026-04-04T10:46:33.029Z</time></trkpt><trkpt lat="42.459405" lon="13.3514883"><ele>1303.5</ele><time>2026-04-04T10:46:34.029Z</time></trkpt><trkpt lat="42.45937" lon="13.35139"><ele>1302.0</ele><time>2026-04-04T10:46:35.029Z</time></trkpt><trkpt lat="42.459335" lon="13.3512883"><ele>1300.5</ele><time>2026-04-04T10:46:36.029Z</time></trkpt><trkpt lat="42.4593017" lon="13.35119"><ele>1299.0</ele><time>2026-04-04T10:46:37.029Z</time></trkpt><trkpt lat="42.4592717" lon="13.3510917"><ele>1299.2</ele><time>2026-04-04T10:46:38.029Z</time></trkpt><trkpt lat="42.45924" lon="13.350985"><ele>1299.4</ele><time>2026-04-04T10:46:39.029Z</time></trkpt><trkpt lat="42.4592033" lon="13.3508783"><ele>1299.6</ele><time>2026-04-04T10:46:40.029Z</time></trkpt><trkpt lat="42.4591733" lon="13.3507633"><ele>1299.8</ele><time>2026-04-04T10:46:41.029Z</time></trkpt><trkpt lat="42.4591467" lon="13.3506417"><ele>1300.0</ele><time>2026-04-04T10:46:42.029Z</time></trkpt><trkpt lat="42.45912" lon="13.3505083"><ele>1300.0</ele><time>2026-04-04T10:46:43.029Z</time></trkpt><trkpt lat="42.4590917" lon="13.3503717"><ele>1300.0</ele><time>2026-04-04T10:46:44.029Z</time></trkpt><trkpt lat="42.4590633" lon="13.3502333"><ele>1300.0</ele><time>2026-04-04T10:46:45.029Z</time></trkpt><trkpt lat="42.4590217" lon="13.3501"><ele>1300.0</ele><time>2026-04-04T10:46:46.029Z</time></trkpt><trkpt lat="42.458985" lon="13.3499633"><ele>1300.0</ele><time>2026-04-04T10:46:47.029Z</time></trkpt><trkpt lat="42.4589433" lon="13.3498283"><ele>1301.0</ele><time>2026-04-04T10:46:48.029Z</time></trkpt><trkpt lat="42.4589" lon="13.3496867"><ele>1302.0</ele><time>2026-04-04T10:46:49.029Z</time></trkpt><trkpt lat="42.45885" lon="13.3495367"><ele>1303.0</ele><time>2026-04-04T10:46:50.029Z</time></trkpt><trkpt lat="42.4587933" lon="13.3493933"><ele>1304.0</ele><time>2026-04-04T10:46:51.029Z</time></trkpt><trkpt lat="42.4587233" lon="13.34926"><ele>1302.0</ele><time>2026-04-04T10:46:52.029Z</time></trkpt><trkpt lat="42.4586383" lon="13.3491367"><ele>1300.0</ele><time>2026-04-04T10:46:53.029Z</time></trkpt><trkpt lat="42.458545" lon="13.34902"><ele>1298.0</ele><time>2026-04-04T10:46:54.029Z</time></trkpt><trkpt lat="42.45845" lon="13.3489233"><ele>1296.0</ele><time>2026-04-04T10:46:55.029Z</time></trkpt><trkpt lat="42.4583533" lon="13.34882"><ele>1296.0</ele><time>2026-04-04T10:46:56.029Z</time></trkpt><trkpt lat="42.45826" lon="13.3487117"><ele>1296.0</ele><time>2026-04-04T10:46:57.029Z</time></trkpt><trkpt lat="42.4581683" lon="13.348595"><ele>1296.0</ele><time>2026-04-04T10:46:58.029Z</time></trkpt><trkpt lat="42.458085" lon="13.348475"><ele>1296.0</ele><time>2026-04-04T10:46:59.029Z</time></trkpt><trkpt lat="42.4580183" lon="13.34834"><ele>1296.0</ele><time>2026-04-04T10:47:00.029Z</time></trkpt><trkpt lat="42.4579583" lon="13.3481917"><ele>1296.0</ele><time>2026-04-04T10:47:01.028Z</time></trkpt><trkpt lat="42.4579033" lon="13.3480333"><ele>1296.0</ele><time>2026-04-04T10:47:02.029Z</time></trkpt><trkpt lat="42.45785" lon="13.347875"><ele>1296.0</ele><time>2026-04-04T10:47:03.029Z</time></trkpt><trkpt lat="42.4578" lon="13.3477167"><ele>1294.25</ele><time>2026-04-04T10:47:04.029Z</time></trkpt><trkpt lat="42.4577367" lon="13.3475733"><ele>1292.5</ele><time>2026-04-04T10:47:05.029Z</time></trkpt><trkpt lat="42.457665" lon="13.3474383"><ele>1290.75</ele><time>2026-04-04T10:47:06.029Z</time></trkpt><trkpt lat="42.4575817" lon="13.3473083"><ele>1289.0</ele><time>2026-04-04T10:47:07.029Z</time></trkpt><trkpt lat="42.457485" lon="13.3472033"><ele>1289.0</ele><time>2026-04-04T10:47:08.029Z</time></trkpt><trkpt lat="42.457375" lon="13.3471033"><ele>1289.0</ele><time>2026-04-04T10:47:09.029Z</time></trkpt><trkpt lat="42.4572633" lon="13.3470217"><ele>1289.0</ele><time>2026-04-04T10:47:10.029Z</time></trkpt><trkpt lat="42.457145" lon="13.3469483"><ele>1289.0</ele><time>2026-04-04T10:47:11.029Z</time></trkpt><trkpt lat="42.45702" lon="13.3468817"><ele>1288.25</ele><time>2026-04-04T10:47:12.029Z</time></trkpt><trkpt lat="42.4568933" lon="13.3468133"><ele>1287.5</ele><time>2026-04-04T10:47:13.029Z</time></trkpt><trkpt lat="42.45677" lon="13.3467467"><ele>1286.75</ele><time>2026-04-04T10:47:14.029Z</time></trkpt><trkpt lat="42.4566467" lon="13.346685"><ele>1286.0</ele><time>2026-04-04T10:47:15.029Z</time></trkpt><trkpt lat="42.456525" lon="13.3466083"><ele>1286.0</ele><time>2026-04-04T10:47:16.029Z</time></trkpt><trkpt lat="42.4564117" lon="13.3465267"><ele>1286.0</ele><time>2026-04-04T10:47:17.029Z</time></trkpt><trkpt lat="42.4563017" lon="13.3464383"><ele>1286.0</ele><time>2026-04-04T10:47:18.028Z</time></trkpt><trkpt lat="42.4562117" lon="13.3463417"><ele>1286.0</ele><time>2026-04-04T10:47:19.028Z</time></trkpt><trkpt lat="42.4561317" lon="13.3462383"><ele>1284.6</ele><time>2026-04-04T10:47:20.028Z</time></trkpt><trkpt lat="42.4560617" lon="13.3461267"><ele>1283.1999999999998</ele><time>2026-04-04T10:47:21.028Z</time></trkpt><trkpt lat="42.4560067" lon="13.3459967"><ele>1281.8000000000002</ele><time>2026-04-04T10:47:22.028Z</time></trkpt><trkpt lat="42.4559633" lon="13.3458633"><ele>1280.4</ele><time>2026-04-04T10:47:23.028Z</time></trkpt><trkpt lat="42.4559433" lon="13.3457167"><ele>1279.0</ele><time>2026-04-04T10:47:24.028Z</time></trkpt><trkpt lat="42.455925" lon="13.345555"><ele>1278.0</ele><time>2026-04-04T10:47:25.028Z</time></trkpt><trkpt lat="42.4559267" lon="13.3453767"><ele>1277.0</ele><time>2026-04-04T10:47:26.028Z</time></trkpt><trkpt lat="42.4559283" lon="13.3452"><ele>1276.0</ele><time>2026-04-04T10:47:27.028Z</time></trkpt><trkpt lat="42.4559367" lon="13.34502"><ele>1275.0</ele><time>2026-04-04T10:47:28.028Z</time></trkpt><trkpt lat="42.45593" lon="13.34484"><ele>1273.75</ele><time>2026-04-04T10:47:29.027Z</time></trkpt><trkpt lat="42.4559183" lon="13.3446767"><ele>1272.5</ele><time>2026-04-04T10:47:30.028Z</time></trkpt><trkpt lat="42.4559133" lon="13.3445067"><ele>1271.25</ele><time>2026-04-04T10:47:31.027Z</time></trkpt><trkpt lat="42.4559083" lon="13.344335"><ele>1270.0</ele><time>2026-04-04T10:47:32.028Z</time></trkpt><trkpt lat="42.4558983" lon="13.3441717"><ele>1270.0</ele><time>2026-04-04T10:47:33.027Z</time></trkpt><trkpt lat="42.455875" lon="13.3440033"><ele>1270.0</ele><time>2026-04-04T10:47:34.028Z</time></trkpt><trkpt lat="42.45584" lon="13.3438383"><ele>1270.0</ele><time>2026-04-04T10:47:35.028Z</time></trkpt><trkpt lat="42.455775" lon="13.3436833"><ele>1270.0</ele><time>2026-04-04T10:47:36.028Z</time></trkpt><trkpt lat="42.4557017" lon="13.3435467"><ele>1269.5</ele><time>2026-04-04T10:47:37.028Z</time></trkpt><trkpt lat="42.4556133" lon="13.3434233"><ele>1269.0</ele><time>2026-04-04T10:47:38.028Z</time></trkpt><trkpt lat="42.45551" lon="13.3433217"><ele>1268.5</ele><time>2026-04-04T10:47:39.028Z</time></trkpt><trkpt lat="42.4553917" lon="13.3432283"><ele>1268.0</ele><time>2026-04-04T10:47:40.028Z</time></trkpt><trkpt lat="42.4552683" lon="13.3431317"><ele>1272.5</ele><time>2026-04-04T10:47:41.027Z</time></trkpt><trkpt lat="42.4551383" lon="13.3430433"><ele>1277.0</ele><time>2026-04-04T10:47:42.028Z</time></trkpt><trkpt lat="42.4550083" lon="13.3429583"><ele>1281.5</ele><time>2026-04-04T10:47:43.028Z</time></trkpt><trkpt lat="42.454865" lon="13.3428817"><ele>1286.0</ele><time>2026-04-04T10:47:44.028Z</time></trkpt><trkpt lat="42.4547117" lon="13.3428183"><ele>1281.6666666666667</ele><time>2026-04-04T10:47:45.028Z</time></trkpt><trkpt lat="42.4545567" lon="13.3427767"><ele>1277.3333333333333</ele><time>2026-04-04T10:47:46.028Z</time></trkpt><trkpt lat="42.45441" lon="13.3427233"><ele>1273.0</ele><time>2026-04-04T10:47:47.028Z</time></trkpt><trkpt lat="42.4542533" lon="13.3426683"><ele>1273.0</ele><time>2026-04-04T10:47:48.028Z</time></trkpt><trkpt lat="42.4541083" lon="13.342615"><ele>1273.0</ele><time>2026-04-04T10:47:49.028Z</time></trkpt><trkpt lat="42.4539667" lon="13.3425583"><ele>1273.0</ele><time>2026-04-04T10:47:50.028Z</time></trkpt><trkpt lat="42.45383" lon="13.34251"><ele>1273.0</ele><time>2026-04-04T10:47:51.028Z</time></trkpt><trkpt lat="42.4536883" lon="13.342465"><ele>1270.25</ele><time>2026-04-04T10:47:52.028Z</time></trkpt><trkpt lat="42.4535517" lon="13.3424217"><ele>1267.5</ele><time>2026-04-04T10:47:53.028Z</time></trkpt><trkpt lat="42.453405" lon="13.34238"><ele>1264.75</ele><time>2026-04-04T10:47:54.028Z</time></trkpt><trkpt lat="42.4532617" lon="13.3423283"><ele>1262.0</ele><time>2026-04-04T10:47:55.028Z</time></trkpt><trkpt lat="42.4531183" lon="13.3422817"><ele>1262.0</ele><time>2026-04-04T10:47:56.028Z</time></trkpt><trkpt lat="42.4529833" lon="13.342225"><ele>1262.0</ele><time>2026-04-04T10:47:57.028Z</time></trkpt><trkpt lat="42.4528533" lon="13.3421717"><ele>1262.0</ele><time>2026-04-04T10:47:58.028Z</time></trkpt><trkpt lat="42.4527233" lon="13.342125"><ele>1262.0</ele><time>2026-04-04T10:47:59.028Z</time></trkpt><trkpt lat="42.4525883" lon="13.3420767"><ele>1262.75</ele><time>2026-04-04T10:48:00.028Z</time></trkpt><trkpt lat="42.4524533" lon="13.342035"><ele>1263.5</ele><time>2026-04-04T10:48:01.028Z</time></trkpt><trkpt lat="42.4523167" lon="13.3419867"><ele>1264.25</ele><time>2026-04-04T10:48:02.028Z</time></trkpt><trkpt lat="42.452185" lon="13.34194"><ele>1265.0</ele><time>2026-04-04T10:48:03.028Z</time></trkpt><trkpt lat="42.4520467" lon="13.3419033"><ele>1262.25</ele><time>2026-04-04T10:48:04.028Z</time></trkpt><trkpt lat="42.4519133" lon="13.3418633"><ele>1259.5</ele><time>2026-04-04T10:48:05.028Z</time></trkpt><trkpt lat="42.4517833" lon="13.3418467"><ele>1256.75</ele><time>2026-04-04T10:48:06.028Z</time></trkpt><trkpt lat="42.4516383" lon="13.34184"><ele>1254.0</ele><time>2026-04-04T10:48:07.028Z</time></trkpt><trkpt lat="42.4514967" lon="13.3418267"><ele>1254.0</ele><time>2026-04-04T10:48:08.028Z</time></trkpt><trkpt lat="42.4513567" lon="13.341845"><ele>1254.0</ele><time>2026-04-04T10:48:09.028Z</time></trkpt><trkpt lat="42.4512217" lon="13.34188"><ele>1254.0</ele><time>2026-04-04T10:48:10.028Z</time></trkpt><trkpt lat="42.4510867" lon="13.3419433"><ele>1254.0</ele><time>2026-04-04T10:48:11.028Z</time></trkpt><trkpt lat="42.4509517" lon="13.3420367"><ele>1256.3333333333333</ele><time>2026-04-04T10:48:12.028Z</time></trkpt><trkpt lat="42.4508233" lon="13.3421567"><ele>1258.6666666666665</ele><time>2026-04-04T10:48:13.028Z</time></trkpt><trkpt lat="42.4507083" lon="13.342285"><ele>1261.0</ele><time>2026-04-04T10:48:14.028Z</time></trkpt><trkpt lat="42.450595" lon="13.3424083"><ele>1261.0</ele><time>2026-04-04T10:48:15.028Z</time></trkpt><trkpt lat="42.450465" lon="13.3425183"><ele>1261.0</ele><time>2026-04-04T10:48:16.027Z</time></trkpt><trkpt lat="42.45033" lon="13.3425967"><ele>1261.0</ele><time>2026-04-04T10:48:17.028Z</time></trkpt><trkpt lat="42.4501867" lon="13.3426717"><ele>1256.0</ele><time>2026-04-04T10:48:18.028Z</time></trkpt><trkpt lat="42.4500483" lon="13.34273"><ele>1251.0</ele><time>2026-04-04T10:48:19.028Z</time></trkpt><trkpt lat="42.449915" lon="13.3427917"><ele>1246.0</ele><time>2026-04-04T10:48:20.028Z</time></trkpt><trkpt lat="42.4497783" lon="13.3428433"><ele>1241.0</ele><time>2026-04-04T10:48:21.028Z</time></trkpt><trkpt lat="42.4496383" lon="13.3429067"><ele>1236.6666666666667</ele><time>2026-04-04T10:48:22.028Z</time></trkpt><trkpt lat="42.4494917" lon="13.34295"><ele>1232.3333333333333</ele><time>2026-04-04T10:48:23.027Z</time></trkpt><trkpt lat="42.4493367" lon="13.342985"><ele>1228.0</ele><time>2026-04-04T10:48:24.028Z</time></trkpt><trkpt lat="42.4491867" lon="13.3430017"><ele>1228.0</ele><time>2026-04-04T10:48:25.028Z</time></trkpt><trkpt lat="42.4490317" lon="13.3430133"><ele>1228.0</ele><time>2026-04-04T10:48:26.028Z</time></trkpt><trkpt lat="42.448865" lon="13.34302"><ele>1228.0</ele><time>2026-04-04T10:48:27.028Z</time></trkpt><trkpt lat="42.44871" lon="13.3430033"><ele>1226.6666666666665</ele><time>2026-04-04T10:48:28.028Z</time></trkpt><trkpt lat="42.448555" lon="13.3429833"><ele>1225.3333333333333</ele><time>2026-04-04T10:48:29.028Z</time></trkpt><trkpt lat="42.4484033" lon="13.3429617"><ele>1224.0</ele><time>2026-04-04T10:48:30.028Z</time></trkpt><trkpt lat="42.4482533" lon="13.342955"><ele>1224.0</ele><time>2026-04-04T10:48:31.028Z</time></trkpt><trkpt lat="42.4480967" lon="13.3429433"><ele>1224.0</ele><time>2026-04-04T10:48:32.028Z</time></trkpt><trkpt lat="42.4479333" lon="13.3429233"><ele>1224.0</ele><time>2026-04-04T10:48:33.028Z</time></trkpt><trkpt lat="42.4477833" lon="13.3429017"><ele>1225.6666666666667</ele><time>2026-04-04T10:48:34.028Z</time></trkpt><trkpt lat="42.4476383" lon="13.342855"><ele>1227.3333333333335</ele><time>2026-04-04T10:48:35.028Z</time></trkpt><trkpt lat="42.44749" lon="13.3427783"><ele>1229.0</ele><time>2026-04-04T10:48:36.028Z</time></trkpt><trkpt lat="42.4473517" lon="13.342695"><ele>1229.0</ele><time>2026-04-04T10:48:37.028Z</time></trkpt><trkpt lat="42.4472183" lon="13.3426067"><ele>1229.0</ele><time>2026-04-04T10:48:38.028Z</time></trkpt><trkpt lat="42.4470783" lon="13.3425083"><ele>1229.0</ele><time>2026-04-04T10:48:39.028Z</time></trkpt><trkpt lat="42.4469533" lon="13.3424183"><ele>1229.0</ele><time>2026-04-04T10:48:40.028Z</time></trkpt><trkpt lat="42.44683" lon="13.3423067"><ele>1225.25</ele><time>2026-04-04T10:48:41.028Z</time></trkpt><trkpt lat="42.4467017" lon="13.3421983"><ele>1221.5</ele><time>2026-04-04T10:48:42.028Z</time></trkpt><trkpt lat="42.4465833" lon="13.3421"><ele>1217.75</ele><time>2026-04-04T10:48:43.028Z</time></trkpt><trkpt lat="42.4464633" lon="13.342025"><ele>1214.0</ele><time>2026-04-04T10:48:44.028Z</time></trkpt><trkpt lat="42.446355" lon="13.341975"><ele>1215.6000000000001</ele><time>2026-04-04T10:48:45.028Z</time></trkpt><trkpt lat="42.4462567" lon="13.3419617"><ele>1217.2</ele><time>2026-04-04T10:48:46.028Z</time></trkpt><trkpt lat="42.4461533" lon="13.341985"><ele>1218.8000000000002</ele><time>2026-04-04T10:48:47.028Z</time></trkpt><trkpt lat="42.4460583" lon="13.34207"><ele>1220.4</ele><time>2026-04-04T10:48:48.028Z</time></trkpt><trkpt lat="42.4459567" lon="13.3421667"><ele>1222.0</ele><time>2026-04-04T10:48:49.028Z</time></trkpt><trkpt lat="42.445855" lon="13.3422733"><ele>1222.0</ele><time>2026-04-04T10:48:50.028Z</time></trkpt><trkpt lat="42.445755" lon="13.3423967"><ele>1222.0</ele><time>2026-04-04T10:48:51.028Z</time></trkpt><trkpt lat="42.445645" lon="13.34254"><ele>1222.0</ele><time>2026-04-04T10:48:52.028Z</time></trkpt><trkpt lat="42.44555" lon="13.34268"><ele>1222.0</ele><time>2026-04-04T10:48:53.028Z</time></trkpt><trkpt lat="42.4454867" lon="13.342835"><ele>1214.25</ele><time>2026-04-04T10:48:54.028Z</time></trkpt><trkpt lat="42.44544" lon="13.3430067"><ele>1206.5</ele><time>2026-04-04T10:48:55.028Z</time></trkpt><trkpt lat="42.44541" lon="13.3431867"><ele>1198.75</ele><time>2026-04-04T10:48:56.028Z</time></trkpt><trkpt lat="42.445385" lon="13.3433783"><ele>1191.0</ele><time>2026-04-04T10:48:57.028Z</time></trkpt><trkpt lat="42.4453683" lon="13.3435683"><ele>1191.0</ele><time>2026-04-04T10:48:58.028Z</time></trkpt><trkpt lat="42.4453367" lon="13.3437583"><ele>1191.0</ele><time>2026-04-04T10:48:59.028Z</time></trkpt><trkpt lat="42.4453017" lon="13.343945"><ele>1191.0</ele><time>2026-04-04T10:49:00.028Z</time></trkpt><trkpt lat="42.4452617" lon="13.3441283"><ele>1191.0</ele><time>2026-04-04T10:49:01.028Z</time></trkpt><trkpt lat="42.44523" lon="13.3443117"><ele>1193.0</ele><time>2026-04-04T10:49:02.028Z</time></trkpt><trkpt lat="42.4452033" lon="13.344495"><ele>1195.0</ele><time>2026-04-04T10:49:03.028Z</time></trkpt><trkpt lat="42.445175" lon="13.34468"><ele>1197.0</ele><time>2026-04-04T10:49:04.028Z</time></trkpt><trkpt lat="42.4451567" lon="13.344865"><ele>1199.0</ele><time>2026-04-04T10:49:05.028Z</time></trkpt><trkpt lat="42.4451483" lon="13.3450417"><ele>1199.75</ele><time>2026-04-04T10:49:06.028Z</time></trkpt><trkpt lat="42.4451567" lon="13.34521"><ele>1200.5</ele><time>2026-04-04T10:49:07.028Z</time></trkpt><trkpt lat="42.445165" lon="13.34537"><ele>1201.25</ele><time>2026-04-04T10:49:08.028Z</time></trkpt><trkpt lat="42.4451517" lon="13.3455133"><ele>1202.0</ele><time>2026-04-04T10:49:09.028Z</time></trkpt><trkpt lat="42.4451133" lon="13.3456433"><ele>1202.2</ele><time>2026-04-04T10:49:10.028Z</time></trkpt><trkpt lat="42.4450533" lon="13.3457367"><ele>1202.4</ele><time>2026-04-04T10:49:11.028Z</time></trkpt><trkpt lat="42.4449533" lon="13.3458133"><ele>1202.6</ele><time>2026-04-04T10:49:12.028Z</time></trkpt><trkpt lat="42.44485" lon="13.3458567"><ele>1202.8</ele><time>2026-04-04T10:49:13.028Z</time></trkpt><trkpt lat="42.444735" lon="13.345885"><ele>1203.0</ele><time>2026-04-04T10:49:14.028Z</time></trkpt><trkpt lat="42.4446067" lon="13.3459117"><ele>1203.0</ele><time>2026-04-04T10:49:15.028Z</time></trkpt><trkpt lat="42.4444733" lon="13.3459167"><ele>1203.0</ele><time>2026-04-04T10:49:16.028Z</time></trkpt><trkpt lat="42.444325" lon="13.3459233"><ele>1203.0</ele><time>2026-04-04T10:49:17.028Z</time></trkpt><trkpt lat="42.4441833" lon="13.34588"><ele>1203.0</ele><time>2026-04-04T10:49:18.028Z</time></trkpt><trkpt lat="42.4440483" lon="13.34581"><ele>1203.0</ele><time>2026-04-04T10:49:19.028Z</time></trkpt><trkpt lat="42.4438917" lon="13.345735"><ele>1203.0</ele><time>2026-04-04T10:49:20.028Z</time></trkpt><trkpt lat="42.4437433" lon="13.345645"><ele>1203.0</ele><time>2026-04-04T10:49:21.028Z</time></trkpt><trkpt lat="42.4436" lon="13.34556"><ele>1195.0</ele><time>2026-04-04T10:49:22.028Z</time></trkpt><trkpt lat="42.4434483" lon="13.3454883"><ele>1187.0</ele><time>2026-04-04T10:49:23.028Z</time></trkpt><trkpt lat="42.4433033" lon="13.3454283"><ele>1179.0</ele><time>2026-04-04T10:49:24.028Z</time></trkpt><trkpt lat="42.4431583" lon="13.3454033"><ele>1179.0</ele><time>2026-04-04T10:49:25.028Z</time></trkpt><trkpt lat="42.4430217" lon="13.3454033"><ele>1179.0</ele><time>2026-04-04T10:49:26.028Z</time></trkpt><trkpt lat="42.442895" lon="13.3454217"><ele>1179.0</ele><time>2026-04-04T10:49:27.028Z</time></trkpt><trkpt lat="42.44278" lon="13.3454583"><ele>1179.0</ele><time>2026-04-04T10:49:28.028Z</time></trkpt><trkpt lat="42.4426683" lon="13.345455"><ele>1182.2</ele><time>2026-04-04T10:49:29.028Z</time></trkpt><trkpt lat="42.4425733" lon="13.3454217"><ele>1185.4</ele><time>2026-04-04T10:49:30.028Z</time></trkpt><trkpt lat="42.4424833" lon="13.3453567"><ele>1188.6</ele><time>2026-04-04T10:49:31.028Z</time></trkpt><trkpt lat="42.442415" lon="13.3452533"><ele>1191.8</ele><time>2026-04-04T10:49:32.028Z</time></trkpt><trkpt lat="42.4424033" lon="13.3451017"><ele>1195.0</ele><time>2026-04-04T10:49:33.028Z</time></trkpt><trkpt lat="42.442415" lon="13.3449067"><ele>1195.0</ele><time>2026-04-04T10:49:34.028Z</time></trkpt><trkpt lat="42.4424" lon="13.3447367"><ele>1195.0</ele><time>2026-04-04T10:49:35.028Z</time></trkpt><trkpt lat="42.4423817" lon="13.3445567"><ele>1195.0</ele><time>2026-04-04T10:49:36.027Z</time></trkpt><trkpt lat="42.4423667" lon="13.344365"><ele>1195.0</ele><time>2026-04-04T10:49:37.028Z</time></trkpt><trkpt lat="42.4423567" lon="13.3441833"><ele>1193.0</ele><time>2026-04-04T10:49:38.028Z</time></trkpt><trkpt lat="42.44235" lon="13.3440083"><ele>1191.0</ele><time>2026-04-04T10:49:39.028Z</time></trkpt><trkpt lat="42.442345" lon="13.34383"><ele>1189.0</ele><time>2026-04-04T10:49:40.028Z</time></trkpt><trkpt lat="42.442335" lon="13.3436667"><ele>1187.0</ele><time>2026-04-04T10:49:41.028Z</time></trkpt><trkpt lat="42.4423033" lon="13.34351"><ele>1189.75</ele><time>2026-04-04T10:49:42.028Z</time></trkpt><trkpt lat="42.4422583" lon="13.3433617"><ele>1192.5</ele><time>2026-04-04T10:49:43.027Z</time></trkpt><trkpt lat="42.44219" lon="13.34324"><ele>1195.25</ele><time>2026-04-04T10:49:44.028Z</time></trkpt><trkpt lat="42.4421" lon="13.3431233"><ele>1198.0</ele><time>2026-04-04T10:49:45.028Z</time></trkpt><trkpt lat="42.4420133" lon="13.343025"><ele>1198.0</ele><time>2026-04-04T10:49:46.028Z</time></trkpt><trkpt lat="42.4419267" lon="13.342925"><ele>1198.0</ele><time>2026-04-04T10:49:47.028Z</time></trkpt><trkpt lat="42.4418533" lon="13.3428233"><ele>1198.0</ele><time>2026-04-04T10:49:48.028Z</time></trkpt><trkpt lat="42.4417867" lon="13.3426917"><ele>1198.0</ele><time>2026-04-04T10:49:49.028Z</time></trkpt><trkpt lat="42.4417433" lon="13.3425267"><ele>1198.0</ele><time>2026-04-04T10:49:50.028Z</time></trkpt><trkpt lat="42.4417133" lon="13.3423367"><ele>1198.0</ele><time>2026-04-04T10:49:51.028Z</time></trkpt><trkpt lat="42.44167" lon="13.3421617"><ele>1198.0</ele><time>2026-04-04T10:49:52.028Z</time></trkpt><trkpt lat="42.4416317" lon="13.3420033"><ele>1198.0</ele><time>2026-04-04T10:49:53.028Z</time></trkpt><trkpt lat="42.44159" lon="13.3418517"><ele>1191.75</ele><time>2026-04-04T10:49:54.028Z</time></trkpt><trkpt lat="42.44156" lon="13.3416983"><ele>1185.5</ele><time>2026-04-04T10:49:55.028Z</time></trkpt><trkpt lat="42.4415117" lon="13.3415567"><ele>1179.25</ele><time>2026-04-04T10:49:56.028Z</time></trkpt><trkpt lat="42.44145" lon="13.3414283"><ele>1173.0</ele><time>2026-04-04T10:49:57.028Z</time></trkpt><trkpt lat="42.4413683" lon="13.34133"><ele>1171.25</ele><time>2026-04-04T10:49:58.028Z</time></trkpt><trkpt lat="42.4412633" lon="13.341255"><ele>1169.5</ele><time>2026-04-04T10:49:59.028Z</time></trkpt><trkpt lat="42.44115" lon="13.3412017"><ele>1167.75</ele><time>2026-04-04T10:50:00.028Z</time></trkpt><trkpt lat="42.44102" lon="13.3411617"><ele>1166.0</ele><time>2026-04-04T10:50:01.028Z</time></trkpt><trkpt lat="42.4408817" lon="13.34112"><ele>1166.0</ele><time>2026-04-04T10:50:02.028Z</time></trkpt><trkpt lat="42.44076" lon="13.34103"><ele>1166.0</ele><time>2026-04-04T10:50:03.028Z</time></trkpt><trkpt lat="42.440655" lon="13.340915"><ele>1166.0</ele><time>2026-04-04T10:50:04.028Z</time></trkpt><trkpt lat="42.4405583" lon="13.3407733"><ele>1166.0</ele><time>2026-04-04T10:50:05.028Z</time></trkpt><trkpt lat="42.440465" lon="13.34063"><ele>1166.0</ele><time>2026-04-04T10:50:06.028Z</time></trkpt><trkpt lat="42.440385" lon="13.34047"><ele>1166.0</ele><time>2026-04-04T10:50:07.028Z</time></trkpt><trkpt lat="42.440305" lon="13.3403167"><ele>1166.0</ele><time>2026-04-04T10:50:08.028Z</time></trkpt><trkpt lat="42.4402283" lon="13.3401617"><ele>1166.0</ele><time>2026-04-04T10:50:09.027Z</time></trkpt><trkpt lat="42.4401483" lon="13.34"><ele>1166.0</ele><time>2026-04-04T10:50:10.028Z</time></trkpt><trkpt lat="42.44006" lon="13.3398417"><ele>1166.0</ele><time>2026-04-04T10:50:11.028Z</time></trkpt><trkpt lat="42.4399683" lon="13.3396917"><ele>1166.0</ele><time>2026-04-04T10:50:12.028Z</time></trkpt><trkpt lat="42.4398667" lon="13.3395617"><ele>1166.0</ele><time>2026-04-04T10:50:13.028Z</time></trkpt><trkpt lat="42.43975" lon="13.3394633"><ele>1159.2</ele><time>2026-04-04T10:50:14.028Z</time></trkpt><trkpt lat="42.4396183" lon="13.339415"><ele>1152.3999999999999</ele><time>2026-04-04T10:50:15.027Z</time></trkpt><trkpt lat="42.4395067" lon="13.3393883"><ele>1145.6</ele><time>2026-04-04T10:50:16.028Z</time></trkpt><trkpt lat="42.4394067" lon="13.3394133"><ele>1138.8</ele><time>2026-04-04T10:50:17.028Z</time></trkpt><trkpt lat="42.43933" lon="13.339495"><ele>1132.0</ele><time>2026-04-04T10:50:18.027Z</time></trkpt><trkpt lat="42.4392767" lon="13.3396017"><ele>1136.5</ele><time>2026-04-04T10:50:19.028Z</time></trkpt><trkpt lat="42.4392467" lon="13.33973"><ele>1141.0</ele><time>2026-04-04T10:50:20.028Z</time></trkpt><trkpt lat="42.4392317" lon="13.339885"><ele>1145.5</ele><time>2026-04-04T10:50:21.028Z</time></trkpt><trkpt lat="42.439255" lon="13.3400533"><ele>1150.0</ele><time>2026-04-04T10:50:22.028Z</time></trkpt><trkpt lat="42.439275" lon="13.3402067"><ele>1150.0</ele><time>2026-04-04T10:50:23.028Z</time></trkpt><trkpt lat="42.439285" lon="13.3403517"><ele>1150.0</ele><time>2026-04-04T10:50:24.028Z</time></trkpt><trkpt lat="42.4392783" lon="13.34049"><ele>1150.0</ele><time>2026-04-04T10:50:25.028Z</time></trkpt><trkpt lat="42.4392617" lon="13.3406133"><ele>1150.0</ele><time>2026-04-04T10:50:26.028Z</time></trkpt><trkpt lat="42.43923" lon="13.34072"><ele>1150.0</ele><time>2026-04-04T10:50:27.028Z</time></trkpt><trkpt lat="42.4391833" lon="13.3407983"><ele>1150.3333333333333</ele><time>2026-04-04T10:50:28.028Z</time></trkpt><trkpt lat="42.4391267" lon="13.34084"><ele>1150.6666666666665</ele><time>2026-04-04T10:50:29.027Z</time></trkpt><trkpt lat="42.4390533" lon="13.3408633"><ele>1151.0</ele><time>2026-04-04T10:50:30.028Z</time></trkpt><trkpt lat="42.4389767" lon="13.3408367"><ele>1151.3333333333333</ele><time>2026-04-04T10:50:31.027Z</time></trkpt><trkpt lat="42.4388967" lon="13.340805"><ele>1151.6666666666667</ele><time>2026-04-04T10:50:32.028Z</time></trkpt><trkpt lat="42.4387783" lon="13.3407517"><ele>1152.0</ele><time>2026-04-04T10:50:33.028Z</time></trkpt><trkpt lat="42.4386667" lon="13.340695"><ele>1152.0</ele><time>2026-04-04T10:50:34.028Z</time></trkpt><trkpt lat="42.438555" lon="13.3406217"><ele>1152.0</ele><time>2026-04-04T10:50:35.028Z</time></trkpt><trkpt lat="42.4384183" lon="13.3404733"><ele>1152.0</ele><time>2026-04-04T10:50:36.028Z</time></trkpt><trkpt lat="42.438265" lon="13.34028"><ele>1148.0</ele><time>2026-04-04T10:50:37.028Z</time></trkpt><trkpt lat="42.43814" lon="13.340105"><ele>1144.0</ele><time>2026-04-04T10:50:38.028Z</time></trkpt><trkpt lat="42.438025" lon="13.3399533"><ele>1140.0</ele><time>2026-04-04T10:50:39.028Z</time></trkpt><trkpt lat="42.43792" lon="13.3398783"><ele>1139.0</ele><time>2026-04-04T10:50:40.028Z</time></trkpt><trkpt lat="42.437825" lon="13.3398333"><ele>1138.0</ele><time>2026-04-04T10:50:41.028Z</time></trkpt><trkpt lat="42.4377283" lon="13.3398633"><ele>1137.0</ele><time>2026-04-04T10:50:42.028Z</time></trkpt><trkpt lat="42.4376383" lon="13.3399433"><ele>1136.0</ele><time>2026-04-04T10:50:43.028Z</time></trkpt><trkpt lat="42.43757" lon="13.3400617"><ele>1135.0</ele><time>2026-04-04T10:50:44.028Z</time></trkpt><trkpt lat="42.4375183" lon="13.340185"><ele>1135.0</ele><time>2026-04-04T10:50:45.028Z</time></trkpt><trkpt lat="42.437495" lon="13.3403183"><ele>1135.0</ele><time>2026-04-04T10:50:46.028Z</time></trkpt><trkpt lat="42.4375017" lon="13.3404567"><ele>1135.0</ele><time>2026-04-04T10:50:47.028Z</time></trkpt><trkpt lat="42.4375417" lon="13.3405833"><ele>1135.0</ele><time>2026-04-04T10:50:48.028Z</time></trkpt><trkpt lat="42.4376033" lon="13.340705"><ele>1135.0</ele><time>2026-04-04T10:50:49.027Z</time></trkpt><trkpt lat="42.437675" lon="13.34083"><ele>1133.5</ele><time>2026-04-04T10:50:50.028Z</time></trkpt><trkpt lat="42.4377583" lon="13.3409633"><ele>1132.0</ele><time>2026-04-04T10:50:51.028Z</time></trkpt><trkpt lat="42.4378383" lon="13.3411017"><ele>1130.5</ele><time>2026-04-04T10:50:52.028Z</time></trkpt><trkpt lat="42.43791" lon="13.341245"><ele>1129.0</ele><time>2026-04-04T10:50:53.028Z</time></trkpt><trkpt lat="42.43798" lon="13.3413983"><ele>1136.25</ele><time>2026-04-04T10:50:54.028Z</time></trkpt><trkpt lat="42.43804" lon="13.3415433"><ele>1143.5</ele><time>2026-04-04T10:50:55.028Z</time></trkpt><trkpt lat="42.4380933" lon="13.34168"><ele>1150.75</ele><time>2026-04-04T10:50:56.028Z</time></trkpt><trkpt lat="42.4381233" lon="13.3418267"><ele>1158.0</ele><time>2026-04-04T10:50:57.028Z</time></trkpt><trkpt lat="42.438135" lon="13.3419667"><ele>1158.0</ele><time>2026-04-04T10:50:58.028Z</time></trkpt><trkpt lat="42.43813" lon="13.3420983"><ele>1158.0</ele><time>2026-04-04T10:50:59.028Z</time></trkpt><trkpt lat="42.438085" lon="13.3422333"><ele>1158.0</ele><time>2026-04-04T10:51:00.028Z</time></trkpt><trkpt lat="42.4380167" lon="13.3423367"><ele>1158.0</ele><time>2026-04-04T10:51:01.027Z</time></trkpt><trkpt lat="42.4379133" lon="13.3424083"><ele>1158.0</ele><time>2026-04-04T10:51:02.028Z</time></trkpt><trkpt lat="42.4378033" lon="13.3424717"><ele>1149.8</ele><time>2026-04-04T10:51:03.028Z</time></trkpt><trkpt lat="42.4376983" lon="13.3425417"><ele>1141.6</ele><time>2026-04-04T10:51:04.028Z</time></trkpt><trkpt lat="42.43763" lon="13.342645"><ele>1133.4</ele><time>2026-04-04T10:51:05.028Z</time></trkpt><trkpt lat="42.4376" lon="13.3427883"><ele>1125.2</ele><time>2026-04-04T10:51:06.028Z</time></trkpt><trkpt lat="42.4376" lon="13.3429383"><ele>1117.0</ele><time>2026-04-04T10:51:07.028Z</time></trkpt><trkpt lat="42.4376133" lon="13.34311"><ele>1117.0</ele><time>2026-04-04T10:51:08.028Z</time></trkpt><trkpt lat="42.4376183" lon="13.3432917"><ele>1117.0</ele><time>2026-04-04T10:51:09.028Z</time></trkpt><trkpt lat="42.437625" lon="13.3434867"><ele>1117.0</ele><time>2026-04-04T10:51:10.027Z</time></trkpt><trkpt lat="42.4376133" lon="13.3436783"><ele>1117.0</ele><time>2026-04-04T10:51:11.028Z</time></trkpt><trkpt lat="42.4375883" lon="13.3438617"><ele>1116.75</ele><time>2026-04-04T10:51:12.028Z</time></trkpt><trkpt lat="42.4375667" lon="13.34403"><ele>1116.5</ele><time>2026-04-04T10:51:13.028Z</time></trkpt><trkpt lat="42.4375617" lon="13.3442133"><ele>1116.25</ele><time>2026-04-04T10:51:14.028Z</time></trkpt><trkpt lat="42.4375783" lon="13.344375"><ele>1116.0</ele><time>2026-04-04T10:51:15.028Z</time></trkpt><trkpt lat="42.4376233" lon="13.3445367"><ele>1116.0</ele><time>2026-04-04T10:51:16.028Z</time></trkpt><trkpt lat="42.4376633" lon="13.3447"><ele>1116.0</ele><time>2026-04-04T10:51:17.028Z</time></trkpt><trkpt lat="42.4377033" lon="13.34486"><ele>1116.0</ele><time>2026-04-04T10:51:18.028Z</time></trkpt><trkpt lat="42.4377433" lon="13.3450317"><ele>1116.0</ele><time>2026-04-04T10:51:19.028Z</time></trkpt><trkpt lat="42.4377917" lon="13.3452017"><ele>1114.5</ele><time>2026-04-04T10:51:20.028Z</time></trkpt><trkpt lat="42.4378533" lon="13.3453683"><ele>1113.0</ele><time>2026-04-04T10:51:21.028Z</time></trkpt><trkpt lat="42.437915" lon="13.3455267"><ele>1111.5</ele><time>2026-04-04T10:51:22.028Z</time></trkpt><trkpt lat="42.43798" lon="13.3456617"><ele>1110.0</ele><time>2026-04-04T10:51:23.028Z</time></trkpt><trkpt lat="42.43803" lon="13.3457967"><ele>1113.1666666666667</ele><time>2026-04-04T10:51:24.028Z</time></trkpt><trkpt lat="42.438075" lon="13.3459267"><ele>1116.3333333333333</ele><time>2026-04-04T10:51:25.028Z</time></trkpt><trkpt lat="42.4380983" lon="13.34604"><ele>1119.5</ele><time>2026-04-04T10:51:26.028Z</time></trkpt><trkpt lat="42.4380733" lon="13.3461333"><ele>1122.6666666666665</ele><time>2026-04-04T10:51:27.028Z</time></trkpt><trkpt lat="42.4380383" lon="13.346235"><ele>1125.8333333333333</ele><time>2026-04-04T10:51:28.028Z</time></trkpt><trkpt lat="42.4379917" lon="13.34632"><ele>1129.0</ele><time>2026-04-04T10:51:29.028Z</time></trkpt><trkpt lat="42.4379117" lon="13.3463983"><ele>1129.0</ele><time>2026-04-04T10:51:30.028Z</time></trkpt><trkpt lat="42.437805" lon="13.34646"><ele>1129.0</ele><time>2026-04-04T10:51:31.028Z</time></trkpt><trkpt lat="42.4376817" lon="13.346505"><ele>1129.0</ele><time>2026-04-04T10:51:32.028Z</time></trkpt><trkpt lat="42.4375367" lon="13.3465117"><ele>1129.0</ele><time>2026-04-04T10:51:33.028Z</time></trkpt><trkpt lat="42.4373983" lon="13.346495"><ele>1129.0</ele><time>2026-04-04T10:51:34.028Z</time></trkpt><trkpt lat="42.4372467" lon="13.3464667"><ele>1129.0</ele><time>2026-04-04T10:51:35.028Z</time></trkpt><trkpt lat="42.4371133" lon="13.3464233"><ele>1129.0</ele><time>2026-04-04T10:51:36.028Z</time></trkpt><trkpt lat="42.4369817" lon="13.3463833"><ele>1129.0</ele><time>2026-04-04T10:51:37.028Z</time></trkpt><trkpt lat="42.43686" lon="13.3463567"><ele>1125.5</ele><time>2026-04-04T10:51:38.028Z</time></trkpt><trkpt lat="42.4367333" lon="13.346355"><ele>1122.0</ele><time>2026-04-04T10:51:39.028Z</time></trkpt><trkpt lat="42.4366033" lon="13.3464217"><ele>1118.5</ele><time>2026-04-04T10:51:40.027Z</time></trkpt><trkpt lat="42.43647" lon="13.34652"><ele>1115.0</ele><time>2026-04-04T10:51:41.028Z</time></trkpt><trkpt lat="42.43635" lon="13.3466117"><ele>1109.75</ele><time>2026-04-04T10:51:42.028Z</time></trkpt><trkpt lat="42.4362317" lon="13.34671"><ele>1104.5</ele><time>2026-04-04T10:51:43.028Z</time></trkpt><trkpt lat="42.43611" lon="13.3468"><ele>1099.25</ele><time>2026-04-04T10:51:44.028Z</time></trkpt><trkpt lat="42.4360017" lon="13.3469067"><ele>1094.0</ele><time>2026-04-04T10:51:45.028Z</time></trkpt><trkpt lat="42.4358717" lon="13.34699"><ele>1094.0</ele><time>2026-04-04T10:51:46.028Z</time></trkpt><trkpt lat="42.4357467" lon="13.34707"><ele>1094.0</ele><time>2026-04-04T10:51:47.028Z</time></trkpt><trkpt lat="42.4356417" lon="13.3471583"><ele>1094.0</ele><time>2026-04-04T10:51:48.028Z</time></trkpt><trkpt lat="42.4355233" lon="13.34723"><ele>1094.0</ele><time>2026-04-04T10:51:49.028Z</time></trkpt><trkpt lat="42.4354083" lon="13.3472833"><ele>1098.4</ele><time>2026-04-04T10:51:50.028Z</time></trkpt><trkpt lat="42.4352883" lon="13.3473"><ele>1102.8000000000002</ele><time>2026-04-04T10:51:51.028Z</time></trkpt><trkpt lat="42.4352017" lon="13.3472817"><ele>1107.1999999999998</ele><time>2026-04-04T10:51:52.028Z</time></trkpt><trkpt lat="42.435135" lon="13.3472167"><ele>1111.6</ele><time>2026-04-04T10:51:53.027Z</time></trkpt><trkpt lat="42.4350983" lon="13.347095"><ele>1116.0</ele><time>2026-04-04T10:51:54.028Z</time></trkpt><trkpt lat="42.4350633" lon="13.346945"><ele>1116.0</ele><time>2026-04-04T10:51:55.028Z</time></trkpt><trkpt lat="42.4350583" lon="13.3467917"><ele>1116.0</ele><time>2026-04-04T10:51:56.028Z</time></trkpt><trkpt lat="42.4350617" lon="13.3466267"><ele>1116.0</ele><time>2026-04-04T10:51:57.028Z</time></trkpt><trkpt lat="42.435055" lon="13.3464483"><ele>1116.0</ele><time>2026-04-04T10:51:58.028Z</time></trkpt><trkpt lat="42.4350417" lon="13.3462683"><ele>1114.0</ele><time>2026-04-04T10:51:59.028Z</time></trkpt><trkpt lat="42.4350317" lon="13.34608"><ele>1112.0</ele><time>2026-04-04T10:52:00.028Z</time></trkpt><trkpt lat="42.4350467" lon="13.3458917"><ele>1110.0</ele><time>2026-04-04T10:52:01.028Z</time></trkpt><trkpt lat="42.4350617" lon="13.34571"><ele>1108.0</ele><time>2026-04-04T10:52:02.028Z</time></trkpt><trkpt lat="42.4350817" lon="13.3455233"><ele>1105.25</ele><time>2026-04-04T10:52:03.028Z</time></trkpt><trkpt lat="42.43508" lon="13.3453483"><ele>1102.5</ele><time>2026-04-04T10:52:04.028Z</time></trkpt><trkpt lat="42.4350733" lon="13.3451733"><ele>1099.75</ele><time>2026-04-04T10:52:05.028Z</time></trkpt><trkpt lat="42.4350667" lon="13.3450017"><ele>1097.0</ele><time>2026-04-04T10:52:06.028Z</time></trkpt><trkpt lat="42.43504" lon="13.3448433"><ele>1092.75</ele><time>2026-04-04T10:52:07.028Z</time></trkpt><trkpt lat="42.4349967" lon="13.3447117"><ele>1088.5</ele><time>2026-04-04T10:52:08.028Z</time></trkpt><trkpt lat="42.434935" lon="13.34458"><ele>1084.25</ele><time>2026-04-04T10:52:09.028Z</time></trkpt><trkpt lat="42.4348533" lon="13.344465"><ele>1080.0</ele><time>2026-04-04T10:52:10.028Z</time></trkpt><trkpt lat="42.43475" lon="13.3443467"><ele>1085.25</ele><time>2026-04-04T10:52:11.028Z</time></trkpt><trkpt lat="42.434635" lon="13.3442333"><ele>1090.5</ele><time>2026-04-04T10:52:12.028Z</time></trkpt><trkpt lat="42.434505" lon="13.3441217"><ele>1095.75</ele><time>2026-04-04T10:52:13.028Z</time></trkpt><trkpt lat="42.43438" lon="13.3440167"><ele>1101.0</ele><time>2026-04-04T10:52:14.027Z</time></trkpt><trkpt lat="42.43426" lon="13.3439033"><ele>1101.0</ele><time>2026-04-04T10:52:15.028Z</time></trkpt><trkpt lat="42.43426" lon="13.3439033"><ele>1101.0</ele><time>2026-04-04T10:52:15.028Z</time></trkpt><trkpt lat="42.433425" lon="13.343135"><ele>1084.5</ele><time>2026-04-04T10:52:21.028Z</time></trkpt><trkpt lat="42.4332817" lon="13.3430267"><ele>1068.0</ele><time>2026-04-04T10:52:22.028Z</time></trkpt><trkpt lat="42.43301" lon="13.3427683"><ele>1073.3333333333333</ele><time>2026-04-04T10:52:24.028Z</time></trkpt><trkpt lat="42.4328783" lon="13.342625"><ele>1078.6666666666665</ele><time>2026-04-04T10:52:25.028Z</time></trkpt><trkpt lat="42.4327367" lon="13.3425067"><ele>1084.0</ele><time>2026-04-04T10:52:26.028Z</time></trkpt><trkpt lat="42.432595" lon="13.342395"><ele>1084.0</ele><time>2026-04-04T10:52:27.028Z</time></trkpt><trkpt lat="42.4324633" lon="13.3422767"><ele>1084.0</ele><time>2026-04-04T10:52:28.028Z</time></trkpt><trkpt lat="42.432335" lon="13.34218"><ele>1084.0</ele><time>2026-04-04T10:52:29.028Z</time></trkpt><trkpt lat="42.4322067" lon="13.3420933"><ele>1084.0</ele><time>2026-04-04T10:52:30.028Z</time></trkpt><trkpt lat="42.4320817" lon="13.3419967"><ele>1080.5</ele><time>2026-04-04T10:52:31.028Z</time></trkpt><trkpt lat="42.4319617" lon="13.3419067"><ele>1077.0</ele><time>2026-04-04T10:52:32.028Z</time></trkpt><trkpt lat="42.4318367" lon="13.3418267"><ele>1073.5</ele><time>2026-04-04T10:52:33.028Z</time></trkpt><trkpt lat="42.4317033" lon="13.341775"><ele>1070.0</ele><time>2026-04-04T10:52:34.028Z</time></trkpt><trkpt lat="42.431575" lon="13.3417433"><ele>1070.0</ele><time>2026-04-04T10:52:35.028Z</time></trkpt><trkpt lat="42.4314417" lon="13.34174"><ele>1070.0</ele><time>2026-04-04T10:52:36.028Z</time></trkpt><trkpt lat="42.4313083" lon="13.341735"><ele>1070.0</ele><time>2026-04-04T10:52:37.028Z</time></trkpt><trkpt lat="42.4311683" lon="13.3417417"><ele>1070.0</ele><time>2026-04-04T10:52:38.028Z</time></trkpt><trkpt lat="42.4310283" lon="13.3417233"><ele>1070.75</ele><time>2026-04-04T10:52:39.027Z</time></trkpt><trkpt lat="42.4308917" lon="13.341705"><ele>1071.5</ele><time>2026-04-04T10:52:40.028Z</time></trkpt><trkpt lat="42.4307617" lon="13.3416683"><ele>1072.25</ele><time>2026-04-04T10:52:41.028Z</time></trkpt><trkpt lat="42.4306133" lon="13.3416267"><ele>1073.0</ele><time>2026-04-04T10:52:42.028Z</time></trkpt><trkpt lat="42.4304683" lon="13.341575"><ele>1076.0</ele><time>2026-04-04T10:52:43.028Z</time></trkpt><trkpt lat="42.4303167" lon="13.34154"><ele>1079.0</ele><time>2026-04-04T10:52:44.028Z</time></trkpt><trkpt lat="42.430185" lon="13.3414517"><ele>1082.0</ele><time>2026-04-04T10:52:45.028Z</time></trkpt><trkpt lat="42.4300517" lon="13.3413517"><ele>1074.0</ele><time>2026-04-04T10:52:46.028Z</time></trkpt><trkpt lat="42.429925" lon="13.3412467"><ele>1066.0</ele><time>2026-04-04T10:52:47.028Z</time></trkpt><trkpt lat="42.42979" lon="13.3411533"><ele>1058.0</ele><time>2026-04-04T10:52:48.028Z</time></trkpt><trkpt lat="42.4296517" lon="13.34109"><ele>1050.0</ele><time>2026-04-04T10:52:49.028Z</time></trkpt><trkpt lat="42.4295367" lon="13.3410333"><ele>1048.2</ele><time>2026-04-04T10:52:50.028Z</time></trkpt><trkpt lat="42.4294283" lon="13.34099"><ele>1046.4</ele><time>2026-04-04T10:52:51.028Z</time></trkpt><trkpt lat="42.42932" lon="13.3410017"><ele>1044.6</ele><time>2026-04-04T10:52:52.028Z</time></trkpt><trkpt lat="42.4292267" lon="13.3410533"><ele>1042.8</ele><time>2026-04-04T10:52:53.028Z</time></trkpt><trkpt lat="42.4291283" lon="13.341115"><ele>1041.0</ele><time>2026-04-04T10:52:54.027Z</time></trkpt><trkpt lat="42.429035" lon="13.34117"><ele>1041.0</ele><time>2026-04-04T10:52:55.028Z</time></trkpt><trkpt lat="42.4289233" lon="13.3411883"><ele>1041.0</ele><time>2026-04-04T10:52:56.028Z</time></trkpt><trkpt lat="42.428805" lon="13.3412117"><ele>1041.0</ele><time>2026-04-04T10:52:57.028Z</time></trkpt><trkpt lat="42.4286967" lon="13.3412717"><ele>1041.0</ele><time>2026-04-04T10:52:58.028Z</time></trkpt><trkpt lat="42.428615" lon="13.3413767"><ele>1037.25</ele><time>2026-04-04T10:52:59.028Z</time></trkpt><trkpt lat="42.42857" lon="13.3415167"><ele>1033.5</ele><time>2026-04-04T10:53:00.028Z</time></trkpt><trkpt lat="42.4285583" lon="13.34169"><ele>1029.75</ele><time>2026-04-04T10:53:01.028Z</time></trkpt><trkpt lat="42.428545" lon="13.3418833"><ele>1026.0</ele><time>2026-04-04T10:53:02.028Z</time></trkpt><trkpt lat="42.4285483" lon="13.342065"><ele>1025.25</ele><time>2026-04-04T10:53:03.028Z</time></trkpt><trkpt lat="42.4285683" lon="13.342255"><ele>1024.5</ele><time>2026-04-04T10:53:04.028Z</time></trkpt><trkpt lat="42.42861" lon="13.34244"><ele>1023.75</ele><time>2026-04-04T10:53:05.028Z</time></trkpt><trkpt lat="42.428625" lon="13.3426217"><ele>1023.0</ele><time>2026-04-04T10:53:06.028Z</time></trkpt><trkpt lat="42.4286383" lon="13.3427883"><ele>1023.0</ele><time>2026-04-04T10:53:07.028Z</time></trkpt><trkpt lat="42.4286617" lon="13.34294"><ele>1023.0</ele><time>2026-04-04T10:53:08.028Z</time></trkpt><trkpt lat="42.4286533" lon="13.3431233"><ele>1023.0</ele><time>2026-04-04T10:53:09.027Z</time></trkpt><trkpt lat="42.4286333" lon="13.3433"><ele>1023.0</ele><time>2026-04-04T10:53:10.028Z</time></trkpt><trkpt lat="42.4286133" lon="13.3434767"><ele>1023.25</ele><time>2026-04-04T10:53:11.027Z</time></trkpt><trkpt lat="42.428585" lon="13.3436633"><ele>1023.5</ele><time>2026-04-04T10:53:12.028Z</time></trkpt><trkpt lat="42.4286" lon="13.3438667"><ele>1023.75</ele><time>2026-04-04T10:53:13.028Z</time></trkpt><trkpt lat="42.42864" lon="13.3440617"><ele>1024.0</ele><time>2026-04-04T10:53:14.028Z</time></trkpt><trkpt lat="42.4286733" lon="13.3442567"><ele>1024.0</ele><time>2026-04-04T10:53:15.028Z</time></trkpt><trkpt lat="42.4287" lon="13.3444433"><ele>1024.0</ele><time>2026-04-04T10:53:16.028Z</time></trkpt><trkpt lat="42.4287317" lon="13.3446183"><ele>1024.0</ele><time>2026-04-04T10:53:17.028Z</time></trkpt><trkpt lat="42.428745" lon="13.3447817"><ele>1024.0</ele><time>2026-04-04T10:53:18.028Z</time></trkpt><trkpt lat="42.4287517" lon="13.34496"><ele>1022.5</ele><time>2026-04-04T10:53:19.028Z</time></trkpt><trkpt lat="42.4287717" lon="13.34513"><ele>1021.0</ele><time>2026-04-04T10:53:20.028Z</time></trkpt><trkpt lat="42.4287967" lon="13.3453067"><ele>1019.5</ele><time>2026-04-04T10:53:21.028Z</time></trkpt><trkpt lat="42.42881" lon="13.3454767"><ele>1018.0</ele><time>2026-04-04T10:53:22.028Z</time></trkpt><trkpt lat="42.4288167" lon="13.345635"><ele>1020.25</ele><time>2026-04-04T10:53:23.028Z</time></trkpt><trkpt lat="42.4287967" lon="13.3457633"><ele>1022.5</ele><time>2026-04-04T10:53:24.028Z</time></trkpt><trkpt lat="42.42873" lon="13.3458667"><ele>1024.75</ele><time>2026-04-04T10:53:25.028Z</time></trkpt><trkpt lat="42.4286383" lon="13.3459433"><ele>1027.0</ele><time>2026-04-04T10:53:26.028Z</time></trkpt><trkpt lat="42.4284933" lon="13.34598"><ele>1027.0</ele><time>2026-04-04T10:53:27.028Z</time></trkpt><trkpt lat="42.42836" lon="13.3459833"><ele>1027.0</ele><time>2026-04-04T10:53:28.028Z</time></trkpt><trkpt lat="42.4282233" lon="13.3459717"><ele>1027.0</ele><time>2026-04-04T10:53:29.028Z</time></trkpt><trkpt lat="42.4281033" lon="13.3459667"><ele>1027.0</ele><time>2026-04-04T10:53:30.028Z</time></trkpt><trkpt lat="42.427985" lon="13.3459717"><ele>1025.25</ele><time>2026-04-04T10:53:31.028Z</time></trkpt><trkpt lat="42.4278683" lon="13.3460183"><ele>1023.5</ele><time>2026-04-04T10:53:32.028Z</time></trkpt><trkpt lat="42.427785" lon="13.346125"><ele>1021.75</ele><time>2026-04-04T10:53:33.028Z</time></trkpt><trkpt lat="42.4277267" lon="13.3462717"><ele>1020.0</ele><time>2026-04-04T10:53:34.028Z</time></trkpt><trkpt lat="42.4276767" lon="13.34644"><ele>1020.0</ele><time>2026-04-04T10:53:35.028Z</time></trkpt><trkpt lat="42.4276317" lon="13.3465917"><ele>1020.0</ele><time>2026-04-04T10:53:36.028Z</time></trkpt><trkpt lat="42.4275833" lon="13.3467517"><ele>1020.0</ele><time>2026-04-04T10:53:37.028Z</time></trkpt><trkpt lat="42.4275683" lon="13.34691"><ele>1020.0</ele><time>2026-04-04T10:53:38.028Z</time></trkpt><trkpt lat="42.4276033" lon="13.3470467"><ele>1020.0</ele><time>2026-04-04T10:53:39.027Z</time></trkpt><trkpt lat="42.427655" lon="13.34716"><ele>1020.0</ele><time>2026-04-04T10:53:40.028Z</time></trkpt><trkpt lat="42.4276883" lon="13.34727"><ele>1020.0</ele><time>2026-04-04T10:53:41.028Z</time></trkpt><trkpt lat="42.427695" lon="13.3473817"><ele>1020.0</ele><time>2026-04-04T10:53:42.028Z</time></trkpt><trkpt lat="42.4276583" lon="13.3474933"><ele>1020.0</ele><time>2026-04-04T10:53:43.028Z</time></trkpt><trkpt lat="42.42761" lon="13.3475967"><ele>1020.0</ele><time>2026-04-04T10:53:44.028Z</time></trkpt><trkpt lat="42.4275267" lon="13.3476967"><ele>1021.5</ele><time>2026-04-04T10:53:45.027Z</time></trkpt><trkpt lat="42.427445" lon="13.3477783"><ele>1023.0</ele><time>2026-04-04T10:53:46.028Z</time></trkpt><trkpt lat="42.4273467" lon="13.3478183"><ele>1024.5</ele><time>2026-04-04T10:53:47.028Z</time></trkpt><trkpt lat="42.4272367" lon="13.3478283"><ele>1026.0</ele><time>2026-04-04T10:53:48.028Z</time></trkpt><trkpt lat="42.427095" lon="13.3477583"><ele>1026.0</ele><time>2026-04-04T10:53:49.028Z</time></trkpt><trkpt lat="42.4269667" lon="13.3476367"><ele>1026.0</ele><time>2026-04-04T10:53:50.028Z</time></trkpt><trkpt lat="42.4268733" lon="13.3475"><ele>1026.0</ele><time>2026-04-04T10:53:51.028Z</time></trkpt><trkpt lat="42.4267967" lon="13.3473433"><ele>1026.0</ele><time>2026-04-04T10:53:52.028Z</time></trkpt><trkpt lat="42.4267267" lon="13.3471867"><ele>1026.0</ele><time>2026-04-04T10:53:53.028Z</time></trkpt><trkpt lat="42.4266783" lon="13.3470317"><ele>1026.0</ele><time>2026-04-04T10:53:54.028Z</time></trkpt><trkpt lat="42.4266333" lon="13.3468833"><ele>1026.0</ele><time>2026-04-04T10:53:55.028Z</time></trkpt><trkpt lat="42.4265817" lon="13.3467333"><ele>1026.0</ele><time>2026-04-04T10:53:56.028Z</time></trkpt><trkpt lat="42.4265417" lon="13.3465733"><ele>1026.0</ele><time>2026-04-04T10:53:57.028Z</time></trkpt><trkpt lat="42.42651" lon="13.3464067"><ele>1026.0</ele><time>2026-04-04T10:53:58.027Z</time></trkpt><trkpt lat="42.4264683" lon="13.3462433"><ele>1026.0</ele><time>2026-04-04T10:53:59.028Z</time></trkpt><trkpt lat="42.42642" lon="13.3460683"><ele>1026.0</ele><time>2026-04-04T10:54:00.028Z</time></trkpt><trkpt lat="42.42636" lon="13.3458917"><ele>1023.75</ele><time>2026-04-04T10:54:01.028Z</time></trkpt><trkpt lat="42.4262917" lon="13.345705"><ele>1021.5</ele><time>2026-04-04T10:54:02.028Z</time></trkpt><trkpt lat="42.42623" lon="13.3455583"><ele>1019.25</ele><time>2026-04-04T10:54:03.028Z</time></trkpt><trkpt lat="42.4261417" lon="13.3454183"><ele>1017.0</ele><time>2026-04-04T10:54:04.028Z</time></trkpt><trkpt lat="42.4260467" lon="13.345295"><ele>1017.0</ele><time>2026-04-04T10:54:05.028Z</time></trkpt><trkpt lat="42.4259283" lon="13.34521"><ele>1017.0</ele><time>2026-04-04T10:54:06.028Z</time></trkpt><trkpt lat="42.4258167" lon="13.3451167"><ele>1017.0</ele><time>2026-04-04T10:54:07.028Z</time></trkpt><trkpt lat="42.42572" lon="13.34498"><ele>1017.0</ele><time>2026-04-04T10:54:08.028Z</time></trkpt><trkpt lat="42.4256317" lon="13.3448217"><ele>1013.75</ele><time>2026-04-04T10:54:09.028Z</time></trkpt><trkpt lat="42.4255433" lon="13.3446633"><ele>1010.5</ele><time>2026-04-04T10:54:10.028Z</time></trkpt><trkpt lat="42.4254467" lon="13.3445183"><ele>1007.25</ele><time>2026-04-04T10:54:11.027Z</time></trkpt><trkpt lat="42.4253533" lon="13.3444017"><ele>1004.0</ele><time>2026-04-04T10:54:12.028Z</time></trkpt><trkpt lat="42.4252417" lon="13.3443183"><ele>1004.0</ele><time>2026-04-04T10:54:13.028Z</time></trkpt><trkpt lat="42.4251017" lon="13.3442667"><ele>1004.0</ele><time>2026-04-04T10:54:14.028Z</time></trkpt><trkpt lat="42.4249617" lon="13.3442233"><ele>1004.0</ele><time>2026-04-04T10:54:15.028Z</time></trkpt><trkpt lat="42.4248333" lon="13.3442033"><ele>1004.0</ele><time>2026-04-04T10:54:16.028Z</time></trkpt><trkpt lat="42.4247017" lon="13.34422"><ele>1001.0</ele><time>2026-04-04T10:54:17.028Z</time></trkpt><trkpt lat="42.4245767" lon="13.3442733"><ele>998.0</ele><time>2026-04-04T10:54:18.028Z</time></trkpt><trkpt lat="42.4244617" lon="13.3443417"><ele>995.0</ele><time>2026-04-04T10:54:19.028Z</time></trkpt><trkpt lat="42.42436" lon="13.3444117"><ele>992.0</ele><time>2026-04-04T10:54:20.028Z</time></trkpt><trkpt lat="42.424265" lon="13.3445083"><ele>992.0</ele><time>2026-04-04T10:54:21.028Z</time></trkpt><trkpt lat="42.4241717" lon="13.3446217"><ele>992.0</ele><time>2026-04-04T10:54:22.028Z</time></trkpt><trkpt lat="42.4241017" lon="13.3447617"><ele>992.0</ele><time>2026-04-04T10:54:23.028Z</time></trkpt><trkpt lat="42.4240567" lon="13.3449083"><ele>992.0</ele><time>2026-04-04T10:54:24.028Z</time></trkpt><trkpt lat="42.42401" lon="13.3450433"><ele>989.2</ele><time>2026-04-04T10:54:25.028Z</time></trkpt><trkpt lat="42.4239383" lon="13.3451667"><ele>986.4000000000001</ele><time>2026-04-04T10:54:26.028Z</time></trkpt><trkpt lat="42.4238667" lon="13.3452483"><ele>983.5999999999999</ele><time>2026-04-04T10:54:27.028Z</time></trkpt><trkpt lat="42.4237717" lon="13.3452967"><ele>980.8</ele><time>2026-04-04T10:54:28.028Z</time></trkpt><trkpt lat="42.4236467" lon="13.345305"><ele>978.0</ele><time>2026-04-04T10:54:29.028Z</time></trkpt><trkpt lat="42.4235417" lon="13.34529"><ele>978.0</ele><time>2026-04-04T10:54:30.028Z</time></trkpt><trkpt lat="42.4234533" lon="13.3452833"><ele>978.0</ele><time>2026-04-04T10:54:31.028Z</time></trkpt><trkpt lat="42.4233667" lon="13.3453133"><ele>978.0</ele><time>2026-04-04T10:54:32.028Z</time></trkpt><trkpt lat="42.4232817" lon="13.3453667"><ele>978.0</ele><time>2026-04-04T10:54:33.028Z</time></trkpt><trkpt lat="42.4232217" lon="13.34545"><ele>978.0</ele><time>2026-04-04T10:54:34.028Z</time></trkpt><trkpt lat="42.423195" lon="13.345565"><ele>978.0</ele><time>2026-04-04T10:54:35.028Z</time></trkpt><trkpt lat="42.4231783" lon="13.3457"><ele>981.2</ele><time>2026-04-04T10:54:36.028Z</time></trkpt><trkpt lat="42.423175" lon="13.3458683"><ele>984.4</ele><time>2026-04-04T10:54:37.028Z</time></trkpt><trkpt lat="42.4231717" lon="13.34602"><ele>987.6000000000001</ele><time>2026-04-04T10:54:38.028Z</time></trkpt><trkpt lat="42.4231633" lon="13.3461667"><ele>990.8000000000001</ele><time>2026-04-04T10:54:39.028Z</time></trkpt><trkpt lat="42.42315" lon="13.3463033"><ele>994.0</ele><time>2026-04-04T10:54:40.028Z</time></trkpt><trkpt lat="42.4231483" lon="13.346455"><ele>994.0</ele><time>2026-04-04T10:54:41.028Z</time></trkpt><trkpt lat="42.4231533" lon="13.346595"><ele>994.0000000000001</ele><time>2026-04-04T10:54:42.028Z</time></trkpt><trkpt lat="42.4231933" lon="13.3467283"><ele>994.0000000000001</ele><time>2026-04-04T10:54:43.028Z</time></trkpt><trkpt lat="42.4232617" lon="13.346845"><ele>994.0</ele><time>2026-04-04T10:54:44.028Z</time></trkpt><trkpt lat="42.4233717" lon="13.3469383"><ele>994.0</ele><time>2026-04-04T10:54:45.028Z</time></trkpt><trkpt lat="42.4234767" lon="13.3470467"><ele>994.0</ele><time>2026-04-04T10:54:46.028Z</time></trkpt><trkpt lat="42.4235667" lon="13.3471617"><ele>994.0</ele><time>2026-04-04T10:54:47.027Z</time></trkpt><trkpt lat="42.4236567" lon="13.3472833"><ele>994.0</ele><time>2026-04-04T10:54:48.028Z</time></trkpt><trkpt lat="42.4237517" lon="13.3473967"><ele>994.0</ele><time>2026-04-04T10:54:49.028Z</time></trkpt><trkpt lat="42.4238417" lon="13.3475117"><ele>991.75</ele><time>2026-04-04T10:54:50.028Z</time></trkpt><trkpt lat="42.4239233" lon="13.3476317"><ele>989.5</ele><time>2026-04-04T10:54:51.028Z</time></trkpt><trkpt lat="42.4239983" lon="13.3477733"><ele>987.25</ele><time>2026-04-04T10:54:52.028Z</time></trkpt><trkpt lat="42.424055" lon="13.3479383"><ele>985.0</ele><time>2026-04-04T10:54:53.028Z</time></trkpt><trkpt lat="42.4241083" lon="13.3481033"><ele>985.0</ele><time>2026-04-04T10:54:54.028Z</time></trkpt><trkpt lat="42.424165" lon="13.3482633"><ele>985.0</ele><time>2026-04-04T10:54:55.028Z</time></trkpt><trkpt lat="42.42421" lon="13.3484117"><ele>985.0</ele><time>2026-04-04T10:54:56.028Z</time></trkpt><trkpt lat="42.4242567" lon="13.3485483"><ele>985.0</ele><time>2026-04-04T10:54:57.028Z</time></trkpt><trkpt lat="42.4243083" lon="13.3486817"><ele>985.0</ele><time>2026-04-04T10:54:58.028Z</time></trkpt><trkpt lat="42.4243717" lon="13.3487867"><ele>985.0</ele><time>2026-04-04T10:54:59.028Z</time></trkpt><trkpt lat="42.42442" lon="13.3488867"><ele>985.0</ele><time>2026-04-04T10:55:00.028Z</time></trkpt><trkpt lat="42.4244567" lon="13.3489717"><ele>985.0</ele><time>2026-04-04T10:55:01.028Z</time></trkpt><trkpt lat="42.4244683" lon="13.3491083"><ele>985.0</ele><time>2026-04-04T10:55:03.028Z</time></trkpt><trkpt lat="42.424415" lon="13.3492267"><ele>984.3333333333333</ele><time>2026-04-04T10:55:05.028Z</time></trkpt><trkpt lat="42.42438" lon="13.3493067"><ele>983.6666666666666</ele><time>2026-04-04T10:55:06.028Z</time></trkpt><trkpt lat="42.4243233" lon="13.3493617"><ele>983.0</ele><time>2026-04-04T10:55:07.028Z</time></trkpt><trkpt lat="42.42425" lon="13.3493933"><ele>982.3333333333333</ele><time>2026-04-04T10:55:08.028Z</time></trkpt><trkpt lat="42.424165" lon="13.3494167"><ele>981.6666666666666</ele><time>2026-04-04T10:55:09.028Z</time></trkpt><trkpt lat="42.4240717" lon="13.3494"><ele>981.0</ele><time>2026-04-04T10:55:10.028Z</time></trkpt><trkpt lat="42.423975" lon="13.34935"><ele>981.0</ele><time>2026-04-04T10:55:11.028Z</time></trkpt><trkpt lat="42.4238717" lon="13.3492967"><ele>980.9999999999999</ele><time>2026-04-04T10:55:12.028Z</time></trkpt><trkpt lat="42.4237683" lon="13.3492533"><ele>980.9999999999999</ele><time>2026-04-04T10:55:13.028Z</time></trkpt><trkpt lat="42.4236533" lon="13.349225"><ele>981.0</ele><time>2026-04-04T10:55:14.028Z</time></trkpt><trkpt lat="42.4235467" lon="13.3491967"><ele>981.0</ele><time>2026-04-04T10:55:15.028Z</time></trkpt><trkpt lat="42.4234483" lon="13.3491667"><ele>979.5999999999999</ele><time>2026-04-04T10:55:16.028Z</time></trkpt><trkpt lat="42.423355" lon="13.3491267"><ele>978.1999999999999</ele><time>2026-04-04T10:55:17.028Z</time></trkpt><trkpt lat="42.4232567" lon="13.34909"><ele>976.8000000000001</ele><time>2026-04-04T10:55:18.028Z</time></trkpt><trkpt lat="42.4231567" lon="13.3490617"><ele>975.4000000000001</ele><time>2026-04-04T10:55:19.028Z</time></trkpt><trkpt lat="42.4230533" lon="13.3490583"><ele>974.0</ele><time>2026-04-04T10:55:20.028Z</time></trkpt><trkpt lat="42.42297" lon="13.3490833"><ele>974.0</ele><time>2026-04-04T10:55:21.028Z</time></trkpt><trkpt lat="42.42289" lon="13.3491367"><ele>974.0000000000001</ele><time>2026-04-04T10:55:22.028Z</time></trkpt><trkpt lat="42.4228117" lon="13.349205"><ele>974.0000000000001</ele><time>2026-04-04T10:55:23.028Z</time></trkpt><trkpt lat="42.4227283" lon="13.349275"><ele>974.0</ele><time>2026-04-04T10:55:24.028Z</time></trkpt><trkpt lat="42.4226367" lon="13.3493067"><ele>974.0</ele><time>2026-04-04T10:55:25.028Z</time></trkpt><trkpt lat="42.4225567" lon="13.3492833"><ele>974.0</ele><time>2026-04-04T10:55:26.028Z</time></trkpt><trkpt lat="42.422475" lon="13.349195"><ele>974.0</ele><time>2026-04-04T10:55:27.028Z</time></trkpt><trkpt lat="42.4224" lon="13.3490967"><ele>974.0</ele><time>2026-04-04T10:55:28.028Z</time></trkpt><trkpt lat="42.4223167" lon="13.3489767"><ele>974.0</ele><time>2026-04-04T10:55:29.028Z</time></trkpt><trkpt lat="42.4222117" lon="13.34882"><ele>970.0</ele><time>2026-04-04T10:55:30.028Z</time></trkpt><trkpt lat="42.4221067" lon="13.3486833"><ele>966.0</ele><time>2026-04-04T10:55:31.028Z</time></trkpt><trkpt lat="42.4219917" lon="13.3485433"><ele>962.0</ele><time>2026-04-04T10:55:32.028Z</time></trkpt><trkpt lat="42.42188" lon="13.3483967"><ele>962.0</ele><time>2026-04-04T10:55:33.028Z</time></trkpt><trkpt lat="42.4217667" lon="13.3482733"><ele>962.0</ele><time>2026-04-04T10:55:34.028Z</time></trkpt><trkpt lat="42.42166" lon="13.3481583"><ele>962.0</ele><time>2026-04-04T10:55:35.028Z</time></trkpt><trkpt lat="42.4215383" lon="13.3480617"><ele>962.0</ele><time>2026-04-04T10:55:36.027Z</time></trkpt><trkpt lat="42.421405" lon="13.347995"><ele>954.25</ele><time>2026-04-04T10:55:37.028Z</time></trkpt><trkpt lat="42.4212617" lon="13.3479383"><ele>946.5</ele><time>2026-04-04T10:55:38.028Z</time></trkpt><trkpt lat="42.4211333" lon="13.347895"><ele>938.75</ele><time>2026-04-04T10:55:39.028Z</time></trkpt><trkpt lat="42.4210067" lon="13.3478933"><ele>931.0</ele><time>2026-04-04T10:55:40.028Z</time></trkpt><trkpt lat="42.4208717" lon="13.34793"><ele>931.0</ele><time>2026-04-04T10:55:41.028Z</time></trkpt><trkpt lat="42.420745" lon="13.3480167"><ele>931.0</ele><time>2026-04-04T10:55:42.028Z</time></trkpt><trkpt lat="42.4206333" lon="13.348155"><ele>931.0</ele><time>2026-04-04T10:55:43.027Z</time></trkpt><trkpt lat="42.4205183" lon="13.3482983"><ele>932.0</ele><time>2026-04-04T10:55:44.028Z</time></trkpt><trkpt lat="42.4204283" lon="13.3484467"><ele>933.0</ele><time>2026-04-04T10:55:45.028Z</time></trkpt><trkpt lat="42.420345" lon="13.3486133"><ele>934.0</ele><time>2026-04-04T10:55:46.028Z</time></trkpt><trkpt lat="42.42025" lon="13.34876"><ele>935.0</ele><time>2026-04-04T10:55:47.028Z</time></trkpt><trkpt lat="42.420125" lon="13.3488867"><ele>932.25</ele><time>2026-04-04T10:55:48.028Z</time></trkpt><trkpt lat="42.4200017" lon="13.3489983"><ele>929.5</ele><time>2026-04-04T10:55:49.028Z</time></trkpt><trkpt lat="42.4198767" lon="13.349085"><ele>926.75</ele><time>2026-04-04T10:55:50.028Z</time></trkpt><trkpt lat="42.41976" lon="13.3491783"><ele>924.0</ele><time>2026-04-04T10:55:51.028Z</time></trkpt><trkpt lat="42.419645" lon="13.349275"><ele>924.0</ele><time>2026-04-04T10:55:52.028Z</time></trkpt><trkpt lat="42.419525" lon="13.3493733"><ele>924.0</ele><time>2026-04-04T10:55:53.028Z</time></trkpt><trkpt lat="42.41942" lon="13.3494933"><ele>924.0</ele><time>2026-04-04T10:55:54.028Z</time></trkpt><trkpt lat="42.41933" lon="13.34964"><ele>924.0</ele><time>2026-04-04T10:55:55.028Z</time></trkpt><trkpt lat="42.4192367" lon="13.3498167"><ele>930.0</ele><time>2026-04-04T10:55:56.028Z</time></trkpt><trkpt lat="42.4191333" lon="13.350005"><ele>936.0</ele><time>2026-04-04T10:55:57.028Z</time></trkpt><trkpt lat="42.41903" lon="13.3501933"><ele>942.0</ele><time>2026-04-04T10:55:58.028Z</time></trkpt><trkpt lat="42.4189333" lon="13.3503783"><ele>947.6666666666667</ele><time>2026-04-04T10:55:59.028Z</time></trkpt><trkpt lat="42.418835" lon="13.3505533"><ele>953.3333333333334</ele><time>2026-04-04T10:56:00.028Z</time></trkpt><trkpt lat="42.4187467" lon="13.3507233"><ele>959.0</ele><time>2026-04-04T10:56:01.028Z</time></trkpt><trkpt lat="42.4186583" lon="13.35089"><ele>947.6666666666667</ele><time>2026-04-04T10:56:02.028Z</time></trkpt><trkpt lat="42.4185633" lon="13.3510567"><ele>936.3333333333333</ele><time>2026-04-04T10:56:03.028Z</time></trkpt><trkpt lat="42.4184583" lon="13.351205"><ele>925.0</ele><time>2026-04-04T10:56:04.028Z</time></trkpt><trkpt lat="42.4183367" lon="13.3513267"><ele>927.5</ele><time>2026-04-04T10:56:05.028Z</time></trkpt><trkpt lat="42.4182117" lon="13.3514383"><ele>930.0</ele><time>2026-04-04T10:56:06.028Z</time></trkpt><trkpt lat="42.4181233" lon="13.3515883"><ele>932.5</ele><time>2026-04-04T10:56:07.028Z</time></trkpt><trkpt lat="42.4180667" lon="13.3517483"><ele>935.0</ele><time>2026-04-04T10:56:08.028Z</time></trkpt><trkpt lat="42.41806" lon="13.3519467"><ele>935.0</ele><time>2026-04-04T10:56:09.028Z</time></trkpt><trkpt lat="42.4180917" lon="13.3521383"><ele>935.0</ele><time>2026-04-04T10:56:10.028Z</time></trkpt><trkpt lat="42.41814" lon="13.3523183"><ele>935.0</ele><time>2026-04-04T10:56:11.028Z</time></trkpt><trkpt lat="42.418185" lon="13.3524833"><ele>935.0</ele><time>2026-04-04T10:56:12.028Z</time></trkpt><trkpt lat="42.418215" lon="13.3526517"><ele>935.5</ele><time>2026-04-04T10:56:13.028Z</time></trkpt><trkpt lat="42.41823" lon="13.3528283"><ele>936.0</ele><time>2026-04-04T10:56:14.028Z</time></trkpt><trkpt lat="42.418225" lon="13.3529917"><ele>936.5</ele><time>2026-04-04T10:56:15.028Z</time></trkpt><trkpt lat="42.4182117" lon="13.3531617"><ele>937.0</ele><time>2026-04-04T10:56:16.028Z</time></trkpt><trkpt lat="42.4182233" lon="13.35333"><ele>934.5</ele><time>2026-04-04T10:56:17.028Z</time></trkpt><trkpt lat="42.4182733" lon="13.353475"><ele>932.0</ele><time>2026-04-04T10:56:18.028Z</time></trkpt><trkpt lat="42.4183767" lon="13.35358"><ele>929.5</ele><time>2026-04-04T10:56:19.028Z</time></trkpt><trkpt lat="42.418505" lon="13.3536433"><ele>927.0</ele><time>2026-04-04T10:56:20.027Z</time></trkpt><trkpt lat="42.4186333" lon="13.3537083"><ele>927.0</ele><time>2026-04-04T10:56:21.028Z</time></trkpt><trkpt lat="42.4187533" lon="13.3538"><ele>927.0</ele><time>2026-04-04T10:56:22.028Z</time></trkpt><trkpt lat="42.41886" lon="13.3539133"><ele>927.0</ele><time>2026-04-04T10:56:23.028Z</time></trkpt><trkpt lat="42.4189583" lon="13.3540367"><ele>927.0</ele><time>2026-04-04T10:56:24.028Z</time></trkpt><trkpt lat="42.4190483" lon="13.35418"><ele>928.6666666666667</ele><time>2026-04-04T10:56:25.028Z</time></trkpt><trkpt lat="42.4191367" lon="13.3543367"><ele>930.3333333333334</ele><time>2026-04-04T10:56:26.028Z</time></trkpt><trkpt lat="42.4192233" lon="13.3545117"><ele>932.0</ele><time>2026-04-04T10:56:27.028Z</time></trkpt><trkpt lat="42.4192967" lon="13.3546867"><ele>927.25</ele><time>2026-04-04T10:56:28.028Z</time></trkpt><trkpt lat="42.419365" lon="13.3548617"><ele>922.5</ele><time>2026-04-04T10:56:29.028Z</time></trkpt><trkpt lat="42.4194267" lon="13.3550417"><ele>917.75</ele><time>2026-04-04T10:56:30.028Z</time></trkpt><trkpt lat="42.419505" lon="13.355205"><ele>913.0</ele><time>2026-04-04T10:56:31.028Z</time></trkpt><trkpt lat="42.4195867" lon="13.3553683"><ele>916.0</ele><time>2026-04-04T10:56:32.028Z</time></trkpt><trkpt lat="42.4196533" lon="13.3555417"><ele>919.0</ele><time>2026-04-04T10:56:33.028Z</time></trkpt><trkpt lat="42.4197267" lon="13.3557167"><ele>922.0</ele><time>2026-04-04T10:56:34.028Z</time></trkpt><trkpt lat="42.4198083" lon="13.3558883"><ele>925.0</ele><time>2026-04-04T10:56:35.028Z</time></trkpt><trkpt lat="42.4198817" lon="13.35607"><ele>925.0</ele><time>2026-04-04T10:56:36.028Z</time></trkpt><trkpt lat="42.4199583" lon="13.3562467"><ele>925.0</ele><time>2026-04-04T10:56:37.027Z</time></trkpt><trkpt lat="42.42004" lon="13.356415"><ele>925.0</ele><time>2026-04-04T10:56:38.028Z</time></trkpt><trkpt lat="42.4201183" lon="13.3565817"><ele>925.0</ele><time>2026-04-04T10:56:39.028Z</time></trkpt><trkpt lat="42.4201933" lon="13.3567417"><ele>922.5</ele><time>2026-04-04T10:56:40.028Z</time></trkpt><trkpt lat="42.4202683" lon="13.3568917"><ele>920.0</ele><time>2026-04-04T10:56:41.028Z</time></trkpt><trkpt lat="42.4203483" lon="13.357035"><ele>917.5</ele><time>2026-04-04T10:56:42.028Z</time></trkpt><trkpt lat="42.4204417" lon="13.3571717"><ele>915.0</ele><time>2026-04-04T10:56:43.028Z</time></trkpt><trkpt lat="42.4205383" lon="13.357295"><ele>915.0</ele><time>2026-04-04T10:56:44.028Z</time></trkpt><trkpt lat="42.4206233" lon="13.3574317"><ele>915.0</ele><time>2026-04-04T10:56:45.028Z</time></trkpt><trkpt lat="42.4207033" lon="13.3575717"><ele>915.0</ele><time>2026-04-04T10:56:46.028Z</time></trkpt><trkpt lat="42.420765" lon="13.3577183"><ele>915.0</ele><time>2026-04-04T10:56:47.028Z</time></trkpt><trkpt lat="42.42081" lon="13.3578617"><ele>915.0</ele><time>2026-04-04T10:56:48.028Z</time></trkpt><trkpt lat="42.4208217" lon="13.3579983"><ele>915.0</ele><time>2026-04-04T10:56:49.028Z</time></trkpt><trkpt lat="42.4207983" lon="13.3581433"><ele>915.0</ele><time>2026-04-04T10:56:50.028Z</time></trkpt><trkpt lat="42.42074" lon="13.358245"><ele>915.0</ele><time>2026-04-04T10:56:51.028Z</time></trkpt><trkpt lat="42.4206483" lon="13.35833"><ele>915.0</ele><time>2026-04-04T10:56:52.028Z</time></trkpt><trkpt lat="42.42054" lon="13.3583433"><ele>910.25</ele><time>2026-04-04T10:56:53.028Z</time></trkpt><trkpt lat="42.4204467" lon="13.358305"><ele>905.5</ele><time>2026-04-04T10:56:54.028Z</time></trkpt><trkpt lat="42.420345" lon="13.3582033"><ele>900.75</ele><time>2026-04-04T10:56:55.028Z</time></trkpt><trkpt lat="42.4202667" lon="13.358045"><ele>896.0</ele><time>2026-04-04T10:56:56.028Z</time></trkpt><trkpt lat="42.4201867" lon="13.35789"><ele>896.0</ele><time>2026-04-04T10:56:57.028Z</time></trkpt><trkpt lat="42.420105" lon="13.3577433"><ele>896.0</ele><time>2026-04-04T10:56:58.028Z</time></trkpt><trkpt lat="42.420015" lon="13.3575983"><ele>896.0</ele><time>2026-04-04T10:56:59.028Z</time></trkpt><trkpt lat="42.4199233" lon="13.3574567"><ele>896.0</ele><time>2026-04-04T10:57:00.028Z</time></trkpt><trkpt lat="42.419835" lon="13.3573067"><ele>893.3333333333334</ele><time>2026-04-04T10:57:01.028Z</time></trkpt><trkpt lat="42.4197383" lon="13.3571533"><ele>890.6666666666667</ele><time>2026-04-04T10:57:02.028Z</time></trkpt><trkpt lat="42.4196333" lon="13.3569867"><ele>888.0</ele><time>2026-04-04T10:57:03.028Z</time></trkpt><trkpt lat="42.4195267" lon="13.3568217"><ele>888.0</ele><time>2026-04-04T10:57:04.028Z</time></trkpt><trkpt lat="42.4194233" lon="13.35666"><ele>888.0</ele><time>2026-04-04T10:57:05.028Z</time></trkpt><trkpt lat="42.4193233" lon="13.35649"><ele>888.0</ele><time>2026-04-04T10:57:06.028Z</time></trkpt><trkpt lat="42.4192083" lon="13.35632"><ele>891.0</ele><time>2026-04-04T10:57:07.028Z</time></trkpt><trkpt lat="42.4190933" lon="13.3561717"><ele>894.0</ele><time>2026-04-04T10:57:08.028Z</time></trkpt><trkpt lat="42.4189833" lon="13.35602"><ele>897.0</ele><time>2026-04-04T10:57:09.028Z</time></trkpt><trkpt lat="42.418875" lon="13.35587"><ele>894.0</ele><time>2026-04-04T10:57:10.028Z</time></trkpt><trkpt lat="42.4187717" lon="13.3557083"><ele>891.0</ele><time>2026-04-04T10:57:11.028Z</time></trkpt><trkpt lat="42.4186633" lon="13.3555483"><ele>888.0</ele><time>2026-04-04T10:57:12.028Z</time></trkpt><trkpt lat="42.418565" lon="13.3553833"><ele>888.0</ele><time>2026-04-04T10:57:13.028Z</time></trkpt><trkpt lat="42.41847" lon="13.3552117"><ele>888.0</ele><time>2026-04-04T10:57:14.028Z</time></trkpt><trkpt lat="42.4183617" lon="13.355045"><ele>888.0</ele><time>2026-04-04T10:57:15.028Z</time></trkpt><trkpt lat="42.418265" lon="13.3548817"><ele>888.0</ele><time>2026-04-04T10:57:16.028Z</time></trkpt><trkpt lat="42.418165" lon="13.3547317"><ele>888.0</ele><time>2026-04-04T10:57:17.028Z</time></trkpt><trkpt lat="42.418055" lon="13.3545833"><ele>888.0</ele><time>2026-04-04T10:57:18.028Z</time></trkpt><trkpt lat="42.417955" lon="13.35443"><ele>884.6666666666667</ele><time>2026-04-04T10:57:19.028Z</time></trkpt><trkpt lat="42.4178483" lon="13.3543033"><ele>881.3333333333334</ele><time>2026-04-04T10:57:20.028Z</time></trkpt><trkpt lat="42.4177117" lon="13.3542117"><ele>878.0</ele><time>2026-04-04T10:57:21.028Z</time></trkpt><trkpt lat="42.4175667" lon="13.354115"><ele>878.0</ele><time>2026-04-04T10:57:22.028Z</time></trkpt><trkpt lat="42.41744" lon="13.3539967"><ele>878.0</ele><time>2026-04-04T10:57:23.028Z</time></trkpt><trkpt lat="42.4173267" lon="13.3538517"><ele>878.0</ele><time>2026-04-04T10:57:24.028Z</time></trkpt><trkpt lat="42.4172233" lon="13.3536983"><ele>871.0</ele><time>2026-04-04T10:57:25.028Z</time></trkpt><trkpt lat="42.4171367" lon="13.353535"><ele>864.0</ele><time>2026-04-04T10:57:26.028Z</time></trkpt><trkpt lat="42.41706" lon="13.3533467"><ele>857.0</ele><time>2026-04-04T10:57:27.028Z</time></trkpt><trkpt lat="42.4169933" lon="13.353155"><ele>860.6666666666667</ele><time>2026-04-04T10:57:28.028Z</time></trkpt><trkpt lat="42.4169317" lon="13.3529667"><ele>864.3333333333333</ele><time>2026-04-04T10:57:29.028Z</time></trkpt><trkpt lat="42.4168833" lon="13.3527567"><ele>868.0</ele><time>2026-04-04T10:57:30.028Z</time></trkpt><trkpt lat="42.41683" lon="13.3525617"><ele>868.0</ele><time>2026-04-04T10:57:31.028Z</time></trkpt><trkpt lat="42.4167883" lon="13.352365"><ele>868.0</ele><time>2026-04-04T10:57:32.028Z</time></trkpt><trkpt lat="42.4167533" lon="13.3521667"><ele>868.0</ele><time>2026-04-04T10:57:33.028Z</time></trkpt><trkpt lat="42.4167067" lon="13.35196"><ele>868.5</ele><time>2026-04-04T10:57:34.028Z</time></trkpt><trkpt lat="42.4166483" lon="13.35154"><ele>869.0</ele><time>2026-04-04T10:57:36.028Z</time></trkpt><trkpt lat="42.4166467" lon="13.3511617"><ele>867.0</ele><time>2026-04-04T10:57:38.028Z</time></trkpt><trkpt lat="42.4166667" lon="13.3509883"><ele>865.0</ele><time>2026-04-04T10:57:39.028Z</time></trkpt><trkpt lat="42.4167" lon="13.350825"><ele>863.0</ele><time>2026-04-04T10:57:40.028Z</time></trkpt><trkpt lat="42.4167767" lon="13.350495"><ele>858.3333333333334</ele><time>2026-04-04T10:57:42.028Z</time></trkpt><trkpt lat="42.41682" lon="13.3503383"><ele>853.6666666666667</ele><time>2026-04-04T10:57:43.028Z</time></trkpt><trkpt lat="42.416935" lon="13.349995"><ele>849.0</ele><time>2026-04-04T10:57:45.028Z</time></trkpt><trkpt lat="42.4169917" lon="13.3498167"><ele>847.0</ele><time>2026-04-04T10:57:46.028Z</time></trkpt><trkpt lat="42.4170883" lon="13.3494967"><ele>845.0</ele><time>2026-04-04T10:57:48.028Z</time></trkpt><trkpt lat="42.4171117" lon="13.3493167"><ele>843.0</ele><time>2026-04-04T10:57:49.028Z</time></trkpt><trkpt lat="42.417125" lon="13.349145"><ele>843.0</ele><time>2026-04-04T10:57:50.028Z</time></trkpt><trkpt lat="42.4170983" lon="13.348975"><ele>843.0</ele><time>2026-04-04T10:57:51.028Z</time></trkpt><trkpt lat="42.417045" lon="13.3488033"><ele>843.0</ele><time>2026-04-04T10:57:52.028Z</time></trkpt><trkpt lat="42.4169717" lon="13.3486367"><ele>843.0</ele><time>2026-04-04T10:57:53.028Z</time></trkpt><trkpt lat="42.4169" lon="13.3484733"><ele>843.5</ele><time>2026-04-04T10:57:54.028Z</time></trkpt><trkpt lat="42.4168333" lon="13.3483083"><ele>844.0</ele><time>2026-04-04T10:57:55.028Z</time></trkpt><trkpt lat="42.41677" lon="13.348135"><ele>844.5</ele><time>2026-04-04T10:57:56.027Z</time></trkpt><trkpt lat="42.4167267" lon="13.34796"><ele>845.0</ele><time>2026-04-04T10:57:57.028Z</time></trkpt><trkpt lat="42.416695" lon="13.34779"><ele>845.0</ele><time>2026-04-04T10:57:58.028Z</time></trkpt><trkpt lat="42.4166933" lon="13.3476167"><ele>845.0</ele><time>2026-04-04T10:57:59.028Z</time></trkpt><trkpt lat="42.4167067" lon="13.3474367"><ele>845.0</ele><time>2026-04-04T10:58:00.028Z</time></trkpt><trkpt lat="42.4167467" lon="13.3472683"><ele>845.0</ele><time>2026-04-04T10:58:01.028Z</time></trkpt><trkpt lat="42.416795" lon="13.3471083"><ele>842.5</ele><time>2026-04-04T10:58:02.028Z</time></trkpt><trkpt lat="42.4168567" lon="13.3469633"><ele>840.0</ele><time>2026-04-04T10:58:03.028Z</time></trkpt><trkpt lat="42.416925" lon="13.3468267"><ele>837.5</ele><time>2026-04-04T10:58:04.028Z</time></trkpt><trkpt lat="42.4169817" lon="13.3467033"><ele>835.0</ele><time>2026-04-04T10:58:05.028Z</time></trkpt><trkpt lat="42.4170383" lon="13.3465683"><ele>835.0</ele><time>2026-04-04T10:58:06.028Z</time></trkpt><trkpt lat="42.4170533" lon="13.346415"><ele>835.0</ele><time>2026-04-04T10:58:07.028Z</time></trkpt><trkpt lat="42.417035" lon="13.3462517"><ele>835.0</ele><time>2026-04-04T10:58:08.028Z</time></trkpt><trkpt lat="42.416985" lon="13.346095"><ele>835.0</ele><time>2026-04-04T10:58:09.028Z</time></trkpt><trkpt lat="42.4169217" lon="13.3459383"><ele>835.0</ele><time>2026-04-04T10:58:10.028Z</time></trkpt><trkpt lat="42.4168667" lon="13.3457783"><ele>835.0</ele><time>2026-04-04T10:58:11.028Z</time></trkpt><trkpt lat="42.416835" lon="13.3456233"><ele>835.0</ele><time>2026-04-04T10:58:12.028Z</time></trkpt><trkpt lat="42.4168317" lon="13.34547"><ele>835.0</ele><time>2026-04-04T10:58:13.028Z</time></trkpt><trkpt lat="42.4168683" lon="13.3453117"><ele>834.25</ele><time>2026-04-04T10:58:14.028Z</time></trkpt><trkpt lat="42.41693" lon="13.345155"><ele>833.5</ele><time>2026-04-04T10:58:15.028Z</time></trkpt><trkpt lat="42.4169933" lon="13.34501"><ele>832.75</ele><time>2026-04-04T10:58:16.028Z</time></trkpt><trkpt lat="42.4170633" lon="13.3448667"><ele>832.0</ele><time>2026-04-04T10:58:17.028Z</time></trkpt><trkpt lat="42.4171267" lon="13.34474"><ele>835.4000000000001</ele><time>2026-04-04T10:58:18.028Z</time></trkpt><trkpt lat="42.4171683" lon="13.3446333"><ele>838.8000000000001</ele><time>2026-04-04T10:58:19.028Z</time></trkpt><trkpt lat="42.417205" lon="13.3445267"><ele>842.2</ele><time>2026-04-04T10:58:20.028Z</time></trkpt><trkpt lat="42.4172183" lon="13.3444083"><ele>845.6</ele><time>2026-04-04T10:58:21.027Z</time></trkpt><trkpt lat="42.4172083" lon="13.3442817"><ele>849.0</ele><time>2026-04-04T10:58:22.028Z</time></trkpt><trkpt lat="42.4171533" lon="13.3441567"><ele>844.75</ele><time>2026-04-04T10:58:23.028Z</time></trkpt><trkpt lat="42.417075" lon="13.3440267"><ele>840.5</ele><time>2026-04-04T10:58:24.028Z</time></trkpt><trkpt lat="42.4170117" lon="13.34389"><ele>836.25</ele><time>2026-04-04T10:58:25.028Z</time></trkpt><trkpt lat="42.4169483" lon="13.3437417"><ele>832.0</ele><time>2026-04-04T10:58:26.028Z</time></trkpt><trkpt lat="42.4168983" lon="13.3435917"><ele>832.0</ele><time>2026-04-04T10:58:27.028Z</time></trkpt><trkpt lat="42.4168617" lon="13.3434417"><ele>832.0</ele><time>2026-04-04T10:58:28.028Z</time></trkpt><trkpt lat="42.416845" lon="13.343285"><ele>832.0</ele><time>2026-04-04T10:58:29.028Z</time></trkpt><trkpt lat="42.4168483" lon="13.3431183"><ele>832.0</ele><time>2026-04-04T10:58:30.028Z</time></trkpt><trkpt lat="42.4168583" lon="13.3429483"><ele>831.0</ele><time>2026-04-04T10:58:31.028Z</time></trkpt><trkpt lat="42.416875" lon="13.342795"><ele>830.0</ele><time>2026-04-04T10:58:32.028Z</time></trkpt><trkpt lat="42.4169017" lon="13.3426433"><ele>829.0</ele><time>2026-04-04T10:58:33.028Z</time></trkpt><trkpt lat="42.4169317" lon="13.3425017"><ele>828.0</ele><time>2026-04-04T10:58:34.028Z</time></trkpt><trkpt lat="42.416965" lon="13.342355"><ele>828.0</ele><time>2026-04-04T10:58:35.028Z</time></trkpt><trkpt lat="42.41699" lon="13.342205"><ele>828.0</ele><time>2026-04-04T10:58:36.028Z</time></trkpt><trkpt lat="42.417015" lon="13.342045"><ele>828.0</ele><time>2026-04-04T10:58:37.028Z</time></trkpt><trkpt lat="42.4170283" lon="13.3418883"><ele>828.0</ele><time>2026-04-04T10:58:38.028Z</time></trkpt><trkpt lat="42.4170167" lon="13.341735"><ele>828.0</ele><time>2026-04-04T10:58:39.028Z</time></trkpt><trkpt lat="42.4169867" lon="13.341575"><ele>828.0</ele><time>2026-04-04T10:58:40.028Z</time></trkpt><trkpt lat="42.416915" lon="13.3414517"><ele>828.0</ele><time>2026-04-04T10:58:41.028Z</time></trkpt><trkpt lat="42.4168083" lon="13.3413367"><ele>828.0</ele><time>2026-04-04T10:58:42.028Z</time></trkpt><trkpt lat="42.4166933" lon="13.34122"><ele>826.75</ele><time>2026-04-04T10:58:43.028Z</time></trkpt><trkpt lat="42.4165833" lon="13.341115"><ele>825.5</ele><time>2026-04-04T10:58:44.028Z</time></trkpt><trkpt lat="42.416465" lon="13.3410167"><ele>824.25</ele><time>2026-04-04T10:58:45.028Z</time></trkpt><trkpt lat="42.4163417" lon="13.3409317"><ele>823.0</ele><time>2026-04-04T10:58:46.028Z</time></trkpt><trkpt lat="42.4162083" lon="13.3408433"><ele>823.0</ele><time>2026-04-04T10:58:47.028Z</time></trkpt><trkpt lat="42.4160917" lon="13.3407517"><ele>823.0</ele><time>2026-04-04T10:58:48.028Z</time></trkpt><trkpt lat="42.4159683" lon="13.3406533"><ele>823.0</ele><time>2026-04-04T10:58:49.028Z</time></trkpt><trkpt lat="42.4158483" lon="13.34055"><ele>823.0</ele><time>2026-04-04T10:58:50.028Z</time></trkpt><trkpt lat="42.415725" lon="13.3404333"><ele>821.0</ele><time>2026-04-04T10:58:51.028Z</time></trkpt><trkpt lat="42.4155933" lon="13.3403217"><ele>819.0</ele><time>2026-04-04T10:58:52.028Z</time></trkpt><trkpt lat="42.4154567" lon="13.340205"><ele>817.0</ele><time>2026-04-04T10:58:53.028Z</time></trkpt><trkpt lat="42.4153233" lon="13.340085"><ele>817.0</ele><time>2026-04-04T10:58:54.028Z</time></trkpt><trkpt lat="42.415185" lon="13.339965"><ele>817.0</ele><time>2026-04-04T10:58:55.028Z</time></trkpt><trkpt lat="42.4150383" lon="13.3398583"><ele>817.0</ele><time>2026-04-04T10:58:56.028Z</time></trkpt><trkpt lat="42.4148933" lon="13.3397783"><ele>817.3333333333333</ele><time>2026-04-04T10:58:57.028Z</time></trkpt><trkpt lat="42.4147467" lon="13.3397133"><ele>817.6666666666667</ele><time>2026-04-04T10:58:58.027Z</time></trkpt><trkpt lat="42.4146" lon="13.3396633"><ele>818.0</ele><time>2026-04-04T10:58:59.028Z</time></trkpt><trkpt lat="42.4144567" lon="13.339605"><ele>818.0</ele><time>2026-04-04T10:59:00.028Z</time></trkpt><trkpt lat="42.4143217" lon="13.3395467"><ele>818.0</ele><time>2026-04-04T10:59:01.028Z</time></trkpt><trkpt lat="42.4141967" lon="13.3394567"><ele>818.0</ele><time>2026-04-04T10:59:02.028Z</time></trkpt><trkpt lat="42.4140883" lon="13.339345"><ele>818.0</ele><time>2026-04-04T10:59:03.028Z</time></trkpt><trkpt lat="42.41399" lon="13.33921"><ele>818.0</ele><time>2026-04-04T10:59:04.028Z</time></trkpt><trkpt lat="42.4139017" lon="13.3390583"><ele>818.0</ele><time>2026-04-04T10:59:05.028Z</time></trkpt><trkpt lat="42.4138367" lon="13.338885"><ele>818.0</ele><time>2026-04-04T10:59:06.028Z</time></trkpt><trkpt lat="42.4137767" lon="13.338695"><ele>818.0</ele><time>2026-04-04T10:59:07.028Z</time></trkpt><trkpt lat="42.4137267" lon="13.3385033"><ele>814.25</ele><time>2026-04-04T10:59:08.028Z</time></trkpt><trkpt lat="42.4136733" lon="13.3383167"><ele>810.5</ele><time>2026-04-04T10:59:09.028Z</time></trkpt><trkpt lat="42.4136267" lon="13.33813"><ele>806.75</ele><time>2026-04-04T10:59:10.028Z</time></trkpt><trkpt lat="42.4135783" lon="13.3379583"><ele>803.0</ele><time>2026-04-04T10:59:11.028Z</time></trkpt><trkpt lat="42.4135267" lon="13.3377833"><ele>803.0</ele><time>2026-04-04T10:59:12.028Z</time></trkpt><trkpt lat="42.4134667" lon="13.337635"><ele>803.0</ele><time>2026-04-04T10:59:13.028Z</time></trkpt><trkpt lat="42.413405" lon="13.337475"><ele>803.0</ele><time>2026-04-04T10:59:14.028Z</time></trkpt><trkpt lat="42.4133467" lon="13.3373117"><ele>803.0</ele><time>2026-04-04T10:59:15.028Z</time></trkpt><trkpt lat="42.41328" lon="13.3371633"><ele>805.0</ele><time>2026-04-04T10:59:16.028Z</time></trkpt><trkpt lat="42.4131883" lon="13.337035"><ele>807.0</ele><time>2026-04-04T10:59:17.028Z</time></trkpt><trkpt lat="42.4130917" lon="13.3369267"><ele>809.0</ele><time>2026-04-04T10:59:18.028Z</time></trkpt><trkpt lat="42.4129883" lon="13.3368533"><ele>811.0</ele><time>2026-04-04T10:59:19.027Z</time></trkpt><trkpt lat="42.4128867" lon="13.3367867"><ele>807.8</ele><time>2026-04-04T10:59:20.028Z</time></trkpt><trkpt lat="42.4127867" lon="13.33673"><ele>804.5999999999999</ele><time>2026-04-04T10:59:21.027Z</time></trkpt><trkpt lat="42.4126817" lon="13.336675"><ele>801.4</ele><time>2026-04-04T10:59:22.028Z</time></trkpt><trkpt lat="42.4125933" lon="13.33661"><ele>798.2</ele><time>2026-04-04T10:59:23.028Z</time></trkpt><trkpt lat="42.412515" lon="13.3365317"><ele>795.0</ele><time>2026-04-04T10:59:24.028Z</time></trkpt><trkpt lat="42.4124483" lon="13.336435"><ele>795.75</ele><time>2026-04-04T10:59:25.028Z</time></trkpt><trkpt lat="42.4124033" lon="13.3363217"><ele>796.5</ele><time>2026-04-04T10:59:26.028Z</time></trkpt><trkpt lat="42.4123817" lon="13.3361667"><ele>797.25</ele><time>2026-04-04T10:59:27.028Z</time></trkpt><trkpt lat="42.412385" lon="13.335975"><ele>798.0</ele><time>2026-04-04T10:59:28.028Z</time></trkpt><trkpt lat="42.412405" lon="13.335775"><ele>798.0</ele><time>2026-04-04T10:59:29.028Z</time></trkpt><trkpt lat="42.41243" lon="13.335575"><ele>798.0</ele><time>2026-04-04T10:59:30.028Z</time></trkpt><trkpt lat="42.412435" lon="13.3353817"><ele>798.0</ele><time>2026-04-04T10:59:31.028Z</time></trkpt><trkpt lat="42.41242" lon="13.335195"><ele>798.0</ele><time>2026-04-04T10:59:32.028Z</time></trkpt><trkpt lat="42.4123967" lon="13.3350017"><ele>798.0</ele><time>2026-04-04T10:59:33.028Z</time></trkpt><trkpt lat="42.4123717" lon="13.3348183"><ele>798.0</ele><time>2026-04-04T10:59:34.027Z</time></trkpt><trkpt lat="42.41235" lon="13.3346317"><ele>798.0</ele><time>2026-04-04T10:59:35.028Z</time></trkpt><trkpt lat="42.412325" lon="13.3344417"><ele>798.0</ele><time>2026-04-04T10:59:36.028Z</time></trkpt><trkpt lat="42.4122983" lon="13.3342633"><ele>798.0</ele><time>2026-04-04T10:59:37.028Z</time></trkpt><trkpt lat="42.4122783" lon="13.3340883"><ele>798.0</ele><time>2026-04-04T10:59:38.028Z</time></trkpt><trkpt lat="42.4122767" lon="13.333915"><ele>798.0</ele><time>2026-04-04T10:59:39.028Z</time></trkpt><trkpt lat="42.412295" lon="13.3337467"><ele>798.0</ele><time>2026-04-04T10:59:40.028Z</time></trkpt><trkpt lat="42.4123333" lon="13.33359"><ele>795.0</ele><time>2026-04-04T10:59:41.028Z</time></trkpt><trkpt lat="42.4124017" lon="13.33343"><ele>792.0</ele><time>2026-04-04T10:59:42.028Z</time></trkpt><trkpt lat="42.4124867" lon="13.333285"><ele>789.0</ele><time>2026-04-04T10:59:43.028Z</time></trkpt><trkpt lat="42.4125767" lon="13.3331283"><ele>786.0</ele><time>2026-04-04T10:59:44.028Z</time></trkpt><trkpt lat="42.4126717" lon="13.3329767"><ele>786.75</ele><time>2026-04-04T10:59:45.028Z</time></trkpt><trkpt lat="42.41276" lon="13.332815"><ele>787.5</ele><time>2026-04-04T10:59:46.028Z</time></trkpt><trkpt lat="42.41285" lon="13.3326583"><ele>788.25</ele><time>2026-04-04T10:59:47.028Z</time></trkpt><trkpt lat="42.412935" lon="13.3325"><ele>789.0</ele><time>2026-04-04T10:59:48.028Z</time></trkpt><trkpt lat="42.41302" lon="13.3323483"><ele>785.5</ele><time>2026-04-04T10:59:49.028Z</time></trkpt><trkpt lat="42.4131117" lon="13.3322183"><ele>782.0</ele><time>2026-04-04T10:59:50.027Z</time></trkpt><trkpt lat="42.4132183" lon="13.3320967"><ele>778.5</ele><time>2026-04-04T10:59:51.028Z</time></trkpt><trkpt lat="42.4133267" lon="13.3319767"><ele>775.0</ele><time>2026-04-04T10:59:52.028Z</time></trkpt><trkpt lat="42.4134417" lon="13.3318567"><ele>775.0</ele><time>2026-04-04T10:59:53.028Z</time></trkpt><trkpt lat="42.413565" lon="13.331735"><ele>775.0</ele><time>2026-04-04T10:59:54.028Z</time></trkpt><trkpt lat="42.4136817" lon="13.3315967"><ele>775.0</ele><time>2026-04-04T10:59:55.028Z</time></trkpt><trkpt lat="42.4137833" lon="13.3314483"><ele>776.3333333333333</ele><time>2026-04-04T10:59:56.028Z</time></trkpt><trkpt lat="42.4138667" lon="13.331285"><ele>777.6666666666667</ele><time>2026-04-04T10:59:57.028Z</time></trkpt><trkpt lat="42.4139467" lon="13.3311033"><ele>779.0</ele><time>2026-04-04T10:59:58.028Z</time></trkpt><trkpt lat="42.414035" lon="13.330915"><ele>779.0</ele><time>2026-04-04T10:59:59.028Z</time></trkpt><trkpt lat="42.4141217" lon="13.33072"><ele>779.0</ele><time>2026-04-04T11:00:00.028Z</time></trkpt><trkpt lat="42.4142133" lon="13.3305367"><ele>779.0</ele><time>2026-04-04T11:00:01.028Z</time></trkpt><trkpt lat="42.4143017" lon="13.3303533"><ele>774.0</ele><time>2026-04-04T11:00:02.028Z</time></trkpt><trkpt lat="42.4143883" lon="13.3301683"><ele>769.0</ele><time>2026-04-04T11:00:03.028Z</time></trkpt><trkpt lat="42.4144667" lon="13.3299967"><ele>764.0</ele><time>2026-04-04T11:00:04.028Z</time></trkpt><trkpt lat="42.4145417" lon="13.32982"><ele>759.6666666666666</ele><time>2026-04-04T11:00:05.028Z</time></trkpt><trkpt lat="42.4146083" lon="13.32962"><ele>755.3333333333334</ele><time>2026-04-04T11:00:06.028Z</time></trkpt><trkpt lat="42.4146617" lon="13.3294117"><ele>751.0</ele><time>2026-04-04T11:00:07.028Z</time></trkpt><trkpt lat="42.414715" lon="13.3291917"><ele>757.0</ele><time>2026-04-04T11:00:08.028Z</time></trkpt><trkpt lat="42.4147667" lon="13.3289717"><ele>763.0</ele><time>2026-04-04T11:00:09.028Z</time></trkpt><trkpt lat="42.41482" lon="13.3287417"><ele>769.0</ele><time>2026-04-04T11:00:10.028Z</time></trkpt><trkpt lat="42.4148767" lon="13.3285167"><ele>769.0</ele><time>2026-04-04T11:00:11.028Z</time></trkpt><trkpt lat="42.414925" lon="13.3283033"><ele>769.0</ele><time>2026-04-04T11:00:12.028Z</time></trkpt><trkpt lat="42.4149617" lon="13.32809"><ele>769.0</ele><time>2026-04-04T11:00:13.028Z</time></trkpt><trkpt lat="42.41497" lon="13.3278667"><ele>768.3333333333333</ele><time>2026-04-04T11:00:14.028Z</time></trkpt><trkpt lat="42.4149633" lon="13.327655"><ele>767.6666666666666</ele><time>2026-04-04T11:00:15.028Z</time></trkpt><trkpt lat="42.4149367" lon="13.3274283"><ele>767.0</ele><time>2026-04-04T11:00:16.028Z</time></trkpt><trkpt lat="42.4148917" lon="13.3272117"><ele>767.0</ele><time>2026-04-04T11:00:17.028Z</time></trkpt><trkpt lat="42.414835" lon="13.326995"><ele>767.0</ele><time>2026-04-04T11:00:18.028Z</time></trkpt><trkpt lat="42.4147617" lon="13.3267783"><ele>767.0</ele><time>2026-04-04T11:00:19.028Z</time></trkpt><trkpt lat="42.4146883" lon="13.3265633"><ele>765.0</ele><time>2026-04-04T11:00:20.028Z</time></trkpt><trkpt lat="42.4145967" lon="13.32637"><ele>763.0</ele><time>2026-04-04T11:00:21.028Z</time></trkpt><trkpt lat="42.4144767" lon="13.3262117"><ele>761.0</ele><time>2026-04-04T11:00:22.028Z</time></trkpt><trkpt lat="42.4143333" lon="13.32606"><ele>761.0</ele><time>2026-04-04T11:00:23.028Z</time></trkpt><trkpt lat="42.4141683" lon="13.3259317"><ele>761.0</ele><time>2026-04-04T11:00:24.028Z</time></trkpt><trkpt lat="42.414005" lon="13.32582"><ele>761.0</ele><time>2026-04-04T11:00:25.028Z</time></trkpt><trkpt lat="42.4138333" lon="13.3257417"><ele>760.0</ele><time>2026-04-04T11:00:26.028Z</time></trkpt><trkpt lat="42.41367" lon="13.3256483"><ele>759.0</ele><time>2026-04-04T11:00:27.028Z</time></trkpt><trkpt lat="42.413515" lon="13.325555"><ele>758.0</ele><time>2026-04-04T11:00:28.028Z</time></trkpt><trkpt lat="42.4133733" lon="13.3254617"><ele>758.0</ele><time>2026-04-04T11:00:29.028Z</time></trkpt><trkpt lat="42.41325" lon="13.3253433"><ele>758.0</ele><time>2026-04-04T11:00:30.027Z</time></trkpt><trkpt lat="42.4131383" lon="13.3251967"><ele>758.0</ele><time>2026-04-04T11:00:31.028Z</time></trkpt><trkpt lat="42.41305" lon="13.3250167"><ele>758.0</ele><time>2026-04-04T11:00:32.028Z</time></trkpt><trkpt lat="42.4130017" lon="13.324815"><ele>758.0</ele><time>2026-04-04T11:00:33.028Z</time></trkpt><trkpt lat="42.4129867" lon="13.3245667"><ele>758.0</ele><time>2026-04-04T11:00:34.028Z</time></trkpt><trkpt lat="42.41298" lon="13.3243183"><ele>749.6666666666666</ele><time>2026-04-04T11:00:35.028Z</time></trkpt><trkpt lat="42.412965" lon="13.3240717"><ele>741.3333333333334</ele><time>2026-04-04T11:00:36.028Z</time></trkpt><trkpt lat="42.4129533" lon="13.3238117"><ele>733.0</ele><time>2026-04-04T11:00:37.028Z</time></trkpt><trkpt lat="42.4129383" lon="13.3235533"><ele>733.0</ele><time>2026-04-04T11:00:38.028Z</time></trkpt><trkpt lat="42.41293" lon="13.3233083"><ele>733.0</ele><time>2026-04-04T11:00:39.028Z</time></trkpt><trkpt lat="42.4129" lon="13.3230867"><ele>733.0</ele><time>2026-04-04T11:00:40.028Z</time></trkpt><trkpt lat="42.412865" lon="13.3228617"><ele>733.3333333333334</ele><time>2026-04-04T11:00:41.028Z</time></trkpt><trkpt lat="42.412815" lon="13.3226517"><ele>733.6666666666666</ele><time>2026-04-04T11:00:42.027Z</time></trkpt><trkpt lat="42.4127583" lon="13.3224517"><ele>734.0</ele><time>2026-04-04T11:00:43.028Z</time></trkpt><trkpt lat="42.4127267" lon="13.3222333"><ele>732.6666666666666</ele><time>2026-04-04T11:00:44.028Z</time></trkpt><trkpt lat="42.4127117" lon="13.3220017"><ele>731.3333333333334</ele><time>2026-04-04T11:00:45.028Z</time></trkpt><trkpt lat="42.412715" lon="13.3217517"><ele>730.0</ele><time>2026-04-04T11:00:46.028Z</time></trkpt><trkpt lat="42.4127317" lon="13.3214933"><ele>729.6666666666667</ele><time>2026-04-04T11:00:47.028Z</time></trkpt><trkpt lat="42.4127267" lon="13.3212433"><ele>729.3333333333334</ele><time>2026-04-04T11:00:48.028Z</time></trkpt><trkpt lat="42.4127017" lon="13.3210017"><ele>729.0</ele><time>2026-04-04T11:00:49.028Z</time></trkpt><trkpt lat="42.4126733" lon="13.3207667"><ele>728.3333333333334</ele><time>2026-04-04T11:00:50.028Z</time></trkpt><trkpt lat="42.4126383" lon="13.320535"><ele>727.6666666666667</ele><time>2026-04-04T11:00:51.028Z</time></trkpt><trkpt lat="42.4126" lon="13.32032"><ele>727.0</ele><time>2026-04-04T11:00:52.028Z</time></trkpt><trkpt lat="42.4125817" lon="13.320105"><ele>727.0</ele><time>2026-04-04T11:00:53.028Z</time></trkpt><trkpt lat="42.4125733" lon="13.31989"><ele>727.0</ele><time>2026-04-04T11:00:54.028Z</time></trkpt><trkpt lat="42.412575" lon="13.31968"><ele>727.0</ele><time>2026-04-04T11:00:55.028Z</time></trkpt><trkpt lat="42.4125883" lon="13.3194717"><ele>726.5</ele><time>2026-04-04T11:00:56.028Z</time></trkpt><trkpt lat="42.41261" lon="13.3192733"><ele>726.0</ele><time>2026-04-04T11:00:57.028Z</time></trkpt><trkpt lat="42.4126267" lon="13.3190767"><ele>725.5</ele><time>2026-04-04T11:00:58.028Z</time></trkpt><trkpt lat="42.4126367" lon="13.3188833"><ele>725.0</ele><time>2026-04-04T11:00:59.028Z</time></trkpt><trkpt lat="42.412625" lon="13.3186967"><ele>723.0</ele><time>2026-04-04T11:01:00.028Z</time></trkpt><trkpt lat="42.4126183" lon="13.3184983"><ele>721.0</ele><time>2026-04-04T11:01:01.028Z</time></trkpt><trkpt lat="42.4126133" lon="13.3182933"><ele>719.0</ele><time>2026-04-04T11:01:02.028Z</time></trkpt><trkpt lat="42.41263" lon="13.318065"><ele>717.6666666666666</ele><time>2026-04-04T11:01:03.028Z</time></trkpt><trkpt lat="42.4126617" lon="13.3178483"><ele>716.3333333333334</ele><time>2026-04-04T11:01:04.028Z</time></trkpt><trkpt lat="42.41269" lon="13.3176283"><ele>715.0</ele><time>2026-04-04T11:01:05.028Z</time></trkpt><trkpt lat="42.412725" lon="13.3174017"><ele>714.5</ele><time>2026-04-04T11:01:06.028Z</time></trkpt><trkpt lat="42.4127667" lon="13.3171917"><ele>714.0</ele><time>2026-04-04T11:01:07.028Z</time></trkpt><trkpt lat="42.4128133" lon="13.3169967"><ele>713.5</ele><time>2026-04-04T11:01:08.028Z</time></trkpt><trkpt lat="42.41286" lon="13.316845"><ele>713.0</ele><time>2026-04-04T11:01:09.028Z</time></trkpt><trkpt lat="42.412915" lon="13.316725"><ele>713.8333333333333</ele><time>2026-04-04T11:01:10.028Z</time></trkpt><trkpt lat="42.4129933" lon="13.3166367"><ele>714.6666666666666</ele><time>2026-04-04T11:01:11.028Z</time></trkpt><trkpt lat="42.4130583" lon="13.3165683"><ele>715.5</ele><time>2026-04-04T11:01:12.028Z</time></trkpt><trkpt lat="42.4131" lon="13.3164817"><ele>716.3333333333334</ele><time>2026-04-04T11:01:13.028Z</time></trkpt><trkpt lat="42.4131133" lon="13.3163817"><ele>717.1666666666667</ele><time>2026-04-04T11:01:14.028Z</time></trkpt><trkpt lat="42.413095" lon="13.31628"><ele>718.0</ele><time>2026-04-04T11:01:15.028Z</time></trkpt><trkpt lat="42.41307" lon="13.3161583"><ele>718.25</ele><time>2026-04-04T11:01:16.028Z</time></trkpt><trkpt lat="42.4130467" lon="13.316015"><ele>718.5</ele><time>2026-04-04T11:01:17.028Z</time></trkpt><trkpt lat="42.4130267" lon="13.31585"><ele>718.75</ele><time>2026-04-04T11:01:18.028Z</time></trkpt><trkpt lat="42.412995" lon="13.31567"><ele>719.0</ele><time>2026-04-04T11:01:19.028Z</time></trkpt><trkpt lat="42.412965" lon="13.315485"><ele>715.3333333333333</ele><time>2026-04-04T11:01:20.028Z</time></trkpt><trkpt lat="42.41293" lon="13.3152917"><ele>711.6666666666666</ele><time>2026-04-04T11:01:21.028Z</time></trkpt><trkpt lat="42.4128917" lon="13.315095"><ele>708.0</ele><time>2026-04-04T11:01:22.028Z</time></trkpt><trkpt lat="42.41285" lon="13.3148883"><ele>708.0</ele><time>2026-04-04T11:01:23.028Z</time></trkpt><trkpt lat="42.412805" lon="13.31468"><ele>708.0</ele><time>2026-04-04T11:01:24.028Z</time></trkpt><trkpt lat="42.4127517" lon="13.3144683"><ele>708.0</ele><time>2026-04-04T11:01:25.028Z</time></trkpt><trkpt lat="42.4126917" lon="13.3142717"><ele>708.0</ele><time>2026-04-04T11:01:26.028Z</time></trkpt><trkpt lat="42.412645" lon="13.3140683"><ele>708.0</ele><time>2026-04-04T11:01:27.028Z</time></trkpt><trkpt lat="42.412615" lon="13.313855"><ele>708.0</ele><time>2026-04-04T11:01:28.028Z</time></trkpt><trkpt lat="42.4125917" lon="13.3136467"><ele>708.0</ele><time>2026-04-04T11:01:29.028Z</time></trkpt><trkpt lat="42.41257" lon="13.3134433"><ele>708.0</ele><time>2026-04-04T11:01:30.028Z</time></trkpt><trkpt lat="42.4125567" lon="13.3132367"><ele>708.0</ele><time>2026-04-04T11:01:31.028Z</time></trkpt><trkpt lat="42.412545" lon="13.3130333"><ele>708.0</ele><time>2026-04-04T11:01:32.028Z</time></trkpt><trkpt lat="42.4125183" lon="13.312815"><ele>708.0</ele><time>2026-04-04T11:01:33.027Z</time></trkpt><trkpt lat="42.412475" lon="13.3126017"><ele>708.0</ele><time>2026-04-04T11:01:34.028Z</time></trkpt><trkpt lat="42.4124183" lon="13.312385"><ele>710.3333333333334</ele><time>2026-04-04T11:01:35.028Z</time></trkpt><trkpt lat="42.4123533" lon="13.312175"><ele>712.6666666666667</ele><time>2026-04-04T11:01:36.028Z</time></trkpt><trkpt lat="42.4122717" lon="13.3119783"><ele>715.0</ele><time>2026-04-04T11:01:37.028Z</time></trkpt><trkpt lat="42.4121833" lon="13.3117817"><ele>711.6666666666667</ele><time>2026-04-04T11:01:38.028Z</time></trkpt><trkpt lat="42.4120783" lon="13.3115917"><ele>708.3333333333334</ele><time>2026-04-04T11:01:39.028Z</time></trkpt><trkpt lat="42.4119533" lon="13.3114117"><ele>705.0</ele><time>2026-04-04T11:01:40.028Z</time></trkpt><trkpt lat="42.4118217" lon="13.3112217"><ele>705.0</ele><time>2026-04-04T11:01:41.028Z</time></trkpt><trkpt lat="42.4116867" lon="13.3110333"><ele>705.0</ele><time>2026-04-04T11:01:42.028Z</time></trkpt><trkpt lat="42.4115533" lon="13.31084"><ele>705.0</ele><time>2026-04-04T11:01:43.028Z</time></trkpt><trkpt lat="42.4114283" lon="13.3106367"><ele>701.6666666666666</ele><time>2026-04-04T11:01:44.028Z</time></trkpt><trkpt lat="42.4113167" lon="13.3104217"><ele>698.3333333333333</ele><time>2026-04-04T11:01:45.028Z</time></trkpt><trkpt lat="42.411205" lon="13.310205"><ele>695.0</ele><time>2026-04-04T11:01:46.028Z</time></trkpt><trkpt lat="42.4111017" lon="13.3099783"><ele>695.0</ele><time>2026-04-04T11:01:47.028Z</time></trkpt><trkpt lat="42.4109933" lon="13.30976"><ele>695.0</ele><time>2026-04-04T11:01:48.028Z</time></trkpt><trkpt lat="42.4108817" lon="13.3095517"><ele>695.0</ele><time>2026-04-04T11:01:49.028Z</time></trkpt><trkpt lat="42.4107683" lon="13.3093517"><ele>693.6666666666666</ele><time>2026-04-04T11:01:50.028Z</time></trkpt><trkpt lat="42.4106483" lon="13.3091583"><ele>692.3333333333334</ele><time>2026-04-04T11:01:51.028Z</time></trkpt><trkpt lat="42.4105233" lon="13.308975"><ele>691.0</ele><time>2026-04-04T11:01:52.028Z</time></trkpt><trkpt lat="42.4103983" lon="13.3087917"><ele>691.0</ele><time>2026-04-04T11:01:53.028Z</time></trkpt><trkpt lat="42.4102817" lon="13.308605"><ele>691.0</ele><time>2026-04-04T11:01:54.028Z</time></trkpt><trkpt lat="42.4101667" lon="13.3084267"><ele>691.0</ele><time>2026-04-04T11:01:55.028Z</time></trkpt><trkpt lat="42.41006" lon="13.30825"><ele>692.0</ele><time>2026-04-04T11:01:56.028Z</time></trkpt><trkpt lat="42.4099383" lon="13.308065"><ele>693.0</ele><time>2026-04-04T11:01:57.028Z</time></trkpt><trkpt lat="42.4098367" lon="13.3079"><ele>694.0</ele><time>2026-04-04T11:01:58.028Z</time></trkpt><trkpt lat="42.4097367" lon="13.3077417"><ele>692.25</ele><time>2026-04-04T11:01:59.028Z</time></trkpt><trkpt lat="42.4096467" lon="13.307585"><ele>690.5</ele><time>2026-04-04T11:02:00.028Z</time></trkpt><trkpt lat="42.4095517" lon="13.3074433"><ele>688.75</ele><time>2026-04-04T11:02:01.028Z</time></trkpt><trkpt lat="42.4094583" lon="13.307305"><ele>687.0</ele><time>2026-04-04T11:02:02.028Z</time></trkpt><trkpt lat="42.4093683" lon="13.3071717"><ele>687.0</ele><time>2026-04-04T11:02:03.028Z</time></trkpt><trkpt lat="42.409285" lon="13.3070467"><ele>687.0</ele><time>2026-04-04T11:02:04.028Z</time></trkpt><trkpt lat="42.4092" lon="13.3069367"><ele>687.0</ele><time>2026-04-04T11:02:05.028Z</time></trkpt><trkpt lat="42.4091217" lon="13.3068383"><ele>687.0</ele><time>2026-04-04T11:02:06.027Z</time></trkpt><trkpt lat="42.40905" lon="13.3067383"><ele>687.0</ele><time>2026-04-04T11:02:07.027Z</time></trkpt><trkpt lat="42.4089867" lon="13.3066367"><ele>687.0</ele><time>2026-04-04T11:02:08.028Z</time></trkpt><trkpt lat="42.4089533" lon="13.3065233"><ele>687.0</ele><time>2026-04-04T11:02:09.028Z</time></trkpt><trkpt lat="42.4089217" lon="13.3064267"><ele>687.0</ele><time>2026-04-04T11:02:10.028Z</time></trkpt><trkpt lat="42.4088617" lon="13.306365"><ele>687.0</ele><time>2026-04-04T11:02:11.028Z</time></trkpt><trkpt lat="42.4087867" lon="13.3063567"><ele>687.0</ele><time>2026-04-04T11:02:12.028Z</time></trkpt><trkpt lat="42.4086783" lon="13.306375"><ele>684.5</ele><time>2026-04-04T11:02:13.028Z</time></trkpt><trkpt lat="42.408565" lon="13.306365"><ele>682.0</ele><time>2026-04-04T11:02:14.028Z</time></trkpt><trkpt lat="42.4084483" lon="13.3063533"><ele>679.5</ele><time>2026-04-04T11:02:15.028Z</time></trkpt><trkpt lat="42.4083317" lon="13.306325"><ele>677.0</ele><time>2026-04-04T11:02:16.028Z</time></trkpt><trkpt lat="42.4082133" lon="13.3062967"><ele>677.0</ele><time>2026-04-04T11:02:17.028Z</time></trkpt><trkpt lat="42.4080883" lon="13.3062683"><ele>677.0</ele><time>2026-04-04T11:02:18.028Z</time></trkpt><trkpt lat="42.4079633" lon="13.3062483"><ele>677.0</ele><time>2026-04-04T11:02:19.027Z</time></trkpt><trkpt lat="42.4078367" lon="13.306225"><ele>677.0</ele><time>2026-04-04T11:02:20.028Z</time></trkpt><trkpt lat="42.4077083" lon="13.3062033"><ele>677.25</ele><time>2026-04-04T11:02:21.028Z</time></trkpt><trkpt lat="42.4075833" lon="13.306185"><ele>677.5</ele><time>2026-04-04T11:02:22.028Z</time></trkpt><trkpt lat="42.4074617" lon="13.3061617"><ele>677.75</ele><time>2026-04-04T11:02:23.028Z</time></trkpt><trkpt lat="42.40734" lon="13.3061367"><ele>678.0</ele><time>2026-04-04T11:02:24.028Z</time></trkpt><trkpt lat="42.4072167" lon="13.3061167"><ele>678.0</ele><time>2026-04-04T11:02:25.028Z</time></trkpt><trkpt lat="42.4070933" lon="13.3060983"><ele>678.0</ele><time>2026-04-04T11:02:26.027Z</time></trkpt><trkpt lat="42.4069683" lon="13.3060617"><ele>678.0</ele><time>2026-04-04T11:02:27.028Z</time></trkpt><trkpt lat="42.406835" lon="13.3060383"><ele>678.0</ele><time>2026-04-04T11:02:28.028Z</time></trkpt><trkpt lat="42.4067" lon="13.306025"><ele>678.0</ele><time>2026-04-04T11:02:29.028Z</time></trkpt><trkpt lat="42.4065667" lon="13.3060083"><ele>678.0</ele><time>2026-04-04T11:02:30.028Z</time></trkpt><trkpt lat="42.4064367" lon="13.3059933"><ele>678.0</ele><time>2026-04-04T11:02:31.028Z</time></trkpt><trkpt lat="42.4063183" lon="13.3059817"><ele>678.0</ele><time>2026-04-04T11:02:32.028Z</time></trkpt><trkpt lat="42.4061983" lon="13.3059833"><ele>678.0</ele><time>2026-04-04T11:02:33.027Z</time></trkpt><trkpt lat="42.406095" lon="13.3059933"><ele>678.0</ele><time>2026-04-04T11:02:34.028Z</time></trkpt><trkpt lat="42.4059917" lon="13.305995"><ele>678.0</ele><time>2026-04-04T11:02:35.028Z</time></trkpt><trkpt lat="42.4059" lon="13.3060033"><ele>678.0</ele><time>2026-04-04T11:02:36.028Z</time></trkpt><trkpt lat="42.4058083" lon="13.3059983"><ele>678.0</ele><time>2026-04-04T11:02:37.027Z</time></trkpt><trkpt lat="42.4057367" lon="13.3060117"><ele>678.0</ele><time>2026-04-04T11:02:38.028Z</time></trkpt><trkpt lat="42.40567" lon="13.3060717"><ele>678.0</ele><time>2026-04-04T11:02:39.028Z</time></trkpt><trkpt lat="42.4056167" lon="13.3061683"><ele>678.0</ele><time>2026-04-04T11:02:40.028Z</time></trkpt><trkpt lat="42.4055733" lon="13.3062883"><ele>678.0</ele><time>2026-04-04T11:02:41.028Z</time></trkpt><trkpt lat="42.40553" lon="13.3064117"><ele>678.0</ele><time>2026-04-04T11:02:42.028Z</time></trkpt><trkpt lat="42.4054717" lon="13.3065183"><ele>677.5</ele><time>2026-04-04T11:02:43.028Z</time></trkpt><trkpt lat="42.4053833" lon="13.30661"><ele>677.0</ele><time>2026-04-04T11:02:44.028Z</time></trkpt><trkpt lat="42.4052833" lon="13.3067017"><ele>676.5</ele><time>2026-04-04T11:02:45.028Z</time></trkpt><trkpt lat="42.4051733" lon="13.306785"><ele>676.0</ele><time>2026-04-04T11:02:46.028Z</time></trkpt><trkpt lat="42.405065" lon="13.30687"><ele>676.0</ele><time>2026-04-04T11:02:47.028Z</time></trkpt><trkpt lat="42.40496" lon="13.30698"><ele>676.0</ele><time>2026-04-04T11:02:48.028Z</time></trkpt><trkpt lat="42.4048483" lon="13.3070817"><ele>676.0</ele><time>2026-04-04T11:02:49.028Z</time></trkpt><trkpt lat="42.404735" lon="13.307185"><ele>676.0</ele><time>2026-04-04T11:02:50.028Z</time></trkpt><trkpt lat="42.404615" lon="13.3072833"><ele>675.5</ele><time>2026-04-04T11:02:51.028Z</time></trkpt><trkpt lat="42.404495" lon="13.3073883"><ele>675.0</ele><time>2026-04-04T11:02:52.028Z</time></trkpt><trkpt lat="42.4043767" lon="13.3074917"><ele>674.5</ele><time>2026-04-04T11:02:53.028Z</time></trkpt><trkpt lat="42.40426" lon="13.3075967"><ele>674.0</ele><time>2026-04-04T11:02:54.028Z</time></trkpt><trkpt lat="42.4041383" lon="13.3077067"><ele>674.0</ele><time>2026-04-04T11:02:55.027Z</time></trkpt><trkpt lat="42.4040117" lon="13.3078183"><ele>674.0</ele><time>2026-04-04T11:02:56.028Z</time></trkpt><trkpt lat="42.4038867" lon="13.307925"><ele>674.0</ele><time>2026-04-04T11:02:57.028Z</time></trkpt><trkpt lat="42.4037583" lon="13.3080383"><ele>674.3333333333333</ele><time>2026-04-04T11:02:58.028Z</time></trkpt><trkpt lat="42.4036233" lon="13.3081517"><ele>674.6666666666666</ele><time>2026-04-04T11:02:59.028Z</time></trkpt><trkpt lat="42.4034933" lon="13.30827"><ele>675.0</ele><time>2026-04-04T11:03:00.028Z</time></trkpt><trkpt lat="42.4033533" lon="13.3083883"><ele>675.0</ele><time>2026-04-04T11:03:01.028Z</time></trkpt><trkpt lat="42.4032217" lon="13.30851"><ele>675.0</ele><time>2026-04-04T11:03:02.027Z</time></trkpt><trkpt lat="42.403085" lon="13.30863"><ele>675.0</ele><time>2026-04-04T11:03:03.028Z</time></trkpt><trkpt lat="42.4029467" lon="13.30875"><ele>674.0</ele><time>2026-04-04T11:03:04.028Z</time></trkpt><trkpt lat="42.4028083" lon="13.3088817"><ele>673.0</ele><time>2026-04-04T11:03:05.028Z</time></trkpt><trkpt lat="42.4026783" lon="13.3090067"><ele>672.0</ele><time>2026-04-04T11:03:06.028Z</time></trkpt><trkpt lat="42.4025417" lon="13.3091417"><ele>672.0</ele><time>2026-04-04T11:03:07.028Z</time></trkpt><trkpt lat="42.4024083" lon="13.3092667"><ele>672.0</ele><time>2026-04-04T11:03:08.028Z</time></trkpt><trkpt lat="42.40227" lon="13.3093883"><ele>672.0</ele><time>2026-04-04T11:03:09.028Z</time></trkpt><trkpt lat="42.402125" lon="13.3095117"><ele>671.3333333333334</ele><time>2026-04-04T11:03:10.028Z</time></trkpt><trkpt lat="42.40198" lon="13.3096317"><ele>670.6666666666667</ele><time>2026-04-04T11:03:11.028Z</time></trkpt><trkpt lat="42.4018367" lon="13.3097583"><ele>670.0</ele><time>2026-04-04T11:03:12.028Z</time></trkpt><trkpt lat="42.4016967" lon="13.3098833"><ele>670.0</ele><time>2026-04-04T11:03:13.028Z</time></trkpt><trkpt lat="42.4015583" lon="13.3099983"><ele>670.0</ele><time>2026-04-04T11:03:14.028Z</time></trkpt><trkpt lat="42.4014233" lon="13.3101283"><ele>670.0</ele><time>2026-04-04T11:03:15.028Z</time></trkpt><trkpt lat="42.401295" lon="13.310255"><ele>669.75</ele><time>2026-04-04T11:03:16.028Z</time></trkpt><trkpt lat="42.4011683" lon="13.3103717"><ele>669.5</ele><time>2026-04-04T11:03:17.028Z</time></trkpt><trkpt lat="42.4010483" lon="13.310485"><ele>669.25</ele><time>2026-04-04T11:03:18.028Z</time></trkpt><trkpt lat="42.4009317" lon="13.3106033"><ele>669.0</ele><time>2026-04-04T11:03:19.028Z</time></trkpt><trkpt lat="42.40082" lon="13.3107117"><ele>668.75</ele><time>2026-04-04T11:03:20.028Z</time></trkpt><trkpt lat="42.4007133" lon="13.31081"><ele>668.5</ele><time>2026-04-04T11:03:21.028Z</time></trkpt><trkpt lat="42.400605" lon="13.310885"><ele>668.25</ele><time>2026-04-04T11:03:22.028Z</time></trkpt><trkpt lat="42.4005117" lon="13.3109333"><ele>668.0</ele><time>2026-04-04T11:03:23.027Z</time></trkpt><trkpt lat="42.4004117" lon="13.3109567"><ele>667.5999999999999</ele><time>2026-04-04T11:03:24.028Z</time></trkpt><trkpt lat="42.4003267" lon="13.3110217"><ele>667.1999999999999</ele><time>2026-04-04T11:03:25.028Z</time></trkpt><trkpt lat="42.4002683" lon="13.3111283"><ele>666.8</ele><time>2026-04-04T11:03:26.028Z</time></trkpt><trkpt lat="42.4002083" lon="13.3112367"><ele>666.4</ele><time>2026-04-04T11:03:27.028Z</time></trkpt><trkpt lat="42.4001283" lon="13.3113267"><ele>666.0</ele><time>2026-04-04T11:03:28.028Z</time></trkpt><trkpt lat="42.4000233" lon="13.3113867"><ele>666.75</ele><time>2026-04-04T11:03:29.028Z</time></trkpt><trkpt lat="42.3999017" lon="13.31145"><ele>667.5</ele><time>2026-04-04T11:03:30.028Z</time></trkpt><trkpt lat="42.399775" lon="13.311515"><ele>668.25</ele><time>2026-04-04T11:03:31.028Z</time></trkpt><trkpt lat="42.39964" lon="13.3115783"><ele>669.0</ele><time>2026-04-04T11:03:32.028Z</time></trkpt><trkpt lat="42.3995133" lon="13.3116433"><ele>669.0</ele><time>2026-04-04T11:03:33.028Z</time></trkpt><trkpt lat="42.3993733" lon="13.3117083"><ele>669.0</ele><time>2026-04-04T11:03:34.028Z</time></trkpt><trkpt lat="42.3992367" lon="13.3117767"><ele>669.0</ele><time>2026-04-04T11:03:35.028Z</time></trkpt><trkpt lat="42.399095" lon="13.311845"><ele>669.0</ele><time>2026-04-04T11:03:36.028Z</time></trkpt><trkpt lat="42.3989567" lon="13.3119183"><ele>669.3333333333334</ele><time>2026-04-04T11:03:37.028Z</time></trkpt><trkpt lat="42.39881" lon="13.3119867"><ele>669.6666666666667</ele><time>2026-04-04T11:03:38.028Z</time></trkpt><trkpt lat="42.3986667" lon="13.3120533"><ele>670.0</ele><time>2026-04-04T11:03:39.028Z</time></trkpt><trkpt lat="42.39852" lon="13.31213"><ele>670.0</ele><time>2026-04-04T11:03:40.028Z</time></trkpt><trkpt lat="42.3983733" lon="13.312205"><ele>670.0</ele><time>2026-04-04T11:03:41.028Z</time></trkpt><trkpt lat="42.3982317" lon="13.3122817"><ele>670.0</ele><time>2026-04-04T11:03:42.028Z</time></trkpt><trkpt lat="42.3980883" lon="13.3123533"><ele>670.5</ele><time>2026-04-04T11:03:43.028Z</time></trkpt><trkpt lat="42.3979467" lon="13.3124133"><ele>671.0</ele><time>2026-04-04T11:03:44.028Z</time></trkpt><trkpt lat="42.3978033" lon="13.3124683"><ele>671.5</ele><time>2026-04-04T11:03:45.028Z</time></trkpt><trkpt lat="42.3976633" lon="13.312485"><ele>672.0</ele><time>2026-04-04T11:03:46.028Z</time></trkpt><trkpt lat="42.3975217" lon="13.31247"><ele>672.0</ele><time>2026-04-04T11:03:47.028Z</time></trkpt><trkpt lat="42.397385" lon="13.312435"><ele>672.0</ele><time>2026-04-04T11:03:48.027Z</time></trkpt><trkpt lat="42.3972517" lon="13.3123817"><ele>672.0</ele><time>2026-04-04T11:03:49.028Z</time></trkpt><trkpt lat="42.3971217" lon="13.3122967"><ele>672.0</ele><time>2026-04-04T11:03:50.028Z</time></trkpt><trkpt lat="42.39699" lon="13.3121967"><ele>670.6666666666666</ele><time>2026-04-04T11:03:51.028Z</time></trkpt><trkpt lat="42.3968567" lon="13.3121017"><ele>669.3333333333333</ele><time>2026-04-04T11:03:52.028Z</time></trkpt><trkpt lat="42.396715" lon="13.3120133"><ele>668.0</ele><time>2026-04-04T11:03:53.028Z</time></trkpt><trkpt lat="42.3965717" lon="13.31194"><ele>668.0</ele><time>2026-04-04T11:03:54.028Z</time></trkpt><trkpt lat="42.3964367" lon="13.3118867"><ele>668.0</ele><time>2026-04-04T11:03:55.028Z</time></trkpt><trkpt lat="42.3963033" lon="13.31186"><ele>668.0</ele><time>2026-04-04T11:03:56.028Z</time></trkpt><trkpt lat="42.39616" lon="13.3118417"><ele>668.0</ele><time>2026-04-04T11:03:57.028Z</time></trkpt><trkpt lat="42.39602" lon="13.31185"><ele>667.5</ele><time>2026-04-04T11:03:58.028Z</time></trkpt><trkpt lat="42.3958783" lon="13.311885"><ele>667.0</ele><time>2026-04-04T11:03:59.028Z</time></trkpt><trkpt lat="42.3957417" lon="13.3119517"><ele>666.5</ele><time>2026-04-04T11:04:00.027Z</time></trkpt><trkpt lat="42.3956167" lon="13.3120333"><ele>666.0</ele><time>2026-04-04T11:04:01.028Z</time></trkpt><trkpt lat="42.3954883" lon="13.312135"><ele>666.6666666666666</ele><time>2026-04-04T11:04:02.028Z</time></trkpt><trkpt lat="42.3953617" lon="13.3122483"><ele>667.3333333333333</ele><time>2026-04-04T11:04:03.028Z</time></trkpt><trkpt lat="42.39524" lon="13.3123683"><ele>668.0</ele><time>2026-04-04T11:04:04.028Z</time></trkpt><trkpt lat="42.39513" lon="13.3125017"><ele>668.0</ele><time>2026-04-04T11:04:05.028Z</time></trkpt><trkpt lat="42.3950283" lon="13.3126383"><ele>668.0</ele><time>2026-04-04T11:04:06.028Z</time></trkpt><trkpt lat="42.3949267" lon="13.3127833"><ele>668.0</ele><time>2026-04-04T11:04:07.028Z</time></trkpt><trkpt lat="42.3948383" lon="13.3129383"><ele>668.0</ele><time>2026-04-04T11:04:08.028Z</time></trkpt><trkpt lat="42.3947767" lon="13.31311"><ele>668.75</ele><time>2026-04-04T11:04:09.028Z</time></trkpt><trkpt lat="42.3947483" lon="13.3132983"><ele>669.5</ele><time>2026-04-04T11:04:10.028Z</time></trkpt><trkpt lat="42.39474" lon="13.3134867"><ele>670.25</ele><time>2026-04-04T11:04:11.028Z</time></trkpt><trkpt lat="42.3947367" lon="13.31369"><ele>671.0</ele><time>2026-04-04T11:04:12.028Z</time></trkpt><trkpt lat="42.3947283" lon="13.3138967"><ele>671.3333333333333</ele><time>2026-04-04T11:04:13.028Z</time></trkpt><trkpt lat="42.394725" lon="13.3141217"><ele>671.6666666666666</ele><time>2026-04-04T11:04:14.028Z</time></trkpt><trkpt lat="42.3947117" lon="13.314355"><ele>672.0</ele><time>2026-04-04T11:04:15.028Z</time></trkpt><trkpt lat="42.3946933" lon="13.3145933"><ele>668.3333333333334</ele><time>2026-04-04T11:04:16.028Z</time></trkpt><trkpt lat="42.39466" lon="13.3148267"><ele>664.6666666666667</ele><time>2026-04-04T11:04:17.028Z</time></trkpt><trkpt lat="42.394625" lon="13.315065"><ele>661.0</ele><time>2026-04-04T11:04:18.027Z</time></trkpt><trkpt lat="42.3945917" lon="13.3152833"><ele>661.0</ele><time>2026-04-04T11:04:19.028Z</time></trkpt><trkpt lat="42.3945633" lon="13.315505"><ele>661.0</ele><time>2026-04-04T11:04:20.027Z</time></trkpt><trkpt lat="42.3945383" lon="13.3157233"><ele>661.0</ele><time>2026-04-04T11:04:21.028Z</time></trkpt><trkpt lat="42.3945167" lon="13.3159533"><ele>661.0</ele><time>2026-04-04T11:04:22.028Z</time></trkpt><trkpt lat="42.394485" lon="13.316185"><ele>661.0</ele><time>2026-04-04T11:04:23.028Z</time></trkpt><trkpt lat="42.3944567" lon="13.3164317"><ele>661.0</ele><time>2026-04-04T11:04:24.028Z</time></trkpt><trkpt lat="42.3944267" lon="13.3166933"><ele>661.0</ele><time>2026-04-04T11:04:25.028Z</time></trkpt><trkpt lat="42.3943933" lon="13.316955"><ele>661.0</ele><time>2026-04-04T11:04:26.028Z</time></trkpt><trkpt lat="42.394365" lon="13.3172133"><ele>661.0</ele><time>2026-04-04T11:04:27.028Z</time></trkpt><trkpt lat="42.3943367" lon="13.3174767"><ele>661.6666666666667</ele><time>2026-04-04T11:04:28.028Z</time></trkpt><trkpt lat="42.394305" lon="13.3177283"><ele>662.3333333333334</ele><time>2026-04-04T11:04:29.028Z</time></trkpt><trkpt lat="42.3942717" lon="13.3179783"><ele>663.0</ele><time>2026-04-04T11:04:30.028Z</time></trkpt><trkpt lat="42.3942417" lon="13.3182267"><ele>663.0</ele><time>2026-04-04T11:04:31.027Z</time></trkpt><trkpt lat="42.39421" lon="13.3184833"><ele>663.0</ele><time>2026-04-04T11:04:32.028Z</time></trkpt><trkpt lat="42.3941767" lon="13.3187383"><ele>663.0</ele><time>2026-04-04T11:04:33.028Z</time></trkpt><trkpt lat="42.3941533" lon="13.3189833"><ele>663.3333333333334</ele><time>2026-04-04T11:04:34.028Z</time></trkpt><trkpt lat="42.3941217" lon="13.31924"><ele>663.6666666666667</ele><time>2026-04-04T11:04:35.028Z</time></trkpt><trkpt lat="42.3940933" lon="13.3194967"><ele>664.0</ele><time>2026-04-04T11:04:36.028Z</time></trkpt><trkpt lat="42.3940683" lon="13.3197467"><ele>664.0</ele><time>2026-04-04T11:04:37.027Z</time></trkpt><trkpt lat="42.3940417" lon="13.319995"><ele>664.0</ele><time>2026-04-04T11:04:38.028Z</time></trkpt><trkpt lat="42.3940167" lon="13.3202533"><ele>664.0</ele><time>2026-04-04T11:04:39.028Z</time></trkpt><trkpt lat="42.393985" lon="13.3205"><ele>666.0</ele><time>2026-04-04T11:04:40.028Z</time></trkpt><trkpt lat="42.393955" lon="13.320755"><ele>668.0</ele><time>2026-04-04T11:04:41.028Z</time></trkpt><trkpt lat="42.3939233" lon="13.321005"><ele>670.0</ele><time>2026-04-04T11:04:42.028Z</time></trkpt><trkpt lat="42.39389" lon="13.3212517"><ele>669.6666666666667</ele><time>2026-04-04T11:04:43.028Z</time></trkpt><trkpt lat="42.3938633" lon="13.321505"><ele>669.3333333333334</ele><time>2026-04-04T11:04:44.028Z</time></trkpt><trkpt lat="42.3938333" lon="13.32176"><ele>669.0</ele><time>2026-04-04T11:04:45.028Z</time></trkpt><trkpt lat="42.3938033" lon="13.3220233"><ele>667.0</ele><time>2026-04-04T11:04:46.028Z</time></trkpt><trkpt lat="42.3937683" lon="13.3222817"><ele>665.0</ele><time>2026-04-04T11:04:47.028Z</time></trkpt><trkpt lat="42.3937283" lon="13.3225467"><ele>663.0</ele><time>2026-04-04T11:04:48.028Z</time></trkpt><trkpt lat="42.39368" lon="13.3228033"><ele>663.0</ele><time>2026-04-04T11:04:49.028Z</time></trkpt><trkpt lat="42.3936333" lon="13.32305"><ele>663.0</ele><time>2026-04-04T11:04:50.028Z</time></trkpt><trkpt lat="42.39359" lon="13.3232917"><ele>663.0</ele><time>2026-04-04T11:04:51.028Z</time></trkpt><trkpt lat="42.3935383" lon="13.3235433"><ele>663.3333333333334</ele><time>2026-04-04T11:04:52.028Z</time></trkpt><trkpt lat="42.39349" lon="13.3237833"><ele>663.6666666666667</ele><time>2026-04-04T11:04:53.028Z</time></trkpt><trkpt lat="42.3934533" lon="13.3240333"><ele>664.0</ele><time>2026-04-04T11:04:54.028Z</time></trkpt><trkpt lat="42.39341" lon="13.3242883"><ele>664.0</ele><time>2026-04-04T11:04:55.028Z</time></trkpt><trkpt lat="42.3933667" lon="13.3245383"><ele>664.0</ele><time>2026-04-04T11:04:56.028Z</time></trkpt><trkpt lat="42.3933233" lon="13.3247833"><ele>664.0</ele><time>2026-04-04T11:04:57.028Z</time></trkpt><trkpt lat="42.3932783" lon="13.3250383"><ele>665.0</ele><time>2026-04-04T11:04:58.028Z</time></trkpt><trkpt lat="42.3932367" lon="13.3252883"><ele>666.0</ele><time>2026-04-04T11:04:59.028Z</time></trkpt><trkpt lat="42.3931917" lon="13.325545"><ele>667.0</ele><time>2026-04-04T11:05:00.028Z</time></trkpt><trkpt lat="42.3931483" lon="13.3257983"><ele>668.0</ele><time>2026-04-04T11:05:01.028Z</time></trkpt><trkpt lat="42.393105" lon="13.326055"><ele>669.0</ele><time>2026-04-04T11:05:02.028Z</time></trkpt><trkpt lat="42.3930533" lon="13.3262983"><ele>670.0</ele><time>2026-04-04T11:05:03.028Z</time></trkpt><trkpt lat="42.3930033" lon="13.3265433"><ele>667.3333333333334</ele><time>2026-04-04T11:05:04.028Z</time></trkpt><trkpt lat="42.392925" lon="13.3267833"><ele>664.6666666666666</ele><time>2026-04-04T11:05:05.028Z</time></trkpt><trkpt lat="42.3928367" lon="13.3270217"><ele>662.0</ele><time>2026-04-04T11:05:06.028Z</time></trkpt><trkpt lat="42.39274" lon="13.32725"><ele>662.0</ele><time>2026-04-04T11:05:07.028Z</time></trkpt><trkpt lat="42.3926417" lon="13.32748"><ele>662.0</ele><time>2026-04-04T11:05:08.028Z</time></trkpt><trkpt lat="42.3925383" lon="13.3277183"><ele>662.0</ele><time>2026-04-04T11:05:09.028Z</time></trkpt><trkpt lat="42.3924433" lon="13.3279267"><ele>662.3333333333333</ele><time>2026-04-04T11:05:10.028Z</time></trkpt><trkpt lat="42.392355" lon="13.3281433"><ele>662.6666666666666</ele><time>2026-04-04T11:05:11.028Z</time></trkpt><trkpt lat="42.3922667" lon="13.3283517"><ele>663.0</ele><time>2026-04-04T11:05:12.028Z</time></trkpt><trkpt lat="42.3921667" lon="13.3285633"><ele>662.0</ele><time>2026-04-04T11:05:13.028Z</time></trkpt><trkpt lat="42.39205" lon="13.3287583"><ele>661.0</ele><time>2026-04-04T11:05:14.028Z</time></trkpt><trkpt lat="42.3919267" lon="13.328935"><ele>660.0</ele><time>2026-04-04T11:05:15.028Z</time></trkpt><trkpt lat="42.3917983" lon="13.3291033"><ele>660.0</ele><time>2026-04-04T11:05:16.028Z</time></trkpt><trkpt lat="42.3916683" lon="13.32926"><ele>660.0</ele><time>2026-04-04T11:05:17.028Z</time></trkpt><trkpt lat="42.39153" lon="13.329425"><ele>660.0</ele><time>2026-04-04T11:05:18.028Z</time></trkpt><trkpt lat="42.3913817" lon="13.329585"><ele>660.0</ele><time>2026-04-04T11:05:19.028Z</time></trkpt><trkpt lat="42.39123" lon="13.3297383"><ele>660.0</ele><time>2026-04-04T11:05:20.028Z</time></trkpt><trkpt lat="42.3910717" lon="13.3298967"><ele>660.0</ele><time>2026-04-04T11:05:21.028Z</time></trkpt><trkpt lat="42.390915" lon="13.33005"><ele>660.0</ele><time>2026-04-04T11:05:22.028Z</time></trkpt><trkpt lat="42.390755" lon="13.3302067"><ele>660.0</ele><time>2026-04-04T11:05:23.028Z</time></trkpt><trkpt lat="42.3905917" lon="13.33037"><ele>660.0</ele><time>2026-04-04T11:05:24.028Z</time></trkpt><trkpt lat="42.39043" lon="13.33053"><ele>659.6666666666666</ele><time>2026-04-04T11:05:25.028Z</time></trkpt><trkpt lat="42.3902683" lon="13.3306917"><ele>659.3333333333333</ele><time>2026-04-04T11:05:26.028Z</time></trkpt><trkpt lat="42.3901067" lon="13.3308567"><ele>659.0</ele><time>2026-04-04T11:05:27.028Z</time></trkpt><trkpt lat="42.38995" lon="13.3310217"><ele>659.0</ele><time>2026-04-04T11:05:28.028Z</time></trkpt><trkpt lat="42.3897917" lon="13.331185"><ele>659.0</ele><time>2026-04-04T11:05:29.028Z</time></trkpt><trkpt lat="42.3896267" lon="13.3313517"><ele>659.0</ele><time>2026-04-04T11:05:30.028Z</time></trkpt><trkpt lat="42.3894633" lon="13.33152"><ele>658.0</ele><time>2026-04-04T11:05:31.028Z</time></trkpt><trkpt lat="42.3893033" lon="13.3316833"><ele>657.0</ele><time>2026-04-04T11:05:32.028Z</time></trkpt><trkpt lat="42.389145" lon="13.3318467"><ele>656.0</ele><time>2026-04-04T11:05:33.028Z</time></trkpt><trkpt lat="42.38898" lon="13.332015"><ele>656.0</ele><time>2026-04-04T11:05:34.028Z</time></trkpt><trkpt lat="42.38882" lon="13.3321917"><ele>656.0</ele><time>2026-04-04T11:05:35.028Z</time></trkpt><trkpt lat="42.38866" lon="13.3323667"><ele>656.0</ele><time>2026-04-04T11:05:36.028Z</time></trkpt><trkpt lat="42.3885033" lon="13.332535"><ele>656.3333333333333</ele><time>2026-04-04T11:05:37.028Z</time></trkpt><trkpt lat="42.3883483" lon="13.3327017"><ele>656.6666666666666</ele><time>2026-04-04T11:05:38.028Z</time></trkpt><trkpt lat="42.3881917" lon="13.3328767"><ele>657.0</ele><time>2026-04-04T11:05:39.028Z</time></trkpt><trkpt lat="42.38804" lon="13.3330417"><ele>656.0</ele><time>2026-04-04T11:05:40.028Z</time></trkpt><trkpt lat="42.3878733" lon="13.3332283"><ele>655.0</ele><time>2026-04-04T11:05:41.028Z</time></trkpt><trkpt lat="42.3877167" lon="13.3334083"><ele>654.0</ele><time>2026-04-04T11:05:42.028Z</time></trkpt><trkpt lat="42.3875567" lon="13.33359"><ele>654.0</ele><time>2026-04-04T11:05:43.028Z</time></trkpt><trkpt lat="42.3874033" lon="13.33377"><ele>654.0</ele><time>2026-04-04T11:05:44.028Z</time></trkpt><trkpt lat="42.387245" lon="13.333965"><ele>654.0</ele><time>2026-04-04T11:05:45.028Z</time></trkpt><trkpt lat="42.3870883" lon="13.3341667"><ele>653.6666666666666</ele><time>2026-04-04T11:05:46.028Z</time></trkpt><trkpt lat="42.3869517" lon="13.334345"><ele>653.3333333333333</ele><time>2026-04-04T11:05:47.028Z</time></trkpt><trkpt lat="42.3868133" lon="13.3345367"><ele>653.0</ele><time>2026-04-04T11:05:48.028Z</time></trkpt><trkpt lat="42.38668" lon="13.3347217"><ele>653.0</ele><time>2026-04-04T11:05:49.027Z</time></trkpt><trkpt lat="42.386545" lon="13.334935"><ele>653.0</ele><time>2026-04-04T11:05:50.028Z</time></trkpt><trkpt lat="42.3864167" lon="13.3351467"><ele>653.0</ele><time>2026-04-04T11:05:51.028Z</time></trkpt><trkpt lat="42.3863" lon="13.3353517"><ele>652.3333333333333</ele><time>2026-04-04T11:05:52.028Z</time></trkpt><trkpt lat="42.3861883" lon="13.3355633"><ele>651.6666666666666</ele><time>2026-04-04T11:05:53.028Z</time></trkpt><trkpt lat="42.3860733" lon="13.3357733"><ele>651.0</ele><time>2026-04-04T11:05:54.028Z</time></trkpt><trkpt lat="42.3859633" lon="13.335985"><ele>651.0</ele><time>2026-04-04T11:05:55.028Z</time></trkpt><trkpt lat="42.3858533" lon="13.336205"><ele>651.0</ele><time>2026-04-04T11:05:56.028Z</time></trkpt><trkpt lat="42.3857467" lon="13.33643"><ele>651.0</ele><time>2026-04-04T11:05:57.028Z</time></trkpt><trkpt lat="42.38564" lon="13.3366517"><ele>651.3333333333334</ele><time>2026-04-04T11:05:58.028Z</time></trkpt><trkpt lat="42.3855417" lon="13.3368783"><ele>651.6666666666667</ele><time>2026-04-04T11:05:59.027Z</time></trkpt><trkpt lat="42.385445" lon="13.3370883"><ele>652.0</ele><time>2026-04-04T11:06:00.028Z</time></trkpt><trkpt lat="42.385345" lon="13.3373"><ele>651.3333333333334</ele><time>2026-04-04T11:06:01.028Z</time></trkpt><trkpt lat="42.3852433" lon="13.3375133"><ele>650.6666666666666</ele><time>2026-04-04T11:06:02.028Z</time></trkpt><trkpt lat="42.38514" lon="13.3377317"><ele>650.0</ele><time>2026-04-04T11:06:03.028Z</time></trkpt><trkpt lat="42.3850433" lon="13.3379417"><ele>650.6666666666666</ele><time>2026-04-04T11:06:04.028Z</time></trkpt><trkpt lat="42.3849433" lon="13.3381433"><ele>651.3333333333334</ele><time>2026-04-04T11:06:05.027Z</time></trkpt><trkpt lat="42.384845" lon="13.338345"><ele>652.0</ele><time>2026-04-04T11:06:06.028Z</time></trkpt><trkpt lat="42.384745" lon="13.3385433"><ele>650.6666666666667</ele><time>2026-04-04T11:06:07.028Z</time></trkpt><trkpt lat="42.38466" lon="13.3387417"><ele>649.3333333333334</ele><time>2026-04-04T11:06:08.028Z</time></trkpt><trkpt lat="42.3845633" lon="13.338955"><ele>648.0</ele><time>2026-04-04T11:06:09.028Z</time></trkpt><trkpt lat="42.3844633" lon="13.3391683"><ele>648.0</ele><time>2026-04-04T11:06:10.027Z</time></trkpt><trkpt lat="42.38437" lon="13.3393717"><ele>648.0</ele><time>2026-04-04T11:06:11.028Z</time></trkpt><trkpt lat="42.3842767" lon="13.33958"><ele>648.0</ele><time>2026-04-04T11:06:12.028Z</time></trkpt><trkpt lat="42.3841817" lon="13.3397833"><ele>648.3333333333334</ele><time>2026-04-04T11:06:13.028Z</time></trkpt><trkpt lat="42.3840933" lon="13.3399833"><ele>648.6666666666667</ele><time>2026-04-04T11:06:14.028Z</time></trkpt><trkpt lat="42.3840017" lon="13.34019"><ele>649.0</ele><time>2026-04-04T11:06:15.028Z</time></trkpt><trkpt lat="42.3839117" lon="13.3403833"><ele>648.0</ele><time>2026-04-04T11:06:16.028Z</time></trkpt><trkpt lat="42.38382" lon="13.3405683"><ele>647.0</ele><time>2026-04-04T11:06:17.028Z</time></trkpt><trkpt lat="42.3837333" lon="13.3407517"><ele>646.0</ele><time>2026-04-04T11:06:18.028Z</time></trkpt><trkpt lat="42.3836533" lon="13.3409283"><ele>646.0</ele><time>2026-04-04T11:06:19.028Z</time></trkpt><trkpt lat="42.3835783" lon="13.341085"><ele>646.0</ele><time>2026-04-04T11:06:20.028Z</time></trkpt><trkpt lat="42.3835117" lon="13.341225"><ele>646.0</ele><time>2026-04-04T11:06:21.028Z</time></trkpt><trkpt lat="42.3834383" lon="13.3413517"><ele>646.0</ele><time>2026-04-04T11:06:22.028Z</time></trkpt><trkpt lat="42.3833483" lon="13.3414567"><ele>645.75</ele><time>2026-04-04T11:06:23.028Z</time></trkpt><trkpt lat="42.3832383" lon="13.3415583"><ele>645.5</ele><time>2026-04-04T11:06:24.028Z</time></trkpt><trkpt lat="42.3831233" lon="13.3416467"><ele>645.25</ele><time>2026-04-04T11:06:25.028Z</time></trkpt><trkpt lat="42.3830133" lon="13.3417383"><ele>645.0</ele><time>2026-04-04T11:06:26.028Z</time></trkpt><trkpt lat="42.3829017" lon="13.3418367"><ele>645.0</ele><time>2026-04-04T11:06:27.028Z</time></trkpt><trkpt lat="42.38279" lon="13.3419317"><ele>645.0</ele><time>2026-04-04T11:06:28.028Z</time></trkpt><trkpt lat="42.3826817" lon="13.3420283"><ele>645.0</ele><time>2026-04-04T11:06:29.028Z</time></trkpt><trkpt lat="42.38258" lon="13.3421283"><ele>645.0</ele><time>2026-04-04T11:06:30.027Z</time></trkpt><trkpt lat="42.3824833" lon="13.3422283"><ele>644.75</ele><time>2026-04-04T11:06:31.028Z</time></trkpt><trkpt lat="42.3823883" lon="13.342335"><ele>644.5</ele><time>2026-04-04T11:06:32.027Z</time></trkpt><trkpt lat="42.3822917" lon="13.3424467"><ele>644.25</ele><time>2026-04-04T11:06:33.028Z</time></trkpt><trkpt lat="42.3822017" lon="13.3425833"><ele>644.0</ele><time>2026-04-04T11:06:34.028Z</time></trkpt><trkpt lat="42.3821083" lon="13.3427333"><ele>644.0</ele><time>2026-04-04T11:06:35.028Z</time></trkpt><trkpt lat="42.382015" lon="13.3428883"><ele>644.0</ele><time>2026-04-04T11:06:36.028Z</time></trkpt><trkpt lat="42.3819133" lon="13.3430567"><ele>644.0</ele><time>2026-04-04T11:06:37.028Z</time></trkpt><trkpt lat="42.38181" lon="13.3432167"><ele>645.3333333333333</ele><time>2026-04-04T11:06:38.028Z</time></trkpt><trkpt lat="42.3817067" lon="13.3433783"><ele>646.6666666666666</ele><time>2026-04-04T11:06:39.028Z</time></trkpt><trkpt lat="42.3815917" lon="13.3435317"><ele>648.0</ele><time>2026-04-04T11:06:40.028Z</time></trkpt><trkpt lat="42.3814633" lon="13.343665"><ele>648.3333333333334</ele><time>2026-04-04T11:06:41.027Z</time></trkpt><trkpt lat="42.3813267" lon="13.34378"><ele>648.6666666666667</ele><time>2026-04-04T11:06:42.028Z</time></trkpt><trkpt lat="42.381195" lon="13.343895"><ele>649.0</ele><time>2026-04-04T11:06:43.028Z</time></trkpt><trkpt lat="42.3810533" lon="13.3440133"><ele>649.0</ele><time>2026-04-04T11:06:44.028Z</time></trkpt><trkpt lat="42.38092" lon="13.34414"><ele>649.0</ele><time>2026-04-04T11:06:45.028Z</time></trkpt><trkpt lat="42.3807817" lon="13.3442783"><ele>649.0</ele><time>2026-04-04T11:06:46.028Z</time></trkpt><trkpt lat="42.380645" lon="13.3444367"><ele>647.6666666666667</ele><time>2026-04-04T11:06:47.028Z</time></trkpt><trkpt lat="42.3805017" lon="13.3445917"><ele>646.3333333333334</ele><time>2026-04-04T11:06:48.028Z</time></trkpt><trkpt lat="42.3803517" lon="13.3447533"><ele>645.0</ele><time>2026-04-04T11:06:49.028Z</time></trkpt><trkpt lat="42.3802033" lon="13.344915"><ele>645.0</ele><time>2026-04-04T11:06:50.028Z</time></trkpt><trkpt lat="42.38006" lon="13.345075"><ele>645.0</ele><time>2026-04-04T11:06:51.027Z</time></trkpt><trkpt lat="42.379915" lon="13.3452333"><ele>645.0</ele><time>2026-04-04T11:06:52.027Z</time></trkpt><trkpt lat="42.3797783" lon="13.3453883"><ele>644.3333333333334</ele><time>2026-04-04T11:06:53.028Z</time></trkpt><trkpt lat="42.3796467" lon="13.34554"><ele>643.6666666666667</ele><time>2026-04-04T11:06:54.028Z</time></trkpt><trkpt lat="42.3795133" lon="13.3456867"><ele>643.0</ele><time>2026-04-04T11:06:55.028Z</time></trkpt><trkpt lat="42.37938" lon="13.3458283"><ele>644.3333333333334</ele><time>2026-04-04T11:06:56.028Z</time></trkpt><trkpt lat="42.379245" lon="13.34596"><ele>645.6666666666666</ele><time>2026-04-04T11:06:57.028Z</time></trkpt><trkpt lat="42.3791" lon="13.34605"><ele>647.0</ele><time>2026-04-04T11:06:58.028Z</time></trkpt><trkpt lat="42.3789433" lon="13.34612"><ele>646.0</ele><time>2026-04-04T11:06:59.028Z</time></trkpt><trkpt lat="42.3787883" lon="13.3461817"><ele>645.0</ele><time>2026-04-04T11:07:00.028Z</time></trkpt><trkpt lat="42.3786333" lon="13.3462283"><ele>644.0</ele><time>2026-04-04T11:07:01.028Z</time></trkpt><trkpt lat="42.3784733" lon="13.3462517"><ele>644.0</ele><time>2026-04-04T11:07:02.028Z</time></trkpt><trkpt lat="42.37831" lon="13.3462733"><ele>644.0</ele><time>2026-04-04T11:07:03.028Z</time></trkpt><trkpt lat="42.3781433" lon="13.34629"><ele>644.0</ele><time>2026-04-04T11:07:04.028Z</time></trkpt><trkpt lat="42.377975" lon="13.3463083"><ele>643.6666666666666</ele><time>2026-04-04T11:07:05.028Z</time></trkpt><trkpt lat="42.3778117" lon="13.34634"><ele>643.3333333333334</ele><time>2026-04-04T11:07:06.028Z</time></trkpt><trkpt lat="42.3776517" lon="13.3463817"><ele>643.0</ele><time>2026-04-04T11:07:07.028Z</time></trkpt><trkpt lat="42.3775" lon="13.3464367"><ele>643.0</ele><time>2026-04-04T11:07:08.028Z</time></trkpt><trkpt lat="42.3773517" lon="13.346505"><ele>643.0</ele><time>2026-04-04T11:07:09.028Z</time></trkpt><trkpt lat="42.37721" lon="13.3465883"><ele>643.0</ele><time>2026-04-04T11:07:10.028Z</time></trkpt><trkpt lat="42.37707" lon="13.3466817"><ele>643.0</ele><time>2026-04-04T11:07:11.028Z</time></trkpt><trkpt lat="42.3769317" lon="13.3467817"><ele>643.0</ele><time>2026-04-04T11:07:12.028Z</time></trkpt><trkpt lat="42.3767933" lon="13.346885"><ele>643.0</ele><time>2026-04-04T11:07:13.028Z</time></trkpt><trkpt lat="42.3766517" lon="13.34699"><ele>643.0</ele><time>2026-04-04T11:07:14.028Z</time></trkpt><trkpt lat="42.3765067" lon="13.3470967"><ele>643.0</ele><time>2026-04-04T11:07:15.028Z</time></trkpt><trkpt lat="42.3763583" lon="13.3472083"><ele>643.0</ele><time>2026-04-04T11:07:16.028Z</time></trkpt><trkpt lat="42.3762083" lon="13.3473183"><ele>643.3333333333334</ele><time>2026-04-04T11:07:17.028Z</time></trkpt><trkpt lat="42.3760567" lon="13.347425"><ele>643.6666666666666</ele><time>2026-04-04T11:07:18.028Z</time></trkpt><trkpt lat="42.375905" lon="13.3475367"><ele>644.0</ele><time>2026-04-04T11:07:19.028Z</time></trkpt><trkpt lat="42.3757517" lon="13.34765"><ele>644.0</ele><time>2026-04-04T11:07:20.028Z</time></trkpt><trkpt lat="42.3756067" lon="13.34776"><ele>644.0</ele><time>2026-04-04T11:07:21.028Z</time></trkpt><trkpt lat="42.3754533" lon="13.347875"><ele>644.0</ele><time>2026-04-04T11:07:22.028Z</time></trkpt><trkpt lat="42.3753" lon="13.34799"><ele>643.6666666666666</ele><time>2026-04-04T11:07:23.028Z</time></trkpt><trkpt lat="42.3751517" lon="13.3481117"><ele>643.3333333333334</ele><time>2026-04-04T11:07:24.028Z</time></trkpt><trkpt lat="42.3750067" lon="13.34824"><ele>643.0</ele><time>2026-04-04T11:07:25.028Z</time></trkpt><trkpt lat="42.3748633" lon="13.3483683"><ele>643.0</ele><time>2026-04-04T11:07:26.028Z</time></trkpt><trkpt lat="42.3747267" lon="13.3485017"><ele>643.0</ele><time>2026-04-04T11:07:27.028Z</time></trkpt><trkpt lat="42.374595" lon="13.34864"><ele>643.0</ele><time>2026-04-04T11:07:28.028Z</time></trkpt><trkpt lat="42.374465" lon="13.3487733"><ele>643.6666666666667</ele><time>2026-04-04T11:07:29.028Z</time></trkpt><trkpt lat="42.3743417" lon="13.3489033"><ele>644.3333333333334</ele><time>2026-04-04T11:07:30.028Z</time></trkpt><trkpt lat="42.3742217" lon="13.3490383"><ele>645.0</ele><time>2026-04-04T11:07:31.028Z</time></trkpt><trkpt lat="42.3741033" lon="13.3491767"><ele>645.0</ele><time>2026-04-04T11:07:32.028Z</time></trkpt><trkpt lat="42.3739967" lon="13.3493067"><ele>645.0</ele><time>2026-04-04T11:07:33.028Z</time></trkpt><trkpt lat="42.3738967" lon="13.3494283"><ele>645.0</ele><time>2026-04-04T11:07:34.028Z</time></trkpt><trkpt lat="42.3738017" lon="13.34955"><ele>645.0</ele><time>2026-04-04T11:07:35.028Z</time></trkpt><trkpt lat="42.3737183" lon="13.34967"><ele>645.2</ele><time>2026-04-04T11:07:36.028Z</time></trkpt><trkpt lat="42.3736283" lon="13.3497817"><ele>645.4</ele><time>2026-04-04T11:07:37.028Z</time></trkpt><trkpt lat="42.3735483" lon="13.3498667"><ele>645.5999999999999</ele><time>2026-04-04T11:07:38.028Z</time></trkpt><trkpt lat="42.3734733" lon="13.349945"><ele>645.8</ele><time>2026-04-04T11:07:39.028Z</time></trkpt><trkpt lat="42.3734033" lon="13.3500033"><ele>646.0</ele><time>2026-04-04T11:07:40.027Z</time></trkpt><trkpt lat="42.3733333" lon="13.35004"><ele>646.0</ele><time>2026-04-04T11:07:41.028Z</time></trkpt><trkpt lat="42.37326" lon="13.350075"><ele>646.0</ele><time>2026-04-04T11:07:42.027Z</time></trkpt><trkpt lat="42.3731883" lon="13.3501483"><ele>646.0</ele><time>2026-04-04T11:07:43.028Z</time></trkpt><trkpt lat="42.373135" lon="13.35026"><ele>646.0</ele><time>2026-04-04T11:07:44.028Z</time></trkpt><trkpt lat="42.3730883" lon="13.3503983"><ele>646.0</ele><time>2026-04-04T11:07:45.027Z</time></trkpt><trkpt lat="42.3730317" lon="13.3505467"><ele>646.5</ele><time>2026-04-04T11:07:46.028Z</time></trkpt><trkpt lat="42.372955" lon="13.350695"><ele>647.0</ele><time>2026-04-04T11:07:47.028Z</time></trkpt><trkpt lat="42.3728683" lon="13.3508417"><ele>647.5</ele><time>2026-04-04T11:07:48.028Z</time></trkpt><trkpt lat="42.372785" lon="13.3509967"><ele>648.0</ele><time>2026-04-04T11:07:49.028Z</time></trkpt><trkpt lat="42.3727033" lon="13.3511583"><ele>648.0</ele><time>2026-04-04T11:07:50.028Z</time></trkpt><trkpt lat="42.372625" lon="13.351325"><ele>648.0</ele><time>2026-04-04T11:07:51.028Z</time></trkpt><trkpt lat="42.372545" lon="13.351495"><ele>648.0</ele><time>2026-04-04T11:07:52.028Z</time></trkpt><trkpt lat="42.3724633" lon="13.3516683"><ele>648.0</ele><time>2026-04-04T11:07:53.028Z</time></trkpt><trkpt lat="42.37238" lon="13.3518417"><ele>648.0</ele><time>2026-04-04T11:07:54.028Z</time></trkpt><trkpt lat="42.3722967" lon="13.35201"><ele>648.0</ele><time>2026-04-04T11:07:55.028Z</time></trkpt><trkpt lat="42.3722233" lon="13.3521667"><ele>648.0</ele><time>2026-04-04T11:07:56.028Z</time></trkpt><trkpt lat="42.3721467" lon="13.3523217"><ele>648.0</ele><time>2026-04-04T11:07:57.028Z</time></trkpt><trkpt lat="42.3720717" lon="13.3524817"><ele>648.0</ele><time>2026-04-04T11:07:58.028Z</time></trkpt><trkpt lat="42.3719933" lon="13.3526433"><ele>648.0</ele><time>2026-04-04T11:07:59.028Z</time></trkpt><trkpt lat="42.3719167" lon="13.3528033"><ele>648.0</ele><time>2026-04-04T11:08:00.028Z</time></trkpt><trkpt lat="42.37184" lon="13.3529617"><ele>648.0</ele><time>2026-04-04T11:08:01.028Z</time></trkpt><trkpt lat="42.3717667" lon="13.3531183"><ele>648.25</ele><time>2026-04-04T11:08:02.028Z</time></trkpt><trkpt lat="42.37169" lon="13.353275"><ele>648.5</ele><time>2026-04-04T11:08:03.028Z</time></trkpt><trkpt lat="42.3716183" lon="13.353425"><ele>648.75</ele><time>2026-04-04T11:08:04.028Z</time></trkpt><trkpt lat="42.3715517" lon="13.3535683"><ele>649.0</ele><time>2026-04-04T11:08:05.028Z</time></trkpt><trkpt lat="42.3714867" lon="13.3537083"><ele>649.0</ele><time>2026-04-04T11:08:06.028Z</time></trkpt><trkpt lat="42.3714233" lon="13.353845"><ele>649.0</ele><time>2026-04-04T11:08:07.028Z</time></trkpt><trkpt lat="42.3713583" lon="13.3539817"><ele>649.0</ele><time>2026-04-04T11:08:08.028Z</time></trkpt><trkpt lat="42.371295" lon="13.354115"><ele>649.0</ele><time>2026-04-04T11:08:09.028Z</time></trkpt><trkpt lat="42.3712317" lon="13.3542483"><ele>649.25</ele><time>2026-04-04T11:08:10.028Z</time></trkpt><trkpt lat="42.3711617" lon="13.354385"><ele>649.5</ele><time>2026-04-04T11:08:11.028Z</time></trkpt><trkpt lat="42.3710983" lon="13.3545267"><ele>649.75</ele><time>2026-04-04T11:08:12.028Z</time></trkpt><trkpt lat="42.371025" lon="13.3546517"><ele>650.0</ele><time>2026-04-04T11:08:13.028Z</time></trkpt><trkpt lat="42.370955" lon="13.3547833"><ele>650.0</ele><time>2026-04-04T11:08:14.027Z</time></trkpt><trkpt lat="42.3708883" lon="13.3549133"><ele>650.0</ele><time>2026-04-04T11:08:15.028Z</time></trkpt><trkpt lat="42.3708233" lon="13.355035"><ele>650.0</ele><time>2026-04-04T11:08:16.028Z</time></trkpt><trkpt lat="42.3707533" lon="13.3551583"><ele>650.0</ele><time>2026-04-04T11:08:17.028Z</time></trkpt><trkpt lat="42.3706817" lon="13.35529"><ele>650.0</ele><time>2026-04-04T11:08:18.028Z</time></trkpt><trkpt lat="42.3706033" lon="13.3554267"><ele>650.0</ele><time>2026-04-04T11:08:19.027Z</time></trkpt><trkpt lat="42.3705233" lon="13.3555617"><ele>650.0</ele><time>2026-04-04T11:08:20.028Z</time></trkpt><trkpt lat="42.3704467" lon="13.35569"><ele>650.0</ele><time>2026-04-04T11:08:21.028Z</time></trkpt><trkpt lat="42.3703733" lon="13.3558167"><ele>649.6666666666666</ele><time>2026-04-04T11:08:22.028Z</time></trkpt><trkpt lat="42.3703033" lon="13.3559383"><ele>649.3333333333334</ele><time>2026-04-04T11:08:23.028Z</time></trkpt><trkpt lat="42.3702317" lon="13.35607"><ele>649.0</ele><time>2026-04-04T11:08:24.028Z</time></trkpt><trkpt lat="42.369975" lon="13.3564417"><ele>649.0</ele><time>2026-04-04T11:08:27.028Z</time></trkpt><trkpt lat="42.36989" lon="13.356575"><ele>649.0</ele><time>2026-04-04T11:08:28.028Z</time></trkpt><trkpt lat="42.3696867" lon="13.35694"><ele>649.0</ele><time>2026-04-04T11:08:31.028Z</time></trkpt><trkpt lat="42.3696333" lon="13.3570667"><ele>649.0</ele><time>2026-04-04T11:08:32.028Z</time></trkpt><trkpt lat="42.3695683" lon="13.3571933"><ele>649.0</ele><time>2026-04-04T11:08:33.028Z</time></trkpt><trkpt lat="42.369515" lon="13.3573133"><ele>649.0</ele><time>2026-04-04T11:08:34.028Z</time></trkpt><trkpt lat="42.3694567" lon="13.3574167"><ele>649.0</ele><time>2026-04-04T11:08:35.028Z</time></trkpt><trkpt lat="42.36939" lon="13.3574883"><ele>649.3333333333334</ele><time>2026-04-04T11:08:36.028Z</time></trkpt><trkpt lat="42.3693167" lon="13.3575433"><ele>649.6666666666667</ele><time>2026-04-04T11:08:37.028Z</time></trkpt><trkpt lat="42.36925" lon="13.3575767"><ele>650.0</ele><time>2026-04-04T11:08:38.028Z</time></trkpt><trkpt lat="42.3691717" lon="13.357595"><ele>650.3333333333334</ele><time>2026-04-04T11:08:39.028Z</time></trkpt><trkpt lat="42.36909" lon="13.3576167"><ele>650.6666666666666</ele><time>2026-04-04T11:08:40.028Z</time></trkpt><trkpt lat="42.3690167" lon="13.3576483"><ele>651.0</ele><time>2026-04-04T11:08:41.028Z</time></trkpt><trkpt lat="42.36895" lon="13.3577017"><ele>651.0</ele><time>2026-04-04T11:08:42.028Z</time></trkpt><trkpt lat="42.3689" lon="13.35777"><ele>651.0</ele><time>2026-04-04T11:08:43.028Z</time></trkpt><trkpt lat="42.3688767" lon="13.3578517"><ele>651.0</ele><time>2026-04-04T11:08:44.028Z</time></trkpt><trkpt lat="42.368875" lon="13.3579433"><ele>651.0</ele><time>2026-04-04T11:08:45.028Z</time></trkpt><trkpt lat="42.3688933" lon="13.3580333"><ele>651.0</ele><time>2026-04-04T11:08:46.028Z</time></trkpt><trkpt lat="42.3689133" lon="13.3581167"><ele>651.0</ele><time>2026-04-04T11:08:47.028Z</time></trkpt><trkpt lat="42.3689267" lon="13.3582083"><ele>651.0</ele><time>2026-04-04T11:08:48.028Z</time></trkpt><trkpt lat="42.3689217" lon="13.3583133"><ele>650.8</ele><time>2026-04-04T11:08:49.028Z</time></trkpt><trkpt lat="42.3688967" lon="13.3584267"><ele>650.5999999999999</ele><time>2026-04-04T11:08:50.028Z</time></trkpt><trkpt lat="42.3688467" lon="13.3585567"><ele>650.4</ele><time>2026-04-04T11:08:51.028Z</time></trkpt><trkpt lat="42.3687833" lon="13.358685"><ele>650.2</ele><time>2026-04-04T11:08:52.028Z</time></trkpt><trkpt lat="42.3687117" lon="13.35881"><ele>650.0</ele><time>2026-04-04T11:08:53.028Z</time></trkpt><trkpt lat="42.3686333" lon="13.3589383"><ele>650.0</ele><time>2026-04-04T11:08:54.028Z</time></trkpt><trkpt lat="42.3685583" lon="13.3590667"><ele>650.0</ele><time>2026-04-04T11:08:55.028Z</time></trkpt><trkpt lat="42.3684767" lon="13.3592067"><ele>650.0</ele><time>2026-04-04T11:08:56.028Z</time></trkpt><trkpt lat="42.3683967" lon="13.3593433"><ele>650.0</ele><time>2026-04-04T11:08:57.028Z</time></trkpt><trkpt lat="42.3683183" lon="13.3594817"><ele>650.0</ele><time>2026-04-04T11:08:58.028Z</time></trkpt><trkpt lat="42.3682467" lon="13.35961"><ele>650.0</ele><time>2026-04-04T11:08:59.028Z</time></trkpt><trkpt lat="42.3681767" lon="13.35972"><ele>650.0</ele><time>2026-04-04T11:09:00.028Z</time></trkpt><trkpt lat="42.368115" lon="13.3598283"><ele>650.0</ele><time>2026-04-04T11:09:01.028Z</time></trkpt><trkpt lat="42.3680533" lon="13.35993"><ele>650.0</ele><time>2026-04-04T11:09:02.028Z</time></trkpt><trkpt lat="42.3679867" lon="13.36003"><ele>649.75</ele><time>2026-04-04T11:09:03.028Z</time></trkpt><trkpt lat="42.3679283" lon="13.36016"><ele>649.5</ele><time>2026-04-04T11:09:04.028Z</time></trkpt><trkpt lat="42.367865" lon="13.3602933"><ele>649.25</ele><time>2026-04-04T11:09:05.028Z</time></trkpt><trkpt lat="42.3677933" lon="13.3604317"><ele>649.0</ele><time>2026-04-04T11:09:06.028Z</time></trkpt><trkpt lat="42.3677183" lon="13.3605717"><ele>649.5</ele><time>2026-04-04T11:09:07.028Z</time></trkpt><trkpt lat="42.3676417" lon="13.360725"><ele>650.0</ele><time>2026-04-04T11:09:08.028Z</time></trkpt><trkpt lat="42.3675583" lon="13.3608717"><ele>650.5</ele><time>2026-04-04T11:09:09.028Z</time></trkpt><trkpt lat="42.3674633" lon="13.3610167"><ele>651.0</ele><time>2026-04-04T11:09:10.028Z</time></trkpt><trkpt lat="42.3673733" lon="13.3611533"><ele>651.0</ele><time>2026-04-04T11:09:11.028Z</time></trkpt><trkpt lat="42.367295" lon="13.3612917"><ele>651.0</ele><time>2026-04-04T11:09:12.028Z</time></trkpt><trkpt lat="42.3672133" lon="13.36143"><ele>651.0</ele><time>2026-04-04T11:09:13.028Z</time></trkpt><trkpt lat="42.3671367" lon="13.3615633"><ele>651.0</ele><time>2026-04-04T11:09:14.028Z</time></trkpt><trkpt lat="42.36706" lon="13.3617"><ele>651.5</ele><time>2026-04-04T11:09:15.028Z</time></trkpt><trkpt lat="42.3669867" lon="13.361835"><ele>652.0</ele><time>2026-04-04T11:09:16.028Z</time></trkpt><trkpt lat="42.3669217" lon="13.36196"><ele>652.5</ele><time>2026-04-04T11:09:17.028Z</time></trkpt><trkpt lat="42.3668583" lon="13.3620783"><ele>653.0</ele><time>2026-04-04T11:09:18.028Z</time></trkpt><trkpt lat="42.3667833" lon="13.36221"><ele>653.0</ele><time>2026-04-04T11:09:19.028Z</time></trkpt><trkpt lat="42.366715" lon="13.3623333"><ele>653.0</ele><time>2026-04-04T11:09:20.028Z</time></trkpt><trkpt lat="42.3666417" lon="13.3624567"><ele>653.0</ele><time>2026-04-04T11:09:21.028Z</time></trkpt><trkpt lat="42.36657" lon="13.3625817"><ele>653.0</ele><time>2026-04-04T11:09:22.028Z</time></trkpt><trkpt lat="42.3664917" lon="13.3627167"><ele>653.0</ele><time>2026-04-04T11:09:23.028Z</time></trkpt><trkpt lat="42.3664133" lon="13.3628567"><ele>653.0</ele><time>2026-04-04T11:09:24.028Z</time></trkpt><trkpt lat="42.3663417" lon="13.3629883"><ele>653.0</ele><time>2026-04-04T11:09:25.028Z</time></trkpt><trkpt lat="42.3662717" lon="13.3631133"><ele>653.0</ele><time>2026-04-04T11:09:26.027Z</time></trkpt><trkpt lat="42.3662083" lon="13.363235"><ele>652.2</ele><time>2026-04-04T11:09:27.028Z</time></trkpt><trkpt lat="42.3661517" lon="13.3633583"><ele>651.4</ele><time>2026-04-04T11:09:28.028Z</time></trkpt><trkpt lat="42.3660917" lon="13.3634733"><ele>650.6</ele><time>2026-04-04T11:09:29.027Z</time></trkpt><trkpt lat="42.3660117" lon="13.3635883"><ele>649.8000000000001</ele><time>2026-04-04T11:09:30.028Z</time></trkpt><trkpt lat="42.3659383" lon="13.3637117"><ele>649.0</ele><time>2026-04-04T11:09:31.028Z</time></trkpt><trkpt lat="42.3658617" lon="13.3638333"><ele>649.6</ele><time>2026-04-04T11:09:32.028Z</time></trkpt><trkpt lat="42.3657883" lon="13.3639533"><ele>650.2</ele><time>2026-04-04T11:09:33.028Z</time></trkpt><trkpt lat="42.3657133" lon="13.3640683"><ele>650.8000000000001</ele><time>2026-04-04T11:09:34.028Z</time></trkpt><trkpt lat="42.36565" lon="13.3641733"><ele>651.4000000000001</ele><time>2026-04-04T11:09:35.028Z</time></trkpt><trkpt lat="42.3655933" lon="13.3642883"><ele>652.0</ele><time>2026-04-04T11:09:36.028Z</time></trkpt><trkpt lat="42.3655333" lon="13.3643983"><ele>651.4000000000001</ele><time>2026-04-04T11:09:37.028Z</time></trkpt><trkpt lat="42.3654717" lon="13.3645083"><ele>650.8000000000001</ele><time>2026-04-04T11:09:38.028Z</time></trkpt><trkpt lat="42.3654067" lon="13.3646183"><ele>650.2</ele><time>2026-04-04T11:09:39.028Z</time></trkpt><trkpt lat="42.3653417" lon="13.3647267"><ele>649.6</ele><time>2026-04-04T11:09:40.028Z</time></trkpt><trkpt lat="42.3652817" lon="13.3648267"><ele>649.0</ele><time>2026-04-04T11:09:41.028Z</time></trkpt><trkpt lat="42.3652233" lon="13.3649233"><ele>649.0</ele><time>2026-04-04T11:09:42.028Z</time></trkpt><trkpt lat="42.365165" lon="13.3650167"><ele>649.0</ele><time>2026-04-04T11:09:43.028Z</time></trkpt><trkpt lat="42.3651133" lon="13.3651067"><ele>649.0</ele><time>2026-04-04T11:09:44.028Z</time></trkpt><trkpt lat="42.3650633" lon="13.3651933"><ele>649.0</ele><time>2026-04-04T11:09:45.028Z</time></trkpt><trkpt lat="42.3650167" lon="13.3652667"><ele>649.0</ele><time>2026-04-04T11:09:46.028Z</time></trkpt><trkpt lat="42.3649283" lon="13.36536"><ele>649.0</ele><time>2026-04-04T11:09:48.028Z</time></trkpt><trkpt lat="42.3648333" lon="13.3654267"><ele>649.0</ele><time>2026-04-04T11:09:50.028Z</time></trkpt><trkpt lat="42.3647817" lon="13.3655717"><ele>649.0</ele><time>2026-04-04T11:09:52.028Z</time></trkpt><trkpt lat="42.3647733" lon="13.3656933"><ele>649.0</ele><time>2026-04-04T11:09:53.028Z</time></trkpt><trkpt lat="42.3647617" lon="13.3658217"><ele>649.0</ele><time>2026-04-04T11:09:54.028Z</time></trkpt><trkpt lat="42.3647383" lon="13.3659567"><ele>649.0</ele><time>2026-04-04T11:09:55.028Z</time></trkpt><trkpt lat="42.3647083" lon="13.366095"><ele>648.4000000000001</ele><time>2026-04-04T11:09:56.028Z</time></trkpt><trkpt lat="42.36467" lon="13.3662367"><ele>647.8</ele><time>2026-04-04T11:09:57.028Z</time></trkpt><trkpt lat="42.3646233" lon="13.366375"><ele>647.2</ele><time>2026-04-04T11:09:58.028Z</time></trkpt><trkpt lat="42.36457" lon="13.3665083"><ele>646.5999999999999</ele><time>2026-04-04T11:09:59.028Z</time></trkpt><trkpt lat="42.3645233" lon="13.3666483"><ele>646.0</ele><time>2026-04-04T11:10:00.028Z</time></trkpt><trkpt lat="42.3644717" lon="13.3667817"><ele>645.8</ele><time>2026-04-04T11:10:01.028Z</time></trkpt><trkpt lat="42.36443" lon="13.3669167"><ele>645.5999999999999</ele><time>2026-04-04T11:10:02.028Z</time></trkpt><trkpt lat="42.3643783" lon="13.3670533"><ele>645.4</ele><time>2026-04-04T11:10:03.028Z</time></trkpt><trkpt lat="42.3643267" lon="13.36719"><ele>645.2</ele><time>2026-04-04T11:10:04.028Z</time></trkpt><trkpt lat="42.3642733" lon="13.3673267"><ele>645.0</ele><time>2026-04-04T11:10:05.028Z</time></trkpt><trkpt lat="42.36422" lon="13.3674683"><ele>645.0</ele><time>2026-04-04T11:10:06.028Z</time></trkpt><trkpt lat="42.3641683" lon="13.3676117"><ele>645.0</ele><time>2026-04-04T11:10:07.028Z</time></trkpt><trkpt lat="42.3641133" lon="13.367765"><ele>645.0</ele><time>2026-04-04T11:10:08.028Z</time></trkpt><trkpt lat="42.364065" lon="13.3679133"><ele>645.0</ele><time>2026-04-04T11:10:09.028Z</time></trkpt><trkpt lat="42.3640133" lon="13.3680683"><ele>645.0</ele><time>2026-04-04T11:10:10.028Z</time></trkpt><trkpt lat="42.3639583" lon="13.36822"><ele>645.0</ele><time>2026-04-04T11:10:11.028Z</time></trkpt><trkpt lat="42.363905" lon="13.3683717"><ele>645.0</ele><time>2026-04-04T11:10:12.028Z</time></trkpt><trkpt lat="42.3638517" lon="13.368525"><ele>645.0</ele><time>2026-04-04T11:10:13.028Z</time></trkpt><trkpt lat="42.3638" lon="13.3686783"><ele>644.0</ele><time>2026-04-04T11:10:14.028Z</time></trkpt><trkpt lat="42.3637483" lon="13.3688267"><ele>643.0</ele><time>2026-04-04T11:10:15.028Z</time></trkpt><trkpt lat="42.3636967" lon="13.3689717"><ele>642.0</ele><time>2026-04-04T11:10:16.028Z</time></trkpt><trkpt lat="42.3636483" lon="13.3691117"><ele>641.0</ele><time>2026-04-04T11:10:17.028Z</time></trkpt><trkpt lat="42.3635983" lon="13.3692533"><ele>641.0</ele><time>2026-04-04T11:10:18.027Z</time></trkpt><trkpt lat="42.3635517" lon="13.369395"><ele>641.0</ele><time>2026-04-04T11:10:19.028Z</time></trkpt><trkpt lat="42.3635033" lon="13.369535"><ele>641.0</ele><time>2026-04-04T11:10:20.028Z</time></trkpt><trkpt lat="42.3634533" lon="13.3696767"><ele>641.0</ele><time>2026-04-04T11:10:21.028Z</time></trkpt><trkpt lat="42.363405" lon="13.3698167"><ele>641.1999999999999</ele><time>2026-04-04T11:10:22.028Z</time></trkpt><trkpt lat="42.363365" lon="13.3699633"><ele>641.4</ele><time>2026-04-04T11:10:23.028Z</time></trkpt><trkpt lat="42.3633183" lon="13.3700983"><ele>641.6</ele><time>2026-04-04T11:10:24.028Z</time></trkpt><trkpt lat="42.3632733" lon="13.37022"><ele>641.8</ele><time>2026-04-04T11:10:25.028Z</time></trkpt><trkpt lat="42.3632317" lon="13.370335"><ele>642.0</ele><time>2026-04-04T11:10:26.028Z</time></trkpt><trkpt lat="42.36319" lon="13.3704567"><ele>642.2</ele><time>2026-04-04T11:10:27.028Z</time></trkpt><trkpt lat="42.3631467" lon="13.3705767"><ele>642.4000000000001</ele><time>2026-04-04T11:10:28.028Z</time></trkpt><trkpt lat="42.3631017" lon="13.3706983"><ele>642.5999999999999</ele><time>2026-04-04T11:10:29.028Z</time></trkpt><trkpt lat="42.363055" lon="13.37083"><ele>642.8</ele><time>2026-04-04T11:10:30.028Z</time></trkpt><trkpt lat="42.363005" lon="13.370965"><ele>643.0</ele><time>2026-04-04T11:10:31.028Z</time></trkpt><trkpt lat="42.362955" lon="13.371105"><ele>643.0</ele><time>2026-04-04T11:10:32.028Z</time></trkpt><trkpt lat="42.3629067" lon="13.3712433"><ele>643.0</ele><time>2026-04-04T11:10:33.028Z</time></trkpt><trkpt lat="42.36286" lon="13.3713817"><ele>643.0</ele><time>2026-04-04T11:10:34.028Z</time></trkpt><trkpt lat="42.3628117" lon="13.37152"><ele>643.0</ele><time>2026-04-04T11:10:35.028Z</time></trkpt><trkpt lat="42.3627617" lon="13.3716583"><ele>643.0</ele><time>2026-04-04T11:10:36.028Z</time></trkpt><trkpt lat="42.3627117" lon="13.3717967"><ele>643.0</ele><time>2026-04-04T11:10:37.028Z</time></trkpt><trkpt lat="42.3626567" lon="13.3719233"><ele>643.0</ele><time>2026-04-04T11:10:38.027Z</time></trkpt><trkpt lat="42.3625967" lon="13.37204"><ele>643.0</ele><time>2026-04-04T11:10:39.028Z</time></trkpt><trkpt lat="42.3625267" lon="13.372145"><ele>643.0</ele><time>2026-04-04T11:10:40.028Z</time></trkpt><trkpt lat="42.3624467" lon="13.3722233"><ele>643.0</ele><time>2026-04-04T11:10:41.028Z</time></trkpt><trkpt lat="42.3623617" lon="13.37228"><ele>643.0</ele><time>2026-04-04T11:10:42.027Z</time></trkpt><trkpt lat="42.36228" lon="13.3723217"><ele>643.0</ele><time>2026-04-04T11:10:43.028Z</time></trkpt><trkpt lat="42.3622117" lon="13.3723367"><ele>643.0</ele><time>2026-04-04T11:10:44.028Z</time></trkpt><trkpt lat="42.3621317" lon="13.3723267"><ele>643.0</ele><time>2026-04-04T11:10:45.027Z</time></trkpt><trkpt lat="42.3620467" lon="13.3723167"><ele>643.0</ele><time>2026-04-04T11:10:46.028Z</time></trkpt><trkpt lat="42.361965" lon="13.3723033"><ele>642.5999999999999</ele><time>2026-04-04T11:10:47.028Z</time></trkpt><trkpt lat="42.361875" lon="13.3722917"><ele>642.1999999999999</ele><time>2026-04-04T11:10:48.027Z</time></trkpt><trkpt lat="42.3617883" lon="13.37228"><ele>641.8</ele><time>2026-04-04T11:10:49.028Z</time></trkpt><trkpt lat="42.3616917" lon="13.372265"><ele>641.4</ele><time>2026-04-04T11:10:50.028Z</time></trkpt><trkpt lat="42.3615917" lon="13.3722517"><ele>641.0</ele><time>2026-04-04T11:10:51.028Z</time></trkpt><trkpt lat="42.3614933" lon="13.3722433"><ele>641.0</ele><time>2026-04-04T11:10:52.028Z</time></trkpt><trkpt lat="42.3613933" lon="13.3722317"><ele>641.0</ele><time>2026-04-04T11:10:53.028Z</time></trkpt><trkpt lat="42.3612883" lon="13.3722283"><ele>641.0</ele><time>2026-04-04T11:10:54.028Z</time></trkpt><trkpt lat="42.36118" lon="13.3722317"><ele>641.0</ele><time>2026-04-04T11:10:55.028Z</time></trkpt><trkpt lat="42.3610683" lon="13.3722433"><ele>641.0</ele><time>2026-04-04T11:10:56.028Z</time></trkpt><trkpt lat="42.3609567" lon="13.37226"><ele>641.0</ele><time>2026-04-04T11:10:57.028Z</time></trkpt><trkpt lat="42.3608483" lon="13.3722883"><ele>641.0</ele><time>2026-04-04T11:10:58.028Z</time></trkpt><trkpt lat="42.360745" lon="13.3723133"><ele>641.0</ele><time>2026-04-04T11:10:59.028Z</time></trkpt><trkpt lat="42.36064" lon="13.37235"><ele>641.0</ele><time>2026-04-04T11:11:00.028Z</time></trkpt><trkpt lat="42.3605383" lon="13.3724017"><ele>641.0</ele><time>2026-04-04T11:11:01.028Z</time></trkpt><trkpt lat="42.3604367" lon="13.3724583"><ele>641.0</ele><time>2026-04-04T11:11:02.028Z</time></trkpt><trkpt lat="42.3603333" lon="13.37252"><ele>641.0</ele><time>2026-04-04T11:11:03.028Z</time></trkpt><trkpt lat="42.3602317" lon="13.3725983"><ele>641.0</ele><time>2026-04-04T11:11:04.028Z</time></trkpt><trkpt lat="42.360135" lon="13.37266"><ele>641.0</ele><time>2026-04-04T11:11:05.028Z</time></trkpt><trkpt lat="42.3600483" lon="13.3727133"><ele>641.0</ele><time>2026-04-04T11:11:06.028Z</time></trkpt><trkpt lat="42.3599667" lon="13.372765"><ele>641.0</ele><time>2026-04-04T11:11:07.028Z</time></trkpt><trkpt lat="42.3599017" lon="13.37283"><ele>641.0</ele><time>2026-04-04T11:11:08.028Z</time></trkpt><trkpt lat="42.359855" lon="13.3729117"><ele>641.0</ele><time>2026-04-04T11:11:09.028Z</time></trkpt><trkpt lat="42.3598267" lon="13.37302"><ele>641.0</ele><time>2026-04-04T11:11:10.027Z</time></trkpt><trkpt lat="42.359825" lon="13.3731417"><ele>641.0</ele><time>2026-04-04T11:11:11.028Z</time></trkpt><trkpt lat="42.3598483" lon="13.373265"><ele>641.0</ele><time>2026-04-04T11:11:12.028Z</time></trkpt><trkpt lat="42.35987" lon="13.3733867"><ele>641.5999999999999</ele><time>2026-04-04T11:11:13.028Z</time></trkpt><trkpt lat="42.3598917" lon="13.373505"><ele>642.2</ele><time>2026-04-04T11:11:14.028Z</time></trkpt><trkpt lat="42.3599133" lon="13.3736233"><ele>642.8</ele><time>2026-04-04T11:11:15.028Z</time></trkpt><trkpt lat="42.3599333" lon="13.37375"><ele>643.4000000000001</ele><time>2026-04-04T11:11:16.028Z</time></trkpt><trkpt lat="42.3599517" lon="13.3738833"><ele>644.0</ele><time>2026-04-04T11:11:17.028Z</time></trkpt><trkpt lat="42.3599717" lon="13.3740283"><ele>644.2</ele><time>2026-04-04T11:11:18.027Z</time></trkpt><trkpt lat="42.35999" lon="13.3741717"><ele>644.4000000000001</ele><time>2026-04-04T11:11:19.028Z</time></trkpt><trkpt lat="42.3600067" lon="13.3743217"><ele>644.6</ele><time>2026-04-04T11:11:20.028Z</time></trkpt><trkpt lat="42.3600267" lon="13.3744717"><ele>644.8</ele><time>2026-04-04T11:11:21.027Z</time></trkpt><trkpt lat="42.3600483" lon="13.37462"><ele>645.0</ele><time>2026-04-04T11:11:22.028Z</time></trkpt><trkpt lat="42.3600667" lon="13.374745"><ele>645.1666666666666</ele><time>2026-04-04T11:11:23.028Z</time></trkpt><trkpt lat="42.3600867" lon="13.3748683"><ele>645.3333333333334</ele><time>2026-04-04T11:11:24.028Z</time></trkpt><trkpt lat="42.3600983" lon="13.37498"><ele>645.5</ele><time>2026-04-04T11:11:25.028Z</time></trkpt><trkpt lat="42.3601017" lon="13.3750933"><ele>645.6666666666667</ele><time>2026-04-04T11:11:26.028Z</time></trkpt><trkpt lat="42.360115" lon="13.3752033"><ele>645.8333333333334</ele><time>2026-04-04T11:11:27.028Z</time></trkpt><trkpt lat="42.36013" lon="13.3753133"><ele>646.0</ele><time>2026-04-04T11:11:28.028Z</time></trkpt><trkpt lat="42.360145" lon="13.3754233"><ele>646.4</ele><time>2026-04-04T11:11:29.028Z</time></trkpt><trkpt lat="42.36016" lon="13.3755217"><ele>646.8</ele><time>2026-04-04T11:11:30.028Z</time></trkpt><trkpt lat="42.3601717" lon="13.3756167"><ele>647.1999999999999</ele><time>2026-04-04T11:11:31.028Z</time></trkpt><trkpt lat="42.3601967" lon="13.3757717"><ele>647.5999999999999</ele><time>2026-04-04T11:11:33.028Z</time></trkpt><trkpt lat="42.3602117" lon="13.3758967"><ele>648.0</ele><time>2026-04-04T11:11:35.028Z</time></trkpt><trkpt lat="42.3602333" lon="13.376055"><ele>648.0</ele><time>2026-04-04T11:11:37.027Z</time></trkpt><trkpt lat="42.3602433" lon="13.3761517"><ele>648.0</ele><time>2026-04-04T11:11:38.028Z</time></trkpt><trkpt lat="42.3602517" lon="13.3762517"><ele>648.0</ele><time>2026-04-04T11:11:39.028Z</time></trkpt><trkpt lat="42.3602683" lon="13.3763467"><ele>648.0</ele><time>2026-04-04T11:11:40.028Z</time></trkpt><trkpt lat="42.360285" lon="13.3764467"><ele>648.0</ele><time>2026-04-04T11:11:41.028Z</time></trkpt><trkpt lat="42.3602933" lon="13.3765533"><ele>648.0</ele><time>2026-04-04T11:11:42.028Z</time></trkpt><trkpt lat="42.3603067" lon="13.3766583"><ele>648.2857142857143</ele><time>2026-04-04T11:11:43.028Z</time></trkpt><trkpt lat="42.3603133" lon="13.3767667"><ele>648.5714285714286</ele><time>2026-04-04T11:11:44.028Z</time></trkpt><trkpt lat="42.3603267" lon="13.3768733"><ele>648.8571428571429</ele><time>2026-04-04T11:11:45.028Z</time></trkpt><trkpt lat="42.36034" lon="13.3769733"><ele>649.1428571428571</ele><time>2026-04-04T11:11:46.028Z</time></trkpt><trkpt lat="42.3603483" lon="13.3770733"><ele>649.4285714285714</ele><time>2026-04-04T11:11:47.028Z</time></trkpt><trkpt lat="42.360355" lon="13.3771717"><ele>649.7142857142857</ele><time>2026-04-04T11:11:48.028Z</time></trkpt><trkpt lat="42.3603583" lon="13.37726"><ele>650.0</ele><time>2026-04-04T11:11:49.027Z</time></trkpt><trkpt lat="42.360365" lon="13.3774433"><ele>650.0</ele><time>2026-04-04T11:11:51.028Z</time></trkpt><trkpt lat="42.3603617" lon="13.377545"><ele>650.0</ele><time>2026-04-04T11:11:52.027Z</time></trkpt><trkpt lat="42.3603583" lon="13.37765"><ele>650.0</ele><time>2026-04-04T11:11:53.028Z</time></trkpt><trkpt lat="42.36035" lon="13.37776"><ele>650.0</ele><time>2026-04-04T11:11:54.027Z</time></trkpt><trkpt lat="42.36034" lon="13.3778783"><ele>650.0</ele><time>2026-04-04T11:11:55.028Z</time></trkpt><trkpt lat="42.3603333" lon="13.3780017"><ele>650.0</ele><time>2026-04-04T11:11:56.028Z</time></trkpt><trkpt lat="42.3603283" lon="13.37813"><ele>650.2</ele><time>2026-04-04T11:11:57.028Z</time></trkpt><trkpt lat="42.3603183" lon="13.3782617"><ele>650.4</ele><time>2026-04-04T11:11:58.028Z</time></trkpt><trkpt lat="42.3603033" lon="13.3783983"><ele>650.5999999999999</ele><time>2026-04-04T11:11:59.028Z</time></trkpt><trkpt lat="42.3602817" lon="13.37852"><ele>650.8</ele><time>2026-04-04T11:12:00.028Z</time></trkpt><trkpt lat="42.360265" lon="13.3786283"><ele>651.0</ele><time>2026-04-04T11:12:01.028Z</time></trkpt><trkpt lat="42.3602417" lon="13.3787283"><ele>651.0</ele><time>2026-04-04T11:12:02.028Z</time></trkpt><trkpt lat="42.3602233" lon="13.3788267"><ele>651.0</ele><time>2026-04-04T11:12:03.028Z</time></trkpt><trkpt lat="42.3602" lon="13.3789067"><ele>651.0</ele><time>2026-04-04T11:12:04.028Z</time></trkpt><trkpt lat="42.3601567" lon="13.3790367"><ele>651.0</ele><time>2026-04-04T11:12:06.028Z</time></trkpt><trkpt lat="42.3601133" lon="13.379175"><ele>651.0</ele><time>2026-04-04T11:12:08.028Z</time></trkpt><trkpt lat="42.3600733" lon="13.379305"><ele>651.0</ele><time>2026-04-04T11:12:10.028Z</time></trkpt><trkpt lat="42.3600367" lon="13.37939"><ele>651.0</ele><time>2026-04-04T11:12:12.028Z</time></trkpt><trkpt lat="42.3599783" lon="13.3794917"><ele>651.0</ele><time>2026-04-04T11:12:15.028Z</time></trkpt><trkpt lat="42.3598967" lon="13.3795783"><ele>651.0</ele><time>2026-04-04T11:12:17.028Z</time></trkpt><trkpt lat="42.3598633" lon="13.379655"><ele>651.0</ele><time>2026-04-04T11:12:18.028Z</time></trkpt><trkpt lat="42.359845" lon="13.3797567"><ele>651.0</ele><time>2026-04-04T11:12:19.028Z</time></trkpt><trkpt lat="42.3598317" lon="13.3798683"><ele>651.0</ele><time>2026-04-04T11:12:20.028Z</time></trkpt><trkpt lat="42.3598283" lon="13.3799767"><ele>651.0</ele><time>2026-04-04T11:12:21.028Z</time></trkpt><trkpt lat="42.359825" lon="13.3800817"><ele>651.0</ele><time>2026-04-04T11:12:22.028Z</time></trkpt><trkpt lat="42.3598133" lon="13.3801717"><ele>651.0</ele><time>2026-04-04T11:12:23.028Z</time></trkpt><trkpt lat="42.3597717" lon="13.380335"><ele>651.0</ele><time>2026-04-04T11:12:25.028Z</time></trkpt><trkpt lat="42.3597333" lon="13.38042"><ele>651.0</ele><time>2026-04-04T11:12:26.028Z</time></trkpt><trkpt lat="42.3596883" lon="13.38051"><ele>650.8333333333334</ele><time>2026-04-04T11:12:27.028Z</time></trkpt><trkpt lat="42.3596383" lon="13.3806017"><ele>650.6666666666666</ele><time>2026-04-04T11:12:28.028Z</time></trkpt><trkpt lat="42.3595883" lon="13.3807"><ele>650.5</ele><time>2026-04-04T11:12:29.028Z</time></trkpt><trkpt lat="42.3595367" lon="13.3808033"><ele>650.3333333333333</ele><time>2026-04-04T11:12:30.028Z</time></trkpt><trkpt lat="42.35949" lon="13.3809083"><ele>650.1666666666666</ele><time>2026-04-04T11:12:31.028Z</time></trkpt><trkpt lat="42.3594483" lon="13.3809983"><ele>650.0</ele><time>2026-04-04T11:12:32.028Z</time></trkpt><trkpt lat="42.3594083" lon="13.38108"><ele>650.0</ele><time>2026-04-04T11:12:33.028Z</time></trkpt><trkpt lat="42.3593733" lon="13.3811633"><ele>650.0</ele><time>2026-04-04T11:12:34.028Z</time></trkpt><trkpt lat="42.3593417" lon="13.3812383"><ele>650.0</ele><time>2026-04-04T11:12:35.028Z</time></trkpt><trkpt lat="42.3592933" lon="13.3813533"><ele>650.0</ele><time>2026-04-04T11:12:37.028Z</time></trkpt><trkpt lat="42.3592383" lon="13.3814783"><ele>650.0</ele><time>2026-04-04T11:12:39.028Z</time></trkpt><trkpt lat="42.3592" lon="13.3815467"><ele>650.0</ele><time>2026-04-04T11:12:40.028Z</time></trkpt><trkpt lat="42.359165" lon="13.3816283"><ele>649.8571428571428</ele><time>2026-04-04T11:12:41.028Z</time></trkpt><trkpt lat="42.3591283" lon="13.38171"><ele>649.7142857142858</ele><time>2026-04-04T11:12:42.028Z</time></trkpt><trkpt lat="42.3590867" lon="13.3818017"><ele>649.5714285714286</ele><time>2026-04-04T11:12:43.028Z</time></trkpt><trkpt lat="42.3590483" lon="13.3818917"><ele>649.4285714285713</ele><time>2026-04-04T11:12:44.027Z</time></trkpt><trkpt lat="42.3590083" lon="13.3819767"><ele>649.2857142857142</ele><time>2026-04-04T11:12:45.028Z</time></trkpt><trkpt lat="42.3589683" lon="13.382055"><ele>649.1428571428571</ele><time>2026-04-04T11:12:46.028Z</time></trkpt><trkpt lat="42.3589367" lon="13.3821367"><ele>649.0</ele><time>2026-04-04T11:12:47.028Z</time></trkpt><trkpt lat="42.358905" lon="13.3822183"><ele>649.2857142857142</ele><time>2026-04-04T11:12:48.028Z</time></trkpt><trkpt lat="42.3588717" lon="13.3822967"><ele>649.5714285714286</ele><time>2026-04-04T11:12:49.027Z</time></trkpt><trkpt lat="42.3588383" lon="13.3823767"><ele>649.8571428571429</ele><time>2026-04-04T11:12:50.028Z</time></trkpt><trkpt lat="42.3588" lon="13.3824583"><ele>650.1428571428571</ele><time>2026-04-04T11:12:51.028Z</time></trkpt><trkpt lat="42.3587633" lon="13.3825367"><ele>650.4285714285714</ele><time>2026-04-04T11:12:52.027Z</time></trkpt><trkpt lat="42.3587283" lon="13.3826133"><ele>650.7142857142857</ele><time>2026-04-04T11:12:53.028Z</time></trkpt><trkpt lat="42.35869" lon="13.3826967"><ele>651.0</ele><time>2026-04-04T11:12:54.028Z</time></trkpt><trkpt lat="42.3586533" lon="13.38278"><ele>651.0</ele><time>2026-04-04T11:12:55.028Z</time></trkpt><trkpt lat="42.3586133" lon="13.382865"><ele>651.0</ele><time>2026-04-04T11:12:56.028Z</time></trkpt><trkpt lat="42.3585767" lon="13.3829417"><ele>651.0</ele><time>2026-04-04T11:12:57.028Z</time></trkpt><trkpt lat="42.3585417" lon="13.3830217"><ele>651.0</ele><time>2026-04-04T11:12:58.028Z</time></trkpt><trkpt lat="42.3585067" lon="13.3830933"><ele>651.0</ele><time>2026-04-04T11:12:59.028Z</time></trkpt><trkpt lat="42.3584767" lon="13.3831717"><ele>651.0</ele><time>2026-04-04T11:13:00.028Z</time></trkpt><trkpt lat="42.3584483" lon="13.38325"><ele>651.0</ele><time>2026-04-04T11:13:01.028Z</time></trkpt><trkpt lat="42.3584133" lon="13.383325"><ele>650.8571428571429</ele><time>2026-04-04T11:13:02.028Z</time></trkpt><trkpt lat="42.35837" lon="13.3834083"><ele>650.7142857142858</ele><time>2026-04-04T11:13:03.028Z</time></trkpt><trkpt lat="42.3583333" lon="13.3834967"><ele>650.5714285714286</ele><time>2026-04-04T11:13:04.028Z</time></trkpt><trkpt lat="42.358295" lon="13.3835867"><ele>650.4285714285714</ele><time>2026-04-04T11:13:05.028Z</time></trkpt><trkpt lat="42.3582567" lon="13.383675"><ele>650.2857142857143</ele><time>2026-04-04T11:13:06.027Z</time></trkpt><trkpt lat="42.3582133" lon="13.38376"><ele>650.1428571428571</ele><time>2026-04-04T11:13:07.028Z</time></trkpt><trkpt lat="42.35818" lon="13.3838433"><ele>650.0</ele><time>2026-04-04T11:13:08.028Z</time></trkpt><trkpt lat="42.35815" lon="13.3839267"><ele>650.0</ele><time>2026-04-04T11:13:09.027Z</time></trkpt><trkpt lat="42.3581183" lon="13.3840033"><ele>650.0</ele><time>2026-04-04T11:13:10.028Z</time></trkpt><trkpt lat="42.3580833" lon="13.3840783"><ele>650.0</ele><time>2026-04-04T11:13:11.028Z</time></trkpt><trkpt lat="42.3580467" lon="13.3841533"><ele>650.0</ele><time>2026-04-04T11:13:12.028Z</time></trkpt><trkpt lat="42.3580117" lon="13.384225"><ele>650.0</ele><time>2026-04-04T11:13:13.028Z</time></trkpt><trkpt lat="42.35795" lon="13.3843733"><ele>650.0</ele><time>2026-04-04T11:13:15.028Z</time></trkpt><trkpt lat="42.3579067" lon="13.384515"><ele>649.8333333333333</ele><time>2026-04-04T11:13:17.028Z</time></trkpt><trkpt lat="42.357875" lon="13.3846333"><ele>649.6666666666666</ele><time>2026-04-04T11:13:19.028Z</time></trkpt><trkpt lat="42.3578517" lon="13.3847367"><ele>649.5</ele><time>2026-04-04T11:13:21.028Z</time></trkpt><trkpt lat="42.35782" lon="13.384845"><ele>649.3333333333334</ele><time>2026-04-04T11:13:23.027Z</time></trkpt><trkpt lat="42.3577867" lon="13.3849867"><ele>649.1666666666667</ele><time>2026-04-04T11:13:25.027Z</time></trkpt><trkpt lat="42.3577733" lon="13.3850733"><ele>649.0</ele><time>2026-04-04T11:13:26.027Z</time></trkpt><trkpt lat="42.35775" lon="13.385155"><ele>649.0</ele><time>2026-04-04T11:13:27.027Z</time></trkpt><trkpt lat="42.3576733" lon="13.3852817"><ele>649.0</ele><time>2026-04-04T11:13:29.027Z</time></trkpt><trkpt lat="42.3575867" lon="13.38539"><ele>649.0</ele><time>2026-04-04T11:13:31.027Z</time></trkpt><trkpt lat="42.3575367" lon="13.38547"><ele>649.0</ele><time>2026-04-04T11:13:32.026Z</time></trkpt><trkpt lat="42.3574833" lon="13.385575"><ele>649.0</ele><time>2026-04-04T11:13:33.027Z</time></trkpt><trkpt lat="42.3574183" lon="13.38569"><ele>649.0</ele><time>2026-04-04T11:13:34.027Z</time></trkpt><trkpt lat="42.35735" lon="13.385805"><ele>649.0</ele><time>2026-04-04T11:13:35.027Z</time></trkpt><trkpt lat="42.357265" lon="13.385915"><ele>649.0</ele><time>2026-04-04T11:13:36.027Z</time></trkpt><trkpt lat="42.3571817" lon="13.3860183"><ele>649.0</ele><time>2026-04-04T11:13:37.027Z</time></trkpt><trkpt lat="42.3570917" lon="13.38612"><ele>648.8000000000001</ele><time>2026-04-04T11:13:38.027Z</time></trkpt><trkpt lat="42.3569917" lon="13.386225"><ele>648.6</ele><time>2026-04-04T11:13:39.027Z</time></trkpt><trkpt lat="42.35691" lon="13.386345"><ele>648.4</ele><time>2026-04-04T11:13:40.027Z</time></trkpt><trkpt lat="42.3568467" lon="13.3864583"><ele>648.2</ele><time>2026-04-04T11:13:41.027Z</time></trkpt><trkpt lat="42.35679" lon="13.3865517"><ele>648.0</ele><time>2026-04-04T11:13:42.027Z</time></trkpt><trkpt lat="42.35673" lon="13.38665"><ele>648.0</ele><time>2026-04-04T11:13:43.027Z</time></trkpt><trkpt lat="42.356665" lon="13.3867533"><ele>648.0</ele><time>2026-04-04T11:13:44.027Z</time></trkpt><trkpt lat="42.356605" lon="13.3868667"><ele>648.0</ele><time>2026-04-04T11:13:45.027Z</time></trkpt><trkpt lat="42.3565433" lon="13.3869717"><ele>648.0</ele><time>2026-04-04T11:13:46.027Z</time></trkpt><trkpt lat="42.356485" lon="13.3870783"><ele>648.0</ele><time>2026-04-04T11:13:47.027Z</time></trkpt><trkpt lat="42.3564267" lon="13.3871783"><ele>647.5999999999999</ele><time>2026-04-04T11:13:48.027Z</time></trkpt><trkpt lat="42.35636" lon="13.3872833"><ele>647.1999999999999</ele><time>2026-04-04T11:13:49.027Z</time></trkpt><trkpt lat="42.3563067" lon="13.3873867"><ele>646.8</ele><time>2026-04-04T11:13:50.026Z</time></trkpt><trkpt lat="42.356255" lon="13.387485"><ele>646.4</ele><time>2026-04-04T11:13:51.027Z</time></trkpt><trkpt lat="42.3561983" lon="13.3875867"><ele>646.0</ele><time>2026-04-04T11:13:52.027Z</time></trkpt><trkpt lat="42.3561383" lon="13.3876867"><ele>646.0</ele><time>2026-04-04T11:13:53.027Z</time></trkpt><trkpt lat="42.3560817" lon="13.387785"><ele>646.0</ele><time>2026-04-04T11:13:54.027Z</time></trkpt><trkpt lat="42.356025" lon="13.387885"><ele>646.0</ele><time>2026-04-04T11:13:55.027Z</time></trkpt><trkpt lat="42.35597" lon="13.387975"><ele>646.0</ele><time>2026-04-04T11:13:56.027Z</time></trkpt><trkpt lat="42.3559133" lon="13.38806"><ele>646.0</ele><time>2026-04-04T11:13:57.027Z</time></trkpt><trkpt lat="42.3558517" lon="13.3881333"><ele>646.0</ele><time>2026-04-04T11:13:58.027Z</time></trkpt><trkpt lat="42.35579" lon="13.3881833"><ele>646.7142857142858</ele><time>2026-04-04T11:13:59.027Z</time></trkpt><trkpt lat="42.3557317" lon="13.3882233"><ele>647.4285714285714</ele><time>2026-04-04T11:14:00.027Z</time></trkpt><trkpt lat="42.3556567" lon="13.3882417"><ele>648.1428571428571</ele><time>2026-04-04T11:14:01.027Z</time></trkpt><trkpt lat="42.3555833" lon="13.3882733"><ele>648.8571428571429</ele><time>2026-04-04T11:14:02.027Z</time></trkpt><trkpt lat="42.3555217" lon="13.388325"><ele>649.5714285714286</ele><time>2026-04-04T11:14:03.027Z</time></trkpt><trkpt lat="42.355475" lon="13.3883983"><ele>650.2857142857143</ele><time>2026-04-04T11:14:04.027Z</time></trkpt><trkpt lat="42.35545" lon="13.3885"><ele>651.0</ele><time>2026-04-04T11:14:05.027Z</time></trkpt><trkpt lat="42.3554383" lon="13.38861"><ele>651.0</ele><time>2026-04-04T11:14:06.027Z</time></trkpt><trkpt lat="42.3554233" lon="13.3887217"><ele>651.0</ele><time>2026-04-04T11:14:07.027Z</time></trkpt><trkpt lat="42.3554083" lon="13.3888267"><ele>651.0</ele><time>2026-04-04T11:14:08.027Z</time></trkpt><trkpt lat="42.3553833" lon="13.3889367"><ele>651.0</ele><time>2026-04-04T11:14:09.027Z</time></trkpt><trkpt lat="42.3553517" lon="13.3890317"><ele>651.0</ele><time>2026-04-04T11:14:10.027Z</time></trkpt><trkpt lat="42.3553167" lon="13.3891133"><ele>651.0</ele><time>2026-04-04T11:14:11.027Z</time></trkpt><trkpt lat="42.355275" lon="13.3891817"><ele>652.0</ele><time>2026-04-04T11:14:12.027Z</time></trkpt><trkpt lat="42.3551883" lon="13.3892833"><ele>653.0</ele><time>2026-04-04T11:14:14.027Z</time></trkpt><trkpt lat="42.35513" lon="13.38934"><ele>654.0</ele><time>2026-04-04T11:14:15.027Z</time></trkpt><trkpt lat="42.3550733" lon="13.3894033"><ele>655.0</ele><time>2026-04-04T11:14:16.027Z</time></trkpt><trkpt lat="42.3550167" lon="13.3894583"><ele>656.0</ele><time>2026-04-04T11:14:17.027Z</time></trkpt><trkpt lat="42.3549583" lon="13.3895033"><ele>657.0</ele><time>2026-04-04T11:14:18.027Z</time></trkpt><trkpt lat="42.354895" lon="13.38954"><ele>657.0</ele><time>2026-04-04T11:14:19.027Z</time></trkpt><trkpt lat="42.3548283" lon="13.389565"><ele>657.0</ele><time>2026-04-04T11:14:20.026Z</time></trkpt><trkpt lat="42.35475" lon="13.3895967"><ele>657.0</ele><time>2026-04-04T11:14:21.027Z</time></trkpt><trkpt lat="42.3546717" lon="13.3896267"><ele>657.0</ele><time>2026-04-04T11:14:22.027Z</time></trkpt><trkpt lat="42.35459" lon="13.3896567"><ele>657.0</ele><time>2026-04-04T11:14:23.027Z</time></trkpt><trkpt lat="42.3545083" lon="13.3896833"><ele>657.0</ele><time>2026-04-04T11:14:24.027Z</time></trkpt><trkpt lat="42.354425" lon="13.3897117"><ele>658.0</ele><time>2026-04-04T11:14:25.027Z</time></trkpt><trkpt lat="42.3543433" lon="13.38974"><ele>659.0</ele><time>2026-04-04T11:14:26.027Z</time></trkpt><trkpt lat="42.3542633" lon="13.38977"><ele>660.0</ele><time>2026-04-04T11:14:27.027Z</time></trkpt><trkpt lat="42.354185" lon="13.3897967"><ele>661.0</ele><time>2026-04-04T11:14:28.027Z</time></trkpt><trkpt lat="42.3541083" lon="13.3898217"><ele>662.0</ele><time>2026-04-04T11:14:29.027Z</time></trkpt><trkpt lat="42.35403" lon="13.3898517"><ele>663.0</ele><time>2026-04-04T11:14:30.027Z</time></trkpt><trkpt lat="42.35395" lon="13.3898817"><ele>662.6666666666666</ele><time>2026-04-04T11:14:31.027Z</time></trkpt><trkpt lat="42.35387" lon="13.38991"><ele>662.3333333333334</ele><time>2026-04-04T11:14:32.027Z</time></trkpt><trkpt lat="42.3537883" lon="13.3899367"><ele>662.0</ele><time>2026-04-04T11:14:33.027Z</time></trkpt><trkpt lat="42.3537083" lon="13.3899633"><ele>661.6666666666667</ele><time>2026-04-04T11:14:34.027Z</time></trkpt><trkpt lat="42.3536333" lon="13.389995"><ele>661.3333333333334</ele><time>2026-04-04T11:14:35.027Z</time></trkpt><trkpt lat="42.3535567" lon="13.3900283"><ele>661.0</ele><time>2026-04-04T11:14:36.027Z</time></trkpt><trkpt lat="42.3534767" lon="13.3900567"><ele>661.0</ele><time>2026-04-04T11:14:37.027Z</time></trkpt><trkpt lat="42.3533833" lon="13.3901183"><ele>661.0</ele><time>2026-04-04T11:14:38.027Z</time></trkpt><trkpt lat="42.3533017" lon="13.390155"><ele>661.0</ele><time>2026-04-04T11:14:39.027Z</time></trkpt><trkpt lat="42.3532167" lon="13.3901917"><ele>661.0</ele><time>2026-04-04T11:14:40.027Z</time></trkpt><trkpt lat="42.35313" lon="13.3902267"><ele>661.0</ele><time>2026-04-04T11:14:41.027Z</time></trkpt><trkpt lat="42.35304" lon="13.3902617"><ele>660.5999999999999</ele><time>2026-04-04T11:14:42.027Z</time></trkpt><trkpt lat="42.3529533" lon="13.3902983"><ele>660.2</ele><time>2026-04-04T11:14:43.027Z</time></trkpt><trkpt lat="42.3528633" lon="13.390335"><ele>659.8</ele><time>2026-04-04T11:14:44.027Z</time></trkpt><trkpt lat="42.3527767" lon="13.3903667"><ele>659.4000000000001</ele><time>2026-04-04T11:14:45.026Z</time></trkpt><trkpt lat="42.352685" lon="13.3903967"><ele>659.0</ele><time>2026-04-04T11:14:46.027Z</time></trkpt><trkpt lat="42.3526" lon="13.3904333"><ele>659.0</ele><time>2026-04-04T11:14:47.027Z</time></trkpt><trkpt lat="42.3525117" lon="13.3904583"><ele>659.0</ele><time>2026-04-04T11:14:48.027Z</time></trkpt><trkpt lat="42.3524233" lon="13.3904917"><ele>659.0</ele><time>2026-04-04T11:14:49.027Z</time></trkpt><trkpt lat="42.3523367" lon="13.3905267"><ele>659.0</ele><time>2026-04-04T11:14:50.027Z</time></trkpt><trkpt lat="42.3522517" lon="13.390565"><ele>659.0</ele><time>2026-04-04T11:14:51.027Z</time></trkpt><trkpt lat="42.3521583" lon="13.3905983"><ele>661.8000000000001</ele><time>2026-04-04T11:14:52.027Z</time></trkpt><trkpt lat="42.352065" lon="13.390635"><ele>664.6</ele><time>2026-04-04T11:14:53.026Z</time></trkpt><trkpt lat="42.3519767" lon="13.39067"><ele>667.4</ele><time>2026-04-04T11:14:54.027Z</time></trkpt><trkpt lat="42.3518867" lon="13.39071"><ele>670.2</ele><time>2026-04-04T11:14:55.027Z</time></trkpt><trkpt lat="42.3517917" lon="13.3907467"><ele>673.0</ele><time>2026-04-04T11:14:56.027Z</time></trkpt><trkpt lat="42.3516983" lon="13.39078"><ele>673.0</ele><time>2026-04-04T11:14:57.027Z</time></trkpt><trkpt lat="42.3516033" lon="13.3908183"><ele>673.0</ele><time>2026-04-04T11:14:58.027Z</time></trkpt><trkpt lat="42.3515017" lon="13.3908567"><ele>673.0</ele><time>2026-04-04T11:14:59.027Z</time></trkpt><trkpt lat="42.3514067" lon="13.3908917"><ele>673.0</ele><time>2026-04-04T11:15:00.027Z</time></trkpt><trkpt lat="42.351315" lon="13.3909283"><ele>673.0</ele><time>2026-04-04T11:15:01.027Z</time></trkpt><trkpt lat="42.3512267" lon="13.3909733"><ele>672.2</ele><time>2026-04-04T11:15:02.026Z</time></trkpt><trkpt lat="42.3511317" lon="13.39101"><ele>671.4</ele><time>2026-04-04T11:15:03.027Z</time></trkpt><trkpt lat="42.3510383" lon="13.3910433"><ele>670.6</ele><time>2026-04-04T11:15:04.027Z</time></trkpt><trkpt lat="42.3509433" lon="13.391085"><ele>669.8000000000001</ele><time>2026-04-04T11:15:05.027Z</time></trkpt><trkpt lat="42.3508567" lon="13.3911383"><ele>669.0</ele><time>2026-04-04T11:15:06.027Z</time></trkpt><trkpt lat="42.3507817" lon="13.3912017"><ele>669.0</ele><time>2026-04-04T11:15:07.027Z</time></trkpt><trkpt lat="42.35071" lon="13.39127"><ele>669.0</ele><time>2026-04-04T11:15:08.026Z</time></trkpt><trkpt lat="42.350645" lon="13.391345"><ele>669.0</ele><time>2026-04-04T11:15:09.026Z</time></trkpt><trkpt lat="42.35058" lon="13.3914267"><ele>669.0</ele><time>2026-04-04T11:15:10.027Z</time></trkpt><trkpt lat="42.3505283" lon="13.3915367"><ele>669.0</ele><time>2026-04-04T11:15:11.027Z</time></trkpt><trkpt lat="42.3504817" lon="13.3916467"><ele>669.0</ele><time>2026-04-04T11:15:12.027Z</time></trkpt><trkpt lat="42.350445" lon="13.391755"><ele>669.0</ele><time>2026-04-04T11:15:13.027Z</time></trkpt><trkpt lat="42.350405" lon="13.3918567"><ele>669.0</ele><time>2026-04-04T11:15:14.027Z</time></trkpt><trkpt lat="42.3503667" lon="13.3919583"><ele>669.0</ele><time>2026-04-04T11:15:15.027Z</time></trkpt><trkpt lat="42.3503283" lon="13.39205"><ele>669.0</ele><time>2026-04-04T11:15:16.027Z</time></trkpt><trkpt lat="42.35029" lon="13.3921483"><ele>669.0</ele><time>2026-04-04T11:15:17.026Z</time></trkpt><trkpt lat="42.3502533" lon="13.3922483"><ele>672.0</ele><time>2026-04-04T11:15:18.027Z</time></trkpt><trkpt lat="42.3502217" lon="13.3923367"><ele>675.0</ele><time>2026-04-04T11:15:19.027Z</time></trkpt><trkpt lat="42.3501833" lon="13.392405"><ele>678.0</ele><time>2026-04-04T11:15:20.027Z</time></trkpt><trkpt lat="42.3500967" lon="13.3924767"><ele>681.0</ele><time>2026-04-04T11:15:22.027Z</time></trkpt><trkpt lat="42.3500033" lon="13.3924867"><ele>684.0</ele><time>2026-04-04T11:15:24.026Z</time></trkpt><trkpt lat="42.349895" lon="13.3924817"><ele>687.0</ele><time>2026-04-04T11:15:26.027Z</time></trkpt><trkpt lat="42.3497833" lon="13.3924133"><ele>687.0</ele><time>2026-04-04T11:15:28.027Z</time></trkpt><trkpt lat="42.3497317" lon="13.3923483"><ele>687.0</ele><time>2026-04-04T11:15:29.027Z</time></trkpt><trkpt lat="42.349685" lon="13.3922767"><ele>687.0</ele><time>2026-04-04T11:15:30.027Z</time></trkpt><trkpt lat="42.3496383" lon="13.3922033"><ele>687.0</ele><time>2026-04-04T11:15:31.026Z</time></trkpt><trkpt lat="42.349585" lon="13.3921267"><ele>687.0</ele><time>2026-04-04T11:15:32.027Z</time></trkpt><trkpt lat="42.34953" lon="13.3920517"><ele>687.0</ele><time>2026-04-04T11:15:33.027Z</time></trkpt><trkpt lat="42.3494783" lon="13.3919683"><ele>687.0</ele><time>2026-04-04T11:15:34.027Z</time></trkpt><trkpt lat="42.3494267" lon="13.391895"><ele>685.2</ele><time>2026-04-04T11:15:35.027Z</time></trkpt><trkpt lat="42.34937" lon="13.3918417"><ele>683.4000000000001</ele><time>2026-04-04T11:15:36.027Z</time></trkpt><trkpt lat="42.3492567" lon="13.3917883"><ele>681.5999999999999</ele><time>2026-04-04T11:15:38.027Z</time></trkpt><trkpt lat="42.34915" lon="13.3917733"><ele>679.8</ele><time>2026-04-04T11:15:40.027Z</time></trkpt><trkpt lat="42.3490367" lon="13.3917917"><ele>678.0</ele><time>2026-04-04T11:15:42.027Z</time></trkpt><trkpt lat="42.34897" lon="13.3918117"><ele>678.0</ele><time>2026-04-04T11:15:43.027Z</time></trkpt><trkpt lat="42.3489017" lon="13.391835"><ele>678.0</ele><time>2026-04-04T11:15:44.027Z</time></trkpt><trkpt lat="42.3488283" lon="13.3918617"><ele>678.0</ele><time>2026-04-04T11:15:45.027Z</time></trkpt><trkpt lat="42.348755" lon="13.3918967"><ele>678.0</ele><time>2026-04-04T11:15:46.027Z</time></trkpt><trkpt lat="42.3486783" lon="13.39193"><ele>678.0</ele><time>2026-04-04T11:15:47.027Z</time></trkpt><trkpt lat="42.3485983" lon="13.3919617"><ele>678.0</ele><time>2026-04-04T11:15:48.027Z</time></trkpt><trkpt lat="42.3485167" lon="13.3919967"><ele>678.3333333333334</ele><time>2026-04-04T11:15:49.027Z</time></trkpt><trkpt lat="42.3484333" lon="13.3920283"><ele>678.6666666666666</ele><time>2026-04-04T11:15:50.027Z</time></trkpt><trkpt lat="42.3483533" lon="13.3920683"><ele>679.0</ele><time>2026-04-04T11:15:51.027Z</time></trkpt><trkpt lat="42.348275" lon="13.3921067"><ele>679.3333333333333</ele><time>2026-04-04T11:15:52.027Z</time></trkpt><trkpt lat="42.3481983" lon="13.3921533"><ele>679.6666666666666</ele><time>2026-04-04T11:15:53.027Z</time></trkpt><trkpt lat="42.348125" lon="13.3922017"><ele>680.0</ele><time>2026-04-04T11:15:54.027Z</time></trkpt><trkpt lat="42.3480567" lon="13.3922617"><ele>681.5</ele><time>2026-04-04T11:15:55.027Z</time></trkpt><trkpt lat="42.3479917" lon="13.3923317"><ele>683.0</ele><time>2026-04-04T11:15:56.027Z</time></trkpt><trkpt lat="42.3479233" lon="13.3924067"><ele>684.5</ele><time>2026-04-04T11:15:57.027Z</time></trkpt><trkpt lat="42.34787" lon="13.3925"><ele>686.0</ele><time>2026-04-04T11:15:58.026Z</time></trkpt><trkpt lat="42.347825" lon="13.3926033"><ele>687.5</ele><time>2026-04-04T11:15:59.027Z</time></trkpt><trkpt lat="42.34778" lon="13.3927017"><ele>689.0</ele><time>2026-04-04T11:16:00.027Z</time></trkpt><trkpt lat="42.3477383" lon="13.3927933"><ele>689.0</ele><time>2026-04-04T11:16:01.027Z</time></trkpt><trkpt lat="42.3476967" lon="13.3928867"><ele>689.0</ele><time>2026-04-04T11:16:02.027Z</time></trkpt><trkpt lat="42.347655" lon="13.3929833"><ele>689.0</ele><time>2026-04-04T11:16:03.027Z</time></trkpt><trkpt lat="42.347615" lon="13.393085"><ele>689.0</ele><time>2026-04-04T11:16:04.027Z</time></trkpt><trkpt lat="42.3475717" lon="13.3931867"><ele>689.0</ele><time>2026-04-04T11:16:05.027Z</time></trkpt><trkpt lat="42.3475267" lon="13.3932883"><ele>689.0</ele><time>2026-04-04T11:16:06.027Z</time></trkpt><trkpt lat="42.3475" lon="13.3934067"><ele>690.1666666666666</ele><time>2026-04-04T11:16:07.027Z</time></trkpt><trkpt lat="42.3474667" lon="13.393505"><ele>691.3333333333333</ele><time>2026-04-04T11:16:08.027Z</time></trkpt><trkpt lat="42.3474333" lon="13.3936033"><ele>692.5</ele><time>2026-04-04T11:16:09.027Z</time></trkpt><trkpt lat="42.347395" lon="13.393705"><ele>693.6666666666666</ele><time>2026-04-04T11:16:10.026Z</time></trkpt><trkpt lat="42.347355" lon="13.3938"><ele>694.8333333333334</ele><time>2026-04-04T11:16:11.027Z</time></trkpt><trkpt lat="42.3473117" lon="13.3939017"><ele>696.0</ele><time>2026-04-04T11:16:12.027Z</time></trkpt><trkpt lat="42.3472667" lon="13.39401"><ele>696.1999999999999</ele><time>2026-04-04T11:16:13.027Z</time></trkpt><trkpt lat="42.3472267" lon="13.394125"><ele>696.4</ele><time>2026-04-04T11:16:14.027Z</time></trkpt><trkpt lat="42.3471933" lon="13.394255"><ele>696.6</ele><time>2026-04-04T11:16:15.027Z</time></trkpt><trkpt lat="42.3471483" lon="13.3943683"><ele>696.8</ele><time>2026-04-04T11:16:16.027Z</time></trkpt><trkpt lat="42.3471" lon="13.394475"><ele>697.0</ele><time>2026-04-04T11:16:17.027Z</time></trkpt><trkpt lat="42.3470483" lon="13.3945717"><ele>698.5</ele><time>2026-04-04T11:16:18.027Z</time></trkpt><trkpt lat="42.3469967" lon="13.3946733"><ele>700.0</ele><time>2026-04-04T11:16:19.027Z</time></trkpt><trkpt lat="42.346955" lon="13.394785"><ele>701.5</ele><time>2026-04-04T11:16:20.027Z</time></trkpt><trkpt lat="42.346915" lon="13.3948867"><ele>703.0</ele><time>2026-04-04T11:16:21.027Z</time></trkpt><trkpt lat="42.3468683" lon="13.394995"><ele>704.5</ele><time>2026-04-04T11:16:22.027Z</time></trkpt><trkpt lat="42.3468267" lon="13.3950883"><ele>706.0</ele><time>2026-04-04T11:16:23.027Z</time></trkpt><trkpt lat="42.34679" lon="13.3951833"><ele>706.0</ele><time>2026-04-04T11:16:24.027Z</time></trkpt><trkpt lat="42.34675" lon="13.3952817"><ele>706.0</ele><time>2026-04-04T11:16:25.027Z</time></trkpt><trkpt lat="42.34671" lon="13.3953883"><ele>706.0</ele><time>2026-04-04T11:16:26.027Z</time></trkpt><trkpt lat="42.346665" lon="13.395495"><ele>706.0</ele><time>2026-04-04T11:16:27.027Z</time></trkpt><trkpt lat="42.3466167" lon="13.395605"><ele>706.0</ele><time>2026-04-04T11:16:28.027Z</time></trkpt><trkpt lat="42.3465817" lon="13.3957133"><ele>706.0</ele><time>2026-04-04T11:16:29.027Z</time></trkpt><trkpt lat="42.346525" lon="13.3958333"><ele>705.5999999999999</ele><time>2026-04-04T11:16:30.027Z</time></trkpt><trkpt lat="42.34647" lon="13.3959433"><ele>705.2</ele><time>2026-04-04T11:16:31.027Z</time></trkpt><trkpt lat="42.3464133" lon="13.3960633"><ele>704.8</ele><time>2026-04-04T11:16:32.027Z</time></trkpt><trkpt lat="42.3463567" lon="13.3961783"><ele>704.4000000000001</ele><time>2026-04-04T11:16:33.027Z</time></trkpt><trkpt lat="42.34631" lon="13.396285"><ele>704.0</ele><time>2026-04-04T11:16:34.027Z</time></trkpt><trkpt lat="42.34626" lon="13.3964067"><ele>704.0</ele><time>2026-04-04T11:16:35.027Z</time></trkpt><trkpt lat="42.34621" lon="13.39652"><ele>704.0</ele><time>2026-04-04T11:16:36.027Z</time></trkpt><trkpt lat="42.3461717" lon="13.3966233"><ele>704.0</ele><time>2026-04-04T11:16:37.027Z</time></trkpt><trkpt lat="42.3461333" lon="13.3967333"><ele>704.0</ele><time>2026-04-04T11:16:38.027Z</time></trkpt><trkpt lat="42.3460967" lon="13.3968517"><ele>704.0</ele><time>2026-04-04T11:16:39.027Z</time></trkpt><trkpt lat="42.34606" lon="13.3969483"><ele>704.0</ele><time>2026-04-04T11:16:40.027Z</time></trkpt><trkpt lat="42.3460233" lon="13.3970233"><ele>704.0</ele><time>2026-04-04T11:16:41.027Z</time></trkpt><trkpt lat="42.34598" lon="13.39713"><ele>704.0</ele><time>2026-04-04T11:16:43.027Z</time></trkpt><trkpt lat="42.34595" lon="13.3972183"><ele>704.0</ele><time>2026-04-04T11:16:45.027Z</time></trkpt><trkpt lat="42.3459517" lon="13.3973167"><ele>704.0</ele><time>2026-04-04T11:16:47.027Z</time></trkpt><trkpt lat="42.345935" lon="13.3974017"><ele>704.0</ele><time>2026-04-04T11:16:49.026Z</time></trkpt><trkpt lat="42.345945" lon="13.3974917"><ele>704.0</ele><time>2026-04-04T11:16:52.027Z</time></trkpt><trkpt lat="42.3459267" lon="13.3975967"><ele>704.0</ele><time>2026-04-04T11:17:04.027Z</time></trkpt><trkpt lat="42.34587" lon="13.3977283"><ele>705.6</ele><time>2026-04-04T11:17:06.026Z</time></trkpt><trkpt lat="42.3458067" lon="13.3978817"><ele>707.2</ele><time>2026-04-04T11:17:08.027Z</time></trkpt><trkpt lat="42.3457533" lon="13.3979967"><ele>708.8000000000001</ele><time>2026-04-04T11:17:10.027Z</time></trkpt><trkpt lat="42.34574" lon="13.398105"><ele>710.4000000000001</ele><time>2026-04-04T11:17:12.027Z</time></trkpt><trkpt lat="42.3457183" lon="13.3982017"><ele>712.0</ele><time>2026-04-04T11:17:15.027Z</time></trkpt><trkpt lat="42.3457633" lon="13.3982867"><ele>711.9999999999999</ele><time>2026-04-04T11:17:22.026Z</time></trkpt><trkpt lat="42.3458267" lon="13.398325"><ele>712.0</ele><time>2026-04-04T11:17:23.027Z</time></trkpt><trkpt lat="42.345895" lon="13.3983633"><ele>712.0</ele><time>2026-04-04T11:17:24.026Z</time></trkpt><trkpt lat="42.345965" lon="13.3984017"><ele>712.0</ele><time>2026-04-04T11:17:25.027Z</time></trkpt><trkpt lat="42.346025" lon="13.3984367"><ele>712.0</ele><time>2026-04-04T11:17:26.027Z</time></trkpt><trkpt lat="42.346085" lon="13.3984667"><ele>711.9999999999999</ele><time>2026-04-04T11:17:28.027Z</time></trkpt><trkpt lat="42.3461383" lon="13.398405"><ele>712.0</ele><time>2026-04-04T11:17:54.026Z</time></trkpt><trkpt lat="42.34618" lon="13.3982917"><ele>712.0</ele><time>2026-04-04T11:17:56.027Z</time></trkpt><trkpt lat="42.3462333" lon="13.3981583"><ele>712.0</ele><time>2026-04-04T11:17:58.027Z</time></trkpt><trkpt lat="42.3462767" lon="13.39803"><ele>712.0</ele><time>2026-04-04T11:18:00.027Z</time></trkpt><trkpt lat="42.3463083" lon="13.3979283"><ele>712.0</ele><time>2026-04-04T11:18:03.027Z</time></trkpt><trkpt lat="42.3463283" lon="13.3978133"><ele>712.0</ele><time>2026-04-04T11:18:06.027Z</time></trkpt><trkpt lat="42.3463283" lon="13.3976883"><ele>712.0</ele><time>2026-04-04T11:18:31.027Z</time></trkpt><trkpt lat="42.3462433" lon="13.397655"><ele>712.0</ele><time>2026-04-04T11:18:35.027Z</time></trkpt><trkpt lat="42.3461717" lon="13.3976183"><ele>712.0</ele><time>2026-04-04T11:18:37.027Z</time></trkpt><trkpt lat="42.3461083" lon="13.3975717"><ele>712.0</ele><time>2026-04-04T11:18:39.027Z</time></trkpt><trkpt lat="42.3460333" lon="13.39752"><ele>712.0</ele><time>2026-04-04T11:18:41.027Z</time></trkpt><trkpt lat="42.34597" lon="13.39746"><ele>712.0</ele><time>2026-04-04T11:18:46.027Z</time></trkpt><trkpt lat="42.3459183" lon="13.3975383"><ele>712.0</ele><time>2026-04-04T11:18:51.027Z</time></trkpt><trkpt lat="42.3458667" lon="13.3976317"><ele>712.0</ele><time>2026-04-04T11:18:54.027Z</time></trkpt><trkpt lat="42.3458333" lon="13.39771"><ele>712.0</ele><time>2026-04-04T11:18:57.027Z</time></trkpt><trkpt lat="42.345825" lon="13.3977967"><ele>712.0</ele><time>2026-04-04T11:19:34.027Z</time></trkpt><trkpt lat="42.3457967" lon="13.397905"><ele>712.0</ele><time>2026-04-04T11:19:37.027Z</time></trkpt><trkpt lat="42.3457617" lon="13.3979983"><ele>712.0</ele><time>2026-04-04T11:19:53.027Z</time></trkpt><trkpt lat="42.3457417" lon="13.3980933"><ele>712.0</ele><time>2026-04-04T11:19:55.027Z</time></trkpt><trkpt lat="42.345795" lon="13.3981983"><ele>712.0</ele><time>2026-04-04T11:19:57.027Z</time></trkpt><trkpt lat="42.3458467" lon="13.3982633"><ele>712.0</ele><time>2026-04-04T11:19:58.026Z</time></trkpt><trkpt lat="42.3459133" lon="13.3983183"><ele>712.0</ele><time>2026-04-04T11:19:59.027Z</time></trkpt><trkpt lat="42.3459717" lon="13.3983717"><ele>712.0</ele><time>2026-04-04T11:20:00.027Z</time></trkpt><trkpt lat="42.3460417" lon="13.3984417"><ele>712.0</ele><time>2026-04-04T11:20:02.027Z</time></trkpt><trkpt lat="42.346115" lon="13.3984933"><ele>712.0</ele><time>2026-04-04T11:20:04.027Z</time></trkpt><trkpt lat="42.3462317" lon="13.39856"><ele>712.0</ele><time>2026-04-04T11:20:06.027Z</time></trkpt><trkpt lat="42.3463067" lon="13.3985967"><ele>712.0</ele><time>2026-04-04T11:20:07.027Z</time></trkpt><trkpt lat="42.34639" lon="13.3986333"><ele>712.0</ele><time>2026-04-04T11:20:08.027Z</time></trkpt><trkpt lat="42.34648" lon="13.3986667"><ele>712.0</ele><time>2026-04-04T11:20:09.027Z</time></trkpt><trkpt lat="42.3465617" lon="13.3986983"><ele>713.1666666666667</ele><time>2026-04-04T11:20:10.027Z</time></trkpt><trkpt lat="42.346645" lon="13.3987067"><ele>714.3333333333334</ele><time>2026-04-04T11:20:11.027Z</time></trkpt><trkpt lat="42.3467133" lon="13.3987333"><ele>715.5</ele><time>2026-04-04T11:20:12.027Z</time></trkpt><trkpt lat="42.3467817" lon="13.3987733"><ele>716.6666666666666</ele><time>2026-04-04T11:20:13.027Z</time></trkpt><trkpt lat="42.34684" lon="13.3988367"><ele>717.8333333333333</ele><time>2026-04-04T11:20:14.027Z</time></trkpt><trkpt lat="42.3469033" lon="13.3988817"><ele>719.0</ele><time>2026-04-04T11:20:15.027Z</time></trkpt><trkpt lat="42.3469983" lon="13.39896"><ele>719.6</ele><time>2026-04-04T11:20:17.027Z</time></trkpt><trkpt lat="42.347095" lon="13.3990083"><ele>720.2</ele><time>2026-04-04T11:20:20.027Z</time></trkpt><trkpt lat="42.347195" lon="13.39907"><ele>720.8000000000001</ele><time>2026-04-04T11:20:22.027Z</time></trkpt><trkpt lat="42.3472933" lon="13.3991567"><ele>721.4000000000001</ele><time>2026-04-04T11:20:24.027Z</time></trkpt><trkpt lat="42.3473883" lon="13.39922"><ele>722.0</ele><time>2026-04-04T11:20:26.027Z</time></trkpt><trkpt lat="42.3474967" lon="13.39931"><ele>722.8333333333333</ele><time>2026-04-04T11:20:28.027Z</time></trkpt><trkpt lat="42.3475583" lon="13.3993583"><ele>723.6666666666666</ele><time>2026-04-04T11:20:29.027Z</time></trkpt><trkpt lat="42.3476333" lon="13.3994017"><ele>724.5</ele><time>2026-04-04T11:20:30.027Z</time></trkpt><trkpt lat="42.347715" lon="13.3994267"><ele>725.3333333333334</ele><time>2026-04-04T11:20:31.027Z</time></trkpt><trkpt lat="42.34779" lon="13.399465"><ele>726.1666666666667</ele><time>2026-04-04T11:20:32.027Z</time></trkpt><trkpt lat="42.3478617" lon="13.3995033"><ele>727.0</ele><time>2026-04-04T11:20:33.027Z</time></trkpt><trkpt lat="42.34792" lon="13.3995483"><ele>727.0</ele><time>2026-04-04T11:20:34.026Z</time></trkpt><trkpt lat="42.3479917" lon="13.3995833"><ele>727.0</ele><time>2026-04-04T11:20:35.027Z</time></trkpt><trkpt lat="42.348055" lon="13.3996217"><ele>727.0</ele><time>2026-04-04T11:20:36.027Z</time></trkpt><trkpt lat="42.3481467" lon="13.399695"><ele>727.0</ele><time>2026-04-04T11:20:38.027Z</time></trkpt><trkpt lat="42.34822" lon="13.3996467"><ele>727.0</ele><time>2026-04-04T11:20:40.027Z</time></trkpt><trkpt lat="42.3482867" lon="13.3997383"><ele>727.0</ele><time>2026-04-04T11:20:48.027Z</time></trkpt><trkpt lat="42.3483867" lon="13.3998117"><ele>727.0</ele><time>2026-04-04T11:20:50.027Z</time></trkpt><trkpt lat="42.3484417" lon="13.399855"><ele>727.0</ele><time>2026-04-04T11:20:51.027Z</time></trkpt><trkpt lat="42.3485667" lon="13.3998683"><ele>727.0</ele><time>2026-04-04T11:20:53.027Z</time></trkpt><trkpt lat="42.3486433" lon="13.39994"><ele>727.0</ele><time>2026-04-04T11:20:55.027Z</time></trkpt><trkpt lat="42.3487533" lon="13.3999933"><ele>727.0</ele><time>2026-04-04T11:20:57.027Z</time></trkpt><trkpt lat="42.34885" lon="13.4000667"><ele>727.4000000000001</ele><time>2026-04-04T11:20:59.027Z</time></trkpt><trkpt lat="42.3489417" lon="13.4001433"><ele>727.8000000000001</ele><time>2026-04-04T11:21:01.027Z</time></trkpt><trkpt lat="42.3490317" lon="13.40023"><ele>728.2</ele><time>2026-04-04T11:21:03.027Z</time></trkpt><trkpt lat="42.349145" lon="13.40027"><ele>728.6</ele><time>2026-04-04T11:21:05.027Z</time></trkpt><trkpt lat="42.34921" lon="13.4003017"><ele>729.0</ele><time>2026-04-04T11:21:06.027Z</time></trkpt><trkpt lat="42.349285" lon="13.40033"><ele>729.0</ele><time>2026-04-04T11:21:07.027Z</time></trkpt><trkpt lat="42.34942" lon="13.40035"><ele>729.0</ele><time>2026-04-04T11:21:09.027Z</time></trkpt><trkpt lat="42.349535" lon="13.400395"><ele>729.0</ele><time>2026-04-04T11:21:11.027Z</time></trkpt><trkpt lat="42.3496433" lon="13.40047"><ele>729.0</ele><time>2026-04-04T11:21:13.027Z</time></trkpt><trkpt lat="42.34971" lon="13.4005517"><ele>728.0</ele><time>2026-04-04T11:21:15.026Z</time></trkpt><trkpt lat="42.3497917" lon="13.40062"><ele>727.0</ele><time>2026-04-04T11:21:18.026Z</time></trkpt><trkpt lat="42.3498783" lon="13.4006483"><ele>726.0</ele><time>2026-04-04T11:21:21.026Z</time></trkpt><trkpt lat="42.3499417" lon="13.400725"><ele>725.0</ele><time>2026-04-04T11:21:23.026Z</time></trkpt><trkpt lat="42.3500067" lon="13.400815"><ele>724.0</ele><time>2026-04-04T11:21:25.026Z</time></trkpt><trkpt lat="42.3500783" lon="13.4008833"><ele>724.0</ele><time>2026-04-04T11:21:28.026Z</time></trkpt><trkpt lat="42.3500983" lon="13.400975"><ele>724.0</ele><time>2026-04-04T11:21:30.026Z</time></trkpt><trkpt lat="42.350155" lon="13.4010483"><ele>724.0</ele><time>2026-04-04T11:21:33.026Z</time></trkpt><trkpt lat="42.35023" lon="13.401"><ele>724.0</ele><time>2026-04-04T11:21:35.026Z</time></trkpt><trkpt lat="42.3503033" lon="13.400935"><ele>724.0</ele><time>2026-04-04T11:21:38.026Z</time></trkpt><trkpt lat="42.3503717" lon="13.400875"><ele>724.0</ele><time>2026-04-04T11:21:41.026Z</time></trkpt><trkpt lat="42.3504533" lon="13.4008617"><ele>724.0</ele><time>2026-04-04T11:21:52.026Z</time></trkpt><trkpt lat="42.350445" lon="13.40098"><ele>724.0</ele><time>2026-04-04T11:21:54.026Z</time></trkpt><trkpt lat="42.35041" lon="13.4011533"><ele>724.0</ele><time>2026-04-04T11:21:56.026Z</time></trkpt><trkpt lat="42.3503733" lon="13.4012583"><ele>724.0</ele><time>2026-04-04T11:21:57.026Z</time></trkpt><trkpt lat="42.35035" lon="13.40136"><ele>724.0</ele><time>2026-04-04T11:21:58.026Z</time></trkpt><trkpt lat="42.35031" lon="13.401435"><ele>723.3333333333334</ele><time>2026-04-04T11:21:59.026Z</time></trkpt><trkpt lat="42.3502733" lon="13.40155"><ele>722.6666666666667</ele><time>2026-04-04T11:22:01.026Z</time></trkpt><trkpt lat="42.3502167" lon="13.4016383"><ele>722.0</ele><time>2026-04-04T11:22:03.026Z</time></trkpt><trkpt lat="42.35017" lon="13.4017067"><ele>721.3333333333334</ele><time>2026-04-04T11:22:05.026Z</time></trkpt><trkpt lat="42.3501283" lon="13.4017717"><ele>720.6666666666666</ele><time>2026-04-04T11:22:07.025Z</time></trkpt><trkpt lat="42.3500917" lon="13.4018717"><ele>720.0</ele><time>2026-04-04T11:22:10.026Z</time></trkpt><trkpt lat="42.3500633" lon="13.4019567"><ele>720.0</ele><time>2026-04-04T11:22:12.026Z</time></trkpt><trkpt lat="42.3500333" lon="13.4020767"><ele>720.0</ele><time>2026-04-04T11:22:14.026Z</time></trkpt><trkpt lat="42.350005" lon="13.4022"><ele>720.0</ele><time>2026-04-04T11:22:16.026Z</time></trkpt><trkpt lat="42.3499833" lon="13.4023083"><ele>720.0</ele><time>2026-04-04T11:22:18.026Z</time></trkpt><trkpt lat="42.349985" lon="13.402405"><ele>720.0</ele><time>2026-04-04T11:22:21.026Z</time></trkpt><trkpt lat="42.3500133" lon="13.4024983"><ele>720.0</ele><time>2026-04-04T11:22:24.026Z</time></trkpt><trkpt lat="42.3500067" lon="13.402615"><ele>720.6666666666666</ele><time>2026-04-04T11:22:26.026Z</time></trkpt><trkpt lat="42.349965" lon="13.4027717"><ele>721.3333333333334</ele><time>2026-04-04T11:22:28.025Z</time></trkpt><trkpt lat="42.3499367" lon="13.4028583"><ele>722.0</ele><time>2026-04-04T11:22:29.026Z</time></trkpt><trkpt lat="42.34991" lon="13.402945"><ele>722.6666666666667</ele><time>2026-04-04T11:22:30.025Z</time></trkpt><trkpt lat="42.3498833" lon="13.4030267"><ele>723.3333333333334</ele><time>2026-04-04T11:22:31.025Z</time></trkpt><trkpt lat="42.349855" lon="13.403105"><ele>724.0</ele><time>2026-04-04T11:22:32.026Z</time></trkpt><trkpt lat="42.3498233" lon="13.403245"><ele>724.0</ele><time>2026-04-04T11:22:34.026Z</time></trkpt><trkpt lat="42.3498533" lon="13.4033533"><ele>724.0</ele><time>2026-04-04T11:22:36.026Z</time></trkpt><trkpt lat="42.34997" lon="13.403395"><ele>724.0</ele><time>2026-04-04T11:22:38.026Z</time></trkpt><trkpt lat="42.350045" lon="13.403415"><ele>724.0</ele><time>2026-04-04T11:22:39.026Z</time></trkpt><trkpt lat="42.3501167" lon="13.4034417"><ele>724.0</ele><time>2026-04-04T11:22:40.026Z</time></trkpt><trkpt lat="42.350185" lon="13.4034633"><ele>724.0</ele><time>2026-04-04T11:22:41.026Z</time></trkpt><trkpt lat="42.3502567" lon="13.4034883"><ele>724.0</ele><time>2026-04-04T11:22:42.026Z</time></trkpt><trkpt lat="42.3503267" lon="13.4035083"><ele>724.0</ele><time>2026-04-04T11:22:43.026Z</time></trkpt><trkpt lat="42.3503967" lon="13.4035283"><ele>724.0</ele><time>2026-04-04T11:22:44.026Z</time></trkpt><trkpt lat="42.3504683" lon="13.40355"><ele>724.0</ele><time>2026-04-04T11:22:45.026Z</time></trkpt><trkpt lat="42.3505417" lon="13.4035667"><ele>724.0</ele><time>2026-04-04T11:22:46.026Z</time></trkpt><trkpt lat="42.3506183" lon="13.4035717"><ele>724.0</ele><time>2026-04-04T11:22:47.026Z</time></trkpt><trkpt lat="42.350695" lon="13.4035783"><ele>724.0</ele><time>2026-04-04T11:22:48.026Z</time></trkpt><trkpt lat="42.3507667" lon="13.4035817"><ele>724.6666666666667</ele><time>2026-04-04T11:22:49.026Z</time></trkpt><trkpt lat="42.350835" lon="13.4035833"><ele>725.3333333333334</ele><time>2026-04-04T11:22:50.026Z</time></trkpt><trkpt lat="42.3508967" lon="13.4036033"><ele>726.0</ele><time>2026-04-04T11:22:51.026Z</time></trkpt><trkpt lat="42.3509733" lon="13.40363"><ele>726.6666666666666</ele><time>2026-04-04T11:22:53.026Z</time></trkpt><trkpt lat="42.3510317" lon="13.4036683"><ele>727.3333333333333</ele><time>2026-04-04T11:22:55.026Z</time></trkpt><trkpt lat="42.3511033" lon="13.4036117"><ele>728.0</ele><time>2026-04-04T11:22:58.026Z</time></trkpt><trkpt lat="42.35115" lon="13.4034833"><ele>728.0</ele><time>2026-04-04T11:23:00.026Z</time></trkpt><trkpt lat="42.3511633" lon="13.403395"><ele>728.0</ele><time>2026-04-04T11:23:01.026Z</time></trkpt><trkpt lat="42.351175" lon="13.4032967"><ele>728.0</ele><time>2026-04-04T11:23:02.026Z</time></trkpt><trkpt lat="42.35119" lon="13.40319"><ele>728.0</ele><time>2026-04-04T11:23:03.025Z</time></trkpt><trkpt lat="42.3512083" lon="13.4031"><ele>728.0</ele><time>2026-04-04T11:23:04.026Z</time></trkpt><trkpt lat="42.3512283" lon="13.4030117"><ele>728.0</ele><time>2026-04-04T11:23:05.026Z</time></trkpt><trkpt lat="42.351235" lon="13.4029217"><ele>728.0</ele><time>2026-04-04T11:23:06.025Z</time></trkpt><trkpt lat="42.3512567" lon="13.40277"><ele>729.0</ele><time>2026-04-04T11:23:08.026Z</time></trkpt><trkpt lat="42.35128" lon="13.4026483"><ele>730.0</ele><time>2026-04-04T11:23:10.026Z</time></trkpt><trkpt lat="42.3513" lon="13.4025617"><ele>731.0</ele><time>2026-04-04T11:23:13.026Z</time></trkpt><trkpt lat="42.3512283" lon="13.40253"><ele>732.0</ele><time>2026-04-04T11:23:27.026Z</time></trkpt><trkpt lat="42.351155" lon="13.4024817"><ele>733.0</ele><time>2026-04-04T11:23:29.026Z</time></trkpt><trkpt lat="42.3510867" lon="13.4024467"><ele>734.0</ele><time>2026-04-04T11:23:31.026Z</time></trkpt><trkpt lat="42.3510233" lon="13.4024233"><ele>734.0</ele><time>2026-04-04T11:23:34.026Z</time></trkpt></trkseg><trkseg><trkpt lat="42.352865" lon="13.401735"><ele>736.0</ele><time>2026-04-04T12:58:42.03Z</time></trkpt><trkpt lat="42.3529452" lon="13.4017337"><ele>736.0</ele><time>2026-04-04T13:00:51.03Z</time></trkpt><trkpt lat="42.3530253" lon="13.4017784"><ele>736.0</ele><time>2026-04-04T13:00:53.03Z</time></trkpt><trkpt lat="42.3531094" lon="13.4018205"><ele>736.0</ele><time>2026-04-04T13:00:55.03Z</time></trkpt><trkpt lat="42.3531991" lon="13.4018638"><ele>736.0</ele><time>2026-04-04T13:00:57.03Z</time></trkpt><trkpt lat="42.3533017" lon="13.4018929"><ele>735.6666666666667</ele><time>2026-04-04T13:00:59.03Z</time></trkpt><trkpt lat="42.3534022" lon="13.4018673"><ele>735.3333333333334</ele><time>2026-04-04T13:01:01.03Z</time></trkpt><trkpt lat="42.3534955" lon="13.4018215"><ele>735.0</ele><time>2026-04-04T13:01:03.03Z</time></trkpt><trkpt lat="42.3535723" lon="13.4017973"><ele>734.6666666666666</ele><time>2026-04-04T13:01:05.03Z</time></trkpt><trkpt lat="42.3536386" lon="13.4018079"><ele>734.3333333333333</ele><time>2026-04-04T13:01:12.03Z</time></trkpt><trkpt lat="42.3537124" lon="13.4017445"><ele>734.0</ele><time>2026-04-04T13:01:16.029Z</time></trkpt><trkpt lat="42.3537702" lon="13.4016925"><ele>734.0</ele><time>2026-04-04T13:01:18.03Z</time></trkpt><trkpt lat="42.3538281" lon="13.4016389"><ele>734.0</ele><time>2026-04-04T13:01:20.03Z</time></trkpt><trkpt lat="42.353894" lon="13.4016135"><ele>734.0</ele><time>2026-04-04T13:01:22.03Z</time></trkpt><trkpt lat="42.3539677" lon="13.4016396"><ele>734.0</ele><time>2026-04-04T13:01:24.03Z</time></trkpt><trkpt lat="42.3540475" lon="13.4017113"><ele>734.0</ele><time>2026-04-04T13:01:26.03Z</time></trkpt><trkpt lat="42.3541869" lon="13.4018902"><ele>733.5</ele><time>2026-04-04T13:01:29.03Z</time></trkpt><trkpt lat="42.3542408" lon="13.4019542"><ele>733.0</ele><time>2026-04-04T13:01:30.03Z</time></trkpt><trkpt lat="42.3543043" lon="13.4020232"><ele>732.5</ele><time>2026-04-04T13:01:31.029Z</time></trkpt><trkpt lat="42.3543678" lon="13.4021012"><ele>732.0</ele><time>2026-04-04T13:01:32.03Z</time></trkpt><trkpt lat="42.3544246" lon="13.4021721"><ele>731.5</ele><time>2026-04-04T13:01:33.03Z</time></trkpt><trkpt lat="42.3544765" lon="13.4022368"><ele>731.0</ele><time>2026-04-04T13:01:34.03Z</time></trkpt><trkpt lat="42.3545272" lon="13.4022969"><ele>731.0</ele><time>2026-04-04T13:01:35.03Z</time></trkpt><trkpt lat="42.3545754" lon="13.4023558"><ele>731.0</ele><time>2026-04-04T13:01:36.03Z</time></trkpt><trkpt lat="42.3546265" lon="13.4024168"><ele>731.0</ele><time>2026-04-04T13:01:37.03Z</time></trkpt><trkpt lat="42.3546794" lon="13.402477"><ele>731.0</ele><time>2026-04-04T13:01:38.03Z</time></trkpt><trkpt lat="42.3547318" lon="13.402532"><ele>731.0</ele><time>2026-04-04T13:01:39.03Z</time></trkpt><trkpt lat="42.3547864" lon="13.4025853"><ele>731.0</ele><time>2026-04-04T13:01:40.03Z</time></trkpt><trkpt lat="42.3548427" lon="13.4026358"><ele>731.0</ele><time>2026-04-04T13:01:41.03Z</time></trkpt><trkpt lat="42.3548968" lon="13.4026894"><ele>729.6666666666666</ele><time>2026-04-04T13:01:42.029Z</time></trkpt><trkpt lat="42.3549488" lon="13.402756"><ele>728.3333333333333</ele><time>2026-04-04T13:01:43.03Z</time></trkpt><trkpt lat="42.3550031" lon="13.4028304"><ele>727.0</ele><time>2026-04-04T13:01:44.03Z</time></trkpt><trkpt lat="42.355053" lon="13.4029094"><ele>725.6666666666666</ele><time>2026-04-04T13:01:45.03Z</time></trkpt><trkpt lat="42.3551002" lon="13.4029912"><ele>724.3333333333334</ele><time>2026-04-04T13:01:46.03Z</time></trkpt><trkpt lat="42.3551491" lon="13.4030783"><ele>723.0</ele><time>2026-04-04T13:01:47.03Z</time></trkpt><trkpt lat="42.3551947" lon="13.4031621"><ele>723.0</ele><time>2026-04-04T13:01:48.03Z</time></trkpt><trkpt lat="42.3552393" lon="13.4032434"><ele>723.0</ele><time>2026-04-04T13:01:49.03Z</time></trkpt><trkpt lat="42.3552812" lon="13.4033294"><ele>723.0</ele><time>2026-04-04T13:01:50.03Z</time></trkpt><trkpt lat="42.3553212" lon="13.4034247"><ele>723.0</ele><time>2026-04-04T13:01:51.029Z</time></trkpt><trkpt lat="42.3553592" lon="13.4035323"><ele>723.0</ele><time>2026-04-04T13:01:52.029Z</time></trkpt><trkpt lat="42.3553914" lon="13.4036396"><ele>723.0</ele><time>2026-04-04T13:01:53.03Z</time></trkpt><trkpt lat="42.3554188" lon="13.4037564"><ele>724.1666666666666</ele><time>2026-04-04T13:01:54.03Z</time></trkpt><trkpt lat="42.3554441" lon="13.4038725"><ele>725.3333333333334</ele><time>2026-04-04T13:01:55.03Z</time></trkpt><trkpt lat="42.3554667" lon="13.4039883"><ele>726.5</ele><time>2026-04-04T13:01:56.03Z</time></trkpt><trkpt lat="42.35549" lon="13.4040967"><ele>727.6666666666667</ele><time>2026-04-04T13:01:57.03Z</time></trkpt><trkpt lat="42.3555117" lon="13.4042033"><ele>728.8333333333334</ele><time>2026-04-04T13:01:58.03Z</time></trkpt><trkpt lat="42.3555317" lon="13.4043133"><ele>730.0</ele><time>2026-04-04T13:01:59.03Z</time></trkpt><trkpt lat="42.3555533" lon="13.404425"><ele>726.2</ele><time>2026-04-04T13:02:00.03Z</time></trkpt><trkpt lat="42.3555783" lon="13.4045367"><ele>722.4</ele><time>2026-04-04T13:02:01.03Z</time></trkpt><trkpt lat="42.3556" lon="13.4046467"><ele>718.5999999999999</ele><time>2026-04-04T13:02:02.03Z</time></trkpt><trkpt lat="42.35562" lon="13.4047683"><ele>714.8</ele><time>2026-04-04T13:02:03.03Z</time></trkpt><trkpt lat="42.35564" lon="13.404895"><ele>711.0</ele><time>2026-04-04T13:02:04.03Z</time></trkpt><trkpt lat="42.3556633" lon="13.405035"><ele>711.0</ele><time>2026-04-04T13:02:05.03Z</time></trkpt><trkpt lat="42.3556817" lon="13.40518"><ele>711.0</ele><time>2026-04-04T13:02:06.03Z</time></trkpt><trkpt lat="42.3557033" lon="13.4053183"><ele>711.0</ele><time>2026-04-04T13:02:07.03Z</time></trkpt><trkpt lat="42.35573" lon="13.4054583"><ele>711.0</ele><time>2026-04-04T13:02:08.03Z</time></trkpt><trkpt lat="42.35575" lon="13.4055817"><ele>711.0</ele><time>2026-04-04T13:02:09.03Z</time></trkpt><trkpt lat="42.3557583" lon="13.4056833"><ele>711.1428571428571</ele><time>2026-04-04T13:02:10.03Z</time></trkpt><trkpt lat="42.355765" lon="13.4057717"><ele>711.2857142857142</ele><time>2026-04-04T13:02:11.03Z</time></trkpt><trkpt lat="42.3557733" lon="13.4058583"><ele>711.4285714285713</ele><time>2026-04-04T13:02:12.03Z</time></trkpt><trkpt lat="42.3557833" lon="13.4059483"><ele>711.5714285714286</ele><time>2026-04-04T13:02:13.03Z</time></trkpt><trkpt lat="42.355785" lon="13.4060383"><ele>711.7142857142857</ele><time>2026-04-04T13:02:14.03Z</time></trkpt><trkpt lat="42.3557883" lon="13.4061367"><ele>711.8571428571428</ele><time>2026-04-04T13:02:15.03Z</time></trkpt><trkpt lat="42.3557883" lon="13.406245"><ele>712.0</ele><time>2026-04-04T13:02:16.03Z</time></trkpt><trkpt lat="42.3557783" lon="13.4063633"><ele>712.0</ele><time>2026-04-04T13:02:17.03Z</time></trkpt><trkpt lat="42.3557533" lon="13.4064783"><ele>712.0</ele><time>2026-04-04T13:02:18.03Z</time></trkpt><trkpt lat="42.35571" lon="13.4065783"><ele>712.0</ele><time>2026-04-04T13:02:19.03Z</time></trkpt><trkpt lat="42.3556583" lon="13.40668"><ele>712.0</ele><time>2026-04-04T13:02:20.03Z</time></trkpt><trkpt lat="42.3556" lon="13.4067633"><ele>712.0</ele><time>2026-04-04T13:02:21.029Z</time></trkpt><trkpt lat="42.35553" lon="13.4068317"><ele>712.0</ele><time>2026-04-04T13:02:22.03Z</time></trkpt><trkpt lat="42.3554667" lon="13.4068833"><ele>712.0</ele><time>2026-04-04T13:02:23.03Z</time></trkpt><trkpt lat="42.355405" lon="13.406935"><ele>712.0</ele><time>2026-04-04T13:02:24.03Z</time></trkpt><trkpt lat="42.35534" lon="13.406995"><ele>712.0</ele><time>2026-04-04T13:02:25.03Z</time></trkpt><trkpt lat="42.35529" lon="13.4070733"><ele>712.0</ele><time>2026-04-04T13:02:26.03Z</time></trkpt><trkpt lat="42.355235" lon="13.4071583"><ele>712.0</ele><time>2026-04-04T13:02:27.03Z</time></trkpt><trkpt lat="42.355185" lon="13.4072567"><ele>712.0</ele><time>2026-04-04T13:02:28.03Z</time></trkpt><trkpt lat="42.3551367" lon="13.4073583"><ele>712.0</ele><time>2026-04-04T13:02:29.03Z</time></trkpt><trkpt lat="42.3550883" lon="13.407455"><ele>712.0</ele><time>2026-04-04T13:02:30.03Z</time></trkpt><trkpt lat="42.3550367" lon="13.4075483"><ele>712.0</ele><time>2026-04-04T13:02:31.03Z</time></trkpt><trkpt lat="42.3549817" lon="13.4076467"><ele>712.0</ele><time>2026-04-04T13:02:32.03Z</time></trkpt><trkpt lat="42.3549267" lon="13.407745"><ele>712.0</ele><time>2026-04-04T13:02:33.03Z</time></trkpt><trkpt lat="42.354865" lon="13.4078433"><ele>712.0</ele><time>2026-04-04T13:02:34.03Z</time></trkpt><trkpt lat="42.3548033" lon="13.407955"><ele>712.0</ele><time>2026-04-04T13:02:35.03Z</time></trkpt><trkpt lat="42.354745" lon="13.4080617"><ele>712.0</ele><time>2026-04-04T13:02:36.029Z</time></trkpt><trkpt lat="42.3546917" lon="13.4081817"><ele>712.0</ele><time>2026-04-04T13:02:37.03Z</time></trkpt><trkpt lat="42.3546433" lon="13.4082933"><ele>712.0</ele><time>2026-04-04T13:02:38.029Z</time></trkpt><trkpt lat="42.3545917" lon="13.4084117"><ele>712.4000000000001</ele><time>2026-04-04T13:02:39.03Z</time></trkpt><trkpt lat="42.354535" lon="13.40853"><ele>712.8000000000001</ele><time>2026-04-04T13:02:40.03Z</time></trkpt><trkpt lat="42.3544767" lon="13.4086467"><ele>713.2</ele><time>2026-04-04T13:02:41.03Z</time></trkpt><trkpt lat="42.3544183" lon="13.4087633"><ele>713.6</ele><time>2026-04-04T13:02:42.03Z</time></trkpt><trkpt lat="42.3543533" lon="13.4088817"><ele>714.0</ele><time>2026-04-04T13:02:43.03Z</time></trkpt><trkpt lat="42.354285" lon="13.4089867"><ele>714.0</ele><time>2026-04-04T13:02:44.03Z</time></trkpt><trkpt lat="42.3542083" lon="13.4091017"><ele>714.0</ele><time>2026-04-04T13:02:45.03Z</time></trkpt><trkpt lat="42.35413" lon="13.4092117"><ele>714.0</ele><time>2026-04-04T13:02:46.03Z</time></trkpt><trkpt lat="42.3540517" lon="13.4093233"><ele>714.0</ele><time>2026-04-04T13:02:47.03Z</time></trkpt><trkpt lat="42.35398" lon="13.4094267"><ele>714.0</ele><time>2026-04-04T13:02:48.03Z</time></trkpt><trkpt lat="42.3539033" lon="13.409535"><ele>714.25</ele><time>2026-04-04T13:02:49.03Z</time></trkpt><trkpt lat="42.35382" lon="13.4096567"><ele>714.5</ele><time>2026-04-04T13:02:50.03Z</time></trkpt><trkpt lat="42.353745" lon="13.4097767"><ele>714.75</ele><time>2026-04-04T13:02:51.03Z</time></trkpt><trkpt lat="42.3536683" lon="13.4098833"><ele>715.0</ele><time>2026-04-04T13:02:52.03Z</time></trkpt><trkpt lat="42.3535867" lon="13.40999"><ele>714.5</ele><time>2026-04-04T13:02:53.03Z</time></trkpt><trkpt lat="42.3535083" lon="13.4100883"><ele>714.0</ele><time>2026-04-04T13:02:54.03Z</time></trkpt><trkpt lat="42.3534233" lon="13.4102083"><ele>713.5</ele><time>2026-04-04T13:02:55.03Z</time></trkpt><trkpt lat="42.3533533" lon="13.410335"><ele>713.0</ele><time>2026-04-04T13:02:56.029Z</time></trkpt><trkpt lat="42.3532767" lon="13.4104467"><ele>713.2</ele><time>2026-04-04T13:02:57.03Z</time></trkpt><trkpt lat="42.353215" lon="13.4105517"><ele>713.4</ele><time>2026-04-04T13:02:58.03Z</time></trkpt><trkpt lat="42.3531433" lon="13.41065"><ele>713.6</ele><time>2026-04-04T13:02:59.03Z</time></trkpt><trkpt lat="42.3530733" lon="13.410745"><ele>713.8000000000001</ele><time>2026-04-04T13:03:00.029Z</time></trkpt><trkpt lat="42.353" lon="13.4108533"><ele>714.0</ele><time>2026-04-04T13:03:01.03Z</time></trkpt><trkpt lat="42.35293" lon="13.4109567"><ele>714.0</ele><time>2026-04-04T13:03:02.03Z</time></trkpt><trkpt lat="42.3528567" lon="13.4110683"><ele>714.0</ele><time>2026-04-04T13:03:03.03Z</time></trkpt><trkpt lat="42.3527767" lon="13.4111917"><ele>714.0</ele><time>2026-04-04T13:03:04.03Z</time></trkpt><trkpt lat="42.352705" lon="13.411295"><ele>714.0</ele><time>2026-04-04T13:03:05.03Z</time></trkpt><trkpt lat="42.352635" lon="13.41139"><ele>714.0</ele><time>2026-04-04T13:03:06.03Z</time></trkpt><trkpt lat="42.3525667" lon="13.41149"><ele>714.3333333333334</ele><time>2026-04-04T13:03:07.03Z</time></trkpt><trkpt lat="42.352505" lon="13.4115783"><ele>714.6666666666666</ele><time>2026-04-04T13:03:08.03Z</time></trkpt><trkpt lat="42.3524467" lon="13.4116733"><ele>715.0</ele><time>2026-04-04T13:03:09.03Z</time></trkpt><trkpt lat="42.3523867" lon="13.4117583"><ele>715.3333333333333</ele><time>2026-04-04T13:03:10.03Z</time></trkpt><trkpt lat="42.352335" lon="13.4118517"><ele>715.6666666666666</ele><time>2026-04-04T13:03:11.03Z</time></trkpt><trkpt lat="42.3522683" lon="13.41194"><ele>716.0</ele><time>2026-04-04T13:03:12.03Z</time></trkpt><trkpt lat="42.352205" lon="13.4120417"><ele>715.8</ele><time>2026-04-04T13:03:13.03Z</time></trkpt><trkpt lat="42.3521417" lon="13.412135"><ele>715.5999999999999</ele><time>2026-04-04T13:03:14.03Z</time></trkpt><trkpt lat="42.3520867" lon="13.4122183"><ele>715.4</ele><time>2026-04-04T13:03:15.03Z</time></trkpt><trkpt lat="42.3520383" lon="13.4122933"><ele>715.2</ele><time>2026-04-04T13:03:16.03Z</time></trkpt><trkpt lat="42.3519367" lon="13.4123833"><ele>715.0</ele><time>2026-04-04T13:03:18.03Z</time></trkpt><trkpt lat="42.35182" lon="13.4123367"><ele>715.0</ele><time>2026-04-04T13:03:20.03Z</time></trkpt><trkpt lat="42.3517567" lon="13.4122633"><ele>715.0</ele><time>2026-04-04T13:03:21.03Z</time></trkpt><trkpt lat="42.35169" lon="13.4121733"><ele>715.0</ele><time>2026-04-04T13:03:22.03Z</time></trkpt><trkpt lat="42.3516317" lon="13.4120833"><ele>715.0</ele><time>2026-04-04T13:03:23.03Z</time></trkpt><trkpt lat="42.3515767" lon="13.4119917"><ele>715.0</ele><time>2026-04-04T13:03:24.03Z</time></trkpt><trkpt lat="42.35152" lon="13.411905"><ele>715.0</ele><time>2026-04-04T13:03:25.03Z</time></trkpt><trkpt lat="42.3514667" lon="13.4118233"><ele>714.5</ele><time>2026-04-04T13:03:26.03Z</time></trkpt><trkpt lat="42.35141" lon="13.4117483"><ele>714.0</ele><time>2026-04-04T13:03:27.03Z</time></trkpt><trkpt lat="42.3513567" lon="13.41167"><ele>713.5</ele><time>2026-04-04T13:03:28.03Z</time></trkpt><trkpt lat="42.3513017" lon="13.4115933"><ele>713.0</ele><time>2026-04-04T13:03:29.03Z</time></trkpt><trkpt lat="42.3512467" lon="13.4115183"><ele>712.5</ele><time>2026-04-04T13:03:30.03Z</time></trkpt><trkpt lat="42.351195" lon="13.411445"><ele>712.0</ele><time>2026-04-04T13:03:31.03Z</time></trkpt><trkpt lat="42.3511317" lon="13.4113683"><ele>710.8</ele><time>2026-04-04T13:03:32.03Z</time></trkpt><trkpt lat="42.3510717" lon="13.4112917"><ele>709.6</ele><time>2026-04-04T13:03:33.03Z</time></trkpt><trkpt lat="42.3509983" lon="13.411205"><ele>708.4</ele><time>2026-04-04T13:03:34.03Z</time></trkpt><trkpt lat="42.35093" lon="13.4111217"><ele>707.1999999999999</ele><time>2026-04-04T13:03:35.03Z</time></trkpt><trkpt lat="42.3508483" lon="13.4110467"><ele>706.0</ele><time>2026-04-04T13:03:36.03Z</time></trkpt><trkpt lat="42.3507467" lon="13.410975"><ele>706.0</ele><time>2026-04-04T13:03:37.03Z</time></trkpt><trkpt lat="42.3506367" lon="13.4109233"><ele>706.0</ele><time>2026-04-04T13:03:38.03Z</time></trkpt><trkpt lat="42.3505217" lon="13.4108967"><ele>706.0</ele><time>2026-04-04T13:03:39.03Z</time></trkpt><trkpt lat="42.3504067" lon="13.410885"><ele>706.0</ele><time>2026-04-04T13:03:40.03Z</time></trkpt><trkpt lat="42.350295" lon="13.4108817"><ele>704.5999999999999</ele><time>2026-04-04T13:03:41.03Z</time></trkpt><trkpt lat="42.350195" lon="13.4109083"><ele>703.2</ele><time>2026-04-04T13:03:42.03Z</time></trkpt><trkpt lat="42.35009" lon="13.4109583"><ele>701.8</ele><time>2026-04-04T13:03:43.03Z</time></trkpt><trkpt lat="42.349985" lon="13.411025"><ele>700.4000000000001</ele><time>2026-04-04T13:03:44.03Z</time></trkpt><trkpt lat="42.34988" lon="13.4110917"><ele>699.0</ele><time>2026-04-04T13:03:45.03Z</time></trkpt><trkpt lat="42.34977" lon="13.4111633"><ele>697.0</ele><time>2026-04-04T13:03:46.029Z</time></trkpt><trkpt lat="42.3496667" lon="13.4112317"><ele>695.0</ele><time>2026-04-04T13:03:47.03Z</time></trkpt><trkpt lat="42.3495567" lon="13.411295"><ele>693.0</ele><time>2026-04-04T13:03:48.03Z</time></trkpt><trkpt lat="42.3494433" lon="13.4113517"><ele>691.0</ele><time>2026-04-04T13:03:49.03Z</time></trkpt><trkpt lat="42.3493233" lon="13.411405"><ele>691.0</ele><time>2026-04-04T13:03:50.03Z</time></trkpt><trkpt lat="42.3491967" lon="13.41144"><ele>691.0</ele><time>2026-04-04T13:03:51.03Z</time></trkpt><trkpt lat="42.3490717" lon="13.4114467"><ele>691.0</ele><time>2026-04-04T13:03:52.03Z</time></trkpt><trkpt lat="42.3489467" lon="13.41144"><ele>691.0</ele><time>2026-04-04T13:03:53.03Z</time></trkpt><trkpt lat="42.3488183" lon="13.41141"><ele>690.25</ele><time>2026-04-04T13:03:54.03Z</time></trkpt><trkpt lat="42.3486917" lon="13.4113817"><ele>689.5</ele><time>2026-04-04T13:03:55.03Z</time></trkpt><trkpt lat="42.3485633" lon="13.4113583"><ele>688.75</ele><time>2026-04-04T13:03:56.03Z</time></trkpt><trkpt lat="42.3484333" lon="13.411325"><ele>688.0</ele><time>2026-04-04T13:03:57.03Z</time></trkpt><trkpt lat="42.3483067" lon="13.4112983"><ele>687.75</ele><time>2026-04-04T13:03:58.03Z</time></trkpt><trkpt lat="42.3481717" lon="13.411265"><ele>687.5</ele><time>2026-04-04T13:03:59.03Z</time></trkpt><trkpt lat="42.3480383" lon="13.4112333"><ele>687.25</ele><time>2026-04-04T13:04:00.03Z</time></trkpt><trkpt lat="42.3479067" lon="13.411205"><ele>687.0</ele><time>2026-04-04T13:04:01.03Z</time></trkpt><trkpt lat="42.347785" lon="13.41118"><ele>686.0</ele><time>2026-04-04T13:04:02.03Z</time></trkpt><trkpt lat="42.3476617" lon="13.411155"><ele>685.0</ele><time>2026-04-04T13:04:03.03Z</time></trkpt><trkpt lat="42.3475283" lon="13.4111333"><ele>684.0</ele><time>2026-04-04T13:04:04.03Z</time></trkpt><trkpt lat="42.3473933" lon="13.41112"><ele>683.0</ele><time>2026-04-04T13:04:05.03Z</time></trkpt><trkpt lat="42.3472517" lon="13.411105"><ele>682.25</ele><time>2026-04-04T13:04:06.03Z</time></trkpt><trkpt lat="42.3471183" lon="13.4110933"><ele>681.5</ele><time>2026-04-04T13:04:07.029Z</time></trkpt><trkpt lat="42.3469983" lon="13.4110783"><ele>680.75</ele><time>2026-04-04T13:04:08.03Z</time></trkpt><trkpt lat="42.3468767" lon="13.411055"><ele>680.0</ele><time>2026-04-04T13:04:09.03Z</time></trkpt><trkpt lat="42.346745" lon="13.41102"><ele>680.0</ele><time>2026-04-04T13:04:10.03Z</time></trkpt><trkpt lat="42.3466133" lon="13.41097"><ele>680.0</ele><time>2026-04-04T13:04:11.03Z</time></trkpt><trkpt lat="42.34649" lon="13.410915"><ele>680.0</ele><time>2026-04-04T13:04:12.03Z</time></trkpt><trkpt lat="42.34637" lon="13.41086"><ele>680.0</ele><time>2026-04-04T13:04:13.03Z</time></trkpt><trkpt lat="42.3462417" lon="13.41079"><ele>679.25</ele><time>2026-04-04T13:04:14.03Z</time></trkpt><trkpt lat="42.3461217" lon="13.41072"><ele>678.5</ele><time>2026-04-04T13:04:15.03Z</time></trkpt><trkpt lat="42.345995" lon="13.4106367"><ele>677.75</ele><time>2026-04-04T13:04:16.03Z</time></trkpt><trkpt lat="42.3458683" lon="13.4105483"><ele>677.0</ele><time>2026-04-04T13:04:17.03Z</time></trkpt><trkpt lat="42.34574" lon="13.4104517"><ele>677.0</ele><time>2026-04-04T13:04:18.03Z</time></trkpt><trkpt lat="42.3456267" lon="13.41036"><ele>677.0</ele><time>2026-04-04T13:04:19.03Z</time></trkpt><trkpt lat="42.3455117" lon="13.41026"><ele>677.0</ele><time>2026-04-04T13:04:20.03Z</time></trkpt><trkpt lat="42.3454067" lon="13.410155"><ele>677.0</ele><time>2026-04-04T13:04:21.03Z</time></trkpt><trkpt lat="42.3453117" lon="13.4100633"><ele>676.25</ele><time>2026-04-04T13:04:22.03Z</time></trkpt><trkpt lat="42.3452183" lon="13.4099617"><ele>675.5</ele><time>2026-04-04T13:04:23.03Z</time></trkpt><trkpt lat="42.3451217" lon="13.40986"><ele>674.75</ele><time>2026-04-04T13:04:24.029Z</time></trkpt><trkpt lat="42.3450367" lon="13.4097467"><ele>674.0</ele><time>2026-04-04T13:04:25.03Z</time></trkpt><trkpt lat="42.344945" lon="13.4096367"><ele>674.0</ele><time>2026-04-04T13:04:26.03Z</time></trkpt><trkpt lat="42.3448567" lon="13.40952"><ele>674.0</ele><time>2026-04-04T13:04:27.03Z</time></trkpt><trkpt lat="42.3447667" lon="13.4094083"><ele>674.0</ele><time>2026-04-04T13:04:28.03Z</time></trkpt><trkpt lat="42.3446733" lon="13.4092983"><ele>674.0</ele><time>2026-04-04T13:04:29.03Z</time></trkpt><trkpt lat="42.3445867" lon="13.4091817"><ele>673.6666666666666</ele><time>2026-04-04T13:04:30.03Z</time></trkpt><trkpt lat="42.3445083" lon="13.409075"><ele>673.3333333333333</ele><time>2026-04-04T13:04:31.03Z</time></trkpt><trkpt lat="42.344445" lon="13.4089767"><ele>673.0</ele><time>2026-04-04T13:04:32.03Z</time></trkpt><trkpt lat="42.3443883" lon="13.40889"><ele>672.6666666666666</ele><time>2026-04-04T13:04:33.03Z</time></trkpt><trkpt lat="42.3443367" lon="13.40883"><ele>672.3333333333334</ele><time>2026-04-04T13:04:34.03Z</time></trkpt><trkpt lat="42.3442867" lon="13.4087767"><ele>672.0</ele><time>2026-04-04T13:04:35.029Z</time></trkpt><trkpt lat="42.3442283" lon="13.4087233"><ele>671.2</ele><time>2026-04-04T13:04:36.03Z</time></trkpt><trkpt lat="42.34416" lon="13.4086733"><ele>670.4000000000001</ele><time>2026-04-04T13:04:37.03Z</time></trkpt><trkpt lat="42.3440817" lon="13.40862"><ele>669.5999999999999</ele><time>2026-04-04T13:04:38.03Z</time></trkpt><trkpt lat="42.3440133" lon="13.4085417"><ele>668.8</ele><time>2026-04-04T13:04:39.03Z</time></trkpt><trkpt lat="42.343935" lon="13.408445"><ele>668.0</ele><time>2026-04-04T13:04:40.03Z</time></trkpt><trkpt lat="42.3438667" lon="13.4083383"><ele>667.4</ele><time>2026-04-04T13:04:41.03Z</time></trkpt><trkpt lat="42.343805" lon="13.4082183"><ele>666.8</ele><time>2026-04-04T13:04:42.03Z</time></trkpt><trkpt lat="42.34374" lon="13.40809"><ele>666.2</ele><time>2026-04-04T13:04:43.03Z</time></trkpt><trkpt lat="42.34367" lon="13.4079683"><ele>665.6</ele><time>2026-04-04T13:04:44.03Z</time></trkpt><trkpt lat="42.3435967" lon="13.4078633"><ele>665.0</ele><time>2026-04-04T13:04:45.03Z</time></trkpt><trkpt lat="42.3435133" lon="13.40777"><ele>663.6</ele><time>2026-04-04T13:04:46.03Z</time></trkpt><trkpt lat="42.3434267" lon="13.407685"><ele>662.2</ele><time>2026-04-04T13:04:47.03Z</time></trkpt><trkpt lat="42.343335" lon="13.40761"><ele>660.8</ele><time>2026-04-04T13:04:48.029Z</time></trkpt><trkpt lat="42.3432383" lon="13.4075517"><ele>659.4</ele><time>2026-04-04T13:04:49.03Z</time></trkpt><trkpt lat="42.34313" lon="13.4074983"><ele>658.0</ele><time>2026-04-04T13:04:50.03Z</time></trkpt><trkpt lat="42.3430167" lon="13.4074467"><ele>657.25</ele><time>2026-04-04T13:04:51.03Z</time></trkpt><trkpt lat="42.3429017" lon="13.407385"><ele>656.5</ele><time>2026-04-04T13:04:52.03Z</time></trkpt><trkpt lat="42.3427833" lon="13.4073233"><ele>655.75</ele><time>2026-04-04T13:04:53.03Z</time></trkpt><trkpt lat="42.34267" lon="13.40726"><ele>655.0</ele><time>2026-04-04T13:04:54.03Z</time></trkpt><trkpt lat="42.34256" lon="13.4071883"><ele>653.5</ele><time>2026-04-04T13:04:55.03Z</time></trkpt><trkpt lat="42.342445" lon="13.40712"><ele>652.0</ele><time>2026-04-04T13:04:56.03Z</time></trkpt><trkpt lat="42.3423283" lon="13.40705"><ele>650.5</ele><time>2026-04-04T13:04:57.03Z</time></trkpt><trkpt lat="42.3422067" lon="13.4069833"><ele>649.0</ele><time>2026-04-04T13:04:58.03Z</time></trkpt><trkpt lat="42.3420833" lon="13.4069083"><ele>647.0</ele><time>2026-04-04T13:04:59.029Z</time></trkpt><trkpt lat="42.3419533" lon="13.40684"><ele>645.0</ele><time>2026-04-04T13:05:00.03Z</time></trkpt><trkpt lat="42.3418367" lon="13.4067733"><ele>643.0</ele><time>2026-04-04T13:05:01.03Z</time></trkpt><trkpt lat="42.3417183" lon="13.4067083"><ele>641.0</ele><time>2026-04-04T13:05:02.03Z</time></trkpt><trkpt lat="42.3415983" lon="13.40664"><ele>641.0</ele><time>2026-04-04T13:05:03.03Z</time></trkpt><trkpt lat="42.3414767" lon="13.4065767"><ele>641.0</ele><time>2026-04-04T13:05:04.03Z</time></trkpt><trkpt lat="42.3413533" lon="13.4065133"><ele>641.0</ele><time>2026-04-04T13:05:05.03Z</time></trkpt><trkpt lat="42.3412367" lon="13.40645"><ele>641.0</ele><time>2026-04-04T13:05:06.03Z</time></trkpt><trkpt lat="42.3411233" lon="13.4063917"><ele>639.25</ele><time>2026-04-04T13:05:07.03Z</time></trkpt><trkpt lat="42.341005" lon="13.4063317"><ele>637.5</ele><time>2026-04-04T13:05:08.03Z</time></trkpt><trkpt lat="42.3408917" lon="13.4062783"><ele>635.75</ele><time>2026-04-04T13:05:09.029Z</time></trkpt><trkpt lat="42.3407783" lon="13.4062317"><ele>634.0</ele><time>2026-04-04T13:05:10.03Z</time></trkpt><trkpt lat="42.340655" lon="13.4062033"><ele>630.0</ele><time>2026-04-04T13:05:11.03Z</time></trkpt><trkpt lat="42.3405367" lon="13.406205"><ele>626.0</ele><time>2026-04-04T13:05:12.03Z</time></trkpt><trkpt lat="42.34042" lon="13.40623"><ele>622.0</ele><time>2026-04-04T13:05:13.03Z</time></trkpt><trkpt lat="42.3403033" lon="13.40628"><ele>618.0</ele><time>2026-04-04T13:05:14.03Z</time></trkpt><trkpt lat="42.3401783" lon="13.40634"><ele>618.0</ele><time>2026-04-04T13:05:15.03Z</time></trkpt><trkpt lat="42.34007" lon="13.4064317"><ele>618.0</ele><time>2026-04-04T13:05:16.03Z</time></trkpt><trkpt lat="42.33997" lon="13.4065467"><ele>618.0</ele><time>2026-04-04T13:05:17.03Z</time></trkpt><trkpt lat="42.339885" lon="13.4066833"><ele>618.0</ele><time>2026-04-04T13:05:18.03Z</time></trkpt><trkpt lat="42.3398133" lon="13.4068383"><ele>618.0</ele><time>2026-04-04T13:05:19.03Z</time></trkpt><trkpt lat="42.3397617" lon="13.406995"><ele>618.0</ele><time>2026-04-04T13:05:20.03Z</time></trkpt><trkpt lat="42.3397083" lon="13.4071517"><ele>618.0</ele><time>2026-04-04T13:05:21.03Z</time></trkpt><trkpt lat="42.339665" lon="13.4073167"><ele>618.0</ele><time>2026-04-04T13:05:22.03Z</time></trkpt><trkpt lat="42.3396283" lon="13.4074733"><ele>615.6666666666666</ele><time>2026-04-04T13:05:23.03Z</time></trkpt><trkpt lat="42.3395867" lon="13.4076067"><ele>613.3333333333334</ele><time>2026-04-04T13:05:24.029Z</time></trkpt><trkpt lat="42.3395483" lon="13.407715"><ele>611.0</ele><time>2026-04-04T13:05:25.03Z</time></trkpt><trkpt lat="42.3395183" lon="13.407805"><ele>608.6666666666667</ele><time>2026-04-04T13:05:26.029Z</time></trkpt><trkpt lat="42.33948" lon="13.40789"><ele>606.3333333333334</ele><time>2026-04-04T13:05:28.03Z</time></trkpt><trkpt lat="42.3394383" lon="13.40797"><ele>604.0</ele><time>2026-04-04T13:05:30.03Z</time></trkpt><trkpt lat="42.3393983" lon="13.4081383"><ele>604.0</ele><time>2026-04-04T13:05:32.029Z</time></trkpt><trkpt lat="42.3393767" lon="13.4082467"><ele>604.0</ele><time>2026-04-04T13:05:33.03Z</time></trkpt><trkpt lat="42.3393533" lon="13.4083667"><ele>604.0</ele><time>2026-04-04T13:05:34.03Z</time></trkpt><trkpt lat="42.339335" lon="13.408505"><ele>604.0</ele><time>2026-04-04T13:05:35.03Z</time></trkpt><trkpt lat="42.3393167" lon="13.4086467"><ele>604.0</ele><time>2026-04-04T13:05:36.03Z</time></trkpt><trkpt lat="42.3392967" lon="13.4087917"><ele>604.0</ele><time>2026-04-04T13:05:37.03Z</time></trkpt><trkpt lat="42.3392783" lon="13.4089483"><ele>604.0</ele><time>2026-04-04T13:05:38.03Z</time></trkpt><trkpt lat="42.3392533" lon="13.40911"><ele>604.0</ele><time>2026-04-04T13:05:39.03Z</time></trkpt><trkpt lat="42.3392367" lon="13.40928"><ele>604.0</ele><time>2026-04-04T13:05:40.03Z</time></trkpt><trkpt lat="42.3392167" lon="13.4094567"><ele>604.0</ele><time>2026-04-04T13:05:41.03Z</time></trkpt><trkpt lat="42.339195" lon="13.4096417"><ele>604.0</ele><time>2026-04-04T13:05:42.03Z</time></trkpt><trkpt lat="42.3391717" lon="13.4098217"><ele>604.0</ele><time>2026-04-04T13:05:43.03Z</time></trkpt><trkpt lat="42.3391483" lon="13.4100017"><ele>604.0</ele><time>2026-04-04T13:05:44.03Z</time></trkpt><trkpt lat="42.3391183" lon="13.4101883"><ele>604.75</ele><time>2026-04-04T13:05:45.03Z</time></trkpt><trkpt lat="42.339085" lon="13.4103717"><ele>605.5</ele><time>2026-04-04T13:05:46.03Z</time></trkpt><trkpt lat="42.339045" lon="13.4105667"><ele>606.25</ele><time>2026-04-04T13:05:47.03Z</time></trkpt><trkpt lat="42.33901" lon="13.4107633"><ele>607.0</ele><time>2026-04-04T13:05:48.03Z</time></trkpt><trkpt lat="42.3389783" lon="13.4109633"><ele>607.3333333333334</ele><time>2026-04-04T13:05:49.03Z</time></trkpt><trkpt lat="42.33893" lon="13.4111617"><ele>607.6666666666666</ele><time>2026-04-04T13:05:50.03Z</time></trkpt><trkpt lat="42.3388717" lon="13.4113583"><ele>608.0</ele><time>2026-04-04T13:05:51.03Z</time></trkpt><trkpt lat="42.338805" lon="13.4115433"><ele>605.6666666666666</ele><time>2026-04-04T13:05:52.03Z</time></trkpt><trkpt lat="42.3387317" lon="13.4117217"><ele>603.3333333333334</ele><time>2026-04-04T13:05:53.03Z</time></trkpt><trkpt lat="42.33865" lon="13.4118933"><ele>601.0</ele><time>2026-04-04T13:05:54.03Z</time></trkpt><trkpt lat="42.33857" lon="13.4120633"><ele>602.75</ele><time>2026-04-04T13:05:55.03Z</time></trkpt><trkpt lat="42.338495" lon="13.4122333"><ele>604.5</ele><time>2026-04-04T13:05:56.03Z</time></trkpt><trkpt lat="42.33842" lon="13.412405"><ele>606.25</ele><time>2026-04-04T13:05:57.03Z</time></trkpt><trkpt lat="42.3383483" lon="13.4125767"><ele>608.0</ele><time>2026-04-04T13:05:58.03Z</time></trkpt><trkpt lat="42.3382833" lon="13.4127567"><ele>608.0</ele><time>2026-04-04T13:05:59.029Z</time></trkpt><trkpt lat="42.3382283" lon="13.4129433"><ele>608.0</ele><time>2026-04-04T13:06:00.029Z</time></trkpt><trkpt lat="42.3381817" lon="13.413135"><ele>608.0</ele><time>2026-04-04T13:06:01.029Z</time></trkpt><trkpt lat="42.3381383" lon="13.4133317"><ele>608.0</ele><time>2026-04-04T13:06:02.029Z</time></trkpt><trkpt lat="42.3381017" lon="13.4135283"><ele>610.0</ele><time>2026-04-04T13:06:03.029Z</time></trkpt><trkpt lat="42.3380667" lon="13.4137267"><ele>612.0</ele><time>2026-04-04T13:06:04.029Z</time></trkpt><trkpt lat="42.3380267" lon="13.4139233"><ele>614.0</ele><time>2026-04-04T13:06:05.029Z</time></trkpt><trkpt lat="42.3379833" lon="13.4141233"><ele>610.3333333333333</ele><time>2026-04-04T13:06:06.029Z</time></trkpt><trkpt lat="42.33794" lon="13.414315"><ele>606.6666666666666</ele><time>2026-04-04T13:06:07.028Z</time></trkpt><trkpt lat="42.3378883" lon="13.4145217"><ele>603.0</ele><time>2026-04-04T13:06:08.029Z</time></trkpt><trkpt lat="42.3378417" lon="13.414725"><ele>603.0</ele><time>2026-04-04T13:06:09.029Z</time></trkpt><trkpt lat="42.3377983" lon="13.4149267"><ele>603.0</ele><time>2026-04-04T13:06:10.029Z</time></trkpt><trkpt lat="42.3377533" lon="13.4151283"><ele>603.0</ele><time>2026-04-04T13:06:11.029Z</time></trkpt><trkpt lat="42.3376983" lon="13.4153233"><ele>603.3333333333334</ele><time>2026-04-04T13:06:12.029Z</time></trkpt><trkpt lat="42.3376417" lon="13.415525"><ele>603.6666666666667</ele><time>2026-04-04T13:06:13.029Z</time></trkpt><trkpt lat="42.3375867" lon="13.4157267"><ele>604.0</ele><time>2026-04-04T13:06:14.029Z</time></trkpt><trkpt lat="42.33753" lon="13.4159317"><ele>604.0</ele><time>2026-04-04T13:06:15.029Z</time></trkpt><trkpt lat="42.3374783" lon="13.4161233"><ele>604.0</ele><time>2026-04-04T13:06:16.029Z</time></trkpt><trkpt lat="42.337425" lon="13.4163217"><ele>604.0</ele><time>2026-04-04T13:06:17.029Z</time></trkpt><trkpt lat="42.337385" lon="13.4165233"><ele>604.3333333333334</ele><time>2026-04-04T13:06:18.029Z</time></trkpt><trkpt lat="42.33733" lon="13.416725"><ele>604.6666666666666</ele><time>2026-04-04T13:06:19.029Z</time></trkpt><trkpt lat="42.3372717" lon="13.4169283"><ele>605.0</ele><time>2026-04-04T13:06:20.029Z</time></trkpt><trkpt lat="42.3372233" lon="13.417135"><ele>603.6666666666666</ele><time>2026-04-04T13:06:21.029Z</time></trkpt><trkpt lat="42.3371783" lon="13.4173483"><ele>602.3333333333334</ele><time>2026-04-04T13:06:22.029Z</time></trkpt><trkpt lat="42.3371317" lon="13.4175617"><ele>601.0</ele><time>2026-04-04T13:06:23.029Z</time></trkpt><trkpt lat="42.3370767" lon="13.41777"><ele>601.0</ele><time>2026-04-04T13:06:24.029Z</time></trkpt><trkpt lat="42.33702" lon="13.4179817"><ele>601.0</ele><time>2026-04-04T13:06:25.029Z</time></trkpt><trkpt lat="42.3369733" lon="13.4181933"><ele>601.0</ele><time>2026-04-04T13:06:26.029Z</time></trkpt><trkpt lat="42.33692" lon="13.4184083"><ele>601.3333333333334</ele><time>2026-04-04T13:06:27.029Z</time></trkpt><trkpt lat="42.336865" lon="13.4186283"><ele>601.6666666666666</ele><time>2026-04-04T13:06:28.029Z</time></trkpt><trkpt lat="42.3368167" lon="13.41885"><ele>602.0</ele><time>2026-04-04T13:06:29.029Z</time></trkpt><trkpt lat="42.3367667" lon="13.41906"><ele>601.3333333333333</ele><time>2026-04-04T13:06:30.029Z</time></trkpt><trkpt lat="42.33671" lon="13.4192783"><ele>600.6666666666666</ele><time>2026-04-04T13:06:31.029Z</time></trkpt><trkpt lat="42.336655" lon="13.4194967"><ele>600.0</ele><time>2026-04-04T13:06:32.029Z</time></trkpt><trkpt lat="42.3365983" lon="13.4197133"><ele>600.0</ele><time>2026-04-04T13:06:33.029Z</time></trkpt><trkpt lat="42.3365433" lon="13.4199317"><ele>600.0</ele><time>2026-04-04T13:06:34.028Z</time></trkpt><trkpt lat="42.33649" lon="13.4201583"><ele>600.0</ele><time>2026-04-04T13:06:35.029Z</time></trkpt><trkpt lat="42.336435" lon="13.4203783"><ele>599.3333333333334</ele><time>2026-04-04T13:06:36.029Z</time></trkpt><trkpt lat="42.3363817" lon="13.4206083"><ele>598.6666666666667</ele><time>2026-04-04T13:06:37.029Z</time></trkpt><trkpt lat="42.3363217" lon="13.420835"><ele>598.0</ele><time>2026-04-04T13:06:38.029Z</time></trkpt><trkpt lat="42.3362667" lon="13.421065"><ele>598.0</ele><time>2026-04-04T13:06:39.029Z</time></trkpt><trkpt lat="42.33621" lon="13.4213017"><ele>598.0</ele><time>2026-04-04T13:06:40.029Z</time></trkpt><trkpt lat="42.33615" lon="13.4215433"><ele>598.0</ele><time>2026-04-04T13:06:41.029Z</time></trkpt><trkpt lat="42.3360867" lon="13.4217817"><ele>598.0</ele><time>2026-04-04T13:06:42.029Z</time></trkpt><trkpt lat="42.33602" lon="13.422025"><ele>598.0</ele><time>2026-04-04T13:06:43.029Z</time></trkpt><trkpt lat="42.33596" lon="13.4222633"><ele>598.0</ele><time>2026-04-04T13:06:44.028Z</time></trkpt><trkpt lat="42.335905" lon="13.42249"><ele>598.0</ele><time>2026-04-04T13:06:45.029Z</time></trkpt><trkpt lat="42.335845" lon="13.42272"><ele>598.0</ele><time>2026-04-04T13:06:46.029Z</time></trkpt><trkpt lat="42.33579" lon="13.4229483"><ele>598.0</ele><time>2026-04-04T13:06:47.029Z</time></trkpt><trkpt lat="42.3357333" lon="13.4231767"><ele>598.6666666666667</ele><time>2026-04-04T13:06:48.029Z</time></trkpt><trkpt lat="42.335675" lon="13.4234133"><ele>599.3333333333334</ele><time>2026-04-04T13:06:49.029Z</time></trkpt><trkpt lat="42.3356183" lon="13.4236483"><ele>600.0</ele><time>2026-04-04T13:06:50.028Z</time></trkpt><trkpt lat="42.3355667" lon="13.42389"><ele>599.0</ele><time>2026-04-04T13:06:51.029Z</time></trkpt><trkpt lat="42.3355083" lon="13.4241283"><ele>598.0</ele><time>2026-04-04T13:06:52.028Z</time></trkpt><trkpt lat="42.33545" lon="13.4243633"><ele>597.0</ele><time>2026-04-04T13:06:53.029Z</time></trkpt><trkpt lat="42.335395" lon="13.424595"><ele>597.3333333333334</ele><time>2026-04-04T13:06:54.029Z</time></trkpt><trkpt lat="42.3353417" lon="13.4248233"><ele>597.6666666666667</ele><time>2026-04-04T13:06:55.029Z</time></trkpt><trkpt lat="42.3352817" lon="13.4250583"><ele>598.0</ele><time>2026-04-04T13:06:56.029Z</time></trkpt><trkpt lat="42.3352183" lon="13.4253017"><ele>598.3333333333334</ele><time>2026-04-04T13:06:57.029Z</time></trkpt><trkpt lat="42.3351517" lon="13.4255467"><ele>598.6666666666666</ele><time>2026-04-04T13:06:58.029Z</time></trkpt><trkpt lat="42.3350967" lon="13.42578"><ele>599.0</ele><time>2026-04-04T13:06:59.029Z</time></trkpt><trkpt lat="42.33504" lon="13.4260233"><ele>599.0</ele><time>2026-04-04T13:07:00.029Z</time></trkpt><trkpt lat="42.3349817" lon="13.42626"><ele>599.0</ele><time>2026-04-04T13:07:01.029Z</time></trkpt><trkpt lat="42.33492" lon="13.4265017"><ele>599.0</ele><time>2026-04-04T13:07:02.029Z</time></trkpt><trkpt lat="42.3348617" lon="13.426745"><ele>599.6666666666666</ele><time>2026-04-04T13:07:03.029Z</time></trkpt><trkpt lat="42.3348083" lon="13.426985"><ele>600.3333333333334</ele><time>2026-04-04T13:07:04.029Z</time></trkpt><trkpt lat="42.33477" lon="13.42723"><ele>601.0</ele><time>2026-04-04T13:07:05.029Z</time></trkpt><trkpt lat="42.3347467" lon="13.4274883"><ele>601.3333333333334</ele><time>2026-04-04T13:07:06.028Z</time></trkpt><trkpt lat="42.3347367" lon="13.4277433"><ele>601.6666666666666</ele><time>2026-04-04T13:07:07.029Z</time></trkpt><trkpt lat="42.3347383" lon="13.428005"><ele>602.0</ele><time>2026-04-04T13:07:08.029Z</time></trkpt><trkpt lat="42.334745" lon="13.4282633"><ele>602.0</ele><time>2026-04-04T13:07:09.029Z</time></trkpt><trkpt lat="42.3347517" lon="13.428525"><ele>602.0</ele><time>2026-04-04T13:07:10.029Z</time></trkpt><trkpt lat="42.334765" lon="13.42879"><ele>602.0</ele><time>2026-04-04T13:07:11.029Z</time></trkpt><trkpt lat="42.3347683" lon="13.4290533"><ele>600.6666666666666</ele><time>2026-04-04T13:07:12.029Z</time></trkpt><trkpt lat="42.3347717" lon="13.4293167"><ele>599.3333333333334</ele><time>2026-04-04T13:07:13.029Z</time></trkpt><trkpt lat="42.33478" lon="13.4295817"><ele>598.0</ele><time>2026-04-04T13:07:14.029Z</time></trkpt><trkpt lat="42.3347883" lon="13.42985"><ele>597.0</ele><time>2026-04-04T13:07:15.029Z</time></trkpt><trkpt lat="42.3347967" lon="13.4301267"><ele>596.0</ele><time>2026-04-04T13:07:16.029Z</time></trkpt><trkpt lat="42.334795" lon="13.430395"><ele>595.0</ele><time>2026-04-04T13:07:17.028Z</time></trkpt><trkpt lat="42.3348033" lon="13.4306583"><ele>595.0</ele><time>2026-04-04T13:07:18.029Z</time></trkpt><trkpt lat="42.33481" lon="13.4309283"><ele>595.0</ele><time>2026-04-04T13:07:19.029Z</time></trkpt><trkpt lat="42.3348233" lon="13.431195"><ele>595.0</ele><time>2026-04-04T13:07:20.029Z</time></trkpt><trkpt lat="42.33483" lon="13.43147"><ele>594.6666666666667</ele><time>2026-04-04T13:07:21.029Z</time></trkpt><trkpt lat="42.334835" lon="13.431735"><ele>594.3333333333334</ele><time>2026-04-04T13:07:22.029Z</time></trkpt><trkpt lat="42.334845" lon="13.4320083"><ele>594.0</ele><time>2026-04-04T13:07:23.029Z</time></trkpt><trkpt lat="42.3348533" lon="13.4322833"><ele>593.6666666666666</ele><time>2026-04-04T13:07:24.029Z</time></trkpt><trkpt lat="42.3348583" lon="13.4325567"><ele>593.3333333333333</ele><time>2026-04-04T13:07:25.029Z</time></trkpt><trkpt lat="42.3348617" lon="13.43281"><ele>593.0</ele><time>2026-04-04T13:07:26.029Z</time></trkpt><trkpt lat="42.33487" lon="13.4330517"><ele>593.0</ele><time>2026-04-04T13:07:27.029Z</time></trkpt><trkpt lat="42.3348733" lon="13.43328"><ele>593.0</ele><time>2026-04-04T13:07:28.029Z</time></trkpt><trkpt lat="42.3348767" lon="13.4335083"><ele>593.0</ele><time>2026-04-04T13:07:29.029Z</time></trkpt><trkpt lat="42.3348867" lon="13.43374"><ele>593.3333333333333</ele><time>2026-04-04T13:07:30.029Z</time></trkpt><trkpt lat="42.3348967" lon="13.433965"><ele>593.6666666666666</ele><time>2026-04-04T13:07:31.029Z</time></trkpt><trkpt lat="42.3349" lon="13.4341833"><ele>594.0</ele><time>2026-04-04T13:07:32.029Z</time></trkpt><trkpt lat="42.3349033" lon="13.4344083"><ele>594.0</ele><time>2026-04-04T13:07:33.028Z</time></trkpt><trkpt lat="42.3349067" lon="13.4346383"><ele>594.0</ele><time>2026-04-04T13:07:34.029Z</time></trkpt><trkpt lat="42.334905" lon="13.4348683"><ele>594.0</ele><time>2026-04-04T13:07:35.029Z</time></trkpt><trkpt lat="42.3349133" lon="13.4350917"><ele>594.0</ele><time>2026-04-04T13:07:36.029Z</time></trkpt><trkpt lat="42.33492" lon="13.4353267"><ele>594.0</ele><time>2026-04-04T13:07:37.029Z</time></trkpt><trkpt lat="42.3349283" lon="13.43554"><ele>594.0</ele><time>2026-04-04T13:07:38.029Z</time></trkpt><trkpt lat="42.334935" lon="13.4357383"><ele>594.0</ele><time>2026-04-04T13:07:39.028Z</time></trkpt><trkpt lat="42.334935" lon="13.4359233"><ele>594.0</ele><time>2026-04-04T13:07:40.029Z</time></trkpt><trkpt lat="42.3349333" lon="13.436095"><ele>594.0</ele><time>2026-04-04T13:07:41.028Z</time></trkpt><trkpt lat="42.3349267" lon="13.43625"><ele>594.0</ele><time>2026-04-04T13:07:42.029Z</time></trkpt><trkpt lat="42.33491" lon="13.43638"><ele>593.75</ele><time>2026-04-04T13:07:43.029Z</time></trkpt><trkpt lat="42.3348733" lon="13.4365167"><ele>593.5</ele><time>2026-04-04T13:07:44.029Z</time></trkpt><trkpt lat="42.3348983" lon="13.4366483"><ele>593.25</ele><time>2026-04-04T13:07:45.029Z</time></trkpt><trkpt lat="42.3349283" lon="13.4367983"><ele>593.0</ele><time>2026-04-04T13:07:46.029Z</time></trkpt><trkpt lat="42.3349433" lon="13.43697"><ele>593.0</ele><time>2026-04-04T13:07:47.029Z</time></trkpt><trkpt lat="42.3349517" lon="13.43715"><ele>593.0</ele><time>2026-04-04T13:07:48.029Z</time></trkpt><trkpt lat="42.3349533" lon="13.4373367"><ele>593.0</ele><time>2026-04-04T13:07:49.029Z</time></trkpt><trkpt lat="42.33496" lon="13.4375283"><ele>593.0</ele><time>2026-04-04T13:07:50.029Z</time></trkpt><trkpt lat="42.334965" lon="13.4377233"><ele>593.0</ele><time>2026-04-04T13:07:51.028Z</time></trkpt><trkpt lat="42.33497" lon="13.4379283"><ele>593.0</ele><time>2026-04-04T13:07:52.029Z</time></trkpt><trkpt lat="42.3349767" lon="13.4381467"><ele>593.0</ele><time>2026-04-04T13:07:53.029Z</time></trkpt><trkpt lat="42.3349817" lon="13.4383683"><ele>594.0</ele><time>2026-04-04T13:07:54.028Z</time></trkpt><trkpt lat="42.3349867" lon="13.43859"><ele>595.0</ele><time>2026-04-04T13:07:55.029Z</time></trkpt><trkpt lat="42.3349933" lon="13.4388317"><ele>596.0</ele><time>2026-04-04T13:07:56.029Z</time></trkpt><trkpt lat="42.334995" lon="13.4390567"><ele>596.0</ele><time>2026-04-04T13:07:57.029Z</time></trkpt><trkpt lat="42.3350017" lon="13.439285"><ele>596.0</ele><time>2026-04-04T13:07:58.028Z</time></trkpt><trkpt lat="42.335015" lon="13.4395233"><ele>596.0</ele><time>2026-04-04T13:07:59.029Z</time></trkpt><trkpt lat="42.335025" lon="13.4397583"><ele>596.0</ele><time>2026-04-04T13:08:00.029Z</time></trkpt><trkpt lat="42.3350283" lon="13.43999"><ele>596.0</ele><time>2026-04-04T13:08:01.029Z</time></trkpt><trkpt lat="42.3350333" lon="13.440225"><ele>596.0</ele><time>2026-04-04T13:08:02.029Z</time></trkpt><trkpt lat="42.3350367" lon="13.4404617"><ele>597.0</ele><time>2026-04-04T13:08:03.029Z</time></trkpt><trkpt lat="42.3350417" lon="13.4406967"><ele>598.0</ele><time>2026-04-04T13:08:04.029Z</time></trkpt><trkpt lat="42.335045" lon="13.44093"><ele>599.0</ele><time>2026-04-04T13:08:05.029Z</time></trkpt><trkpt lat="42.3350483" lon="13.4411667"><ele>598.6666666666666</ele><time>2026-04-04T13:08:06.029Z</time></trkpt><trkpt lat="42.3350517" lon="13.4414017"><ele>598.3333333333334</ele><time>2026-04-04T13:08:07.029Z</time></trkpt><trkpt lat="42.3350583" lon="13.44162"><ele>598.0</ele><time>2026-04-04T13:08:08.029Z</time></trkpt><trkpt lat="42.3350583" lon="13.44183"><ele>598.0</ele><time>2026-04-04T13:08:09.029Z</time></trkpt><trkpt lat="42.3350617" lon="13.4420367"><ele>598.0</ele><time>2026-04-04T13:08:10.029Z</time></trkpt><trkpt lat="42.3350717" lon="13.4422383"><ele>598.0</ele><time>2026-04-04T13:08:11.029Z</time></trkpt><trkpt lat="42.3350783" lon="13.4424333"><ele>598.0</ele><time>2026-04-04T13:08:12.029Z</time></trkpt><trkpt lat="42.335085" lon="13.4426133"><ele>597.8</ele><time>2026-04-04T13:08:13.029Z</time></trkpt><trkpt lat="42.3350767" lon="13.4427683"><ele>597.5999999999999</ele><time>2026-04-04T13:08:14.029Z</time></trkpt><trkpt lat="42.3350633" lon="13.4428767"><ele>597.4000000000001</ele><time>2026-04-04T13:08:15.029Z</time></trkpt><trkpt lat="42.3350083" lon="13.443025"><ele>597.2</ele><time>2026-04-04T13:08:17.029Z</time></trkpt><trkpt lat="42.33498" lon="13.4431883"><ele>597.0</ele><time>2026-04-04T13:08:19.029Z</time></trkpt><trkpt lat="42.33499" lon="13.443275"><ele>597.3333333333334</ele><time>2026-04-04T13:08:20.029Z</time></trkpt><trkpt lat="42.3350233" lon="13.4433733"><ele>597.6666666666666</ele><time>2026-04-04T13:08:21.029Z</time></trkpt><trkpt lat="42.3350533" lon="13.443485"><ele>598.0</ele><time>2026-04-04T13:08:22.029Z</time></trkpt><trkpt lat="42.335075" lon="13.4436033"><ele>598.3333333333333</ele><time>2026-04-04T13:08:23.028Z</time></trkpt><trkpt lat="42.3350883" lon="13.4437267"><ele>598.6666666666666</ele><time>2026-04-04T13:08:24.029Z</time></trkpt><trkpt lat="42.3350933" lon="13.4438467"><ele>599.0</ele><time>2026-04-04T13:08:25.029Z</time></trkpt><trkpt lat="42.3350967" lon="13.443965"><ele>599.0</ele><time>2026-04-04T13:08:26.029Z</time></trkpt><trkpt lat="42.3351017" lon="13.4440917"><ele>599.0</ele><time>2026-04-04T13:08:27.029Z</time></trkpt><trkpt lat="42.3351067" lon="13.444225"><ele>599.0</ele><time>2026-04-04T13:08:28.029Z</time></trkpt><trkpt lat="42.33511" lon="13.444365"><ele>599.0</ele><time>2026-04-04T13:08:29.029Z</time></trkpt><trkpt lat="42.33511" lon="13.4445117"><ele>599.0</ele><time>2026-04-04T13:08:30.029Z</time></trkpt><trkpt lat="42.33511" lon="13.4448217"><ele>597.5</ele><time>2026-04-04T13:08:32.029Z</time></trkpt><trkpt lat="42.3351233" lon="13.4453317"><ele>596.0</ele><time>2026-04-04T13:08:35.029Z</time></trkpt><trkpt lat="42.33513" lon="13.4455117"><ele>595.5</ele><time>2026-04-04T13:08:36.028Z</time></trkpt><trkpt lat="42.3351467" lon="13.4457033"><ele>595.0</ele><time>2026-04-04T13:08:37.029Z</time></trkpt><trkpt lat="42.3351733" lon="13.4459"><ele>594.5</ele><time>2026-04-04T13:08:38.029Z</time></trkpt><trkpt lat="42.3352083" lon="13.4461083"><ele>594.0</ele><time>2026-04-04T13:08:39.029Z</time></trkpt><trkpt lat="42.335245" lon="13.4463067"><ele>594.0</ele><time>2026-04-04T13:08:40.029Z</time></trkpt><trkpt lat="42.335285" lon="13.44649"><ele>594.0</ele><time>2026-04-04T13:08:41.029Z</time></trkpt><trkpt lat="42.335325" lon="13.4466733"><ele>594.0</ele><time>2026-04-04T13:08:42.029Z</time></trkpt><trkpt lat="42.3353683" lon="13.4468533"><ele>594.0</ele><time>2026-04-04T13:08:43.029Z</time></trkpt><trkpt lat="42.3354133" lon="13.44704"><ele>593.75</ele><time>2026-04-04T13:08:44.029Z</time></trkpt><trkpt lat="42.3354517" lon="13.4472317"><ele>593.5</ele><time>2026-04-04T13:08:45.029Z</time></trkpt><trkpt lat="42.3354883" lon="13.4474167"><ele>593.25</ele><time>2026-04-04T13:08:46.029Z</time></trkpt><trkpt lat="42.335535" lon="13.4475983"><ele>593.0</ele><time>2026-04-04T13:08:47.029Z</time></trkpt><trkpt lat="42.33558" lon="13.44779"><ele>594.75</ele><time>2026-04-04T13:08:48.029Z</time></trkpt><trkpt lat="42.3356233" lon="13.4479783"><ele>596.5</ele><time>2026-04-04T13:08:49.029Z</time></trkpt><trkpt lat="42.3356633" lon="13.4481783"><ele>598.25</ele><time>2026-04-04T13:08:50.029Z</time></trkpt><trkpt lat="42.3357033" lon="13.4483733"><ele>600.0</ele><time>2026-04-04T13:08:51.029Z</time></trkpt><trkpt lat="42.3357483" lon="13.44858"><ele>600.0</ele><time>2026-04-04T13:08:52.029Z</time></trkpt><trkpt lat="42.3358033" lon="13.4487917"><ele>600.0</ele><time>2026-04-04T13:08:53.029Z</time></trkpt><trkpt lat="42.335855" lon="13.4490067"><ele>600.0</ele><time>2026-04-04T13:08:54.029Z</time></trkpt><trkpt lat="42.3359183" lon="13.4492217"><ele>599.0</ele><time>2026-04-04T13:08:55.029Z</time></trkpt><trkpt lat="42.3359633" lon="13.4494383"><ele>598.0</ele><time>2026-04-04T13:08:56.029Z</time></trkpt><trkpt lat="42.3359917" lon="13.4496417"><ele>597.0</ele><time>2026-04-04T13:08:57.029Z</time></trkpt><trkpt lat="42.3360333" lon="13.4498533"><ele>596.3333333333334</ele><time>2026-04-04T13:08:58.029Z</time></trkpt><trkpt lat="42.336085" lon="13.4500583"><ele>595.6666666666667</ele><time>2026-04-04T13:08:59.029Z</time></trkpt><trkpt lat="42.3361283" lon="13.4502617"><ele>595.0</ele><time>2026-04-04T13:09:00.029Z</time></trkpt><trkpt lat="42.3361717" lon="13.4504567"><ele>595.25</ele><time>2026-04-04T13:09:01.029Z</time></trkpt><trkpt lat="42.3362067" lon="13.45064"><ele>595.5</ele><time>2026-04-04T13:09:02.029Z</time></trkpt><trkpt lat="42.336235" lon="13.4508183"><ele>595.75</ele><time>2026-04-04T13:09:03.029Z</time></trkpt><trkpt lat="42.3362567" lon="13.450995"><ele>596.0</ele><time>2026-04-04T13:09:04.029Z</time></trkpt><trkpt lat="42.3362717" lon="13.45118"><ele>595.75</ele><time>2026-04-04T13:09:05.029Z</time></trkpt><trkpt lat="42.3362917" lon="13.451355"><ele>595.5</ele><time>2026-04-04T13:09:06.029Z</time></trkpt><trkpt lat="42.33633" lon="13.451525"><ele>595.25</ele><time>2026-04-04T13:09:07.029Z</time></trkpt><trkpt lat="42.3363917" lon="13.4516583"><ele>595.0</ele><time>2026-04-04T13:09:08.029Z</time></trkpt><trkpt lat="42.33646" lon="13.4518083"><ele>597.0</ele><time>2026-04-04T13:09:09.029Z</time></trkpt><trkpt lat="42.3365117" lon="13.45197"><ele>599.0</ele><time>2026-04-04T13:09:10.029Z</time></trkpt><trkpt lat="42.3365533" lon="13.4521483"><ele>601.0</ele><time>2026-04-04T13:09:11.029Z</time></trkpt><trkpt lat="42.336585" lon="13.4523267"><ele>603.0</ele><time>2026-04-04T13:09:12.028Z</time></trkpt><trkpt lat="42.336625" lon="13.4525"><ele>603.0</ele><time>2026-04-04T13:09:13.029Z</time></trkpt><trkpt lat="42.336665" lon="13.4526683"><ele>603.0</ele><time>2026-04-04T13:09:14.029Z</time></trkpt><trkpt lat="42.3367" lon="13.452835"><ele>603.0</ele><time>2026-04-04T13:09:15.029Z</time></trkpt><trkpt lat="42.3367367" lon="13.4529967"><ele>603.0</ele><time>2026-04-04T13:09:16.028Z</time></trkpt><trkpt lat="42.33677" lon="13.45315"><ele>602.6</ele><time>2026-04-04T13:09:17.029Z</time></trkpt><trkpt lat="42.336805" lon="13.4532917"><ele>602.1999999999999</ele><time>2026-04-04T13:09:18.029Z</time></trkpt><trkpt lat="42.3368417" lon="13.45343"><ele>601.8</ele><time>2026-04-04T13:09:19.029Z</time></trkpt><trkpt lat="42.336875" lon="13.4535783"><ele>601.4</ele><time>2026-04-04T13:09:20.029Z</time></trkpt><trkpt lat="42.336905" lon="13.453725"><ele>601.0</ele><time>2026-04-04T13:09:21.029Z</time></trkpt><trkpt lat="42.3369383" lon="13.4538717"><ele>600.6</ele><time>2026-04-04T13:09:22.029Z</time></trkpt><trkpt lat="42.33697" lon="13.454015"><ele>600.2</ele><time>2026-04-04T13:09:23.029Z</time></trkpt><trkpt lat="42.337" lon="13.454155"><ele>599.8</ele><time>2026-04-04T13:09:24.029Z</time></trkpt><trkpt lat="42.3370267" lon="13.45429"><ele>599.4</ele><time>2026-04-04T13:09:25.029Z</time></trkpt><trkpt lat="42.3370533" lon="13.4544167"><ele>599.0</ele><time>2026-04-04T13:09:26.029Z</time></trkpt><trkpt lat="42.3370767" lon="13.454535"><ele>598.5</ele><time>2026-04-04T13:09:27.029Z</time></trkpt><trkpt lat="42.3370983" lon="13.4546433"><ele>598.0</ele><time>2026-04-04T13:09:28.029Z</time></trkpt><trkpt lat="42.3371183" lon="13.45476"><ele>597.5</ele><time>2026-04-04T13:09:29.029Z</time></trkpt><trkpt lat="42.3371383" lon="13.45487"><ele>597.0</ele><time>2026-04-04T13:09:30.029Z</time></trkpt><trkpt lat="42.337165" lon="13.4549783"><ele>596.5</ele><time>2026-04-04T13:09:31.029Z</time></trkpt><trkpt lat="42.3371917" lon="13.4550983"><ele>596.0</ele><time>2026-04-04T13:09:32.029Z</time></trkpt><trkpt lat="42.3372117" lon="13.4552233"><ele>596.8</ele><time>2026-04-04T13:09:33.029Z</time></trkpt><trkpt lat="42.3372333" lon="13.4553467"><ele>597.6</ele><time>2026-04-04T13:09:34.029Z</time></trkpt><trkpt lat="42.3372567" lon="13.4554717"><ele>598.4</ele><time>2026-04-04T13:09:35.029Z</time></trkpt><trkpt lat="42.33727" lon="13.4556083"><ele>599.2</ele><time>2026-04-04T13:09:36.029Z</time></trkpt><trkpt lat="42.3372783" lon="13.4557417"><ele>600.0</ele><time>2026-04-04T13:09:37.029Z</time></trkpt><trkpt lat="42.3372883" lon="13.455875"><ele>600.0</ele><time>2026-04-04T13:09:38.029Z</time></trkpt><trkpt lat="42.3372933" lon="13.4560083"><ele>600.0</ele><time>2026-04-04T13:09:39.029Z</time></trkpt><trkpt lat="42.3372983" lon="13.4561417"><ele>600.0</ele><time>2026-04-04T13:09:40.029Z</time></trkpt><trkpt lat="42.3372933" lon="13.456285"><ele>600.0</ele><time>2026-04-04T13:09:41.029Z</time></trkpt><trkpt lat="42.33728" lon="13.4564217"><ele>600.0</ele><time>2026-04-04T13:09:42.029Z</time></trkpt><trkpt lat="42.337265" lon="13.4565617"><ele>599.3333333333334</ele><time>2026-04-04T13:09:43.029Z</time></trkpt><trkpt lat="42.3372483" lon="13.456685"><ele>598.6666666666666</ele><time>2026-04-04T13:09:44.029Z</time></trkpt><trkpt lat="42.3372233" lon="13.4568"><ele>598.0</ele><time>2026-04-04T13:09:45.029Z</time></trkpt><trkpt lat="42.337195" lon="13.4569033"><ele>597.3333333333333</ele><time>2026-04-04T13:09:46.029Z</time></trkpt><trkpt lat="42.337165" lon="13.456995"><ele>596.6666666666666</ele><time>2026-04-04T13:09:47.029Z</time></trkpt><trkpt lat="42.3371133" lon="13.457115"><ele>596.0</ele><time>2026-04-04T13:09:49.029Z</time></trkpt><trkpt lat="42.3370733" lon="13.4571933"><ele>596.0</ele><time>2026-04-04T13:09:54.029Z</time></trkpt><trkpt lat="42.3370083" lon="13.4572883"><ele>596.0</ele><time>2026-04-04T13:09:56.029Z</time></trkpt><trkpt lat="42.3369167" lon="13.4574067"><ele>596.0</ele><time>2026-04-04T13:09:58.029Z</time></trkpt><trkpt lat="42.3368983" lon="13.4575"><ele>596.0</ele><time>2026-04-04T13:09:59.029Z</time></trkpt><trkpt lat="42.3368983" lon="13.4576017"><ele>596.0</ele><time>2026-04-04T13:10:00.029Z</time></trkpt><trkpt lat="42.3369133" lon="13.4577117"><ele>596.0</ele><time>2026-04-04T13:10:01.029Z</time></trkpt><trkpt lat="42.3369283" lon="13.45782"><ele>596.0</ele><time>2026-04-04T13:10:02.029Z</time></trkpt><trkpt lat="42.3369283" lon="13.4579383"><ele>596.0</ele><time>2026-04-04T13:10:03.029Z</time></trkpt><trkpt lat="42.3368983" lon="13.45807"><ele>596.0</ele><time>2026-04-04T13:10:04.029Z</time></trkpt><trkpt lat="42.3368633" lon="13.4582133"><ele>596.0</ele><time>2026-04-04T13:10:05.029Z</time></trkpt><trkpt lat="42.3368233" lon="13.458375"><ele>595.75</ele><time>2026-04-04T13:10:06.029Z</time></trkpt><trkpt lat="42.3367767" lon="13.4585483"><ele>595.5</ele><time>2026-04-04T13:10:07.029Z</time></trkpt><trkpt lat="42.3367317" lon="13.458735"><ele>595.25</ele><time>2026-04-04T13:10:08.029Z</time></trkpt><trkpt lat="42.33667" lon="13.4589233"><ele>595.0</ele><time>2026-04-04T13:10:09.029Z</time></trkpt><trkpt lat="42.3366067" lon="13.4591183"><ele>595.0</ele><time>2026-04-04T13:10:10.029Z</time></trkpt><trkpt lat="42.336545" lon="13.459315"><ele>595.0</ele><time>2026-04-04T13:10:11.029Z</time></trkpt><trkpt lat="42.3364867" lon="13.4595217"><ele>595.0</ele><time>2026-04-04T13:10:12.029Z</time></trkpt><trkpt lat="42.3364317" lon="13.45972"><ele>594.0</ele><time>2026-04-04T13:10:13.029Z</time></trkpt><trkpt lat="42.336375" lon="13.4599183"><ele>593.0</ele><time>2026-04-04T13:10:14.029Z</time></trkpt><trkpt lat="42.336325" lon="13.4601167"><ele>592.0</ele><time>2026-04-04T13:10:15.029Z</time></trkpt><trkpt lat="42.3362717" lon="13.4603133"><ele>592.5</ele><time>2026-04-04T13:10:16.029Z</time></trkpt><trkpt lat="42.3362167" lon="13.4604933"><ele>593.0</ele><time>2026-04-04T13:10:17.029Z</time></trkpt><trkpt lat="42.3361633" lon="13.46067"><ele>593.5</ele><time>2026-04-04T13:10:18.029Z</time></trkpt><trkpt lat="42.3361083" lon="13.460855"><ele>594.0</ele><time>2026-04-04T13:10:19.029Z</time></trkpt><trkpt lat="42.33606" lon="13.4610383"><ele>594.0</ele><time>2026-04-04T13:10:20.029Z</time></trkpt><trkpt lat="42.3360083" lon="13.461215"><ele>594.0</ele><time>2026-04-04T13:10:21.029Z</time></trkpt><trkpt lat="42.3359583" lon="13.4613833"><ele>594.0</ele><time>2026-04-04T13:10:22.029Z</time></trkpt><trkpt lat="42.3359067" lon="13.4615617"><ele>594.0</ele><time>2026-04-04T13:10:23.029Z</time></trkpt><trkpt lat="42.335865" lon="13.4617417"><ele>594.0</ele><time>2026-04-04T13:10:24.029Z</time></trkpt><trkpt lat="42.3358217" lon="13.4619083"><ele>594.0</ele><time>2026-04-04T13:10:25.029Z</time></trkpt><trkpt lat="42.3357717" lon="13.4620783"><ele>594.0</ele><time>2026-04-04T13:10:26.029Z</time></trkpt><trkpt lat="42.3357233" lon="13.46225"><ele>594.0</ele><time>2026-04-04T13:10:27.029Z</time></trkpt><trkpt lat="42.3356733" lon="13.4624333"><ele>594.0</ele><time>2026-04-04T13:10:28.029Z</time></trkpt><trkpt lat="42.3356283" lon="13.4625967"><ele>594.0</ele><time>2026-04-04T13:10:29.029Z</time></trkpt><trkpt lat="42.3355817" lon="13.4627583"><ele>594.0</ele><time>2026-04-04T13:10:30.029Z</time></trkpt><trkpt lat="42.3355383" lon="13.4629233"><ele>594.0</ele><time>2026-04-04T13:10:31.029Z</time></trkpt><trkpt lat="42.3354867" lon="13.4630967"><ele>594.0</ele><time>2026-04-04T13:10:32.029Z</time></trkpt><trkpt lat="42.33544" lon="13.4632617"><ele>594.0</ele><time>2026-04-04T13:10:33.029Z</time></trkpt><trkpt lat="42.335395" lon="13.46343"><ele>594.0</ele><time>2026-04-04T13:10:34.028Z</time></trkpt><trkpt lat="42.33535" lon="13.4636083"><ele>594.0</ele><time>2026-04-04T13:10:35.029Z</time></trkpt><trkpt lat="42.3353083" lon="13.4637683"><ele>594.25</ele><time>2026-04-04T13:10:36.029Z</time></trkpt><trkpt lat="42.335265" lon="13.463935"><ele>594.5</ele><time>2026-04-04T13:10:37.029Z</time></trkpt><trkpt lat="42.3352133" lon="13.464115"><ele>594.75</ele><time>2026-04-04T13:10:38.029Z</time></trkpt><trkpt lat="42.33517" lon="13.4642933"><ele>595.0</ele><time>2026-04-04T13:10:39.029Z</time></trkpt><trkpt lat="42.33512" lon="13.4644683"><ele>594.75</ele><time>2026-04-04T13:10:40.029Z</time></trkpt><trkpt lat="42.33507" lon="13.4646433"><ele>594.5</ele><time>2026-04-04T13:10:41.029Z</time></trkpt><trkpt lat="42.33502" lon="13.46482"><ele>594.25</ele><time>2026-04-04T13:10:42.029Z</time></trkpt><trkpt lat="42.3349717" lon="13.4649867"><ele>594.0</ele><time>2026-04-04T13:10:43.029Z</time></trkpt><trkpt lat="42.334925" lon="13.4651683"><ele>594.0</ele><time>2026-04-04T13:10:44.029Z</time></trkpt><trkpt lat="42.3348817" lon="13.4653533"><ele>594.0</ele><time>2026-04-04T13:10:45.029Z</time></trkpt><trkpt lat="42.3348233" lon="13.4655767"><ele>594.0</ele><time>2026-04-04T13:10:46.029Z</time></trkpt><trkpt lat="42.3347583" lon="13.465815"><ele>593.3333333333334</ele><time>2026-04-04T13:10:47.029Z</time></trkpt><trkpt lat="42.334695" lon="13.466055"><ele>592.6666666666667</ele><time>2026-04-04T13:10:48.029Z</time></trkpt><trkpt lat="42.3346233" lon="13.4662717"><ele>592.0</ele><time>2026-04-04T13:10:49.029Z</time></trkpt><trkpt lat="42.334555" lon="13.4664767"><ele>592.0</ele><time>2026-04-04T13:10:50.029Z</time></trkpt><trkpt lat="42.3344933" lon="13.4666717"><ele>592.0</ele><time>2026-04-04T13:10:51.028Z</time></trkpt><trkpt lat="42.3344333" lon="13.4668683"><ele>592.0</ele><time>2026-04-04T13:10:52.029Z</time></trkpt><trkpt lat="42.334375" lon="13.4670683"><ele>591.6666666666667</ele><time>2026-04-04T13:10:53.029Z</time></trkpt><trkpt lat="42.3343217" lon="13.4672683"><ele>591.3333333333334</ele><time>2026-04-04T13:10:54.029Z</time></trkpt><trkpt lat="42.33427" lon="13.4674683"><ele>591.0</ele><time>2026-04-04T13:10:55.029Z</time></trkpt><trkpt lat="42.3342183" lon="13.46768"><ele>591.0</ele><time>2026-04-04T13:10:56.029Z</time></trkpt><trkpt lat="42.334165" lon="13.4678733"><ele>591.0</ele><time>2026-04-04T13:10:57.029Z</time></trkpt><trkpt lat="42.33411" lon="13.4680533"><ele>591.0</ele><time>2026-04-04T13:10:58.029Z</time></trkpt><trkpt lat="42.3340567" lon="13.46822"><ele>591.0</ele><time>2026-04-04T13:10:59.028Z</time></trkpt><trkpt lat="42.3340167" lon="13.468365"><ele>591.0</ele><time>2026-04-04T13:11:00.028Z</time></trkpt><trkpt lat="42.3339767" lon="13.4685017"><ele>591.0</ele><time>2026-04-04T13:11:01.029Z</time></trkpt><trkpt lat="42.3339467" lon="13.4686217"><ele>591.0</ele><time>2026-04-04T13:11:02.029Z</time></trkpt><trkpt lat="42.3339183" lon="13.46872"><ele>591.0</ele><time>2026-04-04T13:11:03.029Z</time></trkpt><trkpt lat="42.3338683" lon="13.4688533"><ele>591.0</ele><time>2026-04-04T13:11:05.029Z</time></trkpt><trkpt lat="42.3338417" lon="13.4689433"><ele>591.0</ele><time>2026-04-04T13:11:06.028Z</time></trkpt><trkpt lat="42.3338167" lon="13.46905"><ele>591.0</ele><time>2026-04-04T13:11:07.029Z</time></trkpt><trkpt lat="42.3337917" lon="13.46918"><ele>591.0</ele><time>2026-04-04T13:11:08.029Z</time></trkpt><trkpt lat="42.33376" lon="13.469325"><ele>591.0</ele><time>2026-04-04T13:11:09.028Z</time></trkpt><trkpt lat="42.3337217" lon="13.4694833"><ele>591.0</ele><time>2026-04-04T13:11:10.028Z</time></trkpt><trkpt lat="42.3336717" lon="13.4696567"><ele>591.0</ele><time>2026-04-04T13:11:11.028Z</time></trkpt><trkpt lat="42.333625" lon="13.46983"><ele>591.0</ele><time>2026-04-04T13:11:12.028Z</time></trkpt><trkpt lat="42.3335783" lon="13.4700017"><ele>591.0</ele><time>2026-04-04T13:11:13.028Z</time></trkpt><trkpt lat="42.333535" lon="13.4701717"><ele>591.0</ele><time>2026-04-04T13:11:14.028Z</time></trkpt><trkpt lat="42.3335067" lon="13.4703417"><ele>591.25</ele><time>2026-04-04T13:11:15.028Z</time></trkpt><trkpt lat="42.333485" lon="13.4705017"><ele>591.5</ele><time>2026-04-04T13:11:16.028Z</time></trkpt><trkpt lat="42.33346" lon="13.470655"><ele>591.75</ele><time>2026-04-04T13:11:17.028Z</time></trkpt><trkpt lat="42.3334283" lon="13.4708083"><ele>592.0</ele><time>2026-04-04T13:11:18.028Z</time></trkpt><trkpt lat="42.3333883" lon="13.4709767"><ele>592.0</ele><time>2026-04-04T13:11:19.027Z</time></trkpt><trkpt lat="42.3333417" lon="13.4711383"><ele>592.0</ele><time>2026-04-04T13:11:20.028Z</time></trkpt><trkpt lat="42.33329" lon="13.4713217"><ele>592.0</ele><time>2026-04-04T13:11:21.028Z</time></trkpt><trkpt lat="42.3332383" lon="13.4715017"><ele>592.0</ele><time>2026-04-04T13:11:22.028Z</time></trkpt><trkpt lat="42.3331833" lon="13.4716717"><ele>591.75</ele><time>2026-04-04T13:11:23.028Z</time></trkpt><trkpt lat="42.333125" lon="13.47184"><ele>591.5</ele><time>2026-04-04T13:11:24.028Z</time></trkpt><trkpt lat="42.333065" lon="13.4720217"><ele>591.25</ele><time>2026-04-04T13:11:25.028Z</time></trkpt><trkpt lat="42.3330067" lon="13.4722133"><ele>591.0</ele><time>2026-04-04T13:11:26.028Z</time></trkpt><trkpt lat="42.3329517" lon="13.4724033"><ele>591.0</ele><time>2026-04-04T13:11:27.028Z</time></trkpt><trkpt lat="42.332905" lon="13.4725967"><ele>591.0</ele><time>2026-04-04T13:11:28.028Z</time></trkpt><trkpt lat="42.33286" lon="13.4727933"><ele>591.0</ele><time>2026-04-04T13:11:29.028Z</time></trkpt><trkpt lat="42.3328133" lon="13.4729783"><ele>591.0</ele><time>2026-04-04T13:11:30.028Z</time></trkpt><trkpt lat="42.332765" lon="13.4731633"><ele>591.5</ele><time>2026-04-04T13:11:31.028Z</time></trkpt><trkpt lat="42.3327167" lon="13.473335"><ele>592.0</ele><time>2026-04-04T13:11:32.028Z</time></trkpt><trkpt lat="42.33267" lon="13.4735117"><ele>592.5</ele><time>2026-04-04T13:11:33.028Z</time></trkpt><trkpt lat="42.3326217" lon="13.473685"><ele>593.0</ele><time>2026-04-04T13:11:34.028Z</time></trkpt><trkpt lat="42.332575" lon="13.4738567"><ele>593.25</ele><time>2026-04-04T13:11:35.028Z</time></trkpt><trkpt lat="42.3325233" lon="13.4740217"><ele>593.5</ele><time>2026-04-04T13:11:36.027Z</time></trkpt><trkpt lat="42.3324733" lon="13.4741883"><ele>593.75</ele><time>2026-04-04T13:11:37.028Z</time></trkpt><trkpt lat="42.3324283" lon="13.4743517"><ele>594.0</ele><time>2026-04-04T13:11:38.027Z</time></trkpt><trkpt lat="42.33239" lon="13.4745017"><ele>593.5</ele><time>2026-04-04T13:11:39.028Z</time></trkpt><trkpt lat="42.3323483" lon="13.47465"><ele>593.0</ele><time>2026-04-04T13:11:40.028Z</time></trkpt><trkpt lat="42.3323033" lon="13.4748133"><ele>592.5</ele><time>2026-04-04T13:11:41.028Z</time></trkpt><trkpt lat="42.3322617" lon="13.4749817"><ele>592.0</ele><time>2026-04-04T13:11:42.028Z</time></trkpt><trkpt lat="42.3322267" lon="13.4751517"><ele>592.0</ele><time>2026-04-04T13:11:43.028Z</time></trkpt><trkpt lat="42.33219" lon="13.4753183"><ele>592.0</ele><time>2026-04-04T13:11:44.028Z</time></trkpt><trkpt lat="42.3321483" lon="13.4754867"><ele>592.0</ele><time>2026-04-04T13:11:45.028Z</time></trkpt><trkpt lat="42.3321033" lon="13.4756567"><ele>592.0</ele><time>2026-04-04T13:11:46.028Z</time></trkpt><trkpt lat="42.3320583" lon="13.4758267"><ele>592.0</ele><time>2026-04-04T13:11:47.028Z</time></trkpt><trkpt lat="42.3320117" lon="13.475995"><ele>592.0</ele><time>2026-04-04T13:11:48.028Z</time></trkpt><trkpt lat="42.3319717" lon="13.47616"><ele>592.0</ele><time>2026-04-04T13:11:49.028Z</time></trkpt><trkpt lat="42.331935" lon="13.4763267"><ele>592.0</ele><time>2026-04-04T13:11:50.028Z</time></trkpt><trkpt lat="42.3318933" lon="13.476485"><ele>592.0</ele><time>2026-04-04T13:11:51.027Z</time></trkpt><trkpt lat="42.3318483" lon="13.4766417"><ele>592.0</ele><time>2026-04-04T13:11:52.028Z</time></trkpt><trkpt lat="42.3318" lon="13.4768"><ele>592.0</ele><time>2026-04-04T13:11:53.028Z</time></trkpt><trkpt lat="42.3317517" lon="13.4769483"><ele>592.0</ele><time>2026-04-04T13:11:54.028Z</time></trkpt><trkpt lat="42.33171" lon="13.4771"><ele>592.0</ele><time>2026-04-04T13:11:55.028Z</time></trkpt><trkpt lat="42.3316667" lon="13.4772517"><ele>592.0</ele><time>2026-04-04T13:11:56.028Z</time></trkpt><trkpt lat="42.3316217" lon="13.4774017"><ele>592.0</ele><time>2026-04-04T13:11:57.028Z</time></trkpt><trkpt lat="42.3315817" lon="13.4775567"><ele>592.0</ele><time>2026-04-04T13:11:58.028Z</time></trkpt><trkpt lat="42.33154" lon="13.4777"><ele>592.0</ele><time>2026-04-04T13:11:59.028Z</time></trkpt><trkpt lat="42.3314967" lon="13.4778433"><ele>592.0</ele><time>2026-04-04T13:12:00.028Z</time></trkpt><trkpt lat="42.33146" lon="13.477975"><ele>592.0</ele><time>2026-04-04T13:12:01.028Z</time></trkpt><trkpt lat="42.33142" lon="13.47811"><ele>592.0</ele><time>2026-04-04T13:12:02.028Z</time></trkpt><trkpt lat="42.331385" lon="13.4782333"><ele>592.0</ele><time>2026-04-04T13:12:03.028Z</time></trkpt><trkpt lat="42.331355" lon="13.4783617"><ele>591.5</ele><time>2026-04-04T13:12:04.028Z</time></trkpt><trkpt lat="42.3313267" lon="13.4784833"><ele>591.0</ele><time>2026-04-04T13:12:05.028Z</time></trkpt><trkpt lat="42.3312917" lon="13.4785967"><ele>590.5</ele><time>2026-04-04T13:12:06.028Z</time></trkpt><trkpt lat="42.331255" lon="13.478695"><ele>590.0</ele><time>2026-04-04T13:12:07.028Z</time></trkpt><trkpt lat="42.3312117" lon="13.4787583"><ele>589.5</ele><time>2026-04-04T13:12:08.028Z</time></trkpt><trkpt lat="42.3311217" lon="13.4788417"><ele>589.0</ele><time>2026-04-04T13:12:10.028Z</time></trkpt><trkpt lat="42.3310867" lon="13.4789817"><ele>589.0</ele><time>2026-04-04T13:12:12.027Z</time></trkpt><trkpt lat="42.33108" lon="13.4790717"><ele>589.0</ele><time>2026-04-04T13:12:13.028Z</time></trkpt><trkpt lat="42.3310817" lon="13.4791717"><ele>589.0</ele><time>2026-04-04T13:12:14.028Z</time></trkpt><trkpt lat="42.3310767" lon="13.4792917"><ele>589.0</ele><time>2026-04-04T13:12:15.028Z</time></trkpt><trkpt lat="42.331045" lon="13.4794217"><ele>589.0</ele><time>2026-04-04T13:12:16.027Z</time></trkpt><trkpt lat="42.3310017" lon="13.4795617"><ele>589.0</ele><time>2026-04-04T13:12:17.028Z</time></trkpt><trkpt lat="42.330955" lon="13.4797133"><ele>588.8</ele><time>2026-04-04T13:12:18.028Z</time></trkpt><trkpt lat="42.33091" lon="13.4798683"><ele>588.5999999999999</ele><time>2026-04-04T13:12:19.028Z</time></trkpt><trkpt lat="42.3308683" lon="13.4800033"><ele>588.4</ele><time>2026-04-04T13:12:20.028Z</time></trkpt><trkpt lat="42.3308317" lon="13.480115"><ele>588.1999999999999</ele><time>2026-04-04T13:12:21.028Z</time></trkpt><trkpt lat="42.330805" lon="13.4802067"><ele>588.0</ele><time>2026-04-04T13:12:22.028Z</time></trkpt><trkpt lat="42.330755" lon="13.4803633"><ele>587.8</ele><time>2026-04-04T13:12:24.028Z</time></trkpt><trkpt lat="42.33072" lon="13.4804617"><ele>587.5999999999999</ele><time>2026-04-04T13:12:25.028Z</time></trkpt><trkpt lat="42.33068" lon="13.4805767"><ele>587.4000000000001</ele><time>2026-04-04T13:12:26.028Z</time></trkpt><trkpt lat="42.3306433" lon="13.4807017"><ele>587.2</ele><time>2026-04-04T13:12:27.028Z</time></trkpt><trkpt lat="42.3306067" lon="13.480845"><ele>587.0</ele><time>2026-04-04T13:12:28.028Z</time></trkpt><trkpt lat="42.3305633" lon="13.4810133"><ele>586.3333333333333</ele><time>2026-04-04T13:12:29.028Z</time></trkpt><trkpt lat="42.3305067" lon="13.4812133"><ele>585.6666666666666</ele><time>2026-04-04T13:12:30.028Z</time></trkpt><trkpt lat="42.33044" lon="13.4814183"><ele>585.0</ele><time>2026-04-04T13:12:31.028Z</time></trkpt><trkpt lat="42.3303767" lon="13.481635"><ele>584.3333333333334</ele><time>2026-04-04T13:12:32.028Z</time></trkpt><trkpt lat="42.3303167" lon="13.4818467"><ele>583.6666666666667</ele><time>2026-04-04T13:12:33.028Z</time></trkpt><trkpt lat="42.3302567" lon="13.482055"><ele>583.0</ele><time>2026-04-04T13:12:34.028Z</time></trkpt><trkpt lat="42.330195" lon="13.4822617"><ele>583.0</ele><time>2026-04-04T13:12:35.028Z</time></trkpt><trkpt lat="42.3301317" lon="13.4824667"><ele>583.0</ele><time>2026-04-04T13:12:36.028Z</time></trkpt><trkpt lat="42.3300733" lon="13.4826783"><ele>583.0</ele><time>2026-04-04T13:12:37.028Z</time></trkpt><trkpt lat="42.3300133" lon="13.4828783"><ele>583.0</ele><time>2026-04-04T13:12:38.028Z</time></trkpt><trkpt lat="42.32995" lon="13.4830817"><ele>583.0</ele><time>2026-04-04T13:12:39.028Z</time></trkpt><trkpt lat="42.329885" lon="13.4832833"><ele>583.0</ele><time>2026-04-04T13:12:40.028Z</time></trkpt><trkpt lat="42.3298217" lon="13.4834867"><ele>583.0</ele><time>2026-04-04T13:12:41.028Z</time></trkpt><trkpt lat="42.3297633" lon="13.4836883"><ele>583.0</ele><time>2026-04-04T13:12:42.028Z</time></trkpt><trkpt lat="42.329695" lon="13.4838983"><ele>583.0</ele><time>2026-04-04T13:12:43.028Z</time></trkpt><trkpt lat="42.3296333" lon="13.4841133"><ele>582.3333333333334</ele><time>2026-04-04T13:12:44.028Z</time></trkpt><trkpt lat="42.32957" lon="13.484325"><ele>581.6666666666666</ele><time>2026-04-04T13:12:45.028Z</time></trkpt><trkpt lat="42.3295083" lon="13.484535"><ele>581.0</ele><time>2026-04-04T13:12:46.028Z</time></trkpt><trkpt lat="42.3294517" lon="13.48474"><ele>580.6666666666666</ele><time>2026-04-04T13:12:47.028Z</time></trkpt><trkpt lat="42.3293967" lon="13.4849417"><ele>580.3333333333334</ele><time>2026-04-04T13:12:48.028Z</time></trkpt><trkpt lat="42.3293333" lon="13.4851483"><ele>580.0</ele><time>2026-04-04T13:12:49.028Z</time></trkpt><trkpt lat="42.32927" lon="13.4853517"><ele>580.3333333333334</ele><time>2026-04-04T13:12:50.028Z</time></trkpt><trkpt lat="42.3292117" lon="13.48556"><ele>580.6666666666666</ele><time>2026-04-04T13:12:51.028Z</time></trkpt><trkpt lat="42.329155" lon="13.485765"><ele>581.0</ele><time>2026-04-04T13:12:52.028Z</time></trkpt><trkpt lat="42.3290867" lon="13.4859667"><ele>581.0</ele><time>2026-04-04T13:12:53.028Z</time></trkpt><trkpt lat="42.3290167" lon="13.486175"><ele>581.0</ele><time>2026-04-04T13:12:54.028Z</time></trkpt><trkpt lat="42.32895" lon="13.486375"><ele>581.0</ele><time>2026-04-04T13:12:55.028Z</time></trkpt><trkpt lat="42.3288883" lon="13.486575"><ele>580.3333333333333</ele><time>2026-04-04T13:12:56.028Z</time></trkpt><trkpt lat="42.3288267" lon="13.4867633"><ele>579.6666666666666</ele><time>2026-04-04T13:12:57.028Z</time></trkpt><trkpt lat="42.3287683" lon="13.4869533"><ele>579.0</ele><time>2026-04-04T13:12:58.028Z</time></trkpt><trkpt lat="42.32871" lon="13.4871517"><ele>578.6666666666666</ele><time>2026-04-04T13:12:59.028Z</time></trkpt><trkpt lat="42.3286517" lon="13.4873467"><ele>578.3333333333333</ele><time>2026-04-04T13:13:00.028Z</time></trkpt><trkpt lat="42.328595" lon="13.4875433"><ele>578.0</ele><time>2026-04-04T13:13:01.028Z</time></trkpt><trkpt lat="42.32854" lon="13.4877417"><ele>578.0</ele><time>2026-04-04T13:13:02.028Z</time></trkpt><trkpt lat="42.3284783" lon="13.487945"><ele>578.0</ele><time>2026-04-04T13:13:03.028Z</time></trkpt><trkpt lat="42.3284167" lon="13.4881383"><ele>578.0</ele><time>2026-04-04T13:13:04.028Z</time></trkpt><trkpt lat="42.32836" lon="13.4883417"><ele>578.0</ele><time>2026-04-04T13:13:05.028Z</time></trkpt><trkpt lat="42.3283033" lon="13.4885433"><ele>578.0</ele><time>2026-04-04T13:13:06.028Z</time></trkpt><trkpt lat="42.328245" lon="13.4887483"><ele>578.0</ele><time>2026-04-04T13:13:07.028Z</time></trkpt><trkpt lat="42.328185" lon="13.48895"><ele>577.6666666666666</ele><time>2026-04-04T13:13:08.028Z</time></trkpt><trkpt lat="42.3281233" lon="13.4891517"><ele>577.3333333333334</ele><time>2026-04-04T13:13:09.028Z</time></trkpt><trkpt lat="42.3280567" lon="13.4893567"><ele>577.0</ele><time>2026-04-04T13:13:10.028Z</time></trkpt><trkpt lat="42.3279967" lon="13.489565"><ele>576.6666666666667</ele><time>2026-04-04T13:13:11.028Z</time></trkpt><trkpt lat="42.3279367" lon="13.4897717"><ele>576.3333333333334</ele><time>2026-04-04T13:13:12.028Z</time></trkpt><trkpt lat="42.3278733" lon="13.4899867"><ele>576.0</ele><time>2026-04-04T13:13:13.028Z</time></trkpt><trkpt lat="42.3278117" lon="13.4902033"><ele>576.0</ele><time>2026-04-04T13:13:14.028Z</time></trkpt><trkpt lat="42.3277417" lon="13.4904233"><ele>576.0</ele><time>2026-04-04T13:13:15.028Z</time></trkpt><trkpt lat="42.327675" lon="13.4906367"><ele>576.0</ele><time>2026-04-04T13:13:16.028Z</time></trkpt><trkpt lat="42.3276133" lon="13.4908533"><ele>576.3333333333334</ele><time>2026-04-04T13:13:17.028Z</time></trkpt><trkpt lat="42.32755" lon="13.491065"><ele>576.6666666666667</ele><time>2026-04-04T13:13:18.028Z</time></trkpt><trkpt lat="42.327485" lon="13.491275"><ele>577.0</ele><time>2026-04-04T13:13:19.028Z</time></trkpt><trkpt lat="42.3274267" lon="13.4914883"><ele>577.0</ele><time>2026-04-04T13:13:20.028Z</time></trkpt><trkpt lat="42.327365" lon="13.4916983"><ele>577.0</ele><time>2026-04-04T13:13:21.028Z</time></trkpt><trkpt lat="42.3273" lon="13.4919083"><ele>577.0</ele><time>2026-04-04T13:13:22.028Z</time></trkpt><trkpt lat="42.32724" lon="13.4921167"><ele>576.6666666666667</ele><time>2026-04-04T13:13:23.028Z</time></trkpt><trkpt lat="42.3271783" lon="13.4923133"><ele>576.3333333333334</ele><time>2026-04-04T13:13:24.028Z</time></trkpt><trkpt lat="42.32712" lon="13.4925183"><ele>576.0</ele><time>2026-04-04T13:13:25.028Z</time></trkpt><trkpt lat="42.327065" lon="13.492715"><ele>576.0</ele><time>2026-04-04T13:13:26.028Z</time></trkpt><trkpt lat="42.327005" lon="13.49292"><ele>576.0</ele><time>2026-04-04T13:13:27.028Z</time></trkpt><trkpt lat="42.3269433" lon="13.493115"><ele>576.0</ele><time>2026-04-04T13:13:28.028Z</time></trkpt><trkpt lat="42.3268817" lon="13.4933167"><ele>575.6666666666666</ele><time>2026-04-04T13:13:29.028Z</time></trkpt><trkpt lat="42.3268133" lon="13.493515"><ele>575.3333333333333</ele><time>2026-04-04T13:13:30.028Z</time></trkpt><trkpt lat="42.326755" lon="13.4937183"><ele>575.0</ele><time>2026-04-04T13:13:31.028Z</time></trkpt><trkpt lat="42.3266967" lon="13.4939233"><ele>575.6666666666666</ele><time>2026-04-04T13:13:32.028Z</time></trkpt><trkpt lat="42.3266383" lon="13.4941233"><ele>576.3333333333334</ele><time>2026-04-04T13:13:33.028Z</time></trkpt><trkpt lat="42.32658" lon="13.49433"><ele>577.0</ele><time>2026-04-04T13:13:34.028Z</time></trkpt><trkpt lat="42.3265167" lon="13.494535"><ele>576.3333333333334</ele><time>2026-04-04T13:13:35.028Z</time></trkpt><trkpt lat="42.326455" lon="13.4947383"><ele>575.6666666666666</ele><time>2026-04-04T13:13:36.028Z</time></trkpt><trkpt lat="42.326395" lon="13.4949417"><ele>575.0</ele><time>2026-04-04T13:13:37.028Z</time></trkpt><trkpt lat="42.3263367" lon="13.4951417"><ele>575.0</ele><time>2026-04-04T13:13:38.028Z</time></trkpt><trkpt lat="42.3262867" lon="13.495335"><ele>575.0</ele><time>2026-04-04T13:13:39.028Z</time></trkpt><trkpt lat="42.3262317" lon="13.495525"><ele>575.0</ele><time>2026-04-04T13:13:40.028Z</time></trkpt><trkpt lat="42.3261733" lon="13.495715"><ele>576.0</ele><time>2026-04-04T13:13:41.028Z</time></trkpt><trkpt lat="42.3261217" lon="13.4959083"><ele>577.0</ele><time>2026-04-04T13:13:42.028Z</time></trkpt><trkpt lat="42.3260733" lon="13.49611"><ele>578.0</ele><time>2026-04-04T13:13:43.028Z</time></trkpt><trkpt lat="42.3260283" lon="13.4963083"><ele>578.5</ele><time>2026-04-04T13:13:44.028Z</time></trkpt><trkpt lat="42.32599" lon="13.4965"><ele>579.0</ele><time>2026-04-04T13:13:45.028Z</time></trkpt><trkpt lat="42.32596" lon="13.4966733"><ele>579.5</ele><time>2026-04-04T13:13:46.028Z</time></trkpt><trkpt lat="42.3259233" lon="13.4968333"><ele>580.0</ele><time>2026-04-04T13:13:47.028Z</time></trkpt><trkpt lat="42.32587" lon="13.4969733"><ele>581.0</ele><time>2026-04-04T13:13:48.028Z</time></trkpt><trkpt lat="42.325825" lon="13.4970967"><ele>582.0</ele><time>2026-04-04T13:13:49.028Z</time></trkpt><trkpt lat="42.3257917" lon="13.497205"><ele>583.0</ele><time>2026-04-04T13:13:50.028Z</time></trkpt><trkpt lat="42.325775" lon="13.4973033"><ele>584.0</ele><time>2026-04-04T13:13:51.028Z</time></trkpt><trkpt lat="42.3257983" lon="13.4974117"><ele>585.0</ele><time>2026-04-04T13:13:52.028Z</time></trkpt><trkpt lat="42.3258267" lon="13.49753"><ele>586.0</ele><time>2026-04-04T13:13:53.028Z</time></trkpt><trkpt lat="42.3258317" lon="13.497675"><ele>586.0</ele><time>2026-04-04T13:13:54.028Z</time></trkpt><trkpt lat="42.3258133" lon="13.4978383"><ele>586.0</ele><time>2026-04-04T13:13:55.028Z</time></trkpt><trkpt lat="42.3257983" lon="13.498015"><ele>586.0</ele><time>2026-04-04T13:13:56.028Z</time></trkpt><trkpt lat="42.3257817" lon="13.4982"><ele>586.0</ele><time>2026-04-04T13:13:57.028Z</time></trkpt><trkpt lat="42.3257633" lon="13.4983817"><ele>587.0</ele><time>2026-04-04T13:13:58.028Z</time></trkpt><trkpt lat="42.3257417" lon="13.4985683"><ele>588.0</ele><time>2026-04-04T13:13:59.028Z</time></trkpt><trkpt lat="42.3257233" lon="13.4987567"><ele>589.0</ele><time>2026-04-04T13:14:00.028Z</time></trkpt><trkpt lat="42.3257067" lon="13.4989483"><ele>590.0</ele><time>2026-04-04T13:14:01.028Z</time></trkpt><trkpt lat="42.3256883" lon="13.4991467"><ele>591.6666666666666</ele><time>2026-04-04T13:14:02.028Z</time></trkpt><trkpt lat="42.3256717" lon="13.499355"><ele>593.3333333333334</ele><time>2026-04-04T13:14:03.028Z</time></trkpt><trkpt lat="42.3256533" lon="13.4995633"><ele>595.0</ele><time>2026-04-04T13:14:04.028Z</time></trkpt><trkpt lat="42.3256333" lon="13.49977"><ele>595.6666666666667</ele><time>2026-04-04T13:14:05.028Z</time></trkpt><trkpt lat="42.3256033" lon="13.499975"><ele>596.3333333333334</ele><time>2026-04-04T13:14:06.028Z</time></trkpt><trkpt lat="42.3255733" lon="13.5001833"><ele>597.0</ele><time>2026-04-04T13:14:07.028Z</time></trkpt><trkpt lat="42.3255483" lon="13.50039"><ele>596.0</ele><time>2026-04-04T13:14:08.028Z</time></trkpt><trkpt lat="42.325525" lon="13.5005983"><ele>595.0</ele><time>2026-04-04T13:14:09.028Z</time></trkpt><trkpt lat="42.3255067" lon="13.5008083"><ele>594.0</ele><time>2026-04-04T13:14:10.028Z</time></trkpt><trkpt lat="42.3254883" lon="13.5010183"><ele>594.0</ele><time>2026-04-04T13:14:11.028Z</time></trkpt><trkpt lat="42.3254633" lon="13.5012283"><ele>594.0</ele><time>2026-04-04T13:14:12.028Z</time></trkpt><trkpt lat="42.325445" lon="13.5014417"><ele>594.0</ele><time>2026-04-04T13:14:13.028Z</time></trkpt><trkpt lat="42.3254267" lon="13.5016583"><ele>594.6666666666666</ele><time>2026-04-04T13:14:14.028Z</time></trkpt><trkpt lat="42.32541" lon="13.5018817"><ele>595.3333333333333</ele><time>2026-04-04T13:14:15.028Z</time></trkpt><trkpt lat="42.3253867" lon="13.5021033"><ele>596.0</ele><time>2026-04-04T13:14:16.028Z</time></trkpt><trkpt lat="42.3253667" lon="13.5023233"><ele>597.3333333333333</ele><time>2026-04-04T13:14:17.028Z</time></trkpt><trkpt lat="42.3253433" lon="13.5025467"><ele>598.6666666666666</ele><time>2026-04-04T13:14:18.028Z</time></trkpt><trkpt lat="42.32532" lon="13.5027733"><ele>600.0</ele><time>2026-04-04T13:14:19.028Z</time></trkpt><trkpt lat="42.3252967" lon="13.50301"><ele>600.6666666666666</ele><time>2026-04-04T13:14:20.028Z</time></trkpt><trkpt lat="42.32527" lon="13.5032517"><ele>601.3333333333333</ele><time>2026-04-04T13:14:21.028Z</time></trkpt><trkpt lat="42.3252483" lon="13.503495"><ele>602.0</ele><time>2026-04-04T13:14:22.028Z</time></trkpt><trkpt lat="42.3252267" lon="13.503735"><ele>603.3333333333333</ele><time>2026-04-04T13:14:23.028Z</time></trkpt><trkpt lat="42.3252067" lon="13.5039833"><ele>604.6666666666666</ele><time>2026-04-04T13:14:24.028Z</time></trkpt><trkpt lat="42.3251817" lon="13.50424"><ele>606.0</ele><time>2026-04-04T13:14:25.028Z</time></trkpt><trkpt lat="42.325155" lon="13.50449"><ele>608.0</ele><time>2026-04-04T13:14:26.028Z</time></trkpt><trkpt lat="42.325135" lon="13.504745"><ele>610.0</ele><time>2026-04-04T13:14:27.028Z</time></trkpt><trkpt lat="42.3251133" lon="13.5049983"><ele>612.0</ele><time>2026-04-04T13:14:28.028Z</time></trkpt><trkpt lat="42.3250883" lon="13.5052483"><ele>613.3333333333334</ele><time>2026-04-04T13:14:29.028Z</time></trkpt><trkpt lat="42.3250617" lon="13.5055017"><ele>614.6666666666667</ele><time>2026-04-04T13:14:30.028Z</time></trkpt><trkpt lat="42.3250283" lon="13.50575"><ele>616.0</ele><time>2026-04-04T13:14:31.028Z</time></trkpt><trkpt lat="42.3250033" lon="13.506"><ele>617.3333333333334</ele><time>2026-04-04T13:14:32.028Z</time></trkpt><trkpt lat="42.3249783" lon="13.50625"><ele>618.6666666666666</ele><time>2026-04-04T13:14:33.028Z</time></trkpt><trkpt lat="42.32496" lon="13.5065083"><ele>620.0</ele><time>2026-04-04T13:14:34.028Z</time></trkpt><trkpt lat="42.3249317" lon="13.5067683"><ele>620.0</ele><time>2026-04-04T13:14:35.028Z</time></trkpt><trkpt lat="42.3249033" lon="13.5070217"><ele>620.0</ele><time>2026-04-04T13:14:36.028Z</time></trkpt><trkpt lat="42.324875" lon="13.5072783"><ele>620.0</ele><time>2026-04-04T13:14:37.028Z</time></trkpt><trkpt lat="42.324845" lon="13.5075317"><ele>621.3333333333333</ele><time>2026-04-04T13:14:38.028Z</time></trkpt><trkpt lat="42.324825" lon="13.5077817"><ele>622.6666666666666</ele><time>2026-04-04T13:14:39.028Z</time></trkpt><trkpt lat="42.3248" lon="13.5080233"><ele>624.0</ele><time>2026-04-04T13:14:40.028Z</time></trkpt><trkpt lat="42.32477" lon="13.50827"><ele>624.6666666666666</ele><time>2026-04-04T13:14:41.028Z</time></trkpt><trkpt lat="42.324745" lon="13.5085183"><ele>625.3333333333333</ele><time>2026-04-04T13:14:42.028Z</time></trkpt><trkpt lat="42.3247233" lon="13.5087633"><ele>626.0</ele><time>2026-04-04T13:14:43.028Z</time></trkpt><trkpt lat="42.3247" lon="13.5090033"><ele>626.0</ele><time>2026-04-04T13:14:44.028Z</time></trkpt><trkpt lat="42.3246817" lon="13.5092517"><ele>626.0</ele><time>2026-04-04T13:14:45.028Z</time></trkpt><trkpt lat="42.3246583" lon="13.509495"><ele>626.0</ele><time>2026-04-04T13:14:46.028Z</time></trkpt><trkpt lat="42.3246283" lon="13.5097433"><ele>627.3333333333333</ele><time>2026-04-04T13:14:47.028Z</time></trkpt><trkpt lat="42.3246083" lon="13.5099867"><ele>628.6666666666666</ele><time>2026-04-04T13:14:48.028Z</time></trkpt><trkpt lat="42.32459" lon="13.510235"><ele>630.0</ele><time>2026-04-04T13:14:49.028Z</time></trkpt><trkpt lat="42.32457" lon="13.5104883"><ele>631.0</ele><time>2026-04-04T13:14:50.028Z</time></trkpt><trkpt lat="42.3245467" lon="13.5107367"><ele>632.0</ele><time>2026-04-04T13:14:51.028Z</time></trkpt><trkpt lat="42.3245217" lon="13.5109933"><ele>633.0</ele><time>2026-04-04T13:14:52.028Z</time></trkpt><trkpt lat="42.3244933" lon="13.5112383"><ele>634.3333333333334</ele><time>2026-04-04T13:14:53.028Z</time></trkpt><trkpt lat="42.3244733" lon="13.5114833"><ele>635.6666666666667</ele><time>2026-04-04T13:14:54.028Z</time></trkpt><trkpt lat="42.3244567" lon="13.5117317"><ele>637.0</ele><time>2026-04-04T13:14:55.028Z</time></trkpt><trkpt lat="42.3244367" lon="13.5119783"><ele>637.3333333333334</ele><time>2026-04-04T13:14:56.028Z</time></trkpt><trkpt lat="42.32442" lon="13.51223"><ele>637.6666666666666</ele><time>2026-04-04T13:14:57.028Z</time></trkpt><trkpt lat="42.3243967" lon="13.5124833"><ele>638.0</ele><time>2026-04-04T13:14:58.028Z</time></trkpt><trkpt lat="42.3243733" lon="13.5127433"><ele>638.6666666666666</ele><time>2026-04-04T13:14:59.028Z</time></trkpt><trkpt lat="42.3243517" lon="13.513"><ele>639.3333333333334</ele><time>2026-04-04T13:15:00.028Z</time></trkpt><trkpt lat="42.3243267" lon="13.51326"><ele>640.0</ele><time>2026-04-04T13:15:01.028Z</time></trkpt><trkpt lat="42.32431" lon="13.51352"><ele>640.6666666666667</ele><time>2026-04-04T13:15:02.028Z</time></trkpt><trkpt lat="42.3242833" lon="13.5137633"><ele>641.3333333333334</ele><time>2026-04-04T13:15:03.028Z</time></trkpt><trkpt lat="42.3242617" lon="13.51401"><ele>642.0</ele><time>2026-04-04T13:15:04.028Z</time></trkpt><trkpt lat="42.324245" lon="13.51425"><ele>642.0</ele><time>2026-04-04T13:15:05.028Z</time></trkpt><trkpt lat="42.324225" lon="13.514485"><ele>642.0</ele><time>2026-04-04T13:15:06.028Z</time></trkpt><trkpt lat="42.32421" lon="13.5147283"><ele>642.0</ele><time>2026-04-04T13:15:07.028Z</time></trkpt><trkpt lat="42.3241867" lon="13.514965"><ele>643.3333333333334</ele><time>2026-04-04T13:15:08.028Z</time></trkpt><trkpt lat="42.3241667" lon="13.5152083"><ele>644.6666666666667</ele><time>2026-04-04T13:15:09.027Z</time></trkpt><trkpt lat="42.3241383" lon="13.5154533"><ele>646.0</ele><time>2026-04-04T13:15:10.028Z</time></trkpt><trkpt lat="42.32412" lon="13.5157033"><ele>646.6666666666667</ele><time>2026-04-04T13:15:11.028Z</time></trkpt><trkpt lat="42.3240983" lon="13.5159567"><ele>647.3333333333334</ele><time>2026-04-04T13:15:12.027Z</time></trkpt><trkpt lat="42.3240783" lon="13.5162117"><ele>648.0</ele><time>2026-04-04T13:15:13.028Z</time></trkpt><trkpt lat="42.3240583" lon="13.516465"><ele>649.0</ele><time>2026-04-04T13:15:14.028Z</time></trkpt><trkpt lat="42.32404" lon="13.51672"><ele>650.0</ele><time>2026-04-04T13:15:15.028Z</time></trkpt><trkpt lat="42.32402" lon="13.5169767"><ele>651.0</ele><time>2026-04-04T13:15:16.028Z</time></trkpt><trkpt lat="42.3239983" lon="13.51724"><ele>652.6666666666666</ele><time>2026-04-04T13:15:17.028Z</time></trkpt><trkpt lat="42.323975" lon="13.5174933"><ele>654.3333333333333</ele><time>2026-04-04T13:15:18.028Z</time></trkpt><trkpt lat="42.3239567" lon="13.5177367"><ele>656.0</ele><time>2026-04-04T13:15:19.027Z</time></trkpt><trkpt lat="42.3239367" lon="13.51798"><ele>655.6666666666666</ele><time>2026-04-04T13:15:20.027Z</time></trkpt><trkpt lat="42.323915" lon="13.5182267"><ele>655.3333333333334</ele><time>2026-04-04T13:15:21.027Z</time></trkpt><trkpt lat="42.32389" lon="13.51848"><ele>655.0</ele><time>2026-04-04T13:15:22.027Z</time></trkpt><trkpt lat="42.3238717" lon="13.518735"><ele>656.6666666666667</ele><time>2026-04-04T13:15:23.027Z</time></trkpt><trkpt lat="42.3238467" lon="13.5189883"><ele>658.3333333333334</ele><time>2026-04-04T13:15:24.027Z</time></trkpt><trkpt lat="42.32383" lon="13.5192433"><ele>660.0</ele><time>2026-04-04T13:15:25.027Z</time></trkpt><trkpt lat="42.3238167" lon="13.5195017"><ele>661.0</ele><time>2026-04-04T13:15:26.027Z</time></trkpt><trkpt lat="42.323795" lon="13.5197617"><ele>662.0</ele><time>2026-04-04T13:15:27.027Z</time></trkpt><trkpt lat="42.3237767" lon="13.520015"><ele>663.0</ele><time>2026-04-04T13:15:28.027Z</time></trkpt><trkpt lat="42.3237567" lon="13.520275"><ele>663.6666666666666</ele><time>2026-04-04T13:15:29.027Z</time></trkpt><trkpt lat="42.323735" lon="13.52053"><ele>664.3333333333333</ele><time>2026-04-04T13:15:30.027Z</time></trkpt><trkpt lat="42.3237133" lon="13.520795"><ele>665.0</ele><time>2026-04-04T13:15:31.026Z</time></trkpt><trkpt lat="42.3236933" lon="13.5210517"><ele>665.3333333333333</ele><time>2026-04-04T13:15:32.027Z</time></trkpt><trkpt lat="42.3236683" lon="13.5213067"><ele>665.6666666666666</ele><time>2026-04-04T13:15:33.027Z</time></trkpt><trkpt lat="42.3236433" lon="13.5215583"><ele>666.0</ele><time>2026-04-04T13:15:34.027Z</time></trkpt><trkpt lat="42.323625" lon="13.521815"><ele>667.3333333333334</ele><time>2026-04-04T13:15:35.027Z</time></trkpt><trkpt lat="42.3236083" lon="13.5220783"><ele>668.6666666666667</ele><time>2026-04-04T13:15:36.027Z</time></trkpt><trkpt lat="42.3236017" lon="13.5223433"><ele>670.0</ele><time>2026-04-04T13:15:37.027Z</time></trkpt><trkpt lat="42.3235933" lon="13.5226"><ele>670.0</ele><time>2026-04-04T13:15:38.027Z</time></trkpt><trkpt lat="42.3236" lon="13.522845"><ele>670.0</ele><time>2026-04-04T13:15:39.027Z</time></trkpt><trkpt lat="42.3236267" lon="13.5230983"><ele>670.0</ele><time>2026-04-04T13:15:40.027Z</time></trkpt><trkpt lat="42.3236717" lon="13.5233483"><ele>671.0</ele><time>2026-04-04T13:15:41.027Z</time></trkpt><trkpt lat="42.3237167" lon="13.5235933"><ele>672.0</ele><time>2026-04-04T13:15:42.027Z</time></trkpt><trkpt lat="42.3237633" lon="13.5238417"><ele>673.0</ele><time>2026-04-04T13:15:43.027Z</time></trkpt><trkpt lat="42.3238017" lon="13.5240933"><ele>674.3333333333334</ele><time>2026-04-04T13:15:44.027Z</time></trkpt><trkpt lat="42.3238417" lon="13.5243417"><ele>675.6666666666666</ele><time>2026-04-04T13:15:45.027Z</time></trkpt><trkpt lat="42.32388" lon="13.524585"><ele>677.0</ele><time>2026-04-04T13:15:46.027Z</time></trkpt><trkpt lat="42.3239183" lon="13.5248233"><ele>680.6666666666666</ele><time>2026-04-04T13:15:47.027Z</time></trkpt><trkpt lat="42.323955" lon="13.5250617"><ele>684.3333333333334</ele><time>2026-04-04T13:15:48.027Z</time></trkpt><trkpt lat="42.3239967" lon="13.5252983"><ele>688.0</ele><time>2026-04-04T13:15:49.027Z</time></trkpt><trkpt lat="42.3240383" lon="13.5255517"><ele>689.3333333333334</ele><time>2026-04-04T13:15:50.027Z</time></trkpt><trkpt lat="42.32408" lon="13.5258033"><ele>690.6666666666666</ele><time>2026-04-04T13:15:51.027Z</time></trkpt><trkpt lat="42.324115" lon="13.5260517"><ele>692.0</ele><time>2026-04-04T13:15:52.027Z</time></trkpt><trkpt lat="42.3241567" lon="13.526295"><ele>692.6666666666666</ele><time>2026-04-04T13:15:53.027Z</time></trkpt><trkpt lat="42.324195" lon="13.5265433"><ele>693.3333333333334</ele><time>2026-04-04T13:15:54.027Z</time></trkpt><trkpt lat="42.32423" lon="13.5267967"><ele>694.0</ele><time>2026-04-04T13:15:55.027Z</time></trkpt><trkpt lat="42.3242617" lon="13.52705"><ele>694.6666666666667</ele><time>2026-04-04T13:15:56.027Z</time></trkpt><trkpt lat="42.32429" lon="13.5273"><ele>695.3333333333334</ele><time>2026-04-04T13:15:57.027Z</time></trkpt><trkpt lat="42.3243183" lon="13.5275467"><ele>696.0</ele><time>2026-04-04T13:15:58.027Z</time></trkpt><trkpt lat="42.3243417" lon="13.52779"><ele>697.6666666666666</ele><time>2026-04-04T13:15:59.027Z</time></trkpt><trkpt lat="42.32437" lon="13.5280417"><ele>699.3333333333333</ele><time>2026-04-04T13:16:00.027Z</time></trkpt><trkpt lat="42.3243933" lon="13.5282883"><ele>701.0</ele><time>2026-04-04T13:16:01.027Z</time></trkpt><trkpt lat="42.3244183" lon="13.528535"><ele>701.6666666666666</ele><time>2026-04-04T13:16:02.027Z</time></trkpt><trkpt lat="42.3244383" lon="13.5287817"><ele>702.3333333333334</ele><time>2026-04-04T13:16:03.027Z</time></trkpt><trkpt lat="42.324455" lon="13.5290283"><ele>703.0</ele><time>2026-04-04T13:16:04.027Z</time></trkpt><trkpt lat="42.3244667" lon="13.52927"><ele>703.0</ele><time>2026-04-04T13:16:05.027Z</time></trkpt><trkpt lat="42.3244667" lon="13.52952"><ele>703.0</ele><time>2026-04-04T13:16:06.027Z</time></trkpt><trkpt lat="42.3244467" lon="13.5297633"><ele>703.0</ele><time>2026-04-04T13:16:07.027Z</time></trkpt><trkpt lat="42.32441" lon="13.5300133"><ele>704.0</ele><time>2026-04-04T13:16:08.027Z</time></trkpt><trkpt lat="42.3243667" lon="13.5302683"><ele>705.0</ele><time>2026-04-04T13:16:09.027Z</time></trkpt><trkpt lat="42.3243067" lon="13.5305233"><ele>706.0</ele><time>2026-04-04T13:16:10.027Z</time></trkpt><trkpt lat="42.3242317" lon="13.5307667"><ele>708.3333333333334</ele><time>2026-04-04T13:16:11.027Z</time></trkpt><trkpt lat="42.3241467" lon="13.5310033"><ele>710.6666666666666</ele><time>2026-04-04T13:16:12.027Z</time></trkpt><trkpt lat="42.324045" lon="13.5312383"><ele>713.0</ele><time>2026-04-04T13:16:13.027Z</time></trkpt><trkpt lat="42.3239467" lon="13.5314617"><ele>713.6666666666666</ele><time>2026-04-04T13:16:14.027Z</time></trkpt><trkpt lat="42.3238517" lon="13.5316983"><ele>714.3333333333334</ele><time>2026-04-04T13:16:15.027Z</time></trkpt><trkpt lat="42.32376" lon="13.5319267"><ele>715.0</ele><time>2026-04-04T13:16:16.027Z</time></trkpt><trkpt lat="42.3236633" lon="13.5321567"><ele>717.6666666666667</ele><time>2026-04-04T13:16:17.027Z</time></trkpt><trkpt lat="42.3235783" lon="13.532385"><ele>720.3333333333334</ele><time>2026-04-04T13:16:18.027Z</time></trkpt><trkpt lat="42.32349" lon="13.5326133"><ele>723.0</ele><time>2026-04-04T13:16:19.027Z</time></trkpt><trkpt lat="42.3234" lon="13.5328383"><ele>726.3333333333334</ele><time>2026-04-04T13:16:20.027Z</time></trkpt><trkpt lat="42.3233067" lon="13.533065"><ele>729.6666666666667</ele><time>2026-04-04T13:16:21.027Z</time></trkpt><trkpt lat="42.3232117" lon="13.5332933"><ele>733.0</ele><time>2026-04-04T13:16:22.027Z</time></trkpt><trkpt lat="42.3231167" lon="13.533525"><ele>730.6666666666667</ele><time>2026-04-04T13:16:23.027Z</time></trkpt><trkpt lat="42.3230233" lon="13.5337517"><ele>728.3333333333334</ele><time>2026-04-04T13:16:24.027Z</time></trkpt><trkpt lat="42.3229417" lon="13.5339967"><ele>726.0</ele><time>2026-04-04T13:16:25.027Z</time></trkpt><trkpt lat="42.322865" lon="13.534235"><ele>726.0</ele><time>2026-04-04T13:16:26.027Z</time></trkpt><trkpt lat="42.3228017" lon="13.53447"><ele>726.0</ele><time>2026-04-04T13:16:27.027Z</time></trkpt><trkpt lat="42.3227417" lon="13.5347"><ele>726.0</ele><time>2026-04-04T13:16:28.027Z</time></trkpt><trkpt lat="42.3226967" lon="13.5349417"><ele>728.6666666666666</ele><time>2026-04-04T13:16:29.027Z</time></trkpt><trkpt lat="42.3226533" lon="13.5351867"><ele>731.3333333333333</ele><time>2026-04-04T13:16:30.027Z</time></trkpt><trkpt lat="42.3226267" lon="13.5354233"><ele>734.0</ele><time>2026-04-04T13:16:31.027Z</time></trkpt><trkpt lat="42.3226117" lon="13.5356667"><ele>735.3333333333333</ele><time>2026-04-04T13:16:32.027Z</time></trkpt><trkpt lat="42.32261" lon="13.535915"><ele>736.6666666666666</ele><time>2026-04-04T13:16:33.027Z</time></trkpt><trkpt lat="42.32262" lon="13.53616"><ele>738.0</ele><time>2026-04-04T13:16:34.027Z</time></trkpt><trkpt lat="42.32265" lon="13.536405"><ele>739.3333333333334</ele><time>2026-04-04T13:16:35.027Z</time></trkpt><trkpt lat="42.3226617" lon="13.5366617"><ele>740.6666666666667</ele><time>2026-04-04T13:16:36.027Z</time></trkpt><trkpt lat="42.322665" lon="13.53692"><ele>742.0</ele><time>2026-04-04T13:16:37.027Z</time></trkpt><trkpt lat="42.3226783" lon="13.5371683"><ele>744.0</ele><time>2026-04-04T13:16:38.027Z</time></trkpt><trkpt lat="42.322695" lon="13.5374233"><ele>746.0</ele><time>2026-04-04T13:16:39.027Z</time></trkpt><trkpt lat="42.3227133" lon="13.5376717"><ele>748.0</ele><time>2026-04-04T13:16:40.027Z</time></trkpt><trkpt lat="42.3227317" lon="13.5379117"><ele>748.6666666666667</ele><time>2026-04-04T13:16:41.027Z</time></trkpt><trkpt lat="42.3227433" lon="13.538145"><ele>749.3333333333334</ele><time>2026-04-04T13:16:42.026Z</time></trkpt><trkpt lat="42.3227583" lon="13.5383833"><ele>750.0</ele><time>2026-04-04T13:16:43.027Z</time></trkpt><trkpt lat="42.322775" lon="13.5386267"><ele>752.0</ele><time>2026-04-04T13:16:44.027Z</time></trkpt><trkpt lat="42.3227883" lon="13.53886"><ele>754.0</ele><time>2026-04-04T13:16:45.027Z</time></trkpt><trkpt lat="42.322805" lon="13.5391"><ele>756.0</ele><time>2026-04-04T13:16:46.027Z</time></trkpt><trkpt lat="42.322815" lon="13.53934"><ele>757.6666666666666</ele><time>2026-04-04T13:16:47.027Z</time></trkpt><trkpt lat="42.3228183" lon="13.539565"><ele>759.3333333333333</ele><time>2026-04-04T13:16:48.027Z</time></trkpt><trkpt lat="42.3228267" lon="13.5397967"><ele>761.0</ele><time>2026-04-04T13:16:49.027Z</time></trkpt><trkpt lat="42.322845" lon="13.5400217"><ele>761.0</ele><time>2026-04-04T13:16:50.027Z</time></trkpt><trkpt lat="42.3228583" lon="13.5402383"><ele>761.0</ele><time>2026-04-04T13:16:51.027Z</time></trkpt><trkpt lat="42.3228683" lon="13.5404517"><ele>761.0</ele><time>2026-04-04T13:16:52.027Z</time></trkpt><trkpt lat="42.3228783" lon="13.5406583"><ele>759.3333333333333</ele><time>2026-04-04T13:16:53.027Z</time></trkpt><trkpt lat="42.32289" lon="13.5408767"><ele>757.6666666666666</ele><time>2026-04-04T13:16:54.027Z</time></trkpt><trkpt lat="42.3229067" lon="13.5410967"><ele>756.0</ele><time>2026-04-04T13:16:55.027Z</time></trkpt><trkpt lat="42.3229167" lon="13.541325"><ele>755.6666666666666</ele><time>2026-04-04T13:16:56.027Z</time></trkpt><trkpt lat="42.3229267" lon="13.541575"><ele>755.3333333333333</ele><time>2026-04-04T13:16:57.027Z</time></trkpt><trkpt lat="42.32293" lon="13.5418583"><ele>755.0</ele><time>2026-04-04T13:16:58.027Z</time></trkpt><trkpt lat="42.322925" lon="13.5421683"><ele>755.0</ele><time>2026-04-04T13:16:59.027Z</time></trkpt><trkpt lat="42.3229" lon="13.5424883"><ele>755.0</ele><time>2026-04-04T13:17:00.027Z</time></trkpt><trkpt lat="42.3228583" lon="13.5428117"><ele>757.0</ele><time>2026-04-04T13:17:01.027Z</time></trkpt><trkpt lat="42.3228067" lon="13.54314"><ele>759.0</ele><time>2026-04-04T13:17:02.027Z</time></trkpt><trkpt lat="42.32276" lon="13.543465"><ele>761.0</ele><time>2026-04-04T13:17:03.027Z</time></trkpt><trkpt lat="42.3227133" lon="13.54378"><ele>763.0</ele><time>2026-04-04T13:17:04.026Z</time></trkpt><trkpt lat="42.3226633" lon="13.54409"><ele>763.0</ele><time>2026-04-04T13:17:05.027Z</time></trkpt><trkpt lat="42.32262" lon="13.5443967"><ele>763.0</ele><time>2026-04-04T13:17:06.027Z</time></trkpt><trkpt lat="42.322575" lon="13.5446917"><ele>764.0</ele><time>2026-04-04T13:17:07.027Z</time></trkpt><trkpt lat="42.3225283" lon="13.544985"><ele>765.0</ele><time>2026-04-04T13:17:08.027Z</time></trkpt><trkpt lat="42.3224883" lon="13.5452733"><ele>766.0</ele><time>2026-04-04T13:17:09.027Z</time></trkpt><trkpt lat="42.3224467" lon="13.54555"><ele>767.0</ele><time>2026-04-04T13:17:10.027Z</time></trkpt><trkpt lat="42.3224033" lon="13.5458283"><ele>768.0</ele><time>2026-04-04T13:17:11.027Z</time></trkpt><trkpt lat="42.3223633" lon="13.5460933"><ele>769.0</ele><time>2026-04-04T13:17:12.026Z</time></trkpt><trkpt lat="42.3223283" lon="13.5463567"><ele>769.0</ele><time>2026-04-04T13:17:13.027Z</time></trkpt><trkpt lat="42.32229" lon="13.546625"><ele>769.0</ele><time>2026-04-04T13:17:14.026Z</time></trkpt><trkpt lat="42.3222483" lon="13.5469017"><ele>769.0</ele><time>2026-04-04T13:17:15.027Z</time></trkpt><trkpt lat="42.322205" lon="13.5471633"><ele>769.0</ele><time>2026-04-04T13:17:16.027Z</time></trkpt><trkpt lat="42.32215" lon="13.5474233"><ele>769.0</ele><time>2026-04-04T13:17:17.027Z</time></trkpt><trkpt lat="42.32208" lon="13.54769"><ele>769.0</ele><time>2026-04-04T13:17:18.027Z</time></trkpt><trkpt lat="42.3219983" lon="13.54794"><ele>772.6666666666666</ele><time>2026-04-04T13:17:19.027Z</time></trkpt><trkpt lat="42.3219" lon="13.548185"><ele>776.3333333333333</ele><time>2026-04-04T13:17:20.027Z</time></trkpt><trkpt lat="42.3217917" lon="13.5484167"><ele>780.0</ele><time>2026-04-04T13:17:21.027Z</time></trkpt><trkpt lat="42.321675" lon="13.54864"><ele>781.6666666666667</ele><time>2026-04-04T13:17:22.027Z</time></trkpt><trkpt lat="42.3215333" lon="13.548855"><ele>783.3333333333334</ele><time>2026-04-04T13:17:23.027Z</time></trkpt><trkpt lat="42.3213867" lon="13.5490683"><ele>785.0</ele><time>2026-04-04T13:17:24.027Z</time></trkpt><trkpt lat="42.321235" lon="13.5492583"><ele>785.0</ele><time>2026-04-04T13:17:25.027Z</time></trkpt><trkpt lat="42.321075" lon="13.5494483"><ele>785.0</ele><time>2026-04-04T13:17:26.027Z</time></trkpt><trkpt lat="42.3209133" lon="13.5496433"><ele>785.0</ele><time>2026-04-04T13:17:27.027Z</time></trkpt><trkpt lat="42.3207633" lon="13.5498417"><ele>786.0</ele><time>2026-04-04T13:17:28.027Z</time></trkpt><trkpt lat="42.3206017" lon="13.5500333"><ele>787.0</ele><time>2026-04-04T13:17:29.027Z</time></trkpt><trkpt lat="42.3204417" lon="13.5502283"><ele>788.0</ele><time>2026-04-04T13:17:30.027Z</time></trkpt><trkpt lat="42.3202883" lon="13.55043"><ele>792.0</ele><time>2026-04-04T13:17:31.027Z</time></trkpt><trkpt lat="42.3201333" lon="13.550635"><ele>796.0</ele><time>2026-04-04T13:17:32.027Z</time></trkpt><trkpt lat="42.3199683" lon="13.550845"><ele>800.0</ele><time>2026-04-04T13:17:33.027Z</time></trkpt><trkpt lat="42.3198067" lon="13.551065"><ele>803.0</ele><time>2026-04-04T13:17:34.027Z</time></trkpt><trkpt lat="42.319645" lon="13.551265"><ele>806.0</ele><time>2026-04-04T13:17:35.026Z</time></trkpt><trkpt lat="42.319465" lon="13.5514717"><ele>806.0</ele><time>2026-04-04T13:17:36.027Z</time></trkpt><trkpt lat="42.319295" lon="13.5516667"><ele>806.0</ele><time>2026-04-04T13:17:37.027Z</time></trkpt><trkpt lat="42.3191317" lon="13.5518783"><ele>806.0</ele><time>2026-04-04T13:17:38.027Z</time></trkpt><trkpt lat="42.31896" lon="13.55209"><ele>809.6666666666667</ele><time>2026-04-04T13:17:39.027Z</time></trkpt><trkpt lat="42.3187967" lon="13.5522917"><ele>813.3333333333333</ele><time>2026-04-04T13:17:40.027Z</time></trkpt><trkpt lat="42.318635" lon="13.5525017"><ele>817.0</ele><time>2026-04-04T13:17:41.027Z</time></trkpt><trkpt lat="42.3184667" lon="13.552705"><ele>822.5</ele><time>2026-04-04T13:17:42.027Z</time></trkpt><trkpt lat="42.3182933" lon="13.5529133"><ele>828.0</ele><time>2026-04-04T13:17:43.027Z</time></trkpt><trkpt lat="42.3181317" lon="13.5531217"><ele>827.3333333333333</ele><time>2026-04-04T13:17:44.027Z</time></trkpt><trkpt lat="42.3179717" lon="13.5533267"><ele>826.6666666666666</ele><time>2026-04-04T13:17:45.027Z</time></trkpt><trkpt lat="42.3178217" lon="13.5535367"><ele>826.0</ele><time>2026-04-04T13:17:46.027Z</time></trkpt><trkpt lat="42.3176667" lon="13.5537317"><ele>826.0</ele><time>2026-04-04T13:17:47.027Z</time></trkpt><trkpt lat="42.317505" lon="13.55392"><ele>826.0</ele><time>2026-04-04T13:17:48.027Z</time></trkpt><trkpt lat="42.317345" lon="13.554115"><ele>826.0</ele><time>2026-04-04T13:17:49.027Z</time></trkpt><trkpt lat="42.3171883" lon="13.5543117"><ele>826.0</ele><time>2026-04-04T13:17:50.027Z</time></trkpt><trkpt lat="42.3170267" lon="13.55451"><ele>826.0</ele><time>2026-04-04T13:17:51.027Z</time></trkpt><trkpt lat="42.31687" lon="13.5547083"><ele>826.0</ele><time>2026-04-04T13:17:52.027Z</time></trkpt><trkpt lat="42.316715" lon="13.554915"><ele>826.0</ele><time>2026-04-04T13:17:53.027Z</time></trkpt><trkpt lat="42.31657" lon="13.555135"><ele>826.0</ele><time>2026-04-04T13:17:54.027Z</time></trkpt><trkpt lat="42.3164417" lon="13.5553617"><ele>826.0</ele><time>2026-04-04T13:17:55.027Z</time></trkpt><trkpt lat="42.31632" lon="13.5556033"><ele>827.6666666666666</ele><time>2026-04-04T13:17:56.027Z</time></trkpt><trkpt lat="42.3162" lon="13.5558433"><ele>829.3333333333333</ele><time>2026-04-04T13:17:57.027Z</time></trkpt><trkpt lat="42.3160883" lon="13.55608"><ele>831.0</ele><time>2026-04-04T13:17:58.027Z</time></trkpt><trkpt lat="42.315985" lon="13.556325"><ele>833.3333333333333</ele><time>2026-04-04T13:17:59.027Z</time></trkpt><trkpt lat="42.315885" lon="13.5565617"><ele>835.6666666666666</ele><time>2026-04-04T13:18:00.027Z</time></trkpt><trkpt lat="42.3157867" lon="13.5568083"><ele>838.0</ele><time>2026-04-04T13:18:01.027Z</time></trkpt><trkpt lat="42.315695" lon="13.5570583"><ele>837.3333333333333</ele><time>2026-04-04T13:18:02.027Z</time></trkpt><trkpt lat="42.3155983" lon="13.5573033"><ele>836.6666666666667</ele><time>2026-04-04T13:18:03.027Z</time></trkpt><trkpt lat="42.3155033" lon="13.5575417"><ele>836.0</ele><time>2026-04-04T13:18:04.027Z</time></trkpt><trkpt lat="42.3154" lon="13.5577817"><ele>839.0</ele><time>2026-04-04T13:18:05.027Z</time></trkpt><trkpt lat="42.3153067" lon="13.5580283"><ele>842.0</ele><time>2026-04-04T13:18:06.027Z</time></trkpt><trkpt lat="42.3152117" lon="13.5582767"><ele>845.0</ele><time>2026-04-04T13:18:07.027Z</time></trkpt><trkpt lat="42.3151217" lon="13.5585267"><ele>847.6666666666667</ele><time>2026-04-04T13:18:08.027Z</time></trkpt><trkpt lat="42.3150333" lon="13.558785"><ele>850.3333333333333</ele><time>2026-04-04T13:18:09.027Z</time></trkpt><trkpt lat="42.3149367" lon="13.5590367"><ele>853.0</ele><time>2026-04-04T13:18:10.027Z</time></trkpt><trkpt lat="42.31484" lon="13.5592867"><ele>853.0</ele><time>2026-04-04T13:18:11.027Z</time></trkpt><trkpt lat="42.31474" lon="13.5595333"><ele>853.0</ele><time>2026-04-04T13:18:12.027Z</time></trkpt><trkpt lat="42.3146517" lon="13.5597833"><ele>853.0</ele><time>2026-04-04T13:18:13.027Z</time></trkpt><trkpt lat="42.3145767" lon="13.5600467"><ele>853.3333333333333</ele><time>2026-04-04T13:18:14.027Z</time></trkpt><trkpt lat="42.3145117" lon="13.5603133"><ele>853.6666666666667</ele><time>2026-04-04T13:18:15.027Z</time></trkpt><trkpt lat="42.3144583" lon="13.5605883"><ele>854.0</ele><time>2026-04-04T13:18:16.027Z</time></trkpt><trkpt lat="42.3144133" lon="13.5608517"><ele>854.0</ele><time>2026-04-04T13:18:17.026Z</time></trkpt><trkpt lat="42.3143683" lon="13.5611167"><ele>854.0</ele><time>2026-04-04T13:18:18.027Z</time></trkpt><trkpt lat="42.3143283" lon="13.5613783"><ele>854.0</ele><time>2026-04-04T13:18:19.027Z</time></trkpt><trkpt lat="42.3142767" lon="13.561645"><ele>856.0</ele><time>2026-04-04T13:18:20.027Z</time></trkpt><trkpt lat="42.3142267" lon="13.5619083"><ele>858.0</ele><time>2026-04-04T13:18:21.027Z</time></trkpt><trkpt lat="42.3141733" lon="13.5621767"><ele>860.0</ele><time>2026-04-04T13:18:22.027Z</time></trkpt><trkpt lat="42.31412" lon="13.5624333"><ele>861.3333333333334</ele><time>2026-04-04T13:18:23.027Z</time></trkpt><trkpt lat="42.31407" lon="13.56269"><ele>862.6666666666667</ele><time>2026-04-04T13:18:24.027Z</time></trkpt><trkpt lat="42.3140283" lon="13.5629483"><ele>864.0</ele><time>2026-04-04T13:18:25.027Z</time></trkpt><trkpt lat="42.314005" lon="13.563205"><ele>864.3333333333333</ele><time>2026-04-04T13:18:26.027Z</time></trkpt><trkpt lat="42.3140067" lon="13.5634667"><ele>864.6666666666666</ele><time>2026-04-04T13:18:27.027Z</time></trkpt><trkpt lat="42.3140283" lon="13.5637433"><ele>865.0</ele><time>2026-04-04T13:18:28.026Z</time></trkpt><trkpt lat="42.3140667" lon="13.5640233"><ele>865.0</ele><time>2026-04-04T13:18:29.027Z</time></trkpt><trkpt lat="42.314115" lon="13.5643"><ele>865.0</ele><time>2026-04-04T13:18:30.027Z</time></trkpt><trkpt lat="42.3141717" lon="13.5645867"><ele>865.0</ele><time>2026-04-04T13:18:31.027Z</time></trkpt><trkpt lat="42.3142167" lon="13.5648733"><ele>864.3333333333333</ele><time>2026-04-04T13:18:32.027Z</time></trkpt><trkpt lat="42.3142617" lon="13.5651533"><ele>863.6666666666667</ele><time>2026-04-04T13:18:33.027Z</time></trkpt><trkpt lat="42.3143017" lon="13.5654333"><ele>863.0</ele><time>2026-04-04T13:18:34.027Z</time></trkpt><trkpt lat="42.314345" lon="13.5657067"><ele>862.6666666666667</ele><time>2026-04-04T13:18:35.027Z</time></trkpt><trkpt lat="42.3143883" lon="13.565995"><ele>862.3333333333333</ele><time>2026-04-04T13:18:36.027Z</time></trkpt><trkpt lat="42.3144367" lon="13.566285"><ele>862.0</ele><time>2026-04-04T13:18:37.027Z</time></trkpt><trkpt lat="42.31448" lon="13.56658"><ele>861.0</ele><time>2026-04-04T13:18:38.027Z</time></trkpt><trkpt lat="42.3145267" lon="13.5668667"><ele>860.0</ele><time>2026-04-04T13:18:39.027Z</time></trkpt><trkpt lat="42.314575" lon="13.5671483"><ele>859.0</ele><time>2026-04-04T13:18:40.027Z</time></trkpt><trkpt lat="42.31462" lon="13.56743"><ele>858.6666666666666</ele><time>2026-04-04T13:18:41.027Z</time></trkpt><trkpt lat="42.3146617" lon="13.5677067"><ele>858.3333333333333</ele><time>2026-04-04T13:18:42.027Z</time></trkpt><trkpt lat="42.3147083" lon="13.5679867"><ele>858.0</ele><time>2026-04-04T13:18:43.026Z</time></trkpt><trkpt lat="42.3147583" lon="13.5682717"><ele>859.6666666666667</ele><time>2026-04-04T13:18:44.027Z</time></trkpt><trkpt lat="42.314805" lon="13.5685483"><ele>861.3333333333334</ele><time>2026-04-04T13:18:45.027Z</time></trkpt><trkpt lat="42.3148483" lon="13.5688217"><ele>863.0</ele><time>2026-04-04T13:18:46.027Z</time></trkpt><trkpt lat="42.3148917" lon="13.5691033"><ele>863.0</ele><time>2026-04-04T13:18:47.027Z</time></trkpt><trkpt lat="42.3149333" lon="13.56938"><ele>863.0</ele><time>2026-04-04T13:18:48.027Z</time></trkpt><trkpt lat="42.3149683" lon="13.5696567"><ele>863.0</ele><time>2026-04-04T13:18:49.026Z</time></trkpt><trkpt lat="42.3150033" lon="13.5699367"><ele>863.0</ele><time>2026-04-04T13:18:50.027Z</time></trkpt><trkpt lat="42.3150483" lon="13.5702233"><ele>863.0</ele><time>2026-04-04T13:18:51.027Z</time></trkpt><trkpt lat="42.315095" lon="13.5705067"><ele>863.0</ele><time>2026-04-04T13:18:52.027Z</time></trkpt><trkpt lat="42.31514" lon="13.5707917"><ele>863.6666666666667</ele><time>2026-04-04T13:18:53.027Z</time></trkpt><trkpt lat="42.315185" lon="13.5710817"><ele>864.3333333333333</ele><time>2026-04-04T13:18:54.027Z</time></trkpt><trkpt lat="42.3152233" lon="13.57136"><ele>865.0</ele><time>2026-04-04T13:18:55.027Z</time></trkpt><trkpt lat="42.3152633" lon="13.571645"><ele>865.0</ele><time>2026-04-04T13:18:56.027Z</time></trkpt><trkpt lat="42.3153133" lon="13.571925"><ele>865.0</ele><time>2026-04-04T13:18:57.027Z</time></trkpt><trkpt lat="42.3153583" lon="13.5722083"><ele>865.0</ele><time>2026-04-04T13:18:58.027Z</time></trkpt><trkpt lat="42.3154017" lon="13.5724967"><ele>865.3333333333333</ele><time>2026-04-04T13:18:59.027Z</time></trkpt><trkpt lat="42.315445" lon="13.5727833"><ele>865.6666666666667</ele><time>2026-04-04T13:19:00.027Z</time></trkpt><trkpt lat="42.315495" lon="13.5730717"><ele>866.0</ele><time>2026-04-04T13:19:01.027Z</time></trkpt><trkpt lat="42.31554" lon="13.5733583"><ele>867.0</ele><time>2026-04-04T13:19:02.027Z</time></trkpt><trkpt lat="42.3155817" lon="13.573645"><ele>868.0</ele><time>2026-04-04T13:19:03.027Z</time></trkpt><trkpt lat="42.3156267" lon="13.5739317"><ele>869.0</ele><time>2026-04-04T13:19:04.027Z</time></trkpt><trkpt lat="42.315675" lon="13.5742217"><ele>869.0</ele><time>2026-04-04T13:19:05.027Z</time></trkpt><trkpt lat="42.3157183" lon="13.57451"><ele>869.0</ele><time>2026-04-04T13:19:06.027Z</time></trkpt><trkpt lat="42.31576" lon="13.574795"><ele>869.0</ele><time>2026-04-04T13:19:07.027Z</time></trkpt><trkpt lat="42.315805" lon="13.5750817"><ele>869.3333333333334</ele><time>2026-04-04T13:19:08.027Z</time></trkpt><trkpt lat="42.3158533" lon="13.5753683"><ele>869.6666666666667</ele><time>2026-04-04T13:19:09.026Z</time></trkpt><trkpt lat="42.3159" lon="13.5756583"><ele>870.0</ele><time>2026-04-04T13:19:10.027Z</time></trkpt><trkpt lat="42.3159433" lon="13.57594"><ele>870.0</ele><time>2026-04-04T13:19:11.027Z</time></trkpt><trkpt lat="42.3159883" lon="13.5762167"><ele>870.0</ele><time>2026-04-04T13:19:12.027Z</time></trkpt><trkpt lat="42.3160333" lon="13.5765017"><ele>870.0</ele><time>2026-04-04T13:19:13.027Z</time></trkpt><trkpt lat="42.3160733" lon="13.5767817"><ele>869.3333333333333</ele><time>2026-04-04T13:19:14.027Z</time></trkpt><trkpt lat="42.3161217" lon="13.5770667"><ele>868.6666666666666</ele><time>2026-04-04T13:19:15.026Z</time></trkpt><trkpt lat="42.3161683" lon="13.5773467"><ele>868.0</ele><time>2026-04-04T13:19:16.027Z</time></trkpt><trkpt lat="42.3162067" lon="13.5776333"><ele>868.0</ele><time>2026-04-04T13:19:17.027Z</time></trkpt><trkpt lat="42.3162467" lon="13.5779167"><ele>868.0</ele><time>2026-04-04T13:19:18.027Z</time></trkpt><trkpt lat="42.3162867" lon="13.5782017"><ele>868.0</ele><time>2026-04-04T13:19:19.027Z</time></trkpt><trkpt lat="42.3163333" lon="13.5784817"><ele>868.0</ele><time>2026-04-04T13:19:20.027Z</time></trkpt><trkpt lat="42.3163767" lon="13.57876"><ele>868.0</ele><time>2026-04-04T13:19:21.027Z</time></trkpt><trkpt lat="42.31642" lon="13.5790283"><ele>868.0</ele><time>2026-04-04T13:19:22.027Z</time></trkpt><trkpt lat="42.3164583" lon="13.5792783"><ele>871.0</ele><time>2026-04-04T13:19:23.027Z</time></trkpt><trkpt lat="42.3164983" lon="13.5795133"><ele>874.0</ele><time>2026-04-04T13:19:24.027Z</time></trkpt><trkpt lat="42.316555" lon="13.5797383"><ele>877.0</ele><time>2026-04-04T13:19:25.027Z</time></trkpt><trkpt lat="42.3166283" lon="13.5799517"><ele>877.0</ele><time>2026-04-04T13:19:26.027Z</time></trkpt><trkpt lat="42.31671" lon="13.580175"><ele>877.0</ele><time>2026-04-04T13:19:27.027Z</time></trkpt><trkpt lat="42.316805" lon="13.5804083"><ele>877.0</ele><time>2026-04-04T13:19:28.027Z</time></trkpt><trkpt lat="42.316905" lon="13.5806333"><ele>877.0</ele><time>2026-04-04T13:19:29.027Z</time></trkpt><trkpt lat="42.3169983" lon="13.5808717"><ele>877.0</ele><time>2026-04-04T13:19:30.027Z</time></trkpt><trkpt lat="42.31709" lon="13.581115"><ele>877.0</ele><time>2026-04-04T13:19:31.027Z</time></trkpt><trkpt lat="42.3171833" lon="13.5813517"><ele>879.0</ele><time>2026-04-04T13:19:32.027Z</time></trkpt><trkpt lat="42.3172767" lon="13.5815867"><ele>881.0</ele><time>2026-04-04T13:19:33.027Z</time></trkpt><trkpt lat="42.3173717" lon="13.5818217"><ele>883.0</ele><time>2026-04-04T13:19:34.027Z</time></trkpt><trkpt lat="42.3174733" lon="13.58205"><ele>883.0</ele><time>2026-04-04T13:19:35.027Z</time></trkpt><trkpt lat="42.31756" lon="13.5822867"><ele>883.0</ele><time>2026-04-04T13:19:36.026Z</time></trkpt><trkpt lat="42.3176533" lon="13.5825283"><ele>883.0</ele><time>2026-04-04T13:19:37.026Z</time></trkpt><trkpt lat="42.31775" lon="13.582765"><ele>881.3333333333333</ele><time>2026-04-04T13:19:38.026Z</time></trkpt><trkpt lat="42.31784" lon="13.5829983"><ele>879.6666666666667</ele><time>2026-04-04T13:19:39.026Z</time></trkpt><trkpt lat="42.3179333" lon="13.5832333"><ele>878.0</ele><time>2026-04-04T13:19:40.026Z</time></trkpt><trkpt lat="42.3180217" lon="13.5834633"><ele>881.0</ele><time>2026-04-04T13:19:41.026Z</time></trkpt><trkpt lat="42.3181067" lon="13.5836883"><ele>884.0</ele><time>2026-04-04T13:19:42.026Z</time></trkpt><trkpt lat="42.3181933" lon="13.5839"><ele>887.0</ele><time>2026-04-04T13:19:43.026Z</time></trkpt><trkpt lat="42.3182817" lon="13.5841117"><ele>887.0</ele><time>2026-04-04T13:19:44.026Z</time></trkpt><trkpt lat="42.3183667" lon="13.58432"><ele>887.0</ele><time>2026-04-04T13:19:45.026Z</time></trkpt><trkpt lat="42.3184533" lon="13.584525"><ele>887.0</ele><time>2026-04-04T13:19:46.026Z</time></trkpt><trkpt lat="42.31854" lon="13.584725"><ele>886.6666666666667</ele><time>2026-04-04T13:19:47.026Z</time></trkpt><trkpt lat="42.3186383" lon="13.5849183"><ele>886.3333333333333</ele><time>2026-04-04T13:19:48.026Z</time></trkpt><trkpt lat="42.3187567" lon="13.5850883"><ele>886.0</ele><time>2026-04-04T13:19:49.026Z</time></trkpt><trkpt lat="42.3188833" lon="13.5852317"><ele>886.0</ele><time>2026-04-04T13:19:50.026Z</time></trkpt><trkpt lat="42.3190183" lon="13.58535"><ele>886.0</ele><time>2026-04-04T13:19:51.026Z</time></trkpt><trkpt lat="42.319145" lon="13.585465"><ele>886.0</ele><time>2026-04-04T13:19:52.026Z</time></trkpt><trkpt lat="42.3192717" lon="13.58559"><ele>886.0</ele><time>2026-04-04T13:19:53.025Z</time></trkpt><trkpt lat="42.3193933" lon="13.585735"><ele>886.0</ele><time>2026-04-04T13:19:54.026Z</time></trkpt><trkpt lat="42.3194867" lon="13.5858933"><ele>886.0</ele><time>2026-04-04T13:19:55.026Z</time></trkpt><trkpt lat="42.319555" lon="13.5860633"><ele>886.25</ele><time>2026-04-04T13:19:56.026Z</time></trkpt><trkpt lat="42.3196117" lon="13.5862367"><ele>886.5</ele><time>2026-04-04T13:19:57.026Z</time></trkpt><trkpt lat="42.3196417" lon="13.5864217"><ele>886.75</ele><time>2026-04-04T13:19:58.026Z</time></trkpt><trkpt lat="42.319665" lon="13.586595"><ele>887.0</ele><time>2026-04-04T13:19:59.026Z</time></trkpt><trkpt lat="42.3196783" lon="13.58675"><ele>887.0</ele><time>2026-04-04T13:20:00.026Z</time></trkpt><trkpt lat="42.3196867" lon="13.5868783"><ele>887.0</ele><time>2026-04-04T13:20:01.026Z</time></trkpt><trkpt lat="42.3197033" lon="13.5869817"><ele>887.0</ele><time>2026-04-04T13:20:02.026Z</time></trkpt><trkpt lat="42.3197417" lon="13.5870567"><ele>887.0</ele><time>2026-04-04T13:20:03.026Z</time></trkpt><trkpt lat="42.31986" lon="13.587125"><ele>887.0</ele><time>2026-04-04T13:20:05.026Z</time></trkpt><trkpt lat="42.3199433" lon="13.5871533"><ele>888.2</ele><time>2026-04-04T13:20:06.026Z</time></trkpt><trkpt lat="42.3200367" lon="13.5871833"><ele>889.4000000000001</ele><time>2026-04-04T13:20:07.026Z</time></trkpt><trkpt lat="42.3201367" lon="13.5872233"><ele>890.5999999999999</ele><time>2026-04-04T13:20:08.026Z</time></trkpt><trkpt lat="42.320245" lon="13.5872717"><ele>891.8</ele><time>2026-04-04T13:20:09.026Z</time></trkpt><trkpt lat="42.3203533" lon="13.5873267"><ele>893.0</ele><time>2026-04-04T13:20:10.026Z</time></trkpt><trkpt lat="42.3204617" lon="13.58739"><ele>894.0</ele><time>2026-04-04T13:20:11.026Z</time></trkpt><trkpt lat="42.3205783" lon="13.5874633"><ele>895.0</ele><time>2026-04-04T13:20:12.026Z</time></trkpt><trkpt lat="42.3206967" lon="13.5875333"><ele>896.0</ele><time>2026-04-04T13:20:13.026Z</time></trkpt><trkpt lat="42.32082" lon="13.5875983"><ele>897.0</ele><time>2026-04-04T13:20:14.026Z</time></trkpt><trkpt lat="42.3209433" lon="13.587665"><ele>897.0</ele><time>2026-04-04T13:20:15.026Z</time></trkpt><trkpt lat="42.32106" lon="13.5877333"><ele>897.0</ele><time>2026-04-04T13:20:16.026Z</time></trkpt><trkpt lat="42.321175" lon="13.5878017"><ele>897.0</ele><time>2026-04-04T13:20:17.026Z</time></trkpt><trkpt lat="42.321295" lon="13.5878717"><ele>897.0</ele><time>2026-04-04T13:20:18.026Z</time></trkpt><trkpt lat="42.3214133" lon="13.5879367"><ele>898.0</ele><time>2026-04-04T13:20:19.026Z</time></trkpt><trkpt lat="42.32153" lon="13.5880017"><ele>899.0</ele><time>2026-04-04T13:20:20.026Z</time></trkpt><trkpt lat="42.3216467" lon="13.588075"><ele>900.0</ele><time>2026-04-04T13:20:21.026Z</time></trkpt><trkpt lat="42.3217733" lon="13.588155"><ele>901.0</ele><time>2026-04-04T13:20:22.026Z</time></trkpt><trkpt lat="42.3218917" lon="13.5882317"><ele>901.0</ele><time>2026-04-04T13:20:23.026Z</time></trkpt><trkpt lat="42.3220117" lon="13.5883017"><ele>901.0</ele><time>2026-04-04T13:20:24.026Z</time></trkpt><trkpt lat="42.322135" lon="13.5883767"><ele>901.0</ele><time>2026-04-04T13:20:25.026Z</time></trkpt><trkpt lat="42.32226" lon="13.588445"><ele>901.0</ele><time>2026-04-04T13:20:26.026Z</time></trkpt><trkpt lat="42.3223783" lon="13.5885133"><ele>903.0</ele><time>2026-04-04T13:20:27.026Z</time></trkpt><trkpt lat="42.3224967" lon="13.5885817"><ele>905.0</ele><time>2026-04-04T13:20:28.026Z</time></trkpt><trkpt lat="42.322615" lon="13.588645"><ele>907.0</ele><time>2026-04-04T13:20:29.026Z</time></trkpt><trkpt lat="42.3227383" lon="13.58872"><ele>909.0</ele><time>2026-04-04T13:20:30.026Z</time></trkpt><trkpt lat="42.3228633" lon="13.5887967"><ele>909.75</ele><time>2026-04-04T13:20:31.026Z</time></trkpt><trkpt lat="42.3229883" lon="13.5888767"><ele>910.5</ele><time>2026-04-04T13:20:32.026Z</time></trkpt><trkpt lat="42.32311" lon="13.5889367"><ele>911.25</ele><time>2026-04-04T13:20:33.026Z</time></trkpt><trkpt lat="42.3232267" lon="13.5890067"><ele>912.0</ele><time>2026-04-04T13:20:34.026Z</time></trkpt><trkpt lat="42.323345" lon="13.58908"><ele>913.25</ele><time>2026-04-04T13:20:35.026Z</time></trkpt><trkpt lat="42.3234667" lon="13.589145"><ele>914.5</ele><time>2026-04-04T13:20:36.026Z</time></trkpt><trkpt lat="42.3235833" lon="13.5892117"><ele>915.75</ele><time>2026-04-04T13:20:37.026Z</time></trkpt><trkpt lat="42.3237067" lon="13.5892883"><ele>917.0</ele><time>2026-04-04T13:20:38.026Z</time></trkpt><trkpt lat="42.3238283" lon="13.5893667"><ele>918.5</ele><time>2026-04-04T13:20:39.026Z</time></trkpt><trkpt lat="42.3239533" lon="13.5894383"><ele>920.0</ele><time>2026-04-04T13:20:40.026Z</time></trkpt><trkpt lat="42.3240617" lon="13.5895067"><ele>921.5</ele><time>2026-04-04T13:20:41.026Z</time></trkpt><trkpt lat="42.3241633" lon="13.5895667"><ele>923.0</ele><time>2026-04-04T13:20:42.026Z</time></trkpt><trkpt lat="42.32425" lon="13.5896183"><ele>923.0000000000001</ele><time>2026-04-04T13:20:43.025Z</time></trkpt><trkpt lat="42.3243317" lon="13.5896617"><ele>923.0</ele><time>2026-04-04T13:20:44.026Z</time></trkpt><trkpt lat="42.3243983" lon="13.5896833"><ele>923.0</ele><time>2026-04-04T13:20:45.026Z</time></trkpt><trkpt lat="42.3244717" lon="13.5896767"><ele>923.0</ele><time>2026-04-04T13:20:46.026Z</time></trkpt><trkpt lat="42.3245283" lon="13.5896217"><ele>923.0000000000001</ele><time>2026-04-04T13:20:47.026Z</time></trkpt><trkpt lat="42.3245767" lon="13.5895267"><ele>923.0</ele><time>2026-04-04T13:20:48.026Z</time></trkpt><trkpt lat="42.3246267" lon="13.589395"><ele>923.0</ele><time>2026-04-04T13:20:49.026Z</time></trkpt><trkpt lat="42.3246867" lon="13.5892483"><ele>923.0</ele><time>2026-04-04T13:20:50.026Z</time></trkpt><trkpt lat="42.3247567" lon="13.5890883"><ele>923.0</ele><time>2026-04-04T13:20:51.026Z</time></trkpt><trkpt lat="42.3248133" lon="13.5889333"><ele>923.0</ele><time>2026-04-04T13:20:52.026Z</time></trkpt><trkpt lat="42.3248617" lon="13.5887667"><ele>924.0</ele><time>2026-04-04T13:20:53.026Z</time></trkpt><trkpt lat="42.3249033" lon="13.5886"><ele>925.0</ele><time>2026-04-04T13:20:54.026Z</time></trkpt><trkpt lat="42.324945" lon="13.5884367"><ele>926.0</ele><time>2026-04-04T13:20:55.026Z</time></trkpt><trkpt lat="42.3249883" lon="13.5882683"><ele>927.0</ele><time>2026-04-04T13:20:56.026Z</time></trkpt><trkpt lat="42.3250383" lon="13.5881017"><ele>927.0</ele><time>2026-04-04T13:20:57.026Z</time></trkpt><trkpt lat="42.3250967" lon="13.58794"><ele>927.0</ele><time>2026-04-04T13:20:58.026Z</time></trkpt><trkpt lat="42.325145" lon="13.5877817"><ele>927.0</ele><time>2026-04-04T13:20:59.026Z</time></trkpt><trkpt lat="42.3251967" lon="13.58763"><ele>927.0</ele><time>2026-04-04T13:21:00.026Z</time></trkpt><trkpt lat="42.3252517" lon="13.58748"><ele>926.75</ele><time>2026-04-04T13:21:01.026Z</time></trkpt><trkpt lat="42.3252933" lon="13.58733"><ele>926.5</ele><time>2026-04-04T13:21:02.026Z</time></trkpt><trkpt lat="42.3253383" lon="13.5871867"><ele>926.25</ele><time>2026-04-04T13:21:03.026Z</time></trkpt><trkpt lat="42.3253817" lon="13.5870467"><ele>926.0</ele><time>2026-04-04T13:21:04.026Z</time></trkpt><trkpt lat="42.32543" lon="13.5869033"><ele>926.0000000000001</ele><time>2026-04-04T13:21:05.026Z</time></trkpt><trkpt lat="42.32547" lon="13.5867633"><ele>926.0</ele><time>2026-04-04T13:21:06.026Z</time></trkpt><trkpt lat="42.3255117" lon="13.5866467"><ele>926.0</ele><time>2026-04-04T13:21:07.026Z</time></trkpt><trkpt lat="42.3255633" lon="13.586555"><ele>926.0</ele><time>2026-04-04T13:21:08.026Z</time></trkpt><trkpt lat="42.3256333" lon="13.5865033"><ele>926.0000000000001</ele><time>2026-04-04T13:21:09.026Z</time></trkpt><trkpt lat="42.325705" lon="13.5864733"><ele>926.0</ele><time>2026-04-04T13:21:10.026Z</time></trkpt><trkpt lat="42.32579" lon="13.586475"><ele>927.5999999999999</ele><time>2026-04-04T13:21:11.025Z</time></trkpt><trkpt lat="42.32587" lon="13.5865217"><ele>929.1999999999999</ele><time>2026-04-04T13:21:12.026Z</time></trkpt><trkpt lat="42.3259233" lon="13.5866167"><ele>930.8000000000001</ele><time>2026-04-04T13:21:13.026Z</time></trkpt><trkpt lat="42.3259567" lon="13.5867567"><ele>932.4000000000001</ele><time>2026-04-04T13:21:14.026Z</time></trkpt><trkpt lat="42.325955" lon="13.58692"><ele>934.0</ele><time>2026-04-04T13:21:15.026Z</time></trkpt><trkpt lat="42.325945" lon="13.5870983"><ele>934.25</ele><time>2026-04-04T13:21:16.026Z</time></trkpt><trkpt lat="42.3259383" lon="13.5872667"><ele>934.5</ele><time>2026-04-04T13:21:17.026Z</time></trkpt><trkpt lat="42.325935" lon="13.5874333"><ele>934.75</ele><time>2026-04-04T13:21:18.026Z</time></trkpt><trkpt lat="42.3259417" lon="13.5875833"><ele>935.0</ele><time>2026-04-04T13:21:19.026Z</time></trkpt><trkpt lat="42.3259767" lon="13.5877117"><ele>935.0</ele><time>2026-04-04T13:21:20.026Z</time></trkpt><trkpt lat="42.32605" lon="13.5878233"><ele>935.0</ele><time>2026-04-04T13:21:21.026Z</time></trkpt><trkpt lat="42.3261417" lon="13.5879083"><ele>935.0</ele><time>2026-04-04T13:21:22.026Z</time></trkpt><trkpt lat="42.3262283" lon="13.5880067"><ele>935.0</ele><time>2026-04-04T13:21:23.026Z</time></trkpt><trkpt lat="42.3263217" lon="13.5880917"><ele>935.0</ele><time>2026-04-04T13:21:24.026Z</time></trkpt><trkpt lat="42.3264183" lon="13.5881617"><ele>936.8</ele><time>2026-04-04T13:21:25.026Z</time></trkpt><trkpt lat="42.32652" lon="13.5882233"><ele>938.6</ele><time>2026-04-04T13:21:26.026Z</time></trkpt><trkpt lat="42.3266167" lon="13.588285"><ele>940.4000000000001</ele><time>2026-04-04T13:21:27.026Z</time></trkpt><trkpt lat="42.3267067" lon="13.5883533"><ele>942.2</ele><time>2026-04-04T13:21:28.026Z</time></trkpt><trkpt lat="42.326795" lon="13.588415"><ele>944.0</ele><time>2026-04-04T13:21:29.026Z</time></trkpt><trkpt lat="42.326875" lon="13.5884667"><ele>944.0000000000001</ele><time>2026-04-04T13:21:30.026Z</time></trkpt><trkpt lat="42.3269483" lon="13.588495"><ele>944.0</ele><time>2026-04-04T13:21:31.025Z</time></trkpt><trkpt lat="42.3270233" lon="13.588505"><ele>944.0</ele><time>2026-04-04T13:21:32.026Z</time></trkpt><trkpt lat="42.3270967" lon="13.5884833"><ele>944.0</ele><time>2026-04-04T13:21:33.026Z</time></trkpt><trkpt lat="42.3271617" lon="13.5884283"><ele>944.0000000000001</ele><time>2026-04-04T13:21:34.026Z</time></trkpt><trkpt lat="42.3272317" lon="13.5883433"><ele>944.0</ele><time>2026-04-04T13:21:35.026Z</time></trkpt><trkpt lat="42.3273033" lon="13.58824"><ele>946.0</ele><time>2026-04-04T13:21:36.026Z</time></trkpt><trkpt lat="42.3273933" lon="13.588125"><ele>948.0</ele><time>2026-04-04T13:21:37.026Z</time></trkpt><trkpt lat="42.327485" lon="13.5880217"><ele>950.0</ele><time>2026-04-04T13:21:38.026Z</time></trkpt><trkpt lat="42.3275667" lon="13.5879183"><ele>952.0</ele><time>2026-04-04T13:21:39.026Z</time></trkpt><trkpt lat="42.327655" lon="13.58782"><ele>952.0</ele><time>2026-04-04T13:21:40.026Z</time></trkpt><trkpt lat="42.3277433" lon="13.5877167"><ele>952.0</ele><time>2026-04-04T13:21:41.026Z</time></trkpt><trkpt lat="42.3278333" lon="13.5876167"><ele>952.0</ele><time>2026-04-04T13:21:42.026Z</time></trkpt><trkpt lat="42.3279183" lon="13.5875083"><ele>952.0</ele><time>2026-04-04T13:21:43.026Z</time></trkpt><trkpt lat="42.328005" lon="13.58741"><ele>953.8</ele><time>2026-04-04T13:21:44.026Z</time></trkpt><trkpt lat="42.32809" lon="13.587335"><ele>955.6</ele><time>2026-04-04T13:21:45.026Z</time></trkpt><trkpt lat="42.3281767" lon="13.587285"><ele>957.3999999999999</ele><time>2026-04-04T13:21:46.026Z</time></trkpt><trkpt lat="42.32825" lon="13.58727"><ele>959.1999999999999</ele><time>2026-04-04T13:21:47.026Z</time></trkpt><trkpt lat="42.3283467" lon="13.5873167"><ele>961.0</ele><time>2026-04-04T13:21:48.026Z</time></trkpt><trkpt lat="42.328435" lon="13.5874067"><ele>961.0</ele><time>2026-04-04T13:21:49.026Z</time></trkpt><trkpt lat="42.32852" lon="13.5875333"><ele>961.0</ele><time>2026-04-04T13:21:50.026Z</time></trkpt><trkpt lat="42.3285833" lon="13.5877117"><ele>961.0</ele><time>2026-04-04T13:21:51.026Z</time></trkpt><trkpt lat="42.3286433" lon="13.58787"><ele>961.0</ele><time>2026-04-04T13:21:52.026Z</time></trkpt><trkpt lat="42.328715" lon="13.5880283"><ele>961.25</ele><time>2026-04-04T13:21:53.026Z</time></trkpt><trkpt lat="42.328785" lon="13.5881733"><ele>961.5</ele><time>2026-04-04T13:21:54.026Z</time></trkpt><trkpt lat="42.328855" lon="13.5883133"><ele>961.75</ele><time>2026-04-04T13:21:55.026Z</time></trkpt><trkpt lat="42.3289217" lon="13.5884483"><ele>962.0</ele><time>2026-04-04T13:21:56.026Z</time></trkpt><trkpt lat="42.3289933" lon="13.58858"><ele>965.2</ele><time>2026-04-04T13:21:57.026Z</time></trkpt><trkpt lat="42.329055" lon="13.58871"><ele>968.4000000000001</ele><time>2026-04-04T13:21:58.026Z</time></trkpt><trkpt lat="42.3290967" lon="13.5888317"><ele>971.5999999999999</ele><time>2026-04-04T13:21:59.026Z</time></trkpt><trkpt lat="42.3291017" lon="13.5889367"><ele>974.8</ele><time>2026-04-04T13:22:00.026Z</time></trkpt><trkpt lat="42.3290783" lon="13.589035"><ele>978.0</ele><time>2026-04-04T13:22:01.026Z</time></trkpt><trkpt lat="42.328965" lon="13.5891233"><ele>975.25</ele><time>2026-04-04T13:22:03.026Z</time></trkpt><trkpt lat="42.3288467" lon="13.5891233"><ele>972.5</ele><time>2026-04-04T13:22:04.026Z</time></trkpt><trkpt lat="42.32871" lon="13.5891383"><ele>969.75</ele><time>2026-04-04T13:22:05.026Z</time></trkpt><trkpt lat="42.3285783" lon="13.5891733"><ele>967.0</ele><time>2026-04-04T13:22:06.026Z</time></trkpt><trkpt lat="42.3284483" lon="13.5892517"><ele>967.0</ele><time>2026-04-04T13:22:07.026Z</time></trkpt><trkpt lat="42.3283367" lon="13.589365"><ele>967.0</ele><time>2026-04-04T13:22:08.026Z</time></trkpt><trkpt lat="42.32824" lon="13.5894933"><ele>967.0</ele><time>2026-04-04T13:22:09.026Z</time></trkpt><trkpt lat="42.32817" lon="13.58963"><ele>967.0</ele><time>2026-04-04T13:22:10.026Z</time></trkpt><trkpt lat="42.3281217" lon="13.589765"><ele>968.75</ele><time>2026-04-04T13:22:11.025Z</time></trkpt><trkpt lat="42.3280983" lon="13.5899033"><ele>970.5</ele><time>2026-04-04T13:22:12.026Z</time></trkpt><trkpt lat="42.3280967" lon="13.5900517"><ele>972.25</ele><time>2026-04-04T13:22:13.026Z</time></trkpt><trkpt lat="42.3280833" lon="13.5902067"><ele>974.0</ele><time>2026-04-04T13:22:14.026Z</time></trkpt><trkpt lat="42.32808" lon="13.5903733"><ele>974.8000000000001</ele><time>2026-04-04T13:22:15.026Z</time></trkpt><trkpt lat="42.3280817" lon="13.5905183"><ele>975.6000000000001</ele><time>2026-04-04T13:22:16.026Z</time></trkpt><trkpt lat="42.3281" lon="13.5906633"><ele>976.4</ele><time>2026-04-04T13:22:17.026Z</time></trkpt><trkpt lat="42.328145" lon="13.5908067"><ele>977.2</ele><time>2026-04-04T13:22:18.026Z</time></trkpt><trkpt lat="42.328205" lon="13.59094"><ele>978.0</ele><time>2026-04-04T13:22:19.026Z</time></trkpt><trkpt lat="42.3282717" lon="13.59106"><ele>978.0</ele><time>2026-04-04T13:22:20.026Z</time></trkpt><trkpt lat="42.3283317" lon="13.5911633"><ele>978.0</ele><time>2026-04-04T13:22:21.026Z</time></trkpt><trkpt lat="42.328395" lon="13.5912433"><ele>978.0</ele><time>2026-04-04T13:22:22.026Z</time></trkpt><trkpt lat="42.3284633" lon="13.591275"><ele>978.0</ele><time>2026-04-04T13:22:23.026Z</time></trkpt><trkpt lat="42.3285433" lon="13.5912833"><ele>978.0</ele><time>2026-04-04T13:22:24.026Z</time></trkpt><trkpt lat="42.3286267" lon="13.5912383"><ele>978.0</ele><time>2026-04-04T13:22:25.026Z</time></trkpt><trkpt lat="42.328715" lon="13.5911583"><ele>978.0</ele><time>2026-04-04T13:22:26.026Z</time></trkpt><trkpt lat="42.328805" lon="13.59105"><ele>978.0</ele><time>2026-04-04T13:22:27.026Z</time></trkpt><trkpt lat="42.3288983" lon="13.590925"><ele>978.0</ele><time>2026-04-04T13:22:28.026Z</time></trkpt><trkpt lat="42.3289883" lon="13.590805"><ele>978.0</ele><time>2026-04-04T13:22:29.026Z</time></trkpt><trkpt lat="42.3290817" lon="13.5906833"><ele>979.75</ele><time>2026-04-04T13:22:30.026Z</time></trkpt><trkpt lat="42.3291783" lon="13.590575"><ele>981.5</ele><time>2026-04-04T13:22:31.026Z</time></trkpt><trkpt lat="42.3292767" lon="13.59047"><ele>983.25</ele><time>2026-04-04T13:22:32.026Z</time></trkpt><trkpt lat="42.329385" lon="13.59038"><ele>985.0</ele><time>2026-04-04T13:22:33.025Z</time></trkpt><trkpt lat="42.329505" lon="13.5903"><ele>985.0</ele><time>2026-04-04T13:22:34.026Z</time></trkpt><trkpt lat="42.32963" lon="13.59026"><ele>985.0</ele><time>2026-04-04T13:22:35.026Z</time></trkpt><trkpt lat="42.3297467" lon="13.5902267"><ele>985.0</ele><time>2026-04-04T13:22:36.026Z</time></trkpt><trkpt lat="42.3298683" lon="13.5902033"><ele>985.0</ele><time>2026-04-04T13:22:37.026Z</time></trkpt><trkpt lat="42.3299967" lon="13.5901783"><ele>986.75</ele><time>2026-04-04T13:22:38.026Z</time></trkpt><trkpt lat="42.33013" lon="13.5901583"><ele>988.5</ele><time>2026-04-04T13:22:39.026Z</time></trkpt><trkpt lat="42.3302617" lon="13.5901267"><ele>990.25</ele><time>2026-04-04T13:22:40.026Z</time></trkpt><trkpt lat="42.3303883" lon="13.5900683"><ele>992.0</ele><time>2026-04-04T13:22:41.026Z</time></trkpt><trkpt lat="42.3305117" lon="13.589995"><ele>994.0</ele><time>2026-04-04T13:22:42.026Z</time></trkpt><trkpt lat="42.3306317" lon="13.5899233"><ele>996.0</ele><time>2026-04-04T13:22:43.026Z</time></trkpt><trkpt lat="42.3307483" lon="13.589835"><ele>998.0</ele><time>2026-04-04T13:22:44.026Z</time></trkpt><trkpt lat="42.3308317" lon="13.589725"><ele>1000.0</ele><time>2026-04-04T13:22:45.026Z</time></trkpt><trkpt lat="42.3309033" lon="13.58959"><ele>999.75</ele><time>2026-04-04T13:22:46.025Z</time></trkpt><trkpt lat="42.3309567" lon="13.5894317"><ele>999.5</ele><time>2026-04-04T13:22:47.026Z</time></trkpt><trkpt lat="42.3309917" lon="13.5892633"><ele>999.25</ele><time>2026-04-04T13:22:48.026Z</time></trkpt><trkpt lat="42.33103" lon="13.58909"><ele>999.0</ele><time>2026-04-04T13:22:49.026Z</time></trkpt><trkpt lat="42.3310733" lon="13.5889233"><ele>999.0</ele><time>2026-04-04T13:22:50.026Z</time></trkpt><trkpt lat="42.3311167" lon="13.5887617"><ele>999.0</ele><time>2026-04-04T13:22:51.026Z</time></trkpt><trkpt lat="42.33118" lon="13.5885967"><ele>999.0</ele><time>2026-04-04T13:22:52.026Z</time></trkpt><trkpt lat="42.331235" lon="13.5884433"><ele>999.0</ele><time>2026-04-04T13:22:53.026Z</time></trkpt><trkpt lat="42.3312783" lon="13.5883017"><ele>999.0</ele><time>2026-04-04T13:22:54.026Z</time></trkpt><trkpt lat="42.3313317" lon="13.58816"><ele>999.0</ele><time>2026-04-04T13:22:55.026Z</time></trkpt><trkpt lat="42.3313933" lon="13.588025"><ele>999.0</ele><time>2026-04-04T13:22:56.026Z</time></trkpt><trkpt lat="42.3314567" lon="13.5878867"><ele>999.0</ele><time>2026-04-04T13:22:57.026Z</time></trkpt><trkpt lat="42.3315267" lon="13.5877433"><ele>1002.25</ele><time>2026-04-04T13:22:58.026Z</time></trkpt><trkpt lat="42.3315833" lon="13.5876017"><ele>1005.5</ele><time>2026-04-04T13:22:59.026Z</time></trkpt><trkpt lat="42.3316533" lon="13.5874583"><ele>1008.75</ele><time>2026-04-04T13:23:00.026Z</time></trkpt><trkpt lat="42.3317233" lon="13.5873167"><ele>1012.0</ele><time>2026-04-04T13:23:01.026Z</time></trkpt><trkpt lat="42.331795" lon="13.5871683"><ele>1012.0</ele><time>2026-04-04T13:23:02.026Z</time></trkpt><trkpt lat="42.3318667" lon="13.58701"><ele>1012.0</ele><time>2026-04-04T13:23:03.026Z</time></trkpt><trkpt lat="42.331935" lon="13.5868483"><ele>1012.0</ele><time>2026-04-04T13:23:04.026Z</time></trkpt><trkpt lat="42.332015" lon="13.5866833"><ele>1012.0</ele><time>2026-04-04T13:23:05.026Z</time></trkpt><trkpt lat="42.3320967" lon="13.5865233"><ele>1012.0</ele><time>2026-04-04T13:23:06.026Z</time></trkpt><trkpt lat="42.3321667" lon="13.5863667"><ele>1012.0</ele><time>2026-04-04T13:23:07.026Z</time></trkpt><trkpt lat="42.3322383" lon="13.58621"><ele>1012.0</ele><time>2026-04-04T13:23:08.026Z</time></trkpt><trkpt lat="42.33231" lon="13.5860467"><ele>1012.0</ele><time>2026-04-04T13:23:09.026Z</time></trkpt><trkpt lat="42.3323817" lon="13.58588"><ele>1014.5</ele><time>2026-04-04T13:23:10.026Z</time></trkpt><trkpt lat="42.3324583" lon="13.5857067"><ele>1017.0</ele><time>2026-04-04T13:23:11.026Z</time></trkpt><trkpt lat="42.3325117" lon="13.5855383"><ele>1019.5</ele><time>2026-04-04T13:23:12.026Z</time></trkpt><trkpt lat="42.3325283" lon="13.5853567"><ele>1022.0</ele><time>2026-04-04T13:23:13.026Z</time></trkpt><trkpt lat="42.33253" lon="13.5851583"><ele>1023.3333333333334</ele><time>2026-04-04T13:23:14.025Z</time></trkpt><trkpt lat="42.3325267" lon="13.584945"><ele>1024.6666666666667</ele><time>2026-04-04T13:23:15.026Z</time></trkpt><trkpt lat="42.33251" lon="13.5847367"><ele>1026.0</ele><time>2026-04-04T13:23:16.026Z</time></trkpt><trkpt lat="42.3325067" lon="13.5845133"><ele>1027.3333333333333</ele><time>2026-04-04T13:23:17.026Z</time></trkpt><trkpt lat="42.3324983" lon="13.5843"><ele>1028.6666666666665</ele><time>2026-04-04T13:23:18.026Z</time></trkpt><trkpt lat="42.3324767" lon="13.58408"><ele>1030.0</ele><time>2026-04-04T13:23:19.026Z</time></trkpt><trkpt lat="42.3324433" lon="13.5838633"><ele>1032.3333333333333</ele><time>2026-04-04T13:23:20.026Z</time></trkpt><trkpt lat="42.332395" lon="13.5836417"><ele>1034.6666666666667</ele><time>2026-04-04T13:23:21.026Z</time></trkpt><trkpt lat="42.3323383" lon="13.58342"><ele>1037.0</ele><time>2026-04-04T13:23:22.025Z</time></trkpt><trkpt lat="42.3322883" lon="13.583195"><ele>1037.0</ele><time>2026-04-04T13:23:23.026Z</time></trkpt><trkpt lat="42.3322417" lon="13.582985"><ele>1037.0</ele><time>2026-04-04T13:23:24.026Z</time></trkpt><trkpt lat="42.332195" lon="13.582785"><ele>1037.0</ele><time>2026-04-04T13:23:25.026Z</time></trkpt><trkpt lat="42.3321567" lon="13.5825867"><ele>1035.0</ele><time>2026-04-04T13:23:26.026Z</time></trkpt><trkpt lat="42.332115" lon="13.5824017"><ele>1033.0</ele><time>2026-04-04T13:23:27.026Z</time></trkpt><trkpt lat="42.3320867" lon="13.5821917"><ele>1031.0</ele><time>2026-04-04T13:23:28.026Z</time></trkpt><trkpt lat="42.33209" lon="13.5819733"><ele>1031.0</ele><time>2026-04-04T13:23:29.026Z</time></trkpt><trkpt lat="42.3321033" lon="13.58175"><ele>1031.0</ele><time>2026-04-04T13:23:30.026Z</time></trkpt><trkpt lat="42.3321033" lon="13.581505"><ele>1031.0</ele><time>2026-04-04T13:23:31.026Z</time></trkpt><trkpt lat="42.332075" lon="13.5812683"><ele>1030.3333333333335</ele><time>2026-04-04T13:23:32.026Z</time></trkpt><trkpt lat="42.33203" lon="13.581055"><ele>1029.6666666666667</ele><time>2026-04-04T13:23:33.026Z</time></trkpt><trkpt lat="42.331985" lon="13.58085"><ele>1029.0</ele><time>2026-04-04T13:23:34.026Z</time></trkpt><trkpt lat="42.3319783" lon="13.580675"><ele>1029.0</ele><time>2026-04-04T13:23:35.026Z</time></trkpt><trkpt lat="42.33201" lon="13.5805133"><ele>1029.0</ele><time>2026-04-04T13:23:36.026Z</time></trkpt><trkpt lat="42.3320783" lon="13.5803833"><ele>1029.0</ele><time>2026-04-04T13:23:37.026Z</time></trkpt><trkpt lat="42.332185" lon="13.5802883"><ele>1029.0</ele><time>2026-04-04T13:23:38.026Z</time></trkpt><trkpt lat="42.33231" lon="13.580215"><ele>1031.5</ele><time>2026-04-04T13:23:39.026Z</time></trkpt><trkpt lat="42.33243" lon="13.5801433"><ele>1034.0</ele><time>2026-04-04T13:23:40.026Z</time></trkpt><trkpt lat="42.3325533" lon="13.5800783"><ele>1036.5</ele><time>2026-04-04T13:23:41.026Z</time></trkpt><trkpt lat="42.33269" lon="13.5800317"><ele>1039.0</ele><time>2026-04-04T13:23:42.026Z</time></trkpt><trkpt lat="42.332815" lon="13.57997"><ele>1039.0</ele><time>2026-04-04T13:23:43.026Z</time></trkpt><trkpt lat="42.3329317" lon="13.5799017"><ele>1039.0</ele><time>2026-04-04T13:23:44.026Z</time></trkpt><trkpt lat="42.33305" lon="13.5798133"><ele>1039.0</ele><time>2026-04-04T13:23:45.026Z</time></trkpt><trkpt lat="42.3331417" lon="13.579705"><ele>1039.0</ele><time>2026-04-04T13:23:46.026Z</time></trkpt><trkpt lat="42.333235" lon="13.57957"><ele>1042.25</ele><time>2026-04-04T13:23:47.026Z</time></trkpt><trkpt lat="42.3333383" lon="13.57943"><ele>1045.5</ele><time>2026-04-04T13:23:48.026Z</time></trkpt><trkpt lat="42.33345" lon="13.5793317"><ele>1048.75</ele><time>2026-04-04T13:23:49.026Z</time></trkpt><trkpt lat="42.333575" lon="13.5792733"><ele>1052.0</ele><time>2026-04-04T13:23:50.026Z</time></trkpt><trkpt lat="42.3337017" lon="13.5792833"><ele>1052.0</ele><time>2026-04-04T13:23:51.026Z</time></trkpt><trkpt lat="42.3338483" lon="13.579315"><ele>1052.0</ele><time>2026-04-04T13:23:52.026Z</time></trkpt><trkpt lat="42.3339883" lon="13.5793383"><ele>1052.0</ele><time>2026-04-04T13:23:53.026Z</time></trkpt><trkpt lat="42.3341317" lon="13.5793617"><ele>1052.0</ele><time>2026-04-04T13:23:54.026Z</time></trkpt><trkpt lat="42.33428" lon="13.5793867"><ele>1057.0</ele><time>2026-04-04T13:23:55.026Z</time></trkpt><trkpt lat="42.334425" lon="13.5794167"><ele>1062.0</ele><time>2026-04-04T13:23:56.026Z</time></trkpt><trkpt lat="42.3345767" lon="13.57947"><ele>1067.0</ele><time>2026-04-04T13:23:57.026Z</time></trkpt><trkpt lat="42.3347367" lon="13.5795383"><ele>1073.3333333333335</ele><time>2026-04-04T13:23:58.026Z</time></trkpt><trkpt lat="42.334885" lon="13.5796"><ele>1079.6666666666667</ele><time>2026-04-04T13:23:59.025Z</time></trkpt><trkpt lat="42.33504" lon="13.579665"><ele>1086.0</ele><time>2026-04-04T13:24:00.026Z</time></trkpt><trkpt lat="42.335195" lon="13.5797017"><ele>1086.0</ele><time>2026-04-04T13:24:01.026Z</time></trkpt><trkpt lat="42.3353567" lon="13.5797167"><ele>1086.0</ele><time>2026-04-04T13:24:02.026Z</time></trkpt><trkpt lat="42.3355233" lon="13.5797"><ele>1086.0</ele><time>2026-04-04T13:24:03.026Z</time></trkpt><trkpt lat="42.3356867" lon="13.5796633"><ele>1088.0</ele><time>2026-04-04T13:24:04.026Z</time></trkpt><trkpt lat="42.335855" lon="13.57962"><ele>1090.0</ele><time>2026-04-04T13:24:05.026Z</time></trkpt><trkpt lat="42.3360283" lon="13.5795883"><ele>1092.0</ele><time>2026-04-04T13:24:06.026Z</time></trkpt><trkpt lat="42.3361817" lon="13.5795683"><ele>1092.0</ele><time>2026-04-04T13:24:07.026Z</time></trkpt><trkpt lat="42.3363367" lon="13.5795683"><ele>1092.0</ele><time>2026-04-04T13:24:08.026Z</time></trkpt><trkpt lat="42.3364883" lon="13.579575"><ele>1092.0</ele><time>2026-04-04T13:24:09.026Z</time></trkpt><trkpt lat="42.3366383" lon="13.579575"><ele>1092.5</ele><time>2026-04-04T13:24:10.026Z</time></trkpt><trkpt lat="42.33679" lon="13.579545"><ele>1093.0</ele><time>2026-04-04T13:24:11.025Z</time></trkpt><trkpt lat="42.3369333" lon="13.5794917"><ele>1093.5</ele><time>2026-04-04T13:24:12.026Z</time></trkpt><trkpt lat="42.3370767" lon="13.5794583"><ele>1094.0</ele><time>2026-04-04T13:24:13.026Z</time></trkpt><trkpt lat="42.3372183" lon="13.579445"><ele>1094.0</ele><time>2026-04-04T13:24:14.026Z</time></trkpt><trkpt lat="42.3373733" lon="13.579475"><ele>1094.0</ele><time>2026-04-04T13:24:15.026Z</time></trkpt><trkpt lat="42.3375133" lon="13.5795433"><ele>1094.0</ele><time>2026-04-04T13:24:16.026Z</time></trkpt><trkpt lat="42.337635" lon="13.5796433"><ele>1094.0</ele><time>2026-04-04T13:24:17.026Z</time></trkpt><trkpt lat="42.33773" lon="13.5797833"><ele>1094.0</ele><time>2026-04-04T13:24:18.025Z</time></trkpt><trkpt lat="42.337785" lon="13.5799633"><ele>1094.0</ele><time>2026-04-04T13:24:19.025Z</time></trkpt><trkpt lat="42.3378267" lon="13.5801617"><ele>1094.0</ele><time>2026-04-04T13:24:20.025Z</time></trkpt><trkpt lat="42.337865" lon="13.5803567"><ele>1094.0</ele><time>2026-04-04T13:24:21.025Z</time></trkpt><trkpt lat="42.3378867" lon="13.580555"><ele>1095.5</ele><time>2026-04-04T13:24:22.025Z</time></trkpt><trkpt lat="42.3378767" lon="13.5807233"><ele>1097.0</ele><time>2026-04-04T13:24:23.025Z</time></trkpt><trkpt lat="42.3378333" lon="13.5808683"><ele>1098.5</ele><time>2026-04-04T13:24:24.025Z</time></trkpt><trkpt lat="42.337765" lon="13.5809983"><ele>1100.0</ele><time>2026-04-04T13:24:25.025Z</time></trkpt><trkpt lat="42.3376833" lon="13.5811283"><ele>1099.5</ele><time>2026-04-04T13:24:26.025Z</time></trkpt><trkpt lat="42.3376233" lon="13.5812683"><ele>1099.0</ele><time>2026-04-04T13:24:27.025Z</time></trkpt><trkpt lat="42.3375683" lon="13.5814267"><ele>1098.5</ele><time>2026-04-04T13:24:28.025Z</time></trkpt><trkpt lat="42.3375267" lon="13.5815933"><ele>1098.0</ele><time>2026-04-04T13:24:29.025Z</time></trkpt><trkpt lat="42.3374983" lon="13.581775"><ele>1098.0</ele><time>2026-04-04T13:24:30.025Z</time></trkpt><trkpt lat="42.3374783" lon="13.581935"><ele>1098.0</ele><time>2026-04-04T13:24:31.025Z</time></trkpt><trkpt lat="42.3374833" lon="13.5821017"><ele>1098.0</ele><time>2026-04-04T13:24:32.024Z</time></trkpt><trkpt lat="42.337505" lon="13.5822667"><ele>1098.0</ele><time>2026-04-04T13:24:33.025Z</time></trkpt><trkpt lat="42.33754" lon="13.5824333"><ele>1098.5</ele><time>2026-04-04T13:24:34.025Z</time></trkpt><trkpt lat="42.3375717" lon="13.5825983"><ele>1099.0</ele><time>2026-04-04T13:24:35.025Z</time></trkpt><trkpt lat="42.3376067" lon="13.5827683"><ele>1099.5</ele><time>2026-04-04T13:24:36.024Z</time></trkpt><trkpt lat="42.3376283" lon="13.5829267"><ele>1100.0</ele><time>2026-04-04T13:24:37.025Z</time></trkpt><trkpt lat="42.3376517" lon="13.5830733"><ele>1100.0</ele><time>2026-04-04T13:24:38.025Z</time></trkpt><trkpt lat="42.3376767" lon="13.5832133"><ele>1100.0</ele><time>2026-04-04T13:24:39.025Z</time></trkpt><trkpt lat="42.3377017" lon="13.5833433"><ele>1100.0</ele><time>2026-04-04T13:24:40.025Z</time></trkpt><trkpt lat="42.3377167" lon="13.5834667"><ele>1100.0</ele><time>2026-04-04T13:24:41.025Z</time></trkpt><trkpt lat="42.3377217" lon="13.5835683"><ele>1100.0</ele><time>2026-04-04T13:24:42.025Z</time></trkpt><trkpt lat="42.3377233" lon="13.5836983"><ele>1100.0</ele><time>2026-04-04T13:24:44.025Z</time></trkpt><trkpt lat="42.33774" lon="13.5836133"><ele>1100.0</ele><time>2026-04-04T13:24:52.025Z</time></trkpt><trkpt lat="42.337735" lon="13.583525"><ele>1100.0</ele><time>2026-04-04T13:24:53.025Z</time></trkpt><trkpt lat="42.33772" lon="13.5834167"><ele>1100.0</ele><time>2026-04-04T13:24:54.025Z</time></trkpt><trkpt lat="42.3377" lon="13.5833033"><ele>1100.0</ele><time>2026-04-04T13:24:55.025Z</time></trkpt><trkpt lat="42.33769" lon="13.5831933"><ele>1100.0</ele><time>2026-04-04T13:24:56.025Z</time></trkpt><trkpt lat="42.3376817" lon="13.5830783"><ele>1100.0</ele><time>2026-04-04T13:24:57.025Z</time></trkpt><trkpt lat="42.33767" lon="13.582975"><ele>1100.0</ele><time>2026-04-04T13:24:58.025Z</time></trkpt><trkpt lat="42.3376583" lon="13.5828767"><ele>1100.0</ele><time>2026-04-04T13:24:59.025Z</time></trkpt><trkpt lat="42.337645" lon="13.5827583"><ele>1100.0</ele><time>2026-04-04T13:25:01.025Z</time></trkpt><trkpt lat="42.337725" lon="13.582635"><ele>1100.0</ele><time>2026-04-04T13:25:06.025Z</time></trkpt><trkpt lat="42.3376917" lon="13.582715"><ele>1100.0</ele><time>2026-04-04T13:25:12.025Z</time></trkpt><trkpt lat="42.3377083" lon="13.5828133"><ele>1100.0</ele><time>2026-04-04T13:25:15.025Z</time></trkpt><trkpt lat="42.33767" lon="13.5829383"><ele>1100.0</ele><time>2026-04-04T13:26:08.025Z</time></trkpt><trkpt lat="42.3376683" lon="13.5830883"><ele>1100.0</ele><time>2026-04-04T13:26:10.025Z</time></trkpt><trkpt lat="42.3376817" lon="13.5831833"><ele>1100.0</ele><time>2026-04-04T13:26:11.025Z</time></trkpt><trkpt lat="42.337695" lon="13.5833"><ele>1100.0</ele><time>2026-04-04T13:26:12.025Z</time></trkpt><trkpt lat="42.3377033" lon="13.5834333"><ele>1100.0</ele><time>2026-04-04T13:26:13.025Z</time></trkpt><trkpt lat="42.337705" lon="13.5835733"><ele>1100.0</ele><time>2026-04-04T13:26:14.025Z</time></trkpt><trkpt lat="42.3377067" lon="13.5837083"><ele>1100.0</ele><time>2026-04-04T13:26:15.025Z</time></trkpt><trkpt lat="42.3376983" lon="13.5838467"><ele>1100.0</ele><time>2026-04-04T13:26:16.025Z</time></trkpt><trkpt lat="42.3376933" lon="13.583985"><ele>1100.0</ele><time>2026-04-04T13:26:17.025Z</time></trkpt><trkpt lat="42.337695" lon="13.5841267"><ele>1100.2</ele><time>2026-04-04T13:26:18.025Z</time></trkpt><trkpt lat="42.3376933" lon="13.5842733"><ele>1100.4</ele><time>2026-04-04T13:26:19.025Z</time></trkpt><trkpt lat="42.3376917" lon="13.584415"><ele>1100.6</ele><time>2026-04-04T13:26:20.025Z</time></trkpt><trkpt lat="42.3376867" lon="13.5845583"><ele>1100.8</ele><time>2026-04-04T13:26:21.025Z</time></trkpt><trkpt lat="42.33768" lon="13.5846967"><ele>1101.0</ele><time>2026-04-04T13:26:22.025Z</time></trkpt><trkpt lat="42.3376683" lon="13.58484"><ele>1101.8</ele><time>2026-04-04T13:26:23.025Z</time></trkpt><trkpt lat="42.3376567" lon="13.58498"><ele>1102.6</ele><time>2026-04-04T13:26:24.025Z</time></trkpt><trkpt lat="42.33764" lon="13.585115"><ele>1103.4</ele><time>2026-04-04T13:26:25.025Z</time></trkpt><trkpt lat="42.3376283" lon="13.5852517"><ele>1104.2</ele><time>2026-04-04T13:26:26.025Z</time></trkpt><trkpt lat="42.337615" lon="13.585385"><ele>1105.0</ele><time>2026-04-04T13:26:27.025Z</time></trkpt><trkpt lat="42.3376017" lon="13.5855117"><ele>1106.0</ele><time>2026-04-04T13:26:28.025Z</time></trkpt><trkpt lat="42.3375867" lon="13.585645"><ele>1107.0</ele><time>2026-04-04T13:26:29.024Z</time></trkpt><trkpt lat="42.337575" lon="13.5857767"><ele>1108.0</ele><time>2026-04-04T13:26:30.025Z</time></trkpt><trkpt lat="42.3375633" lon="13.585905"><ele>1109.0</ele><time>2026-04-04T13:26:31.025Z</time></trkpt><trkpt lat="42.3375483" lon="13.5860367"><ele>1110.0</ele><time>2026-04-04T13:26:32.025Z</time></trkpt><trkpt lat="42.3375367" lon="13.58617"><ele>1111.0</ele><time>2026-04-04T13:26:33.025Z</time></trkpt><trkpt lat="42.3375167" lon="13.5863067"><ele>1112.0</ele><time>2026-04-04T13:26:34.025Z</time></trkpt><trkpt lat="42.3375033" lon="13.5864517"><ele>1113.0</ele><time>2026-04-04T13:26:35.025Z</time></trkpt><trkpt lat="42.3374917" lon="13.5865983"><ele>1114.0</ele><time>2026-04-04T13:26:36.025Z</time></trkpt><trkpt lat="42.337485" lon="13.586745"><ele>1115.0</ele><time>2026-04-04T13:26:37.025Z</time></trkpt><trkpt lat="42.3374683" lon="13.5869"><ele>1116.5</ele><time>2026-04-04T13:26:38.025Z</time></trkpt><trkpt lat="42.3374517" lon="13.587065"><ele>1118.0</ele><time>2026-04-04T13:26:39.025Z</time></trkpt><trkpt lat="42.3374383" lon="13.5872433"><ele>1119.5</ele><time>2026-04-04T13:26:40.025Z</time></trkpt><trkpt lat="42.3374283" lon="13.5874267"><ele>1121.0</ele><time>2026-04-04T13:26:41.025Z</time></trkpt><trkpt lat="42.3373967" lon="13.5876183"><ele>1121.0</ele><time>2026-04-04T13:26:42.025Z</time></trkpt><trkpt lat="42.337355" lon="13.5878117"><ele>1121.0</ele><time>2026-04-04T13:26:43.025Z</time></trkpt><trkpt lat="42.337305" lon="13.5880033"><ele>1121.0</ele><time>2026-04-04T13:26:44.025Z</time></trkpt><trkpt lat="42.337255" lon="13.5882"><ele>1119.0</ele><time>2026-04-04T13:26:45.025Z</time></trkpt><trkpt lat="42.337195" lon="13.5884067"><ele>1117.0</ele><time>2026-04-04T13:26:46.025Z</time></trkpt><trkpt lat="42.3371367" lon="13.5886233"><ele>1115.0</ele><time>2026-04-04T13:26:47.025Z</time></trkpt><trkpt lat="42.3370883" lon="13.5888533"><ele>1115.0</ele><time>2026-04-04T13:26:48.025Z</time></trkpt><trkpt lat="42.3370383" lon="13.58908"><ele>1115.0</ele><time>2026-04-04T13:26:49.025Z</time></trkpt><trkpt lat="42.33701" lon="13.5893117"><ele>1115.0</ele><time>2026-04-04T13:26:50.025Z</time></trkpt><trkpt lat="42.3369783" lon="13.58955"><ele>1117.6666666666667</ele><time>2026-04-04T13:26:51.025Z</time></trkpt><trkpt lat="42.3369483" lon="13.58978"><ele>1120.3333333333333</ele><time>2026-04-04T13:26:52.025Z</time></trkpt><trkpt lat="42.3369217" lon="13.59001"><ele>1123.0</ele><time>2026-04-04T13:26:53.025Z</time></trkpt><trkpt lat="42.3368933" lon="13.59023"><ele>1125.6666666666665</ele><time>2026-04-04T13:26:54.025Z</time></trkpt><trkpt lat="42.3368733" lon="13.5904583"><ele>1128.3333333333333</ele><time>2026-04-04T13:26:55.025Z</time></trkpt><trkpt lat="42.33685" lon="13.5906883"><ele>1131.0</ele><time>2026-04-04T13:26:56.025Z</time></trkpt><trkpt lat="42.3368167" lon="13.59091"><ele>1131.0</ele><time>2026-04-04T13:26:57.025Z</time></trkpt><trkpt lat="42.3367717" lon="13.5911367"><ele>1131.0</ele><time>2026-04-04T13:26:58.025Z</time></trkpt><trkpt lat="42.3367367" lon="13.5913517"><ele>1131.0</ele><time>2026-04-04T13:26:59.025Z</time></trkpt><trkpt lat="42.3367267" lon="13.5915533"><ele>1133.0</ele><time>2026-04-04T13:27:00.025Z</time></trkpt><trkpt lat="42.3367033" lon="13.5917467"><ele>1135.0</ele><time>2026-04-04T13:27:01.025Z</time></trkpt><trkpt lat="42.336655" lon="13.5919267"><ele>1137.0</ele><time>2026-04-04T13:27:02.025Z</time></trkpt><trkpt lat="42.3365817" lon="13.592095"><ele>1139.0</ele><time>2026-04-04T13:27:03.025Z</time></trkpt><trkpt lat="42.3364917" lon="13.59226"><ele>1136.0</ele><time>2026-04-04T13:27:04.025Z</time></trkpt><trkpt lat="42.3364083" lon="13.5924283"><ele>1133.0</ele><time>2026-04-04T13:27:05.025Z</time></trkpt><trkpt lat="42.3363517" lon="13.5926133"><ele>1130.0</ele><time>2026-04-04T13:27:06.025Z</time></trkpt><trkpt lat="42.336305" lon="13.5928017"><ele>1127.0</ele><time>2026-04-04T13:27:07.025Z</time></trkpt><trkpt lat="42.3362767" lon="13.5930167"><ele>1127.0</ele><time>2026-04-04T13:27:08.025Z</time></trkpt><trkpt lat="42.3362633" lon="13.5932167"><ele>1127.0</ele><time>2026-04-04T13:27:09.025Z</time></trkpt><trkpt lat="42.3362783" lon="13.593425"><ele>1127.0</ele><time>2026-04-04T13:27:10.025Z</time></trkpt><trkpt lat="42.3363" lon="13.593635"><ele>1127.3333333333335</ele><time>2026-04-04T13:27:11.024Z</time></trkpt><trkpt lat="42.3363183" lon="13.59385"><ele>1127.6666666666667</ele><time>2026-04-04T13:27:12.025Z</time></trkpt><trkpt lat="42.33633" lon="13.594055"><ele>1128.0</ele><time>2026-04-04T13:27:13.025Z</time></trkpt><trkpt lat="42.336335" lon="13.5942733"><ele>1129.6666666666667</ele><time>2026-04-04T13:27:14.025Z</time></trkpt><trkpt lat="42.3363117" lon="13.594505"><ele>1131.3333333333335</ele><time>2026-04-04T13:27:15.024Z</time></trkpt><trkpt lat="42.3362817" lon="13.59474"><ele>1133.0</ele><time>2026-04-04T13:27:16.025Z</time></trkpt><trkpt lat="42.3362517" lon="13.5949783"><ele>1133.0</ele><time>2026-04-04T13:27:17.025Z</time></trkpt><trkpt lat="42.336225" lon="13.5952017"><ele>1133.0</ele><time>2026-04-04T13:27:18.025Z</time></trkpt><trkpt lat="42.3362117" lon="13.595425"><ele>1133.0</ele><time>2026-04-04T13:27:19.025Z</time></trkpt><trkpt lat="42.3362133" lon="13.59564"><ele>1135.0</ele><time>2026-04-04T13:27:20.025Z</time></trkpt><trkpt lat="42.3362267" lon="13.5958667"><ele>1137.0</ele><time>2026-04-04T13:27:21.025Z</time></trkpt><trkpt lat="42.336245" lon="13.5960983"><ele>1139.0</ele><time>2026-04-04T13:27:22.025Z</time></trkpt><trkpt lat="42.3362667" lon="13.5963183"><ele>1141.5</ele><time>2026-04-04T13:27:23.025Z</time></trkpt><trkpt lat="42.33627" lon="13.5964917"><ele>1144.0</ele><time>2026-04-04T13:27:24.025Z</time></trkpt><trkpt lat="42.3362667" lon="13.5966633"><ele>1146.5</ele><time>2026-04-04T13:27:25.025Z</time></trkpt><trkpt lat="42.336225" lon="13.5968233"><ele>1149.0</ele><time>2026-04-04T13:27:26.025Z</time></trkpt><trkpt lat="42.3361517" lon="13.5969583"><ele>1152.0</ele><time>2026-04-04T13:27:27.025Z</time></trkpt><trkpt lat="42.3360517" lon="13.5970817"><ele>1155.0</ele><time>2026-04-04T13:27:28.025Z</time></trkpt><trkpt lat="42.3359867" lon="13.597215"><ele>1158.0</ele><time>2026-04-04T13:27:29.024Z</time></trkpt><trkpt lat="42.335935" lon="13.59735"><ele>1161.0</ele><time>2026-04-04T13:27:30.025Z</time></trkpt><trkpt lat="42.33593" lon="13.5975"><ele>1161.0</ele><time>2026-04-04T13:27:31.025Z</time></trkpt><trkpt lat="42.335965" lon="13.5976567"><ele>1161.0</ele><time>2026-04-04T13:27:32.025Z</time></trkpt><trkpt lat="42.335995" lon="13.597805"><ele>1161.0</ele><time>2026-04-04T13:27:33.025Z</time></trkpt><trkpt lat="42.336005" lon="13.5979567"><ele>1161.0</ele><time>2026-04-04T13:27:34.025Z</time></trkpt><trkpt lat="42.3359867" lon="13.5981117"><ele>1164.0</ele><time>2026-04-04T13:27:35.024Z</time></trkpt><trkpt lat="42.3359333" lon="13.5982583"><ele>1167.0</ele><time>2026-04-04T13:27:36.025Z</time></trkpt><trkpt lat="42.33585" lon="13.598415"><ele>1170.0</ele><time>2026-04-04T13:27:37.025Z</time></trkpt><trkpt lat="42.3357633" lon="13.5985817"><ele>1173.0</ele><time>2026-04-04T13:27:38.025Z</time></trkpt><trkpt lat="42.3356933" lon="13.598755"><ele>1169.3333333333333</ele><time>2026-04-04T13:27:39.025Z</time></trkpt><trkpt lat="42.3356083" lon="13.5989317"><ele>1165.6666666666665</ele><time>2026-04-04T13:27:40.025Z</time></trkpt><trkpt lat="42.3355317" lon="13.5991117"><ele>1162.0</ele><time>2026-04-04T13:27:41.024Z</time></trkpt><trkpt lat="42.3354517" lon="13.5992917"><ele>1162.0</ele><time>2026-04-04T13:27:42.025Z</time></trkpt><trkpt lat="42.3353683" lon="13.599475"><ele>1162.0</ele><time>2026-04-04T13:27:43.025Z</time></trkpt><trkpt lat="42.3352783" lon="13.599675"><ele>1162.0</ele><time>2026-04-04T13:27:44.025Z</time></trkpt><trkpt lat="42.33519" lon="13.5998617"><ele>1166.25</ele><time>2026-04-04T13:27:45.025Z</time></trkpt><trkpt lat="42.335105" lon="13.600035"><ele>1170.5</ele><time>2026-04-04T13:27:46.025Z</time></trkpt><trkpt lat="42.3350333" lon="13.6002067"><ele>1174.75</ele><time>2026-04-04T13:27:47.025Z</time></trkpt><trkpt lat="42.3349617" lon="13.6003517"><ele>1179.0</ele><time>2026-04-04T13:27:48.025Z</time></trkpt><trkpt lat="42.3349067" lon="13.600505"><ele>1180.6000000000001</ele><time>2026-04-04T13:27:49.025Z</time></trkpt><trkpt lat="42.33486" lon="13.6006383"><ele>1182.2</ele><time>2026-04-04T13:27:50.025Z</time></trkpt><trkpt lat="42.3348317" lon="13.600765"><ele>1183.8000000000002</ele><time>2026-04-04T13:27:51.025Z</time></trkpt><trkpt lat="42.3348167" lon="13.6008933"><ele>1185.4</ele><time>2026-04-04T13:27:52.025Z</time></trkpt><trkpt lat="42.3348383" lon="13.601035"><ele>1187.0</ele><time>2026-04-04T13:27:53.025Z</time></trkpt><trkpt lat="42.3348783" lon="13.6011817"><ele>1187.2</ele><time>2026-04-04T13:27:54.025Z</time></trkpt><trkpt lat="42.3349267" lon="13.6013383"><ele>1187.4</ele><time>2026-04-04T13:27:55.025Z</time></trkpt><trkpt lat="42.3349717" lon="13.601465"><ele>1187.6</ele><time>2026-04-04T13:27:56.025Z</time></trkpt><trkpt lat="42.33501" lon="13.6015767"><ele>1187.8</ele><time>2026-04-04T13:27:57.025Z</time></trkpt><trkpt lat="42.33505" lon="13.6016733"><ele>1188.0</ele><time>2026-04-04T13:27:58.025Z</time></trkpt><trkpt lat="42.33511" lon="13.6017483"><ele>1188.0</ele><time>2026-04-04T13:27:59.025Z</time></trkpt><trkpt lat="42.3351867" lon="13.6017833"><ele>1188.0</ele><time>2026-04-04T13:28:00.025Z</time></trkpt><trkpt lat="42.3352667" lon="13.6017783"><ele>1188.0</ele><time>2026-04-04T13:28:01.025Z</time></trkpt><trkpt lat="42.3353417" lon="13.601725"><ele>1188.0</ele><time>2026-04-04T13:28:02.025Z</time></trkpt><trkpt lat="42.335425" lon="13.6016333"><ele>1188.0</ele><time>2026-04-04T13:28:03.024Z</time></trkpt><trkpt lat="42.3355233" lon="13.6015367"><ele>1189.2</ele><time>2026-04-04T13:28:04.025Z</time></trkpt><trkpt lat="42.33563" lon="13.6014717"><ele>1190.4</ele><time>2026-04-04T13:28:05.025Z</time></trkpt><trkpt lat="42.3357317" lon="13.6014283"><ele>1191.6000000000001</ele><time>2026-04-04T13:28:06.025Z</time></trkpt><trkpt lat="42.33583" lon="13.6014283"><ele>1192.8</ele><time>2026-04-04T13:28:07.025Z</time></trkpt><trkpt lat="42.3359233" lon="13.60147"><ele>1194.0</ele><time>2026-04-04T13:28:08.025Z</time></trkpt><trkpt lat="42.3360233" lon="13.6015533"><ele>1194.0</ele><time>2026-04-04T13:28:09.025Z</time></trkpt><trkpt lat="42.3361183" lon="13.6016617"><ele>1194.0</ele><time>2026-04-04T13:28:10.025Z</time></trkpt><trkpt lat="42.336225" lon="13.6017733"><ele>1194.0</ele><time>2026-04-04T13:28:11.025Z</time></trkpt><trkpt lat="42.336335" lon="13.601905"><ele>1194.0</ele><time>2026-04-04T13:28:12.025Z</time></trkpt><trkpt lat="42.3364433" lon="13.602045"><ele>1197.6666666666667</ele><time>2026-04-04T13:28:13.025Z</time></trkpt><trkpt lat="42.3365383" lon="13.6022017"><ele>1201.3333333333335</ele><time>2026-04-04T13:28:14.025Z</time></trkpt><trkpt lat="42.3366267" lon="13.602375"><ele>1205.0</ele><time>2026-04-04T13:28:15.025Z</time></trkpt><trkpt lat="42.33671" lon="13.6025533"><ele>1205.0</ele><time>2026-04-04T13:28:16.024Z</time></trkpt><trkpt lat="42.3367883" lon="13.6027367"><ele>1205.0</ele><time>2026-04-04T13:28:17.025Z</time></trkpt><trkpt lat="42.3368633" lon="13.60291"><ele>1205.0</ele><time>2026-04-04T13:28:18.025Z</time></trkpt><trkpt lat="42.3369333" lon="13.6030833"><ele>1205.3333333333335</ele><time>2026-04-04T13:28:19.025Z</time></trkpt><trkpt lat="42.3369733" lon="13.6032817"><ele>1205.6666666666667</ele><time>2026-04-04T13:28:20.025Z</time></trkpt><trkpt lat="42.3369783" lon="13.6034883"><ele>1206.0</ele><time>2026-04-04T13:28:21.025Z</time></trkpt><trkpt lat="42.3369467" lon="13.6037017"><ele>1207.0</ele><time>2026-04-04T13:28:22.025Z</time></trkpt><trkpt lat="42.3369067" lon="13.6039067"><ele>1208.0</ele><time>2026-04-04T13:28:23.025Z</time></trkpt><trkpt lat="42.336865" lon="13.604135"><ele>1209.0</ele><time>2026-04-04T13:28:24.025Z</time></trkpt><trkpt lat="42.3368267" lon="13.6043633"><ele>1210.3333333333333</ele><time>2026-04-04T13:28:25.025Z</time></trkpt><trkpt lat="42.33682" lon="13.604585"><ele>1211.6666666666665</ele><time>2026-04-04T13:28:26.025Z</time></trkpt><trkpt lat="42.33683" lon="13.6048083"><ele>1213.0</ele><time>2026-04-04T13:28:27.025Z</time></trkpt><trkpt lat="42.3368417" lon="13.6050267"><ele>1213.0</ele><time>2026-04-04T13:28:28.025Z</time></trkpt><trkpt lat="42.3368483" lon="13.6052433"><ele>1213.0</ele><time>2026-04-04T13:28:29.025Z</time></trkpt><trkpt lat="42.3368233" lon="13.6054467"><ele>1213.0</ele><time>2026-04-04T13:28:30.025Z</time></trkpt><trkpt lat="42.336775" lon="13.6056467"><ele>1215.6666666666665</ele><time>2026-04-04T13:28:31.025Z</time></trkpt><trkpt lat="42.3366883" lon="13.605845"><ele>1218.3333333333333</ele><time>2026-04-04T13:28:32.025Z</time></trkpt><trkpt lat="42.3365917" lon="13.6060367"><ele>1221.0</ele><time>2026-04-04T13:28:33.025Z</time></trkpt><trkpt lat="42.33649" lon="13.6062267"><ele>1220.6666666666667</ele><time>2026-04-04T13:28:34.025Z</time></trkpt><trkpt lat="42.3363583" lon="13.606405"><ele>1220.3333333333335</ele><time>2026-04-04T13:28:35.024Z</time></trkpt><trkpt lat="42.3362317" lon="13.6065883"><ele>1220.0</ele><time>2026-04-04T13:28:36.025Z</time></trkpt><trkpt lat="42.3360983" lon="13.6067617"><ele>1220.0</ele><time>2026-04-04T13:28:37.025Z</time></trkpt><trkpt lat="42.3359567" lon="13.60694"><ele>1220.0</ele><time>2026-04-04T13:28:38.025Z</time></trkpt><trkpt lat="42.335815" lon="13.6071283"><ele>1220.0</ele><time>2026-04-04T13:28:39.025Z</time></trkpt><trkpt lat="42.3356667" lon="13.60734"><ele>1217.0</ele><time>2026-04-04T13:28:40.025Z</time></trkpt><trkpt lat="42.3355267" lon="13.607565"><ele>1214.0</ele><time>2026-04-04T13:28:41.025Z</time></trkpt><trkpt lat="42.3353717" lon="13.6077933"><ele>1211.0</ele><time>2026-04-04T13:28:42.025Z</time></trkpt><trkpt lat="42.3352267" lon="13.608025"><ele>1218.3333333333335</ele><time>2026-04-04T13:28:43.025Z</time></trkpt><trkpt lat="42.3350883" lon="13.6082533"><ele>1225.6666666666667</ele><time>2026-04-04T13:28:44.025Z</time></trkpt><trkpt lat="42.3349467" lon="13.6084783"><ele>1233.0</ele><time>2026-04-04T13:28:45.025Z</time></trkpt><trkpt lat="42.3348167" lon="13.60869"><ele>1231.6666666666667</ele><time>2026-04-04T13:28:46.025Z</time></trkpt><trkpt lat="42.33471" lon="13.6088917"><ele>1230.3333333333335</ele><time>2026-04-04T13:28:47.025Z</time></trkpt><trkpt lat="42.334605" lon="13.6090783"><ele>1229.0</ele><time>2026-04-04T13:28:48.025Z</time></trkpt><trkpt lat="42.3344983" lon="13.60926"><ele>1229.0</ele><time>2026-04-04T13:28:49.025Z</time></trkpt><trkpt lat="42.3343917" lon="13.6094467"><ele>1229.0</ele><time>2026-04-04T13:28:50.024Z</time></trkpt><trkpt lat="42.3342833" lon="13.6096383"><ele>1229.0</ele><time>2026-04-04T13:28:51.025Z</time></trkpt><trkpt lat="42.334185" lon="13.609845"><ele>1235.0</ele><time>2026-04-04T13:28:52.025Z</time></trkpt><trkpt lat="42.3340833" lon="13.6100533"><ele>1241.0</ele><time>2026-04-04T13:28:53.025Z</time></trkpt><trkpt lat="42.3339917" lon="13.6102683"><ele>1247.0</ele><time>2026-04-04T13:28:54.025Z</time></trkpt><trkpt lat="42.3339033" lon="13.6104783"><ele>1243.3333333333335</ele><time>2026-04-04T13:28:55.025Z</time></trkpt><trkpt lat="42.3338117" lon="13.6106783"><ele>1239.6666666666667</ele><time>2026-04-04T13:28:56.025Z</time></trkpt><trkpt lat="42.333745" lon="13.6108933"><ele>1236.0</ele><time>2026-04-04T13:28:57.025Z</time></trkpt><trkpt lat="42.3336933" lon="13.611105"><ele>1238.6666666666667</ele><time>2026-04-04T13:28:58.025Z</time></trkpt><trkpt lat="42.3336517" lon="13.6113167"><ele>1241.3333333333335</ele><time>2026-04-04T13:28:59.025Z</time></trkpt><trkpt lat="42.3336267" lon="13.61153"><ele>1244.0</ele><time>2026-04-04T13:29:00.025Z</time></trkpt><trkpt lat="42.3336133" lon="13.6117367"><ele>1244.0</ele><time>2026-04-04T13:29:01.024Z</time></trkpt><trkpt lat="42.3336267" lon="13.611925"><ele>1244.0</ele><time>2026-04-04T13:29:02.025Z</time></trkpt><trkpt lat="42.333665" lon="13.6121183"><ele>1244.0</ele><time>2026-04-04T13:29:03.025Z</time></trkpt><trkpt lat="42.3337333" lon="13.6123017"><ele>1244.0</ele><time>2026-04-04T13:29:04.025Z</time></trkpt><trkpt lat="42.333815" lon="13.6124767"><ele>1247.0</ele><time>2026-04-04T13:29:05.025Z</time></trkpt><trkpt lat="42.3338983" lon="13.6126333"><ele>1250.0</ele><time>2026-04-04T13:29:06.025Z</time></trkpt><trkpt lat="42.3339917" lon="13.612775"><ele>1253.0</ele><time>2026-04-04T13:29:07.025Z</time></trkpt><trkpt lat="42.3341" lon="13.6129133"><ele>1256.0</ele><time>2026-04-04T13:29:08.025Z</time></trkpt><trkpt lat="42.3342217" lon="13.6130133"><ele>1256.0</ele><time>2026-04-04T13:29:09.025Z</time></trkpt><trkpt lat="42.3343433" lon="13.6130883"><ele>1256.0</ele><time>2026-04-04T13:29:10.024Z</time></trkpt><trkpt lat="42.3344533" lon="13.61314"><ele>1256.0</ele><time>2026-04-04T13:29:11.025Z</time></trkpt><trkpt lat="42.3345667" lon="13.6131683"><ele>1256.0</ele><time>2026-04-04T13:29:12.025Z</time></trkpt><trkpt lat="42.3346683" lon="13.61318"><ele>1260.3999999999999</ele><time>2026-04-04T13:29:13.025Z</time></trkpt><trkpt lat="42.33476" lon="13.6132067"><ele>1264.8</ele><time>2026-04-04T13:29:14.025Z</time></trkpt><trkpt lat="42.3348383" lon="13.6132483"><ele>1269.1999999999998</ele><time>2026-04-04T13:29:15.025Z</time></trkpt><trkpt lat="42.3348883" lon="13.61334"><ele>1273.6</ele><time>2026-04-04T13:29:16.025Z</time></trkpt><trkpt lat="42.3349233" lon="13.6134617"><ele>1278.0</ele><time>2026-04-04T13:29:17.025Z</time></trkpt><trkpt lat="42.3349333" lon="13.6135983"><ele>1279.0</ele><time>2026-04-04T13:29:18.025Z</time></trkpt><trkpt lat="42.3349" lon="13.6137633"><ele>1280.0</ele><time>2026-04-04T13:29:19.025Z</time></trkpt><trkpt lat="42.33484" lon="13.6139467"><ele>1281.0</ele><time>2026-04-04T13:29:20.025Z</time></trkpt><trkpt lat="42.3347633" lon="13.6141333"><ele>1282.0</ele><time>2026-04-04T13:29:21.025Z</time></trkpt><trkpt lat="42.3347017" lon="13.6143117"><ele>1279.0</ele><time>2026-04-04T13:29:22.025Z</time></trkpt><trkpt lat="42.33464" lon="13.6144883"><ele>1276.0</ele><time>2026-04-04T13:29:23.025Z</time></trkpt><trkpt lat="42.3345767" lon="13.6146467"><ele>1273.0</ele><time>2026-04-04T13:29:24.025Z</time></trkpt><trkpt lat="42.3345233" lon="13.614795"><ele>1270.0</ele><time>2026-04-04T13:29:25.025Z</time></trkpt><trkpt lat="42.33448" lon="13.6149267"><ele>1270.0</ele><time>2026-04-04T13:29:26.025Z</time></trkpt><trkpt lat="42.3344433" lon="13.6150517"><ele>1270.0</ele><time>2026-04-04T13:29:27.024Z</time></trkpt><trkpt lat="42.334425" lon="13.6151817"><ele>1270.0</ele><time>2026-04-04T13:29:28.025Z</time></trkpt><trkpt lat="42.3344317" lon="13.61531"><ele>1270.0</ele><time>2026-04-04T13:29:29.024Z</time></trkpt><trkpt lat="42.334495" lon="13.61541"><ele>1270.0</ele><time>2026-04-04T13:29:30.023Z</time></trkpt><trkpt lat="42.334575" lon="13.615465"><ele>1271.0</ele><time>2026-04-04T13:29:31.024Z</time></trkpt><trkpt lat="42.3346517" lon="13.6154867"><ele>1272.0</ele><time>2026-04-04T13:29:32.024Z</time></trkpt><trkpt lat="42.334745" lon="13.6154817"><ele>1273.0</ele><time>2026-04-04T13:29:33.024Z</time></trkpt><trkpt lat="42.3348483" lon="13.6154333"><ele>1274.0</ele><time>2026-04-04T13:29:34.024Z</time></trkpt><trkpt lat="42.334955" lon="13.6153633"><ele>1275.0</ele><time>2026-04-04T13:29:35.024Z</time></trkpt><trkpt lat="42.3350617" lon="13.61528"><ele>1277.0</ele><time>2026-04-04T13:29:36.024Z</time></trkpt><trkpt lat="42.3351417" lon="13.6151767"><ele>1279.0</ele><time>2026-04-04T13:29:37.024Z</time></trkpt><trkpt lat="42.3352233" lon="13.6150633"><ele>1281.0</ele><time>2026-04-04T13:29:38.024Z</time></trkpt><trkpt lat="42.3353067" lon="13.6149317"><ele>1283.0</ele><time>2026-04-04T13:29:39.024Z</time></trkpt><trkpt lat="42.33538" lon="13.6147967"><ele>1283.0</ele><time>2026-04-04T13:29:40.024Z</time></trkpt><trkpt lat="42.335455" lon="13.614665"><ele>1283.0</ele><time>2026-04-04T13:29:41.024Z</time></trkpt><trkpt lat="42.3355317" lon="13.614555"><ele>1283.0</ele><time>2026-04-04T13:29:42.024Z</time></trkpt><trkpt lat="42.3356117" lon="13.6144483"><ele>1283.0</ele><time>2026-04-04T13:29:43.024Z</time></trkpt><trkpt lat="42.3357033" lon="13.61434"><ele>1284.0</ele><time>2026-04-04T13:29:44.024Z</time></trkpt><trkpt lat="42.3358117" lon="13.6142567"><ele>1285.0</ele><time>2026-04-04T13:29:45.024Z</time></trkpt><trkpt lat="42.3359183" lon="13.6141917"><ele>1286.0</ele><time>2026-04-04T13:29:46.024Z</time></trkpt><trkpt lat="42.3360267" lon="13.6141633"><ele>1287.0</ele><time>2026-04-04T13:29:47.024Z</time></trkpt><trkpt lat="42.3361217" lon="13.6141733"><ele>1288.0</ele><time>2026-04-04T13:29:48.024Z</time></trkpt><trkpt lat="42.3362167" lon="13.6142417"><ele>1288.0</ele><time>2026-04-04T13:29:49.024Z</time></trkpt><trkpt lat="42.336275" lon="13.6143483"><ele>1288.0</ele><time>2026-04-04T13:29:50.024Z</time></trkpt><trkpt lat="42.3363067" lon="13.614475"><ele>1288.0</ele><time>2026-04-04T13:29:51.024Z</time></trkpt><trkpt lat="42.3363167" lon="13.6146233"><ele>1288.0</ele><time>2026-04-04T13:29:52.024Z</time></trkpt><trkpt lat="42.3363" lon="13.6147883"><ele>1288.0</ele><time>2026-04-04T13:29:53.024Z</time></trkpt><trkpt lat="42.336285" lon="13.6149533"><ele>1285.75</ele><time>2026-04-04T13:29:54.024Z</time></trkpt><trkpt lat="42.3362717" lon="13.6151217"><ele>1283.5</ele><time>2026-04-04T13:29:55.024Z</time></trkpt><trkpt lat="42.336265" lon="13.61529"><ele>1281.25</ele><time>2026-04-04T13:29:56.024Z</time></trkpt><trkpt lat="42.3362767" lon="13.6154633"><ele>1279.0</ele><time>2026-04-04T13:29:57.024Z</time></trkpt><trkpt lat="42.336305" lon="13.615605"><ele>1280.0</ele><time>2026-04-04T13:29:58.024Z</time></trkpt><trkpt lat="42.3363533" lon="13.6157033"><ele>1281.0</ele><time>2026-04-04T13:29:59.024Z</time></trkpt><trkpt lat="42.3364367" lon="13.6157783"><ele>1282.0</ele><time>2026-04-04T13:30:00.024Z</time></trkpt><trkpt lat="42.3365317" lon="13.61579"><ele>1283.0</ele><time>2026-04-04T13:30:01.024Z</time></trkpt><trkpt lat="42.33663" lon="13.6157567"><ele>1284.0</ele><time>2026-04-04T13:30:02.024Z</time></trkpt><trkpt lat="42.3367317" lon="13.6157"><ele>1284.0</ele><time>2026-04-04T13:30:03.024Z</time></trkpt><trkpt lat="42.3368283" lon="13.6156333"><ele>1284.0</ele><time>2026-04-04T13:30:04.024Z</time></trkpt><trkpt lat="42.3369233" lon="13.6155733"><ele>1284.0</ele><time>2026-04-04T13:30:05.024Z</time></trkpt><trkpt lat="42.3370133" lon="13.615515"><ele>1284.0</ele><time>2026-04-04T13:30:06.024Z</time></trkpt><trkpt lat="42.3371067" lon="13.6154733"><ele>1284.0</ele><time>2026-04-04T13:30:07.024Z</time></trkpt><trkpt lat="42.33721" lon="13.6154583"><ele>1286.0</ele><time>2026-04-04T13:30:08.024Z</time></trkpt><trkpt lat="42.33731" lon="13.615485"><ele>1288.0</ele><time>2026-04-04T13:30:09.024Z</time></trkpt><trkpt lat="42.3374083" lon="13.6155583"><ele>1290.0</ele><time>2026-04-04T13:30:10.024Z</time></trkpt><trkpt lat="42.337475" lon="13.615695"><ele>1292.0</ele><time>2026-04-04T13:30:11.024Z</time></trkpt><trkpt lat="42.3375133" lon="13.6158583"><ele>1292.0</ele><time>2026-04-04T13:30:12.024Z</time></trkpt><trkpt lat="42.3375367" lon="13.6160283"><ele>1292.0</ele><time>2026-04-04T13:30:13.024Z</time></trkpt><trkpt lat="42.33755" lon="13.616195"><ele>1292.0</ele><time>2026-04-04T13:30:14.024Z</time></trkpt><trkpt lat="42.3375533" lon="13.61637"><ele>1292.0</ele><time>2026-04-04T13:30:15.024Z</time></trkpt><trkpt lat="42.3375633" lon="13.6165517"><ele>1292.0</ele><time>2026-04-04T13:30:16.024Z</time></trkpt><trkpt lat="42.3375817" lon="13.6167517"><ele>1292.0</ele><time>2026-04-04T13:30:17.024Z</time></trkpt><trkpt lat="42.3376067" lon="13.6169733"><ele>1292.0</ele><time>2026-04-04T13:30:18.024Z</time></trkpt><trkpt lat="42.33762" lon="13.61722"><ele>1292.0</ele><time>2026-04-04T13:30:19.023Z</time></trkpt><trkpt lat="42.3376333" lon="13.6174767"><ele>1292.0</ele><time>2026-04-04T13:30:20.024Z</time></trkpt><trkpt lat="42.3376517" lon="13.6177317"><ele>1292.0</ele><time>2026-04-04T13:30:21.024Z</time></trkpt><trkpt lat="42.3376683" lon="13.6179767"><ele>1291.6666666666667</ele><time>2026-04-04T13:30:22.024Z</time></trkpt><trkpt lat="42.3376883" lon="13.6182017"><ele>1291.3333333333333</ele><time>2026-04-04T13:30:23.023Z</time></trkpt><trkpt lat="42.3377083" lon="13.6184217"><ele>1291.0</ele><time>2026-04-04T13:30:24.023Z</time></trkpt><trkpt lat="42.3377283" lon="13.6186217"><ele>1289.6666666666665</ele><time>2026-04-04T13:30:25.024Z</time></trkpt><trkpt lat="42.3377817" lon="13.6188283"><ele>1288.3333333333333</ele><time>2026-04-04T13:30:26.024Z</time></trkpt><trkpt lat="42.337875" lon="13.6190183"><ele>1287.0</ele><time>2026-04-04T13:30:27.024Z</time></trkpt><trkpt lat="42.3379917" lon="13.6192033"><ele>1290.6666666666667</ele><time>2026-04-04T13:30:28.024Z</time></trkpt><trkpt lat="42.3381233" lon="13.6193883"><ele>1294.3333333333335</ele><time>2026-04-04T13:30:29.024Z</time></trkpt><trkpt lat="42.3382633" lon="13.6195617"><ele>1298.0</ele><time>2026-04-04T13:30:30.024Z</time></trkpt><trkpt lat="42.3384017" lon="13.6197367"><ele>1300.0</ele><time>2026-04-04T13:30:31.024Z</time></trkpt><trkpt lat="42.3385283" lon="13.6199033"><ele>1302.0</ele><time>2026-04-04T13:30:32.024Z</time></trkpt><trkpt lat="42.3386433" lon="13.6200867"><ele>1304.0</ele><time>2026-04-04T13:30:33.024Z</time></trkpt><trkpt lat="42.33873" lon="13.6202783"><ele>1306.3333333333335</ele><time>2026-04-04T13:30:34.024Z</time></trkpt><trkpt lat="42.3387983" lon="13.6205133"><ele>1308.6666666666667</ele><time>2026-04-04T13:30:35.024Z</time></trkpt><trkpt lat="42.3388567" lon="13.6207333"><ele>1311.0</ele><time>2026-04-04T13:30:36.024Z</time></trkpt><trkpt lat="42.3389183" lon="13.6209533"><ele>1304.0</ele><time>2026-04-04T13:30:37.024Z</time></trkpt><trkpt lat="42.3389867" lon="13.621175"><ele>1297.0</ele><time>2026-04-04T13:30:38.024Z</time></trkpt><trkpt lat="42.3390533" lon="13.6213667"><ele>1290.0</ele><time>2026-04-04T13:30:39.024Z</time></trkpt><trkpt lat="42.3391483" lon="13.6215017"><ele>1290.0</ele><time>2026-04-04T13:30:40.024Z</time></trkpt><trkpt lat="42.3392567" lon="13.6216083"><ele>1290.0</ele><time>2026-04-04T13:30:41.024Z</time></trkpt><trkpt lat="42.3393717" lon="13.6217367"><ele>1290.0</ele><time>2026-04-04T13:30:42.024Z</time></trkpt><trkpt lat="42.3394917" lon="13.6218767"><ele>1290.0</ele><time>2026-04-04T13:30:43.024Z</time></trkpt><trkpt lat="42.3396" lon="13.6220383"><ele>1290.0</ele><time>2026-04-04T13:30:44.024Z</time></trkpt><trkpt lat="42.3397017" lon="13.6222183"><ele>1290.0</ele><time>2026-04-04T13:30:45.024Z</time></trkpt><trkpt lat="42.3397983" lon="13.6223967"><ele>1290.0</ele><time>2026-04-04T13:30:46.024Z</time></trkpt><trkpt lat="42.3399017" lon="13.6225817"><ele>1290.0</ele><time>2026-04-04T13:30:47.024Z</time></trkpt><trkpt lat="42.3399983" lon="13.62278"><ele>1290.0</ele><time>2026-04-04T13:30:48.024Z</time></trkpt><trkpt lat="42.340095" lon="13.62299"><ele>1290.0</ele><time>2026-04-04T13:30:49.024Z</time></trkpt><trkpt lat="42.34019" lon="13.6232167"><ele>1290.0</ele><time>2026-04-04T13:30:50.024Z</time></trkpt><trkpt lat="42.3402733" lon="13.623465"><ele>1290.0</ele><time>2026-04-04T13:30:51.024Z</time></trkpt><trkpt lat="42.340345" lon="13.62372"><ele>1290.0</ele><time>2026-04-04T13:30:52.024Z</time></trkpt><trkpt lat="42.3404183" lon="13.6239867"><ele>1290.0</ele><time>2026-04-04T13:30:53.024Z</time></trkpt><trkpt lat="42.3404967" lon="13.62425"><ele>1290.0</ele><time>2026-04-04T13:30:54.024Z</time></trkpt><trkpt lat="42.340585" lon="13.6245083"><ele>1290.0</ele><time>2026-04-04T13:30:55.024Z</time></trkpt><trkpt lat="42.34067" lon="13.6247717"><ele>1290.6666666666667</ele><time>2026-04-04T13:30:56.024Z</time></trkpt><trkpt lat="42.3407533" lon="13.6250383"><ele>1291.3333333333335</ele><time>2026-04-04T13:30:57.024Z</time></trkpt><trkpt lat="42.340835" lon="13.625315"><ele>1292.0</ele><time>2026-04-04T13:30:58.024Z</time></trkpt><trkpt lat="42.3409117" lon="13.6256"><ele>1287.0</ele><time>2026-04-04T13:30:59.024Z</time></trkpt><trkpt lat="42.3409967" lon="13.6258867"><ele>1282.0</ele><time>2026-04-04T13:31:00.024Z</time></trkpt><trkpt lat="42.3410783" lon="13.6261833"><ele>1277.6666666666665</ele><time>2026-04-04T13:31:01.024Z</time></trkpt><trkpt lat="42.3411533" lon="13.62646"><ele>1273.3333333333333</ele><time>2026-04-04T13:31:02.024Z</time></trkpt><trkpt lat="42.3412283" lon="13.6267167"><ele>1269.0</ele><time>2026-04-04T13:31:03.024Z</time></trkpt><trkpt lat="42.3412867" lon="13.6269683"><ele>1264.6666666666667</ele><time>2026-04-04T13:31:04.024Z</time></trkpt><trkpt lat="42.3413467" lon="13.6272133"><ele>1260.3333333333335</ele><time>2026-04-04T13:31:05.024Z</time></trkpt><trkpt lat="42.3414133" lon="13.6274517"><ele>1256.0</ele><time>2026-04-04T13:31:06.024Z</time></trkpt><trkpt lat="42.3414717" lon="13.627685"><ele>1265.3333333333335</ele><time>2026-04-04T13:31:07.024Z</time></trkpt><trkpt lat="42.3415333" lon="13.6279083"><ele>1274.6666666666667</ele><time>2026-04-04T13:31:08.024Z</time></trkpt><trkpt lat="42.3415933" lon="13.6281367"><ele>1284.0</ele><time>2026-04-04T13:31:09.024Z</time></trkpt><trkpt lat="42.3416533" lon="13.6283683"><ele>1284.0</ele><time>2026-04-04T13:31:10.024Z</time></trkpt><trkpt lat="42.3417117" lon="13.6285983"><ele>1284.0</ele><time>2026-04-04T13:31:11.024Z</time></trkpt><trkpt lat="42.34177" lon="13.62883"><ele>1284.0</ele><time>2026-04-04T13:31:12.024Z</time></trkpt><trkpt lat="42.34182" lon="13.6290733"><ele>1281.3333333333333</ele><time>2026-04-04T13:31:13.023Z</time></trkpt><trkpt lat="42.3418733" lon="13.6293067"><ele>1278.6666666666665</ele><time>2026-04-04T13:31:14.024Z</time></trkpt><trkpt lat="42.3419267" lon="13.62954"><ele>1276.0</ele><time>2026-04-04T13:31:15.024Z</time></trkpt><trkpt lat="42.3419817" lon="13.6297733"><ele>1271.3333333333333</ele><time>2026-04-04T13:31:16.024Z</time></trkpt><trkpt lat="42.3420383" lon="13.6299917"><ele>1266.6666666666667</ele><time>2026-04-04T13:31:17.024Z</time></trkpt><trkpt lat="42.3420817" lon="13.6302183"><ele>1262.0</ele><time>2026-04-04T13:31:18.024Z</time></trkpt><trkpt lat="42.3421317" lon="13.630445"><ele>1257.6666666666667</ele><time>2026-04-04T13:31:19.024Z</time></trkpt><trkpt lat="42.34218" lon="13.6306733"><ele>1253.3333333333333</ele><time>2026-04-04T13:31:20.024Z</time></trkpt><trkpt lat="42.34223" lon="13.63091"><ele>1249.0</ele><time>2026-04-04T13:31:21.024Z</time></trkpt><trkpt lat="42.3422867" lon="13.6311517"><ele>1260.0</ele><time>2026-04-04T13:31:22.024Z</time></trkpt><trkpt lat="42.3423483" lon="13.63139"><ele>1271.0</ele><time>2026-04-04T13:31:23.024Z</time></trkpt><trkpt lat="42.342405" lon="13.631625"><ele>1282.0</ele><time>2026-04-04T13:31:24.024Z</time></trkpt><trkpt lat="42.3424633" lon="13.6318533"><ele>1276.3333333333333</ele><time>2026-04-04T13:31:25.024Z</time></trkpt><trkpt lat="42.34253" lon="13.6320717"><ele>1270.6666666666667</ele><time>2026-04-04T13:31:26.024Z</time></trkpt><trkpt lat="42.3425967" lon="13.6322917"><ele>1265.0</ele><time>2026-04-04T13:31:27.024Z</time></trkpt><trkpt lat="42.3426517" lon="13.6325067"><ele>1265.0</ele><time>2026-04-04T13:31:28.024Z</time></trkpt><trkpt lat="42.3427167" lon="13.632715"><ele>1265.0</ele><time>2026-04-04T13:31:29.024Z</time></trkpt><trkpt lat="42.342795" lon="13.6329183"><ele>1265.0</ele><time>2026-04-04T13:31:30.024Z</time></trkpt><trkpt lat="42.3428633" lon="13.63312"><ele>1260.3333333333335</ele><time>2026-04-04T13:31:31.024Z</time></trkpt><trkpt lat="42.3429233" lon="13.63332"><ele>1255.6666666666667</ele><time>2026-04-04T13:31:32.024Z</time></trkpt><trkpt lat="42.342965" lon="13.6335333"><ele>1251.0</ele><time>2026-04-04T13:31:33.024Z</time></trkpt><trkpt lat="42.342995" lon="13.6337417"><ele>1248.0</ele><time>2026-04-04T13:31:34.024Z</time></trkpt><trkpt lat="42.3430283" lon="13.6339417"><ele>1245.0</ele><time>2026-04-04T13:31:35.024Z</time></trkpt><trkpt lat="42.34306" lon="13.6341333"><ele>1242.0</ele><time>2026-04-04T13:31:36.024Z</time></trkpt><trkpt lat="42.343085" lon="13.6343283"><ele>1239.0</ele><time>2026-04-04T13:31:37.024Z</time></trkpt><trkpt lat="42.34311" lon="13.634515"><ele>1248.5</ele><time>2026-04-04T13:31:38.024Z</time></trkpt><trkpt lat="42.343135" lon="13.63471"><ele>1258.0</ele><time>2026-04-04T13:31:39.024Z</time></trkpt><trkpt lat="42.3431667" lon="13.6349033"><ele>1267.5</ele><time>2026-04-04T13:31:40.024Z</time></trkpt><trkpt lat="42.3431917" lon="13.6351083"><ele>1277.0</ele><time>2026-04-04T13:31:41.023Z</time></trkpt><trkpt lat="42.343205" lon="13.6353167"><ele>1277.0</ele><time>2026-04-04T13:31:42.024Z</time></trkpt><trkpt lat="42.34321" lon="13.6355133"><ele>1277.0</ele><time>2026-04-04T13:31:43.024Z</time></trkpt><trkpt lat="42.3432283" lon="13.6356983"><ele>1277.0</ele><time>2026-04-04T13:31:44.024Z</time></trkpt><trkpt lat="42.343245" lon="13.6358717"><ele>1277.0</ele><time>2026-04-04T13:31:45.024Z</time></trkpt><trkpt lat="42.3432533" lon="13.6360433"><ele>1274.25</ele><time>2026-04-04T13:31:46.024Z</time></trkpt><trkpt lat="42.343265" lon="13.636215"><ele>1271.5</ele><time>2026-04-04T13:31:47.024Z</time></trkpt><trkpt lat="42.343275" lon="13.636375"><ele>1268.75</ele><time>2026-04-04T13:31:48.024Z</time></trkpt><trkpt lat="42.3432917" lon="13.6365233"><ele>1266.0</ele><time>2026-04-04T13:31:49.024Z</time></trkpt><trkpt lat="42.3433067" lon="13.636665"><ele>1266.0</ele><time>2026-04-04T13:31:50.024Z</time></trkpt><trkpt lat="42.34332" lon="13.63681"><ele>1266.0</ele><time>2026-04-04T13:31:51.024Z</time></trkpt><trkpt lat="42.3433317" lon="13.636955"><ele>1266.0</ele><time>2026-04-04T13:31:52.024Z</time></trkpt><trkpt lat="42.343345" lon="13.6371033"><ele>1266.0</ele><time>2026-04-04T13:31:53.024Z</time></trkpt><trkpt lat="42.343355" lon="13.637255"><ele>1266.0</ele><time>2026-04-04T13:31:54.024Z</time></trkpt><trkpt lat="42.34336" lon="13.6374067"><ele>1264.25</ele><time>2026-04-04T13:31:55.024Z</time></trkpt><trkpt lat="42.34337" lon="13.6375567"><ele>1262.5</ele><time>2026-04-04T13:31:56.024Z</time></trkpt><trkpt lat="42.3433833" lon="13.637715"><ele>1260.75</ele><time>2026-04-04T13:31:57.024Z</time></trkpt><trkpt lat="42.3433967" lon="13.6378767"><ele>1259.0</ele><time>2026-04-04T13:31:58.023Z</time></trkpt><trkpt lat="42.343415" lon="13.638035"><ele>1256.75</ele><time>2026-04-04T13:31:59.024Z</time></trkpt><trkpt lat="42.3434317" lon="13.63819"><ele>1254.5</ele><time>2026-04-04T13:32:00.024Z</time></trkpt><trkpt lat="42.34344" lon="13.6383483"><ele>1252.25</ele><time>2026-04-04T13:32:01.024Z</time></trkpt><trkpt lat="42.3434517" lon="13.6385117"><ele>1250.0</ele><time>2026-04-04T13:32:02.023Z</time></trkpt><trkpt lat="42.343465" lon="13.638665"><ele>1248.25</ele><time>2026-04-04T13:32:03.024Z</time></trkpt><trkpt lat="42.3435017" lon="13.6388"><ele>1246.5</ele><time>2026-04-04T13:32:04.024Z</time></trkpt><trkpt lat="42.3435667" lon="13.6389333"><ele>1244.75</ele><time>2026-04-04T13:32:05.024Z</time></trkpt><trkpt lat="42.34364" lon="13.6390583"><ele>1243.0</ele><time>2026-04-04T13:32:06.024Z</time></trkpt><trkpt lat="42.3437133" lon="13.6391867"><ele>1243.0</ele><time>2026-04-04T13:32:07.024Z</time></trkpt><trkpt lat="42.3437933" lon="13.6393083"><ele>1243.0</ele><time>2026-04-04T13:32:08.024Z</time></trkpt><trkpt lat="42.3438633" lon="13.639435"><ele>1243.0</ele><time>2026-04-04T13:32:09.024Z</time></trkpt><trkpt lat="42.3439367" lon="13.6395483"><ele>1243.0</ele><time>2026-04-04T13:32:10.024Z</time></trkpt><trkpt lat="42.344005" lon="13.63966"><ele>1244.8</ele><time>2026-04-04T13:32:11.024Z</time></trkpt><trkpt lat="42.3440633" lon="13.6397733"><ele>1246.6</ele><time>2026-04-04T13:32:12.024Z</time></trkpt><trkpt lat="42.344115" lon="13.6398817"><ele>1248.4</ele><time>2026-04-04T13:32:13.024Z</time></trkpt><trkpt lat="42.3441583" lon="13.64"><ele>1250.2</ele><time>2026-04-04T13:32:14.024Z</time></trkpt><trkpt lat="42.3442033" lon="13.6401033"><ele>1252.0</ele><time>2026-04-04T13:32:15.024Z</time></trkpt><trkpt lat="42.34424" lon="13.6402133"><ele>1250.1666666666665</ele><time>2026-04-04T13:32:16.024Z</time></trkpt><trkpt lat="42.3442767" lon="13.64032"><ele>1248.3333333333333</ele><time>2026-04-04T13:32:17.024Z</time></trkpt><trkpt lat="42.3443117" lon="13.640415"><ele>1246.5</ele><time>2026-04-04T13:32:18.024Z</time></trkpt><trkpt lat="42.344345" lon="13.6405033"><ele>1244.6666666666667</ele><time>2026-04-04T13:32:19.024Z</time></trkpt><trkpt lat="42.3443767" lon="13.6405833"><ele>1242.8333333333335</ele><time>2026-04-04T13:32:20.024Z</time></trkpt><trkpt lat="42.344425" lon="13.640705"><ele>1241.0</ele><time>2026-04-04T13:32:22.024Z</time></trkpt><trkpt lat="42.344475" lon="13.64079"><ele>1241.0</ele><time>2026-04-04T13:32:24.024Z</time></trkpt><trkpt lat="42.34452" lon="13.64086"><ele>1241.0</ele><time>2026-04-04T13:32:26.024Z</time></trkpt><trkpt lat="42.3445633" lon="13.6409617"><ele>1241.0</ele><time>2026-04-04T13:32:28.024Z</time></trkpt><trkpt lat="42.3446017" lon="13.6410867"><ele>1241.0</ele><time>2026-04-04T13:32:30.024Z</time></trkpt><trkpt lat="42.34463" lon="13.64122"><ele>1241.0</ele><time>2026-04-04T13:32:32.024Z</time></trkpt><trkpt lat="42.3446567" lon="13.6413383"><ele>1241.0</ele><time>2026-04-04T13:32:34.024Z</time></trkpt><trkpt lat="42.3446717" lon="13.6414717"><ele>1241.6</ele><time>2026-04-04T13:32:36.024Z</time></trkpt><trkpt lat="42.3446783" lon="13.6415833"><ele>1242.1999999999998</ele><time>2026-04-04T13:32:38.024Z</time></trkpt><trkpt lat="42.3446817" lon="13.6416933"><ele>1242.8000000000002</ele><time>2026-04-04T13:32:40.024Z</time></trkpt><trkpt lat="42.3446733" lon="13.641815"><ele>1243.4</ele><time>2026-04-04T13:32:42.024Z</time></trkpt><trkpt lat="42.3446417" lon="13.6419617"><ele>1244.0</ele><time>2026-04-04T13:32:44.024Z</time></trkpt><trkpt lat="42.3445967" lon="13.64212"><ele>1245.4</ele><time>2026-04-04T13:32:46.024Z</time></trkpt><trkpt lat="42.3445717" lon="13.6422017"><ele>1246.8000000000002</ele><time>2026-04-04T13:32:47.024Z</time></trkpt><trkpt lat="42.3445717" lon="13.6423667"><ele>1248.1999999999998</ele><time>2026-04-04T13:32:49.024Z</time></trkpt><trkpt lat="42.3445683" lon="13.6425067"><ele>1249.6</ele><time>2026-04-04T13:32:51.024Z</time></trkpt><trkpt lat="42.344555" lon="13.64262"><ele>1251.0</ele><time>2026-04-04T13:32:53.024Z</time></trkpt><trkpt lat="42.3445267" lon="13.6427183"><ele>1251.0</ele><time>2026-04-04T13:32:55.024Z</time></trkpt><trkpt lat="42.3444683" lon="13.642815"><ele>1259.0</ele><time>2026-04-04T13:32:57.024Z</time></trkpt><trkpt lat="42.3444317" lon="13.6428933"><ele>1259.0</ele><time>2026-04-04T13:32:59.024Z</time></trkpt><trkpt lat="42.3444" lon="13.6429833"><ele>1259.0</ele><time>2026-04-04T13:33:02.023Z</time></trkpt><trkpt lat="42.3443683" lon="13.64306"><ele>1259.0</ele><time>2026-04-04T13:33:05.024Z</time></trkpt></trkseg><trkseg><trkpt lat="42.3443265" lon="13.6431007"><ele>1259.0</ele><time>2026-04-04T14:11:56.026Z</time></trkpt><trkpt lat="42.3443569" lon="13.6430111"><ele>1259.0</ele><time>2026-04-04T14:12:43.026Z</time></trkpt><trkpt lat="42.3443998" lon="13.6429065"><ele>1259.0</ele><time>2026-04-04T14:12:49.026Z</time></trkpt><trkpt lat="42.3444329" lon="13.6428096"><ele>1259.0</ele><time>2026-04-04T14:12:51.026Z</time></trkpt><trkpt lat="42.3444758" lon="13.6427289"><ele>1259.0</ele><time>2026-04-04T14:12:53.026Z</time></trkpt><trkpt lat="42.3445273" lon="13.6426237"><ele>1259.0</ele><time>2026-04-04T14:12:55.026Z</time></trkpt><trkpt lat="42.344555" lon="13.6424925"><ele>1257.4</ele><time>2026-04-04T14:12:57.026Z</time></trkpt><trkpt lat="42.3445696" lon="13.6423475"><ele>1255.8000000000002</ele><time>2026-04-04T14:12:59.026Z</time></trkpt><trkpt lat="42.3445852" lon="13.6422001"><ele>1254.1999999999998</ele><time>2026-04-04T14:13:01.026Z</time></trkpt><trkpt lat="42.344596" lon="13.6420567"><ele>1252.6</ele><time>2026-04-04T14:13:03.026Z</time></trkpt><trkpt lat="42.3446101" lon="13.6419424"><ele>1251.0</ele><time>2026-04-04T14:13:05.026Z</time></trkpt><trkpt lat="42.3446222" lon="13.6418362"><ele>1249.6</ele><time>2026-04-04T14:13:07.026Z</time></trkpt><trkpt lat="42.344633" lon="13.6416942"><ele>1248.1999999999998</ele><time>2026-04-04T14:13:09.026Z</time></trkpt><trkpt lat="42.3446254" lon="13.6415385"><ele>1246.8000000000002</ele><time>2026-04-04T14:13:11.026Z</time></trkpt><trkpt lat="42.344617" lon="13.6413959"><ele>1245.4</ele><time>2026-04-04T14:13:13.026Z</time></trkpt><trkpt lat="42.3446133" lon="13.6412525"><ele>1244.0</ele><time>2026-04-04T14:13:15.026Z</time></trkpt><trkpt lat="42.3445944" lon="13.6411129"><ele>1243.5</ele><time>2026-04-04T14:13:17.026Z</time></trkpt><trkpt lat="42.3445372" lon="13.6409942"><ele>1243.0</ele><time>2026-04-04T14:13:19.026Z</time></trkpt><trkpt lat="42.3444976" lon="13.6409092"><ele>1242.5</ele><time>2026-04-04T14:13:21.026Z</time></trkpt><trkpt lat="42.3444581" lon="13.6408216"><ele>1242.0</ele><time>2026-04-04T14:13:24.026Z</time></trkpt><trkpt lat="42.3445462" lon="13.6408276"><ele>1241.5</ele><time>2026-04-04T14:13:28.026Z</time></trkpt><trkpt lat="42.3446248" lon="13.6409154"><ele>1241.0</ele><time>2026-04-04T14:13:30.026Z</time></trkpt><trkpt lat="42.3447007" lon="13.6410441"><ele>1240.0</ele><time>2026-04-04T14:13:32.026Z</time></trkpt><trkpt lat="42.3447512" lon="13.6411902"><ele>1239.0</ele><time>2026-04-04T14:13:34.026Z</time></trkpt><trkpt lat="42.344768" lon="13.6413263"><ele>1238.0</ele><time>2026-04-04T14:13:36.026Z</time></trkpt><trkpt lat="42.3447886" lon="13.6414861"><ele>1237.0</ele><time>2026-04-04T14:13:38.026Z</time></trkpt><trkpt lat="42.3448013" lon="13.6415766"><ele>1236.0</ele><time>2026-04-04T14:13:39.026Z</time></trkpt><trkpt lat="42.3448088" lon="13.6416747"><ele>1236.0</ele><time>2026-04-04T14:13:40.026Z</time></trkpt><trkpt lat="42.344812" lon="13.6417782"><ele>1236.0</ele><time>2026-04-04T14:13:41.026Z</time></trkpt><trkpt lat="42.3448093" lon="13.6418824"><ele>1236.0</ele><time>2026-04-04T14:13:42.026Z</time></trkpt><trkpt lat="42.3448042" lon="13.6419896"><ele>1236.0</ele><time>2026-04-04T14:13:43.026Z</time></trkpt><trkpt lat="42.3448004" lon="13.6421073"><ele>1236.0</ele><time>2026-04-04T14:13:44.026Z</time></trkpt><trkpt lat="42.3448029" lon="13.6422305"><ele>1236.0</ele><time>2026-04-04T14:13:45.026Z</time></trkpt><trkpt lat="42.3448077" lon="13.6423556"><ele>1236.2</ele><time>2026-04-04T14:13:46.025Z</time></trkpt><trkpt lat="42.3448101" lon="13.6424773"><ele>1236.3999999999999</ele><time>2026-04-04T14:13:47.026Z</time></trkpt><trkpt lat="42.344811" lon="13.6426033"><ele>1236.6</ele><time>2026-04-04T14:13:48.026Z</time></trkpt><trkpt lat="42.3448154" lon="13.6427346"><ele>1236.8</ele><time>2026-04-04T14:13:49.026Z</time></trkpt><trkpt lat="42.3448246" lon="13.6428698"><ele>1237.0</ele><time>2026-04-04T14:13:50.026Z</time></trkpt><trkpt lat="42.3448347" lon="13.6430094"><ele>1236.6</ele><time>2026-04-04T14:13:51.026Z</time></trkpt><trkpt lat="42.3448369" lon="13.6431553"><ele>1236.2</ele><time>2026-04-04T14:13:52.026Z</time></trkpt><trkpt lat="42.3448323" lon="13.6432993"><ele>1235.8</ele><time>2026-04-04T14:13:53.026Z</time></trkpt><trkpt lat="42.3448315" lon="13.6434461"><ele>1235.4</ele><time>2026-04-04T14:13:54.026Z</time></trkpt><trkpt lat="42.3448254" lon="13.6435927"><ele>1235.0</ele><time>2026-04-04T14:13:55.026Z</time></trkpt><trkpt lat="42.3448085" lon="13.6437307"><ele>1233.8</ele><time>2026-04-04T14:13:56.026Z</time></trkpt><trkpt lat="42.3447915" lon="13.6438667"><ele>1232.6</ele><time>2026-04-04T14:13:57.026Z</time></trkpt><trkpt lat="42.344774" lon="13.6440031"><ele>1231.4</ele><time>2026-04-04T14:13:58.026Z</time></trkpt><trkpt lat="42.3447602" lon="13.6441444"><ele>1230.2</ele><time>2026-04-04T14:13:59.026Z</time></trkpt><trkpt lat="42.3447516" lon="13.6442865"><ele>1229.0</ele><time>2026-04-04T14:14:00.026Z</time></trkpt><trkpt lat="42.3447367" lon="13.6444284"><ele>1228.8</ele><time>2026-04-04T14:14:01.026Z</time></trkpt><trkpt lat="42.3447178" lon="13.6445718"><ele>1228.6000000000001</ele><time>2026-04-04T14:14:02.026Z</time></trkpt><trkpt lat="42.3446942" lon="13.6447165"><ele>1228.4</ele><time>2026-04-04T14:14:03.026Z</time></trkpt><trkpt lat="42.3446621" lon="13.6448685"><ele>1228.2</ele><time>2026-04-04T14:14:04.026Z</time></trkpt><trkpt lat="42.3446391" lon="13.6450181"><ele>1228.0</ele><time>2026-04-04T14:14:05.026Z</time></trkpt><trkpt lat="42.3446107" lon="13.6451602"><ele>1228.4</ele><time>2026-04-04T14:14:06.026Z</time></trkpt><trkpt lat="42.3445651" lon="13.6452991"><ele>1228.8</ele><time>2026-04-04T14:14:07.026Z</time></trkpt><trkpt lat="42.3445099" lon="13.645424"><ele>1229.2</ele><time>2026-04-04T14:14:08.026Z</time></trkpt><trkpt lat="42.3444465" lon="13.6455377"><ele>1229.6</ele><time>2026-04-04T14:14:09.026Z</time></trkpt><trkpt lat="42.3443791" lon="13.6456444"><ele>1230.0</ele><time>2026-04-04T14:14:10.026Z</time></trkpt><trkpt lat="42.344298" lon="13.6457447"><ele>1230.0</ele><time>2026-04-04T14:14:11.026Z</time></trkpt><trkpt lat="42.3442202" lon="13.6458469"><ele>1230.0</ele><time>2026-04-04T14:14:12.026Z</time></trkpt><trkpt lat="42.3441343" lon="13.6459507"><ele>1230.0</ele><time>2026-04-04T14:14:13.026Z</time></trkpt><trkpt lat="42.3440532" lon="13.6460501"><ele>1230.0</ele><time>2026-04-04T14:14:14.026Z</time></trkpt><trkpt lat="42.3439748" lon="13.6461534"><ele>1230.0</ele><time>2026-04-04T14:14:15.026Z</time></trkpt><trkpt lat="42.3438978" lon="13.6462516"><ele>1228.8</ele><time>2026-04-04T14:14:16.026Z</time></trkpt><trkpt lat="42.3438184" lon="13.6463474"><ele>1227.6</ele><time>2026-04-04T14:14:17.026Z</time></trkpt><trkpt lat="42.3437519" lon="13.646451"><ele>1226.4</ele><time>2026-04-04T14:14:18.026Z</time></trkpt><trkpt lat="42.3436799" lon="13.6465513"><ele>1225.2</ele><time>2026-04-04T14:14:19.026Z</time></trkpt><trkpt lat="42.3436077" lon="13.6466433"><ele>1224.0</ele><time>2026-04-04T14:14:20.026Z</time></trkpt><trkpt lat="42.3435348" lon="13.6467377"><ele>1224.0</ele><time>2026-04-04T14:14:21.026Z</time></trkpt><trkpt lat="42.3434592" lon="13.6468276"><ele>1224.0</ele><time>2026-04-04T14:14:22.026Z</time></trkpt><trkpt lat="42.3433841" lon="13.6469212"><ele>1224.0</ele><time>2026-04-04T14:14:23.026Z</time></trkpt><trkpt lat="42.3433116" lon="13.6470212"><ele>1224.0</ele><time>2026-04-04T14:14:24.026Z</time></trkpt><trkpt lat="42.3432357" lon="13.647119"><ele>1224.0</ele><time>2026-04-04T14:14:25.026Z</time></trkpt><trkpt lat="42.3431576" lon="13.6472146"><ele>1225.4</ele><time>2026-04-04T14:14:26.026Z</time></trkpt><trkpt lat="42.3430704" lon="13.6473133"><ele>1226.8000000000002</ele><time>2026-04-04T14:14:27.026Z</time></trkpt><trkpt lat="42.3429871" lon="13.6474103"><ele>1228.1999999999998</ele><time>2026-04-04T14:14:28.026Z</time></trkpt><trkpt lat="42.3429065" lon="13.6475071"><ele>1229.6</ele><time>2026-04-04T14:14:29.026Z</time></trkpt><trkpt lat="42.3428299" lon="13.647605"><ele>1231.0</ele><time>2026-04-04T14:14:30.026Z</time></trkpt><trkpt lat="42.342747" lon="13.6476983"><ele>1229.6</ele><time>2026-04-04T14:14:31.026Z</time></trkpt><trkpt lat="42.3426623" lon="13.6477972"><ele>1228.1999999999998</ele><time>2026-04-04T14:14:32.026Z</time></trkpt><trkpt lat="42.3425806" lon="13.6478892"><ele>1226.8000000000002</ele><time>2026-04-04T14:14:33.026Z</time></trkpt><trkpt lat="42.3424962" lon="13.6479737"><ele>1225.4</ele><time>2026-04-04T14:14:34.026Z</time></trkpt><trkpt lat="42.3424163" lon="13.6480698"><ele>1224.0</ele><time>2026-04-04T14:14:35.025Z</time></trkpt><trkpt lat="42.3423339" lon="13.6481606"><ele>1224.0</ele><time>2026-04-04T14:14:36.026Z</time></trkpt><trkpt lat="42.3422484" lon="13.6482619"><ele>1224.0</ele><time>2026-04-04T14:14:37.026Z</time></trkpt><trkpt lat="42.3421637" lon="13.6483641"><ele>1224.0</ele><time>2026-04-04T14:14:38.026Z</time></trkpt><trkpt lat="42.3420857" lon="13.648473"><ele>1224.0</ele><time>2026-04-04T14:14:39.026Z</time></trkpt><trkpt lat="42.3420226" lon="13.6485901"><ele>1224.0</ele><time>2026-04-04T14:14:40.026Z</time></trkpt><trkpt lat="42.3419659" lon="13.6487161"><ele>1222.4</ele><time>2026-04-04T14:14:41.026Z</time></trkpt><trkpt lat="42.3419107" lon="13.6488436"><ele>1220.8000000000002</ele><time>2026-04-04T14:14:42.026Z</time></trkpt><trkpt lat="42.3418589" lon="13.6489794"><ele>1219.1999999999998</ele><time>2026-04-04T14:14:43.026Z</time></trkpt><trkpt lat="42.3418052" lon="13.6491153"><ele>1217.6</ele><time>2026-04-04T14:14:44.026Z</time></trkpt><trkpt lat="42.3417506" lon="13.6492413"><ele>1216.0</ele><time>2026-04-04T14:14:45.026Z</time></trkpt><trkpt lat="42.3416957" lon="13.6493561"><ele>1216.0</ele><time>2026-04-04T14:14:46.026Z</time></trkpt><trkpt lat="42.3416438" lon="13.6494585"><ele>1216.0</ele><time>2026-04-04T14:14:47.026Z</time></trkpt><trkpt lat="42.3415954" lon="13.6495645"><ele>1216.0</ele><time>2026-04-04T14:14:48.026Z</time></trkpt><trkpt lat="42.3415485" lon="13.6496691"><ele>1216.0</ele><time>2026-04-04T14:14:49.026Z</time></trkpt><trkpt lat="42.3415006" lon="13.6497773"><ele>1216.0</ele><time>2026-04-04T14:14:50.026Z</time></trkpt><trkpt lat="42.3414533" lon="13.6498881"><ele>1217.8</ele><time>2026-04-04T14:14:51.026Z</time></trkpt><trkpt lat="42.3414051" lon="13.6500047"><ele>1219.6</ele><time>2026-04-04T14:14:52.026Z</time></trkpt><trkpt lat="42.3413521" lon="13.6501181"><ele>1221.4</ele><time>2026-04-04T14:14:53.026Z</time></trkpt><trkpt lat="42.3412933" lon="13.6502383"><ele>1223.2</ele><time>2026-04-04T14:14:54.026Z</time></trkpt><trkpt lat="42.341235" lon="13.65036"><ele>1225.0</ele><time>2026-04-04T14:14:55.026Z</time></trkpt><trkpt lat="42.3411867" lon="13.6504867"><ele>1220.0</ele><time>2026-04-04T14:14:56.026Z</time></trkpt><trkpt lat="42.341135" lon="13.6506183"><ele>1215.0</ele><time>2026-04-04T14:14:57.026Z</time></trkpt><trkpt lat="42.3410817" lon="13.6507533"><ele>1210.0</ele><time>2026-04-04T14:14:58.026Z</time></trkpt><trkpt lat="42.34103" lon="13.650885"><ele>1205.0</ele><time>2026-04-04T14:14:59.025Z</time></trkpt><trkpt lat="42.3409867" lon="13.6510333"><ele>1207.25</ele><time>2026-04-04T14:15:00.025Z</time></trkpt><trkpt lat="42.340945" lon="13.6511867"><ele>1209.5</ele><time>2026-04-04T14:15:01.025Z</time></trkpt><trkpt lat="42.3409033" lon="13.6513517"><ele>1211.75</ele><time>2026-04-04T14:15:02.025Z</time></trkpt><trkpt lat="42.3408633" lon="13.65152"><ele>1214.0</ele><time>2026-04-04T14:15:03.025Z</time></trkpt><trkpt lat="42.34083" lon="13.6516883"><ele>1214.0</ele><time>2026-04-04T14:15:04.025Z</time></trkpt><trkpt lat="42.3408017" lon="13.6518583"><ele>1214.0</ele><time>2026-04-04T14:15:05.025Z</time></trkpt><trkpt lat="42.3407683" lon="13.6520333"><ele>1214.0</ele><time>2026-04-04T14:15:06.025Z</time></trkpt><trkpt lat="42.340735" lon="13.6522117"><ele>1214.0</ele><time>2026-04-04T14:15:07.025Z</time></trkpt><trkpt lat="42.3407" lon="13.6523883"><ele>1215.75</ele><time>2026-04-04T14:15:08.025Z</time></trkpt><trkpt lat="42.3406583" lon="13.6525517"><ele>1217.5</ele><time>2026-04-04T14:15:09.025Z</time></trkpt><trkpt lat="42.34061" lon="13.6527133"><ele>1219.25</ele><time>2026-04-04T14:15:10.025Z</time></trkpt><trkpt lat="42.3405667" lon="13.6528683"><ele>1221.0</ele><time>2026-04-04T14:15:11.025Z</time></trkpt><trkpt lat="42.3405233" lon="13.6530267"><ele>1216.25</ele><time>2026-04-04T14:15:12.025Z</time></trkpt><trkpt lat="42.34048" lon="13.6531883"><ele>1211.5</ele><time>2026-04-04T14:15:13.025Z</time></trkpt><trkpt lat="42.3404367" lon="13.653345"><ele>1206.75</ele><time>2026-04-04T14:15:14.025Z</time></trkpt><trkpt lat="42.3404" lon="13.65351"><ele>1202.0</ele><time>2026-04-04T14:15:15.025Z</time></trkpt><trkpt lat="42.3403617" lon="13.6536767"><ele>1202.0</ele><time>2026-04-04T14:15:16.025Z</time></trkpt><trkpt lat="42.3403167" lon="13.653845"><ele>1202.0</ele><time>2026-04-04T14:15:17.025Z</time></trkpt><trkpt lat="42.34027" lon="13.6540067"><ele>1202.0</ele><time>2026-04-04T14:15:18.025Z</time></trkpt><trkpt lat="42.3402217" lon="13.65417"><ele>1202.0</ele><time>2026-04-04T14:15:19.025Z</time></trkpt><trkpt lat="42.3401667" lon="13.65434"><ele>1204.5</ele><time>2026-04-04T14:15:20.025Z</time></trkpt><trkpt lat="42.3401117" lon="13.6545017"><ele>1207.0</ele><time>2026-04-04T14:15:21.025Z</time></trkpt><trkpt lat="42.3400567" lon="13.6546633"><ele>1209.5</ele><time>2026-04-04T14:15:22.025Z</time></trkpt><trkpt lat="42.34" lon="13.6548283"><ele>1212.0</ele><time>2026-04-04T14:15:23.025Z</time></trkpt><trkpt lat="42.33994" lon="13.6549933"><ele>1212.0</ele><time>2026-04-04T14:15:24.025Z</time></trkpt><trkpt lat="42.3398817" lon="13.655165"><ele>1212.0</ele><time>2026-04-04T14:15:25.025Z</time></trkpt><trkpt lat="42.3398267" lon="13.65534"><ele>1212.0</ele><time>2026-04-04T14:15:26.025Z</time></trkpt><trkpt lat="42.3397783" lon="13.6555233"><ele>1212.0</ele><time>2026-04-04T14:15:27.025Z</time></trkpt><trkpt lat="42.3397317" lon="13.655705"><ele>1208.75</ele><time>2026-04-04T14:15:28.025Z</time></trkpt><trkpt lat="42.33968" lon="13.6558833"><ele>1205.5</ele><time>2026-04-04T14:15:29.025Z</time></trkpt><trkpt lat="42.33963" lon="13.6560617"><ele>1202.25</ele><time>2026-04-04T14:15:30.025Z</time></trkpt><trkpt lat="42.3395867" lon="13.6562433"><ele>1199.0</ele><time>2026-04-04T14:15:31.025Z</time></trkpt><trkpt lat="42.3395417" lon="13.6564233"><ele>1199.0</ele><time>2026-04-04T14:15:32.025Z</time></trkpt><trkpt lat="42.3394967" lon="13.6565967"><ele>1199.0</ele><time>2026-04-04T14:15:33.025Z</time></trkpt><trkpt lat="42.33946" lon="13.65676"><ele>1199.0</ele><time>2026-04-04T14:15:34.025Z</time></trkpt><trkpt lat="42.339425" lon="13.6569083"><ele>1199.0</ele><time>2026-04-04T14:15:35.025Z</time></trkpt><trkpt lat="42.3393783" lon="13.6570567"><ele>1201.0</ele><time>2026-04-04T14:15:36.025Z</time></trkpt><trkpt lat="42.3393217" lon="13.65719"><ele>1203.0</ele><time>2026-04-04T14:15:37.025Z</time></trkpt><trkpt lat="42.3392267" lon="13.6572967"><ele>1205.0</ele><time>2026-04-04T14:15:38.025Z</time></trkpt><trkpt lat="42.3391133" lon="13.65736"><ele>1207.0</ele><time>2026-04-04T14:15:39.025Z</time></trkpt><trkpt lat="42.338985" lon="13.6573667"><ele>1207.25</ele><time>2026-04-04T14:15:40.025Z</time></trkpt><trkpt lat="42.33885" lon="13.65735"><ele>1207.5</ele><time>2026-04-04T14:15:41.025Z</time></trkpt><trkpt lat="42.33872" lon="13.6573267"><ele>1207.75</ele><time>2026-04-04T14:15:42.025Z</time></trkpt><trkpt lat="42.338595" lon="13.657295"><ele>1208.0</ele><time>2026-04-04T14:15:43.025Z</time></trkpt><trkpt lat="42.3384833" lon="13.6572617"><ele>1208.0</ele><time>2026-04-04T14:15:44.025Z</time></trkpt><trkpt lat="42.3383883" lon="13.657225"><ele>1208.0</ele><time>2026-04-04T14:15:45.025Z</time></trkpt><trkpt lat="42.3383083" lon="13.657195"><ele>1208.0</ele><time>2026-04-04T14:15:46.025Z</time></trkpt><trkpt lat="42.3382183" lon="13.6571683"><ele>1208.0</ele><time>2026-04-04T14:15:48.025Z</time></trkpt><trkpt lat="42.3381367" lon="13.6571583"><ele>1208.0</ele><time>2026-04-04T14:17:27.025Z</time></trkpt><trkpt lat="42.33801" lon="13.6571567"><ele>1205.3333333333335</ele><time>2026-04-04T14:17:29.025Z</time></trkpt><trkpt lat="42.3379417" lon="13.657165"><ele>1202.6666666666667</ele><time>2026-04-04T14:17:30.025Z</time></trkpt><trkpt lat="42.3378283" lon="13.65723"><ele>1200.0</ele><time>2026-04-04T14:17:32.025Z</time></trkpt><trkpt lat="42.3377767" lon="13.6572983"><ele>1197.3333333333333</ele><time>2026-04-04T14:17:33.024Z</time></trkpt><trkpt lat="42.3377267" lon="13.6573717"><ele>1194.6666666666665</ele><time>2026-04-04T14:17:34.025Z</time></trkpt><trkpt lat="42.337685" lon="13.657455"><ele>1192.0</ele><time>2026-04-04T14:17:35.025Z</time></trkpt><trkpt lat="42.337655" lon="13.6575433"><ele>1192.0</ele><time>2026-04-04T14:17:36.025Z</time></trkpt><trkpt lat="42.3376383" lon="13.6576467"><ele>1192.0</ele><time>2026-04-04T14:17:37.025Z</time></trkpt><trkpt lat="42.337625" lon="13.65776"><ele>1192.0</ele><time>2026-04-04T14:17:38.025Z</time></trkpt><trkpt lat="42.3376067" lon="13.65788"><ele>1192.0</ele><time>2026-04-04T14:17:39.025Z</time></trkpt><trkpt lat="42.3375833" lon="13.6580083"><ele>1192.0</ele><time>2026-04-04T14:17:40.025Z</time></trkpt><trkpt lat="42.3375617" lon="13.658135"><ele>1192.0</ele><time>2026-04-04T14:17:41.025Z</time></trkpt><trkpt lat="42.337535" lon="13.6582733"><ele>1193.0</ele><time>2026-04-04T14:17:42.025Z</time></trkpt><trkpt lat="42.337505" lon="13.6584133"><ele>1194.0</ele><time>2026-04-04T14:17:43.025Z</time></trkpt><trkpt lat="42.33748" lon="13.65855"><ele>1195.0</ele><time>2026-04-04T14:17:44.025Z</time></trkpt><trkpt lat="42.3374567" lon="13.658685"><ele>1196.0</ele><time>2026-04-04T14:17:45.025Z</time></trkpt><trkpt lat="42.3374317" lon="13.6588283"><ele>1197.0</ele><time>2026-04-04T14:17:46.025Z</time></trkpt><trkpt lat="42.33741" lon="13.6589733"><ele>1198.5</ele><time>2026-04-04T14:17:47.025Z</time></trkpt><trkpt lat="42.3373867" lon="13.6591233"><ele>1200.0</ele><time>2026-04-04T14:17:48.025Z</time></trkpt><trkpt lat="42.3373583" lon="13.659275"><ele>1201.5</ele><time>2026-04-04T14:17:49.025Z</time></trkpt><trkpt lat="42.33732" lon="13.6594233"><ele>1203.0</ele><time>2026-04-04T14:17:50.025Z</time></trkpt><trkpt lat="42.3372683" lon="13.6595767"><ele>1197.5</ele><time>2026-04-04T14:17:51.025Z</time></trkpt><trkpt lat="42.3372133" lon="13.6597333"><ele>1192.0</ele><time>2026-04-04T14:17:52.025Z</time></trkpt><trkpt lat="42.33715" lon="13.6598867"><ele>1186.5</ele><time>2026-04-04T14:17:53.025Z</time></trkpt><trkpt lat="42.337085" lon="13.6600433"><ele>1181.0</ele><time>2026-04-04T14:17:54.025Z</time></trkpt><trkpt lat="42.3370267" lon="13.6601967"><ele>1184.75</ele><time>2026-04-04T14:17:55.025Z</time></trkpt><trkpt lat="42.3369633" lon="13.660345"><ele>1188.5</ele><time>2026-04-04T14:17:56.025Z</time></trkpt><trkpt lat="42.3368933" lon="13.6604817"><ele>1192.25</ele><time>2026-04-04T14:17:57.025Z</time></trkpt><trkpt lat="42.3368267" lon="13.6606117"><ele>1196.0</ele><time>2026-04-04T14:17:58.025Z</time></trkpt><trkpt lat="42.3367567" lon="13.66074"><ele>1196.0</ele><time>2026-04-04T14:17:59.025Z</time></trkpt><trkpt lat="42.3366817" lon="13.66087"><ele>1196.0</ele><time>2026-04-04T14:18:00.024Z</time></trkpt><trkpt lat="42.3366017" lon="13.6610017"><ele>1196.0</ele><time>2026-04-04T14:18:01.025Z</time></trkpt><trkpt lat="42.33652" lon="13.6611267"><ele>1196.0</ele><time>2026-04-04T14:18:02.025Z</time></trkpt><trkpt lat="42.3364333" lon="13.6612517"><ele>1192.5</ele><time>2026-04-04T14:18:03.025Z</time></trkpt><trkpt lat="42.3363417" lon="13.6613667"><ele>1189.0</ele><time>2026-04-04T14:18:04.025Z</time></trkpt><trkpt lat="42.3362433" lon="13.66149"><ele>1185.5</ele><time>2026-04-04T14:18:05.025Z</time></trkpt><trkpt lat="42.33615" lon="13.66162"><ele>1182.0</ele><time>2026-04-04T14:18:06.025Z</time></trkpt><trkpt lat="42.3360617" lon="13.6617583"><ele>1182.0</ele><time>2026-04-04T14:18:07.025Z</time></trkpt><trkpt lat="42.3359817" lon="13.6619117"><ele>1182.0</ele><time>2026-04-04T14:18:08.025Z</time></trkpt><trkpt lat="42.3359033" lon="13.6620783"><ele>1182.0</ele><time>2026-04-04T14:18:09.025Z</time></trkpt><trkpt lat="42.3358283" lon="13.6622417"><ele>1182.0</ele><time>2026-04-04T14:18:10.024Z</time></trkpt><trkpt lat="42.3357517" lon="13.6624017"><ele>1182.25</ele><time>2026-04-04T14:18:11.024Z</time></trkpt><trkpt lat="42.3356633" lon="13.6625567"><ele>1182.5</ele><time>2026-04-04T14:18:12.025Z</time></trkpt><trkpt lat="42.3355683" lon="13.6627083"><ele>1182.75</ele><time>2026-04-04T14:18:13.025Z</time></trkpt><trkpt lat="42.33547" lon="13.66287"><ele>1183.0</ele><time>2026-04-04T14:18:14.025Z</time></trkpt><trkpt lat="42.3353767" lon="13.6630233"><ele>1183.0</ele><time>2026-04-04T14:18:15.025Z</time></trkpt><trkpt lat="42.3352833" lon="13.6631817"><ele>1183.0</ele><time>2026-04-04T14:18:16.025Z</time></trkpt><trkpt lat="42.3351817" lon="13.6633383"><ele>1183.0</ele><time>2026-04-04T14:18:17.025Z</time></trkpt><trkpt lat="42.3350733" lon="13.6635"><ele>1191.0</ele><time>2026-04-04T14:18:18.025Z</time></trkpt><trkpt lat="42.334965" lon="13.6636517"><ele>1199.0</ele><time>2026-04-04T14:18:19.024Z</time></trkpt><trkpt lat="42.3348533" lon="13.6638083"><ele>1207.0</ele><time>2026-04-04T14:18:20.025Z</time></trkpt><trkpt lat="42.3347417" lon="13.6639583"><ele>1196.3333333333333</ele><time>2026-04-04T14:18:21.025Z</time></trkpt><trkpt lat="42.3346267" lon="13.6641117"><ele>1185.6666666666667</ele><time>2026-04-04T14:18:22.025Z</time></trkpt><trkpt lat="42.334515" lon="13.6642567"><ele>1175.0</ele><time>2026-04-04T14:18:23.025Z</time></trkpt><trkpt lat="42.3344067" lon="13.6644"><ele>1180.25</ele><time>2026-04-04T14:18:24.025Z</time></trkpt><trkpt lat="42.3343067" lon="13.664535"><ele>1185.5</ele><time>2026-04-04T14:18:25.025Z</time></trkpt><trkpt lat="42.334215" lon="13.6646667"><ele>1190.75</ele><time>2026-04-04T14:18:26.025Z</time></trkpt><trkpt lat="42.3341267" lon="13.66479"><ele>1196.0</ele><time>2026-04-04T14:18:27.025Z</time></trkpt><trkpt lat="42.33404" lon="13.6649117"><ele>1196.0</ele><time>2026-04-04T14:18:28.025Z</time></trkpt><trkpt lat="42.3339517" lon="13.66503"><ele>1196.0</ele><time>2026-04-04T14:18:29.025Z</time></trkpt><trkpt lat="42.3338583" lon="13.6651383"><ele>1196.0</ele><time>2026-04-04T14:18:30.025Z</time></trkpt><trkpt lat="42.333755" lon="13.66525"><ele>1196.0</ele><time>2026-04-04T14:18:31.025Z</time></trkpt><trkpt lat="42.3336533" lon="13.665355"><ele>1195.25</ele><time>2026-04-04T14:18:32.025Z</time></trkpt><trkpt lat="42.3335517" lon="13.6654667"><ele>1194.5</ele><time>2026-04-04T14:18:33.025Z</time></trkpt><trkpt lat="42.3334483" lon="13.6655883"><ele>1193.75</ele><time>2026-04-04T14:18:34.025Z</time></trkpt><trkpt lat="42.333345" lon="13.665705"><ele>1193.0</ele><time>2026-04-04T14:18:35.025Z</time></trkpt><trkpt lat="42.33324" lon="13.6658267"><ele>1193.0</ele><time>2026-04-04T14:18:36.025Z</time></trkpt><trkpt lat="42.33314" lon="13.6659483"><ele>1193.0</ele><time>2026-04-04T14:18:37.025Z</time></trkpt><trkpt lat="42.3330333" lon="13.6660717"><ele>1193.0</ele><time>2026-04-04T14:18:38.025Z</time></trkpt><trkpt lat="42.332925" lon="13.6661933"><ele>1193.0</ele><time>2026-04-04T14:18:39.025Z</time></trkpt><trkpt lat="42.3328083" lon="13.66632"><ele>1192.25</ele><time>2026-04-04T14:18:40.025Z</time></trkpt><trkpt lat="42.3327" lon="13.666445"><ele>1191.5</ele><time>2026-04-04T14:18:41.025Z</time></trkpt><trkpt lat="42.33258" lon="13.6665717"><ele>1190.75</ele><time>2026-04-04T14:18:42.025Z</time></trkpt><trkpt lat="42.3324533" lon="13.6666917"><ele>1190.0</ele><time>2026-04-04T14:18:43.025Z</time></trkpt><trkpt lat="42.3323283" lon="13.6667967"><ele>1189.3333333333335</ele><time>2026-04-04T14:18:44.025Z</time></trkpt><trkpt lat="42.3321983" lon="13.6669"><ele>1188.6666666666667</ele><time>2026-04-04T14:18:45.025Z</time></trkpt><trkpt lat="42.33207" lon="13.6669983"><ele>1188.0</ele><time>2026-04-04T14:18:46.024Z</time></trkpt><trkpt lat="42.331935" lon="13.6670983"><ele>1188.0</ele><time>2026-04-04T14:18:47.025Z</time></trkpt><trkpt lat="42.331805" lon="13.6672017"><ele>1188.0</ele><time>2026-04-04T14:18:48.025Z</time></trkpt><trkpt lat="42.33167" lon="13.6673017"><ele>1188.0</ele><time>2026-04-04T14:18:49.025Z</time></trkpt><trkpt lat="42.3315317" lon="13.667405"><ele>1188.0</ele><time>2026-04-04T14:18:50.024Z</time></trkpt><trkpt lat="42.3313983" lon="13.6675017"><ele>1188.0</ele><time>2026-04-04T14:18:51.025Z</time></trkpt><trkpt lat="42.3312667" lon="13.667605"><ele>1188.0</ele><time>2026-04-04T14:18:52.025Z</time></trkpt><trkpt lat="42.3311383" lon="13.6677133"><ele>1190.3333333333333</ele><time>2026-04-04T14:18:53.025Z</time></trkpt><trkpt lat="42.3310117" lon="13.6678283"><ele>1192.6666666666665</ele><time>2026-04-04T14:18:54.025Z</time></trkpt><trkpt lat="42.330885" lon="13.6679467"><ele>1195.0</ele><time>2026-04-04T14:18:55.025Z</time></trkpt><trkpt lat="42.3307583" lon="13.6680733"><ele>1195.0</ele><time>2026-04-04T14:18:56.025Z</time></trkpt><trkpt lat="42.3306367" lon="13.6681933"><ele>1195.0</ele><time>2026-04-04T14:18:57.025Z</time></trkpt><trkpt lat="42.3305133" lon="13.66833"><ele>1195.0</ele><time>2026-04-04T14:18:58.025Z</time></trkpt><trkpt lat="42.3304017" lon="13.66848"><ele>1191.5</ele><time>2026-04-04T14:18:59.025Z</time></trkpt><trkpt lat="42.3303083" lon="13.66864"><ele>1188.0</ele><time>2026-04-04T14:19:00.025Z</time></trkpt><trkpt lat="42.3302267" lon="13.66881"><ele>1184.5</ele><time>2026-04-04T14:19:01.024Z</time></trkpt><trkpt lat="42.33015" lon="13.6689783"><ele>1181.0</ele><time>2026-04-04T14:19:02.025Z</time></trkpt><trkpt lat="42.3300867" lon="13.6691533"><ele>1181.0</ele><time>2026-04-04T14:19:03.025Z</time></trkpt><trkpt lat="42.33004" lon="13.6693183"><ele>1181.0</ele><time>2026-04-04T14:19:04.025Z</time></trkpt><trkpt lat="42.3299867" lon="13.6694467"><ele>1181.0</ele><time>2026-04-04T14:19:05.025Z</time></trkpt><trkpt lat="42.3298983" lon="13.6695483"><ele>1181.0</ele><time>2026-04-04T14:19:06.025Z</time></trkpt><trkpt lat="42.329785" lon="13.6696167"><ele>1180.5</ele><time>2026-04-04T14:19:07.025Z</time></trkpt><trkpt lat="42.32966" lon="13.6696617"><ele>1180.0</ele><time>2026-04-04T14:19:08.025Z</time></trkpt><trkpt lat="42.3295217" lon="13.669715"><ele>1179.5</ele><time>2026-04-04T14:19:09.024Z</time></trkpt><trkpt lat="42.3294017" lon="13.6698017"><ele>1179.0</ele><time>2026-04-04T14:19:10.025Z</time></trkpt><trkpt lat="42.329285" lon="13.66992"><ele>1179.0</ele><time>2026-04-04T14:19:11.024Z</time></trkpt><trkpt lat="42.3291833" lon="13.6700633"><ele>1179.0</ele><time>2026-04-04T14:19:12.025Z</time></trkpt><trkpt lat="42.32908" lon="13.6702067"><ele>1179.0</ele><time>2026-04-04T14:19:13.025Z</time></trkpt><trkpt lat="42.3289717" lon="13.6703283"><ele>1179.0</ele><time>2026-04-04T14:19:14.025Z</time></trkpt><trkpt lat="42.3288633" lon="13.6704367"><ele>1179.0</ele><time>2026-04-04T14:19:15.025Z</time></trkpt><trkpt lat="42.3287367" lon="13.6705333"><ele>1179.0</ele><time>2026-04-04T14:19:16.025Z</time></trkpt><trkpt lat="42.328605" lon="13.6706233"><ele>1179.0</ele><time>2026-04-04T14:19:17.025Z</time></trkpt><trkpt lat="42.3284817" lon="13.67073"><ele>1179.0</ele><time>2026-04-04T14:19:18.025Z</time></trkpt><trkpt lat="42.3283567" lon="13.6708583"><ele>1179.0</ele><time>2026-04-04T14:19:19.025Z</time></trkpt><trkpt lat="42.3282383" lon="13.6709967"><ele>1179.0</ele><time>2026-04-04T14:19:20.025Z</time></trkpt><trkpt lat="42.3281433" lon="13.6711517"><ele>1179.0</ele><time>2026-04-04T14:19:21.025Z</time></trkpt><trkpt lat="42.3280617" lon="13.6713217"><ele>1173.0</ele><time>2026-04-04T14:19:22.025Z</time></trkpt><trkpt lat="42.3279817" lon="13.6714983"><ele>1167.0</ele><time>2026-04-04T14:19:23.025Z</time></trkpt><trkpt lat="42.3279017" lon="13.67168"><ele>1161.0</ele><time>2026-04-04T14:19:24.025Z</time></trkpt><trkpt lat="42.3278233" lon="13.67186"><ele>1163.0</ele><time>2026-04-04T14:19:25.025Z</time></trkpt><trkpt lat="42.32775" lon="13.672035"><ele>1165.0</ele><time>2026-04-04T14:19:26.025Z</time></trkpt><trkpt lat="42.32768" lon="13.6722117"><ele>1167.0</ele><time>2026-04-04T14:19:27.025Z</time></trkpt><trkpt lat="42.3276283" lon="13.6723983"><ele>1169.0</ele><time>2026-04-04T14:19:28.025Z</time></trkpt><trkpt lat="42.3275783" lon="13.6726083"><ele>1173.0</ele><time>2026-04-04T14:19:29.025Z</time></trkpt><trkpt lat="42.327535" lon="13.6728133"><ele>1177.0</ele><time>2026-04-04T14:19:30.025Z</time></trkpt><trkpt lat="42.3274883" lon="13.67301"><ele>1181.0</ele><time>2026-04-04T14:19:31.025Z</time></trkpt><trkpt lat="42.3274383" lon="13.6732033"><ele>1181.0</ele><time>2026-04-04T14:19:32.025Z</time></trkpt><trkpt lat="42.3273883" lon="13.6733983"><ele>1181.0</ele><time>2026-04-04T14:19:33.025Z</time></trkpt><trkpt lat="42.3273417" lon="13.6735833"><ele>1181.0</ele><time>2026-04-04T14:19:34.025Z</time></trkpt><trkpt lat="42.3272933" lon="13.67376"><ele>1181.0</ele><time>2026-04-04T14:19:35.025Z</time></trkpt><trkpt lat="42.3272433" lon="13.67394"><ele>1173.5</ele><time>2026-04-04T14:19:36.024Z</time></trkpt><trkpt lat="42.3272083" lon="13.6741283"><ele>1166.0</ele><time>2026-04-04T14:19:37.025Z</time></trkpt><trkpt lat="42.3271933" lon="13.6743317"><ele>1158.5</ele><time>2026-04-04T14:19:38.025Z</time></trkpt><trkpt lat="42.3271917" lon="13.6745317"><ele>1151.0</ele><time>2026-04-04T14:19:39.025Z</time></trkpt><trkpt lat="42.3272" lon="13.67473"><ele>1150.6666666666667</ele><time>2026-04-04T14:19:40.025Z</time></trkpt><trkpt lat="42.3272217" lon="13.6749333"><ele>1150.3333333333333</ele><time>2026-04-04T14:19:41.025Z</time></trkpt><trkpt lat="42.3272483" lon="13.6751333"><ele>1150.0</ele><time>2026-04-04T14:19:42.025Z</time></trkpt><trkpt lat="42.3272917" lon="13.6753333"><ele>1160.0</ele><time>2026-04-04T14:19:43.025Z</time></trkpt><trkpt lat="42.327325" lon="13.6755367"><ele>1170.0</ele><time>2026-04-04T14:19:44.025Z</time></trkpt><trkpt lat="42.3273617" lon="13.6757317"><ele>1180.0</ele><time>2026-04-04T14:19:45.025Z</time></trkpt><trkpt lat="42.3273733" lon="13.67593"><ele>1179.75</ele><time>2026-04-04T14:19:46.025Z</time></trkpt><trkpt lat="42.3273817" lon="13.6761333"><ele>1179.5</ele><time>2026-04-04T14:19:47.025Z</time></trkpt><trkpt lat="42.327365" lon="13.6763317"><ele>1179.25</ele><time>2026-04-04T14:19:48.025Z</time></trkpt><trkpt lat="42.3273417" lon="13.6765283"><ele>1179.0</ele><time>2026-04-04T14:19:49.025Z</time></trkpt><trkpt lat="42.32733" lon="13.6767283"><ele>1178.3333333333333</ele><time>2026-04-04T14:19:50.025Z</time></trkpt><trkpt lat="42.3273333" lon="13.67694"><ele>1177.6666666666665</ele><time>2026-04-04T14:19:51.025Z</time></trkpt><trkpt lat="42.3273467" lon="13.6771583"><ele>1177.0</ele><time>2026-04-04T14:19:52.025Z</time></trkpt><trkpt lat="42.32736" lon="13.677375"><ele>1177.0</ele><time>2026-04-04T14:19:53.025Z</time></trkpt><trkpt lat="42.3273617" lon="13.677595"><ele>1177.0</ele><time>2026-04-04T14:19:54.025Z</time></trkpt><trkpt lat="42.32734" lon="13.6778067"><ele>1177.0</ele><time>2026-04-04T14:19:55.025Z</time></trkpt><trkpt lat="42.327325" lon="13.6780167"><ele>1177.0</ele><time>2026-04-04T14:19:56.025Z</time></trkpt><trkpt lat="42.3273167" lon="13.6782233"><ele>1177.0</ele><time>2026-04-04T14:19:57.025Z</time></trkpt><trkpt lat="42.3273083" lon="13.6784283"><ele>1177.0</ele><time>2026-04-04T14:19:58.025Z</time></trkpt><trkpt lat="42.3272967" lon="13.6786317"><ele>1178.25</ele><time>2026-04-04T14:19:59.025Z</time></trkpt><trkpt lat="42.3272833" lon="13.67883"><ele>1179.5</ele><time>2026-04-04T14:20:00.025Z</time></trkpt><trkpt lat="42.3272567" lon="13.67903"><ele>1180.75</ele><time>2026-04-04T14:20:01.025Z</time></trkpt><trkpt lat="42.3272233" lon="13.6792083"><ele>1182.0</ele><time>2026-04-04T14:20:02.025Z</time></trkpt><trkpt lat="42.327175" lon="13.6793717"><ele>1175.0</ele><time>2026-04-04T14:20:03.025Z</time></trkpt><trkpt lat="42.3271083" lon="13.6795117"><ele>1168.0</ele><time>2026-04-04T14:20:04.025Z</time></trkpt><trkpt lat="42.32702" lon="13.6796567"><ele>1161.0</ele><time>2026-04-04T14:20:05.025Z</time></trkpt><trkpt lat="42.32693" lon="13.6797967"><ele>1154.0</ele><time>2026-04-04T14:20:06.025Z</time></trkpt><trkpt lat="42.326845" lon="13.67995"><ele>1154.0</ele><time>2026-04-04T14:20:07.025Z</time></trkpt><trkpt lat="42.3267633" lon="13.680115"><ele>1154.0</ele><time>2026-04-04T14:20:08.025Z</time></trkpt><trkpt lat="42.32669" lon="13.6802767"><ele>1154.0</ele><time>2026-04-04T14:20:09.025Z</time></trkpt><trkpt lat="42.32663" lon="13.6804467"><ele>1154.0</ele><time>2026-04-04T14:20:10.025Z</time></trkpt><trkpt lat="42.3265817" lon="13.6806417"><ele>1158.6666666666667</ele><time>2026-04-04T14:20:11.025Z</time></trkpt><trkpt lat="42.3265467" lon="13.68085"><ele>1163.3333333333333</ele><time>2026-04-04T14:20:12.025Z</time></trkpt><trkpt lat="42.3265133" lon="13.6810517"><ele>1168.0</ele><time>2026-04-04T14:20:13.024Z</time></trkpt><trkpt lat="42.326475" lon="13.681255"><ele>1172.0</ele><time>2026-04-04T14:20:14.025Z</time></trkpt><trkpt lat="42.3264367" lon="13.6814567"><ele>1176.0</ele><time>2026-04-04T14:20:15.025Z</time></trkpt><trkpt lat="42.3264033" lon="13.6816533"><ele>1180.0</ele><time>2026-04-04T14:20:16.025Z</time></trkpt><trkpt lat="42.3263683" lon="13.6818533"><ele>1166.0</ele><time>2026-04-04T14:20:17.025Z</time></trkpt><trkpt lat="42.3263383" lon="13.6820517"><ele>1152.0</ele><time>2026-04-04T14:20:18.025Z</time></trkpt><trkpt lat="42.326305" lon="13.6822533"><ele>1138.0</ele><time>2026-04-04T14:20:19.025Z</time></trkpt><trkpt lat="42.3262767" lon="13.682455"><ele>1138.0</ele><time>2026-04-04T14:20:20.025Z</time></trkpt><trkpt lat="42.32624" lon="13.6826667"><ele>1138.0</ele><time>2026-04-04T14:20:21.025Z</time></trkpt><trkpt lat="42.3262017" lon="13.6828717"><ele>1138.0</ele><time>2026-04-04T14:20:22.025Z</time></trkpt><trkpt lat="42.3261617" lon="13.6830683"><ele>1139.75</ele><time>2026-04-04T14:20:23.025Z</time></trkpt><trkpt lat="42.3261317" lon="13.6832583"><ele>1141.5</ele><time>2026-04-04T14:20:24.025Z</time></trkpt><trkpt lat="42.326105" lon="13.6834483"><ele>1143.25</ele><time>2026-04-04T14:20:25.025Z</time></trkpt><trkpt lat="42.326075" lon="13.6836417"><ele>1145.0</ele><time>2026-04-04T14:20:26.025Z</time></trkpt><trkpt lat="42.326045" lon="13.6838367"><ele>1147.75</ele><time>2026-04-04T14:20:27.024Z</time></trkpt><trkpt lat="42.3260233" lon="13.6840317"><ele>1150.5</ele><time>2026-04-04T14:20:28.025Z</time></trkpt><trkpt lat="42.325995" lon="13.68423"><ele>1153.25</ele><time>2026-04-04T14:20:29.025Z</time></trkpt><trkpt lat="42.3259583" lon="13.6844233"><ele>1156.0</ele><time>2026-04-04T14:20:30.025Z</time></trkpt><trkpt lat="42.3259183" lon="13.68462"><ele>1158.0</ele><time>2026-04-04T14:20:31.025Z</time></trkpt><trkpt lat="42.3258683" lon="13.684805"><ele>1160.0</ele><time>2026-04-04T14:20:32.025Z</time></trkpt><trkpt lat="42.3258183" lon="13.6849983"><ele>1162.0</ele><time>2026-04-04T14:20:33.025Z</time></trkpt><trkpt lat="42.325765" lon="13.6851983"><ele>1166.3333333333333</ele><time>2026-04-04T14:20:34.025Z</time></trkpt><trkpt lat="42.325715" lon="13.68539"><ele>1170.6666666666667</ele><time>2026-04-04T14:20:35.025Z</time></trkpt><trkpt lat="42.3256633" lon="13.6855833"><ele>1175.0</ele><time>2026-04-04T14:20:36.025Z</time></trkpt><trkpt lat="42.3256067" lon="13.6857767"><ele>1162.0</ele><time>2026-04-04T14:20:37.025Z</time></trkpt><trkpt lat="42.325545" lon="13.6859733"><ele>1149.0</ele><time>2026-04-04T14:20:38.025Z</time></trkpt><trkpt lat="42.3254883" lon="13.68617"><ele>1136.0</ele><time>2026-04-04T14:20:39.025Z</time></trkpt><trkpt lat="42.3254383" lon="13.6863567"><ele>1136.0</ele><time>2026-04-04T14:20:40.025Z</time></trkpt><trkpt lat="42.325405" lon="13.686555"><ele>1136.0</ele><time>2026-04-04T14:20:41.025Z</time></trkpt><trkpt lat="42.3253617" lon="13.6867517"><ele>1136.0</ele><time>2026-04-04T14:20:42.024Z</time></trkpt><trkpt lat="42.3253067" lon="13.6869383"><ele>1141.3333333333335</ele><time>2026-04-04T14:20:43.025Z</time></trkpt><trkpt lat="42.32525" lon="13.68712"><ele>1146.6666666666667</ele><time>2026-04-04T14:20:44.025Z</time></trkpt><trkpt lat="42.3251817" lon="13.6873133"><ele>1152.0</ele><time>2026-04-04T14:20:45.025Z</time></trkpt><trkpt lat="42.3251217" lon="13.6874983"><ele>1152.0</ele><time>2026-04-04T14:20:46.025Z</time></trkpt><trkpt lat="42.3250633" lon="13.68769"><ele>1152.0</ele><time>2026-04-04T14:20:47.025Z</time></trkpt><trkpt lat="42.325" lon="13.6878817"><ele>1152.0</ele><time>2026-04-04T14:20:48.025Z</time></trkpt><trkpt lat="42.32494" lon="13.688075"><ele>1157.6666666666667</ele><time>2026-04-04T14:20:49.025Z</time></trkpt><trkpt lat="42.324875" lon="13.6882667"><ele>1163.3333333333335</ele><time>2026-04-04T14:20:50.025Z</time></trkpt><trkpt lat="42.3248117" lon="13.6884567"><ele>1169.0</ele><time>2026-04-04T14:20:51.025Z</time></trkpt><trkpt lat="42.3247433" lon="13.6886533"><ele>1158.6666666666667</ele><time>2026-04-04T14:20:52.025Z</time></trkpt><trkpt lat="42.32468" lon="13.6888467"><ele>1148.3333333333333</ele><time>2026-04-04T14:20:53.025Z</time></trkpt><trkpt lat="42.3246183" lon="13.689045"><ele>1138.0</ele><time>2026-04-04T14:20:54.025Z</time></trkpt><trkpt lat="42.3245567" lon="13.689235"><ele>1138.0</ele><time>2026-04-04T14:20:55.025Z</time></trkpt><trkpt lat="42.3245" lon="13.6894217"><ele>1138.0</ele><time>2026-04-04T14:20:56.024Z</time></trkpt><trkpt lat="42.3244433" lon="13.6896017"><ele>1138.0</ele><time>2026-04-04T14:20:57.025Z</time></trkpt><trkpt lat="42.3243917" lon="13.6897783"><ele>1138.0</ele><time>2026-04-04T14:20:58.025Z</time></trkpt><trkpt lat="42.3243333" lon="13.689945"><ele>1141.5</ele><time>2026-04-04T14:20:59.025Z</time></trkpt><trkpt lat="42.3242833" lon="13.6901117"><ele>1145.0</ele><time>2026-04-04T14:21:00.025Z</time></trkpt><trkpt lat="42.3242333" lon="13.69027"><ele>1148.5</ele><time>2026-04-04T14:21:01.025Z</time></trkpt><trkpt lat="42.3241833" lon="13.6904333"><ele>1152.0</ele><time>2026-04-04T14:21:02.025Z</time></trkpt><trkpt lat="42.324135" lon="13.6905983"><ele>1155.0</ele><time>2026-04-04T14:21:03.025Z</time></trkpt><trkpt lat="42.3240917" lon="13.69076"><ele>1158.0</ele><time>2026-04-04T14:21:04.025Z</time></trkpt><trkpt lat="42.3240517" lon="13.6909267"><ele>1161.0</ele><time>2026-04-04T14:21:05.025Z</time></trkpt><trkpt lat="42.32402" lon="13.6911017"><ele>1164.0</ele><time>2026-04-04T14:21:06.025Z</time></trkpt><trkpt lat="42.3239983" lon="13.691285"><ele>1165.75</ele><time>2026-04-04T14:21:07.025Z</time></trkpt><trkpt lat="42.32398" lon="13.6914733"><ele>1167.5</ele><time>2026-04-04T14:21:08.025Z</time></trkpt><trkpt lat="42.32396" lon="13.6916667"><ele>1169.25</ele><time>2026-04-04T14:21:09.025Z</time></trkpt><trkpt lat="42.3239433" lon="13.6918567"><ele>1171.0</ele><time>2026-04-04T14:21:10.025Z</time></trkpt><trkpt lat="42.3239333" lon="13.6920467"><ele>1172.25</ele><time>2026-04-04T14:21:11.025Z</time></trkpt><trkpt lat="42.3239233" lon="13.6922333"><ele>1173.5</ele><time>2026-04-04T14:21:12.025Z</time></trkpt><trkpt lat="42.323915" lon="13.6924167"><ele>1174.75</ele><time>2026-04-04T14:21:13.025Z</time></trkpt><trkpt lat="42.3239133" lon="13.6925967"><ele>1176.0</ele><time>2026-04-04T14:21:14.025Z</time></trkpt><trkpt lat="42.323915" lon="13.692775"><ele>1176.0</ele><time>2026-04-04T14:21:15.025Z</time></trkpt><trkpt lat="42.32392" lon="13.6929467"><ele>1176.0</ele><time>2026-04-04T14:21:16.025Z</time></trkpt><trkpt lat="42.3239267" lon="13.693105"><ele>1176.0</ele><time>2026-04-04T14:21:17.025Z</time></trkpt><trkpt lat="42.32395" lon="13.6932567"><ele>1176.0</ele><time>2026-04-04T14:21:18.025Z</time></trkpt><trkpt lat="42.3239917" lon="13.6933883"><ele>1176.0</ele><time>2026-04-04T14:21:19.025Z</time></trkpt><trkpt lat="42.32404" lon="13.6935117"><ele>1176.0</ele><time>2026-04-04T14:21:20.025Z</time></trkpt><trkpt lat="42.32409" lon="13.693635"><ele>1176.0</ele><time>2026-04-04T14:21:21.024Z</time></trkpt><trkpt lat="42.32415" lon="13.6937517"><ele>1176.0</ele><time>2026-04-04T14:21:22.025Z</time></trkpt><trkpt lat="42.3242033" lon="13.6938733"><ele>1176.0</ele><time>2026-04-04T14:21:23.025Z</time></trkpt><trkpt lat="42.32426" lon="13.6940083"><ele>1175.2</ele><time>2026-04-04T14:21:24.025Z</time></trkpt><trkpt lat="42.3243133" lon="13.6941333"><ele>1174.3999999999999</ele><time>2026-04-04T14:21:25.025Z</time></trkpt><trkpt lat="42.3243617" lon="13.6942483"><ele>1173.6</ele><time>2026-04-04T14:21:26.025Z</time></trkpt><trkpt lat="42.324415" lon="13.694375"><ele>1172.8</ele><time>2026-04-04T14:21:27.025Z</time></trkpt><trkpt lat="42.3244667" lon="13.6944833"><ele>1172.0</ele><time>2026-04-04T14:21:28.024Z</time></trkpt><trkpt lat="42.324525" lon="13.6945933"><ele>1170.0</ele><time>2026-04-04T14:21:29.024Z</time></trkpt><trkpt lat="42.32457" lon="13.694705"><ele>1168.0</ele><time>2026-04-04T14:21:30.025Z</time></trkpt><trkpt lat="42.3246267" lon="13.69482"><ele>1166.0</ele><time>2026-04-04T14:21:31.025Z</time></trkpt><trkpt lat="42.324685" lon="13.6949367"><ele>1164.0</ele><time>2026-04-04T14:21:32.025Z</time></trkpt><trkpt lat="42.3247467" lon="13.69506"><ele>1162.0</ele><time>2026-04-04T14:21:33.025Z</time></trkpt><trkpt lat="42.32481" lon="13.6951783"><ele>1167.0</ele><time>2026-04-04T14:21:34.025Z</time></trkpt><trkpt lat="42.3248717" lon="13.6953"><ele>1172.0</ele><time>2026-04-04T14:21:35.025Z</time></trkpt><trkpt lat="42.3249333" lon="13.6954267"><ele>1177.0</ele><time>2026-04-04T14:21:36.025Z</time></trkpt><trkpt lat="42.3249933" lon="13.6955383"><ele>1182.0</ele><time>2026-04-04T14:21:37.025Z</time></trkpt><trkpt lat="42.3250433" lon="13.6956567"><ele>1187.0</ele><time>2026-04-04T14:21:38.025Z</time></trkpt><trkpt lat="42.3251" lon="13.6957683"><ele>1187.0</ele><time>2026-04-04T14:21:39.025Z</time></trkpt><trkpt lat="42.325145" lon="13.6958833"><ele>1187.0</ele><time>2026-04-04T14:21:40.025Z</time></trkpt><trkpt lat="42.32519" lon="13.6960167"><ele>1187.0</ele><time>2026-04-04T14:21:41.025Z</time></trkpt><trkpt lat="42.3252267" lon="13.6961433"><ele>1187.0</ele><time>2026-04-04T14:21:42.025Z</time></trkpt><trkpt lat="42.3252667" lon="13.69627"><ele>1187.0</ele><time>2026-04-04T14:21:43.025Z</time></trkpt><trkpt lat="42.3253017" lon="13.6963933"><ele>1185.5</ele><time>2026-04-04T14:21:44.025Z</time></trkpt><trkpt lat="42.32533" lon="13.696505"><ele>1184.0</ele><time>2026-04-04T14:21:45.025Z</time></trkpt><trkpt lat="42.3253533" lon="13.6966117"><ele>1182.5</ele><time>2026-04-04T14:21:46.025Z</time></trkpt><trkpt lat="42.3253733" lon="13.69672"><ele>1181.0</ele><time>2026-04-04T14:21:47.025Z</time></trkpt><trkpt lat="42.3253917" lon="13.6968183"><ele>1179.5</ele><time>2026-04-04T14:21:48.025Z</time></trkpt><trkpt lat="42.325415" lon="13.6969133"><ele>1178.0</ele><time>2026-04-04T14:21:49.025Z</time></trkpt><trkpt lat="42.3254433" lon="13.6970167"><ele>1176.6666666666667</ele><time>2026-04-04T14:21:50.024Z</time></trkpt><trkpt lat="42.3254817" lon="13.697115"><ele>1175.3333333333335</ele><time>2026-04-04T14:21:51.025Z</time></trkpt><trkpt lat="42.32553" lon="13.6972133"><ele>1174.0</ele><time>2026-04-04T14:21:52.025Z</time></trkpt><trkpt lat="42.32558" lon="13.6973217"><ele>1172.6666666666667</ele><time>2026-04-04T14:21:53.025Z</time></trkpt><trkpt lat="42.3256167" lon="13.69742"><ele>1171.3333333333333</ele><time>2026-04-04T14:21:54.025Z</time></trkpt><trkpt lat="42.3256583" lon="13.69752"><ele>1170.0</ele><time>2026-04-04T14:21:55.025Z</time></trkpt><trkpt lat="42.3257083" lon="13.6976367"><ele>1174.6</ele><time>2026-04-04T14:21:56.025Z</time></trkpt><trkpt lat="42.3257567" lon="13.697745"><ele>1179.2</ele><time>2026-04-04T14:21:57.025Z</time></trkpt><trkpt lat="42.3257967" lon="13.697855"><ele>1183.8</ele><time>2026-04-04T14:21:58.025Z</time></trkpt><trkpt lat="42.3258367" lon="13.6979617"><ele>1188.4</ele><time>2026-04-04T14:21:59.025Z</time></trkpt><trkpt lat="42.3258717" lon="13.69808"><ele>1193.0</ele><time>2026-04-04T14:22:00.025Z</time></trkpt><trkpt lat="42.3259067" lon="13.698205"><ele>1193.0</ele><time>2026-04-04T14:22:01.025Z</time></trkpt><trkpt lat="42.3259433" lon="13.6983283"><ele>1193.0</ele><time>2026-04-04T14:22:02.024Z</time></trkpt><trkpt lat="42.3259767" lon="13.6984633"><ele>1193.0</ele><time>2026-04-04T14:22:03.025Z</time></trkpt><trkpt lat="42.3260133" lon="13.69859"><ele>1193.0</ele><time>2026-04-04T14:22:04.025Z</time></trkpt><trkpt lat="42.3260483" lon="13.69872"><ele>1193.0</ele><time>2026-04-04T14:22:05.025Z</time></trkpt><trkpt lat="42.3260783" lon="13.698855"><ele>1192.0</ele><time>2026-04-04T14:22:06.025Z</time></trkpt><trkpt lat="42.3261183" lon="13.6989717"><ele>1191.0</ele><time>2026-04-04T14:22:07.025Z</time></trkpt><trkpt lat="42.3261567" lon="13.6990933"><ele>1190.0</ele><time>2026-04-04T14:22:08.025Z</time></trkpt><trkpt lat="42.326195" lon="13.6992167"><ele>1189.0</ele><time>2026-04-04T14:22:09.025Z</time></trkpt><trkpt lat="42.326235" lon="13.6993367"><ele>1188.0</ele><time>2026-04-04T14:22:10.025Z</time></trkpt><trkpt lat="42.3262683" lon="13.6994567"><ele>1188.0</ele><time>2026-04-04T14:22:11.024Z</time></trkpt><trkpt lat="42.3263083" lon="13.6995767"><ele>1188.0</ele><time>2026-04-04T14:22:12.025Z</time></trkpt><trkpt lat="42.3263467" lon="13.6997"><ele>1188.0</ele><time>2026-04-04T14:22:13.025Z</time></trkpt><trkpt lat="42.32639" lon="13.69981"><ele>1188.0</ele><time>2026-04-04T14:22:14.025Z</time></trkpt><trkpt lat="42.3264117" lon="13.6999183"><ele>1188.0</ele><time>2026-04-04T14:22:15.025Z</time></trkpt><trkpt lat="42.326425" lon="13.7000217"><ele>1188.0</ele><time>2026-04-04T14:22:16.025Z</time></trkpt><trkpt lat="42.3264333" lon="13.7001067"><ele>1189.4</ele><time>2026-04-04T14:22:17.025Z</time></trkpt><trkpt lat="42.32643" lon="13.7002583"><ele>1190.8</ele><time>2026-04-04T14:22:19.025Z</time></trkpt><trkpt lat="42.3263583" lon="13.700385"><ele>1192.2</ele><time>2026-04-04T14:22:21.025Z</time></trkpt><trkpt lat="42.3263083" lon="13.7004467"><ele>1193.6</ele><time>2026-04-04T14:22:22.025Z</time></trkpt><trkpt lat="42.3262417" lon="13.7005"><ele>1195.0</ele><time>2026-04-04T14:22:23.025Z</time></trkpt><trkpt lat="42.3261617" lon="13.70057"><ele>1195.0</ele><time>2026-04-04T14:22:24.025Z</time></trkpt><trkpt lat="42.326075" lon="13.7006433"><ele>1195.0</ele><time>2026-04-04T14:22:25.025Z</time></trkpt><trkpt lat="42.3260067" lon="13.7007"><ele>1195.0</ele><time>2026-04-04T14:22:26.025Z</time></trkpt><trkpt lat="42.325945" lon="13.700755"><ele>1195.0</ele><time>2026-04-04T14:22:27.025Z</time></trkpt><trkpt lat="42.3258667" lon="13.7008467"><ele>1195.0</ele><time>2026-04-04T14:22:29.025Z</time></trkpt><trkpt lat="42.32582" lon="13.700935"><ele>1195.0</ele><time>2026-04-04T14:22:31.025Z</time></trkpt><trkpt lat="42.3258167" lon="13.7010583"><ele>1196.8</ele><time>2026-04-04T14:22:33.025Z</time></trkpt><trkpt lat="42.3258867" lon="13.7012017"><ele>1198.6</ele><time>2026-04-04T14:22:35.025Z</time></trkpt><trkpt lat="42.3259433" lon="13.70127"><ele>1200.4</ele><time>2026-04-04T14:22:36.025Z</time></trkpt><trkpt lat="42.3260017" lon="13.7013433"><ele>1202.2</ele><time>2026-04-04T14:22:37.025Z</time></trkpt><trkpt lat="42.326065" lon="13.7014233"><ele>1204.0</ele><time>2026-04-04T14:22:38.025Z</time></trkpt><trkpt lat="42.32613" lon="13.7015083"><ele>1204.0</ele><time>2026-04-04T14:22:39.025Z</time></trkpt><trkpt lat="42.3261933" lon="13.7016017"><ele>1204.0</ele><time>2026-04-04T14:22:40.024Z</time></trkpt><trkpt lat="42.3262583" lon="13.70169"><ele>1204.0</ele><time>2026-04-04T14:22:41.025Z</time></trkpt><trkpt lat="42.3263233" lon="13.7017833"><ele>1204.0</ele><time>2026-04-04T14:22:42.025Z</time></trkpt><trkpt lat="42.326385" lon="13.7018617"><ele>1204.0</ele><time>2026-04-04T14:22:43.025Z</time></trkpt><trkpt lat="42.32644" lon="13.7019417"><ele>1204.0</ele><time>2026-04-04T14:22:44.025Z</time></trkpt><trkpt lat="42.3265" lon="13.7020067"><ele>1205.6666666666665</ele><time>2026-04-04T14:22:45.025Z</time></trkpt><trkpt lat="42.3265717" lon="13.7020483"><ele>1207.3333333333333</ele><time>2026-04-04T14:22:46.025Z</time></trkpt><trkpt lat="42.3266467" lon="13.70208"><ele>1209.0</ele><time>2026-04-04T14:22:47.025Z</time></trkpt><trkpt lat="42.326725" lon="13.7021033"><ele>1210.6666666666667</ele><time>2026-04-04T14:22:48.025Z</time></trkpt><trkpt lat="42.32681" lon="13.7021333"><ele>1212.3333333333335</ele><time>2026-04-04T14:22:49.025Z</time></trkpt><trkpt lat="42.3268983" lon="13.70216"><ele>1214.0</ele><time>2026-04-04T14:22:50.025Z</time></trkpt><trkpt lat="42.3269883" lon="13.7021917"><ele>1214.0</ele><time>2026-04-04T14:22:51.025Z</time></trkpt><trkpt lat="42.3270883" lon="13.7022283"><ele>1214.0</ele><time>2026-04-04T14:22:52.025Z</time></trkpt><trkpt lat="42.327185" lon="13.7022567"><ele>1214.0</ele><time>2026-04-04T14:22:53.025Z</time></trkpt><trkpt lat="42.3272783" lon="13.7022867"><ele>1214.0</ele><time>2026-04-04T14:22:54.025Z</time></trkpt><trkpt lat="42.3273633" lon="13.702315"><ele>1214.0</ele><time>2026-04-04T14:22:55.025Z</time></trkpt><trkpt lat="42.3274367" lon="13.7023367"><ele>1214.3333333333335</ele><time>2026-04-04T14:22:56.025Z</time></trkpt><trkpt lat="42.3275433" lon="13.702355"><ele>1214.6666666666667</ele><time>2026-04-04T14:22:58.025Z</time></trkpt><trkpt lat="42.3276317" lon="13.702365"><ele>1215.0</ele><time>2026-04-04T14:23:00.025Z</time></trkpt><trkpt lat="42.3277183" lon="13.7023717"><ele>1215.3333333333333</ele><time>2026-04-04T14:23:03.025Z</time></trkpt><trkpt lat="42.32779" lon="13.7023633"><ele>1215.6666666666665</ele><time>2026-04-04T14:23:06.025Z</time></trkpt><trkpt lat="42.32783" lon="13.7022883"><ele>1216.0</ele><time>2026-04-04T14:23:24.025Z</time></trkpt><trkpt lat="42.3278533" lon="13.702165"><ele>1216.0</ele><time>2026-04-04T14:23:36.025Z</time></trkpt><trkpt lat="42.3278467" lon="13.702025"><ele>1216.0</ele><time>2026-04-04T14:23:38.025Z</time></trkpt><trkpt lat="42.327855" lon="13.7019383"><ele>1216.0</ele><time>2026-04-04T14:23:40.025Z</time></trkpt><trkpt lat="42.3278633" lon="13.701815"><ele>1216.0</ele><time>2026-04-04T14:23:50.025Z</time></trkpt><trkpt lat="42.3278733" lon="13.7016433"><ele>1216.0</ele><time>2026-04-04T14:23:52.025Z</time></trkpt><trkpt lat="42.327875" lon="13.70155"><ele>1215.6666666666665</ele><time>2026-04-04T14:23:53.025Z</time></trkpt><trkpt lat="42.3278717" lon="13.7014567"><ele>1215.3333333333333</ele><time>2026-04-04T14:23:54.025Z</time></trkpt><trkpt lat="42.3278633" lon="13.7013567"><ele>1215.0</ele><time>2026-04-04T14:23:55.025Z</time></trkpt><trkpt lat="42.327855" lon="13.70126"><ele>1214.6666666666667</ele><time>2026-04-04T14:23:56.025Z</time></trkpt><trkpt lat="42.327845" lon="13.7011567"><ele>1214.3333333333335</ele><time>2026-04-04T14:23:57.025Z</time></trkpt><trkpt lat="42.32783" lon="13.7010483"><ele>1214.0</ele><time>2026-04-04T14:23:58.025Z</time></trkpt><trkpt lat="42.3278117" lon="13.7009467"><ele>1214.8333333333335</ele><time>2026-04-04T14:23:59.025Z</time></trkpt><trkpt lat="42.3277833" lon="13.700845"><ele>1215.6666666666667</ele><time>2026-04-04T14:24:00.025Z</time></trkpt><trkpt lat="42.3277583" lon="13.7007417"><ele>1216.5</ele><time>2026-04-04T14:24:01.025Z</time></trkpt><trkpt lat="42.327725" lon="13.7006467"><ele>1217.3333333333333</ele><time>2026-04-04T14:24:02.025Z</time></trkpt><trkpt lat="42.32769" lon="13.7005633"><ele>1218.1666666666665</ele><time>2026-04-04T14:24:03.025Z</time></trkpt><trkpt lat="42.3276567" lon="13.7004733"><ele>1219.0</ele><time>2026-04-04T14:24:04.025Z</time></trkpt><trkpt lat="42.3276183" lon="13.7003883"><ele>1219.0</ele><time>2026-04-04T14:24:05.025Z</time></trkpt><trkpt lat="42.3275767" lon="13.7003"><ele>1219.0</ele><time>2026-04-04T14:24:06.025Z</time></trkpt><trkpt lat="42.3275383" lon="13.7002133"><ele>1219.0</ele><time>2026-04-04T14:24:07.025Z</time></trkpt><trkpt lat="42.3275033" lon="13.7001233"><ele>1219.0</ele><time>2026-04-04T14:24:08.025Z</time></trkpt><trkpt lat="42.3274667" lon="13.7000417"><ele>1219.0</ele><time>2026-04-04T14:24:09.025Z</time></trkpt><trkpt lat="42.3274217" lon="13.6999183"><ele>1219.0</ele><time>2026-04-04T14:24:11.024Z</time></trkpt><trkpt lat="42.3273933" lon="13.6998267"><ele>1218.6666666666665</ele><time>2026-04-04T14:24:14.025Z</time></trkpt><trkpt lat="42.327365" lon="13.699725"><ele>1218.3333333333333</ele><time>2026-04-04T14:24:18.025Z</time></trkpt><trkpt lat="42.3273367" lon="13.6996467"><ele>1218.0</ele><time>2026-04-04T14:24:20.025Z</time></trkpt><trkpt lat="42.3272767" lon="13.6995117"><ele>1217.6666666666667</ele><time>2026-04-04T14:24:22.025Z</time></trkpt><trkpt lat="42.3272467" lon="13.6994317"><ele>1217.3333333333335</ele><time>2026-04-04T14:24:23.025Z</time></trkpt><trkpt lat="42.32722" lon="13.6993417"><ele>1217.0</ele><time>2026-04-04T14:24:24.025Z</time></trkpt><trkpt lat="42.327185" lon="13.6992517"><ele>1217.0</ele><time>2026-04-04T14:24:25.025Z</time></trkpt><trkpt lat="42.32715" lon="13.6991533"><ele>1217.0</ele><time>2026-04-04T14:24:26.025Z</time></trkpt><trkpt lat="42.3271133" lon="13.699045"><ele>1217.0</ele><time>2026-04-04T14:24:27.025Z</time></trkpt><trkpt lat="42.32707" lon="13.6989417"><ele>1217.0</ele><time>2026-04-04T14:24:28.025Z</time></trkpt><trkpt lat="42.3270217" lon="13.6988367"><ele>1217.0</ele><time>2026-04-04T14:24:29.025Z</time></trkpt><trkpt lat="42.326975" lon="13.698715"><ele>1217.0</ele><time>2026-04-04T14:24:30.024Z</time></trkpt><trkpt lat="42.326935" lon="13.6985883"><ele>1219.2</ele><time>2026-04-04T14:24:31.025Z</time></trkpt><trkpt lat="42.3268967" lon="13.6984533"><ele>1221.4</ele><time>2026-04-04T14:24:32.025Z</time></trkpt><trkpt lat="42.32686" lon="13.6983167"><ele>1223.6</ele><time>2026-04-04T14:24:33.025Z</time></trkpt><trkpt lat="42.32682" lon="13.698175"><ele>1225.8</ele><time>2026-04-04T14:24:34.025Z</time></trkpt><trkpt lat="42.3267883" lon="13.6980217"><ele>1228.0</ele><time>2026-04-04T14:24:35.025Z</time></trkpt><trkpt lat="42.3267567" lon="13.6978733"><ele>1231.0</ele><time>2026-04-04T14:24:36.025Z</time></trkpt><trkpt lat="42.3267233" lon="13.6977283"><ele>1234.0</ele><time>2026-04-04T14:24:37.024Z</time></trkpt><trkpt lat="42.32669" lon="13.697575"><ele>1237.0</ele><time>2026-04-04T14:24:38.025Z</time></trkpt><trkpt lat="42.3266567" lon="13.6974283"><ele>1240.0</ele><time>2026-04-04T14:24:39.025Z</time></trkpt><trkpt lat="42.3266283" lon="13.697285"><ele>1240.0</ele><time>2026-04-04T14:24:40.025Z</time></trkpt><trkpt lat="42.3266033" lon="13.6971333"><ele>1240.0</ele><time>2026-04-04T14:24:41.025Z</time></trkpt><trkpt lat="42.3265833" lon="13.69698"><ele>1240.0</ele><time>2026-04-04T14:24:42.025Z</time></trkpt><trkpt lat="42.3265683" lon="13.6968217"><ele>1240.0</ele><time>2026-04-04T14:24:43.025Z</time></trkpt><trkpt lat="42.3265567" lon="13.6966667"><ele>1242.2</ele><time>2026-04-04T14:24:44.025Z</time></trkpt><trkpt lat="42.326555" lon="13.69651"><ele>1244.4</ele><time>2026-04-04T14:24:45.024Z</time></trkpt><trkpt lat="42.3265567" lon="13.6963583"><ele>1246.6</ele><time>2026-04-04T14:24:46.025Z</time></trkpt><trkpt lat="42.3265533" lon="13.6962183"><ele>1248.8</ele><time>2026-04-04T14:24:47.025Z</time></trkpt><trkpt lat="42.3265433" lon="13.696085"><ele>1251.0</ele><time>2026-04-04T14:24:48.025Z</time></trkpt><trkpt lat="42.32652" lon="13.6959383"><ele>1252.8</ele><time>2026-04-04T14:24:49.025Z</time></trkpt><trkpt lat="42.3264867" lon="13.695805"><ele>1254.6</ele><time>2026-04-04T14:24:50.025Z</time></trkpt><trkpt lat="42.3264517" lon="13.695675"><ele>1256.4</ele><time>2026-04-04T14:24:51.025Z</time></trkpt><trkpt lat="42.32641" lon="13.6955417"><ele>1258.2</ele><time>2026-04-04T14:24:52.025Z</time></trkpt><trkpt lat="42.3263617" lon="13.6954117"><ele>1260.0</ele><time>2026-04-04T14:24:53.025Z</time></trkpt><trkpt lat="42.3263117" lon="13.6952783"><ele>1254.0</ele><time>2026-04-04T14:24:54.025Z</time></trkpt><trkpt lat="42.326265" lon="13.6951433"><ele>1248.0</ele><time>2026-04-04T14:24:55.025Z</time></trkpt><trkpt lat="42.3262217" lon="13.6949967"><ele>1242.0</ele><time>2026-04-04T14:24:56.025Z</time></trkpt><trkpt lat="42.3261817" lon="13.69485"><ele>1236.0</ele><time>2026-04-04T14:24:57.025Z</time></trkpt><trkpt lat="42.3261467" lon="13.694705"><ele>1236.0</ele><time>2026-04-04T14:24:58.025Z</time></trkpt><trkpt lat="42.3261183" lon="13.69456"><ele>1236.0</ele><time>2026-04-04T14:24:59.025Z</time></trkpt><trkpt lat="42.3260917" lon="13.6944067"><ele>1236.0</ele><time>2026-04-04T14:25:00.025Z</time></trkpt><trkpt lat="42.326065" lon="13.6942533"><ele>1236.0</ele><time>2026-04-04T14:25:01.025Z</time></trkpt><trkpt lat="42.3260383" lon="13.6940933"><ele>1238.75</ele><time>2026-04-04T14:25:02.025Z</time></trkpt><trkpt lat="42.3260133" lon="13.69394"><ele>1241.5</ele><time>2026-04-04T14:25:03.025Z</time></trkpt><trkpt lat="42.3259967" lon="13.69378"><ele>1244.25</ele><time>2026-04-04T14:25:04.025Z</time></trkpt><trkpt lat="42.3259817" lon="13.6936133"><ele>1247.0</ele><time>2026-04-04T14:25:05.025Z</time></trkpt><trkpt lat="42.3259633" lon="13.6934483"><ele>1249.25</ele><time>2026-04-04T14:25:06.025Z</time></trkpt><trkpt lat="42.325945" lon="13.6932917"><ele>1251.5</ele><time>2026-04-04T14:25:07.025Z</time></trkpt><trkpt lat="42.3259283" lon="13.6931367"><ele>1253.75</ele><time>2026-04-04T14:25:08.025Z</time></trkpt><trkpt lat="42.3259017" lon="13.69298"><ele>1256.0</ele><time>2026-04-04T14:25:09.025Z</time></trkpt><trkpt lat="42.32588" lon="13.6928267"><ele>1257.3999999999999</ele><time>2026-04-04T14:25:10.025Z</time></trkpt><trkpt lat="42.3258567" lon="13.69269"><ele>1258.8</ele><time>2026-04-04T14:25:11.024Z</time></trkpt><trkpt lat="42.325835" lon="13.69257"><ele>1260.1999999999998</ele><time>2026-04-04T14:25:12.025Z</time></trkpt><trkpt lat="42.3258217" lon="13.6924567"><ele>1261.6</ele><time>2026-04-04T14:25:13.025Z</time></trkpt><trkpt lat="42.3258183" lon="13.6923117"><ele>1263.0</ele><time>2026-04-04T14:25:15.025Z</time></trkpt><trkpt lat="42.3258667" lon="13.6922283"><ele>1263.0</ele><time>2026-04-04T14:25:18.025Z</time></trkpt><trkpt lat="42.3259217" lon="13.69228"><ele>1263.0</ele><time>2026-04-04T14:25:20.025Z</time></trkpt><trkpt lat="42.32595" lon="13.6924217"><ele>1263.0</ele><time>2026-04-04T14:25:22.025Z</time></trkpt><trkpt lat="42.3259717" lon="13.6925767"><ele>1263.0</ele><time>2026-04-04T14:25:24.025Z</time></trkpt><trkpt lat="42.3259933" lon="13.6926583"><ele>1263.0</ele><time>2026-04-04T14:25:25.025Z</time></trkpt><trkpt lat="42.326015" lon="13.6927483"><ele>1263.0</ele><time>2026-04-04T14:25:26.025Z</time></trkpt><trkpt lat="42.32604" lon="13.6928517"><ele>1261.8333333333333</ele><time>2026-04-04T14:25:27.025Z</time></trkpt><trkpt lat="42.326065" lon="13.692955"><ele>1260.6666666666667</ele><time>2026-04-04T14:25:28.025Z</time></trkpt><trkpt lat="42.32609" lon="13.693055"><ele>1259.5</ele><time>2026-04-04T14:25:29.025Z</time></trkpt><trkpt lat="42.3261167" lon="13.6931683"><ele>1258.3333333333335</ele><time>2026-04-04T14:25:30.025Z</time></trkpt><trkpt lat="42.3261483" lon="13.6932883"><ele>1257.1666666666667</ele><time>2026-04-04T14:25:31.025Z</time></trkpt><trkpt lat="42.3261833" lon="13.693405"><ele>1256.0</ele><time>2026-04-04T14:25:32.025Z</time></trkpt><trkpt lat="42.3262217" lon="13.6935233"><ele>1254.2</ele><time>2026-04-04T14:25:33.025Z</time></trkpt><trkpt lat="42.3262583" lon="13.69365"><ele>1252.3999999999999</ele><time>2026-04-04T14:25:34.025Z</time></trkpt><trkpt lat="42.326295" lon="13.6937767"><ele>1250.6</ele><time>2026-04-04T14:25:35.025Z</time></trkpt><trkpt lat="42.326335" lon="13.6939017"><ele>1248.8</ele><time>2026-04-04T14:25:36.025Z</time></trkpt><trkpt lat="42.3263767" lon="13.6940267"><ele>1247.0</ele><time>2026-04-04T14:25:37.025Z</time></trkpt><trkpt lat="42.326425" lon="13.6941517"><ele>1252.6</ele><time>2026-04-04T14:25:38.025Z</time></trkpt><trkpt lat="42.3264733" lon="13.6942767"><ele>1258.2</ele><time>2026-04-04T14:25:39.025Z</time></trkpt><trkpt lat="42.3265217" lon="13.694405"><ele>1263.8</ele><time>2026-04-04T14:25:40.025Z</time></trkpt><trkpt lat="42.3265717" lon="13.6945333"><ele>1269.4</ele><time>2026-04-04T14:25:41.025Z</time></trkpt><trkpt lat="42.3266217" lon="13.6946583"><ele>1275.0</ele><time>2026-04-04T14:25:42.025Z</time></trkpt><trkpt lat="42.3266783" lon="13.6948"><ele>1275.0</ele><time>2026-04-04T14:25:43.025Z</time></trkpt><trkpt lat="42.326735" lon="13.6949267"><ele>1275.0</ele><time>2026-04-04T14:25:44.025Z</time></trkpt><trkpt lat="42.3268" lon="13.6950433"><ele>1275.0</ele><time>2026-04-04T14:25:45.025Z</time></trkpt><trkpt lat="42.326865" lon="13.6951517"><ele>1275.0</ele><time>2026-04-04T14:25:46.025Z</time></trkpt><trkpt lat="42.326935" lon="13.6952633"><ele>1275.0</ele><time>2026-04-04T14:25:47.025Z</time></trkpt><trkpt lat="42.3270083" lon="13.69538"><ele>1271.25</ele><time>2026-04-04T14:25:48.025Z</time></trkpt><trkpt lat="42.3270817" lon="13.695505"><ele>1267.5</ele><time>2026-04-04T14:25:49.025Z</time></trkpt><trkpt lat="42.32715" lon="13.695635"><ele>1263.75</ele><time>2026-04-04T14:25:50.025Z</time></trkpt><trkpt lat="42.327215" lon="13.6957617"><ele>1260.0</ele><time>2026-04-04T14:25:51.025Z</time></trkpt><trkpt lat="42.3272717" lon="13.6959"><ele>1267.75</ele><time>2026-04-04T14:25:52.025Z</time></trkpt><trkpt lat="42.3273283" lon="13.696055"><ele>1275.5</ele><time>2026-04-04T14:25:53.025Z</time></trkpt><trkpt lat="42.3273683" lon="13.6962117"><ele>1283.25</ele><time>2026-04-04T14:25:54.025Z</time></trkpt><trkpt lat="42.3274033" lon="13.6963767"><ele>1291.0</ele><time>2026-04-04T14:25:55.025Z</time></trkpt><trkpt lat="42.3274317" lon="13.6965317"><ele>1291.0</ele><time>2026-04-04T14:25:56.025Z</time></trkpt><trkpt lat="42.3274633" lon="13.69668"><ele>1291.0</ele><time>2026-04-04T14:25:57.025Z</time></trkpt><trkpt lat="42.3274967" lon="13.6968167"><ele>1291.0</ele><time>2026-04-04T14:25:58.025Z</time></trkpt><trkpt lat="42.32753" lon="13.6969333"><ele>1291.0</ele><time>2026-04-04T14:25:59.025Z</time></trkpt><trkpt lat="42.327565" lon="13.6970267"><ele>1291.0</ele><time>2026-04-04T14:26:00.025Z</time></trkpt><trkpt lat="42.3276067" lon="13.697135"><ele>1289.1666666666665</ele><time>2026-04-04T14:26:02.025Z</time></trkpt><trkpt lat="42.327635" lon="13.6972233"><ele>1287.3333333333333</ele><time>2026-04-04T14:26:05.025Z</time></trkpt><trkpt lat="42.3276817" lon="13.6973117"><ele>1285.5</ele><time>2026-04-04T14:26:41.025Z</time></trkpt><trkpt lat="42.327725" lon="13.6974167"><ele>1283.6666666666667</ele><time>2026-04-04T14:26:43.025Z</time></trkpt><trkpt lat="42.3277633" lon="13.6975"><ele>1281.8333333333335</ele><time>2026-04-04T14:26:46.025Z</time></trkpt><trkpt lat="42.3278217" lon="13.697555"><ele>1280.0</ele><time>2026-04-04T14:26:51.025Z</time></trkpt><trkpt lat="42.327855" lon="13.6976367"><ele>1280.0</ele><time>2026-04-04T14:26:53.025Z</time></trkpt><trkpt lat="42.3279083" lon="13.6977067"><ele>1280.0</ele><time>2026-04-04T14:26:55.025Z</time></trkpt><trkpt lat="42.32796" lon="13.6977633"><ele>1280.0</ele><time>2026-04-04T14:26:57.025Z</time></trkpt><trkpt lat="42.3280333" lon="13.697835"><ele>1280.0</ele><time>2026-04-04T14:27:14.025Z</time></trkpt><trkpt lat="42.3280867" lon="13.69791"><ele>1280.0</ele><time>2026-04-04T14:27:16.025Z</time></trkpt><trkpt lat="42.3281267" lon="13.6979967"><ele>1280.0</ele><time>2026-04-04T14:27:19.025Z</time></trkpt><trkpt lat="42.32815" lon="13.69809"><ele>1280.142857142857</ele><time>2026-04-04T14:27:22.025Z</time></trkpt><trkpt lat="42.32817" lon="13.698185"><ele>1280.2857142857142</ele><time>2026-04-04T14:27:24.025Z</time></trkpt><trkpt lat="42.3282133" lon="13.6982667"><ele>1280.4285714285716</ele><time>2026-04-04T14:27:27.025Z</time></trkpt><trkpt lat="42.3282783" lon="13.6982267"><ele>1280.5714285714284</ele><time>2026-04-04T14:27:33.025Z</time></trkpt><trkpt lat="42.3283183" lon="13.698125"><ele>1280.7142857142858</ele><time>2026-04-04T14:27:36.025Z</time></trkpt><trkpt lat="42.328305" lon="13.6980233"><ele>1280.857142857143</ele><time>2026-04-04T14:27:39.025Z</time></trkpt><trkpt lat="42.3282767" lon="13.6979433"><ele>1281.0</ele><time>2026-04-04T14:27:48.025Z</time></trkpt><trkpt lat="42.3282467" lon="13.697855"><ele>1281.0</ele><time>2026-04-04T14:27:51.025Z</time></trkpt><trkpt lat="42.3281867" lon="13.6978183"><ele>1281.0</ele><time>2026-04-04T14:28:08.025Z</time></trkpt><trkpt lat="42.3281117" lon="13.69773"><ele>1281.0</ele><time>2026-04-04T14:28:10.025Z</time></trkpt><trkpt lat="42.3280133" lon="13.6976283"><ele>1281.0</ele><time>2026-04-04T14:28:12.025Z</time></trkpt><trkpt lat="42.3279617" lon="13.6975767"><ele>1281.0</ele><time>2026-04-04T14:28:13.025Z</time></trkpt><trkpt lat="42.3278783" lon="13.6974617"><ele>1280.8</ele><time>2026-04-04T14:28:15.025Z</time></trkpt><trkpt lat="42.3278133" lon="13.6973267"><ele>1280.6</ele><time>2026-04-04T14:28:17.025Z</time></trkpt><trkpt lat="42.32777" lon="13.697185"><ele>1280.4</ele><time>2026-04-04T14:28:19.025Z</time></trkpt><trkpt lat="42.3277467" lon="13.6970133"><ele>1280.2</ele><time>2026-04-04T14:28:21.025Z</time></trkpt><trkpt lat="42.3277417" lon="13.69692"><ele>1280.0</ele><time>2026-04-04T14:28:22.025Z</time></trkpt><trkpt lat="42.3277367" lon="13.696825"><ele>1281.5714285714284</ele><time>2026-04-04T14:28:23.025Z</time></trkpt><trkpt lat="42.32775" lon="13.696725"><ele>1283.142857142857</ele><time>2026-04-04T14:28:24.025Z</time></trkpt><trkpt lat="42.3277517" lon="13.6966367"><ele>1284.7142857142858</ele><time>2026-04-04T14:28:25.025Z</time></trkpt><trkpt lat="42.3277667" lon="13.6965483"><ele>1286.2857142857142</ele><time>2026-04-04T14:28:26.025Z</time></trkpt><trkpt lat="42.32778" lon="13.6964633"><ele>1287.857142857143</ele><time>2026-04-04T14:28:27.025Z</time></trkpt><trkpt lat="42.32779" lon="13.6963767"><ele>1289.4285714285713</ele><time>2026-04-04T14:28:28.025Z</time></trkpt><trkpt lat="42.327795" lon="13.6962833"><ele>1291.0</ele><time>2026-04-04T14:28:29.025Z</time></trkpt><trkpt lat="42.3277767" lon="13.6961817"><ele>1292.1666666666665</ele><time>2026-04-04T14:28:30.025Z</time></trkpt><trkpt lat="42.3277583" lon="13.69608"><ele>1293.3333333333333</ele><time>2026-04-04T14:28:31.025Z</time></trkpt><trkpt lat="42.3277317" lon="13.6959883"><ele>1294.5</ele><time>2026-04-04T14:28:32.025Z</time></trkpt><trkpt lat="42.32769" lon="13.6958967"><ele>1295.6666666666667</ele><time>2026-04-04T14:28:33.025Z</time></trkpt><trkpt lat="42.3276517" lon="13.69581"><ele>1296.8333333333335</ele><time>2026-04-04T14:28:34.025Z</time></trkpt><trkpt lat="42.3276117" lon="13.6957133"><ele>1298.0</ele><time>2026-04-04T14:28:35.025Z</time></trkpt><trkpt lat="42.3275783" lon="13.6956183"><ele>1298.0</ele><time>2026-04-04T14:28:36.025Z</time></trkpt><trkpt lat="42.3275617" lon="13.69552"><ele>1298.0</ele><time>2026-04-04T14:28:37.025Z</time></trkpt><trkpt lat="42.327555" lon="13.6954117"><ele>1298.0</ele><time>2026-04-04T14:28:38.025Z</time></trkpt><trkpt lat="42.3275583" lon="13.6952983"><ele>1298.0</ele><time>2026-04-04T14:28:39.024Z</time></trkpt><trkpt lat="42.3275467" lon="13.6951833"><ele>1298.0</ele><time>2026-04-04T14:28:40.025Z</time></trkpt><trkpt lat="42.327525" lon="13.695045"><ele>1298.0</ele><time>2026-04-04T14:28:42.025Z</time></trkpt><trkpt lat="42.3274733" lon="13.6949067"><ele>1300.6000000000001</ele><time>2026-04-04T14:28:44.025Z</time></trkpt><trkpt lat="42.32744" lon="13.69481"><ele>1303.2</ele><time>2026-04-04T14:28:45.025Z</time></trkpt><trkpt lat="42.3273983" lon="13.69471"><ele>1305.8</ele><time>2026-04-04T14:28:46.025Z</time></trkpt><trkpt lat="42.3273583" lon="13.6946083"><ele>1308.4</ele><time>2026-04-04T14:28:47.025Z</time></trkpt><trkpt lat="42.32732" lon="13.69449"><ele>1311.0</ele><time>2026-04-04T14:28:48.025Z</time></trkpt><trkpt lat="42.32729" lon="13.6943533"><ele>1314.1999999999998</ele><time>2026-04-04T14:28:49.025Z</time></trkpt><trkpt lat="42.3272667" lon="13.69422"><ele>1317.3999999999999</ele><time>2026-04-04T14:28:50.025Z</time></trkpt><trkpt lat="42.3272467" lon="13.6940883"><ele>1320.6</ele><time>2026-04-04T14:28:51.025Z</time></trkpt><trkpt lat="42.3272267" lon="13.6939517"><ele>1323.8</ele><time>2026-04-04T14:28:52.025Z</time></trkpt><trkpt lat="42.3272033" lon="13.693825"><ele>1327.0</ele><time>2026-04-04T14:28:53.025Z</time></trkpt><trkpt lat="42.3271833" lon="13.6937033"><ele>1321.6</ele><time>2026-04-04T14:28:54.025Z</time></trkpt><trkpt lat="42.3271583" lon="13.69358"><ele>1316.1999999999998</ele><time>2026-04-04T14:28:55.025Z</time></trkpt><trkpt lat="42.3271283" lon="13.6934567"><ele>1310.8</ele><time>2026-04-04T14:28:56.025Z</time></trkpt><trkpt lat="42.3270967" lon="13.693345"><ele>1305.4</ele><time>2026-04-04T14:28:57.025Z</time></trkpt><trkpt lat="42.327065" lon="13.6932267"><ele>1300.0</ele><time>2026-04-04T14:28:58.025Z</time></trkpt><trkpt lat="42.3270367" lon="13.693095"><ele>1300.0</ele><time>2026-04-04T14:28:59.025Z</time></trkpt><trkpt lat="42.3270167" lon="13.6929733"><ele>1300.0</ele><time>2026-04-04T14:29:00.025Z</time></trkpt><trkpt lat="42.327" lon="13.69285"><ele>1300.0</ele><time>2026-04-04T14:29:01.025Z</time></trkpt><trkpt lat="42.3269867" lon="13.69271"><ele>1300.0</ele><time>2026-04-04T14:29:02.025Z</time></trkpt><trkpt lat="42.3269783" lon="13.6925683"><ele>1300.0</ele><time>2026-04-04T14:29:03.025Z</time></trkpt><trkpt lat="42.3269733" lon="13.6924283"><ele>1302.0</ele><time>2026-04-04T14:29:04.025Z</time></trkpt><trkpt lat="42.326965" lon="13.6922983"><ele>1304.0</ele><time>2026-04-04T14:29:05.025Z</time></trkpt><trkpt lat="42.3269517" lon="13.6921717"><ele>1306.0</ele><time>2026-04-04T14:29:06.025Z</time></trkpt><trkpt lat="42.3269383" lon="13.6920367"><ele>1308.0</ele><time>2026-04-04T14:29:07.025Z</time></trkpt><trkpt lat="42.326925" lon="13.6918967"><ele>1310.0</ele><time>2026-04-04T14:29:08.025Z</time></trkpt><trkpt lat="42.32691" lon="13.69176"><ele>1311.6</ele><time>2026-04-04T14:29:09.025Z</time></trkpt><trkpt lat="42.3269" lon="13.6916217"><ele>1313.2</ele><time>2026-04-04T14:29:10.025Z</time></trkpt><trkpt lat="42.3268883" lon="13.691485"><ele>1314.8000000000002</ele><time>2026-04-04T14:29:11.025Z</time></trkpt><trkpt lat="42.3268817" lon="13.6913483"><ele>1316.4</ele><time>2026-04-04T14:29:12.025Z</time></trkpt><trkpt lat="42.32687" lon="13.6912183"><ele>1318.0</ele><time>2026-04-04T14:29:13.025Z</time></trkpt><trkpt lat="42.3268583" lon="13.6910983"><ele>1318.6000000000001</ele><time>2026-04-04T14:29:14.025Z</time></trkpt><trkpt lat="42.3268533" lon="13.690975"><ele>1319.2</ele><time>2026-04-04T14:29:15.025Z</time></trkpt><trkpt lat="42.3268633" lon="13.69085"><ele>1319.8</ele><time>2026-04-04T14:29:16.025Z</time></trkpt><trkpt lat="42.3268817" lon="13.69072"><ele>1320.4</ele><time>2026-04-04T14:29:17.025Z</time></trkpt><trkpt lat="42.32691" lon="13.6905883"><ele>1321.0</ele><time>2026-04-04T14:29:18.025Z</time></trkpt><trkpt lat="42.32694" lon="13.69045"><ele>1321.0</ele><time>2026-04-04T14:29:19.024Z</time></trkpt><trkpt lat="42.3269717" lon="13.6903183"><ele>1321.0</ele><time>2026-04-04T14:29:20.025Z</time></trkpt><trkpt lat="42.3270083" lon="13.6901883"><ele>1321.0</ele><time>2026-04-04T14:29:21.025Z</time></trkpt><trkpt lat="42.3270517" lon="13.690055"><ele>1321.0</ele><time>2026-04-04T14:29:22.025Z</time></trkpt><trkpt lat="42.327095" lon="13.6899183"><ele>1321.0</ele><time>2026-04-04T14:29:23.025Z</time></trkpt><trkpt lat="42.3271383" lon="13.6897883"><ele>1319.1999999999998</ele><time>2026-04-04T14:29:24.025Z</time></trkpt><trkpt lat="42.3271817" lon="13.689655"><ele>1317.3999999999999</ele><time>2026-04-04T14:29:25.025Z</time></trkpt><trkpt lat="42.3272283" lon="13.6895267"><ele>1315.6</ele><time>2026-04-04T14:29:26.025Z</time></trkpt><trkpt lat="42.327275" lon="13.6894017"><ele>1313.8</ele><time>2026-04-04T14:29:27.025Z</time></trkpt><trkpt lat="42.3273233" lon="13.68928"><ele>1312.0</ele><time>2026-04-04T14:29:28.024Z</time></trkpt><trkpt lat="42.3273733" lon="13.6891583"><ele>1315.8</ele><time>2026-04-04T14:29:29.025Z</time></trkpt><trkpt lat="42.327425" lon="13.689035"><ele>1319.6</ele><time>2026-04-04T14:29:30.025Z</time></trkpt><trkpt lat="42.32749" lon="13.6889067"><ele>1323.3999999999999</ele><time>2026-04-04T14:29:31.024Z</time></trkpt><trkpt lat="42.32755" lon="13.6887883"><ele>1327.1999999999998</ele><time>2026-04-04T14:29:32.025Z</time></trkpt><trkpt lat="42.3276117" lon="13.6886717"><ele>1331.0</ele><time>2026-04-04T14:29:33.025Z</time></trkpt><trkpt lat="42.3276717" lon="13.6885567"><ele>1331.0</ele><time>2026-04-04T14:29:34.025Z</time></trkpt><trkpt lat="42.3277317" lon="13.6884383"><ele>1331.0</ele><time>2026-04-04T14:29:35.025Z</time></trkpt><trkpt lat="42.32779" lon="13.688325"><ele>1331.0</ele><time>2026-04-04T14:29:36.025Z</time></trkpt><trkpt lat="42.32784" lon="13.68821"><ele>1331.0</ele><time>2026-04-04T14:29:37.025Z</time></trkpt><trkpt lat="42.3278917" lon="13.6880917"><ele>1331.0</ele><time>2026-04-04T14:29:38.025Z</time></trkpt><trkpt lat="42.327935" lon="13.6879767"><ele>1331.0</ele><time>2026-04-04T14:29:39.024Z</time></trkpt><trkpt lat="42.32797" lon="13.6878617"><ele>1331.0</ele><time>2026-04-04T14:29:40.025Z</time></trkpt><trkpt lat="42.327995" lon="13.68775"><ele>1331.0</ele><time>2026-04-04T14:29:41.025Z</time></trkpt><trkpt lat="42.3280133" lon="13.6876467"><ele>1331.0</ele><time>2026-04-04T14:29:42.025Z</time></trkpt><trkpt lat="42.3280267" lon="13.6875583"><ele>1331.0</ele><time>2026-04-04T14:29:43.025Z</time></trkpt><trkpt lat="42.32802" lon="13.6874117"><ele>1331.0</ele><time>2026-04-04T14:29:45.025Z</time></trkpt><trkpt lat="42.32801" lon="13.6872833"><ele>1328.6666666666667</ele><time>2026-04-04T14:29:47.025Z</time></trkpt><trkpt lat="42.32799" lon="13.6871517"><ele>1326.3333333333335</ele><time>2026-04-04T14:29:49.025Z</time></trkpt><trkpt lat="42.3280083" lon="13.6870467"><ele>1324.0</ele><time>2026-04-04T14:29:51.025Z</time></trkpt><trkpt lat="42.328085" lon="13.6870033"><ele>1321.6666666666667</ele><time>2026-04-04T14:29:54.025Z</time></trkpt><trkpt lat="42.3281383" lon="13.6870517"><ele>1319.3333333333333</ele><time>2026-04-04T14:29:56.025Z</time></trkpt><trkpt lat="42.3281633" lon="13.6871567"><ele>1317.0</ele><time>2026-04-04T14:29:58.025Z</time></trkpt><trkpt lat="42.3281667" lon="13.6872817"><ele>1319.8</ele><time>2026-04-04T14:30:00.025Z</time></trkpt><trkpt lat="42.3281467" lon="13.6874083"><ele>1322.6</ele><time>2026-04-04T14:30:02.025Z</time></trkpt><trkpt lat="42.3281267" lon="13.68755"><ele>1325.3999999999999</ele><time>2026-04-04T14:30:04.025Z</time></trkpt><trkpt lat="42.3281117" lon="13.6876367"><ele>1328.1999999999998</ele><time>2026-04-04T14:30:05.025Z</time></trkpt><trkpt lat="42.3280683" lon="13.6878317"><ele>1331.0</ele><time>2026-04-04T14:30:07.025Z</time></trkpt><trkpt lat="42.3280433" lon="13.6879317"><ele>1331.0</ele><time>2026-04-04T14:30:08.025Z</time></trkpt><trkpt lat="42.3280167" lon="13.688035"><ele>1331.0</ele><time>2026-04-04T14:30:09.025Z</time></trkpt><trkpt lat="42.3279917" lon="13.6881383"><ele>1331.0</ele><time>2026-04-04T14:30:10.025Z</time></trkpt><trkpt lat="42.3279683" lon="13.6882417"><ele>1331.0</ele><time>2026-04-04T14:30:11.025Z</time></trkpt><trkpt lat="42.3279433" lon="13.688355"><ele>1331.0</ele><time>2026-04-04T14:30:12.025Z</time></trkpt><trkpt lat="42.3279133" lon="13.68847"><ele>1331.0</ele><time>2026-04-04T14:30:13.025Z</time></trkpt><trkpt lat="42.3278767" lon="13.6885817"><ele>1334.0</ele><time>2026-04-04T14:30:14.025Z</time></trkpt><trkpt lat="42.327855" lon="13.6886883"><ele>1337.0</ele><time>2026-04-04T14:30:15.025Z</time></trkpt><trkpt lat="42.327835" lon="13.688785"><ele>1340.0</ele><time>2026-04-04T14:30:16.024Z</time></trkpt><trkpt lat="42.3278117" lon="13.6888833"><ele>1343.0</ele><time>2026-04-04T14:30:17.025Z</time></trkpt><trkpt lat="42.3277833" lon="13.6889783"><ele>1346.0</ele><time>2026-04-04T14:30:18.025Z</time></trkpt><trkpt lat="42.32775" lon="13.6890733"><ele>1349.0</ele><time>2026-04-04T14:30:19.025Z</time></trkpt><trkpt lat="42.3277167" lon="13.6891633"><ele>1349.0</ele><time>2026-04-04T14:30:20.025Z</time></trkpt><trkpt lat="42.327685" lon="13.6892617"><ele>1349.0</ele><time>2026-04-04T14:30:21.025Z</time></trkpt><trkpt lat="42.32766" lon="13.689355"><ele>1349.0</ele><time>2026-04-04T14:30:22.025Z</time></trkpt><trkpt lat="42.3276317" lon="13.689455"><ele>1349.0</ele><time>2026-04-04T14:30:23.025Z</time></trkpt><trkpt lat="42.3276033" lon="13.6895633"><ele>1349.0</ele><time>2026-04-04T14:30:24.025Z</time></trkpt><trkpt lat="42.3275617" lon="13.689785"><ele>1351.4285714285713</ele><time>2026-04-04T14:30:26.025Z</time></trkpt><trkpt lat="42.3275433" lon="13.6898883"><ele>1353.857142857143</ele><time>2026-04-04T14:30:27.025Z</time></trkpt><trkpt lat="42.3275333" lon="13.689985"><ele>1356.2857142857142</ele><time>2026-04-04T14:30:28.025Z</time></trkpt><trkpt lat="42.3275333" lon="13.690085"><ele>1358.7142857142858</ele><time>2026-04-04T14:30:29.025Z</time></trkpt><trkpt lat="42.3275267" lon="13.69018"><ele>1361.142857142857</ele><time>2026-04-04T14:30:30.025Z</time></trkpt><trkpt lat="42.3275167" lon="13.6902783"><ele>1363.5714285714287</ele><time>2026-04-04T14:30:31.025Z</time></trkpt><trkpt lat="42.32751" lon="13.690375"><ele>1366.0</ele><time>2026-04-04T14:30:32.025Z</time></trkpt><trkpt lat="42.32751" lon="13.6904767"><ele>1367.5</ele><time>2026-04-04T14:30:33.025Z</time></trkpt><trkpt lat="42.3275133" lon="13.69058"><ele>1369.0</ele><time>2026-04-04T14:30:34.025Z</time></trkpt><trkpt lat="42.3275183" lon="13.69069"><ele>1370.5</ele><time>2026-04-04T14:30:35.025Z</time></trkpt><trkpt lat="42.3275317" lon="13.6907867"><ele>1372.0</ele><time>2026-04-04T14:30:36.025Z</time></trkpt><trkpt lat="42.3275483" lon="13.690885"><ele>1373.5</ele><time>2026-04-04T14:30:37.025Z</time></trkpt><trkpt lat="42.3275633" lon="13.690985"><ele>1375.0</ele><time>2026-04-04T14:30:38.025Z</time></trkpt><trkpt lat="42.3275783" lon="13.6910833"><ele>1373.5</ele><time>2026-04-04T14:30:39.025Z</time></trkpt><trkpt lat="42.3275967" lon="13.6911867"><ele>1372.0</ele><time>2026-04-04T14:30:40.025Z</time></trkpt><trkpt lat="42.3276233" lon="13.6912917"><ele>1370.5</ele><time>2026-04-04T14:30:41.025Z</time></trkpt><trkpt lat="42.3276467" lon="13.6913917"><ele>1369.0</ele><time>2026-04-04T14:30:42.025Z</time></trkpt><trkpt lat="42.3276733" lon="13.6914967"><ele>1367.5</ele><time>2026-04-04T14:30:43.025Z</time></trkpt><trkpt lat="42.327705" lon="13.6915967"><ele>1366.0</ele><time>2026-04-04T14:30:44.024Z</time></trkpt><trkpt lat="42.3277333" lon="13.6916967"><ele>1366.0</ele><time>2026-04-04T14:30:45.025Z</time></trkpt><trkpt lat="42.3277583" lon="13.6917817"><ele>1366.0</ele><time>2026-04-04T14:30:46.025Z</time></trkpt><trkpt lat="42.3277967" lon="13.6919033"><ele>1366.0</ele><time>2026-04-04T14:30:48.025Z</time></trkpt><trkpt lat="42.3278533" lon="13.692025"><ele>1366.0</ele><time>2026-04-04T14:31:01.025Z</time></trkpt><trkpt lat="42.3278917" lon="13.6921167"><ele>1366.0</ele><time>2026-04-04T14:31:03.025Z</time></trkpt><trkpt lat="42.327935" lon="13.6922367"><ele>1366.0</ele><time>2026-04-04T14:31:05.025Z</time></trkpt><trkpt lat="42.3279867" lon="13.6923633"><ele>1366.0</ele><time>2026-04-04T14:31:07.025Z</time></trkpt><trkpt lat="42.3280433" lon="13.6924983"><ele>1366.0</ele><time>2026-04-04T14:31:09.025Z</time></trkpt><trkpt lat="42.32807" lon="13.6925783"><ele>1366.0</ele><time>2026-04-04T14:31:10.025Z</time></trkpt><trkpt lat="42.3281117" lon="13.6927117"><ele>1366.0</ele><time>2026-04-04T14:31:12.025Z</time></trkpt><trkpt lat="42.32815" lon="13.692805"><ele>1366.0</ele><time>2026-04-04T14:31:14.025Z</time></trkpt><trkpt lat="42.3282033" lon="13.6928517"><ele>1366.0</ele><time>2026-04-04T14:31:16.025Z</time></trkpt><trkpt lat="42.328275" lon="13.6927967"><ele>1366.0</ele><time>2026-04-04T14:31:27.025Z</time></trkpt><trkpt lat="42.3282667" lon="13.692695"><ele>1382.0</ele><time>2026-04-04T14:31:43.025Z</time></trkpt><trkpt lat="42.3282933" lon="13.6928167"><ele>1366.0</ele><time>2026-04-04T14:34:26.024Z</time></trkpt></trkseg><trkseg><trkpt lat="42.3283287" lon="13.6930092"><ele>1366.0</ele><time>2026-04-04T16:02:57.961Z</time></trkpt><trkpt lat="42.3282991" lon="13.692894"><ele>1366.0</ele><time>2026-04-04T16:02:58.961Z</time></trkpt><trkpt lat="42.3282785" lon="13.6930614"><ele>1366.0</ele><time>2026-04-04T16:02:59.961Z</time></trkpt><trkpt lat="42.3282865" lon="13.6929744"><ele>1366.0</ele><time>2026-04-04T16:03:09.027Z</time></trkpt><trkpt lat="42.3282708" lon="13.6928337"><ele>1366.0</ele><time>2026-04-04T16:04:50.027Z</time></trkpt><trkpt lat="42.3281867" lon="13.6928233"><ele>1364.0</ele><time>2026-04-04T16:04:56.027Z</time></trkpt><trkpt lat="42.3281283" lon="13.6927467"><ele>1362.0</ele><time>2026-04-04T16:04:58.027Z</time></trkpt><trkpt lat="42.328085" lon="13.692645"><ele>1360.0</ele><time>2026-04-04T16:05:00.027Z</time></trkpt><trkpt lat="42.3280483" lon="13.6925467"><ele>1358.0</ele><time>2026-04-04T16:05:02.027Z</time></trkpt><trkpt lat="42.3280117" lon="13.69245"><ele>1356.0</ele><time>2026-04-04T16:05:04.027Z</time></trkpt><trkpt lat="42.3279767" lon="13.6923683"><ele>1354.0</ele><time>2026-04-04T16:05:06.027Z</time></trkpt><trkpt lat="42.3279417" lon="13.6922933"><ele>1354.0</ele><time>2026-04-04T16:05:08.027Z</time></trkpt><trkpt lat="42.3279117" lon="13.692215"><ele>1354.0</ele><time>2026-04-04T16:05:10.028Z</time></trkpt><trkpt lat="42.3278783" lon="13.6921333"><ele>1354.0</ele><time>2026-04-04T16:05:12.027Z</time></trkpt><trkpt lat="42.3278417" lon="13.69206"><ele>1354.0</ele><time>2026-04-04T16:05:14.028Z</time></trkpt><trkpt lat="42.32781" lon="13.6919583"><ele>1354.0</ele><time>2026-04-04T16:05:16.028Z</time></trkpt><trkpt lat="42.327765" lon="13.6918183"><ele>1354.0</ele><time>2026-04-04T16:05:18.028Z</time></trkpt><trkpt lat="42.3277233" lon="13.6916683"><ele>1356.0</ele><time>2026-04-04T16:05:20.028Z</time></trkpt><trkpt lat="42.3277167" lon="13.6915783"><ele>1358.0</ele><time>2026-04-04T16:05:21.028Z</time></trkpt><trkpt lat="42.3276717" lon="13.691425"><ele>1360.0</ele><time>2026-04-04T16:05:23.028Z</time></trkpt><trkpt lat="42.3276483" lon="13.6913367"><ele>1362.0</ele><time>2026-04-04T16:05:24.028Z</time></trkpt><trkpt lat="42.327625" lon="13.69125"><ele>1364.0</ele><time>2026-04-04T16:05:25.028Z</time></trkpt><trkpt lat="42.327605" lon="13.6911567"><ele>1366.0</ele><time>2026-04-04T16:05:26.028Z</time></trkpt><trkpt lat="42.3275883" lon="13.691065"><ele>1367.5</ele><time>2026-04-04T16:05:27.028Z</time></trkpt><trkpt lat="42.32757" lon="13.6909667"><ele>1369.0</ele><time>2026-04-04T16:05:28.028Z</time></trkpt><trkpt lat="42.327555" lon="13.69087"><ele>1370.5</ele><time>2026-04-04T16:05:29.028Z</time></trkpt><trkpt lat="42.3275383" lon="13.6907617"><ele>1372.0</ele><time>2026-04-04T16:05:30.028Z</time></trkpt><trkpt lat="42.327525" lon="13.69065"><ele>1373.5</ele><time>2026-04-04T16:05:31.028Z</time></trkpt><trkpt lat="42.32751" lon="13.6905367"><ele>1375.0</ele><time>2026-04-04T16:05:32.027Z</time></trkpt><trkpt lat="42.32751" lon="13.690425"><ele>1375.0</ele><time>2026-04-04T16:05:33.028Z</time></trkpt><trkpt lat="42.32751" lon="13.6903083"><ele>1375.0</ele><time>2026-04-04T16:05:34.028Z</time></trkpt><trkpt lat="42.3275117" lon="13.6902017"><ele>1375.0</ele><time>2026-04-04T16:05:35.028Z</time></trkpt><trkpt lat="42.3275117" lon="13.6901017"><ele>1375.0</ele><time>2026-04-04T16:05:36.027Z</time></trkpt><trkpt lat="42.3275083" lon="13.6899883"><ele>1375.0</ele><time>2026-04-04T16:05:37.028Z</time></trkpt><trkpt lat="42.32752" lon="13.6898683"><ele>1375.0</ele><time>2026-04-04T16:05:38.028Z</time></trkpt><trkpt lat="42.3275333" lon="13.6897533"><ele>1373.2</ele><time>2026-04-04T16:05:39.028Z</time></trkpt><trkpt lat="42.3275633" lon="13.6896267"><ele>1371.4</ele><time>2026-04-04T16:05:40.028Z</time></trkpt><trkpt lat="42.3275967" lon="13.6894983"><ele>1369.6</ele><time>2026-04-04T16:05:41.028Z</time></trkpt><trkpt lat="42.32763" lon="13.6893733"><ele>1367.8</ele><time>2026-04-04T16:05:42.028Z</time></trkpt><trkpt lat="42.3276583" lon="13.6892583"><ele>1366.0</ele><time>2026-04-04T16:05:43.028Z</time></trkpt><trkpt lat="42.327695" lon="13.689145"><ele>1363.1666666666665</ele><time>2026-04-04T16:05:44.028Z</time></trkpt><trkpt lat="42.3277333" lon="13.6890467"><ele>1360.3333333333333</ele><time>2026-04-04T16:05:45.028Z</time></trkpt><trkpt lat="42.3277717" lon="13.68895"><ele>1357.5</ele><time>2026-04-04T16:05:46.028Z</time></trkpt><trkpt lat="42.3278067" lon="13.6888517"><ele>1354.6666666666667</ele><time>2026-04-04T16:05:47.028Z</time></trkpt><trkpt lat="42.3278417" lon="13.68876"><ele>1351.8333333333335</ele><time>2026-04-04T16:05:48.028Z</time></trkpt><trkpt lat="42.3278717" lon="13.688675"><ele>1349.0</ele><time>2026-04-04T16:05:49.028Z</time></trkpt><trkpt lat="42.3278933" lon="13.6885883"><ele>1346.4285714285713</ele><time>2026-04-04T16:05:50.028Z</time></trkpt><trkpt lat="42.3279183" lon="13.688505"><ele>1343.857142857143</ele><time>2026-04-04T16:05:51.028Z</time></trkpt><trkpt lat="42.3279367" lon="13.6884217"><ele>1341.2857142857142</ele><time>2026-04-04T16:05:52.028Z</time></trkpt><trkpt lat="42.327955" lon="13.688335"><ele>1338.7142857142858</ele><time>2026-04-04T16:05:53.028Z</time></trkpt><trkpt lat="42.32798" lon="13.6882417"><ele>1336.142857142857</ele><time>2026-04-04T16:05:54.028Z</time></trkpt><trkpt lat="42.328005" lon="13.6881367"><ele>1333.5714285714287</ele><time>2026-04-04T16:05:55.028Z</time></trkpt><trkpt lat="42.32803" lon="13.6880283"><ele>1331.0</ele><time>2026-04-04T16:05:56.028Z</time></trkpt><trkpt lat="42.3280517" lon="13.6879233"><ele>1338.6666666666667</ele><time>2026-04-04T16:05:57.028Z</time></trkpt><trkpt lat="42.3280717" lon="13.68782"><ele>1346.3333333333335</ele><time>2026-04-04T16:05:58.028Z</time></trkpt><trkpt lat="42.3280883" lon="13.6877183"><ele>1354.0</ele><time>2026-04-04T16:05:59.028Z</time></trkpt><trkpt lat="42.3281117" lon="13.6876117"><ele>1361.6666666666667</ele><time>2026-04-04T16:06:00.028Z</time></trkpt><trkpt lat="42.32813" lon="13.687515"><ele>1369.3333333333333</ele><time>2026-04-04T16:06:01.028Z</time></trkpt><trkpt lat="42.328145" lon="13.68742"><ele>1377.0</ele><time>2026-04-04T16:06:02.028Z</time></trkpt><trkpt lat="42.32816" lon="13.6873283"><ele>1377.0</ele><time>2026-04-04T16:06:03.028Z</time></trkpt><trkpt lat="42.3281867" lon="13.6871617"><ele>1377.0</ele><time>2026-04-04T16:06:05.028Z</time></trkpt><trkpt lat="42.3281633" lon="13.687025"><ele>1377.0</ele><time>2026-04-04T16:06:07.028Z</time></trkpt><trkpt lat="42.32808" lon="13.68699"><ele>1377.0</ele><time>2026-04-04T16:06:09.028Z</time></trkpt><trkpt lat="42.3280233" lon="13.687065"><ele>1377.0</ele><time>2026-04-04T16:06:11.028Z</time></trkpt><trkpt lat="42.3280083" lon="13.687155"><ele>1367.8</ele><time>2026-04-04T16:06:12.028Z</time></trkpt><trkpt lat="42.3280083" lon="13.68727"><ele>1358.6</ele><time>2026-04-04T16:06:13.028Z</time></trkpt><trkpt lat="42.3280183" lon="13.68738"><ele>1349.3999999999999</ele><time>2026-04-04T16:06:14.028Z</time></trkpt><trkpt lat="42.3280333" lon="13.6875683"><ele>1340.1999999999998</ele><time>2026-04-04T16:06:16.028Z</time></trkpt><trkpt lat="42.3280267" lon="13.6876617"><ele>1331.0</ele><time>2026-04-04T16:06:17.028Z</time></trkpt><trkpt lat="42.328015" lon="13.6877733"><ele>1331.0</ele><time>2026-04-04T16:06:18.028Z</time></trkpt><trkpt lat="42.3279783" lon="13.6878967"><ele>1331.0</ele><time>2026-04-04T16:06:19.028Z</time></trkpt><trkpt lat="42.327935" lon="13.6880283"><ele>1331.0</ele><time>2026-04-04T16:06:20.028Z</time></trkpt><trkpt lat="42.3278917" lon="13.6881517"><ele>1331.0</ele><time>2026-04-04T16:06:21.028Z</time></trkpt><trkpt lat="42.3278433" lon="13.6882683"><ele>1331.0</ele><time>2026-04-04T16:06:22.028Z</time></trkpt><trkpt lat="42.3277917" lon="13.68838"><ele>1331.0</ele><time>2026-04-04T16:06:23.028Z</time></trkpt><trkpt lat="42.3277333" lon="13.688505"><ele>1331.0</ele><time>2026-04-04T16:06:24.028Z</time></trkpt><trkpt lat="42.3276783" lon="13.6886217"><ele>1331.0</ele><time>2026-04-04T16:06:25.028Z</time></trkpt><trkpt lat="42.3276233" lon="13.688735"><ele>1331.0</ele><time>2026-04-04T16:06:26.028Z</time></trkpt><trkpt lat="42.3275733" lon="13.6888383"><ele>1331.0</ele><time>2026-04-04T16:06:27.028Z</time></trkpt><trkpt lat="42.327525" lon="13.68893"><ele>1334.0</ele><time>2026-04-04T16:06:28.028Z</time></trkpt><trkpt lat="42.3274783" lon="13.6890183"><ele>1337.0</ele><time>2026-04-04T16:06:29.027Z</time></trkpt><trkpt lat="42.327435" lon="13.6891083"><ele>1340.0</ele><time>2026-04-04T16:06:30.028Z</time></trkpt><trkpt lat="42.327395" lon="13.6891983"><ele>1343.0</ele><time>2026-04-04T16:06:31.028Z</time></trkpt><trkpt lat="42.3273517" lon="13.6892883"><ele>1346.0</ele><time>2026-04-04T16:06:32.028Z</time></trkpt><trkpt lat="42.3273083" lon="13.6893767"><ele>1349.0</ele><time>2026-04-04T16:06:33.028Z</time></trkpt><trkpt lat="42.3272683" lon="13.68947"><ele>1351.8333333333335</ele><time>2026-04-04T16:06:34.028Z</time></trkpt><trkpt lat="42.32723" lon="13.68957"><ele>1354.6666666666667</ele><time>2026-04-04T16:06:35.028Z</time></trkpt><trkpt lat="42.3271917" lon="13.6896717"><ele>1357.5</ele><time>2026-04-04T16:06:36.028Z</time></trkpt><trkpt lat="42.3271517" lon="13.68977"><ele>1360.3333333333333</ele><time>2026-04-04T16:06:37.028Z</time></trkpt><trkpt lat="42.32711" lon="13.6898717"><ele>1363.1666666666665</ele><time>2026-04-04T16:06:38.028Z</time></trkpt><trkpt lat="42.3270733" lon="13.6899767"><ele>1366.0</ele><time>2026-04-04T16:06:39.028Z</time></trkpt><trkpt lat="42.3270433" lon="13.6900767"><ele>1358.5</ele><time>2026-04-04T16:06:40.028Z</time></trkpt><trkpt lat="42.32701" lon="13.6901767"><ele>1351.0</ele><time>2026-04-04T16:06:41.028Z</time></trkpt><trkpt lat="42.3269833" lon="13.69028"><ele>1343.5</ele><time>2026-04-04T16:06:42.028Z</time></trkpt><trkpt lat="42.32696" lon="13.6903667"><ele>1336.0</ele><time>2026-04-04T16:06:43.027Z</time></trkpt><trkpt lat="42.32694" lon="13.6904617"><ele>1328.5</ele><time>2026-04-04T16:06:44.028Z</time></trkpt><trkpt lat="42.326925" lon="13.690545"><ele>1321.0</ele><time>2026-04-04T16:06:45.028Z</time></trkpt><trkpt lat="42.3269033" lon="13.6907033"><ele>1321.0</ele><time>2026-04-04T16:06:47.028Z</time></trkpt><trkpt lat="42.3268817" lon="13.69087"><ele>1321.0</ele><time>2026-04-04T16:06:49.027Z</time></trkpt><trkpt lat="42.3268717" lon="13.6909717"><ele>1321.0</ele><time>2026-04-04T16:06:50.028Z</time></trkpt><trkpt lat="42.3268667" lon="13.69108"><ele>1321.0</ele><time>2026-04-04T16:06:51.028Z</time></trkpt><trkpt lat="42.326865" lon="13.69119"><ele>1321.0</ele><time>2026-04-04T16:06:52.027Z</time></trkpt><trkpt lat="42.3268767" lon="13.691295"><ele>1321.0</ele><time>2026-04-04T16:06:53.028Z</time></trkpt><trkpt lat="42.32688" lon="13.6914067"><ele>1320.4</ele><time>2026-04-04T16:06:54.028Z</time></trkpt><trkpt lat="42.3268917" lon="13.6915233"><ele>1319.8</ele><time>2026-04-04T16:06:55.028Z</time></trkpt><trkpt lat="42.3269083" lon="13.69164"><ele>1319.2</ele><time>2026-04-04T16:06:56.028Z</time></trkpt><trkpt lat="42.3269233" lon="13.6917683"><ele>1318.6000000000001</ele><time>2026-04-04T16:06:57.028Z</time></trkpt><trkpt lat="42.3269333" lon="13.6918967"><ele>1318.0</ele><time>2026-04-04T16:06:58.028Z</time></trkpt><trkpt lat="42.3269467" lon="13.692025"><ele>1316.4</ele><time>2026-04-04T16:06:59.028Z</time></trkpt><trkpt lat="42.3269583" lon="13.6921667"><ele>1314.8000000000002</ele><time>2026-04-04T16:07:00.028Z</time></trkpt><trkpt lat="42.3269717" lon="13.6923"><ele>1313.2</ele><time>2026-04-04T16:07:01.028Z</time></trkpt><trkpt lat="42.3269833" lon="13.6924333"><ele>1311.6</ele><time>2026-04-04T16:07:02.028Z</time></trkpt><trkpt lat="42.3269933" lon="13.69257"><ele>1310.0</ele><time>2026-04-04T16:07:03.028Z</time></trkpt><trkpt lat="42.3270033" lon="13.6927067"><ele>1308.0</ele><time>2026-04-04T16:07:04.028Z</time></trkpt><trkpt lat="42.3270167" lon="13.692845"><ele>1306.0</ele><time>2026-04-04T16:07:05.028Z</time></trkpt><trkpt lat="42.32703" lon="13.692975"><ele>1304.0</ele><time>2026-04-04T16:07:06.028Z</time></trkpt><trkpt lat="42.3270333" lon="13.6930933"><ele>1302.0</ele><time>2026-04-04T16:07:07.028Z</time></trkpt><trkpt lat="42.327045" lon="13.693205"><ele>1300.0</ele><time>2026-04-04T16:07:08.027Z</time></trkpt><trkpt lat="42.3270667" lon="13.69332"><ele>1300.0</ele><time>2026-04-04T16:07:09.028Z</time></trkpt><trkpt lat="42.3270933" lon="13.6934333"><ele>1300.0</ele><time>2026-04-04T16:07:10.028Z</time></trkpt><trkpt lat="42.327125" lon="13.6935483"><ele>1300.0</ele><time>2026-04-04T16:07:11.028Z</time></trkpt><trkpt lat="42.327155" lon="13.6936683"><ele>1300.0</ele><time>2026-04-04T16:07:12.028Z</time></trkpt><trkpt lat="42.32718" lon="13.693795"><ele>1300.0</ele><time>2026-04-04T16:07:13.028Z</time></trkpt><trkpt lat="42.327205" lon="13.69392"><ele>1301.8333333333333</ele><time>2026-04-04T16:07:14.028Z</time></trkpt><trkpt lat="42.327235" lon="13.6940383"><ele>1303.6666666666665</ele><time>2026-04-04T16:07:15.028Z</time></trkpt><trkpt lat="42.3272567" lon="13.6941617"><ele>1305.5</ele><time>2026-04-04T16:07:16.028Z</time></trkpt><trkpt lat="42.327275" lon="13.6942783"><ele>1307.3333333333333</ele><time>2026-04-04T16:07:17.028Z</time></trkpt><trkpt lat="42.327285" lon="13.69439"><ele>1309.1666666666667</ele><time>2026-04-04T16:07:18.028Z</time></trkpt><trkpt lat="42.327305" lon="13.6944933"><ele>1311.0</ele><time>2026-04-04T16:07:19.028Z</time></trkpt><trkpt lat="42.3273317" lon="13.6945783"><ele>1311.0</ele><time>2026-04-04T16:07:20.028Z</time></trkpt><trkpt lat="42.3273617" lon="13.694665"><ele>1311.0</ele><time>2026-04-04T16:07:21.027Z</time></trkpt><trkpt lat="42.32739" lon="13.6947483"><ele>1311.0</ele><time>2026-04-04T16:07:22.027Z</time></trkpt><trkpt lat="42.32742" lon="13.69483"><ele>1311.0</ele><time>2026-04-04T16:07:23.028Z</time></trkpt><trkpt lat="42.32747" lon="13.6949633"><ele>1311.0</ele><time>2026-04-04T16:07:25.028Z</time></trkpt><trkpt lat="42.32751" lon="13.6950767"><ele>1311.0</ele><time>2026-04-04T16:07:27.028Z</time></trkpt><trkpt lat="42.3275383" lon="13.695205"><ele>1308.8333333333333</ele><time>2026-04-04T16:07:29.027Z</time></trkpt><trkpt lat="42.32755" lon="13.6953567"><ele>1306.6666666666667</ele><time>2026-04-04T16:07:31.028Z</time></trkpt><trkpt lat="42.32755" lon="13.6954433"><ele>1304.5</ele><time>2026-04-04T16:07:32.028Z</time></trkpt><trkpt lat="42.3275517" lon="13.695535"><ele>1302.3333333333335</ele><time>2026-04-04T16:07:33.028Z</time></trkpt><trkpt lat="42.3275667" lon="13.695635"><ele>1300.1666666666667</ele><time>2026-04-04T16:07:34.028Z</time></trkpt><trkpt lat="42.3275917" lon="13.6957267"><ele>1298.0</ele><time>2026-04-04T16:07:35.028Z</time></trkpt><trkpt lat="42.32764" lon="13.69586"><ele>1298.0</ele><time>2026-04-04T16:07:37.028Z</time></trkpt><trkpt lat="42.3276883" lon="13.6959667"><ele>1298.0</ele><time>2026-04-04T16:07:39.028Z</time></trkpt><trkpt lat="42.3277333" lon="13.6960717"><ele>1298.0</ele><time>2026-04-04T16:07:41.028Z</time></trkpt><trkpt lat="42.3277583" lon="13.69618"><ele>1298.0</ele><time>2026-04-04T16:07:43.028Z</time></trkpt><trkpt lat="42.327765" lon="13.6963067"><ele>1298.0</ele><time>2026-04-04T16:07:45.028Z</time></trkpt><trkpt lat="42.3277583" lon="13.6964467"><ele>1296.8333333333335</ele><time>2026-04-04T16:07:47.028Z</time></trkpt><trkpt lat="42.3277367" lon="13.696615"><ele>1295.6666666666667</ele><time>2026-04-04T16:07:49.028Z</time></trkpt><trkpt lat="42.3277317" lon="13.696705"><ele>1294.5</ele><time>2026-04-04T16:07:50.028Z</time></trkpt><trkpt lat="42.327735" lon="13.6968083"><ele>1293.3333333333333</ele><time>2026-04-04T16:07:51.028Z</time></trkpt><trkpt lat="42.3277383" lon="13.69691"><ele>1292.1666666666665</ele><time>2026-04-04T16:07:52.028Z</time></trkpt><trkpt lat="42.3277417" lon="13.697"><ele>1291.0</ele><time>2026-04-04T16:07:53.028Z</time></trkpt><trkpt lat="42.3277533" lon="13.6970883"><ele>1289.1666666666665</ele><time>2026-04-04T16:07:54.028Z</time></trkpt><trkpt lat="42.3277733" lon="13.69718"><ele>1287.3333333333333</ele><time>2026-04-04T16:07:55.027Z</time></trkpt><trkpt lat="42.3277933" lon="13.6972667"><ele>1285.5</ele><time>2026-04-04T16:07:56.028Z</time></trkpt><trkpt lat="42.3278267" lon="13.6974"><ele>1283.6666666666667</ele><time>2026-04-04T16:07:58.028Z</time></trkpt><trkpt lat="42.3278667" lon="13.6974733"><ele>1281.8333333333335</ele><time>2026-04-04T16:08:00.027Z</time></trkpt><trkpt lat="42.3279133" lon="13.6975567"><ele>1280.0</ele><time>2026-04-04T16:08:02.028Z</time></trkpt><trkpt lat="42.32798" lon="13.6976383"><ele>1280.0</ele><time>2026-04-04T16:08:04.028Z</time></trkpt><trkpt lat="42.3280517" lon="13.697715"><ele>1280.0</ele><time>2026-04-04T16:08:06.028Z</time></trkpt><trkpt lat="42.328115" lon="13.6977783"><ele>1280.0</ele><time>2026-04-04T16:08:08.028Z</time></trkpt><trkpt lat="42.3281717" lon="13.6978383"><ele>1280.0</ele><time>2026-04-04T16:08:10.028Z</time></trkpt><trkpt lat="42.3282217" lon="13.6978983"><ele>1280.0</ele><time>2026-04-04T16:08:12.028Z</time></trkpt><trkpt lat="42.328275" lon="13.6979883"><ele>1280.0</ele><time>2026-04-04T16:08:15.028Z</time></trkpt><trkpt lat="42.3283067" lon="13.6980917"><ele>1280.1666666666667</ele><time>2026-04-04T16:08:19.028Z</time></trkpt><trkpt lat="42.3283" lon="13.6981767"><ele>1280.3333333333335</ele><time>2026-04-04T16:08:22.028Z</time></trkpt><trkpt lat="42.3282267" lon="13.6982317"><ele>1280.5</ele><time>2026-04-04T16:08:26.028Z</time></trkpt><trkpt lat="42.32817" lon="13.698135"><ele>1280.6666666666667</ele><time>2026-04-04T16:08:29.028Z</time></trkpt><trkpt lat="42.3281383" lon="13.6980333"><ele>1280.8333333333333</ele><time>2026-04-04T16:08:31.028Z</time></trkpt><trkpt lat="42.3280967" lon="13.697935"><ele>1281.0</ele><time>2026-04-04T16:08:33.028Z</time></trkpt><trkpt lat="42.3280183" lon="13.6978333"><ele>1280.75</ele><time>2026-04-04T16:08:35.028Z</time></trkpt><trkpt lat="42.32792" lon="13.6977267"><ele>1280.5</ele><time>2026-04-04T16:08:37.028Z</time></trkpt><trkpt lat="42.3278317" lon="13.69764"><ele>1280.25</ele><time>2026-04-04T16:08:39.028Z</time></trkpt><trkpt lat="42.3277667" lon="13.6975383"><ele>1280.0</ele><time>2026-04-04T16:08:41.028Z</time></trkpt><trkpt lat="42.327685" lon="13.6973883"><ele>1280.0</ele><time>2026-04-04T16:08:43.028Z</time></trkpt><trkpt lat="42.32764" lon="13.69729"><ele>1280.0</ele><time>2026-04-04T16:08:44.028Z</time></trkpt><trkpt lat="42.3275917" lon="13.6971883"><ele>1280.0</ele><time>2026-04-04T16:08:45.028Z</time></trkpt><trkpt lat="42.3275567" lon="13.6970783"><ele>1280.0</ele><time>2026-04-04T16:08:46.028Z</time></trkpt><trkpt lat="42.3275267" lon="13.6969817"><ele>1280.0</ele><time>2026-04-04T16:08:47.028Z</time></trkpt><trkpt lat="42.3274967" lon="13.696875"><ele>1280.0</ele><time>2026-04-04T16:08:48.028Z</time></trkpt><trkpt lat="42.3274633" lon="13.69675"><ele>1282.2</ele><time>2026-04-04T16:08:49.028Z</time></trkpt><trkpt lat="42.32743" lon="13.6966233"><ele>1284.4</ele><time>2026-04-04T16:08:50.028Z</time></trkpt><trkpt lat="42.327395" lon="13.696485"><ele>1286.6</ele><time>2026-04-04T16:08:51.028Z</time></trkpt><trkpt lat="42.3273733" lon="13.6963383"><ele>1288.8</ele><time>2026-04-04T16:08:52.028Z</time></trkpt><trkpt lat="42.3273533" lon="13.6961933"><ele>1291.0</ele><time>2026-04-04T16:08:53.028Z</time></trkpt><trkpt lat="42.3273183" lon="13.6960583"><ele>1292.4</ele><time>2026-04-04T16:08:54.028Z</time></trkpt><trkpt lat="42.327275" lon="13.69592"><ele>1293.8</ele><time>2026-04-04T16:08:55.028Z</time></trkpt><trkpt lat="42.3272233" lon="13.6957917"><ele>1295.2</ele><time>2026-04-04T16:08:56.028Z</time></trkpt><trkpt lat="42.32716" lon="13.6956617"><ele>1296.6000000000001</ele><time>2026-04-04T16:08:57.028Z</time></trkpt><trkpt lat="42.3270917" lon="13.695545"><ele>1298.0</ele><time>2026-04-04T16:08:58.028Z</time></trkpt><trkpt lat="42.3270183" lon="13.6954317"><ele>1293.4</ele><time>2026-04-04T16:08:59.028Z</time></trkpt><trkpt lat="42.3269483" lon="13.69532"><ele>1288.8000000000002</ele><time>2026-04-04T16:09:00.028Z</time></trkpt><trkpt lat="42.32688" lon="13.6952133"><ele>1284.2</ele><time>2026-04-04T16:09:01.028Z</time></trkpt><trkpt lat="42.3268217" lon="13.6951083"><ele>1279.6</ele><time>2026-04-04T16:09:02.028Z</time></trkpt><trkpt lat="42.3267583" lon="13.6950033"><ele>1275.0</ele><time>2026-04-04T16:09:03.028Z</time></trkpt><trkpt lat="42.3267017" lon="13.6948967"><ele>1275.0</ele><time>2026-04-04T16:09:04.028Z</time></trkpt><trkpt lat="42.3266517" lon="13.6947933"><ele>1275.0</ele><time>2026-04-04T16:09:05.028Z</time></trkpt><trkpt lat="42.3266033" lon="13.6946883"><ele>1275.0</ele><time>2026-04-04T16:09:06.028Z</time></trkpt><trkpt lat="42.326565" lon="13.6945833"><ele>1275.0</ele><time>2026-04-04T16:09:07.028Z</time></trkpt><trkpt lat="42.3265217" lon="13.6944817"><ele>1275.0</ele><time>2026-04-04T16:09:08.027Z</time></trkpt><trkpt lat="42.3264833" lon="13.694385"><ele>1275.0</ele><time>2026-04-04T16:09:09.028Z</time></trkpt><trkpt lat="42.3264417" lon="13.6942883"><ele>1277.0</ele><time>2026-04-04T16:09:10.028Z</time></trkpt><trkpt lat="42.3264033" lon="13.694195"><ele>1279.0</ele><time>2026-04-04T16:09:11.027Z</time></trkpt><trkpt lat="42.3263683" lon="13.6941017"><ele>1281.0</ele><time>2026-04-04T16:09:12.028Z</time></trkpt><trkpt lat="42.326335" lon="13.6940117"><ele>1283.0</ele><time>2026-04-04T16:09:13.028Z</time></trkpt><trkpt lat="42.3263067" lon="13.6939233"><ele>1285.0</ele><time>2026-04-04T16:09:14.028Z</time></trkpt><trkpt lat="42.3262783" lon="13.6938333"><ele>1287.0</ele><time>2026-04-04T16:09:15.028Z</time></trkpt><trkpt lat="42.32625" lon="13.693745"><ele>1289.0</ele><time>2026-04-04T16:09:16.028Z</time></trkpt><trkpt lat="42.3262233" lon="13.6936633"><ele>1283.5</ele><time>2026-04-04T16:09:17.027Z</time></trkpt><trkpt lat="42.3262017" lon="13.6935817"><ele>1278.0</ele><time>2026-04-04T16:09:18.028Z</time></trkpt><trkpt lat="42.3261767" lon="13.6934833"><ele>1272.5</ele><time>2026-04-04T16:09:19.028Z</time></trkpt><trkpt lat="42.3261483" lon="13.6933767"><ele>1267.0</ele><time>2026-04-04T16:09:20.028Z</time></trkpt><trkpt lat="42.3261167" lon="13.6932583"><ele>1261.5</ele><time>2026-04-04T16:09:21.028Z</time></trkpt><trkpt lat="42.32608" lon="13.6931333"><ele>1256.0</ele><time>2026-04-04T16:09:22.028Z</time></trkpt><trkpt lat="42.3260517" lon="13.6930017"><ele>1256.0</ele><time>2026-04-04T16:09:23.028Z</time></trkpt><trkpt lat="42.3260117" lon="13.6928733"><ele>1256.0</ele><time>2026-04-04T16:09:24.028Z</time></trkpt><trkpt lat="42.3259767" lon="13.69275"><ele>1256.0</ele><time>2026-04-04T16:09:25.028Z</time></trkpt><trkpt lat="42.3259583" lon="13.6926233"><ele>1256.0</ele><time>2026-04-04T16:09:26.028Z</time></trkpt><trkpt lat="42.3259467" lon="13.692505"><ele>1256.0</ele><time>2026-04-04T16:09:27.028Z</time></trkpt><trkpt lat="42.32594" lon="13.692395"><ele>1257.1666666666667</ele><time>2026-04-04T16:09:28.028Z</time></trkpt><trkpt lat="42.3259233" lon="13.6922983"><ele>1258.3333333333335</ele><time>2026-04-04T16:09:29.028Z</time></trkpt><trkpt lat="42.325855" lon="13.6921917"><ele>1259.5</ele><time>2026-04-04T16:09:31.028Z</time></trkpt><trkpt lat="42.3258133" lon="13.69226"><ele>1260.6666666666667</ele><time>2026-04-04T16:09:33.028Z</time></trkpt><trkpt lat="42.3258017" lon="13.69236"><ele>1261.8333333333333</ele><time>2026-04-04T16:09:34.028Z</time></trkpt><trkpt lat="42.3258217" lon="13.6925183"><ele>1263.0</ele><time>2026-04-04T16:09:35.028Z</time></trkpt><trkpt lat="42.3258583" lon="13.6927183"><ele>1260.6666666666667</ele><time>2026-04-04T16:09:36.028Z</time></trkpt><trkpt lat="42.325895" lon="13.692935"><ele>1258.3333333333335</ele><time>2026-04-04T16:09:37.027Z</time></trkpt><trkpt lat="42.3259217" lon="13.69314"><ele>1256.0</ele><time>2026-04-04T16:09:38.028Z</time></trkpt><trkpt lat="42.3259483" lon="13.6933333"><ele>1256.0</ele><time>2026-04-04T16:09:39.028Z</time></trkpt><trkpt lat="42.3259633" lon="13.693515"><ele>1256.0</ele><time>2026-04-04T16:09:40.028Z</time></trkpt><trkpt lat="42.3259867" lon="13.6936867"><ele>1256.0</ele><time>2026-04-04T16:09:41.028Z</time></trkpt><trkpt lat="42.326005" lon="13.69383"><ele>1256.0</ele><time>2026-04-04T16:09:42.028Z</time></trkpt><trkpt lat="42.326035" lon="13.693985"><ele>1254.2</ele><time>2026-04-04T16:09:43.028Z</time></trkpt><trkpt lat="42.32606" lon="13.6941167"><ele>1252.3999999999999</ele><time>2026-04-04T16:09:44.028Z</time></trkpt><trkpt lat="42.3260783" lon="13.6942533"><ele>1250.6</ele><time>2026-04-04T16:09:45.028Z</time></trkpt><trkpt lat="42.3261" lon="13.6943817"><ele>1248.8</ele><time>2026-04-04T16:09:46.028Z</time></trkpt><trkpt lat="42.326125" lon="13.69452"><ele>1247.0</ele><time>2026-04-04T16:09:47.028Z</time></trkpt><trkpt lat="42.3261433" lon="13.6946533"><ele>1244.8</ele><time>2026-04-04T16:09:48.028Z</time></trkpt><trkpt lat="42.326165" lon="13.694785"><ele>1242.6</ele><time>2026-04-04T16:09:49.028Z</time></trkpt><trkpt lat="42.3261967" lon="13.69492"><ele>1240.3999999999999</ele><time>2026-04-04T16:09:50.028Z</time></trkpt><trkpt lat="42.32623" lon="13.69506"><ele>1238.2</ele><time>2026-04-04T16:09:51.028Z</time></trkpt><trkpt lat="42.3262717" lon="13.6952"><ele>1236.0</ele><time>2026-04-04T16:09:52.028Z</time></trkpt><trkpt lat="42.3263117" lon="13.695335"><ele>1233.2</ele><time>2026-04-04T16:09:53.028Z</time></trkpt><trkpt lat="42.3263533" lon="13.6954683"><ele>1230.3999999999999</ele><time>2026-04-04T16:09:54.028Z</time></trkpt><trkpt lat="42.3264117" lon="13.695605"><ele>1227.6</ele><time>2026-04-04T16:09:55.028Z</time></trkpt><trkpt lat="42.3264633" lon="13.6957433"><ele>1224.8</ele><time>2026-04-04T16:09:56.028Z</time></trkpt><trkpt lat="42.3265" lon="13.6958817"><ele>1222.0</ele><time>2026-04-04T16:09:57.027Z</time></trkpt><trkpt lat="42.3265267" lon="13.6960283"><ele>1229.25</ele><time>2026-04-04T16:09:58.028Z</time></trkpt><trkpt lat="42.3265483" lon="13.696175"><ele>1236.5</ele><time>2026-04-04T16:09:59.028Z</time></trkpt><trkpt lat="42.3265617" lon="13.6963283"><ele>1243.75</ele><time>2026-04-04T16:10:00.028Z</time></trkpt><trkpt lat="42.32656" lon="13.6964767"><ele>1251.0</ele><time>2026-04-04T16:10:01.028Z</time></trkpt><trkpt lat="42.32656" lon="13.6966367"><ele>1251.0</ele><time>2026-04-04T16:10:02.028Z</time></trkpt><trkpt lat="42.3265733" lon="13.6967867"><ele>1251.0</ele><time>2026-04-04T16:10:03.028Z</time></trkpt><trkpt lat="42.3265933" lon="13.6969367"><ele>1251.0</ele><time>2026-04-04T16:10:04.028Z</time></trkpt><trkpt lat="42.326615" lon="13.6970833"><ele>1251.0</ele><time>2026-04-04T16:10:05.028Z</time></trkpt><trkpt lat="42.3266367" lon="13.6972183"><ele>1251.0</ele><time>2026-04-04T16:10:06.028Z</time></trkpt><trkpt lat="42.3266533" lon="13.697365"><ele>1248.8</ele><time>2026-04-04T16:10:07.028Z</time></trkpt><trkpt lat="42.32668" lon="13.6975033"><ele>1246.6</ele><time>2026-04-04T16:10:08.028Z</time></trkpt><trkpt lat="42.32671" lon="13.6976517"><ele>1244.4</ele><time>2026-04-04T16:10:09.028Z</time></trkpt><trkpt lat="42.3267417" lon="13.69779"><ele>1242.2</ele><time>2026-04-04T16:10:10.028Z</time></trkpt><trkpt lat="42.32677" lon="13.69791"><ele>1240.0</ele><time>2026-04-04T16:10:11.028Z</time></trkpt><trkpt lat="42.3267933" lon="13.69802"><ele>1238.0</ele><time>2026-04-04T16:10:12.028Z</time></trkpt><trkpt lat="42.3268167" lon="13.6981267"><ele>1236.0</ele><time>2026-04-04T16:10:13.028Z</time></trkpt><trkpt lat="42.326835" lon="13.6982417"><ele>1234.0</ele><time>2026-04-04T16:10:14.028Z</time></trkpt><trkpt lat="42.326855" lon="13.698355"><ele>1232.0</ele><time>2026-04-04T16:10:15.028Z</time></trkpt><trkpt lat="42.3268833" lon="13.6984733"><ele>1230.0</ele><time>2026-04-04T16:10:16.028Z</time></trkpt><trkpt lat="42.3269183" lon="13.6986"><ele>1228.0</ele><time>2026-04-04T16:10:17.028Z</time></trkpt><trkpt lat="42.326965" lon="13.6987233"><ele>1225.8</ele><time>2026-04-04T16:10:18.028Z</time></trkpt><trkpt lat="42.3270083" lon="13.6988483"><ele>1223.6</ele><time>2026-04-04T16:10:19.028Z</time></trkpt><trkpt lat="42.327055" lon="13.6989667"><ele>1221.4</ele><time>2026-04-04T16:10:20.028Z</time></trkpt><trkpt lat="42.3271" lon="13.6990867"><ele>1219.2</ele><time>2026-04-04T16:10:21.028Z</time></trkpt><trkpt lat="42.3271467" lon="13.69921"><ele>1217.0</ele><time>2026-04-04T16:10:22.028Z</time></trkpt><trkpt lat="42.3271867" lon="13.6993133"><ele>1217.0</ele><time>2026-04-04T16:10:23.028Z</time></trkpt><trkpt lat="42.3272233" lon="13.6994133"><ele>1217.0</ele><time>2026-04-04T16:10:24.028Z</time></trkpt><trkpt lat="42.3272583" lon="13.6995133"><ele>1217.0</ele><time>2026-04-04T16:10:25.028Z</time></trkpt><trkpt lat="42.327295" lon="13.6996067"><ele>1217.0</ele><time>2026-04-04T16:10:26.028Z</time></trkpt><trkpt lat="42.3273333" lon="13.6997083"><ele>1217.0</ele><time>2026-04-04T16:10:27.028Z</time></trkpt><trkpt lat="42.3273717" lon="13.6997883"><ele>1217.0</ele><time>2026-04-04T16:10:28.028Z</time></trkpt><trkpt lat="42.3274067" lon="13.6998683"><ele>1217.4</ele><time>2026-04-04T16:10:29.028Z</time></trkpt><trkpt lat="42.327435" lon="13.699955"><ele>1217.8000000000002</ele><time>2026-04-04T16:10:30.028Z</time></trkpt><trkpt lat="42.327455" lon="13.7000383"><ele>1218.2</ele><time>2026-04-04T16:10:31.028Z</time></trkpt><trkpt lat="42.327505" lon="13.700195"><ele>1218.6000000000001</ele><time>2026-04-04T16:10:33.028Z</time></trkpt><trkpt lat="42.3275767" lon="13.70034"><ele>1219.0</ele><time>2026-04-04T16:10:35.027Z</time></trkpt><trkpt lat="42.32761" lon="13.7004183"><ele>1219.0</ele><time>2026-04-04T16:10:36.028Z</time></trkpt><trkpt lat="42.3276367" lon="13.7005"><ele>1219.0</ele><time>2026-04-04T16:10:37.028Z</time></trkpt><trkpt lat="42.3276817" lon="13.7006433"><ele>1219.0</ele><time>2026-04-04T16:10:39.028Z</time></trkpt><trkpt lat="42.3277133" lon="13.7007183"><ele>1219.0</ele><time>2026-04-04T16:10:40.028Z</time></trkpt><trkpt lat="42.3277383" lon="13.7007967"><ele>1219.0</ele><time>2026-04-04T16:10:41.028Z</time></trkpt><trkpt lat="42.327765" lon="13.7008833"><ele>1219.0</ele><time>2026-04-04T16:10:42.028Z</time></trkpt><trkpt lat="42.3277933" lon="13.7009683"><ele>1219.0</ele><time>2026-04-04T16:10:43.028Z</time></trkpt><trkpt lat="42.3278233" lon="13.701065"><ele>1218.1666666666665</ele><time>2026-04-04T16:10:44.028Z</time></trkpt><trkpt lat="42.3278483" lon="13.7011733"><ele>1217.3333333333333</ele><time>2026-04-04T16:10:45.028Z</time></trkpt><trkpt lat="42.3278683" lon="13.70127"><ele>1216.5</ele><time>2026-04-04T16:10:46.028Z</time></trkpt><trkpt lat="42.32789" lon="13.701435"><ele>1215.6666666666667</ele><time>2026-04-04T16:10:48.028Z</time></trkpt><trkpt lat="42.3278917" lon="13.7015283"><ele>1214.8333333333335</ele><time>2026-04-04T16:10:49.028Z</time></trkpt><trkpt lat="42.3278983" lon="13.70162"><ele>1214.0</ele><time>2026-04-04T16:10:50.028Z</time></trkpt><trkpt lat="42.3279033" lon="13.701705"><ele>1214.0</ele><time>2026-04-04T16:10:51.028Z</time></trkpt><trkpt lat="42.3279" lon="13.7017933"><ele>1214.0</ele><time>2026-04-04T16:10:52.028Z</time></trkpt><trkpt lat="42.32788" lon="13.7018783"><ele>1214.0</ele><time>2026-04-04T16:10:53.028Z</time></trkpt><trkpt lat="42.3278667" lon="13.7019717"><ele>1214.0</ele><time>2026-04-04T16:10:54.028Z</time></trkpt><trkpt lat="42.327845" lon="13.7021317"><ele>1214.0</ele><time>2026-04-04T16:10:56.028Z</time></trkpt><trkpt lat="42.327835" lon="13.70225"><ele>1214.0</ele><time>2026-04-04T16:10:58.028Z</time></trkpt><trkpt lat="42.327815" lon="13.7023333"><ele>1214.4</ele><time>2026-04-04T16:11:00.028Z</time></trkpt><trkpt lat="42.3278117" lon="13.702435"><ele>1214.8000000000002</ele><time>2026-04-04T16:11:02.028Z</time></trkpt><trkpt lat="42.3278617" lon="13.70257"><ele>1215.1999999999998</ele><time>2026-04-04T16:11:04.028Z</time></trkpt><trkpt lat="42.3279133" lon="13.70264"><ele>1215.6</ele><time>2026-04-04T16:11:05.028Z</time></trkpt><trkpt lat="42.3279767" lon="13.70273"><ele>1216.0</ele><time>2026-04-04T16:11:06.028Z</time></trkpt><trkpt lat="42.32804" lon="13.7028333"><ele>1214.0</ele><time>2026-04-04T16:11:07.028Z</time></trkpt><trkpt lat="42.3281" lon="13.7029383"><ele>1212.0</ele><time>2026-04-04T16:11:08.029Z</time></trkpt><trkpt lat="42.3281567" lon="13.7030417"><ele>1210.0</ele><time>2026-04-04T16:11:09.029Z</time></trkpt><trkpt lat="42.3282083" lon="13.70315"><ele>1208.0</ele><time>2026-04-04T16:11:10.029Z</time></trkpt><trkpt lat="42.328255" lon="13.70327"><ele>1206.0</ele><time>2026-04-04T16:11:11.029Z</time></trkpt><trkpt lat="42.3282883" lon="13.7034167"><ele>1206.0</ele><time>2026-04-04T16:11:12.029Z</time></trkpt><trkpt lat="42.3283183" lon="13.7035617"><ele>1206.0</ele><time>2026-04-04T16:11:13.029Z</time></trkpt><trkpt lat="42.3283333" lon="13.7037"><ele>1206.0</ele><time>2026-04-04T16:11:14.029Z</time></trkpt><trkpt lat="42.32834" lon="13.7038383"><ele>1206.0</ele><time>2026-04-04T16:11:15.029Z</time></trkpt><trkpt lat="42.3283317" lon="13.7039883"><ele>1206.0</ele><time>2026-04-04T16:11:16.029Z</time></trkpt><trkpt lat="42.3283233" lon="13.7041433"><ele>1205.5</ele><time>2026-04-04T16:11:17.029Z</time></trkpt><trkpt lat="42.3283367" lon="13.7043083"><ele>1205.0</ele><time>2026-04-04T16:11:18.029Z</time></trkpt><trkpt lat="42.32834" lon="13.70447"><ele>1204.5</ele><time>2026-04-04T16:11:19.029Z</time></trkpt><trkpt lat="42.32834" lon="13.7046367"><ele>1204.0</ele><time>2026-04-04T16:11:20.029Z</time></trkpt><trkpt lat="42.3283483" lon="13.70481"><ele>1203.0</ele><time>2026-04-04T16:11:21.029Z</time></trkpt><trkpt lat="42.32835" lon="13.70498"><ele>1202.0</ele><time>2026-04-04T16:11:22.029Z</time></trkpt><trkpt lat="42.3283567" lon="13.70515"><ele>1201.0</ele><time>2026-04-04T16:11:23.029Z</time></trkpt><trkpt lat="42.32837" lon="13.705315"><ele>1200.0</ele><time>2026-04-04T16:11:24.029Z</time></trkpt><trkpt lat="42.3283783" lon="13.7054717"><ele>1199.0</ele><time>2026-04-04T16:11:25.029Z</time></trkpt><trkpt lat="42.3283733" lon="13.7056383"><ele>1198.0</ele><time>2026-04-04T16:11:26.029Z</time></trkpt><trkpt lat="42.328375" lon="13.7058067"><ele>1197.0</ele><time>2026-04-04T16:11:27.028Z</time></trkpt><trkpt lat="42.328365" lon="13.7059733"><ele>1196.0</ele><time>2026-04-04T16:11:28.029Z</time></trkpt><trkpt lat="42.3283533" lon="13.7061467"><ele>1194.75</ele><time>2026-04-04T16:11:29.029Z</time></trkpt><trkpt lat="42.3283383" lon="13.7063267"><ele>1193.5</ele><time>2026-04-04T16:11:30.029Z</time></trkpt><trkpt lat="42.328325" lon="13.7065133"><ele>1192.25</ele><time>2026-04-04T16:11:31.029Z</time></trkpt><trkpt lat="42.3283183" lon="13.7067133"><ele>1191.0</ele><time>2026-04-04T16:11:32.029Z</time></trkpt><trkpt lat="42.3283167" lon="13.706905"><ele>1190.75</ele><time>2026-04-04T16:11:33.029Z</time></trkpt><trkpt lat="42.328325" lon="13.7071017"><ele>1190.5</ele><time>2026-04-04T16:11:34.029Z</time></trkpt><trkpt lat="42.3283267" lon="13.707295"><ele>1190.25</ele><time>2026-04-04T16:11:35.029Z</time></trkpt><trkpt lat="42.3283267" lon="13.707495"><ele>1190.0</ele><time>2026-04-04T16:11:36.029Z</time></trkpt><trkpt lat="42.328325" lon="13.7077"><ele>1189.75</ele><time>2026-04-04T16:11:37.029Z</time></trkpt><trkpt lat="42.3283267" lon="13.70789"><ele>1189.5</ele><time>2026-04-04T16:11:38.029Z</time></trkpt><trkpt lat="42.3283183" lon="13.7080817"><ele>1189.25</ele><time>2026-04-04T16:11:39.029Z</time></trkpt><trkpt lat="42.328315" lon="13.7082867"><ele>1189.0</ele><time>2026-04-04T16:11:40.029Z</time></trkpt><trkpt lat="42.3283067" lon="13.7084917"><ele>1189.25</ele><time>2026-04-04T16:11:41.029Z</time></trkpt><trkpt lat="42.3283117" lon="13.708695"><ele>1189.5</ele><time>2026-04-04T16:11:42.029Z</time></trkpt><trkpt lat="42.3283283" lon="13.7088883"><ele>1189.75</ele><time>2026-04-04T16:11:43.029Z</time></trkpt><trkpt lat="42.3283467" lon="13.7090883"><ele>1190.0</ele><time>2026-04-04T16:11:44.029Z</time></trkpt><trkpt lat="42.3283617" lon="13.7092867"><ele>1188.75</ele><time>2026-04-04T16:11:45.029Z</time></trkpt><trkpt lat="42.32837" lon="13.70949"><ele>1187.5</ele><time>2026-04-04T16:11:46.029Z</time></trkpt><trkpt lat="42.32839" lon="13.7096917"><ele>1186.25</ele><time>2026-04-04T16:11:47.029Z</time></trkpt><trkpt lat="42.3284033" lon="13.7098867"><ele>1185.0</ele><time>2026-04-04T16:11:48.029Z</time></trkpt><trkpt lat="42.3284117" lon="13.7100833"><ele>1184.5</ele><time>2026-04-04T16:11:49.029Z</time></trkpt><trkpt lat="42.328425" lon="13.7102633"><ele>1184.0</ele><time>2026-04-04T16:11:50.029Z</time></trkpt><trkpt lat="42.32843" lon="13.71044"><ele>1183.5</ele><time>2026-04-04T16:11:51.029Z</time></trkpt><trkpt lat="42.3284333" lon="13.7106217"><ele>1183.0</ele><time>2026-04-04T16:11:52.029Z</time></trkpt><trkpt lat="42.3284283" lon="13.710805"><ele>1183.0</ele><time>2026-04-04T16:11:53.029Z</time></trkpt><trkpt lat="42.3284033" lon="13.71099"><ele>1183.0</ele><time>2026-04-04T16:11:54.029Z</time></trkpt><trkpt lat="42.3283633" lon="13.7111733"><ele>1183.0</ele><time>2026-04-04T16:11:55.029Z</time></trkpt><trkpt lat="42.32831" lon="13.711335"><ele>1183.0</ele><time>2026-04-04T16:11:56.029Z</time></trkpt><trkpt lat="42.32826" lon="13.7114983"><ele>1182.0</ele><time>2026-04-04T16:11:57.029Z</time></trkpt><trkpt lat="42.3282183" lon="13.711645"><ele>1181.0</ele><time>2026-04-04T16:11:58.029Z</time></trkpt><trkpt lat="42.3281883" lon="13.711785"><ele>1180.0</ele><time>2026-04-04T16:11:59.029Z</time></trkpt><trkpt lat="42.328185" lon="13.7119367"><ele>1179.0</ele><time>2026-04-04T16:12:00.029Z</time></trkpt><trkpt lat="42.3281933" lon="13.7120783"><ele>1178.0</ele><time>2026-04-04T16:12:01.029Z</time></trkpt><trkpt lat="42.3282183" lon="13.7122233"><ele>1177.8</ele><time>2026-04-04T16:12:02.029Z</time></trkpt><trkpt lat="42.328265" lon="13.7123633"><ele>1177.6</ele><time>2026-04-04T16:12:03.029Z</time></trkpt><trkpt lat="42.3283333" lon="13.71248"><ele>1177.4</ele><time>2026-04-04T16:12:04.029Z</time></trkpt><trkpt lat="42.3284183" lon="13.712555"><ele>1177.2</ele><time>2026-04-04T16:12:05.029Z</time></trkpt><trkpt lat="42.3285133" lon="13.7125967"><ele>1177.0</ele><time>2026-04-04T16:12:06.029Z</time></trkpt><trkpt lat="42.3286017" lon="13.71262"><ele>1177.0</ele><time>2026-04-04T16:12:07.029Z</time></trkpt><trkpt lat="42.328685" lon="13.71258"><ele>1177.0</ele><time>2026-04-04T16:12:08.029Z</time></trkpt><trkpt lat="42.3287583" lon="13.71251"><ele>1177.0</ele><time>2026-04-04T16:12:09.029Z</time></trkpt><trkpt lat="42.3288117" lon="13.7123967"><ele>1177.0</ele><time>2026-04-04T16:12:10.029Z</time></trkpt><trkpt lat="42.328845" lon="13.7122067"><ele>1177.0</ele><time>2026-04-04T16:12:11.029Z</time></trkpt><trkpt lat="42.3288833" lon="13.71201"><ele>1175.5</ele><time>2026-04-04T16:12:12.029Z</time></trkpt><trkpt lat="42.3289383" lon="13.71183"><ele>1174.0</ele><time>2026-04-04T16:12:13.029Z</time></trkpt><trkpt lat="42.3290133" lon="13.7116917"><ele>1172.5</ele><time>2026-04-04T16:12:14.029Z</time></trkpt><trkpt lat="42.3291083" lon="13.711565"><ele>1171.0</ele><time>2026-04-04T16:12:15.029Z</time></trkpt><trkpt lat="42.32922" lon="13.711455"><ele>1171.0</ele><time>2026-04-04T16:12:16.029Z</time></trkpt><trkpt lat="42.3293533" lon="13.711375"><ele>1171.0</ele><time>2026-04-04T16:12:17.029Z</time></trkpt><trkpt lat="42.3294833" lon="13.711295"><ele>1171.0</ele><time>2026-04-04T16:12:18.029Z</time></trkpt><trkpt lat="42.329625" lon="13.7112283"><ele>1171.0</ele><time>2026-04-04T16:12:19.029Z</time></trkpt><trkpt lat="42.32977" lon="13.711165"><ele>1174.0</ele><time>2026-04-04T16:12:20.029Z</time></trkpt><trkpt lat="42.3299233" lon="13.7111283"><ele>1177.0</ele><time>2026-04-04T16:12:21.029Z</time></trkpt><trkpt lat="42.3300733" lon="13.7110833"><ele>1180.0</ele><time>2026-04-04T16:12:22.029Z</time></trkpt><trkpt lat="42.330225" lon="13.71104"><ele>1175.6666666666665</ele><time>2026-04-04T16:12:23.029Z</time></trkpt><trkpt lat="42.3303717" lon="13.7109833"><ele>1171.3333333333333</ele><time>2026-04-04T16:12:24.029Z</time></trkpt><trkpt lat="42.3305183" lon="13.7109233"><ele>1167.0</ele><time>2026-04-04T16:12:25.029Z</time></trkpt><trkpt lat="42.3306567" lon="13.7108383"><ele>1167.0</ele><time>2026-04-04T16:12:26.029Z</time></trkpt><trkpt lat="42.3307983" lon="13.7107517"><ele>1167.0</ele><time>2026-04-04T16:12:27.029Z</time></trkpt><trkpt lat="42.330945" lon="13.710675"><ele>1167.0</ele><time>2026-04-04T16:12:28.029Z</time></trkpt><trkpt lat="42.3310833" lon="13.71058"><ele>1167.0</ele><time>2026-04-04T16:12:29.029Z</time></trkpt><trkpt lat="42.3312133" lon="13.71049"><ele>1167.0</ele><time>2026-04-04T16:12:30.029Z</time></trkpt><trkpt lat="42.3313367" lon="13.710415"><ele>1167.0</ele><time>2026-04-04T16:12:31.029Z</time></trkpt><trkpt lat="42.3314667" lon="13.7103517"><ele>1167.0</ele><time>2026-04-04T16:12:32.029Z</time></trkpt><trkpt lat="42.3316017" lon="13.7103183"><ele>1168.75</ele><time>2026-04-04T16:12:33.029Z</time></trkpt><trkpt lat="42.331745" lon="13.7103067"><ele>1170.5</ele><time>2026-04-04T16:12:34.029Z</time></trkpt><trkpt lat="42.3318817" lon="13.71031"><ele>1172.25</ele><time>2026-04-04T16:12:35.029Z</time></trkpt><trkpt lat="42.332025" lon="13.7103267"><ele>1174.0</ele><time>2026-04-04T16:12:36.029Z</time></trkpt><trkpt lat="42.332175" lon="13.71036"><ele>1173.3333333333333</ele><time>2026-04-04T16:12:37.029Z</time></trkpt><trkpt lat="42.3323183" lon="13.7103983"><ele>1172.6666666666667</ele><time>2026-04-04T16:12:38.029Z</time></trkpt><trkpt lat="42.3324717" lon="13.710435"><ele>1172.0</ele><time>2026-04-04T16:12:39.029Z</time></trkpt><trkpt lat="42.3326217" lon="13.71047"><ele>1172.0</ele><time>2026-04-04T16:12:40.029Z</time></trkpt><trkpt lat="42.33277" lon="13.7104983"><ele>1172.0</ele><time>2026-04-04T16:12:41.029Z</time></trkpt><trkpt lat="42.3329233" lon="13.7105333"><ele>1172.0</ele><time>2026-04-04T16:12:42.029Z</time></trkpt><trkpt lat="42.33308" lon="13.71058"><ele>1169.0</ele><time>2026-04-04T16:12:43.029Z</time></trkpt><trkpt lat="42.333235" lon="13.7106483"><ele>1166.0</ele><time>2026-04-04T16:12:44.029Z</time></trkpt><trkpt lat="42.333385" lon="13.7107233"><ele>1163.0</ele><time>2026-04-04T16:12:45.029Z</time></trkpt><trkpt lat="42.3335217" lon="13.7107917"><ele>1163.0</ele><time>2026-04-04T16:12:46.029Z</time></trkpt><trkpt lat="42.3336533" lon="13.7108417"><ele>1163.0</ele><time>2026-04-04T16:12:47.028Z</time></trkpt><trkpt lat="42.33379" lon="13.7108733"><ele>1163.0</ele><time>2026-04-04T16:12:48.028Z</time></trkpt><trkpt lat="42.3339217" lon="13.7108717"><ele>1163.0</ele><time>2026-04-04T16:12:49.028Z</time></trkpt><trkpt lat="42.3340517" lon="13.710825"><ele>1162.3333333333335</ele><time>2026-04-04T16:12:50.029Z</time></trkpt><trkpt lat="42.3341933" lon="13.7107433"><ele>1161.6666666666667</ele><time>2026-04-04T16:12:51.029Z</time></trkpt><trkpt lat="42.3343467" lon="13.710655"><ele>1161.0</ele><time>2026-04-04T16:12:52.029Z</time></trkpt><trkpt lat="42.3345" lon="13.7105633"><ele>1161.0</ele><time>2026-04-04T16:12:53.029Z</time></trkpt><trkpt lat="42.334655" lon="13.7104917"><ele>1161.0</ele><time>2026-04-04T16:12:54.029Z</time></trkpt><trkpt lat="42.3348117" lon="13.71042"><ele>1161.0</ele><time>2026-04-04T16:12:55.028Z</time></trkpt><trkpt lat="42.3349717" lon="13.7103717"><ele>1162.3333333333333</ele><time>2026-04-04T16:12:56.029Z</time></trkpt><trkpt lat="42.3351333" lon="13.7103267"><ele>1163.6666666666665</ele><time>2026-04-04T16:12:57.029Z</time></trkpt><trkpt lat="42.33528" lon="13.7102733"><ele>1165.0</ele><time>2026-04-04T16:12:58.029Z</time></trkpt><trkpt lat="42.33543" lon="13.7102417"><ele>1162.6666666666665</ele><time>2026-04-04T16:12:59.029Z</time></trkpt><trkpt lat="42.3355883" lon="13.7102067"><ele>1160.3333333333333</ele><time>2026-04-04T16:13:00.029Z</time></trkpt><trkpt lat="42.3357517" lon="13.7101733"><ele>1158.0</ele><time>2026-04-04T16:13:01.029Z</time></trkpt><trkpt lat="42.3358983" lon="13.71011"><ele>1158.0</ele><time>2026-04-04T16:13:02.029Z</time></trkpt><trkpt lat="42.336035" lon="13.7100183"><ele>1158.0</ele><time>2026-04-04T16:13:03.029Z</time></trkpt><trkpt lat="42.3361717" lon="13.7099217"><ele>1158.0</ele><time>2026-04-04T16:13:04.029Z</time></trkpt><trkpt lat="42.3363133" lon="13.7098233"><ele>1155.0</ele><time>2026-04-04T16:13:05.029Z</time></trkpt><trkpt lat="42.336455" lon="13.7097217"><ele>1152.0</ele><time>2026-04-04T16:13:06.029Z</time></trkpt><trkpt lat="42.3366067" lon="13.70964"><ele>1149.0</ele><time>2026-04-04T16:13:07.028Z</time></trkpt><trkpt lat="42.3367567" lon="13.70956"><ele>1149.0</ele><time>2026-04-04T16:13:08.029Z</time></trkpt><trkpt lat="42.3369067" lon="13.7094917"><ele>1149.0</ele><time>2026-04-04T16:13:09.029Z</time></trkpt><trkpt lat="42.3370567" lon="13.7094333"><ele>1149.0</ele><time>2026-04-04T16:13:10.029Z</time></trkpt><trkpt lat="42.3372" lon="13.7093917"><ele>1147.5</ele><time>2026-04-04T16:13:11.028Z</time></trkpt><trkpt lat="42.3373367" lon="13.7093717"><ele>1146.0</ele><time>2026-04-04T16:13:12.028Z</time></trkpt><trkpt lat="42.3374783" lon="13.7093667"><ele>1144.5</ele><time>2026-04-04T16:13:13.029Z</time></trkpt><trkpt lat="42.337635" lon="13.70939"><ele>1143.0</ele><time>2026-04-04T16:13:14.029Z</time></trkpt><trkpt lat="42.33779" lon="13.7094267"><ele>1143.0</ele><time>2026-04-04T16:13:15.029Z</time></trkpt><trkpt lat="42.3379483" lon="13.7094917"><ele>1143.0</ele><time>2026-04-04T16:13:16.029Z</time></trkpt><trkpt lat="42.338105" lon="13.7095633"><ele>1143.0</ele><time>2026-04-04T16:13:17.029Z</time></trkpt><trkpt lat="42.3382683" lon="13.70966"><ele>1141.3333333333333</ele><time>2026-04-04T16:13:18.029Z</time></trkpt><trkpt lat="42.3384183" lon="13.7097517"><ele>1139.6666666666665</ele><time>2026-04-04T16:13:19.029Z</time></trkpt><trkpt lat="42.33856" lon="13.7098433"><ele>1138.0</ele><time>2026-04-04T16:13:20.029Z</time></trkpt><trkpt lat="42.3386917" lon="13.7099417"><ele>1138.0</ele><time>2026-04-04T16:13:21.029Z</time></trkpt><trkpt lat="42.3388233" lon="13.710025"><ele>1138.0</ele><time>2026-04-04T16:13:22.028Z</time></trkpt><trkpt lat="42.3389583" lon="13.7101067"><ele>1138.0</ele><time>2026-04-04T16:13:23.029Z</time></trkpt><trkpt lat="42.3391033" lon="13.7101783"><ele>1138.0</ele><time>2026-04-04T16:13:24.028Z</time></trkpt><trkpt lat="42.339245" lon="13.7102217"><ele>1133.75</ele><time>2026-04-04T16:13:25.029Z</time></trkpt><trkpt lat="42.33939" lon="13.7102567"><ele>1129.5</ele><time>2026-04-04T16:13:26.029Z</time></trkpt><trkpt lat="42.3395433" lon="13.71026"><ele>1125.25</ele><time>2026-04-04T16:13:27.029Z</time></trkpt><trkpt lat="42.3396817" lon="13.710275"><ele>1121.0</ele><time>2026-04-04T16:13:28.029Z</time></trkpt><trkpt lat="42.3398183" lon="13.7102833"><ele>1121.0</ele><time>2026-04-04T16:13:29.029Z</time></trkpt><trkpt lat="42.339945" lon="13.7102917"><ele>1121.0</ele><time>2026-04-04T16:13:30.029Z</time></trkpt><trkpt lat="42.3400767" lon="13.7102733"><ele>1121.0</ele><time>2026-04-04T16:13:31.029Z</time></trkpt><trkpt lat="42.3401967" lon="13.7102067"><ele>1121.0</ele><time>2026-04-04T16:13:32.029Z</time></trkpt><trkpt lat="42.3403117" lon="13.7100983"><ele>1121.5</ele><time>2026-04-04T16:13:33.029Z</time></trkpt><trkpt lat="42.3404183" lon="13.7099717"><ele>1122.0</ele><time>2026-04-04T16:13:34.029Z</time></trkpt><trkpt lat="42.34052" lon="13.7098433"><ele>1122.5</ele><time>2026-04-04T16:13:35.029Z</time></trkpt><trkpt lat="42.3406217" lon="13.7097033"><ele>1123.0</ele><time>2026-04-04T16:13:36.029Z</time></trkpt><trkpt lat="42.340725" lon="13.7095767"><ele>1123.0</ele><time>2026-04-04T16:13:37.029Z</time></trkpt><trkpt lat="42.3408433" lon="13.7094717"><ele>1123.0</ele><time>2026-04-04T16:13:38.029Z</time></trkpt><trkpt lat="42.34096" lon="13.7094017"><ele>1123.0</ele><time>2026-04-04T16:13:39.029Z</time></trkpt><trkpt lat="42.3410767" lon="13.709345"><ele>1123.0</ele><time>2026-04-04T16:13:40.029Z</time></trkpt><trkpt lat="42.341195" lon="13.7092883"><ele>1122.5</ele><time>2026-04-04T16:13:41.029Z</time></trkpt><trkpt lat="42.3413083" lon="13.70921"><ele>1122.0</ele><time>2026-04-04T16:13:42.028Z</time></trkpt><trkpt lat="42.3414067" lon="13.7091"><ele>1121.5</ele><time>2026-04-04T16:13:43.029Z</time></trkpt><trkpt lat="42.341495" lon="13.7089633"><ele>1121.0</ele><time>2026-04-04T16:13:44.029Z</time></trkpt><trkpt lat="42.341565" lon="13.7088033"><ele>1121.0</ele><time>2026-04-04T16:13:45.029Z</time></trkpt><trkpt lat="42.3416333" lon="13.7086317"><ele>1121.0</ele><time>2026-04-04T16:13:46.029Z</time></trkpt><trkpt lat="42.3417083" lon="13.7084717"><ele>1121.0</ele><time>2026-04-04T16:13:47.029Z</time></trkpt><trkpt lat="42.3417917" lon="13.7083333"><ele>1121.0</ele><time>2026-04-04T16:13:48.029Z</time></trkpt><trkpt lat="42.341895" lon="13.7081983"><ele>1121.0</ele><time>2026-04-04T16:13:49.029Z</time></trkpt><trkpt lat="42.34199" lon="13.7080767"><ele>1121.0</ele><time>2026-04-04T16:13:50.029Z</time></trkpt><trkpt lat="42.3420767" lon="13.707965"><ele>1121.0</ele><time>2026-04-04T16:13:51.029Z</time></trkpt><trkpt lat="42.3421583" lon="13.7078667"><ele>1121.0</ele><time>2026-04-04T16:13:52.029Z</time></trkpt><trkpt lat="42.342245" lon="13.7078133"><ele>1121.0</ele><time>2026-04-04T16:13:53.029Z</time></trkpt><trkpt lat="42.34233" lon="13.707805"><ele>1121.0</ele><time>2026-04-04T16:13:54.029Z</time></trkpt><trkpt lat="42.3424183" lon="13.7078483"><ele>1121.0</ele><time>2026-04-04T16:13:55.029Z</time></trkpt><trkpt lat="42.342505" lon="13.7079383"><ele>1121.0</ele><time>2026-04-04T16:13:56.028Z</time></trkpt><trkpt lat="42.342575" lon="13.708085"><ele>1121.0</ele><time>2026-04-04T16:13:57.028Z</time></trkpt><trkpt lat="42.3426433" lon="13.7082567"><ele>1121.0</ele><time>2026-04-04T16:13:58.029Z</time></trkpt><trkpt lat="42.3427117" lon="13.7084217"><ele>1121.0</ele><time>2026-04-04T16:13:59.029Z</time></trkpt><trkpt lat="42.3427917" lon="13.7085883"><ele>1121.0</ele><time>2026-04-04T16:14:00.029Z</time></trkpt><trkpt lat="42.342875" lon="13.70875"><ele>1121.0</ele><time>2026-04-04T16:14:01.029Z</time></trkpt><trkpt lat="42.342965" lon="13.7089267"><ele>1118.6666666666667</ele><time>2026-04-04T16:14:02.029Z</time></trkpt><trkpt lat="42.3430617" lon="13.7091083"><ele>1116.3333333333333</ele><time>2026-04-04T16:14:03.029Z</time></trkpt><trkpt lat="42.3431567" lon="13.7092933"><ele>1114.0</ele><time>2026-04-04T16:14:04.029Z</time></trkpt><trkpt lat="42.34325" lon="13.7094767"><ele>1114.0</ele><time>2026-04-04T16:14:05.029Z</time></trkpt><trkpt lat="42.34335" lon="13.7096617"><ele>1114.0</ele><time>2026-04-04T16:14:06.029Z</time></trkpt><trkpt lat="42.343445" lon="13.7098567"><ele>1114.0</ele><time>2026-04-04T16:14:07.029Z</time></trkpt><trkpt lat="42.3435483" lon="13.71006"><ele>1108.6666666666665</ele><time>2026-04-04T16:14:08.029Z</time></trkpt><trkpt lat="42.34365" lon="13.7102583"><ele>1103.3333333333333</ele><time>2026-04-04T16:14:09.029Z</time></trkpt><trkpt lat="42.343745" lon="13.71045"><ele>1098.0</ele><time>2026-04-04T16:14:10.029Z</time></trkpt><trkpt lat="42.3438383" lon="13.7106383"><ele>1100.6666666666667</ele><time>2026-04-04T16:14:11.029Z</time></trkpt><trkpt lat="42.3439367" lon="13.7108217"><ele>1103.3333333333335</ele><time>2026-04-04T16:14:12.028Z</time></trkpt><trkpt lat="42.34404" lon="13.7109983"><ele>1106.0</ele><time>2026-04-04T16:14:13.029Z</time></trkpt><trkpt lat="42.3441433" lon="13.7111717"><ele>1106.0</ele><time>2026-04-04T16:14:14.029Z</time></trkpt><trkpt lat="42.344235" lon="13.711335"><ele>1106.0</ele><time>2026-04-04T16:14:15.029Z</time></trkpt><trkpt lat="42.34432" lon="13.711485"><ele>1106.0</ele><time>2026-04-04T16:14:16.029Z</time></trkpt><trkpt lat="42.3444017" lon="13.7116267"><ele>1106.0</ele><time>2026-04-04T16:14:17.029Z</time></trkpt><trkpt lat="42.344475" lon="13.7117583"><ele>1106.0</ele><time>2026-04-04T16:14:18.029Z</time></trkpt><trkpt lat="42.3445433" lon="13.7118767"><ele>1106.0</ele><time>2026-04-04T16:14:19.029Z</time></trkpt><trkpt lat="42.3446183" lon="13.7119717"><ele>1106.0</ele><time>2026-04-04T16:14:20.029Z</time></trkpt><trkpt lat="42.344705" lon="13.7120383"><ele>1106.0</ele><time>2026-04-04T16:14:21.029Z</time></trkpt><trkpt lat="42.34481" lon="13.7120733"><ele>1106.0</ele><time>2026-04-04T16:14:22.028Z</time></trkpt><trkpt lat="42.3449217" lon="13.71207"><ele>1108.5</ele><time>2026-04-04T16:14:23.029Z</time></trkpt><trkpt lat="42.345045" lon="13.71202"><ele>1111.0</ele><time>2026-04-04T16:14:24.029Z</time></trkpt><trkpt lat="42.3451733" lon="13.711955"><ele>1113.5</ele><time>2026-04-04T16:14:25.029Z</time></trkpt><trkpt lat="42.3453" lon="13.7118833"><ele>1116.0</ele><time>2026-04-04T16:14:26.029Z</time></trkpt><trkpt lat="42.3454167" lon="13.7117967"><ele>1116.0</ele><time>2026-04-04T16:14:27.029Z</time></trkpt><trkpt lat="42.3455167" lon="13.7116967"><ele>1116.0</ele><time>2026-04-04T16:14:28.029Z</time></trkpt><trkpt lat="42.3456017" lon="13.711595"><ele>1116.0</ele><time>2026-04-04T16:14:29.029Z</time></trkpt><trkpt lat="42.345675" lon="13.7115133"><ele>1116.0</ele><time>2026-04-04T16:14:30.029Z</time></trkpt><trkpt lat="42.3457533" lon="13.71146"><ele>1116.0</ele><time>2026-04-04T16:14:31.029Z</time></trkpt><trkpt lat="42.34583" lon="13.71144"><ele>1114.3999999999999</ele><time>2026-04-04T16:14:32.029Z</time></trkpt><trkpt lat="42.34591" lon="13.7114567"><ele>1112.8</ele><time>2026-04-04T16:14:33.029Z</time></trkpt><trkpt lat="42.346" lon="13.7115083"><ele>1111.1999999999998</ele><time>2026-04-04T16:14:34.029Z</time></trkpt><trkpt lat="42.3460783" lon="13.71159"><ele>1109.6</ele><time>2026-04-04T16:14:35.029Z</time></trkpt><trkpt lat="42.3461667" lon="13.7117183"><ele>1108.0</ele><time>2026-04-04T16:14:36.028Z</time></trkpt><trkpt lat="42.346265" lon="13.7118617"><ele>1106.6666666666665</ele><time>2026-04-04T16:14:37.029Z</time></trkpt><trkpt lat="42.3463767" lon="13.7119883"><ele>1105.3333333333333</ele><time>2026-04-04T16:14:38.029Z</time></trkpt><trkpt lat="42.3465" lon="13.712105"><ele>1104.0</ele><time>2026-04-04T16:14:39.029Z</time></trkpt><trkpt lat="42.346635" lon="13.7122083"><ele>1104.0</ele><time>2026-04-04T16:14:40.029Z</time></trkpt><trkpt lat="42.3467717" lon="13.7123217"><ele>1104.0</ele><time>2026-04-04T16:14:41.029Z</time></trkpt><trkpt lat="42.3468967" lon="13.7124483"><ele>1104.0</ele><time>2026-04-04T16:14:42.029Z</time></trkpt><trkpt lat="42.3470033" lon="13.7125833"><ele>1105.6666666666667</ele><time>2026-04-04T16:14:43.029Z</time></trkpt><trkpt lat="42.3471083" lon="13.712745"><ele>1107.3333333333335</ele><time>2026-04-04T16:14:44.029Z</time></trkpt><trkpt lat="42.347205" lon="13.7129067"><ele>1109.0</ele><time>2026-04-04T16:14:45.029Z</time></trkpt><trkpt lat="42.34729" lon="13.7130683"><ele>1109.0</ele><time>2026-04-04T16:14:46.029Z</time></trkpt><trkpt lat="42.34737" lon="13.713235"><ele>1109.0</ele><time>2026-04-04T16:14:47.029Z</time></trkpt><trkpt lat="42.34745" lon="13.71341"><ele>1109.0</ele><time>2026-04-04T16:14:48.029Z</time></trkpt><trkpt lat="42.3475333" lon="13.71358"><ele>1104.6666666666667</ele><time>2026-04-04T16:14:49.029Z</time></trkpt><trkpt lat="42.3476283" lon="13.7137367"><ele>1100.3333333333333</ele><time>2026-04-04T16:14:50.029Z</time></trkpt><trkpt lat="42.3477383" lon="13.7138817"><ele>1096.0</ele><time>2026-04-04T16:14:51.029Z</time></trkpt><trkpt lat="42.3478467" lon="13.714025"><ele>1096.0</ele><time>2026-04-04T16:14:52.029Z</time></trkpt><trkpt lat="42.347945" lon="13.7141483"><ele>1096.0</ele><time>2026-04-04T16:14:53.029Z</time></trkpt><trkpt lat="42.3480383" lon="13.7142633"><ele>1096.0</ele><time>2026-04-04T16:14:54.029Z</time></trkpt><trkpt lat="42.3481333" lon="13.7143733"><ele>1096.0</ele><time>2026-04-04T16:14:55.029Z</time></trkpt><trkpt lat="42.3482317" lon="13.7144667"><ele>1095.75</ele><time>2026-04-04T16:14:56.029Z</time></trkpt><trkpt lat="42.3483433" lon="13.7145317"><ele>1095.5</ele><time>2026-04-04T16:14:57.029Z</time></trkpt><trkpt lat="42.348475" lon="13.7145933"><ele>1095.25</ele><time>2026-04-04T16:14:58.029Z</time></trkpt><trkpt lat="42.3486067" lon="13.7146433"><ele>1095.0</ele><time>2026-04-04T16:14:59.029Z</time></trkpt><trkpt lat="42.34873" lon="13.7146933"><ele>1095.0</ele><time>2026-04-04T16:15:00.029Z</time></trkpt><trkpt lat="42.3488417" lon="13.7147383"><ele>1095.0</ele><time>2026-04-04T16:15:01.029Z</time></trkpt><trkpt lat="42.3489517" lon="13.7147817"><ele>1095.0</ele><time>2026-04-04T16:15:02.029Z</time></trkpt><trkpt lat="42.3490633" lon="13.7148133"><ele>1095.0</ele><time>2026-04-04T16:15:03.029Z</time></trkpt><trkpt lat="42.3491733" lon="13.71483"><ele>1095.25</ele><time>2026-04-04T16:15:04.029Z</time></trkpt><trkpt lat="42.34929" lon="13.7148217"><ele>1095.5</ele><time>2026-04-04T16:15:05.029Z</time></trkpt><trkpt lat="42.3494117" lon="13.7147767"><ele>1095.75</ele><time>2026-04-04T16:15:06.029Z</time></trkpt><trkpt lat="42.34954" lon="13.7146867"><ele>1096.0</ele><time>2026-04-04T16:15:07.029Z</time></trkpt><trkpt lat="42.3496667" lon="13.7145783"><ele>1095.6666666666665</ele><time>2026-04-04T16:15:08.029Z</time></trkpt><trkpt lat="42.3498" lon="13.7144667"><ele>1095.3333333333333</ele><time>2026-04-04T16:15:09.029Z</time></trkpt><trkpt lat="42.349945" lon="13.7143617"><ele>1095.0</ele><time>2026-04-04T16:15:10.029Z</time></trkpt><trkpt lat="42.350105" lon="13.7142417"><ele>1095.3333333333333</ele><time>2026-04-04T16:15:11.029Z</time></trkpt><trkpt lat="42.35026" lon="13.7141333"><ele>1095.6666666666665</ele><time>2026-04-04T16:15:12.029Z</time></trkpt><trkpt lat="42.35041" lon="13.7140167"><ele>1096.0</ele><time>2026-04-04T16:15:13.029Z</time></trkpt><trkpt lat="42.3505567" lon="13.7139033"><ele>1096.0</ele><time>2026-04-04T16:15:14.029Z</time></trkpt><trkpt lat="42.3507133" lon="13.7138017"><ele>1096.0</ele><time>2026-04-04T16:15:15.029Z</time></trkpt><trkpt lat="42.3508667" lon="13.7136883"><ele>1096.0</ele><time>2026-04-04T16:15:16.029Z</time></trkpt><trkpt lat="42.35102" lon="13.71358"><ele>1097.0</ele><time>2026-04-04T16:15:17.029Z</time></trkpt><trkpt lat="42.3511717" lon="13.7134733"><ele>1098.0</ele><time>2026-04-04T16:15:18.029Z</time></trkpt><trkpt lat="42.3513167" lon="13.7133667"><ele>1099.0</ele><time>2026-04-04T16:15:19.029Z</time></trkpt><trkpt lat="42.3514567" lon="13.7132667"><ele>1099.75</ele><time>2026-04-04T16:15:20.029Z</time></trkpt><trkpt lat="42.351585" lon="13.7131883"><ele>1100.5</ele><time>2026-04-04T16:15:21.029Z</time></trkpt><trkpt lat="42.351705" lon="13.713135"><ele>1101.25</ele><time>2026-04-04T16:15:22.029Z</time></trkpt><trkpt lat="42.351825" lon="13.7131"><ele>1102.0</ele><time>2026-04-04T16:15:23.029Z</time></trkpt><trkpt lat="42.3519433" lon="13.7130933"><ele>1102.0</ele><time>2026-04-04T16:15:24.029Z</time></trkpt><trkpt lat="42.3520717" lon="13.713125"><ele>1102.0</ele><time>2026-04-04T16:15:25.029Z</time></trkpt><trkpt lat="42.3522017" lon="13.7131883"><ele>1102.0</ele><time>2026-04-04T16:15:26.029Z</time></trkpt><trkpt lat="42.35233" lon="13.7132633"><ele>1102.0</ele><time>2026-04-04T16:15:27.029Z</time></trkpt><trkpt lat="42.3524683" lon="13.7133367"><ele>1102.25</ele><time>2026-04-04T16:15:28.029Z</time></trkpt><trkpt lat="42.35261" lon="13.7134033"><ele>1102.5</ele><time>2026-04-04T16:15:29.029Z</time></trkpt><trkpt lat="42.352755" lon="13.7134583"><ele>1102.75</ele><time>2026-04-04T16:15:30.029Z</time></trkpt><trkpt lat="42.3528917" lon="13.713515"><ele>1103.0</ele><time>2026-04-04T16:15:31.029Z</time></trkpt><trkpt lat="42.3530183" lon="13.7135767"><ele>1105.0</ele><time>2026-04-04T16:15:32.029Z</time></trkpt><trkpt lat="42.3531417" lon="13.713635"><ele>1107.0</ele><time>2026-04-04T16:15:33.029Z</time></trkpt><trkpt lat="42.3532617" lon="13.7137217"><ele>1109.0</ele><time>2026-04-04T16:15:34.029Z</time></trkpt><trkpt lat="42.3533767" lon="13.713845"><ele>1111.0</ele><time>2026-04-04T16:15:35.029Z</time></trkpt><trkpt lat="42.3534683" lon="13.7139783"><ele>1111.0</ele><time>2026-04-04T16:15:36.029Z</time></trkpt><trkpt lat="42.3535583" lon="13.7141117"><ele>1111.0</ele><time>2026-04-04T16:15:37.029Z</time></trkpt><trkpt lat="42.353655" lon="13.71425"><ele>1111.0</ele><time>2026-04-04T16:15:38.029Z</time></trkpt><trkpt lat="42.3537583" lon="13.7143817"><ele>1111.0</ele><time>2026-04-04T16:15:39.029Z</time></trkpt><trkpt lat="42.3538567" lon="13.7144817"><ele>1112.0</ele><time>2026-04-04T16:15:40.029Z</time></trkpt><trkpt lat="42.3539667" lon="13.7145567"><ele>1113.0</ele><time>2026-04-04T16:15:41.029Z</time></trkpt><trkpt lat="42.35408" lon="13.71464"><ele>1114.0</ele><time>2026-04-04T16:15:42.029Z</time></trkpt><trkpt lat="42.3541967" lon="13.7147133"><ele>1115.0</ele><time>2026-04-04T16:15:43.029Z</time></trkpt><trkpt lat="42.35432" lon="13.7147917"><ele>1115.0</ele><time>2026-04-04T16:15:44.029Z</time></trkpt><trkpt lat="42.3544333" lon="13.7148833"><ele>1115.0</ele><time>2026-04-04T16:15:45.029Z</time></trkpt><trkpt lat="42.3545283" lon="13.7149883"><ele>1115.0</ele><time>2026-04-04T16:15:46.029Z</time></trkpt><trkpt lat="42.35462" lon="13.7150883"><ele>1115.0</ele><time>2026-04-04T16:15:47.029Z</time></trkpt><trkpt lat="42.3547033" lon="13.715145"><ele>1116.2</ele><time>2026-04-04T16:15:48.029Z</time></trkpt><trkpt lat="42.3547867" lon="13.7151667"><ele>1117.4</ele><time>2026-04-04T16:15:49.029Z</time></trkpt><trkpt lat="42.354885" lon="13.715135"><ele>1118.6</ele><time>2026-04-04T16:15:50.029Z</time></trkpt><trkpt lat="42.35497" lon="13.71504"><ele>1119.8</ele><time>2026-04-04T16:15:51.029Z</time></trkpt><trkpt lat="42.3550433" lon="13.7149083"><ele>1121.0</ele><time>2026-04-04T16:15:52.029Z</time></trkpt><trkpt lat="42.35512" lon="13.7147733"><ele>1121.0</ele><time>2026-04-04T16:15:53.029Z</time></trkpt><trkpt lat="42.3551917" lon="13.7146433"><ele>1121.0</ele><time>2026-04-04T16:15:54.029Z</time></trkpt><trkpt lat="42.3552683" lon="13.714525"><ele>1121.0</ele><time>2026-04-04T16:15:55.029Z</time></trkpt><trkpt lat="42.3553417" lon="13.71441"><ele>1121.0</ele><time>2026-04-04T16:15:56.029Z</time></trkpt><trkpt lat="42.35543" lon="13.7143233"><ele>1123.75</ele><time>2026-04-04T16:15:57.029Z</time></trkpt><trkpt lat="42.3555217" lon="13.7142767"><ele>1126.5</ele><time>2026-04-04T16:15:58.029Z</time></trkpt><trkpt lat="42.35563" lon="13.714245"><ele>1129.25</ele><time>2026-04-04T16:15:59.028Z</time></trkpt><trkpt lat="42.3557467" lon="13.7142433"><ele>1132.0</ele><time>2026-04-04T16:16:00.029Z</time></trkpt><trkpt lat="42.3558717" lon="13.7142533"><ele>1132.0</ele><time>2026-04-04T16:16:01.029Z</time></trkpt><trkpt lat="42.3559883" lon="13.7142767"><ele>1132.0</ele><time>2026-04-04T16:16:02.029Z</time></trkpt><trkpt lat="42.356115" lon="13.71433"><ele>1132.0</ele><time>2026-04-04T16:16:03.029Z</time></trkpt><trkpt lat="42.35624" lon="13.7144283"><ele>1132.0</ele><time>2026-04-04T16:16:04.029Z</time></trkpt><trkpt lat="42.356345" lon="13.7145567"><ele>1134.0</ele><time>2026-04-04T16:16:05.029Z</time></trkpt><trkpt lat="42.35645" lon="13.7147117"><ele>1136.0</ele><time>2026-04-04T16:16:06.029Z</time></trkpt><trkpt lat="42.3565567" lon="13.7148783"><ele>1138.0</ele><time>2026-04-04T16:16:07.029Z</time></trkpt><trkpt lat="42.356655" lon="13.7150333"><ele>1138.0</ele><time>2026-04-04T16:16:08.029Z</time></trkpt><trkpt lat="42.3567533" lon="13.71517"><ele>1138.0</ele><time>2026-04-04T16:16:09.029Z</time></trkpt><trkpt lat="42.35684" lon="13.7152983"><ele>1138.0</ele><time>2026-04-04T16:16:10.029Z</time></trkpt><trkpt lat="42.3569267" lon="13.71542"><ele>1138.0</ele><time>2026-04-04T16:16:11.029Z</time></trkpt><trkpt lat="42.35701" lon="13.715535"><ele>1136.6</ele><time>2026-04-04T16:16:12.029Z</time></trkpt><trkpt lat="42.3570867" lon="13.7156467"><ele>1135.1999999999998</ele><time>2026-04-04T16:16:13.029Z</time></trkpt><trkpt lat="42.3571467" lon="13.7157633"><ele>1133.8</ele><time>2026-04-04T16:16:14.029Z</time></trkpt><trkpt lat="42.357185" lon="13.7158667"><ele>1132.3999999999999</ele><time>2026-04-04T16:16:15.029Z</time></trkpt><trkpt lat="42.3572" lon="13.7159867"><ele>1131.0</ele><time>2026-04-04T16:16:16.029Z</time></trkpt><trkpt lat="42.3571933" lon="13.7161267"><ele>1130.3999999999999</ele><time>2026-04-04T16:16:17.029Z</time></trkpt><trkpt lat="42.3571867" lon="13.7162667"><ele>1129.8</ele><time>2026-04-04T16:16:18.029Z</time></trkpt><trkpt lat="42.3571733" lon="13.716415"><ele>1129.1999999999998</ele><time>2026-04-04T16:16:19.029Z</time></trkpt><trkpt lat="42.3571717" lon="13.7165683"><ele>1128.6</ele><time>2026-04-04T16:16:20.029Z</time></trkpt><trkpt lat="42.3571783" lon="13.7167083"><ele>1128.0</ele><time>2026-04-04T16:16:21.029Z</time></trkpt><trkpt lat="42.357205" lon="13.7168483"><ele>1133.5</ele><time>2026-04-04T16:16:22.029Z</time></trkpt><trkpt lat="42.35723" lon="13.7169967"><ele>1139.0</ele><time>2026-04-04T16:16:23.029Z</time></trkpt><trkpt lat="42.3572667" lon="13.7171633"><ele>1144.5</ele><time>2026-04-04T16:16:24.029Z</time></trkpt><trkpt lat="42.3573083" lon="13.71733"><ele>1150.0</ele><time>2026-04-04T16:16:25.029Z</time></trkpt><trkpt lat="42.357355" lon="13.7174967"><ele>1150.0</ele><time>2026-04-04T16:16:26.029Z</time></trkpt><trkpt lat="42.3574133" lon="13.7176617"><ele>1150.0</ele><time>2026-04-04T16:16:27.029Z</time></trkpt><trkpt lat="42.357485" lon="13.717805"><ele>1150.0</ele><time>2026-04-04T16:16:28.028Z</time></trkpt><trkpt lat="42.3575783" lon="13.7179417"><ele>1150.0</ele><time>2026-04-04T16:16:29.029Z</time></trkpt><trkpt lat="42.3576767" lon="13.7180483"><ele>1147.75</ele><time>2026-04-04T16:16:30.029Z</time></trkpt><trkpt lat="42.3577917" lon="13.7181317"><ele>1145.5</ele><time>2026-04-04T16:16:31.029Z</time></trkpt><trkpt lat="42.3579067" lon="13.7182133"><ele>1143.25</ele><time>2026-04-04T16:16:32.029Z</time></trkpt><trkpt lat="42.35802" lon="13.7182867"><ele>1141.0</ele><time>2026-04-04T16:16:33.029Z</time></trkpt><trkpt lat="42.3581283" lon="13.7183883"><ele>1145.5</ele><time>2026-04-04T16:16:34.029Z</time></trkpt><trkpt lat="42.3582117" lon="13.7185167"><ele>1150.0</ele><time>2026-04-04T16:16:35.029Z</time></trkpt><trkpt lat="42.3582733" lon="13.7186667"><ele>1154.5</ele><time>2026-04-04T16:16:36.029Z</time></trkpt><trkpt lat="42.3583267" lon="13.7188267"><ele>1159.0</ele><time>2026-04-04T16:16:37.029Z</time></trkpt><trkpt lat="42.358365" lon="13.719"><ele>1159.0</ele><time>2026-04-04T16:16:38.029Z</time></trkpt><trkpt lat="42.35841" lon="13.7191733"><ele>1159.0</ele><time>2026-04-04T16:16:39.029Z</time></trkpt><trkpt lat="42.3584617" lon="13.7193567"><ele>1159.0</ele><time>2026-04-04T16:16:40.029Z</time></trkpt><trkpt lat="42.35851" lon="13.719535"><ele>1159.0</ele><time>2026-04-04T16:16:41.029Z</time></trkpt><trkpt lat="42.358565" lon="13.7197317"><ele>1157.3333333333333</ele><time>2026-04-04T16:16:42.029Z</time></trkpt><trkpt lat="42.3586083" lon="13.7199267"><ele>1155.6666666666667</ele><time>2026-04-04T16:16:43.029Z</time></trkpt><trkpt lat="42.358655" lon="13.7201217"><ele>1154.0</ele><time>2026-04-04T16:16:44.029Z</time></trkpt><trkpt lat="42.3587033" lon="13.7203117"><ele>1151.3333333333335</ele><time>2026-04-04T16:16:45.029Z</time></trkpt><trkpt lat="42.3587517" lon="13.7205117"><ele>1148.6666666666667</ele><time>2026-04-04T16:16:46.029Z</time></trkpt><trkpt lat="42.35881" lon="13.7207117"><ele>1146.0</ele><time>2026-04-04T16:16:47.029Z</time></trkpt><trkpt lat="42.3588717" lon="13.7209033"><ele>1153.5</ele><time>2026-04-04T16:16:48.029Z</time></trkpt><trkpt lat="42.3589267" lon="13.721085"><ele>1161.0</ele><time>2026-04-04T16:16:49.029Z</time></trkpt><trkpt lat="42.3589783" lon="13.72127"><ele>1168.5</ele><time>2026-04-04T16:16:50.029Z</time></trkpt><trkpt lat="42.35904" lon="13.7214667"><ele>1176.0</ele><time>2026-04-04T16:16:51.029Z</time></trkpt><trkpt lat="42.3591033" lon="13.7216617"><ele>1176.0</ele><time>2026-04-04T16:16:52.029Z</time></trkpt><trkpt lat="42.35917" lon="13.72185"><ele>1176.0</ele><time>2026-04-04T16:16:53.029Z</time></trkpt><trkpt lat="42.3592333" lon="13.7220317"><ele>1176.0</ele><time>2026-04-04T16:16:54.029Z</time></trkpt><trkpt lat="42.359295" lon="13.7221983"><ele>1176.0</ele><time>2026-04-04T16:16:55.029Z</time></trkpt><trkpt lat="42.3593517" lon="13.722355"><ele>1176.0</ele><time>2026-04-04T16:16:56.029Z</time></trkpt><trkpt lat="42.3594" lon="13.7225"><ele>1176.0</ele><time>2026-04-04T16:16:57.029Z</time></trkpt><trkpt lat="42.3594433" lon="13.7226283"><ele>1176.0</ele><time>2026-04-04T16:16:58.028Z</time></trkpt><trkpt lat="42.3594817" lon="13.7227483"><ele>1176.0</ele><time>2026-04-04T16:16:59.029Z</time></trkpt><trkpt lat="42.359515" lon="13.7228617"><ele>1176.0</ele><time>2026-04-04T16:17:00.028Z</time></trkpt><trkpt lat="42.3595367" lon="13.7229767"><ele>1176.0</ele><time>2026-04-04T16:17:01.029Z</time></trkpt><trkpt lat="42.3595483" lon="13.7230967"><ele>1176.0</ele><time>2026-04-04T16:17:02.029Z</time></trkpt><trkpt lat="42.3595517" lon="13.7232"><ele>1176.0</ele><time>2026-04-04T16:17:03.029Z</time></trkpt><trkpt lat="42.3595533" lon="13.7232983"><ele>1176.0</ele><time>2026-04-04T16:17:04.029Z</time></trkpt><trkpt lat="42.359555" lon="13.7233917"><ele>1176.0</ele><time>2026-04-04T16:17:05.029Z</time></trkpt><trkpt lat="42.3595667" lon="13.7234767"><ele>1176.0</ele><time>2026-04-04T16:17:06.029Z</time></trkpt><trkpt lat="42.3596133" lon="13.7235933"><ele>1178.6</ele><time>2026-04-04T16:17:08.029Z</time></trkpt><trkpt lat="42.3597017" lon="13.723585"><ele>1181.1999999999998</ele><time>2026-04-04T16:17:10.029Z</time></trkpt><trkpt lat="42.359775" lon="13.723445"><ele>1183.8000000000002</ele><time>2026-04-04T16:17:12.029Z</time></trkpt><trkpt lat="42.3597733" lon="13.7233483"><ele>1186.4</ele><time>2026-04-04T16:17:13.029Z</time></trkpt><trkpt lat="42.35975" lon="13.72323"><ele>1189.0</ele><time>2026-04-04T16:17:14.029Z</time></trkpt><trkpt lat="42.359705" lon="13.7231083"><ele>1186.4</ele><time>2026-04-04T16:17:15.029Z</time></trkpt><trkpt lat="42.3596683" lon="13.7229767"><ele>1183.8000000000002</ele><time>2026-04-04T16:17:16.029Z</time></trkpt><trkpt lat="42.3596533" lon="13.72284"><ele>1181.1999999999998</ele><time>2026-04-04T16:17:17.029Z</time></trkpt><trkpt lat="42.3596433" lon="13.7226933"><ele>1178.6</ele><time>2026-04-04T16:17:18.029Z</time></trkpt><trkpt lat="42.35963" lon="13.7225467"><ele>1176.0</ele><time>2026-04-04T16:17:19.029Z</time></trkpt><trkpt lat="42.3596083" lon="13.7223967"><ele>1176.0</ele><time>2026-04-04T16:17:20.029Z</time></trkpt><trkpt lat="42.3595767" lon="13.72225"><ele>1176.0</ele><time>2026-04-04T16:17:21.029Z</time></trkpt><trkpt lat="42.3595433" lon="13.7221067"><ele>1176.0</ele><time>2026-04-04T16:17:22.029Z</time></trkpt><trkpt lat="42.3595" lon="13.7219617"><ele>1176.0</ele><time>2026-04-04T16:17:23.029Z</time></trkpt><trkpt lat="42.359475" lon="13.72181"><ele>1176.0</ele><time>2026-04-04T16:17:24.029Z</time></trkpt><trkpt lat="42.35947" lon="13.7216517"><ele>1176.0</ele><time>2026-04-04T16:17:25.029Z</time></trkpt><trkpt lat="42.3594767" lon="13.7214983"><ele>1176.0</ele><time>2026-04-04T16:17:26.029Z</time></trkpt><trkpt lat="42.3594867" lon="13.7213467"><ele>1176.0</ele><time>2026-04-04T16:17:27.028Z</time></trkpt><trkpt lat="42.3595017" lon="13.7211917"><ele>1178.0</ele><time>2026-04-04T16:17:28.029Z</time></trkpt><trkpt lat="42.3595117" lon="13.7210333"><ele>1180.0</ele><time>2026-04-04T16:17:29.029Z</time></trkpt><trkpt lat="42.359515" lon="13.7208783"><ele>1182.0</ele><time>2026-04-04T16:17:30.029Z</time></trkpt><trkpt lat="42.3595067" lon="13.7207283"><ele>1184.0</ele><time>2026-04-04T16:17:31.029Z</time></trkpt><trkpt lat="42.3594933" lon="13.7205783"><ele>1184.0</ele><time>2026-04-04T16:17:32.029Z</time></trkpt><trkpt lat="42.3594683" lon="13.72041"><ele>1184.0</ele><time>2026-04-04T16:17:33.029Z</time></trkpt><trkpt lat="42.3594567" lon="13.72023"><ele>1184.0</ele><time>2026-04-04T16:17:34.028Z</time></trkpt><trkpt lat="42.3594617" lon="13.7200417"><ele>1184.0</ele><time>2026-04-04T16:17:35.029Z</time></trkpt><trkpt lat="42.3594883" lon="13.7198533"><ele>1184.5</ele><time>2026-04-04T16:17:36.029Z</time></trkpt><trkpt lat="42.3595317" lon="13.7196733"><ele>1185.0</ele><time>2026-04-04T16:17:37.029Z</time></trkpt><trkpt lat="42.3595767" lon="13.7194917"><ele>1185.5</ele><time>2026-04-04T16:17:38.029Z</time></trkpt><trkpt lat="42.3595967" lon="13.7193083"><ele>1186.0</ele><time>2026-04-04T16:17:39.029Z</time></trkpt><trkpt lat="42.3595883" lon="13.7191183"><ele>1187.0</ele><time>2026-04-04T16:17:40.029Z</time></trkpt><trkpt lat="42.35956" lon="13.71893"><ele>1188.0</ele><time>2026-04-04T16:17:41.029Z</time></trkpt><trkpt lat="42.3595233" lon="13.71873"><ele>1189.0</ele><time>2026-04-04T16:17:42.029Z</time></trkpt><trkpt lat="42.3595" lon="13.7185183"><ele>1190.6666666666665</ele><time>2026-04-04T16:17:43.029Z</time></trkpt><trkpt lat="42.3594717" lon="13.7183067"><ele>1192.3333333333333</ele><time>2026-04-04T16:17:44.028Z</time></trkpt><trkpt lat="42.359455" lon="13.7180933"><ele>1194.0</ele><time>2026-04-04T16:17:45.028Z</time></trkpt><trkpt lat="42.359435" lon="13.7178767"><ele>1197.0</ele><time>2026-04-04T16:17:46.029Z</time></trkpt><trkpt lat="42.359415" lon="13.7176617"><ele>1200.0</ele><time>2026-04-04T16:17:47.029Z</time></trkpt><trkpt lat="42.35939" lon="13.71744"><ele>1203.0</ele><time>2026-04-04T16:17:48.029Z</time></trkpt><trkpt lat="42.3593617" lon="13.7172117"><ele>1203.0</ele><time>2026-04-04T16:17:49.029Z</time></trkpt><trkpt lat="42.3593333" lon="13.716985"><ele>1203.0</ele><time>2026-04-04T16:17:50.029Z</time></trkpt><trkpt lat="42.3593017" lon="13.716775"><ele>1203.0</ele><time>2026-04-04T16:17:51.029Z</time></trkpt><trkpt lat="42.35927" lon="13.7165817"><ele>1204.75</ele><time>2026-04-04T16:17:52.029Z</time></trkpt><trkpt lat="42.359245" lon="13.716395"><ele>1206.5</ele><time>2026-04-04T16:17:53.029Z</time></trkpt><trkpt lat="42.3592183" lon="13.7162183"><ele>1208.25</ele><time>2026-04-04T16:17:54.029Z</time></trkpt><trkpt lat="42.359205" lon="13.71604"><ele>1210.0</ele><time>2026-04-04T16:17:55.029Z</time></trkpt><trkpt lat="42.3592067" lon="13.7158517"><ele>1211.25</ele><time>2026-04-04T16:17:56.029Z</time></trkpt><trkpt lat="42.359225" lon="13.715665"><ele>1212.5</ele><time>2026-04-04T16:17:57.029Z</time></trkpt><trkpt lat="42.35925" lon="13.7154767"><ele>1213.75</ele><time>2026-04-04T16:17:58.029Z</time></trkpt><trkpt lat="42.3592733" lon="13.7152967"><ele>1215.0</ele><time>2026-04-04T16:17:59.029Z</time></trkpt><trkpt lat="42.3592983" lon="13.715125"><ele>1215.4</ele><time>2026-04-04T16:18:00.029Z</time></trkpt><trkpt lat="42.35931" lon="13.714975"><ele>1215.8</ele><time>2026-04-04T16:18:01.029Z</time></trkpt><trkpt lat="42.359325" lon="13.7148367"><ele>1216.2</ele><time>2026-04-04T16:18:02.029Z</time></trkpt><trkpt lat="42.359325" lon="13.7147317"><ele>1216.6</ele><time>2026-04-04T16:18:03.029Z</time></trkpt><trkpt lat="42.359355" lon="13.714585"><ele>1217.0</ele><time>2026-04-04T16:18:05.029Z</time></trkpt><trkpt lat="42.3594233" lon="13.7145617"><ele>1217.0</ele><time>2026-04-04T16:18:07.029Z</time></trkpt><trkpt lat="42.3594517" lon="13.714655"><ele>1217.0</ele><time>2026-04-04T16:18:09.029Z</time></trkpt><trkpt lat="42.3594533" lon="13.7147583"><ele>1217.0</ele><time>2026-04-04T16:18:10.029Z</time></trkpt><trkpt lat="42.359445" lon="13.7149"><ele>1217.0</ele><time>2026-04-04T16:18:11.029Z</time></trkpt><trkpt lat="42.3594483" lon="13.7150667"><ele>1217.0</ele><time>2026-04-04T16:18:12.029Z</time></trkpt><trkpt lat="42.3594533" lon="13.7152533"><ele>1216.5</ele><time>2026-04-04T16:18:13.029Z</time></trkpt><trkpt lat="42.3594533" lon="13.7154517"><ele>1216.0</ele><time>2026-04-04T16:18:14.029Z</time></trkpt><trkpt lat="42.359475" lon="13.7156383"><ele>1215.5</ele><time>2026-04-04T16:18:15.029Z</time></trkpt><trkpt lat="42.3594983" lon="13.71581"><ele>1215.0</ele><time>2026-04-04T16:18:16.029Z</time></trkpt><trkpt lat="42.3595167" lon="13.7159833"><ele>1213.75</ele><time>2026-04-04T16:18:17.029Z</time></trkpt><trkpt lat="42.359545" lon="13.7161417"><ele>1212.5</ele><time>2026-04-04T16:18:18.029Z</time></trkpt><trkpt lat="42.3595767" lon="13.7162933"><ele>1211.25</ele><time>2026-04-04T16:18:19.029Z</time></trkpt><trkpt lat="42.3596183" lon="13.7164517"><ele>1210.0</ele><time>2026-04-04T16:18:20.029Z</time></trkpt><trkpt lat="42.359665" lon="13.716605"><ele>1218.0</ele><time>2026-04-04T16:18:21.029Z</time></trkpt><trkpt lat="42.3597233" lon="13.7167617"><ele>1226.0</ele><time>2026-04-04T16:18:22.029Z</time></trkpt><trkpt lat="42.3597817" lon="13.7169183"><ele>1234.0</ele><time>2026-04-04T16:18:23.028Z</time></trkpt><trkpt lat="42.3598433" lon="13.7170667"><ele>1242.0</ele><time>2026-04-04T16:18:24.029Z</time></trkpt><trkpt lat="42.3599017" lon="13.7172133"><ele>1242.0</ele><time>2026-04-04T16:18:25.029Z</time></trkpt><trkpt lat="42.35996" lon="13.7173667"><ele>1242.0</ele><time>2026-04-04T16:18:26.028Z</time></trkpt><trkpt lat="42.3600217" lon="13.7175133"><ele>1242.0</ele><time>2026-04-04T16:18:27.029Z</time></trkpt><trkpt lat="42.3600867" lon="13.7176617"><ele>1242.0</ele><time>2026-04-04T16:18:28.029Z</time></trkpt><trkpt lat="42.3601533" lon="13.7178117"><ele>1239.5</ele><time>2026-04-04T16:18:29.029Z</time></trkpt><trkpt lat="42.3602233" lon="13.7179667"><ele>1237.0</ele><time>2026-04-04T16:18:30.029Z</time></trkpt><trkpt lat="42.360295" lon="13.7181233"><ele>1234.5</ele><time>2026-04-04T16:18:31.029Z</time></trkpt><trkpt lat="42.3603767" lon="13.7182717"><ele>1232.0</ele><time>2026-04-04T16:18:32.029Z</time></trkpt><trkpt lat="42.3604517" lon="13.7184233"><ele>1230.0</ele><time>2026-04-04T16:18:33.03Z</time></trkpt><trkpt lat="42.3605167" lon="13.7185717"><ele>1228.0</ele><time>2026-04-04T16:18:34.03Z</time></trkpt><trkpt lat="42.3605783" lon="13.71873"><ele>1226.0</ele><time>2026-04-04T16:18:35.03Z</time></trkpt><trkpt lat="42.360625" lon="13.7189"><ele>1224.0</ele><time>2026-04-04T16:18:36.03Z</time></trkpt><trkpt lat="42.3606617" lon="13.7190833"><ele>1232.5</ele><time>2026-04-04T16:18:37.03Z</time></trkpt><trkpt lat="42.3606933" lon="13.7192667"><ele>1241.0</ele><time>2026-04-04T16:18:38.03Z</time></trkpt><trkpt lat="42.360715" lon="13.7194533"><ele>1249.5</ele><time>2026-04-04T16:18:39.03Z</time></trkpt><trkpt lat="42.360735" lon="13.7196417"><ele>1258.0</ele><time>2026-04-04T16:18:40.03Z</time></trkpt><trkpt lat="42.36075" lon="13.719835"><ele>1258.0</ele><time>2026-04-04T16:18:41.03Z</time></trkpt><trkpt lat="42.3607717" lon="13.720005"><ele>1258.0</ele><time>2026-04-04T16:18:42.03Z</time></trkpt><trkpt lat="42.3607883" lon="13.720175"><ele>1258.0</ele><time>2026-04-04T16:18:43.03Z</time></trkpt><trkpt lat="42.360805" lon="13.7203267"><ele>1258.0</ele><time>2026-04-04T16:18:44.03Z</time></trkpt><trkpt lat="42.3608217" lon="13.7204617"><ele>1257.5</ele><time>2026-04-04T16:18:45.03Z</time></trkpt><trkpt lat="42.3608367" lon="13.720575"><ele>1257.0</ele><time>2026-04-04T16:18:46.03Z</time></trkpt><trkpt lat="42.3608517" lon="13.720685"><ele>1256.5</ele><time>2026-04-04T16:18:47.03Z</time></trkpt><trkpt lat="42.36087" lon="13.72077"><ele>1256.0</ele><time>2026-04-04T16:18:48.03Z</time></trkpt><trkpt lat="42.3608967" lon="13.7208817"><ele>1255.5</ele><time>2026-04-04T16:18:50.03Z</time></trkpt><trkpt lat="42.3609533" lon="13.7209533"><ele>1255.0</ele><time>2026-04-04T16:18:53.03Z</time></trkpt><trkpt lat="42.3610083" lon="13.7208933"><ele>1255.0</ele><time>2026-04-04T16:20:11.03Z</time></trkpt><trkpt lat="42.3610717" lon="13.7207383"><ele>1255.0</ele><time>2026-04-04T16:20:13.03Z</time></trkpt><trkpt lat="42.3610867" lon="13.72064"><ele>1255.0</ele><time>2026-04-04T16:20:14.03Z</time></trkpt><trkpt lat="42.36109" lon="13.7205367"><ele>1255.0</ele><time>2026-04-04T16:20:15.03Z</time></trkpt><trkpt lat="42.3610867" lon="13.7204367"><ele>1255.0</ele><time>2026-04-04T16:20:16.03Z</time></trkpt><trkpt lat="42.3610817" lon="13.7203317"><ele>1255.0</ele><time>2026-04-04T16:20:17.03Z</time></trkpt><trkpt lat="42.36108" lon="13.720225"><ele>1255.5</ele><time>2026-04-04T16:20:18.03Z</time></trkpt><trkpt lat="42.3610767" lon="13.7201267"><ele>1256.0</ele><time>2026-04-04T16:20:19.03Z</time></trkpt><trkpt lat="42.36108" lon="13.7200217"><ele>1256.5</ele><time>2026-04-04T16:20:20.03Z</time></trkpt><trkpt lat="42.3610817" lon="13.719915"><ele>1257.0</ele><time>2026-04-04T16:20:21.03Z</time></trkpt><trkpt lat="42.3610783" lon="13.719805"><ele>1257.5</ele><time>2026-04-04T16:20:22.03Z</time></trkpt><trkpt lat="42.3610817" lon="13.7196983"><ele>1258.0</ele><time>2026-04-04T16:20:23.03Z</time></trkpt><trkpt lat="42.3610933" lon="13.7196117"><ele>1258.0</ele><time>2026-04-04T16:20:24.03Z</time></trkpt><trkpt lat="42.36115" lon="13.7195033"><ele>1258.0</ele><time>2026-04-04T16:20:26.03Z</time></trkpt><trkpt lat="42.361215" lon="13.71957"><ele>1258.0</ele><time>2026-04-04T16:20:28.03Z</time></trkpt><trkpt lat="42.3612283" lon="13.719725"><ele>1258.0</ele><time>2026-04-04T16:20:30.03Z</time></trkpt><trkpt lat="42.3612383" lon="13.71989"><ele>1258.0</ele><time>2026-04-04T16:20:32.03Z</time></trkpt><trkpt lat="42.3612433" lon="13.7199783"><ele>1258.0</ele><time>2026-04-04T16:20:33.03Z</time></trkpt><trkpt lat="42.3612467" lon="13.7200667"><ele>1258.0</ele><time>2026-04-04T16:20:34.03Z</time></trkpt><trkpt lat="42.3612483" lon="13.7201633"><ele>1258.0</ele><time>2026-04-04T16:20:35.029Z</time></trkpt><trkpt lat="42.3612517" lon="13.720265"><ele>1258.0</ele><time>2026-04-04T16:20:36.03Z</time></trkpt><trkpt lat="42.3612533" lon="13.720355"><ele>1258.0</ele><time>2026-04-04T16:20:37.03Z</time></trkpt><trkpt lat="42.3612583" lon="13.7204467"><ele>1258.0</ele><time>2026-04-04T16:20:38.03Z</time></trkpt><trkpt lat="42.3612583" lon="13.7205367"><ele>1258.0</ele><time>2026-04-04T16:20:39.03Z</time></trkpt><trkpt lat="42.3612667" lon="13.7206233"><ele>1257.5</ele><time>2026-04-04T16:20:40.03Z</time></trkpt><trkpt lat="42.3612917" lon="13.7207233"><ele>1257.0</ele><time>2026-04-04T16:20:41.03Z</time></trkpt><trkpt lat="42.36135" lon="13.7207933"><ele>1256.5</ele><time>2026-04-04T16:20:42.029Z</time></trkpt><trkpt lat="42.3614233" lon="13.7208333"><ele>1256.0</ele><time>2026-04-04T16:20:43.03Z</time></trkpt><trkpt lat="42.361515" lon="13.720845"><ele>1255.5</ele><time>2026-04-04T16:20:44.03Z</time></trkpt><trkpt lat="42.3616067" lon="13.7208333"><ele>1255.0</ele><time>2026-04-04T16:20:45.03Z</time></trkpt><trkpt lat="42.361695" lon="13.7208217"><ele>1258.8</ele><time>2026-04-04T16:20:46.03Z</time></trkpt><trkpt lat="42.3617883" lon="13.7208067"><ele>1262.6</ele><time>2026-04-04T16:20:47.03Z</time></trkpt><trkpt lat="42.361885" lon="13.7207967"><ele>1266.4</ele><time>2026-04-04T16:20:48.03Z</time></trkpt><trkpt lat="42.3619867" lon="13.7208017"><ele>1270.2</ele><time>2026-04-04T16:20:49.03Z</time></trkpt><trkpt lat="42.3620833" lon="13.720815"><ele>1274.0</ele><time>2026-04-04T16:20:50.03Z</time></trkpt><trkpt lat="42.3621717" lon="13.720835"><ele>1275.6666666666667</ele><time>2026-04-04T16:20:51.03Z</time></trkpt><trkpt lat="42.3622533" lon="13.7208683"><ele>1277.3333333333335</ele><time>2026-04-04T16:20:52.03Z</time></trkpt><trkpt lat="42.3623317" lon="13.72092"><ele>1279.0</ele><time>2026-04-04T16:20:53.03Z</time></trkpt><trkpt lat="42.3624" lon="13.7209883"><ele>1280.6666666666667</ele><time>2026-04-04T16:20:54.03Z</time></trkpt><trkpt lat="42.3624533" lon="13.7210817"><ele>1282.3333333333333</ele><time>2026-04-04T16:20:55.03Z</time></trkpt><trkpt lat="42.3624867" lon="13.7211883"><ele>1284.0</ele><time>2026-04-04T16:20:56.03Z</time></trkpt><trkpt lat="42.3625067" lon="13.7212967"><ele>1284.0</ele><time>2026-04-04T16:20:57.03Z</time></trkpt><trkpt lat="42.362525" lon="13.721415"><ele>1284.0</ele><time>2026-04-04T16:20:58.029Z</time></trkpt><trkpt lat="42.3625517" lon="13.721545"><ele>1284.0</ele><time>2026-04-04T16:20:59.03Z</time></trkpt><trkpt lat="42.36258" lon="13.7216783"><ele>1284.0</ele><time>2026-04-04T16:21:00.03Z</time></trkpt><trkpt lat="42.3626083" lon="13.7218067"><ele>1284.0</ele><time>2026-04-04T16:21:01.03Z</time></trkpt><trkpt lat="42.3626333" lon="13.721945"><ele>1282.4</ele><time>2026-04-04T16:21:02.03Z</time></trkpt><trkpt lat="42.36266" lon="13.7220667"><ele>1280.8000000000002</ele><time>2026-04-04T16:21:03.03Z</time></trkpt><trkpt lat="42.3626917" lon="13.7222033"><ele>1279.1999999999998</ele><time>2026-04-04T16:21:04.03Z</time></trkpt><trkpt lat="42.362715" lon="13.72233"><ele>1277.6</ele><time>2026-04-04T16:21:05.03Z</time></trkpt><trkpt lat="42.3627483" lon="13.7224583"><ele>1276.0</ele><time>2026-04-04T16:21:06.03Z</time></trkpt><trkpt lat="42.3627917" lon="13.7225983"><ele>1273.6</ele><time>2026-04-04T16:21:07.03Z</time></trkpt><trkpt lat="42.3628283" lon="13.7227317"><ele>1271.1999999999998</ele><time>2026-04-04T16:21:08.03Z</time></trkpt><trkpt lat="42.3628633" lon="13.7228617"><ele>1268.8000000000002</ele><time>2026-04-04T16:21:09.03Z</time></trkpt><trkpt lat="42.3629033" lon="13.7229933"><ele>1266.4</ele><time>2026-04-04T16:21:10.03Z</time></trkpt><trkpt lat="42.3629433" lon="13.723125"><ele>1264.0</ele><time>2026-04-04T16:21:11.03Z</time></trkpt><trkpt lat="42.3629817" lon="13.72325"><ele>1269.75</ele><time>2026-04-04T16:21:12.03Z</time></trkpt><trkpt lat="42.3630633" lon="13.7234983"><ele>1275.5</ele><time>2026-04-04T16:21:14.03Z</time></trkpt><trkpt lat="42.363115" lon="13.7236133"><ele>1281.25</ele><time>2026-04-04T16:21:15.03Z</time></trkpt><trkpt lat="42.36317" lon="13.7237233"><ele>1287.0</ele><time>2026-04-04T16:21:16.03Z</time></trkpt><trkpt lat="42.3632317" lon="13.7238367"><ele>1287.0</ele><time>2026-04-04T16:21:17.03Z</time></trkpt><trkpt lat="42.3632967" lon="13.7239317"><ele>1287.0</ele><time>2026-04-04T16:21:18.03Z</time></trkpt><trkpt lat="42.3633683" lon="13.724"><ele>1287.0</ele><time>2026-04-04T16:21:19.029Z</time></trkpt><trkpt lat="42.3634417" lon="13.7240483"><ele>1287.0</ele><time>2026-04-04T16:21:20.03Z</time></trkpt><trkpt lat="42.36352" lon="13.7240717"><ele>1287.0</ele><time>2026-04-04T16:21:21.03Z</time></trkpt><trkpt lat="42.3635967" lon="13.72408"><ele>1287.0</ele><time>2026-04-04T16:21:22.03Z</time></trkpt><trkpt lat="42.3636783" lon="13.7240883"><ele>1287.0</ele><time>2026-04-04T16:21:23.03Z</time></trkpt><trkpt lat="42.3637683" lon="13.7240983"><ele>1287.0</ele><time>2026-04-04T16:21:24.03Z</time></trkpt><trkpt lat="42.3638567" lon="13.7241167"><ele>1287.0</ele><time>2026-04-04T16:21:25.03Z</time></trkpt><trkpt lat="42.3639467" lon="13.7241533"><ele>1287.0</ele><time>2026-04-04T16:21:26.03Z</time></trkpt><trkpt lat="42.3640333" lon="13.7241983"><ele>1287.0</ele><time>2026-04-04T16:21:27.03Z</time></trkpt><trkpt lat="42.3641" lon="13.7242167"><ele>1287.0</ele><time>2026-04-04T16:21:28.03Z</time></trkpt><trkpt lat="42.364205" lon="13.7242467"><ele>1290.1666666666667</ele><time>2026-04-04T16:21:30.03Z</time></trkpt><trkpt lat="42.3642683" lon="13.7242567"><ele>1293.3333333333333</ele><time>2026-04-04T16:21:32.03Z</time></trkpt><trkpt lat="42.3643383" lon="13.7242717"><ele>1296.5</ele><time>2026-04-04T16:21:35.03Z</time></trkpt><trkpt lat="42.3644117" lon="13.724185"><ele>1299.6666666666665</ele><time>2026-04-04T16:21:38.03Z</time></trkpt><trkpt lat="42.364485" lon="13.7240517"><ele>1302.8333333333333</ele><time>2026-04-04T16:21:40.03Z</time></trkpt><trkpt lat="42.36453" lon="13.7239733"><ele>1306.0</ele><time>2026-04-04T16:21:41.03Z</time></trkpt><trkpt lat="42.3645883" lon="13.7238967"><ele>1306.0</ele><time>2026-04-04T16:21:42.03Z</time></trkpt><trkpt lat="42.364655" lon="13.72381"><ele>1306.0</ele><time>2026-04-04T16:21:43.03Z</time></trkpt><trkpt lat="42.36474" lon="13.7237017"><ele>1306.0</ele><time>2026-04-04T16:21:44.03Z</time></trkpt><trkpt lat="42.36481" lon="13.7236"><ele>1306.0</ele><time>2026-04-04T16:21:45.03Z</time></trkpt><trkpt lat="42.3648733" lon="13.7235033"><ele>1306.0</ele><time>2026-04-04T16:21:46.03Z</time></trkpt><trkpt lat="42.36493" lon="13.7234167"><ele>1306.6</ele><time>2026-04-04T16:21:47.03Z</time></trkpt><trkpt lat="42.3650017" lon="13.72331"><ele>1307.1999999999998</ele><time>2026-04-04T16:21:48.03Z</time></trkpt><trkpt lat="42.3650767" lon="13.7232083"><ele>1307.8000000000002</ele><time>2026-04-04T16:21:49.029Z</time></trkpt><trkpt lat="42.365155" lon="13.7231017"><ele>1308.4</ele><time>2026-04-04T16:21:50.03Z</time></trkpt><trkpt lat="42.3652383" lon="13.7229983"><ele>1309.0</ele><time>2026-04-04T16:21:51.03Z</time></trkpt><trkpt lat="42.3653183" lon="13.72289"><ele>1309.0</ele><time>2026-04-04T16:21:52.03Z</time></trkpt><trkpt lat="42.365395" lon="13.72279"><ele>1309.0</ele><time>2026-04-04T16:21:53.029Z</time></trkpt><trkpt lat="42.3654717" lon="13.72269"><ele>1309.0</ele><time>2026-04-04T16:21:54.03Z</time></trkpt><trkpt lat="42.3655317" lon="13.7225967"><ele>1309.0</ele><time>2026-04-04T16:21:55.03Z</time></trkpt><trkpt lat="42.3655867" lon="13.7225117"><ele>1309.0</ele><time>2026-04-04T16:21:56.03Z</time></trkpt><trkpt lat="42.3656333" lon="13.72243"><ele>1310.1666666666665</ele><time>2026-04-04T16:21:57.03Z</time></trkpt><trkpt lat="42.3656717" lon="13.7223533"><ele>1311.3333333333333</ele><time>2026-04-04T16:21:58.03Z</time></trkpt><trkpt lat="42.3657067" lon="13.722265"><ele>1312.5</ele><time>2026-04-04T16:21:59.029Z</time></trkpt><trkpt lat="42.3657283" lon="13.7221767"><ele>1313.6666666666667</ele><time>2026-04-04T16:22:00.03Z</time></trkpt><trkpt lat="42.3657367" lon="13.7220733"><ele>1314.8333333333335</ele><time>2026-04-04T16:22:01.03Z</time></trkpt><trkpt lat="42.36573" lon="13.7219583"><ele>1316.0</ele><time>2026-04-04T16:22:02.03Z</time></trkpt><trkpt lat="42.365715" lon="13.7218283"><ele>1316.0</ele><time>2026-04-04T16:22:03.03Z</time></trkpt><trkpt lat="42.3656967" lon="13.7217033"><ele>1316.0</ele><time>2026-04-04T16:22:04.03Z</time></trkpt><trkpt lat="42.3656783" lon="13.7215767"><ele>1316.0</ele><time>2026-04-04T16:22:05.03Z</time></trkpt><trkpt lat="42.36566" lon="13.7214533"><ele>1316.0</ele><time>2026-04-04T16:22:06.03Z</time></trkpt><trkpt lat="42.3656467" lon="13.72133"><ele>1316.0</ele><time>2026-04-04T16:22:07.03Z</time></trkpt><trkpt lat="42.36563" lon="13.7211983"><ele>1315.8</ele><time>2026-04-04T16:22:08.03Z</time></trkpt><trkpt lat="42.3656167" lon="13.7210617"><ele>1315.6</ele><time>2026-04-04T16:22:09.03Z</time></trkpt><trkpt lat="42.365605" lon="13.7209233"><ele>1315.4</ele><time>2026-04-04T16:22:10.03Z</time></trkpt><trkpt lat="42.3655933" lon="13.720775"><ele>1315.2</ele><time>2026-04-04T16:22:11.03Z</time></trkpt><trkpt lat="42.3655883" lon="13.7206217"><ele>1315.0</ele><time>2026-04-04T16:22:12.03Z</time></trkpt><trkpt lat="42.3655917" lon="13.7204767"><ele>1315.0</ele><time>2026-04-04T16:22:13.029Z</time></trkpt><trkpt lat="42.3656" lon="13.720335"><ele>1315.0</ele><time>2026-04-04T16:22:14.03Z</time></trkpt><trkpt lat="42.3656083" lon="13.7201933"><ele>1315.0</ele><time>2026-04-04T16:22:15.03Z</time></trkpt><trkpt lat="42.365625" lon="13.7200533"><ele>1315.0</ele><time>2026-04-04T16:22:16.03Z</time></trkpt><trkpt lat="42.3656483" lon="13.7199167"><ele>1315.0</ele><time>2026-04-04T16:22:17.029Z</time></trkpt><trkpt lat="42.36569" lon="13.719775"><ele>1315.0</ele><time>2026-04-04T16:22:18.03Z</time></trkpt><trkpt lat="42.36579" lon="13.7195117"><ele>1315.0</ele><time>2026-04-04T16:22:20.03Z</time></trkpt><trkpt lat="42.3658517" lon="13.7193867"><ele>1315.0</ele><time>2026-04-04T16:22:21.03Z</time></trkpt><trkpt lat="42.3659183" lon="13.7192633"><ele>1315.0</ele><time>2026-04-04T16:22:22.029Z</time></trkpt><trkpt lat="42.365985" lon="13.7191467"><ele>1316.6666666666665</ele><time>2026-04-04T16:22:23.03Z</time></trkpt><trkpt lat="42.3660483" lon="13.7190433"><ele>1318.3333333333333</ele><time>2026-04-04T16:22:24.03Z</time></trkpt><trkpt lat="42.3661183" lon="13.7189617"><ele>1320.0</ele><time>2026-04-04T16:22:25.03Z</time></trkpt><trkpt lat="42.36619" lon="13.7189183"><ele>1321.6666666666667</ele><time>2026-04-04T16:22:26.03Z</time></trkpt><trkpt lat="42.3662633" lon="13.7189017"><ele>1323.3333333333335</ele><time>2026-04-04T16:22:27.03Z</time></trkpt><trkpt lat="42.3663383" lon="13.7189167"><ele>1325.0</ele><time>2026-04-04T16:22:28.03Z</time></trkpt><trkpt lat="42.3664083" lon="13.7189667"><ele>1325.2</ele><time>2026-04-04T16:22:29.03Z</time></trkpt><trkpt lat="42.3664733" lon="13.7190467"><ele>1325.4</ele><time>2026-04-04T16:22:30.03Z</time></trkpt><trkpt lat="42.36652" lon="13.719145"><ele>1325.6</ele><time>2026-04-04T16:22:31.03Z</time></trkpt><trkpt lat="42.3665517" lon="13.7192633"><ele>1325.8</ele><time>2026-04-04T16:22:32.03Z</time></trkpt><trkpt lat="42.3665717" lon="13.719395"><ele>1326.0</ele><time>2026-04-04T16:22:33.03Z</time></trkpt><trkpt lat="42.3665933" lon="13.7195433"><ele>1324.8</ele><time>2026-04-04T16:22:34.03Z</time></trkpt><trkpt lat="42.3666233" lon="13.71969"><ele>1323.6</ele><time>2026-04-04T16:22:35.03Z</time></trkpt><trkpt lat="42.3666533" lon="13.71983"><ele>1322.4</ele><time>2026-04-04T16:22:36.03Z</time></trkpt><trkpt lat="42.3666767" lon="13.7199667"><ele>1321.2</ele><time>2026-04-04T16:22:37.03Z</time></trkpt><trkpt lat="42.366705" lon="13.7200983"><ele>1320.0</ele><time>2026-04-04T16:22:38.03Z</time></trkpt><trkpt lat="42.3667367" lon="13.7202383"><ele>1319.3333333333333</ele><time>2026-04-04T16:22:39.03Z</time></trkpt><trkpt lat="42.3667767" lon="13.7203667"><ele>1318.6666666666667</ele><time>2026-04-04T16:22:40.03Z</time></trkpt><trkpt lat="42.366815" lon="13.7204783"><ele>1318.0</ele><time>2026-04-04T16:22:41.03Z</time></trkpt><trkpt lat="42.3668683" lon="13.7205783"><ele>1317.3333333333335</ele><time>2026-04-04T16:22:42.029Z</time></trkpt><trkpt lat="42.3669167" lon="13.7206733"><ele>1316.6666666666667</ele><time>2026-04-04T16:22:43.03Z</time></trkpt><trkpt lat="42.3669567" lon="13.7207567"><ele>1316.0</ele><time>2026-04-04T16:22:44.03Z</time></trkpt><trkpt lat="42.3669933" lon="13.7208483"><ele>1316.0</ele><time>2026-04-04T16:22:45.03Z</time></trkpt><trkpt lat="42.3670233" lon="13.7209467"><ele>1316.0</ele><time>2026-04-04T16:22:46.03Z</time></trkpt><trkpt lat="42.3670517" lon="13.7210583"><ele>1316.0</ele><time>2026-04-04T16:22:47.03Z</time></trkpt><trkpt lat="42.3670733" lon="13.7211717"><ele>1316.0</ele><time>2026-04-04T16:22:48.03Z</time></trkpt><trkpt lat="42.3670883" lon="13.7212917"><ele>1316.0</ele><time>2026-04-04T16:22:49.03Z</time></trkpt><trkpt lat="42.3670833" lon="13.721405"><ele>1316.0</ele><time>2026-04-04T16:22:50.03Z</time></trkpt><trkpt lat="42.36706" lon="13.7215133"><ele>1316.6666666666667</ele><time>2026-04-04T16:22:51.03Z</time></trkpt><trkpt lat="42.367035" lon="13.7216133"><ele>1317.3333333333335</ele><time>2026-04-04T16:22:52.03Z</time></trkpt><trkpt lat="42.367005" lon="13.7217033"><ele>1318.0</ele><time>2026-04-04T16:22:53.03Z</time></trkpt><trkpt lat="42.3669717" lon="13.7217783"><ele>1318.6666666666667</ele><time>2026-04-04T16:22:54.03Z</time></trkpt><trkpt lat="42.3668833" lon="13.7219017"><ele>1319.3333333333333</ele><time>2026-04-04T16:22:56.029Z</time></trkpt><trkpt lat="42.36682" lon="13.7219533"><ele>1320.0</ele><time>2026-04-04T16:22:57.03Z</time></trkpt><trkpt lat="42.3667583" lon="13.7219967"><ele>1321.7142857142858</ele><time>2026-04-04T16:22:58.03Z</time></trkpt><trkpt lat="42.3666983" lon="13.7220417"><ele>1323.4285714285716</ele><time>2026-04-04T16:22:59.03Z</time></trkpt><trkpt lat="42.366645" lon="13.7221033"><ele>1325.1428571428573</ele><time>2026-04-04T16:23:00.03Z</time></trkpt><trkpt lat="42.3665917" lon="13.7221717"><ele>1326.857142857143</ele><time>2026-04-04T16:23:01.03Z</time></trkpt><trkpt lat="42.3665383" lon="13.7222333"><ele>1328.5714285714284</ele><time>2026-04-04T16:23:02.03Z</time></trkpt><trkpt lat="42.3664883" lon="13.7223083"><ele>1330.2857142857144</ele><time>2026-04-04T16:23:03.03Z</time></trkpt><trkpt lat="42.3664433" lon="13.7223883"><ele>1332.0</ele><time>2026-04-04T16:23:04.03Z</time></trkpt><trkpt lat="42.366405" lon="13.722465"><ele>1333.3999999999999</ele><time>2026-04-04T16:23:05.03Z</time></trkpt><trkpt lat="42.3663433" lon="13.7226017"><ele>1334.8</ele><time>2026-04-04T16:23:07.03Z</time></trkpt><trkpt lat="42.366325" lon="13.7227717"><ele>1336.2</ele><time>2026-04-04T16:23:09.03Z</time></trkpt><trkpt lat="42.36632" lon="13.72291"><ele>1337.6</ele><time>2026-04-04T16:23:11.03Z</time></trkpt><trkpt lat="42.36632" lon="13.7230033"><ele>1339.0</ele><time>2026-04-04T16:23:13.03Z</time></trkpt><trkpt lat="42.3663617" lon="13.7230967"><ele>1339.0</ele><time>2026-04-04T16:23:17.03Z</time></trkpt><trkpt lat="42.366395" lon="13.7232217"><ele>1339.0</ele><time>2026-04-04T16:23:20.029Z</time></trkpt><trkpt lat="42.3663967" lon="13.7233333"><ele>1339.0</ele><time>2026-04-04T16:23:22.03Z</time></trkpt><trkpt lat="42.3663917" lon="13.7234667"><ele>1339.0</ele><time>2026-04-04T16:23:24.03Z</time></trkpt><trkpt lat="42.3663767" lon="13.7236067"><ele>1339.0</ele><time>2026-04-04T16:23:26.03Z</time></trkpt><trkpt lat="42.3663383" lon="13.7237317"><ele>1335.2</ele><time>2026-04-04T16:23:28.03Z</time></trkpt><trkpt lat="42.3662817" lon="13.72388"><ele>1331.4</ele><time>2026-04-04T16:23:30.03Z</time></trkpt><trkpt lat="42.3662367" lon="13.7240283"><ele>1327.6</ele><time>2026-04-04T16:23:32.029Z</time></trkpt><trkpt lat="42.3661833" lon="13.7241467"><ele>1323.8</ele><time>2026-04-04T16:23:34.03Z</time></trkpt><trkpt lat="42.3661367" lon="13.7242583"><ele>1320.0</ele><time>2026-04-04T16:23:36.03Z</time></trkpt><trkpt lat="42.36609" lon="13.724375"><ele>1322.2</ele><time>2026-04-04T16:23:38.03Z</time></trkpt><trkpt lat="42.3660233" lon="13.7245017"><ele>1324.4</ele><time>2026-04-04T16:23:40.03Z</time></trkpt><trkpt lat="42.3659733" lon="13.7246"><ele>1326.6</ele><time>2026-04-04T16:23:42.03Z</time></trkpt><trkpt lat="42.3659233" lon="13.7247"><ele>1328.8</ele><time>2026-04-04T16:23:44.03Z</time></trkpt><trkpt lat="42.365875" lon="13.7248"><ele>1331.0</ele><time>2026-04-04T16:23:46.03Z</time></trkpt><trkpt lat="42.365815" lon="13.7249217"><ele>1331.0</ele><time>2026-04-04T16:23:48.03Z</time></trkpt><trkpt lat="42.365755" lon="13.7250467"><ele>1331.0</ele><time>2026-04-04T16:23:50.03Z</time></trkpt><trkpt lat="42.3656933" lon="13.7251933"><ele>1331.0</ele><time>2026-04-04T16:23:52.03Z</time></trkpt><trkpt lat="42.3656283" lon="13.7253417"><ele>1331.0</ele><time>2026-04-04T16:23:54.03Z</time></trkpt><trkpt lat="42.3655933" lon="13.7254217"><ele>1331.0</ele><time>2026-04-04T16:23:55.03Z</time></trkpt><trkpt lat="42.36556" lon="13.725505"><ele>1331.3333333333335</ele><time>2026-04-04T16:23:56.029Z</time></trkpt><trkpt lat="42.365525" lon="13.72559"><ele>1331.6666666666667</ele><time>2026-04-04T16:23:57.03Z</time></trkpt><trkpt lat="42.36549" lon="13.725665"><ele>1332.0</ele><time>2026-04-04T16:23:58.03Z</time></trkpt><trkpt lat="42.3654567" lon="13.7257433"><ele>1332.3333333333333</ele><time>2026-04-04T16:23:59.03Z</time></trkpt><trkpt lat="42.3654017" lon="13.7258783"><ele>1332.6666666666665</ele><time>2026-04-04T16:24:01.03Z</time></trkpt><trkpt lat="42.365345" lon="13.7260017"><ele>1333.0</ele><time>2026-04-04T16:24:03.03Z</time></trkpt><trkpt lat="42.3652983" lon="13.7260833"><ele>1333.0</ele><time>2026-04-04T16:24:05.03Z</time></trkpt><trkpt lat="42.3652633" lon="13.7261667"><ele>1333.0</ele><time>2026-04-04T16:24:09.03Z</time></trkpt><trkpt lat="42.365215" lon="13.726245"><ele>1333.0</ele><time>2026-04-04T16:24:12.03Z</time></trkpt><trkpt lat="42.3651683" lon="13.7263367"><ele>1333.0</ele><time>2026-04-04T16:24:15.03Z</time></trkpt><trkpt lat="42.36513" lon="13.7264233"><ele>1333.0</ele><time>2026-04-04T16:24:18.03Z</time></trkpt><trkpt lat="42.36509" lon="13.726505"><ele>1333.0</ele><time>2026-04-04T16:24:22.03Z</time></trkpt><trkpt lat="42.3650067" lon="13.72651"><ele>1333.0</ele><time>2026-04-04T16:24:25.03Z</time></trkpt><trkpt lat="42.36495" lon="13.726575"><ele>1333.0</ele><time>2026-04-04T16:24:29.03Z</time></trkpt><trkpt lat="42.3649767" lon="13.72668"><ele>1333.0</ele><time>2026-04-04T16:24:32.03Z</time></trkpt><trkpt lat="42.365025" lon="13.726735"><ele>1333.0</ele><time>2026-04-04T16:24:35.03Z</time></trkpt></trkseg><trkseg><trkpt lat="42.36508" lon="13.7266583"><ele>1333.0</ele><time>2026-04-04T17:18:50.028Z</time></trkpt><trkpt lat="42.3651067" lon="13.7265667"><ele>1333.0</ele><time>2026-04-04T17:18:52.028Z</time></trkpt><trkpt lat="42.365135" lon="13.7264833"><ele>1333.0</ele><time>2026-04-04T17:18:54.028Z</time></trkpt><trkpt lat="42.365175" lon="13.7263967"><ele>1333.0</ele><time>2026-04-04T17:18:56.028Z</time></trkpt><trkpt lat="42.3652317" lon="13.7263317"><ele>1333.0</ele><time>2026-04-04T17:18:58.028Z</time></trkpt><trkpt lat="42.3653233" lon="13.7262483"><ele>1333.0</ele><time>2026-04-04T17:19:00.028Z</time></trkpt><trkpt lat="42.3653933" lon="13.7261183"><ele>1331.5714285714284</ele><time>2026-04-04T17:19:02.028Z</time></trkpt><trkpt lat="42.3654317" lon="13.7260383"><ele>1330.142857142857</ele><time>2026-04-04T17:19:03.028Z</time></trkpt><trkpt lat="42.3654683" lon="13.725965"><ele>1328.7142857142858</ele><time>2026-04-04T17:19:04.028Z</time></trkpt><trkpt lat="42.3655033" lon="13.7258883"><ele>1327.2857142857142</ele><time>2026-04-04T17:19:05.028Z</time></trkpt><trkpt lat="42.3655333" lon="13.7258033"><ele>1325.857142857143</ele><time>2026-04-04T17:19:06.028Z</time></trkpt><trkpt lat="42.3655667" lon="13.7257233"><ele>1324.4285714285713</ele><time>2026-04-04T17:19:07.028Z</time></trkpt><trkpt lat="42.3656" lon="13.72565"><ele>1323.0</ele><time>2026-04-04T17:19:08.028Z</time></trkpt><trkpt lat="42.36563" lon="13.7255667"><ele>1324.142857142857</ele><time>2026-04-04T17:19:09.028Z</time></trkpt><trkpt lat="42.3656617" lon="13.7254833"><ele>1325.2857142857142</ele><time>2026-04-04T17:19:10.028Z</time></trkpt><trkpt lat="42.365695" lon="13.7253983"><ele>1326.4285714285716</ele><time>2026-04-04T17:19:11.028Z</time></trkpt><trkpt lat="42.36573" lon="13.725315"><ele>1327.5714285714284</ele><time>2026-04-04T17:19:12.028Z</time></trkpt><trkpt lat="42.3657633" lon="13.7252317"><ele>1328.7142857142858</ele><time>2026-04-04T17:19:13.028Z</time></trkpt><trkpt lat="42.3657967" lon="13.7251517"><ele>1329.857142857143</ele><time>2026-04-04T17:19:14.028Z</time></trkpt><trkpt lat="42.3658233" lon="13.7250733"><ele>1331.0</ele><time>2026-04-04T17:19:15.028Z</time></trkpt><trkpt lat="42.3658783" lon="13.7249183"><ele>1331.0</ele><time>2026-04-04T17:19:17.028Z</time></trkpt><trkpt lat="42.365905" lon="13.7248183"><ele>1331.0</ele><time>2026-04-04T17:19:18.028Z</time></trkpt><trkpt lat="42.36594" lon="13.72474"><ele>1331.0</ele><time>2026-04-04T17:19:19.028Z</time></trkpt><trkpt lat="42.3659733" lon="13.724655"><ele>1331.0</ele><time>2026-04-04T17:19:20.028Z</time></trkpt><trkpt lat="42.3660117" lon="13.72457"><ele>1331.0</ele><time>2026-04-04T17:19:21.028Z</time></trkpt><trkpt lat="42.366055" lon="13.7244867"><ele>1331.0</ele><time>2026-04-04T17:19:22.028Z</time></trkpt><trkpt lat="42.3660917" lon="13.7243817"><ele>1329.4285714285716</ele><time>2026-04-04T17:19:23.028Z</time></trkpt><trkpt lat="42.3661383" lon="13.7243067"><ele>1327.857142857143</ele><time>2026-04-04T17:19:24.028Z</time></trkpt><trkpt lat="42.3661767" lon="13.7242317"><ele>1326.2857142857142</ele><time>2026-04-04T17:19:25.028Z</time></trkpt><trkpt lat="42.3662117" lon="13.7241483"><ele>1324.7142857142858</ele><time>2026-04-04T17:19:26.028Z</time></trkpt><trkpt lat="42.3662467" lon="13.7240633"><ele>1323.142857142857</ele><time>2026-04-04T17:19:27.028Z</time></trkpt><trkpt lat="42.3662833" lon="13.7239733"><ele>1321.5714285714287</ele><time>2026-04-04T17:19:28.028Z</time></trkpt><trkpt lat="42.3663283" lon="13.7238783"><ele>1320.0</ele><time>2026-04-04T17:19:29.028Z</time></trkpt><trkpt lat="42.3663633" lon="13.723775"><ele>1323.1666666666667</ele><time>2026-04-04T17:19:30.028Z</time></trkpt><trkpt lat="42.3663917" lon="13.723695"><ele>1326.3333333333333</ele><time>2026-04-04T17:19:31.028Z</time></trkpt><trkpt lat="42.3664167" lon="13.7235467"><ele>1329.5</ele><time>2026-04-04T17:19:33.028Z</time></trkpt><trkpt lat="42.36641" lon="13.72346"><ele>1332.6666666666665</ele><time>2026-04-04T17:19:34.028Z</time></trkpt><trkpt lat="42.3663983" lon="13.7233567"><ele>1335.8333333333333</ele><time>2026-04-04T17:19:35.028Z</time></trkpt><trkpt lat="42.36639" lon="13.7232517"><ele>1339.0</ele><time>2026-04-04T17:19:36.028Z</time></trkpt><trkpt lat="42.3663733" lon="13.72314"><ele>1339.0</ele><time>2026-04-04T17:19:37.028Z</time></trkpt><trkpt lat="42.36637" lon="13.7230417"><ele>1339.0</ele><time>2026-04-04T17:19:38.028Z</time></trkpt><trkpt lat="42.3663617" lon="13.72294"><ele>1339.0</ele><time>2026-04-04T17:19:39.028Z</time></trkpt><trkpt lat="42.3663617" lon="13.7228417"><ele>1339.0</ele><time>2026-04-04T17:19:40.028Z</time></trkpt><trkpt lat="42.36637" lon="13.72272"><ele>1339.0</ele><time>2026-04-04T17:19:41.027Z</time></trkpt><trkpt lat="42.36639" lon="13.7226083"><ele>1339.0</ele><time>2026-04-04T17:19:42.028Z</time></trkpt><trkpt lat="42.3664233" lon="13.7224833"><ele>1337.8333333333333</ele><time>2026-04-04T17:19:43.028Z</time></trkpt><trkpt lat="42.36646" lon="13.7223817"><ele>1336.6666666666665</ele><time>2026-04-04T17:19:44.028Z</time></trkpt><trkpt lat="42.3665067" lon="13.72228"><ele>1335.5</ele><time>2026-04-04T17:19:45.028Z</time></trkpt><trkpt lat="42.36657" lon="13.7222033"><ele>1334.3333333333333</ele><time>2026-04-04T17:19:46.028Z</time></trkpt><trkpt lat="42.3666417" lon="13.7221183"><ele>1333.1666666666667</ele><time>2026-04-04T17:19:47.028Z</time></trkpt><trkpt lat="42.3667133" lon="13.72206"><ele>1332.0</ele><time>2026-04-04T17:19:48.028Z</time></trkpt><trkpt lat="42.36679" lon="13.7220033"><ele>1332.0</ele><time>2026-04-04T17:19:49.028Z</time></trkpt><trkpt lat="42.3668567" lon="13.7219417"><ele>1332.0</ele><time>2026-04-04T17:19:50.028Z</time></trkpt><trkpt lat="42.366925" lon="13.7219067"><ele>1332.0</ele><time>2026-04-04T17:19:51.028Z</time></trkpt><trkpt lat="42.3669867" lon="13.7218533"><ele>1332.0</ele><time>2026-04-04T17:19:52.028Z</time></trkpt><trkpt lat="42.3670267" lon="13.72177"><ele>1332.0</ele><time>2026-04-04T17:19:53.028Z</time></trkpt><trkpt lat="42.3670617" lon="13.7216683"><ele>1332.0</ele><time>2026-04-04T17:19:54.028Z</time></trkpt><trkpt lat="42.367085" lon="13.72155"><ele>1330.0</ele><time>2026-04-04T17:19:55.028Z</time></trkpt><trkpt lat="42.3670967" lon="13.72143"><ele>1328.0</ele><time>2026-04-04T17:19:56.028Z</time></trkpt><trkpt lat="42.3671017" lon="13.72131"><ele>1326.0</ele><time>2026-04-04T17:19:57.028Z</time></trkpt><trkpt lat="42.3670983" lon="13.7211933"><ele>1324.0</ele><time>2026-04-04T17:19:58.028Z</time></trkpt><trkpt lat="42.36708" lon="13.72108"><ele>1322.0</ele><time>2026-04-04T17:19:59.028Z</time></trkpt><trkpt lat="42.3670483" lon="13.7209633"><ele>1320.0</ele><time>2026-04-04T17:20:00.028Z</time></trkpt><trkpt lat="42.3670067" lon="13.720845"><ele>1319.2</ele><time>2026-04-04T17:20:01.028Z</time></trkpt><trkpt lat="42.3669567" lon="13.7207267"><ele>1318.4</ele><time>2026-04-04T17:20:02.028Z</time></trkpt><trkpt lat="42.3668983" lon="13.7206183"><ele>1317.6</ele><time>2026-04-04T17:20:03.028Z</time></trkpt><trkpt lat="42.3668417" lon="13.7205067"><ele>1316.8</ele><time>2026-04-04T17:20:04.027Z</time></trkpt><trkpt lat="42.366795" lon="13.72039"><ele>1316.0</ele><time>2026-04-04T17:20:05.028Z</time></trkpt><trkpt lat="42.36675" lon="13.7202633"><ele>1316.8</ele><time>2026-04-04T17:20:06.028Z</time></trkpt><trkpt lat="42.3667133" lon="13.7201383"><ele>1317.6</ele><time>2026-04-04T17:20:07.028Z</time></trkpt><trkpt lat="42.3666817" lon="13.720005"><ele>1318.4</ele><time>2026-04-04T17:20:08.028Z</time></trkpt><trkpt lat="42.3666533" lon="13.71987"><ele>1319.2</ele><time>2026-04-04T17:20:09.028Z</time></trkpt><trkpt lat="42.3666267" lon="13.7197317"><ele>1320.0</ele><time>2026-04-04T17:20:10.028Z</time></trkpt><trkpt lat="42.3665983" lon="13.7195867"><ele>1320.0</ele><time>2026-04-04T17:20:11.028Z</time></trkpt><trkpt lat="42.3665733" lon="13.719445"><ele>1320.0</ele><time>2026-04-04T17:20:12.028Z</time></trkpt><trkpt lat="42.366545" lon="13.7193083"><ele>1320.0</ele><time>2026-04-04T17:20:13.028Z</time></trkpt><trkpt lat="42.366515" lon="13.7191867"><ele>1320.0</ele><time>2026-04-04T17:20:14.028Z</time></trkpt><trkpt lat="42.3664717" lon="13.7190817"><ele>1320.0</ele><time>2026-04-04T17:20:15.028Z</time></trkpt><trkpt lat="42.366425" lon="13.719"><ele>1320.8333333333333</ele><time>2026-04-04T17:20:16.028Z</time></trkpt><trkpt lat="42.3663583" lon="13.7189367"><ele>1321.6666666666667</ele><time>2026-04-04T17:20:17.028Z</time></trkpt><trkpt lat="42.3662883" lon="13.7188933"><ele>1322.5</ele><time>2026-04-04T17:20:18.027Z</time></trkpt><trkpt lat="42.36621" lon="13.7188683"><ele>1323.3333333333335</ele><time>2026-04-04T17:20:19.028Z</time></trkpt><trkpt lat="42.3661283" lon="13.7188917"><ele>1324.1666666666667</ele><time>2026-04-04T17:20:20.029Z</time></trkpt><trkpt lat="42.366045" lon="13.71895"><ele>1325.0</ele><time>2026-04-04T17:20:21.029Z</time></trkpt><trkpt lat="42.3659667" lon="13.71903"><ele>1325.0</ele><time>2026-04-04T17:20:22.029Z</time></trkpt><trkpt lat="42.3659017" lon="13.7191317"><ele>1325.0</ele><time>2026-04-04T17:20:23.029Z</time></trkpt><trkpt lat="42.365845" lon="13.7192467"><ele>1325.0</ele><time>2026-04-04T17:20:24.029Z</time></trkpt><trkpt lat="42.3657967" lon="13.7193717"><ele>1325.0</ele><time>2026-04-04T17:20:25.029Z</time></trkpt><trkpt lat="42.3657517" lon="13.7195033"><ele>1325.0</ele><time>2026-04-04T17:20:26.029Z</time></trkpt><trkpt lat="42.3657" lon="13.7196383"><ele>1323.0</ele><time>2026-04-04T17:20:27.029Z</time></trkpt><trkpt lat="42.3656567" lon="13.7197817"><ele>1321.0</ele><time>2026-04-04T17:20:28.029Z</time></trkpt><trkpt lat="42.3656167" lon="13.7199183"><ele>1319.0</ele><time>2026-04-04T17:20:29.029Z</time></trkpt><trkpt lat="42.3655833" lon="13.720065"><ele>1317.0</ele><time>2026-04-04T17:20:30.028Z</time></trkpt><trkpt lat="42.36556" lon="13.720205"><ele>1315.0</ele><time>2026-04-04T17:20:31.029Z</time></trkpt><trkpt lat="42.3655483" lon="13.720345"><ele>1315.0</ele><time>2026-04-04T17:20:32.029Z</time></trkpt><trkpt lat="42.3655483" lon="13.7204967"><ele>1315.0</ele><time>2026-04-04T17:20:33.029Z</time></trkpt><trkpt lat="42.365555" lon="13.720655"><ele>1315.0</ele><time>2026-04-04T17:20:34.029Z</time></trkpt><trkpt lat="42.36557" lon="13.7208167"><ele>1315.0</ele><time>2026-04-04T17:20:35.029Z</time></trkpt><trkpt lat="42.3655867" lon="13.7209783"><ele>1315.25</ele><time>2026-04-04T17:20:36.029Z</time></trkpt><trkpt lat="42.3656" lon="13.72114"><ele>1315.5</ele><time>2026-04-04T17:20:37.029Z</time></trkpt><trkpt lat="42.36562" lon="13.72129"><ele>1315.75</ele><time>2026-04-04T17:20:38.029Z</time></trkpt><trkpt lat="42.365635" lon="13.721445"><ele>1316.0</ele><time>2026-04-04T17:20:39.029Z</time></trkpt><trkpt lat="42.365655" lon="13.721595"><ele>1316.0</ele><time>2026-04-04T17:20:40.029Z</time></trkpt><trkpt lat="42.365675" lon="13.7217383"><ele>1316.0</ele><time>2026-04-04T17:20:41.029Z</time></trkpt><trkpt lat="42.36569" lon="13.721875"><ele>1316.0</ele><time>2026-04-04T17:20:42.029Z</time></trkpt><trkpt lat="42.3656967" lon="13.7220033"><ele>1316.0</ele><time>2026-04-04T17:20:43.029Z</time></trkpt><trkpt lat="42.3656967" lon="13.7221317"><ele>1316.0</ele><time>2026-04-04T17:20:44.029Z</time></trkpt><trkpt lat="42.3656833" lon="13.7222633"><ele>1316.0</ele><time>2026-04-04T17:20:45.029Z</time></trkpt><trkpt lat="42.3656417" lon="13.7223967"><ele>1316.0</ele><time>2026-04-04T17:20:46.029Z</time></trkpt><trkpt lat="42.3655817" lon="13.72251"><ele>1316.0</ele><time>2026-04-04T17:20:47.029Z</time></trkpt><trkpt lat="42.3655117" lon="13.722615"><ele>1316.0</ele><time>2026-04-04T17:20:48.029Z</time></trkpt><trkpt lat="42.36533" lon="13.7228283"><ele>1314.25</ele><time>2026-04-04T17:20:50.029Z</time></trkpt><trkpt lat="42.365245" lon="13.7229417"><ele>1312.5</ele><time>2026-04-04T17:20:51.029Z</time></trkpt><trkpt lat="42.3651567" lon="13.7230667"><ele>1310.75</ele><time>2026-04-04T17:20:52.029Z</time></trkpt><trkpt lat="42.36507" lon="13.7231917"><ele>1309.0</ele><time>2026-04-04T17:20:53.029Z</time></trkpt><trkpt lat="42.3649833" lon="13.7233083"><ele>1309.0</ele><time>2026-04-04T17:20:54.029Z</time></trkpt><trkpt lat="42.3648933" lon="13.7234283"><ele>1309.0</ele><time>2026-04-04T17:20:55.029Z</time></trkpt><trkpt lat="42.3648083" lon="13.7235467"><ele>1309.0</ele><time>2026-04-04T17:20:56.029Z</time></trkpt><trkpt lat="42.3647217" lon="13.7236617"><ele>1309.0</ele><time>2026-04-04T17:20:57.028Z</time></trkpt><trkpt lat="42.3646367" lon="13.7237783"><ele>1308.4</ele><time>2026-04-04T17:20:58.029Z</time></trkpt><trkpt lat="42.3645517" lon="13.7238933"><ele>1307.8000000000002</ele><time>2026-04-04T17:20:59.029Z</time></trkpt><trkpt lat="42.3644667" lon="13.7240067"><ele>1307.1999999999998</ele><time>2026-04-04T17:21:00.029Z</time></trkpt><trkpt lat="42.3644" lon="13.7240983"><ele>1306.6</ele><time>2026-04-04T17:21:01.029Z</time></trkpt><trkpt lat="42.3643433" lon="13.7241717"><ele>1306.0</ele><time>2026-04-04T17:21:02.029Z</time></trkpt><trkpt lat="42.36429" lon="13.7242283"><ele>1306.0</ele><time>2026-04-04T17:21:03.029Z</time></trkpt><trkpt lat="42.364175" lon="13.7242583"><ele>1306.0</ele><time>2026-04-04T17:21:05.029Z</time></trkpt><trkpt lat="42.3641067" lon="13.7242483"><ele>1306.0</ele><time>2026-04-04T17:21:06.029Z</time></trkpt><trkpt lat="42.3640333" lon="13.7242183"><ele>1306.0</ele><time>2026-04-04T17:21:07.029Z</time></trkpt><trkpt lat="42.3639567" lon="13.7241783"><ele>1306.0</ele><time>2026-04-04T17:21:08.029Z</time></trkpt><trkpt lat="42.3638717" lon="13.7241367"><ele>1306.0</ele><time>2026-04-04T17:21:09.029Z</time></trkpt><trkpt lat="42.3637833" lon="13.7240933"><ele>1302.8333333333333</ele><time>2026-04-04T17:21:10.029Z</time></trkpt><trkpt lat="42.3636967" lon="13.724065"><ele>1299.6666666666665</ele><time>2026-04-04T17:21:11.029Z</time></trkpt><trkpt lat="42.3636067" lon="13.7240267"><ele>1296.5</ele><time>2026-04-04T17:21:12.029Z</time></trkpt><trkpt lat="42.36353" lon="13.724"><ele>1293.3333333333333</ele><time>2026-04-04T17:21:13.029Z</time></trkpt><trkpt lat="42.3634433" lon="13.7239933"><ele>1290.1666666666667</ele><time>2026-04-04T17:21:14.029Z</time></trkpt><trkpt lat="42.3633617" lon="13.7239767"><ele>1287.0</ele><time>2026-04-04T17:21:15.029Z</time></trkpt><trkpt lat="42.3632883" lon="13.7239417"><ele>1287.0</ele><time>2026-04-04T17:21:16.029Z</time></trkpt><trkpt lat="42.3632233" lon="13.7238817"><ele>1287.0</ele><time>2026-04-04T17:21:17.029Z</time></trkpt><trkpt lat="42.3631633" lon="13.7238"><ele>1287.0</ele><time>2026-04-04T17:21:18.029Z</time></trkpt><trkpt lat="42.36311" lon="13.7237083"><ele>1287.0</ele><time>2026-04-04T17:21:19.029Z</time></trkpt><trkpt lat="42.3630667" lon="13.7236017"><ele>1287.0</ele><time>2026-04-04T17:21:20.029Z</time></trkpt><trkpt lat="42.3630283" lon="13.7234733"><ele>1287.0</ele><time>2026-04-04T17:21:21.029Z</time></trkpt><trkpt lat="42.3629983" lon="13.7233317"><ele>1284.8</ele><time>2026-04-04T17:21:22.029Z</time></trkpt><trkpt lat="42.3629567" lon="13.7232"><ele>1282.6</ele><time>2026-04-04T17:21:23.029Z</time></trkpt><trkpt lat="42.362915" lon="13.7230667"><ele>1280.3999999999999</ele><time>2026-04-04T17:21:24.029Z</time></trkpt><trkpt lat="42.3628733" lon="13.72293"><ele>1278.1999999999998</ele><time>2026-04-04T17:21:25.029Z</time></trkpt><trkpt lat="42.36283" lon="13.7227917"><ele>1276.0</ele><time>2026-04-04T17:21:26.029Z</time></trkpt><trkpt lat="42.36279" lon="13.7226533"><ele>1276.0</ele><time>2026-04-04T17:21:27.029Z</time></trkpt><trkpt lat="42.3627567" lon="13.7225133"><ele>1276.0</ele><time>2026-04-04T17:21:28.028Z</time></trkpt><trkpt lat="42.362725" lon="13.722365"><ele>1276.0</ele><time>2026-04-04T17:21:29.029Z</time></trkpt><trkpt lat="42.3626883" lon="13.72223"><ele>1276.0</ele><time>2026-04-04T17:21:30.029Z</time></trkpt><trkpt lat="42.36266" lon="13.722095"><ele>1276.0</ele><time>2026-04-04T17:21:31.029Z</time></trkpt><trkpt lat="42.3626283" lon="13.7219483"><ele>1277.6</ele><time>2026-04-04T17:21:32.029Z</time></trkpt><trkpt lat="42.3625967" lon="13.7218067"><ele>1279.1999999999998</ele><time>2026-04-04T17:21:33.029Z</time></trkpt><trkpt lat="42.3625667" lon="13.7216567"><ele>1280.8000000000002</ele><time>2026-04-04T17:21:34.029Z</time></trkpt><trkpt lat="42.3625417" lon="13.7215117"><ele>1282.4</ele><time>2026-04-04T17:21:35.029Z</time></trkpt><trkpt lat="42.362515" lon="13.7213667"><ele>1284.0</ele><time>2026-04-04T17:21:36.029Z</time></trkpt><trkpt lat="42.362495" lon="13.7212317"><ele>1284.0</ele><time>2026-04-04T17:21:37.029Z</time></trkpt><trkpt lat="42.3624717" lon="13.7211133"><ele>1284.0</ele><time>2026-04-04T17:21:38.029Z</time></trkpt><trkpt lat="42.36243" lon="13.7210017"><ele>1284.0</ele><time>2026-04-04T17:21:39.029Z</time></trkpt><trkpt lat="42.3623783" lon="13.7209017"><ele>1284.0</ele><time>2026-04-04T17:21:40.029Z</time></trkpt><trkpt lat="42.3623117" lon="13.7208133"><ele>1284.0</ele><time>2026-04-04T17:21:41.029Z</time></trkpt><trkpt lat="42.3622233" lon="13.7207583"><ele>1282.0</ele><time>2026-04-04T17:21:42.029Z</time></trkpt><trkpt lat="42.3621233" lon="13.7207233"><ele>1280.0</ele><time>2026-04-04T17:21:43.029Z</time></trkpt><trkpt lat="42.3620183" lon="13.72071"><ele>1278.0</ele><time>2026-04-04T17:21:44.029Z</time></trkpt><trkpt lat="42.3618967" lon="13.7207233"><ele>1276.0</ele><time>2026-04-04T17:21:45.029Z</time></trkpt><trkpt lat="42.36178" lon="13.7207417"><ele>1274.0</ele><time>2026-04-04T17:21:46.029Z</time></trkpt><trkpt lat="42.3616683" lon="13.72076"><ele>1274.0</ele><time>2026-04-04T17:21:47.029Z</time></trkpt><trkpt lat="42.361565" lon="13.7207783"><ele>1274.0</ele><time>2026-04-04T17:21:48.029Z</time></trkpt><trkpt lat="42.3614667" lon="13.7207783"><ele>1274.0</ele><time>2026-04-04T17:21:49.029Z</time></trkpt><trkpt lat="42.3613717" lon="13.7207617"><ele>1274.0</ele><time>2026-04-04T17:21:50.029Z</time></trkpt><trkpt lat="42.361295" lon="13.7207283"><ele>1274.0</ele><time>2026-04-04T17:21:51.029Z</time></trkpt><trkpt lat="42.3612483" lon="13.7206433"><ele>1270.8</ele><time>2026-04-04T17:21:52.029Z</time></trkpt><trkpt lat="42.36122" lon="13.7205233"><ele>1267.6000000000001</ele><time>2026-04-04T17:21:53.029Z</time></trkpt><trkpt lat="42.3612067" lon="13.7203867"><ele>1264.4</ele><time>2026-04-04T17:21:54.029Z</time></trkpt><trkpt lat="42.3612167" lon="13.7202317"><ele>1261.2</ele><time>2026-04-04T17:21:55.029Z</time></trkpt><trkpt lat="42.361235" lon="13.720075"><ele>1258.0</ele><time>2026-04-04T17:21:56.029Z</time></trkpt><trkpt lat="42.361245" lon="13.71994"><ele>1258.0</ele><time>2026-04-04T17:21:57.029Z</time></trkpt><trkpt lat="42.3612517" lon="13.7198167"><ele>1258.0</ele><time>2026-04-04T17:21:58.029Z</time></trkpt><trkpt lat="42.361255" lon="13.7197117"><ele>1258.0</ele><time>2026-04-04T17:21:59.029Z</time></trkpt><trkpt lat="42.36125" lon="13.719615"><ele>1258.0</ele><time>2026-04-04T17:22:00.029Z</time></trkpt><trkpt lat="42.3611917" lon="13.7195117"><ele>1258.0</ele><time>2026-04-04T17:22:02.029Z</time></trkpt><trkpt lat="42.3610983" lon="13.7195417"><ele>1258.0</ele><time>2026-04-04T17:22:04.029Z</time></trkpt><trkpt lat="42.3610517" lon="13.71972"><ele>1258.0</ele><time>2026-04-04T17:22:06.029Z</time></trkpt><trkpt lat="42.3610533" lon="13.7198433"><ele>1258.0</ele><time>2026-04-04T17:22:07.029Z</time></trkpt><trkpt lat="42.3610683" lon="13.7199717"><ele>1258.0</ele><time>2026-04-04T17:22:08.028Z</time></trkpt><trkpt lat="42.3610733" lon="13.720105"><ele>1258.0</ele><time>2026-04-04T17:22:09.029Z</time></trkpt><trkpt lat="42.361075" lon="13.7202333"><ele>1258.0</ele><time>2026-04-04T17:22:10.029Z</time></trkpt><trkpt lat="42.3610717" lon="13.7203567"><ele>1257.5</ele><time>2026-04-04T17:22:11.029Z</time></trkpt><trkpt lat="42.3610683" lon="13.7204667"><ele>1257.0</ele><time>2026-04-04T17:22:12.029Z</time></trkpt><trkpt lat="42.3610683" lon="13.72057"><ele>1256.5</ele><time>2026-04-04T17:22:13.029Z</time></trkpt><trkpt lat="42.361065" lon="13.7206617"><ele>1256.0</ele><time>2026-04-04T17:22:14.029Z</time></trkpt><trkpt lat="42.36105" lon="13.72075"><ele>1255.5</ele><time>2026-04-04T17:22:15.029Z</time></trkpt><trkpt lat="42.361" lon="13.7208667"><ele>1255.0</ele><time>2026-04-04T17:22:17.029Z</time></trkpt><trkpt lat="42.3609117" lon="13.7208617"><ele>1255.0</ele><time>2026-04-04T17:22:19.028Z</time></trkpt><trkpt lat="42.3608783" lon="13.7207883"><ele>1255.0</ele><time>2026-04-04T17:22:20.029Z</time></trkpt><trkpt lat="42.360855" lon="13.7206733"><ele>1255.0</ele><time>2026-04-04T17:22:21.029Z</time></trkpt><trkpt lat="42.3608383" lon="13.7205283"><ele>1255.0</ele><time>2026-04-04T17:22:22.029Z</time></trkpt><trkpt lat="42.3608267" lon="13.7203783"><ele>1255.0</ele><time>2026-04-04T17:22:23.029Z</time></trkpt><trkpt lat="42.3608033" lon="13.7202233"><ele>1255.75</ele><time>2026-04-04T17:22:24.028Z</time></trkpt><trkpt lat="42.360785" lon="13.7200683"><ele>1256.5</ele><time>2026-04-04T17:22:25.029Z</time></trkpt><trkpt lat="42.3607667" lon="13.71991"><ele>1257.25</ele><time>2026-04-04T17:22:26.029Z</time></trkpt><trkpt lat="42.3607483" lon="13.719745"><ele>1258.0</ele><time>2026-04-04T17:22:27.029Z</time></trkpt><trkpt lat="42.3607317" lon="13.7195783"><ele>1258.0</ele><time>2026-04-04T17:22:28.029Z</time></trkpt><trkpt lat="42.3607167" lon="13.71941"><ele>1258.0</ele><time>2026-04-04T17:22:29.029Z</time></trkpt><trkpt lat="42.360695" lon="13.7192383"><ele>1258.0</ele><time>2026-04-04T17:22:30.028Z</time></trkpt><trkpt lat="42.3606717" lon="13.71907"><ele>1258.0</ele><time>2026-04-04T17:22:31.029Z</time></trkpt><trkpt lat="42.3606467" lon="13.7189133"><ele>1258.0</ele><time>2026-04-04T17:22:32.029Z</time></trkpt><trkpt lat="42.3606083" lon="13.718755"><ele>1258.0</ele><time>2026-04-04T17:22:33.029Z</time></trkpt><trkpt lat="42.36055" lon="13.7186117"><ele>1258.0</ele><time>2026-04-04T17:22:34.029Z</time></trkpt><trkpt lat="42.360485" lon="13.7184633"><ele>1258.0</ele><time>2026-04-04T17:22:35.029Z</time></trkpt><trkpt lat="42.3604183" lon="13.7183283"><ele>1251.5</ele><time>2026-04-04T17:22:36.029Z</time></trkpt><trkpt lat="42.360355" lon="13.7182"><ele>1245.0</ele><time>2026-04-04T17:22:37.029Z</time></trkpt><trkpt lat="42.36029" lon="13.71806"><ele>1238.5</ele><time>2026-04-04T17:22:38.029Z</time></trkpt><trkpt lat="42.360225" lon="13.7179133"><ele>1232.0</ele><time>2026-04-04T17:22:39.029Z</time></trkpt><trkpt lat="42.3601567" lon="13.717765"><ele>1234.5</ele><time>2026-04-04T17:22:40.029Z</time></trkpt><trkpt lat="42.36009" lon="13.7176117"><ele>1237.0</ele><time>2026-04-04T17:22:41.029Z</time></trkpt><trkpt lat="42.360025" lon="13.7174583"><ele>1239.5</ele><time>2026-04-04T17:22:42.029Z</time></trkpt><trkpt lat="42.3599633" lon="13.7172917"><ele>1242.0</ele><time>2026-04-04T17:22:43.029Z</time></trkpt><trkpt lat="42.3599" lon="13.71713"><ele>1242.0</ele><time>2026-04-04T17:22:44.029Z</time></trkpt><trkpt lat="42.359835" lon="13.7169767"><ele>1242.0</ele><time>2026-04-04T17:22:45.029Z</time></trkpt><trkpt lat="42.3597767" lon="13.716815"><ele>1242.0</ele><time>2026-04-04T17:22:46.029Z</time></trkpt><trkpt lat="42.359715" lon="13.716665"><ele>1242.0</ele><time>2026-04-04T17:22:47.029Z</time></trkpt><trkpt lat="42.3596583" lon="13.7165033"><ele>1235.25</ele><time>2026-04-04T17:22:48.029Z</time></trkpt><trkpt lat="42.3596133" lon="13.7163367"><ele>1228.5</ele><time>2026-04-04T17:22:49.029Z</time></trkpt><trkpt lat="42.3595717" lon="13.7161683"><ele>1221.75</ele><time>2026-04-04T17:22:50.029Z</time></trkpt><trkpt lat="42.3595333" lon="13.7159983"><ele>1215.0</ele><time>2026-04-04T17:22:51.029Z</time></trkpt><trkpt lat="42.3595" lon="13.71582"><ele>1215.0</ele><time>2026-04-04T17:22:52.029Z</time></trkpt><trkpt lat="42.35948" lon="13.7156517"><ele>1215.0</ele><time>2026-04-04T17:22:53.029Z</time></trkpt><trkpt lat="42.3594617" lon="13.71548"><ele>1215.0</ele><time>2026-04-04T17:22:54.029Z</time></trkpt><trkpt lat="42.3594517" lon="13.715185"><ele>1215.4</ele><time>2026-04-04T17:22:56.029Z</time></trkpt><trkpt lat="42.3594517" lon="13.7150467"><ele>1215.8</ele><time>2026-04-04T17:22:57.029Z</time></trkpt><trkpt lat="42.3594617" lon="13.7149067"><ele>1216.2</ele><time>2026-04-04T17:22:58.029Z</time></trkpt><trkpt lat="42.3594767" lon="13.7147833"><ele>1216.6</ele><time>2026-04-04T17:22:59.029Z</time></trkpt><trkpt lat="42.359485" lon="13.71468"><ele>1217.0</ele><time>2026-04-04T17:23:00.029Z</time></trkpt><trkpt lat="42.3594817" lon="13.7145783"><ele>1217.0</ele><time>2026-04-04T17:23:01.029Z</time></trkpt><trkpt lat="42.3594233" lon="13.714475"><ele>1217.0</ele><time>2026-04-04T17:23:03.029Z</time></trkpt><trkpt lat="42.3593283" lon="13.7145383"><ele>1217.0</ele><time>2026-04-04T17:23:05.029Z</time></trkpt><trkpt lat="42.359305" lon="13.71466"><ele>1217.0</ele><time>2026-04-04T17:23:06.029Z</time></trkpt><trkpt lat="42.35929" lon="13.7148317"><ele>1217.0</ele><time>2026-04-04T17:23:07.029Z</time></trkpt><trkpt lat="42.3592767" lon="13.7150133"><ele>1217.0</ele><time>2026-04-04T17:23:08.028Z</time></trkpt><trkpt lat="42.35926" lon="13.7151817"><ele>1217.0</ele><time>2026-04-04T17:23:09.029Z</time></trkpt><trkpt lat="42.359245" lon="13.7153467"><ele>1217.0</ele><time>2026-04-04T17:23:10.029Z</time></trkpt><trkpt lat="42.3592283" lon="13.7155133"><ele>1217.0</ele><time>2026-04-04T17:23:11.029Z</time></trkpt><trkpt lat="42.3592117" lon="13.715685"><ele>1216.5</ele><time>2026-04-04T17:23:12.029Z</time></trkpt><trkpt lat="42.3592017" lon="13.7158567"><ele>1216.0</ele><time>2026-04-04T17:23:13.029Z</time></trkpt><trkpt lat="42.3592" lon="13.716035"><ele>1215.5</ele><time>2026-04-04T17:23:14.029Z</time></trkpt><trkpt lat="42.3592167" lon="13.7162133"><ele>1215.0</ele><time>2026-04-04T17:23:15.029Z</time></trkpt><trkpt lat="42.35924" lon="13.7163917"><ele>1213.75</ele><time>2026-04-04T17:23:16.029Z</time></trkpt><trkpt lat="42.3592633" lon="13.7165733"><ele>1212.5</ele><time>2026-04-04T17:23:17.029Z</time></trkpt><trkpt lat="42.359285" lon="13.7167533"><ele>1211.25</ele><time>2026-04-04T17:23:18.029Z</time></trkpt><trkpt lat="42.3593117" lon="13.7169383"><ele>1210.0</ele><time>2026-04-04T17:23:19.029Z</time></trkpt><trkpt lat="42.35933" lon="13.7171233"><ele>1208.25</ele><time>2026-04-04T17:23:20.029Z</time></trkpt><trkpt lat="42.3593483" lon="13.7173133"><ele>1206.5</ele><time>2026-04-04T17:23:21.029Z</time></trkpt><trkpt lat="42.359365" lon="13.7175"><ele>1204.75</ele><time>2026-04-04T17:23:22.029Z</time></trkpt><trkpt lat="42.359385" lon="13.7176883"><ele>1203.0</ele><time>2026-04-04T17:23:23.029Z</time></trkpt><trkpt lat="42.3594033" lon="13.7178783"><ele>1200.75</ele><time>2026-04-04T17:23:24.029Z</time></trkpt><trkpt lat="42.3594233" lon="13.7180633"><ele>1198.5</ele><time>2026-04-04T17:23:25.029Z</time></trkpt><trkpt lat="42.35944" lon="13.7182483"><ele>1196.25</ele><time>2026-04-04T17:23:26.029Z</time></trkpt><trkpt lat="42.3594633" lon="13.718435"><ele>1194.0</ele><time>2026-04-04T17:23:27.029Z</time></trkpt><trkpt lat="42.35949" lon="13.7186183"><ele>1192.75</ele><time>2026-04-04T17:23:28.028Z</time></trkpt><trkpt lat="42.3595217" lon="13.7187983"><ele>1191.5</ele><time>2026-04-04T17:23:29.029Z</time></trkpt><trkpt lat="42.3595467" lon="13.7189767"><ele>1190.25</ele><time>2026-04-04T17:23:30.029Z</time></trkpt><trkpt lat="42.3595767" lon="13.7191483"><ele>1189.0</ele><time>2026-04-04T17:23:31.029Z</time></trkpt><trkpt lat="42.3595733" lon="13.7193217"><ele>1188.25</ele><time>2026-04-04T17:23:32.029Z</time></trkpt><trkpt lat="42.3595517" lon="13.7194933"><ele>1187.5</ele><time>2026-04-04T17:23:33.029Z</time></trkpt><trkpt lat="42.35952" lon="13.7196633"><ele>1186.75</ele><time>2026-04-04T17:23:34.029Z</time></trkpt><trkpt lat="42.35948" lon="13.7198283"><ele>1186.0</ele><time>2026-04-04T17:23:35.029Z</time></trkpt><trkpt lat="42.359455" lon="13.7200067"><ele>1186.0</ele><time>2026-04-04T17:23:36.029Z</time></trkpt><trkpt lat="42.359445" lon="13.7201983"><ele>1186.0</ele><time>2026-04-04T17:23:37.028Z</time></trkpt><trkpt lat="42.3594517" lon="13.7203867"><ele>1186.0</ele><time>2026-04-04T17:23:38.029Z</time></trkpt><trkpt lat="42.3594667" lon="13.7205733"><ele>1186.0</ele><time>2026-04-04T17:23:39.029Z</time></trkpt><trkpt lat="42.3594883" lon="13.7207467"><ele>1185.5</ele><time>2026-04-04T17:23:40.029Z</time></trkpt><trkpt lat="42.3595" lon="13.7209283"><ele>1185.0</ele><time>2026-04-04T17:23:41.029Z</time></trkpt><trkpt lat="42.3594983" lon="13.7211117"><ele>1184.5</ele><time>2026-04-04T17:23:42.029Z</time></trkpt><trkpt lat="42.3594883" lon="13.7212883"><ele>1184.0</ele><time>2026-04-04T17:23:43.029Z</time></trkpt><trkpt lat="42.3594783" lon="13.7214667"><ele>1182.0</ele><time>2026-04-04T17:23:44.029Z</time></trkpt><trkpt lat="42.35947" lon="13.7216433"><ele>1180.0</ele><time>2026-04-04T17:23:45.029Z</time></trkpt><trkpt lat="42.3594733" lon="13.7218167"><ele>1178.0</ele><time>2026-04-04T17:23:46.029Z</time></trkpt><trkpt lat="42.3594933" lon="13.7219867"><ele>1176.0</ele><time>2026-04-04T17:23:47.029Z</time></trkpt><trkpt lat="42.3595283" lon="13.7221567"><ele>1176.0</ele><time>2026-04-04T17:23:48.029Z</time></trkpt><trkpt lat="42.3595683" lon="13.722315"><ele>1176.0</ele><time>2026-04-04T17:23:49.029Z</time></trkpt><trkpt lat="42.3596067" lon="13.7224767"><ele>1176.0</ele><time>2026-04-04T17:23:50.029Z</time></trkpt><trkpt lat="42.3596417" lon="13.7226333"><ele>1176.0</ele><time>2026-04-04T17:23:51.028Z</time></trkpt><trkpt lat="42.3596683" lon="13.7227917"><ele>1176.0</ele><time>2026-04-04T17:23:52.029Z</time></trkpt><trkpt lat="42.3596883" lon="13.7229467"><ele>1176.0</ele><time>2026-04-04T17:23:53.029Z</time></trkpt><trkpt lat="42.3597017" lon="13.723095"><ele>1176.0</ele><time>2026-04-04T17:23:54.029Z</time></trkpt><trkpt lat="42.359715" lon="13.72322"><ele>1176.0</ele><time>2026-04-04T17:23:55.029Z</time></trkpt><trkpt lat="42.35973" lon="13.723325"><ele>1176.0</ele><time>2026-04-04T17:23:56.029Z</time></trkpt><trkpt lat="42.3597417" lon="13.7234133"><ele>1176.0</ele><time>2026-04-04T17:23:57.029Z</time></trkpt><trkpt lat="42.3597017" lon="13.72355"><ele>1176.0</ele><time>2026-04-04T17:23:59.029Z</time></trkpt><trkpt lat="42.359615" lon="13.7235383"><ele>1176.0</ele><time>2026-04-04T17:24:01.029Z</time></trkpt><trkpt lat="42.3595583" lon="13.7233567"><ele>1176.0</ele><time>2026-04-04T17:24:03.029Z</time></trkpt><trkpt lat="42.3595483" lon="13.72321"><ele>1176.0</ele><time>2026-04-04T17:24:04.029Z</time></trkpt><trkpt lat="42.359545" lon="13.72306"><ele>1176.0</ele><time>2026-04-04T17:24:05.029Z</time></trkpt><trkpt lat="42.3595233" lon="13.72291"><ele>1176.0</ele><time>2026-04-04T17:24:06.029Z</time></trkpt><trkpt lat="42.3594917" lon="13.7227567"><ele>1176.0</ele><time>2026-04-04T17:24:07.029Z</time></trkpt><trkpt lat="42.3594483" lon="13.72261"><ele>1174.25</ele><time>2026-04-04T17:24:08.029Z</time></trkpt><trkpt lat="42.3593967" lon="13.72244"><ele>1172.5</ele><time>2026-04-04T17:24:09.029Z</time></trkpt><trkpt lat="42.35934" lon="13.7222767"><ele>1170.75</ele><time>2026-04-04T17:24:10.029Z</time></trkpt><trkpt lat="42.359285" lon="13.7221167"><ele>1169.0</ele><time>2026-04-04T17:24:11.029Z</time></trkpt><trkpt lat="42.3592233" lon="13.7219517"><ele>1170.75</ele><time>2026-04-04T17:24:12.029Z</time></trkpt><trkpt lat="42.359165" lon="13.7217833"><ele>1172.5</ele><time>2026-04-04T17:24:13.029Z</time></trkpt><trkpt lat="42.3591067" lon="13.7216133"><ele>1174.25</ele><time>2026-04-04T17:24:14.029Z</time></trkpt><trkpt lat="42.3590483" lon="13.7214417"><ele>1176.0</ele><time>2026-04-04T17:24:15.029Z</time></trkpt><trkpt lat="42.3589967" lon="13.721265"><ele>1176.0</ele><time>2026-04-04T17:24:16.029Z</time></trkpt><trkpt lat="42.3589433" lon="13.7210933"><ele>1176.0</ele><time>2026-04-04T17:24:17.029Z</time></trkpt><trkpt lat="42.35889" lon="13.7209283"><ele>1176.0</ele><time>2026-04-04T17:24:18.029Z</time></trkpt><trkpt lat="42.3588383" lon="13.7207583"><ele>1176.0</ele><time>2026-04-04T17:24:19.029Z</time></trkpt><trkpt lat="42.35878" lon="13.720585"><ele>1170.5</ele><time>2026-04-04T17:24:20.029Z</time></trkpt><trkpt lat="42.35873" lon="13.7204083"><ele>1165.0</ele><time>2026-04-04T17:24:21.029Z</time></trkpt><trkpt lat="42.3586867" lon="13.72023"><ele>1159.5</ele><time>2026-04-04T17:24:22.029Z</time></trkpt><trkpt lat="42.3586483" lon="13.720045"><ele>1154.0</ele><time>2026-04-04T17:24:23.029Z</time></trkpt><trkpt lat="42.3586083" lon="13.7198733"><ele>1154.0</ele><time>2026-04-04T17:24:24.029Z</time></trkpt><trkpt lat="42.35857" lon="13.7197033"><ele>1154.0</ele><time>2026-04-04T17:24:25.029Z</time></trkpt><trkpt lat="42.3585317" lon="13.7195433"><ele>1154.0</ele><time>2026-04-04T17:24:26.029Z</time></trkpt><trkpt lat="42.358495" lon="13.7193917"><ele>1154.0</ele><time>2026-04-04T17:24:27.029Z</time></trkpt><trkpt lat="42.3584533" lon="13.7192417"><ele>1155.25</ele><time>2026-04-04T17:24:28.029Z</time></trkpt><trkpt lat="42.358415" lon="13.71909"><ele>1156.5</ele><time>2026-04-04T17:24:29.029Z</time></trkpt><trkpt lat="42.3583783" lon="13.7189433"><ele>1157.75</ele><time>2026-04-04T17:24:30.029Z</time></trkpt><trkpt lat="42.358335" lon="13.7187983"><ele>1159.0</ele><time>2026-04-04T17:24:31.028Z</time></trkpt><trkpt lat="42.358295" lon="13.7186517"><ele>1160.25</ele><time>2026-04-04T17:24:32.029Z</time></trkpt><trkpt lat="42.358245" lon="13.71852"><ele>1161.5</ele><time>2026-04-04T17:24:33.029Z</time></trkpt><trkpt lat="42.358175" lon="13.7183933"><ele>1162.75</ele><time>2026-04-04T17:24:34.029Z</time></trkpt><trkpt lat="42.3580833" lon="13.71829"><ele>1164.0</ele><time>2026-04-04T17:24:35.029Z</time></trkpt><trkpt lat="42.3579783" lon="13.7182"><ele>1158.25</ele><time>2026-04-04T17:24:36.029Z</time></trkpt><trkpt lat="42.357865" lon="13.7181367"><ele>1152.5</ele><time>2026-04-04T17:24:37.029Z</time></trkpt><trkpt lat="42.3577517" lon="13.7180667"><ele>1146.75</ele><time>2026-04-04T17:24:38.029Z</time></trkpt><trkpt lat="42.3576517" lon="13.7179883"><ele>1141.0</ele><time>2026-04-04T17:24:39.029Z</time></trkpt><trkpt lat="42.3575517" lon="13.7178883"><ele>1141.0</ele><time>2026-04-04T17:24:40.029Z</time></trkpt><trkpt lat="42.3574717" lon="13.7177683"><ele>1141.0</ele><time>2026-04-04T17:24:41.029Z</time></trkpt><trkpt lat="42.35741" lon="13.7176383"><ele>1141.0</ele><time>2026-04-04T17:24:42.029Z</time></trkpt><trkpt lat="42.3573567" lon="13.717485"><ele>1141.0</ele><time>2026-04-04T17:24:43.029Z</time></trkpt><trkpt lat="42.3573083" lon="13.7173283"><ele>1143.25</ele><time>2026-04-04T17:24:44.029Z</time></trkpt><trkpt lat="42.35726" lon="13.7171683"><ele>1145.5</ele><time>2026-04-04T17:24:45.029Z</time></trkpt><trkpt lat="42.3572183" lon="13.71699"><ele>1147.75</ele><time>2026-04-04T17:24:46.029Z</time></trkpt><trkpt lat="42.3571833" lon="13.7168133"><ele>1150.0</ele><time>2026-04-04T17:24:47.029Z</time></trkpt><trkpt lat="42.3571633" lon="13.7166333"><ele>1150.0</ele><time>2026-04-04T17:24:48.029Z</time></trkpt><trkpt lat="42.357175" lon="13.71646"><ele>1150.0</ele><time>2026-04-04T17:24:49.029Z</time></trkpt><trkpt lat="42.3571967" lon="13.7162967"><ele>1150.0</ele><time>2026-04-04T17:24:50.029Z</time></trkpt><trkpt lat="42.3572117" lon="13.716135"><ele>1150.0</ele><time>2026-04-04T17:24:51.029Z</time></trkpt><trkpt lat="42.357215" lon="13.715975"><ele>1145.25</ele><time>2026-04-04T17:24:52.029Z</time></trkpt><trkpt lat="42.35719" lon="13.7158317"><ele>1140.5</ele><time>2026-04-04T17:24:53.029Z</time></trkpt><trkpt lat="42.3571383" lon="13.71569"><ele>1135.75</ele><time>2026-04-04T17:24:54.029Z</time></trkpt><trkpt lat="42.35707" lon="13.7155767"><ele>1131.0</ele><time>2026-04-04T17:24:55.029Z</time></trkpt><trkpt lat="42.3569867" lon="13.7154583"><ele>1131.0</ele><time>2026-04-04T17:24:56.029Z</time></trkpt><trkpt lat="42.3569017" lon="13.715345"><ele>1131.0</ele><time>2026-04-04T17:24:57.029Z</time></trkpt><trkpt lat="42.3568167" lon="13.7152333"><ele>1131.0</ele><time>2026-04-04T17:24:58.029Z</time></trkpt><trkpt lat="42.35673" lon="13.7151117"><ele>1131.0</ele><time>2026-04-04T17:24:59.029Z</time></trkpt><trkpt lat="42.3566417" lon="13.7149883"><ele>1132.75</ele><time>2026-04-04T17:25:00.029Z</time></trkpt><trkpt lat="42.3565517" lon="13.7148667"><ele>1134.5</ele><time>2026-04-04T17:25:01.029Z</time></trkpt><trkpt lat="42.3564617" lon="13.7147367"><ele>1136.25</ele><time>2026-04-04T17:25:02.029Z</time></trkpt><trkpt lat="42.35638" lon="13.7146233"><ele>1138.0</ele><time>2026-04-04T17:25:03.029Z</time></trkpt><trkpt lat="42.356305" lon="13.7145133"><ele>1136.8</ele><time>2026-04-04T17:25:04.029Z</time></trkpt><trkpt lat="42.35623" lon="13.71441"><ele>1135.6</ele><time>2026-04-04T17:25:05.029Z</time></trkpt><trkpt lat="42.35614" lon="13.71433"><ele>1134.4</ele><time>2026-04-04T17:25:06.029Z</time></trkpt><trkpt lat="42.3560367" lon="13.7142767"><ele>1133.2</ele><time>2026-04-04T17:25:07.029Z</time></trkpt><trkpt lat="42.3559267" lon="13.71425"><ele>1132.0</ele><time>2026-04-04T17:25:08.029Z</time></trkpt><trkpt lat="42.3558133" lon="13.7142367"><ele>1132.0</ele><time>2026-04-04T17:25:09.029Z</time></trkpt><trkpt lat="42.3556983" lon="13.7142383"><ele>1132.0</ele><time>2026-04-04T17:25:10.029Z</time></trkpt><trkpt lat="42.3555783" lon="13.7142433"><ele>1132.0</ele><time>2026-04-04T17:25:11.028Z</time></trkpt><trkpt lat="42.3554667" lon="13.7142783"><ele>1132.0</ele><time>2026-04-04T17:25:12.029Z</time></trkpt><trkpt lat="42.3553733" lon="13.7143617"><ele>1129.25</ele><time>2026-04-04T17:25:13.029Z</time></trkpt><trkpt lat="42.3552933" lon="13.7144767"><ele>1126.5</ele><time>2026-04-04T17:25:14.029Z</time></trkpt><trkpt lat="42.3552117" lon="13.7146033"><ele>1123.75</ele><time>2026-04-04T17:25:15.029Z</time></trkpt><trkpt lat="42.3551317" lon="13.7147283"><ele>1121.0</ele><time>2026-04-04T17:25:16.029Z</time></trkpt><trkpt lat="42.3550583" lon="13.714845"><ele>1121.0</ele><time>2026-04-04T17:25:17.029Z</time></trkpt><trkpt lat="42.3549817" lon="13.7149533"><ele>1121.0</ele><time>2026-04-04T17:25:18.028Z</time></trkpt><trkpt lat="42.3549133" lon="13.7150467"><ele>1121.0</ele><time>2026-04-04T17:25:19.028Z</time></trkpt><trkpt lat="42.35484" lon="13.7151183"><ele>1121.0</ele><time>2026-04-04T17:25:20.029Z</time></trkpt><trkpt lat="42.354765" lon="13.7151467"><ele>1121.0</ele><time>2026-04-04T17:25:21.028Z</time></trkpt><trkpt lat="42.354685" lon="13.7151433"><ele>1119.5</ele><time>2026-04-04T17:25:22.029Z</time></trkpt><trkpt lat="42.3545967" lon="13.7150867"><ele>1118.0</ele><time>2026-04-04T17:25:23.029Z</time></trkpt><trkpt lat="42.3545033" lon="13.7149917"><ele>1116.5</ele><time>2026-04-04T17:25:24.029Z</time></trkpt><trkpt lat="42.354395" lon="13.714865"><ele>1115.0</ele><time>2026-04-04T17:25:25.029Z</time></trkpt><trkpt lat="42.3542817" lon="13.7147533"><ele>1115.0</ele><time>2026-04-04T17:25:26.029Z</time></trkpt><trkpt lat="42.3541583" lon="13.7146567"><ele>1115.0</ele><time>2026-04-04T17:25:27.029Z</time></trkpt><trkpt lat="42.35402" lon="13.7145733"><ele>1115.0</ele><time>2026-04-04T17:25:28.029Z</time></trkpt><trkpt lat="42.3538933" lon="13.714485"><ele>1115.0</ele><time>2026-04-04T17:25:29.029Z</time></trkpt><trkpt lat="42.3537717" lon="13.7143683"><ele>1114.0</ele><time>2026-04-04T17:25:30.029Z</time></trkpt><trkpt lat="42.3536533" lon="13.71424"><ele>1113.0</ele><time>2026-04-04T17:25:31.029Z</time></trkpt><trkpt lat="42.3535517" lon="13.7141"><ele>1112.0</ele><time>2026-04-04T17:25:32.029Z</time></trkpt><trkpt lat="42.3534617" lon="13.71396"><ele>1111.0</ele><time>2026-04-04T17:25:33.028Z</time></trkpt><trkpt lat="42.3533667" lon="13.7138267"><ele>1111.0</ele><time>2026-04-04T17:25:34.029Z</time></trkpt><trkpt lat="42.3532583" lon="13.7137067"><ele>1111.0</ele><time>2026-04-04T17:25:35.029Z</time></trkpt><trkpt lat="42.3531267" lon="13.713605"><ele>1111.0</ele><time>2026-04-04T17:25:36.029Z</time></trkpt><trkpt lat="42.35298" lon="13.7135217"><ele>1108.3333333333333</ele><time>2026-04-04T17:25:37.029Z</time></trkpt><trkpt lat="42.3528333" lon="13.7134683"><ele>1105.6666666666667</ele><time>2026-04-04T17:25:38.029Z</time></trkpt><trkpt lat="42.3526733" lon="13.7134133"><ele>1103.0</ele><time>2026-04-04T17:25:39.029Z</time></trkpt><trkpt lat="42.3525083" lon="13.7133583"><ele>1103.0</ele><time>2026-04-04T17:25:40.029Z</time></trkpt><trkpt lat="42.3523483" lon="13.7132983"><ele>1103.0</ele><time>2026-04-04T17:25:41.029Z</time></trkpt><trkpt lat="42.3521983" lon="13.7132383"><ele>1103.0</ele><time>2026-04-04T17:25:42.029Z</time></trkpt><trkpt lat="42.352055" lon="13.7131783"><ele>1102.75</ele><time>2026-04-04T17:25:43.029Z</time></trkpt><trkpt lat="42.3519167" lon="13.7131233"><ele>1102.5</ele><time>2026-04-04T17:25:44.029Z</time></trkpt><trkpt lat="42.3517833" lon="13.7131017"><ele>1102.25</ele><time>2026-04-04T17:25:45.029Z</time></trkpt><trkpt lat="42.351645" lon="13.71313"><ele>1102.0</ele><time>2026-04-04T17:25:46.029Z</time></trkpt><trkpt lat="42.3514967" lon="13.713205"><ele>1101.0</ele><time>2026-04-04T17:25:47.029Z</time></trkpt><trkpt lat="42.3513467" lon="13.713305"><ele>1100.0</ele><time>2026-04-04T17:25:48.03Z</time></trkpt><trkpt lat="42.3512" lon="13.7134267"><ele>1099.0</ele><time>2026-04-04T17:25:49.03Z</time></trkpt><trkpt lat="42.3510517" lon="13.7135383"><ele>1098.0</ele><time>2026-04-04T17:25:50.03Z</time></trkpt><trkpt lat="42.3509017" lon="13.7136567"><ele>1097.0</ele><time>2026-04-04T17:25:51.03Z</time></trkpt><trkpt lat="42.3507533" lon="13.71377"><ele>1096.0</ele><time>2026-04-04T17:25:52.03Z</time></trkpt><trkpt lat="42.350605" lon="13.7138733"><ele>1096.6666666666665</ele><time>2026-04-04T17:25:53.03Z</time></trkpt><trkpt lat="42.3504567" lon="13.713985"><ele>1097.3333333333333</ele><time>2026-04-04T17:25:54.029Z</time></trkpt><trkpt lat="42.3503067" lon="13.714095"><ele>1098.0</ele><time>2026-04-04T17:25:55.03Z</time></trkpt><trkpt lat="42.350155" lon="13.7142083"><ele>1098.0</ele><time>2026-04-04T17:25:56.03Z</time></trkpt><trkpt lat="42.3500067" lon="13.7143183"><ele>1098.0</ele><time>2026-04-04T17:25:57.03Z</time></trkpt><trkpt lat="42.34986" lon="13.7144217"><ele>1098.0</ele><time>2026-04-04T17:25:58.03Z</time></trkpt><trkpt lat="42.3497267" lon="13.71453"><ele>1097.5</ele><time>2026-04-04T17:25:59.03Z</time></trkpt><trkpt lat="42.3495983" lon="13.7146333"><ele>1097.0</ele><time>2026-04-04T17:26:00.03Z</time></trkpt><trkpt lat="42.3494733" lon="13.7147267"><ele>1096.5</ele><time>2026-04-04T17:26:01.03Z</time></trkpt><trkpt lat="42.3493467" lon="13.7147883"><ele>1096.0</ele><time>2026-04-04T17:26:02.03Z</time></trkpt><trkpt lat="42.3492183" lon="13.7148133"><ele>1096.0</ele><time>2026-04-04T17:26:03.029Z</time></trkpt><trkpt lat="42.3490817" lon="13.714815"><ele>1096.0</ele><time>2026-04-04T17:26:04.03Z</time></trkpt><trkpt lat="42.34894" lon="13.71479"><ele>1096.0</ele><time>2026-04-04T17:26:05.03Z</time></trkpt><trkpt lat="42.3488" lon="13.714735"><ele>1096.0</ele><time>2026-04-04T17:26:06.03Z</time></trkpt><trkpt lat="42.3486533" lon="13.7146717"><ele>1095.75</ele><time>2026-04-04T17:26:07.03Z</time></trkpt><trkpt lat="42.3485117" lon="13.71461"><ele>1095.5</ele><time>2026-04-04T17:26:08.03Z</time></trkpt><trkpt lat="42.34838" lon="13.7145517"><ele>1095.25</ele><time>2026-04-04T17:26:09.03Z</time></trkpt><trkpt lat="42.3482567" lon="13.714475"><ele>1095.0</ele><time>2026-04-04T17:26:10.029Z</time></trkpt><trkpt lat="42.3481333" lon="13.7143667"><ele>1095.3333333333333</ele><time>2026-04-04T17:26:11.03Z</time></trkpt><trkpt lat="42.3480183" lon="13.7142233"><ele>1095.6666666666665</ele><time>2026-04-04T17:26:12.03Z</time></trkpt><trkpt lat="42.3479033" lon="13.7140633"><ele>1096.0</ele><time>2026-04-04T17:26:13.03Z</time></trkpt><trkpt lat="42.3477883" lon="13.7139117"><ele>1096.0</ele><time>2026-04-04T17:26:14.03Z</time></trkpt><trkpt lat="42.347675" lon="13.7137583"><ele>1096.0</ele><time>2026-04-04T17:26:15.03Z</time></trkpt><trkpt lat="42.3475667" lon="13.7136067"><ele>1096.0</ele><time>2026-04-04T17:26:16.03Z</time></trkpt><trkpt lat="42.3474733" lon="13.7134367"><ele>1093.6666666666665</ele><time>2026-04-04T17:26:17.029Z</time></trkpt><trkpt lat="42.3473767" lon="13.71325"><ele>1091.3333333333333</ele><time>2026-04-04T17:26:18.03Z</time></trkpt><trkpt lat="42.3472917" lon="13.7130583"><ele>1089.0</ele><time>2026-04-04T17:26:19.03Z</time></trkpt><trkpt lat="42.3472" lon="13.7128567"><ele>1094.0</ele><time>2026-04-04T17:26:20.03Z</time></trkpt><trkpt lat="42.3470917" lon="13.712675"><ele>1099.0</ele><time>2026-04-04T17:26:21.029Z</time></trkpt><trkpt lat="42.3469767" lon="13.7125133"><ele>1104.0</ele><time>2026-04-04T17:26:22.03Z</time></trkpt><trkpt lat="42.3468533" lon="13.71237"><ele>1104.0</ele><time>2026-04-04T17:26:23.03Z</time></trkpt><trkpt lat="42.3467233" lon="13.712255"><ele>1104.0</ele><time>2026-04-04T17:26:24.029Z</time></trkpt><trkpt lat="42.3465833" lon="13.7121533"><ele>1104.0</ele><time>2026-04-04T17:26:25.03Z</time></trkpt><trkpt lat="42.3464483" lon="13.71205"><ele>1105.0</ele><time>2026-04-04T17:26:26.03Z</time></trkpt><trkpt lat="42.3463167" lon="13.71193"><ele>1106.0</ele><time>2026-04-04T17:26:27.03Z</time></trkpt><trkpt lat="42.3462017" lon="13.7118"><ele>1107.0</ele><time>2026-04-04T17:26:28.03Z</time></trkpt><trkpt lat="42.346105" lon="13.7116683"><ele>1108.0</ele><time>2026-04-04T17:26:29.03Z</time></trkpt><trkpt lat="42.3460217" lon="13.71155"><ele>1108.0</ele><time>2026-04-04T17:26:30.03Z</time></trkpt><trkpt lat="42.3459283" lon="13.7114667"><ele>1108.0</ele><time>2026-04-04T17:26:31.03Z</time></trkpt><trkpt lat="42.345825" lon="13.7114317"><ele>1108.0</ele><time>2026-04-04T17:26:32.03Z</time></trkpt><trkpt lat="42.3457233" lon="13.711455"><ele>1108.0</ele><time>2026-04-04T17:26:33.03Z</time></trkpt><trkpt lat="42.3456267" lon="13.7115217"><ele>1108.0</ele><time>2026-04-04T17:26:34.03Z</time></trkpt><trkpt lat="42.3455433" lon="13.71162"><ele>1110.0</ele><time>2026-04-04T17:26:35.03Z</time></trkpt><trkpt lat="42.3454633" lon="13.711725"><ele>1112.0</ele><time>2026-04-04T17:26:36.029Z</time></trkpt><trkpt lat="42.3453733" lon="13.7118217"><ele>1114.0</ele><time>2026-04-04T17:26:37.03Z</time></trkpt><trkpt lat="42.3452717" lon="13.7118917"><ele>1116.0</ele><time>2026-04-04T17:26:38.03Z</time></trkpt><trkpt lat="42.3451583" lon="13.7119467"><ele>1110.5</ele><time>2026-04-04T17:26:39.03Z</time></trkpt><trkpt lat="42.3450383" lon="13.7119933"><ele>1105.0</ele><time>2026-04-04T17:26:40.03Z</time></trkpt><trkpt lat="42.3449167" lon="13.71204"><ele>1099.5</ele><time>2026-04-04T17:26:41.03Z</time></trkpt><trkpt lat="42.3448" lon="13.71205"><ele>1094.0</ele><time>2026-04-04T17:26:42.03Z</time></trkpt><trkpt lat="42.3446883" lon="13.7120183"><ele>1093.0</ele><time>2026-04-04T17:26:43.03Z</time></trkpt><trkpt lat="42.3445967" lon="13.7119383"><ele>1092.0</ele><time>2026-04-04T17:26:44.03Z</time></trkpt><trkpt lat="42.3445183" lon="13.7118133"><ele>1091.0</ele><time>2026-04-04T17:26:45.03Z</time></trkpt><trkpt lat="42.344445" lon="13.7116717"><ele>1090.0</ele><time>2026-04-04T17:26:46.03Z</time></trkpt><trkpt lat="42.3443667" lon="13.711515"><ele>1095.3333333333333</ele><time>2026-04-04T17:26:47.03Z</time></trkpt><trkpt lat="42.3442767" lon="13.7113617"><ele>1100.6666666666667</ele><time>2026-04-04T17:26:48.03Z</time></trkpt><trkpt lat="42.3441783" lon="13.711195"><ele>1106.0</ele><time>2026-04-04T17:26:49.03Z</time></trkpt><trkpt lat="42.3440817" lon="13.7110283"><ele>1103.3333333333335</ele><time>2026-04-04T17:26:50.03Z</time></trkpt><trkpt lat="42.3439917" lon="13.71087"><ele>1100.6666666666667</ele><time>2026-04-04T17:26:51.03Z</time></trkpt><trkpt lat="42.343905" lon="13.7106933"><ele>1098.0</ele><time>2026-04-04T17:26:52.03Z</time></trkpt><trkpt lat="42.3438183" lon="13.7105017"><ele>1098.0</ele><time>2026-04-04T17:26:53.029Z</time></trkpt><trkpt lat="42.3437267" lon="13.7103083"><ele>1098.0</ele><time>2026-04-04T17:26:54.03Z</time></trkpt><trkpt lat="42.3436283" lon="13.7101233"><ele>1098.0</ele><time>2026-04-04T17:26:55.03Z</time></trkpt><trkpt lat="42.3435183" lon="13.7099283"><ele>1103.3333333333333</ele><time>2026-04-04T17:26:56.03Z</time></trkpt><trkpt lat="42.3434283" lon="13.7097417"><ele>1108.6666666666665</ele><time>2026-04-04T17:26:57.03Z</time></trkpt><trkpt lat="42.343335" lon="13.7095517"><ele>1114.0</ele><time>2026-04-04T17:26:58.03Z</time></trkpt><trkpt lat="42.3432383" lon="13.70936"><ele>1112.0</ele><time>2026-04-04T17:26:59.029Z</time></trkpt><trkpt lat="42.3431367" lon="13.709175"><ele>1110.0</ele><time>2026-04-04T17:27:00.03Z</time></trkpt><trkpt lat="42.343045" lon="13.708995"><ele>1108.0</ele><time>2026-04-04T17:27:01.03Z</time></trkpt><trkpt lat="42.3429533" lon="13.7088233"><ele>1108.0</ele><time>2026-04-04T17:27:02.03Z</time></trkpt><trkpt lat="42.3428667" lon="13.708655"><ele>1108.0</ele><time>2026-04-04T17:27:03.03Z</time></trkpt><trkpt lat="42.342775" lon="13.7084967"><ele>1108.0</ele><time>2026-04-04T17:27:04.03Z</time></trkpt><trkpt lat="42.3426883" lon="13.708335"><ele>1108.0</ele><time>2026-04-04T17:27:05.03Z</time></trkpt><trkpt lat="42.34261" lon="13.7081783"><ele>1110.6</ele><time>2026-04-04T17:27:06.03Z</time></trkpt><trkpt lat="42.3425367" lon="13.7080233"><ele>1113.1999999999998</ele><time>2026-04-04T17:27:07.03Z</time></trkpt><trkpt lat="42.3424683" lon="13.7078917"><ele>1115.8</ele><time>2026-04-04T17:27:08.029Z</time></trkpt><trkpt lat="42.3423983" lon="13.707795"><ele>1118.3999999999999</ele><time>2026-04-04T17:27:09.03Z</time></trkpt><trkpt lat="42.3423117" lon="13.7077617"><ele>1121.0</ele><time>2026-04-04T17:27:10.03Z</time></trkpt><trkpt lat="42.3422217" lon="13.7077767"><ele>1123.75</ele><time>2026-04-04T17:27:11.03Z</time></trkpt><trkpt lat="42.3421233" lon="13.707845"><ele>1126.5</ele><time>2026-04-04T17:27:12.03Z</time></trkpt><trkpt lat="42.342025" lon="13.7079633"><ele>1129.25</ele><time>2026-04-04T17:27:13.03Z</time></trkpt><trkpt lat="42.3419267" lon="13.7081217"><ele>1132.0</ele><time>2026-04-04T17:27:14.03Z</time></trkpt><trkpt lat="42.3418167" lon="13.7082767"><ele>1132.0</ele><time>2026-04-04T17:27:15.03Z</time></trkpt><trkpt lat="42.3417167" lon="13.7084267"><ele>1132.0</ele><time>2026-04-04T17:27:16.03Z</time></trkpt><trkpt lat="42.3416367" lon="13.7085883"><ele>1132.0</ele><time>2026-04-04T17:27:17.03Z</time></trkpt><trkpt lat="42.3415617" lon="13.7087467"><ele>1132.0</ele><time>2026-04-04T17:27:18.03Z</time></trkpt><trkpt lat="42.3414867" lon="13.7089067"><ele>1134.5</ele><time>2026-04-04T17:27:19.03Z</time></trkpt><trkpt lat="42.3414183" lon="13.709045"><ele>1137.0</ele><time>2026-04-04T17:27:20.03Z</time></trkpt><trkpt lat="42.34134" lon="13.7091567"><ele>1139.5</ele><time>2026-04-04T17:27:21.03Z</time></trkpt><trkpt lat="42.3412417" lon="13.709255"><ele>1142.0</ele><time>2026-04-04T17:27:22.029Z</time></trkpt><trkpt lat="42.3411217" lon="13.7093383"><ele>1142.0</ele><time>2026-04-04T17:27:23.03Z</time></trkpt><trkpt lat="42.3409933" lon="13.7094067"><ele>1142.0</ele><time>2026-04-04T17:27:24.03Z</time></trkpt><trkpt lat="42.3408633" lon="13.7094883"><ele>1142.0</ele><time>2026-04-04T17:27:25.03Z</time></trkpt><trkpt lat="42.3407383" lon="13.7095917"><ele>1142.0</ele><time>2026-04-04T17:27:26.03Z</time></trkpt><trkpt lat="42.3406217" lon="13.7097083"><ele>1142.25</ele><time>2026-04-04T17:27:27.03Z</time></trkpt><trkpt lat="42.340515" lon="13.70984"><ele>1142.5</ele><time>2026-04-04T17:27:28.03Z</time></trkpt><trkpt lat="42.340415" lon="13.7099717"><ele>1142.75</ele><time>2026-04-04T17:27:29.03Z</time></trkpt><trkpt lat="42.3403033" lon="13.7100883"><ele>1143.0</ele><time>2026-04-04T17:27:30.03Z</time></trkpt><trkpt lat="42.3401917" lon="13.71018"><ele>1137.5</ele><time>2026-04-04T17:27:31.03Z</time></trkpt><trkpt lat="42.3400717" lon="13.7102467"><ele>1132.0</ele><time>2026-04-04T17:27:32.03Z</time></trkpt><trkpt lat="42.3399567" lon="13.7102733"><ele>1126.5</ele><time>2026-04-04T17:27:33.03Z</time></trkpt><trkpt lat="42.3398317" lon="13.7102683"><ele>1121.0</ele><time>2026-04-04T17:27:34.03Z</time></trkpt><trkpt lat="42.3396967" lon="13.7102533"><ele>1127.0</ele><time>2026-04-04T17:27:35.03Z</time></trkpt><trkpt lat="42.3395517" lon="13.7102367"><ele>1133.0</ele><time>2026-04-04T17:27:36.03Z</time></trkpt><trkpt lat="42.3394083" lon="13.7102183"><ele>1139.0</ele><time>2026-04-04T17:27:37.03Z</time></trkpt><trkpt lat="42.3392667" lon="13.7101983"><ele>1145.0</ele><time>2026-04-04T17:27:38.03Z</time></trkpt><trkpt lat="42.33913" lon="13.7101683"><ele>1145.0</ele><time>2026-04-04T17:27:39.03Z</time></trkpt><trkpt lat="42.33899" lon="13.7101067"><ele>1145.0</ele><time>2026-04-04T17:27:40.03Z</time></trkpt><trkpt lat="42.3388517" lon="13.71002"><ele>1145.0</ele><time>2026-04-04T17:27:41.03Z</time></trkpt><trkpt lat="42.3387183" lon="13.7099283"><ele>1145.0</ele><time>2026-04-04T17:27:42.03Z</time></trkpt><trkpt lat="42.3385817" lon="13.70983"><ele>1142.6666666666667</ele><time>2026-04-04T17:27:43.03Z</time></trkpt><trkpt lat="42.3384417" lon="13.7097367"><ele>1140.3333333333333</ele><time>2026-04-04T17:27:44.03Z</time></trkpt><trkpt lat="42.3383" lon="13.7096583"><ele>1138.0</ele><time>2026-04-04T17:27:45.03Z</time></trkpt><trkpt lat="42.3381517" lon="13.70958"><ele>1139.6666666666665</ele><time>2026-04-04T17:27:46.03Z</time></trkpt><trkpt lat="42.3380017" lon="13.7095083"><ele>1141.3333333333333</ele><time>2026-04-04T17:27:47.03Z</time></trkpt><trkpt lat="42.33785" lon="13.7094467"><ele>1143.0</ele><time>2026-04-04T17:27:48.03Z</time></trkpt><trkpt lat="42.3377033" lon="13.709395"><ele>1146.5</ele><time>2026-04-04T17:27:49.03Z</time></trkpt><trkpt lat="42.3375583" lon="13.7093617"><ele>1150.0</ele><time>2026-04-04T17:27:50.03Z</time></trkpt><trkpt lat="42.33741" lon="13.70935"><ele>1153.5</ele><time>2026-04-04T17:27:51.03Z</time></trkpt><trkpt lat="42.3372683" lon="13.7093483"><ele>1157.0</ele><time>2026-04-04T17:27:52.03Z</time></trkpt><trkpt lat="42.3371" lon="13.709385"><ele>1154.3333333333335</ele><time>2026-04-04T17:27:53.03Z</time></trkpt><trkpt lat="42.3369317" lon="13.70945"><ele>1151.6666666666667</ele><time>2026-04-04T17:27:54.03Z</time></trkpt><trkpt lat="42.33677" lon="13.7095283"><ele>1149.0</ele><time>2026-04-04T17:27:55.03Z</time></trkpt><trkpt lat="42.3366167" lon="13.70961"><ele>1149.0</ele><time>2026-04-04T17:27:56.03Z</time></trkpt><trkpt lat="42.3364717" lon="13.709695"><ele>1149.0</ele><time>2026-04-04T17:27:57.03Z</time></trkpt><trkpt lat="42.33633" lon="13.70979"><ele>1149.0</ele><time>2026-04-04T17:27:58.03Z</time></trkpt><trkpt lat="42.33619" lon="13.7098883"><ele>1152.0</ele><time>2026-04-04T17:27:59.03Z</time></trkpt><trkpt lat="42.3360467" lon="13.7099867"><ele>1155.0</ele><time>2026-04-04T17:28:00.03Z</time></trkpt><trkpt lat="42.3358967" lon="13.7100767"><ele>1158.0</ele><time>2026-04-04T17:28:01.03Z</time></trkpt><trkpt lat="42.3357383" lon="13.710155"><ele>1158.0</ele><time>2026-04-04T17:28:02.03Z</time></trkpt><trkpt lat="42.3355783" lon="13.7102117"><ele>1158.0</ele><time>2026-04-04T17:28:03.03Z</time></trkpt><trkpt lat="42.335415" lon="13.7102567"><ele>1158.0</ele><time>2026-04-04T17:28:04.03Z</time></trkpt><trkpt lat="42.335255" lon="13.710295"><ele>1160.3333333333333</ele><time>2026-04-04T17:28:05.03Z</time></trkpt><trkpt lat="42.3350983" lon="13.7103367"><ele>1162.6666666666665</ele><time>2026-04-04T17:28:06.03Z</time></trkpt><trkpt lat="42.3349333" lon="13.7103867"><ele>1165.0</ele><time>2026-04-04T17:28:07.03Z</time></trkpt><trkpt lat="42.33477" lon="13.71044"><ele>1163.6666666666665</ele><time>2026-04-04T17:28:08.03Z</time></trkpt><trkpt lat="42.3346117" lon="13.7105067"><ele>1162.3333333333333</ele><time>2026-04-04T17:28:09.03Z</time></trkpt><trkpt lat="42.33446" lon="13.7105733"><ele>1161.0</ele><time>2026-04-04T17:28:10.03Z</time></trkpt><trkpt lat="42.334315" lon="13.710645"><ele>1161.0</ele><time>2026-04-04T17:28:11.03Z</time></trkpt><trkpt lat="42.334175" lon="13.710715"><ele>1161.0</ele><time>2026-04-04T17:28:12.03Z</time></trkpt><trkpt lat="42.334025" lon="13.71077"><ele>1161.0</ele><time>2026-04-04T17:28:13.03Z</time></trkpt><trkpt lat="42.333885" lon="13.710815"><ele>1161.0</ele><time>2026-04-04T17:28:14.03Z</time></trkpt><trkpt lat="42.3337367" lon="13.71083"><ele>1161.5</ele><time>2026-04-04T17:28:15.03Z</time></trkpt><trkpt lat="42.33359" lon="13.7108133"><ele>1162.0</ele><time>2026-04-04T17:28:16.03Z</time></trkpt><trkpt lat="42.3334533" lon="13.7107567"><ele>1162.5</ele><time>2026-04-04T17:28:17.03Z</time></trkpt><trkpt lat="42.333315" lon="13.7106833"><ele>1163.0</ele><time>2026-04-04T17:28:18.03Z</time></trkpt><trkpt lat="42.3331683" lon="13.7106217"><ele>1166.0</ele><time>2026-04-04T17:28:19.03Z</time></trkpt><trkpt lat="42.3330083" lon="13.7105667"><ele>1169.0</ele><time>2026-04-04T17:28:20.03Z</time></trkpt><trkpt lat="42.3328483" lon="13.7105217"><ele>1172.0</ele><time>2026-04-04T17:28:21.03Z</time></trkpt><trkpt lat="42.33268" lon="13.7104767"><ele>1172.0</ele><time>2026-04-04T17:28:22.03Z</time></trkpt><trkpt lat="42.3325217" lon="13.710445"><ele>1172.0</ele><time>2026-04-04T17:28:23.03Z</time></trkpt><trkpt lat="42.3323667" lon="13.7104167"><ele>1172.0</ele><time>2026-04-04T17:28:24.03Z</time></trkpt><trkpt lat="42.3322033" lon="13.7103783"><ele>1172.6666666666667</ele><time>2026-04-04T17:28:25.03Z</time></trkpt><trkpt lat="42.332055" lon="13.7103433"><ele>1173.3333333333333</ele><time>2026-04-04T17:28:26.03Z</time></trkpt><trkpt lat="42.3319033" lon="13.7103117"><ele>1174.0</ele><time>2026-04-04T17:28:27.03Z</time></trkpt><trkpt lat="42.3317483" lon="13.7102967"><ele>1174.0</ele><time>2026-04-04T17:28:28.03Z</time></trkpt><trkpt lat="42.331595" lon="13.71031"><ele>1174.0</ele><time>2026-04-04T17:28:29.03Z</time></trkpt><trkpt lat="42.3314383" lon="13.71034"><ele>1174.0</ele><time>2026-04-04T17:28:30.03Z</time></trkpt><trkpt lat="42.331295" lon="13.71041"><ele>1171.6666666666665</ele><time>2026-04-04T17:28:31.03Z</time></trkpt><trkpt lat="42.3311467" lon="13.7105067"><ele>1169.3333333333333</ele><time>2026-04-04T17:28:32.03Z</time></trkpt><trkpt lat="42.33099" lon="13.7106067"><ele>1167.0</ele><time>2026-04-04T17:28:33.03Z</time></trkpt><trkpt lat="42.3308417" lon="13.7107133"><ele>1167.0</ele><time>2026-04-04T17:28:34.03Z</time></trkpt><trkpt lat="42.3306967" lon="13.7108133"><ele>1167.0</ele><time>2026-04-04T17:28:35.03Z</time></trkpt><trkpt lat="42.330555" lon="13.7109033"><ele>1167.0</ele><time>2026-04-04T17:28:36.03Z</time></trkpt><trkpt lat="42.330415" lon="13.7109667"><ele>1165.75</ele><time>2026-04-04T17:28:37.03Z</time></trkpt><trkpt lat="42.3302733" lon="13.7110133"><ele>1164.5</ele><time>2026-04-04T17:28:38.03Z</time></trkpt><trkpt lat="42.3301367" lon="13.7110533"><ele>1163.25</ele><time>2026-04-04T17:28:39.03Z</time></trkpt><trkpt lat="42.329995" lon="13.711095"><ele>1162.0</ele><time>2026-04-04T17:28:40.03Z</time></trkpt><trkpt lat="42.329855" lon="13.711145"><ele>1165.0</ele><time>2026-04-04T17:28:41.03Z</time></trkpt><trkpt lat="42.3297083" lon="13.7112033"><ele>1168.0</ele><time>2026-04-04T17:28:42.03Z</time></trkpt><trkpt lat="42.32956" lon="13.7112583"><ele>1171.0</ele><time>2026-04-04T17:28:43.03Z</time></trkpt><trkpt lat="42.3294117" lon="13.711325"><ele>1171.0</ele><time>2026-04-04T17:28:44.03Z</time></trkpt><trkpt lat="42.3292667" lon="13.7113983"><ele>1171.0</ele><time>2026-04-04T17:28:45.03Z</time></trkpt><trkpt lat="42.329135" lon="13.711485"><ele>1171.0</ele><time>2026-04-04T17:28:46.03Z</time></trkpt><trkpt lat="42.3290233" lon="13.71159"><ele>1171.0</ele><time>2026-04-04T17:28:47.03Z</time></trkpt><trkpt lat="42.3289317" lon="13.7117183"><ele>1172.5</ele><time>2026-04-04T17:28:48.03Z</time></trkpt><trkpt lat="42.3288583" lon="13.7118733"><ele>1174.0</ele><time>2026-04-04T17:28:49.03Z</time></trkpt><trkpt lat="42.3287983" lon="13.71204"><ele>1175.5</ele><time>2026-04-04T17:28:50.03Z</time></trkpt><trkpt lat="42.32875" lon="13.7122117"><ele>1177.0</ele><time>2026-04-04T17:28:51.03Z</time></trkpt><trkpt lat="42.3287" lon="13.7123733"><ele>1177.0</ele><time>2026-04-04T17:28:52.03Z</time></trkpt><trkpt lat="42.3286533" lon="13.7124983"><ele>1177.0</ele><time>2026-04-04T17:28:53.03Z</time></trkpt><trkpt lat="42.328585" lon="13.7125933"><ele>1177.0</ele><time>2026-04-04T17:28:54.03Z</time></trkpt><trkpt lat="42.32852" lon="13.7126267"><ele>1177.0</ele><time>2026-04-04T17:28:55.03Z</time></trkpt><trkpt lat="42.328455" lon="13.7126167"><ele>1177.0</ele><time>2026-04-04T17:28:56.03Z</time></trkpt><trkpt lat="42.3283833" lon="13.7125483"><ele>1177.0</ele><time>2026-04-04T17:28:57.03Z</time></trkpt><trkpt lat="42.3283067" lon="13.7124233"><ele>1177.0</ele><time>2026-04-04T17:28:58.03Z</time></trkpt><trkpt lat="42.328245" lon="13.71226"><ele>1177.0</ele><time>2026-04-04T17:28:59.03Z</time></trkpt><trkpt lat="42.3282083" lon="13.7120783"><ele>1177.0</ele><time>2026-04-04T17:29:00.03Z</time></trkpt><trkpt lat="42.3282083" lon="13.711865"><ele>1177.0</ele><time>2026-04-04T17:29:01.03Z</time></trkpt><trkpt lat="42.3282417" lon="13.7116767"><ele>1177.25</ele><time>2026-04-04T17:29:02.03Z</time></trkpt><trkpt lat="42.328285" lon="13.7114967"><ele>1177.5</ele><time>2026-04-04T17:29:03.03Z</time></trkpt><trkpt lat="42.3283283" lon="13.711315"><ele>1177.75</ele><time>2026-04-04T17:29:04.03Z</time></trkpt><trkpt lat="42.3283667" lon="13.711135"><ele>1178.0</ele><time>2026-04-04T17:29:05.03Z</time></trkpt><trkpt lat="42.3283983" lon="13.7109667"><ele>1179.25</ele><time>2026-04-04T17:29:06.03Z</time></trkpt><trkpt lat="42.3284233" lon="13.7107917"><ele>1180.5</ele><time>2026-04-04T17:29:07.03Z</time></trkpt><trkpt lat="42.3284383" lon="13.7106167"><ele>1181.75</ele><time>2026-04-04T17:29:08.03Z</time></trkpt><trkpt lat="42.32845" lon="13.710425"><ele>1183.0</ele><time>2026-04-04T17:29:09.03Z</time></trkpt><trkpt lat="42.32844" lon="13.71023"><ele>1183.6666666666665</ele><time>2026-04-04T17:29:10.029Z</time></trkpt><trkpt lat="42.3284217" lon="13.7100317"><ele>1184.3333333333333</ele><time>2026-04-04T17:29:11.03Z</time></trkpt><trkpt lat="42.3284017" lon="13.70983"><ele>1185.0</ele><time>2026-04-04T17:29:12.03Z</time></trkpt><trkpt lat="42.3283833" lon="13.70962"><ele>1186.6666666666667</ele><time>2026-04-04T17:29:13.03Z</time></trkpt><trkpt lat="42.3283633" lon="13.709405"><ele>1188.3333333333335</ele><time>2026-04-04T17:29:14.03Z</time></trkpt><trkpt lat="42.32834" lon="13.7091917"><ele>1190.0</ele><time>2026-04-04T17:29:15.03Z</time></trkpt><trkpt lat="42.3283167" lon="13.7089717"><ele>1190.0</ele><time>2026-04-04T17:29:16.029Z</time></trkpt><trkpt lat="42.3283017" lon="13.7087483"><ele>1190.0</ele><time>2026-04-04T17:29:17.029Z</time></trkpt><trkpt lat="42.3283017" lon="13.7085217"><ele>1190.0</ele><time>2026-04-04T17:29:18.03Z</time></trkpt><trkpt lat="42.32831" lon="13.7082983"><ele>1190.0</ele><time>2026-04-04T17:29:19.03Z</time></trkpt><trkpt lat="42.3283233" lon="13.708075"><ele>1190.0</ele><time>2026-04-04T17:29:20.03Z</time></trkpt><trkpt lat="42.3283317" lon="13.7078517"><ele>1190.0</ele><time>2026-04-04T17:29:21.03Z</time></trkpt><trkpt lat="42.3283333" lon="13.7076317"><ele>1190.0</ele><time>2026-04-04T17:29:22.03Z</time></trkpt><trkpt lat="42.328325" lon="13.70741"><ele>1190.0</ele><time>2026-04-04T17:29:23.03Z</time></trkpt><trkpt lat="42.3283217" lon="13.7071933"><ele>1190.0</ele><time>2026-04-04T17:29:24.03Z</time></trkpt><trkpt lat="42.3283067" lon="13.706975"><ele>1190.3333333333335</ele><time>2026-04-04T17:29:25.03Z</time></trkpt><trkpt lat="42.3283033" lon="13.70675"><ele>1190.6666666666667</ele><time>2026-04-04T17:29:26.03Z</time></trkpt><trkpt lat="42.328315" lon="13.70653"><ele>1191.0</ele><time>2026-04-04T17:29:27.03Z</time></trkpt><trkpt lat="42.328335" lon="13.7063183"><ele>1191.0</ele><time>2026-04-04T17:29:28.03Z</time></trkpt><trkpt lat="42.3283567" lon="13.706105"><ele>1191.0</ele><time>2026-04-04T17:29:29.03Z</time></trkpt><trkpt lat="42.3283633" lon="13.7058933"><ele>1191.0</ele><time>2026-04-04T17:29:30.03Z</time></trkpt><trkpt lat="42.3283667" lon="13.70568"><ele>1192.6666666666667</ele><time>2026-04-04T17:29:31.03Z</time></trkpt><trkpt lat="42.3283583" lon="13.7054667"><ele>1194.3333333333335</ele><time>2026-04-04T17:29:32.03Z</time></trkpt><trkpt lat="42.328355" lon="13.7052517"><ele>1196.0</ele><time>2026-04-04T17:29:33.03Z</time></trkpt><trkpt lat="42.32835" lon="13.7050417"><ele>1197.3333333333335</ele><time>2026-04-04T17:29:34.03Z</time></trkpt><trkpt lat="42.3283467" lon="13.7048183"><ele>1198.6666666666667</ele><time>2026-04-04T17:29:35.03Z</time></trkpt><trkpt lat="42.328345" lon="13.7046"><ele>1200.0</ele><time>2026-04-04T17:29:36.029Z</time></trkpt><trkpt lat="42.32834" lon="13.7043883"><ele>1201.0</ele><time>2026-04-04T17:29:37.03Z</time></trkpt><trkpt lat="42.3283383" lon="13.70418"><ele>1202.0</ele><time>2026-04-04T17:29:38.03Z</time></trkpt><trkpt lat="42.3283383" lon="13.70397"><ele>1203.0</ele><time>2026-04-04T17:29:39.03Z</time></trkpt><trkpt lat="42.32834" lon="13.7037833"><ele>1204.0</ele><time>2026-04-04T17:29:40.029Z</time></trkpt><trkpt lat="42.3283317" lon="13.70361"><ele>1204.5</ele><time>2026-04-04T17:29:41.03Z</time></trkpt><trkpt lat="42.3283083" lon="13.703445"><ele>1205.0</ele><time>2026-04-04T17:29:42.03Z</time></trkpt><trkpt lat="42.32827" lon="13.7032783"><ele>1205.5</ele><time>2026-04-04T17:29:43.03Z</time></trkpt><trkpt lat="42.32821" lon="13.70313"><ele>1206.0</ele><time>2026-04-04T17:29:44.029Z</time></trkpt><trkpt lat="42.32814" lon="13.7029933"><ele>1206.0</ele><time>2026-04-04T17:29:45.03Z</time></trkpt><trkpt lat="42.3280733" lon="13.702865"><ele>1206.0</ele><time>2026-04-04T17:29:46.03Z</time></trkpt><trkpt lat="42.3280083" lon="13.702745"><ele>1206.0</ele><time>2026-04-04T17:29:47.029Z</time></trkpt><trkpt lat="42.32795" lon="13.7026417"><ele>1206.0</ele><time>2026-04-04T17:29:48.029Z</time></trkpt><trkpt lat="42.3278783" lon="13.702555"><ele>1206.0</ele><time>2026-04-04T17:29:49.03Z</time></trkpt><trkpt lat="42.3278067" lon="13.7024833"><ele>1208.0</ele><time>2026-04-04T17:29:50.03Z</time></trkpt><trkpt lat="42.3277317" lon="13.702425"><ele>1210.0</ele><time>2026-04-04T17:29:51.03Z</time></trkpt><trkpt lat="42.3276533" lon="13.702385"><ele>1212.0</ele><time>2026-04-04T17:29:52.03Z</time></trkpt><trkpt lat="42.3275617" lon="13.702365"><ele>1214.0</ele><time>2026-04-04T17:29:53.03Z</time></trkpt><trkpt lat="42.32746" lon="13.7023567"><ele>1216.0</ele><time>2026-04-04T17:29:54.03Z</time></trkpt><trkpt lat="42.32735" lon="13.702335"><ele>1216.0</ele><time>2026-04-04T17:29:55.03Z</time></trkpt><trkpt lat="42.3272383" lon="13.7023117"><ele>1216.0</ele><time>2026-04-04T17:29:56.03Z</time></trkpt><trkpt lat="42.3271283" lon="13.7022833"><ele>1216.0</ele><time>2026-04-04T17:29:57.03Z</time></trkpt><trkpt lat="42.32702" lon="13.702245"><ele>1216.0</ele><time>2026-04-04T17:29:58.03Z</time></trkpt><trkpt lat="42.3269133" lon="13.7021967"><ele>1216.0</ele><time>2026-04-04T17:29:59.03Z</time></trkpt><trkpt lat="42.3268083" lon="13.7021567"><ele>1216.0</ele><time>2026-04-04T17:30:00.03Z</time></trkpt><trkpt lat="42.3267083" lon="13.7021283"><ele>1216.0</ele><time>2026-04-04T17:30:01.03Z</time></trkpt><trkpt lat="42.3266167" lon="13.7021"><ele>1216.0</ele><time>2026-04-04T17:30:02.03Z</time></trkpt><trkpt lat="42.32653" lon="13.7020633"><ele>1216.0</ele><time>2026-04-04T17:30:03.029Z</time></trkpt><trkpt lat="42.3264467" lon="13.7020167"><ele>1216.0</ele><time>2026-04-04T17:30:04.03Z</time></trkpt><trkpt lat="42.3263733" lon="13.7019367"><ele>1213.6</ele><time>2026-04-04T17:30:05.03Z</time></trkpt><trkpt lat="42.3263033" lon="13.70184"><ele>1211.1999999999998</ele><time>2026-04-04T17:30:06.03Z</time></trkpt><trkpt lat="42.3262317" lon="13.701735"><ele>1208.8000000000002</ele><time>2026-04-04T17:30:07.03Z</time></trkpt><trkpt lat="42.326165" lon="13.7016367"><ele>1206.4</ele><time>2026-04-04T17:30:08.03Z</time></trkpt><trkpt lat="42.3260933" lon="13.7015367"><ele>1204.0</ele><time>2026-04-04T17:30:09.03Z</time></trkpt><trkpt lat="42.3260217" lon="13.7014383"><ele>1204.0</ele><time>2026-04-04T17:30:10.03Z</time></trkpt><trkpt lat="42.3259533" lon="13.7013417"><ele>1204.0</ele><time>2026-04-04T17:30:11.03Z</time></trkpt><trkpt lat="42.3259" lon="13.701255"><ele>1204.0</ele><time>2026-04-04T17:30:12.03Z</time></trkpt><trkpt lat="42.3258483" lon="13.7011717"><ele>1204.0</ele><time>2026-04-04T17:30:13.03Z</time></trkpt><trkpt lat="42.325775" lon="13.701025"><ele>1204.0</ele><time>2026-04-04T17:30:15.03Z</time></trkpt><trkpt lat="42.3257267" lon="13.7009617"><ele>1202.5</ele><time>2026-04-04T17:30:16.029Z</time></trkpt><trkpt lat="42.3256667" lon="13.7008883"><ele>1201.0</ele><time>2026-04-04T17:30:17.03Z</time></trkpt><trkpt lat="42.3256033" lon="13.70081"><ele>1199.5</ele><time>2026-04-04T17:30:18.03Z</time></trkpt><trkpt lat="42.325535" lon="13.7007333"><ele>1198.0</ele><time>2026-04-04T17:30:19.03Z</time></trkpt><trkpt lat="42.325465" lon="13.700655"><ele>1196.5</ele><time>2026-04-04T17:30:20.03Z</time></trkpt><trkpt lat="42.3253933" lon="13.700585"><ele>1195.0</ele><time>2026-04-04T17:30:21.03Z</time></trkpt><trkpt lat="42.32533" lon="13.70053"><ele>1195.0</ele><time>2026-04-04T17:30:22.03Z</time></trkpt><trkpt lat="42.325275" lon="13.7004867"><ele>1195.0</ele><time>2026-04-04T17:30:23.03Z</time></trkpt><trkpt lat="42.325225" lon="13.7003667"><ele>1195.0</ele><time>2026-04-04T17:30:25.03Z</time></trkpt><trkpt lat="42.3253067" lon="13.70025"><ele>1195.0</ele><time>2026-04-04T17:30:27.03Z</time></trkpt><trkpt lat="42.3253767" lon="13.7002483"><ele>1195.0</ele><time>2026-04-04T17:30:28.03Z</time></trkpt><trkpt lat="42.3254533" lon="13.7002917"><ele>1195.0</ele><time>2026-04-04T17:30:29.03Z</time></trkpt><trkpt lat="42.3255383" lon="13.7003817"><ele>1195.0</ele><time>2026-04-04T17:30:30.03Z</time></trkpt><trkpt lat="42.3256133" lon="13.7004883"><ele>1195.0</ele><time>2026-04-04T17:30:31.029Z</time></trkpt><trkpt lat="42.3256817" lon="13.7005683"><ele>1195.0</ele><time>2026-04-04T17:30:32.03Z</time></trkpt><trkpt lat="42.3257567" lon="13.7006183"><ele>1195.0</ele><time>2026-04-04T17:30:33.03Z</time></trkpt><trkpt lat="42.3258633" lon="13.7005883"><ele>1195.0</ele><time>2026-04-04T17:30:35.03Z</time></trkpt><trkpt lat="42.3258733" lon="13.7004367"><ele>1195.0</ele><time>2026-04-04T17:30:37.03Z</time></trkpt><trkpt lat="42.3258283" lon="13.7003517"><ele>1195.0</ele><time>2026-04-04T17:30:38.03Z</time></trkpt><trkpt lat="42.32575" lon="13.70027"><ele>1195.0</ele><time>2026-04-04T17:30:39.03Z</time></trkpt><trkpt lat="42.3256567" lon="13.70018"><ele>1195.0</ele><time>2026-04-04T17:30:40.03Z</time></trkpt><trkpt lat="42.3255567" lon="13.7000833"><ele>1195.0</ele><time>2026-04-04T17:30:41.03Z</time></trkpt><trkpt lat="42.3254583" lon="13.699985"><ele>1192.5</ele><time>2026-04-04T17:30:42.03Z</time></trkpt><trkpt lat="42.32536" lon="13.699895"><ele>1190.0</ele><time>2026-04-04T17:30:43.03Z</time></trkpt><trkpt lat="42.3252567" lon="13.6997967"><ele>1187.5</ele><time>2026-04-04T17:30:44.03Z</time></trkpt><trkpt lat="42.32515" lon="13.6996933"><ele>1185.0</ele><time>2026-04-04T17:30:45.03Z</time></trkpt><trkpt lat="42.3250367" lon="13.699585"><ele>1185.0</ele><time>2026-04-04T17:30:46.03Z</time></trkpt><trkpt lat="42.3249233" lon="13.6994817"><ele>1185.0</ele><time>2026-04-04T17:30:47.03Z</time></trkpt><trkpt lat="42.324805" lon="13.6993867"><ele>1185.0</ele><time>2026-04-04T17:30:48.03Z</time></trkpt><trkpt lat="42.3246883" lon="13.6992883"><ele>1185.0</ele><time>2026-04-04T17:30:49.03Z</time></trkpt><trkpt lat="42.3245667" lon="13.6991933"><ele>1181.5</ele><time>2026-04-04T17:30:50.03Z</time></trkpt><trkpt lat="42.3244433" lon="13.6991033"><ele>1178.0</ele><time>2026-04-04T17:30:51.03Z</time></trkpt><trkpt lat="42.3243283" lon="13.6990267"><ele>1174.5</ele><time>2026-04-04T17:30:52.03Z</time></trkpt><trkpt lat="42.324225" lon="13.6989267"><ele>1171.0</ele><time>2026-04-04T17:30:53.03Z</time></trkpt><trkpt lat="42.3241367" lon="13.6987867"><ele>1171.0</ele><time>2026-04-04T17:30:54.03Z</time></trkpt><trkpt lat="42.3240567" lon="13.6986333"><ele>1171.0</ele><time>2026-04-04T17:30:55.029Z</time></trkpt><trkpt lat="42.32398" lon="13.698475"><ele>1171.0</ele><time>2026-04-04T17:30:56.03Z</time></trkpt><trkpt lat="42.3238933" lon="13.6983167"><ele>1171.0</ele><time>2026-04-04T17:30:57.03Z</time></trkpt><trkpt lat="42.323805" lon="13.6981717"><ele>1170.5</ele><time>2026-04-04T17:30:58.03Z</time></trkpt><trkpt lat="42.323705" lon="13.6980267"><ele>1170.0</ele><time>2026-04-04T17:30:59.03Z</time></trkpt><trkpt lat="42.323605" lon="13.697895"><ele>1169.5</ele><time>2026-04-04T17:31:00.03Z</time></trkpt><trkpt lat="42.3234983" lon="13.6977683"><ele>1169.0</ele><time>2026-04-04T17:31:01.03Z</time></trkpt><trkpt lat="42.3233817" lon="13.6976367"><ele>1165.3333333333335</ele><time>2026-04-04T17:31:02.03Z</time></trkpt><trkpt lat="42.3232533" lon="13.6975067"><ele>1161.6666666666667</ele><time>2026-04-04T17:31:03.03Z</time></trkpt><trkpt lat="42.3231217" lon="13.6973833"><ele>1158.0</ele><time>2026-04-04T17:31:04.03Z</time></trkpt><trkpt lat="42.3229933" lon="13.6972683"><ele>1158.0</ele><time>2026-04-04T17:31:05.03Z</time></trkpt><trkpt lat="42.3228633" lon="13.6971533"><ele>1158.0</ele><time>2026-04-04T17:31:06.03Z</time></trkpt><trkpt lat="42.3227383" lon="13.6970467"><ele>1158.0</ele><time>2026-04-04T17:31:07.03Z</time></trkpt><trkpt lat="42.3226133" lon="13.69694"><ele>1153.0</ele><time>2026-04-04T17:31:08.03Z</time></trkpt><trkpt lat="42.3224817" lon="13.6968283"><ele>1148.0</ele><time>2026-04-04T17:31:09.03Z</time></trkpt><trkpt lat="42.3223483" lon="13.6967417"><ele>1143.0</ele><time>2026-04-04T17:31:10.03Z</time></trkpt><trkpt lat="42.3222" lon="13.6966717"><ele>1142.3333333333333</ele><time>2026-04-04T17:31:11.03Z</time></trkpt><trkpt lat="42.3220483" lon="13.6966117"><ele>1141.6666666666665</ele><time>2026-04-04T17:31:12.03Z</time></trkpt><trkpt lat="42.3219" lon="13.6965683"><ele>1141.0</ele><time>2026-04-04T17:31:13.03Z</time></trkpt><trkpt lat="42.3217467" lon="13.6965267"><ele>1141.0</ele><time>2026-04-04T17:31:14.03Z</time></trkpt><trkpt lat="42.321595" lon="13.696485"><ele>1141.0</ele><time>2026-04-04T17:31:15.03Z</time></trkpt><trkpt lat="42.3214383" lon="13.6964467"><ele>1141.0</ele><time>2026-04-04T17:31:16.03Z</time></trkpt><trkpt lat="42.3212867" lon="13.6964217"><ele>1139.0</ele><time>2026-04-04T17:31:17.03Z</time></trkpt><trkpt lat="42.3211317" lon="13.696405"><ele>1137.0</ele><time>2026-04-04T17:31:18.03Z</time></trkpt><trkpt lat="42.32098" lon="13.696395"><ele>1135.0</ele><time>2026-04-04T17:31:19.03Z</time></trkpt><trkpt lat="42.3208283" lon="13.69641"><ele>1135.0</ele><time>2026-04-04T17:31:20.03Z</time></trkpt><trkpt lat="42.3206967" lon="13.6964567"><ele>1135.0</ele><time>2026-04-04T17:31:21.03Z</time></trkpt><trkpt lat="42.3205633" lon="13.6965183"><ele>1135.0</ele><time>2026-04-04T17:31:22.03Z</time></trkpt><trkpt lat="42.3204383" lon="13.6966033"><ele>1135.0</ele><time>2026-04-04T17:31:23.03Z</time></trkpt><trkpt lat="42.3203167" lon="13.6967067"><ele>1135.0</ele><time>2026-04-04T17:31:24.03Z</time></trkpt><trkpt lat="42.3201967" lon="13.6968167"><ele>1135.0</ele><time>2026-04-04T17:31:25.03Z</time></trkpt><trkpt lat="42.3200833" lon="13.6969217"><ele>1135.0</ele><time>2026-04-04T17:31:26.029Z</time></trkpt><trkpt lat="42.3199733" lon="13.697035"><ele>1135.0</ele><time>2026-04-04T17:31:27.03Z</time></trkpt><trkpt lat="42.3198717" lon="13.6971567"><ele>1135.0</ele><time>2026-04-04T17:31:28.03Z</time></trkpt><trkpt lat="42.3197717" lon="13.6972817"><ele>1135.0</ele><time>2026-04-04T17:31:29.03Z</time></trkpt><trkpt lat="42.3196783" lon="13.697405"><ele>1135.0</ele><time>2026-04-04T17:31:30.03Z</time></trkpt><trkpt lat="42.3195833" lon="13.69754"><ele>1135.0</ele><time>2026-04-04T17:31:31.03Z</time></trkpt><trkpt lat="42.3194917" lon="13.6976883"><ele>1130.0</ele><time>2026-04-04T17:31:32.03Z</time></trkpt><trkpt lat="42.3194" lon="13.6978417"><ele>1125.0</ele><time>2026-04-04T17:31:33.03Z</time></trkpt><trkpt lat="42.3193133" lon="13.6979867"><ele>1120.0</ele><time>2026-04-04T17:31:34.029Z</time></trkpt><trkpt lat="42.3192367" lon="13.6981317"><ele>1115.0</ele><time>2026-04-04T17:31:35.03Z</time></trkpt><trkpt lat="42.319165" lon="13.6982717"><ele>1115.0</ele><time>2026-04-04T17:31:36.03Z</time></trkpt><trkpt lat="42.3191" lon="13.6983983"><ele>1115.0</ele><time>2026-04-04T17:31:37.03Z</time></trkpt><trkpt lat="42.319035" lon="13.6985117"><ele>1115.0</ele><time>2026-04-04T17:31:38.03Z</time></trkpt><trkpt lat="42.3189717" lon="13.6986317"><ele>1115.0</ele><time>2026-04-04T17:31:39.03Z</time></trkpt><trkpt lat="42.3189083" lon="13.6987417"><ele>1115.0</ele><time>2026-04-04T17:31:40.03Z</time></trkpt><trkpt lat="42.318845" lon="13.6988467"><ele>1110.6</ele><time>2026-04-04T17:31:41.03Z</time></trkpt><trkpt lat="42.3187817" lon="13.6989467"><ele>1106.2</ele><time>2026-04-04T17:31:42.03Z</time></trkpt><trkpt lat="42.3187133" lon="13.699045"><ele>1101.8</ele><time>2026-04-04T17:31:43.03Z</time></trkpt><trkpt lat="42.3186467" lon="13.6991483"><ele>1097.4</ele><time>2026-04-04T17:31:44.03Z</time></trkpt><trkpt lat="42.318585" lon="13.6992467"><ele>1093.0</ele><time>2026-04-04T17:31:45.03Z</time></trkpt><trkpt lat="42.3185267" lon="13.6993383"><ele>1096.0</ele><time>2026-04-04T17:31:46.03Z</time></trkpt><trkpt lat="42.3184733" lon="13.6994217"><ele>1099.0</ele><time>2026-04-04T17:31:47.029Z</time></trkpt><trkpt lat="42.3184333" lon="13.6994933"><ele>1102.0</ele><time>2026-04-04T17:31:48.03Z</time></trkpt><trkpt lat="42.318375" lon="13.699595"><ele>1105.0</ele><time>2026-04-04T17:31:50.03Z</time></trkpt><trkpt lat="42.3183367" lon="13.6996633"><ele>1108.0</ele><time>2026-04-04T17:31:53.03Z</time></trkpt><trkpt lat="42.3182983" lon="13.6997567"><ele>1111.0</ele><time>2026-04-04T17:32:42.03Z</time></trkpt><trkpt lat="42.318255" lon="13.699855"><ele>1111.0</ele><time>2026-04-04T17:32:43.031Z</time></trkpt><trkpt lat="42.3182017" lon="13.6999583"><ele>1111.0</ele><time>2026-04-04T17:32:44.031Z</time></trkpt><trkpt lat="42.3181433" lon="13.7000733"><ele>1111.0</ele><time>2026-04-04T17:32:45.031Z</time></trkpt><trkpt lat="42.3180833" lon="13.7001967"><ele>1111.0</ele><time>2026-04-04T17:32:46.031Z</time></trkpt><trkpt lat="42.3180083" lon="13.7003267"><ele>1111.0</ele><time>2026-04-04T17:32:47.031Z</time></trkpt><trkpt lat="42.3179283" lon="13.7004667"><ele>1104.75</ele><time>2026-04-04T17:32:48.031Z</time></trkpt><trkpt lat="42.3178467" lon="13.700595"><ele>1098.5</ele><time>2026-04-04T17:32:49.031Z</time></trkpt><trkpt lat="42.317765" lon="13.7007233"><ele>1092.25</ele><time>2026-04-04T17:32:50.031Z</time></trkpt><trkpt lat="42.3176817" lon="13.7008667"><ele>1086.0</ele><time>2026-04-04T17:32:51.031Z</time></trkpt><trkpt lat="42.317605" lon="13.7010083"><ele>1089.75</ele><time>2026-04-04T17:32:52.031Z</time></trkpt><trkpt lat="42.3175267" lon="13.7011667"><ele>1093.5</ele><time>2026-04-04T17:32:53.03Z</time></trkpt><trkpt lat="42.317455" lon="13.701325"><ele>1097.25</ele><time>2026-04-04T17:32:54.031Z</time></trkpt><trkpt lat="42.3173783" lon="13.701485"><ele>1101.0</ele><time>2026-04-04T17:32:55.031Z</time></trkpt><trkpt lat="42.317305" lon="13.7016517"><ele>1094.0</ele><time>2026-04-04T17:32:56.031Z</time></trkpt><trkpt lat="42.317235" lon="13.7018083"><ele>1087.0</ele><time>2026-04-04T17:32:57.031Z</time></trkpt><trkpt lat="42.3171683" lon="13.7019667"><ele>1080.0</ele><time>2026-04-04T17:32:58.031Z</time></trkpt><trkpt lat="42.3171" lon="13.7021317"><ele>1073.0</ele><time>2026-04-04T17:32:59.031Z</time></trkpt><trkpt lat="42.3170317" lon="13.7022917"><ele>1073.0</ele><time>2026-04-04T17:33:00.031Z</time></trkpt><trkpt lat="42.3169633" lon="13.7024533"><ele>1073.0</ele><time>2026-04-04T17:33:01.031Z</time></trkpt><trkpt lat="42.3168883" lon="13.70261"><ele>1073.0</ele><time>2026-04-04T17:33:02.031Z</time></trkpt><trkpt lat="42.3168183" lon="13.7027667"><ele>1073.0</ele><time>2026-04-04T17:33:03.031Z</time></trkpt><trkpt lat="42.31675" lon="13.7029133"><ele>1076.5</ele><time>2026-04-04T17:33:04.031Z</time></trkpt><trkpt lat="42.31668" lon="13.70307"><ele>1080.0</ele><time>2026-04-04T17:33:05.031Z</time></trkpt><trkpt lat="42.3166067" lon="13.7032133"><ele>1083.5</ele><time>2026-04-04T17:33:06.03Z</time></trkpt><trkpt lat="42.316535" lon="13.7033517"><ele>1087.0</ele><time>2026-04-04T17:33:07.031Z</time></trkpt><trkpt lat="42.3164717" lon="13.703485"><ele>1079.75</ele><time>2026-04-04T17:33:08.031Z</time></trkpt><trkpt lat="42.3164017" lon="13.7036133"><ele>1072.5</ele><time>2026-04-04T17:33:09.031Z</time></trkpt><trkpt lat="42.31634" lon="13.70375"><ele>1065.25</ele><time>2026-04-04T17:33:10.031Z</time></trkpt><trkpt lat="42.31628" lon="13.70389"><ele>1058.0</ele><time>2026-04-04T17:33:11.031Z</time></trkpt><trkpt lat="42.31622" lon="13.7040217"><ele>1058.0</ele><time>2026-04-04T17:33:12.031Z</time></trkpt><trkpt lat="42.3161633" lon="13.7041517"><ele>1058.0</ele><time>2026-04-04T17:33:13.031Z</time></trkpt><trkpt lat="42.3161067" lon="13.7042817"><ele>1058.0</ele><time>2026-04-04T17:33:14.031Z</time></trkpt><trkpt lat="42.3160517" lon="13.7044083"><ele>1058.0</ele><time>2026-04-04T17:33:15.031Z</time></trkpt><trkpt lat="42.3159967" lon="13.7045283"><ele>1058.0</ele><time>2026-04-04T17:33:16.031Z</time></trkpt><trkpt lat="42.3159417" lon="13.7046567"><ele>1060.6</ele><time>2026-04-04T17:33:17.031Z</time></trkpt><trkpt lat="42.315885" lon="13.7047783"><ele>1063.1999999999998</ele><time>2026-04-04T17:33:18.031Z</time></trkpt><trkpt lat="42.315825" lon="13.7049"><ele>1065.8</ele><time>2026-04-04T17:33:19.031Z</time></trkpt><trkpt lat="42.3157633" lon="13.705025"><ele>1068.3999999999999</ele><time>2026-04-04T17:33:20.031Z</time></trkpt><trkpt lat="42.3157083" lon="13.7051533"><ele>1071.0</ele><time>2026-04-04T17:33:21.031Z</time></trkpt><trkpt lat="42.315655" lon="13.705275"><ele>1073.2</ele><time>2026-04-04T17:33:22.031Z</time></trkpt><trkpt lat="42.3156" lon="13.705395"><ele>1075.3999999999999</ele><time>2026-04-04T17:33:23.031Z</time></trkpt><trkpt lat="42.3155483" lon="13.70552"><ele>1077.6</ele><time>2026-04-04T17:33:24.031Z</time></trkpt><trkpt lat="42.315505" lon="13.7056417"><ele>1079.8</ele><time>2026-04-04T17:33:25.03Z</time></trkpt><trkpt lat="42.3154667" lon="13.70577"><ele>1082.0</ele><time>2026-04-04T17:33:26.031Z</time></trkpt><trkpt lat="42.3154317" lon="13.7058983"><ele>1075.2</ele><time>2026-04-04T17:33:27.031Z</time></trkpt><trkpt lat="42.3153983" lon="13.7060217"><ele>1068.4</ele><time>2026-04-04T17:33:28.031Z</time></trkpt><trkpt lat="42.3153633" lon="13.7061483"><ele>1061.6</ele><time>2026-04-04T17:33:29.031Z</time></trkpt><trkpt lat="42.3153317" lon="13.7062767"><ele>1054.8</ele><time>2026-04-04T17:33:30.031Z</time></trkpt><trkpt lat="42.315305" lon="13.7064067"><ele>1048.0</ele><time>2026-04-04T17:33:31.031Z</time></trkpt><trkpt lat="42.3152817" lon="13.7065417"><ele>1048.0</ele><time>2026-04-04T17:33:32.031Z</time></trkpt><trkpt lat="42.315265" lon="13.7066717"><ele>1048.0</ele><time>2026-04-04T17:33:33.031Z</time></trkpt><trkpt lat="42.315255" lon="13.7068"><ele>1048.0</ele><time>2026-04-04T17:33:34.031Z</time></trkpt><trkpt lat="42.3152567" lon="13.7069283"><ele>1048.0</ele><time>2026-04-04T17:33:35.031Z</time></trkpt><trkpt lat="42.31526" lon="13.7070517"><ele>1048.0</ele><time>2026-04-04T17:33:36.031Z</time></trkpt><trkpt lat="42.3152517" lon="13.70717"><ele>1048.1666666666665</ele><time>2026-04-04T17:33:37.031Z</time></trkpt><trkpt lat="42.31524" lon="13.7072683"><ele>1048.3333333333333</ele><time>2026-04-04T17:33:38.031Z</time></trkpt><trkpt lat="42.3152133" lon="13.70735"><ele>1048.5</ele><time>2026-04-04T17:33:39.03Z</time></trkpt><trkpt lat="42.3151417" lon="13.7074083"><ele>1048.6666666666667</ele><time>2026-04-04T17:33:41.031Z</time></trkpt><trkpt lat="42.3150783" lon="13.7072867"><ele>1048.8333333333335</ele><time>2026-04-04T17:33:43.031Z</time></trkpt><trkpt lat="42.3150817" lon="13.707185"><ele>1049.0</ele><time>2026-04-04T17:33:44.031Z</time></trkpt><trkpt lat="42.3150867" lon="13.70708"><ele>1049.0</ele><time>2026-04-04T17:33:45.031Z</time></trkpt><trkpt lat="42.31509" lon="13.7069767"><ele>1049.0</ele><time>2026-04-04T17:33:46.031Z</time></trkpt><trkpt lat="42.3150933" lon="13.70688"><ele>1049.0</ele><time>2026-04-04T17:33:47.031Z</time></trkpt><trkpt lat="42.3151" lon="13.7067683"><ele>1049.0</ele><time>2026-04-04T17:33:48.031Z</time></trkpt><trkpt lat="42.3151067" lon="13.70665"><ele>1049.0</ele><time>2026-04-04T17:33:49.031Z</time></trkpt><trkpt lat="42.315115" lon="13.70653"><ele>1049.0</ele><time>2026-04-04T17:33:50.031Z</time></trkpt><trkpt lat="42.31512" lon="13.7064117"><ele>1048.8333333333335</ele><time>2026-04-04T17:33:51.031Z</time></trkpt><trkpt lat="42.3151233" lon="13.7063"><ele>1048.6666666666667</ele><time>2026-04-04T17:33:52.031Z</time></trkpt><trkpt lat="42.315125" lon="13.7061917"><ele>1048.5</ele><time>2026-04-04T17:33:53.03Z</time></trkpt><trkpt lat="42.3151233" lon="13.70608"><ele>1048.3333333333333</ele><time>2026-04-04T17:33:54.031Z</time></trkpt><trkpt lat="42.315125" lon="13.7059683"><ele>1048.1666666666665</ele><time>2026-04-04T17:33:55.031Z</time></trkpt><trkpt lat="42.3151317" lon="13.7058517"><ele>1048.0</ele><time>2026-04-04T17:33:56.031Z</time></trkpt><trkpt lat="42.3151417" lon="13.7057333"><ele>1047.2</ele><time>2026-04-04T17:33:57.031Z</time></trkpt><trkpt lat="42.315155" lon="13.705615"><ele>1046.4</ele><time>2026-04-04T17:33:58.031Z</time></trkpt><trkpt lat="42.315165" lon="13.7054883"><ele>1045.6000000000001</ele><time>2026-04-04T17:33:59.031Z</time></trkpt><trkpt lat="42.3151767" lon="13.7053533"><ele>1044.8</ele><time>2026-04-04T17:34:00.031Z</time></trkpt><trkpt lat="42.3151917" lon="13.7052083"><ele>1044.0</ele><time>2026-04-04T17:34:01.031Z</time></trkpt><trkpt lat="42.3152217" lon="13.70506"><ele>1041.75</ele><time>2026-04-04T17:34:02.031Z</time></trkpt><trkpt lat="42.31526" lon="13.7049117"><ele>1039.5</ele><time>2026-04-04T17:34:03.031Z</time></trkpt><trkpt lat="42.3153" lon="13.704755"><ele>1037.25</ele><time>2026-04-04T17:34:04.031Z</time></trkpt><trkpt lat="42.3153483" lon="13.70459"><ele>1035.0</ele><time>2026-04-04T17:34:05.031Z</time></trkpt><trkpt lat="42.315395" lon="13.7044117"><ele>1032.25</ele><time>2026-04-04T17:34:06.031Z</time></trkpt><trkpt lat="42.315445" lon="13.7042317"><ele>1029.5</ele><time>2026-04-04T17:34:07.031Z</time></trkpt><trkpt lat="42.315495" lon="13.704055"><ele>1026.75</ele><time>2026-04-04T17:34:08.031Z</time></trkpt><trkpt lat="42.3155433" lon="13.7038783"><ele>1024.0</ele><time>2026-04-04T17:34:09.031Z</time></trkpt><trkpt lat="42.31559" lon="13.703695"><ele>1032.0</ele><time>2026-04-04T17:34:10.031Z</time></trkpt><trkpt lat="42.31564" lon="13.7035"><ele>1040.0</ele><time>2026-04-04T17:34:11.031Z</time></trkpt><trkpt lat="42.315695" lon="13.7033033"><ele>1048.0</ele><time>2026-04-04T17:34:12.031Z</time></trkpt><trkpt lat="42.3157533" lon="13.7031017"><ele>1048.0</ele><time>2026-04-04T17:34:13.031Z</time></trkpt><trkpt lat="42.315805" lon="13.7028967"><ele>1048.0</ele><time>2026-04-04T17:34:14.031Z</time></trkpt><trkpt lat="42.3158583" lon="13.7027017"><ele>1048.0</ele><time>2026-04-04T17:34:15.031Z</time></trkpt><trkpt lat="42.3159083" lon="13.7025083"><ele>1044.3333333333333</ele><time>2026-04-04T17:34:16.031Z</time></trkpt><trkpt lat="42.3159617" lon="13.702315"><ele>1040.6666666666667</ele><time>2026-04-04T17:34:17.031Z</time></trkpt><trkpt lat="42.316015" lon="13.7021233"><ele>1037.0</ele><time>2026-04-04T17:34:18.031Z</time></trkpt><trkpt lat="42.3160717" lon="13.70194"><ele>1032.75</ele><time>2026-04-04T17:34:19.031Z</time></trkpt><trkpt lat="42.3161217" lon="13.7017617"><ele>1028.5</ele><time>2026-04-04T17:34:20.031Z</time></trkpt><trkpt lat="42.3161683" lon="13.7015867"><ele>1024.25</ele><time>2026-04-04T17:34:21.031Z</time></trkpt><trkpt lat="42.316215" lon="13.7014233"><ele>1020.0</ele><time>2026-04-04T17:34:22.031Z</time></trkpt><trkpt lat="42.3162583" lon="13.70126"><ele>1020.0</ele><time>2026-04-04T17:34:23.031Z</time></trkpt><trkpt lat="42.316295" lon="13.7011033"><ele>1020.0</ele><time>2026-04-04T17:34:24.031Z</time></trkpt><trkpt lat="42.3163267" lon="13.70096"><ele>1020.0</ele><time>2026-04-04T17:34:25.031Z</time></trkpt><trkpt lat="42.31637" lon="13.700815"><ele>1020.0</ele><time>2026-04-04T17:34:26.031Z</time></trkpt><trkpt lat="42.316405" lon="13.700685"><ele>1022.2</ele><time>2026-04-04T17:34:27.031Z</time></trkpt><trkpt lat="42.3164483" lon="13.700555"><ele>1024.4</ele><time>2026-04-04T17:34:28.031Z</time></trkpt><trkpt lat="42.31648" lon="13.7004083"><ele>1026.6</ele><time>2026-04-04T17:34:29.031Z</time></trkpt><trkpt lat="42.3165233" lon="13.7002733"><ele>1028.8</ele><time>2026-04-04T17:34:30.031Z</time></trkpt><trkpt lat="42.31658" lon="13.700145"><ele>1031.0</ele><time>2026-04-04T17:34:31.031Z</time></trkpt><trkpt lat="42.3166367" lon="13.700025"><ele>1031.0</ele><time>2026-04-04T17:34:32.031Z</time></trkpt><trkpt lat="42.3166967" lon="13.6999083"><ele>1031.0</ele><time>2026-04-04T17:34:33.031Z</time></trkpt><trkpt lat="42.316745" lon="13.6997983"><ele>1031.0</ele><time>2026-04-04T17:34:34.031Z</time></trkpt><trkpt lat="42.3167667" lon="13.699705"><ele>1031.0</ele><time>2026-04-04T17:34:35.031Z</time></trkpt><trkpt lat="42.3167567" lon="13.69961"><ele>1031.0</ele><time>2026-04-04T17:34:36.03Z</time></trkpt><trkpt lat="42.316715" lon="13.699545"><ele>1031.0</ele><time>2026-04-04T17:34:37.03Z</time></trkpt><trkpt lat="42.3165967" lon="13.6995867"><ele>1031.0</ele><time>2026-04-04T17:34:39.031Z</time></trkpt><trkpt lat="42.316525" lon="13.6996867"><ele>1031.0</ele><time>2026-04-04T17:34:40.031Z</time></trkpt><trkpt lat="42.31647" lon="13.69983"><ele>1031.0</ele><time>2026-04-04T17:34:41.031Z</time></trkpt><trkpt lat="42.3164283" lon="13.6999717"><ele>1031.0</ele><time>2026-04-04T17:34:42.031Z</time></trkpt><trkpt lat="42.3163833" lon="13.7001133"><ele>1031.0</ele><time>2026-04-04T17:34:43.031Z</time></trkpt><trkpt lat="42.3163317" lon="13.7002433"><ele>1025.5</ele><time>2026-04-04T17:34:44.031Z</time></trkpt><trkpt lat="42.3162767" lon="13.7003683"><ele>1020.0</ele><time>2026-04-04T17:34:45.031Z</time></trkpt><trkpt lat="42.3162217" lon="13.7004967"><ele>1014.5</ele><time>2026-04-04T17:34:46.031Z</time></trkpt><trkpt lat="42.3161617" lon="13.7006367"><ele>1009.0</ele><time>2026-04-04T17:34:47.031Z</time></trkpt><trkpt lat="42.3160983" lon="13.7007817"><ele>1009.0</ele><time>2026-04-04T17:34:48.031Z</time></trkpt><trkpt lat="42.31603" lon="13.70093"><ele>1009.0</ele><time>2026-04-04T17:34:49.031Z</time></trkpt><trkpt lat="42.315955" lon="13.7010817"><ele>1009.0</ele><time>2026-04-04T17:34:50.031Z</time></trkpt><trkpt lat="42.31589" lon="13.7012433"><ele>1009.0</ele><time>2026-04-04T17:34:51.031Z</time></trkpt><trkpt lat="42.3158183" lon="13.701415"><ele>1006.75</ele><time>2026-04-04T17:34:52.031Z</time></trkpt><trkpt lat="42.3157367" lon="13.7015783"><ele>1004.5</ele><time>2026-04-04T17:34:53.031Z</time></trkpt><trkpt lat="42.315655" lon="13.7017483"><ele>1002.25</ele><time>2026-04-04T17:34:54.031Z</time></trkpt><trkpt lat="42.3155633" lon="13.7019083"><ele>1000.0</ele><time>2026-04-04T17:34:55.031Z</time></trkpt><trkpt lat="42.315475" lon="13.702085"><ele>1000.0</ele><time>2026-04-04T17:34:56.031Z</time></trkpt><trkpt lat="42.3153833" lon="13.702265"><ele>1000.0</ele><time>2026-04-04T17:34:57.031Z</time></trkpt><trkpt lat="42.3152883" lon="13.702435"><ele>1000.0</ele><time>2026-04-04T17:34:58.031Z</time></trkpt><trkpt lat="42.31518" lon="13.7026033"><ele>1004.6666666666666</ele><time>2026-04-04T17:34:59.031Z</time></trkpt><trkpt lat="42.3150717" lon="13.7027733"><ele>1009.3333333333333</ele><time>2026-04-04T17:35:00.031Z</time></trkpt><trkpt lat="42.31497" lon="13.70294"><ele>1014.0</ele><time>2026-04-04T17:35:01.031Z</time></trkpt><trkpt lat="42.314865" lon="13.7031117"><ele>1014.0</ele><time>2026-04-04T17:35:02.031Z</time></trkpt><trkpt lat="42.314775" lon="13.7032883"><ele>1014.0</ele><time>2026-04-04T17:35:03.031Z</time></trkpt><trkpt lat="42.3146867" lon="13.7034433"><ele>1014.0</ele><time>2026-04-04T17:35:04.031Z</time></trkpt><trkpt lat="42.3146" lon="13.703605"><ele>1009.75</ele><time>2026-04-04T17:35:05.031Z</time></trkpt><trkpt lat="42.3145183" lon="13.7037667"><ele>1005.5</ele><time>2026-04-04T17:35:06.031Z</time></trkpt><trkpt lat="42.314455" lon="13.7039217"><ele>1001.25</ele><time>2026-04-04T17:35:07.031Z</time></trkpt><trkpt lat="42.3143917" lon="13.70406"><ele>997.0</ele><time>2026-04-04T17:35:08.03Z</time></trkpt><trkpt lat="42.3143367" lon="13.704175"><ele>996.9999999999999</ele><time>2026-04-04T17:35:09.031Z</time></trkpt><trkpt lat="42.314285" lon="13.7042733"><ele>997.0</ele><time>2026-04-04T17:35:10.031Z</time></trkpt><trkpt lat="42.3142417" lon="13.7043483"><ele>997.0</ele><time>2026-04-04T17:35:11.031Z</time></trkpt><trkpt lat="42.314195" lon="13.7044067"><ele>997.0</ele><time>2026-04-04T17:35:12.031Z</time></trkpt><trkpt lat="42.3140867" lon="13.7044733"><ele>996.9999999999999</ele><time>2026-04-04T17:35:14.031Z</time></trkpt><trkpt lat="42.314045" lon="13.7045433"><ele>997.0</ele><time>2026-04-04T17:35:15.031Z</time></trkpt><trkpt lat="42.3140067" lon="13.7046383"><ele>999.0</ele><time>2026-04-04T17:35:16.031Z</time></trkpt><trkpt lat="42.3139567" lon="13.7047633"><ele>1001.0</ele><time>2026-04-04T17:35:17.031Z</time></trkpt><trkpt lat="42.3139" lon="13.7049033"><ele>1003.0</ele><time>2026-04-04T17:35:18.03Z</time></trkpt><trkpt lat="42.3138383" lon="13.7050467"><ele>1005.0</ele><time>2026-04-04T17:35:19.031Z</time></trkpt><trkpt lat="42.3137717" lon="13.7052033"><ele>1000.75</ele><time>2026-04-04T17:35:20.03Z</time></trkpt><trkpt lat="42.3137033" lon="13.7053617"><ele>996.5</ele><time>2026-04-04T17:35:21.031Z</time></trkpt><trkpt lat="42.31364" lon="13.7055167"><ele>992.25</ele><time>2026-04-04T17:35:22.031Z</time></trkpt><trkpt lat="42.3135817" lon="13.7056833"><ele>988.0</ele><time>2026-04-04T17:35:23.031Z</time></trkpt><trkpt lat="42.3135267" lon="13.7058517"><ele>988.0</ele><time>2026-04-04T17:35:24.031Z</time></trkpt><trkpt lat="42.3134683" lon="13.7060283"><ele>988.0</ele><time>2026-04-04T17:35:25.031Z</time></trkpt><trkpt lat="42.31342" lon="13.7062117"><ele>988.0</ele><time>2026-04-04T17:35:26.031Z</time></trkpt><trkpt lat="42.3133783" lon="13.7064017"><ele>988.0</ele><time>2026-04-04T17:35:27.031Z</time></trkpt><trkpt lat="42.31334" lon="13.7065883"><ele>988.0</ele><time>2026-04-04T17:35:28.031Z</time></trkpt><trkpt lat="42.3133167" lon="13.7067667"><ele>988.0</ele><time>2026-04-04T17:35:29.031Z</time></trkpt><trkpt lat="42.31329" lon="13.706945"><ele>988.0</ele><time>2026-04-04T17:35:30.031Z</time></trkpt><trkpt lat="42.3132683" lon="13.707125"><ele>988.0</ele><time>2026-04-04T17:35:31.031Z</time></trkpt><trkpt lat="42.3132383" lon="13.707305"><ele>987.5</ele><time>2026-04-04T17:35:32.031Z</time></trkpt><trkpt lat="42.3132067" lon="13.707475"><ele>987.0</ele><time>2026-04-04T17:35:33.031Z</time></trkpt><trkpt lat="42.3131667" lon="13.7076433"><ele>986.5</ele><time>2026-04-04T17:35:34.031Z</time></trkpt><trkpt lat="42.31313" lon="13.7078083"><ele>986.0</ele><time>2026-04-04T17:35:35.031Z</time></trkpt><trkpt lat="42.3130917" lon="13.7079717"><ele>983.25</ele><time>2026-04-04T17:35:36.031Z</time></trkpt><trkpt lat="42.3130533" lon="13.708135"><ele>980.5</ele><time>2026-04-04T17:35:37.031Z</time></trkpt><trkpt lat="42.313035" lon="13.7082983"><ele>977.75</ele><time>2026-04-04T17:35:38.031Z</time></trkpt><trkpt lat="42.31304" lon="13.7084567"><ele>975.0</ele><time>2026-04-04T17:35:39.031Z</time></trkpt><trkpt lat="42.313075" lon="13.7086167"><ele>975.0</ele><time>2026-04-04T17:35:40.031Z</time></trkpt><trkpt lat="42.3131233" lon="13.708775"><ele>975.0</ele><time>2026-04-04T17:35:41.031Z</time></trkpt><trkpt lat="42.3131767" lon="13.7089433"><ele>975.0</ele><time>2026-04-04T17:35:42.031Z</time></trkpt><trkpt lat="42.3132333" lon="13.7091167"><ele>975.0</ele><time>2026-04-04T17:35:43.031Z</time></trkpt><trkpt lat="42.313285" lon="13.709305"><ele>972.25</ele><time>2026-04-04T17:35:44.031Z</time></trkpt><trkpt lat="42.31333" lon="13.7094883"><ele>969.5</ele><time>2026-04-04T17:35:45.031Z</time></trkpt><trkpt lat="42.3133617" lon="13.709675"><ele>966.75</ele><time>2026-04-04T17:35:46.031Z</time></trkpt><trkpt lat="42.3133767" lon="13.7098667"><ele>964.0</ele><time>2026-04-04T17:35:47.03Z</time></trkpt><trkpt lat="42.3133917" lon="13.7100483"><ele>964.0</ele><time>2026-04-04T17:35:48.031Z</time></trkpt><trkpt lat="42.3134117" lon="13.710235"><ele>964.0</ele><time>2026-04-04T17:35:49.031Z</time></trkpt><trkpt lat="42.313445" lon="13.71043"><ele>964.0</ele><time>2026-04-04T17:35:50.031Z</time></trkpt><trkpt lat="42.3134883" lon="13.7106267"><ele>964.0</ele><time>2026-04-04T17:35:51.031Z</time></trkpt><trkpt lat="42.3135367" lon="13.7108183"><ele>961.0</ele><time>2026-04-04T17:35:52.031Z</time></trkpt><trkpt lat="42.3135867" lon="13.7110067"><ele>958.0</ele><time>2026-04-04T17:35:53.031Z</time></trkpt><trkpt lat="42.3136383" lon="13.7111883"><ele>955.0</ele><time>2026-04-04T17:35:54.031Z</time></trkpt><trkpt lat="42.3137017" lon="13.7113383"><ele>952.0</ele><time>2026-04-04T17:35:55.03Z</time></trkpt><trkpt lat="42.3137883" lon="13.7114717"><ele>953.2</ele><time>2026-04-04T17:35:56.031Z</time></trkpt><trkpt lat="42.3138983" lon="13.711545"><ele>954.4000000000001</ele><time>2026-04-04T17:35:57.031Z</time></trkpt><trkpt lat="42.3140117" lon="13.711585"><ele>955.5999999999999</ele><time>2026-04-04T17:35:58.031Z</time></trkpt><trkpt lat="42.314105" lon="13.7116383"><ele>956.8</ele><time>2026-04-04T17:35:59.031Z</time></trkpt><trkpt lat="42.3141767" lon="13.7117183"><ele>958.0</ele><time>2026-04-04T17:36:00.03Z</time></trkpt><trkpt lat="42.314215" lon="13.7118417"><ele>956.0</ele><time>2026-04-04T17:36:01.031Z</time></trkpt><trkpt lat="42.31422" lon="13.7119933"><ele>954.0</ele><time>2026-04-04T17:36:02.031Z</time></trkpt><trkpt lat="42.314205" lon="13.7121617"><ele>952.0</ele><time>2026-04-04T17:36:03.031Z</time></trkpt><trkpt lat="42.3141917" lon="13.7123333"><ele>950.0</ele><time>2026-04-04T17:36:04.031Z</time></trkpt><trkpt lat="42.31418" lon="13.7125067"><ele>950.0</ele><time>2026-04-04T17:36:05.03Z</time></trkpt><trkpt lat="42.3141733" lon="13.7126917"><ele>950.0</ele><time>2026-04-04T17:36:06.031Z</time></trkpt><trkpt lat="42.314175" lon="13.712875"><ele>950.0</ele><time>2026-04-04T17:36:07.031Z</time></trkpt><trkpt lat="42.3141817" lon="13.7130517"><ele>950.0</ele><time>2026-04-04T17:36:08.031Z</time></trkpt><trkpt lat="42.3142" lon="13.71323"><ele>947.75</ele><time>2026-04-04T17:36:09.031Z</time></trkpt><trkpt lat="42.3142317" lon="13.7134017"><ele>945.5</ele><time>2026-04-04T17:36:10.031Z</time></trkpt><trkpt lat="42.3142833" lon="13.7135683"><ele>943.25</ele><time>2026-04-04T17:36:11.031Z</time></trkpt><trkpt lat="42.3143683" lon="13.71373"><ele>941.0</ele><time>2026-04-04T17:36:12.031Z</time></trkpt><trkpt lat="42.3144583" lon="13.7138733"><ele>942.25</ele><time>2026-04-04T17:36:13.031Z</time></trkpt><trkpt lat="42.3145517" lon="13.71401"><ele>943.5</ele><time>2026-04-04T17:36:14.031Z</time></trkpt><trkpt lat="42.314645" lon="13.7141267"><ele>944.75</ele><time>2026-04-04T17:36:15.031Z</time></trkpt><trkpt lat="42.314745" lon="13.714235"><ele>946.0</ele><time>2026-04-04T17:36:16.031Z</time></trkpt><trkpt lat="42.3148417" lon="13.7143317"><ele>946.4999999999999</ele><time>2026-04-04T17:36:17.031Z</time></trkpt><trkpt lat="42.3149267" lon="13.714425"><ele>947.0</ele><time>2026-04-04T17:36:18.03Z</time></trkpt><trkpt lat="42.3149967" lon="13.714515"><ele>947.5</ele><time>2026-04-04T17:36:19.031Z</time></trkpt><trkpt lat="42.3150433" lon="13.714615"><ele>948.0</ele><time>2026-04-04T17:36:20.031Z</time></trkpt><trkpt lat="42.3150517" lon="13.7147133"><ele>948.4999999999999</ele><time>2026-04-04T17:36:21.031Z</time></trkpt><trkpt lat="42.315025" lon="13.7148033"><ele>949.0</ele><time>2026-04-04T17:36:22.031Z</time></trkpt><trkpt lat="42.314955" lon="13.7148617"><ele>949.0</ele><time>2026-04-04T17:36:23.03Z</time></trkpt><trkpt lat="42.3148383" lon="13.7148817"><ele>949.0</ele><time>2026-04-04T17:36:24.031Z</time></trkpt><trkpt lat="42.314685" lon="13.71487"><ele>949.0</ele><time>2026-04-04T17:36:25.031Z</time></trkpt><trkpt lat="42.3145117" lon="13.7148367"><ele>949.0</ele><time>2026-04-04T17:36:26.031Z</time></trkpt><trkpt lat="42.314345" lon="13.7148017"><ele>946.6666666666666</ele><time>2026-04-04T17:36:27.031Z</time></trkpt><trkpt lat="42.314175" lon="13.7147617"><ele>944.3333333333333</ele><time>2026-04-04T17:36:28.031Z</time></trkpt><trkpt lat="42.31402" lon="13.7147117"><ele>942.0</ele><time>2026-04-04T17:36:29.031Z</time></trkpt><trkpt lat="42.3138667" lon="13.7146567"><ele>941.3333333333333</ele><time>2026-04-04T17:36:30.031Z</time></trkpt><trkpt lat="42.3137117" lon="13.7146"><ele>940.6666666666666</ele><time>2026-04-04T17:36:31.031Z</time></trkpt><trkpt lat="42.3135567" lon="13.7145317"><ele>940.0</ele><time>2026-04-04T17:36:32.031Z</time></trkpt><trkpt lat="42.3134067" lon="13.7144583"><ele>932.6666666666666</ele><time>2026-04-04T17:36:33.031Z</time></trkpt><trkpt lat="42.3132567" lon="13.714395"><ele>925.3333333333333</ele><time>2026-04-04T17:36:34.031Z</time></trkpt><trkpt lat="42.3131083" lon="13.7143417"><ele>918.0</ele><time>2026-04-04T17:36:35.03Z</time></trkpt><trkpt lat="42.3129667" lon="13.7142967"><ele>917.75</ele><time>2026-04-04T17:36:36.031Z</time></trkpt><trkpt lat="42.3128183" lon="13.71425"><ele>917.5</ele><time>2026-04-04T17:36:37.031Z</time></trkpt><trkpt lat="42.3126733" lon="13.714205"><ele>917.25</ele><time>2026-04-04T17:36:38.031Z</time></trkpt><trkpt lat="42.3125333" lon="13.71416"><ele>917.0</ele><time>2026-04-04T17:36:39.031Z</time></trkpt><trkpt lat="42.3123883" lon="13.714135"><ele>915.25</ele><time>2026-04-04T17:36:40.031Z</time></trkpt><trkpt lat="42.3122367" lon="13.7141283"><ele>913.5</ele><time>2026-04-04T17:36:41.031Z</time></trkpt><trkpt lat="42.3120883" lon="13.71413"><ele>911.75</ele><time>2026-04-04T17:36:42.031Z</time></trkpt><trkpt lat="42.3119533" lon="13.7141383"><ele>910.0</ele><time>2026-04-04T17:36:43.031Z</time></trkpt><trkpt lat="42.3118333" lon="13.71416"><ele>910.0</ele><time>2026-04-04T17:36:44.031Z</time></trkpt><trkpt lat="42.311715" lon="13.71419"><ele>910.0</ele><time>2026-04-04T17:36:45.031Z</time></trkpt><trkpt lat="42.3116283" lon="13.7142833"><ele>910.0</ele><time>2026-04-04T17:36:46.031Z</time></trkpt><trkpt lat="42.3115733" lon="13.714415"><ele>910.0</ele><time>2026-04-04T17:36:47.031Z</time></trkpt><trkpt lat="42.3115417" lon="13.7145617"><ele>912.0</ele><time>2026-04-04T17:36:48.031Z</time></trkpt><trkpt lat="42.3114983" lon="13.7147217"><ele>914.0</ele><time>2026-04-04T17:36:49.031Z</time></trkpt><trkpt lat="42.31143" lon="13.714835"><ele>916.0</ele><time>2026-04-04T17:36:50.031Z</time></trkpt><trkpt lat="42.3113267" lon="13.7149067"><ele>918.0</ele><time>2026-04-04T17:36:51.031Z</time></trkpt><trkpt lat="42.3112" lon="13.714965"><ele>916.75</ele><time>2026-04-04T17:36:52.031Z</time></trkpt><trkpt lat="42.3110833" lon="13.71506"><ele>915.5</ele><time>2026-04-04T17:36:53.031Z</time></trkpt><trkpt lat="42.3109783" lon="13.7151817"><ele>914.25</ele><time>2026-04-04T17:36:54.031Z</time></trkpt><trkpt lat="42.3108717" lon="13.7153067"><ele>913.0</ele><time>2026-04-04T17:36:55.031Z</time></trkpt><trkpt lat="42.310755" lon="13.7154167"><ele>913.0</ele><time>2026-04-04T17:36:56.031Z</time></trkpt><trkpt lat="42.31064" lon="13.715515"><ele>913.0</ele><time>2026-04-04T17:36:57.031Z</time></trkpt><trkpt lat="42.310525" lon="13.715605"><ele>913.0</ele><time>2026-04-04T17:36:58.031Z</time></trkpt><trkpt lat="42.3104133" lon="13.7156983"><ele>913.0</ele><time>2026-04-04T17:36:59.031Z</time></trkpt><trkpt lat="42.310305" lon="13.7157833"><ele>912.25</ele><time>2026-04-04T17:37:00.031Z</time></trkpt><trkpt lat="42.3101817" lon="13.715865"><ele>911.5</ele><time>2026-04-04T17:37:01.031Z</time></trkpt><trkpt lat="42.3100617" lon="13.7159633"><ele>910.75</ele><time>2026-04-04T17:37:02.031Z</time></trkpt><trkpt lat="42.3099483" lon="13.7160783"><ele>910.0</ele><time>2026-04-04T17:37:03.031Z</time></trkpt><trkpt lat="42.3098367" lon="13.7162017"><ele>904.0</ele><time>2026-04-04T17:37:04.031Z</time></trkpt><trkpt lat="42.3097267" lon="13.7163317"><ele>898.0</ele><time>2026-04-04T17:37:05.031Z</time></trkpt><trkpt lat="42.30961" lon="13.7164517"><ele>892.0</ele><time>2026-04-04T17:37:06.03Z</time></trkpt><trkpt lat="42.30949" lon="13.7165633"><ele>886.0</ele><time>2026-04-04T17:37:07.031Z</time></trkpt><trkpt lat="42.3093717" lon="13.7166667"><ele>886.0</ele><time>2026-04-04T17:37:08.031Z</time></trkpt><trkpt lat="42.3092567" lon="13.71676"><ele>886.0</ele><time>2026-04-04T17:37:09.031Z</time></trkpt><trkpt lat="42.3091383" lon="13.7168483"><ele>886.0</ele><time>2026-04-04T17:37:10.031Z</time></trkpt><trkpt lat="42.30902" lon="13.7169383"><ele>886.0</ele><time>2026-04-04T17:37:11.031Z</time></trkpt><trkpt lat="42.308925" lon="13.7170483"><ele>881.5</ele><time>2026-04-04T17:37:12.031Z</time></trkpt><trkpt lat="42.30885" lon="13.717195"><ele>877.0</ele><time>2026-04-04T17:37:13.031Z</time></trkpt><trkpt lat="42.3087883" lon="13.7173467"><ele>872.5</ele><time>2026-04-04T17:37:14.031Z</time></trkpt><trkpt lat="42.308735" lon="13.7175083"><ele>868.0</ele><time>2026-04-04T17:37:15.031Z</time></trkpt><trkpt lat="42.30869" lon="13.71768"><ele>869.75</ele><time>2026-04-04T17:37:16.031Z</time></trkpt><trkpt lat="42.3086483" lon="13.7178517"><ele>871.5</ele><time>2026-04-04T17:37:17.031Z</time></trkpt><trkpt lat="42.3086117" lon="13.7180267"><ele>873.25</ele><time>2026-04-04T17:37:18.031Z</time></trkpt><trkpt lat="42.30858" lon="13.718205"><ele>875.0</ele><time>2026-04-04T17:37:19.031Z</time></trkpt><trkpt lat="42.3085633" lon="13.7183783"><ele>875.0</ele><time>2026-04-04T17:37:20.031Z</time></trkpt><trkpt lat="42.3085617" lon="13.7185533"><ele>875.0</ele><time>2026-04-04T17:37:21.031Z</time></trkpt><trkpt lat="42.3085717" lon="13.7187367"><ele>875.0</ele><time>2026-04-04T17:37:22.031Z</time></trkpt><trkpt lat="42.3086" lon="13.7189183"><ele>875.0</ele><time>2026-04-04T17:37:23.03Z</time></trkpt><trkpt lat="42.308655" lon="13.7190917"><ele>876.0</ele><time>2026-04-04T17:37:24.031Z</time></trkpt><trkpt lat="42.3087267" lon="13.7192517"><ele>877.0</ele><time>2026-04-04T17:37:25.031Z</time></trkpt><trkpt lat="42.3088133" lon="13.719425"><ele>878.0</ele><time>2026-04-04T17:37:26.031Z</time></trkpt><trkpt lat="42.308895" lon="13.719595"><ele>879.0</ele><time>2026-04-04T17:37:27.031Z</time></trkpt><trkpt lat="42.308975" lon="13.7197717"><ele>879.0</ele><time>2026-04-04T17:37:28.031Z</time></trkpt><trkpt lat="42.30905" lon="13.7199433"><ele>879.0</ele><time>2026-04-04T17:37:29.031Z</time></trkpt><trkpt lat="42.30912" lon="13.7201233"><ele>879.0</ele><time>2026-04-04T17:37:30.031Z</time></trkpt><trkpt lat="42.309185" lon="13.72029"><ele>879.0</ele><time>2026-04-04T17:37:31.031Z</time></trkpt><trkpt lat="42.3092517" lon="13.720445"><ele>873.75</ele><time>2026-04-04T17:37:32.031Z</time></trkpt><trkpt lat="42.3093333" lon="13.7205767"><ele>868.5</ele><time>2026-04-04T17:37:33.031Z</time></trkpt><trkpt lat="42.3094283" lon="13.7207033"><ele>863.25</ele><time>2026-04-04T17:37:34.031Z</time></trkpt><trkpt lat="42.3095267" lon="13.7208133"><ele>858.0</ele><time>2026-04-04T17:37:35.03Z</time></trkpt><trkpt lat="42.3096217" lon="13.72091"><ele>858.0</ele><time>2026-04-04T17:37:36.031Z</time></trkpt><trkpt lat="42.3097267" lon="13.7210133"><ele>858.0</ele><time>2026-04-04T17:37:37.031Z</time></trkpt><trkpt lat="42.3098283" lon="13.7211083"><ele>858.0</ele><time>2026-04-04T17:37:38.031Z</time></trkpt><trkpt lat="42.3099367" lon="13.72119"><ele>858.0</ele><time>2026-04-04T17:37:39.031Z</time></trkpt><trkpt lat="42.3100533" lon="13.72126"><ele>855.5</ele><time>2026-04-04T17:37:40.031Z</time></trkpt><trkpt lat="42.3101817" lon="13.7213233"><ele>853.0</ele><time>2026-04-04T17:37:41.031Z</time></trkpt><trkpt lat="42.31029" lon="13.7214017"><ele>850.5</ele><time>2026-04-04T17:37:42.031Z</time></trkpt><trkpt lat="42.31038" lon="13.721505"><ele>848.0</ele><time>2026-04-04T17:37:43.031Z</time></trkpt><trkpt lat="42.3104667" lon="13.7216267"><ele>848.0</ele><time>2026-04-04T17:37:44.031Z</time></trkpt><trkpt lat="42.31055" lon="13.7217567"><ele>848.0</ele><time>2026-04-04T17:37:45.031Z</time></trkpt><trkpt lat="42.3106383" lon="13.721875"><ele>848.0</ele><time>2026-04-04T17:37:46.031Z</time></trkpt><trkpt lat="42.3107417" lon="13.7219683"><ele>848.0</ele><time>2026-04-04T17:37:47.031Z</time></trkpt><trkpt lat="42.3108467" lon="13.72203"><ele>846.4</ele><time>2026-04-04T17:37:48.032Z</time></trkpt><trkpt lat="42.3109567" lon="13.7220567"><ele>844.8</ele><time>2026-04-04T17:37:49.032Z</time></trkpt><trkpt lat="42.3110683" lon="13.7220667"><ele>843.2</ele><time>2026-04-04T17:37:50.032Z</time></trkpt><trkpt lat="42.3111733" lon="13.7220683"><ele>841.6</ele><time>2026-04-04T17:37:51.032Z</time></trkpt><trkpt lat="42.3112583" lon="13.722095"><ele>840.0</ele><time>2026-04-04T17:37:52.032Z</time></trkpt><trkpt lat="42.3113233" lon="13.72216"><ele>840.0</ele><time>2026-04-04T17:37:53.032Z</time></trkpt><trkpt lat="42.3113617" lon="13.7222583"><ele>840.0</ele><time>2026-04-04T17:37:54.032Z</time></trkpt><trkpt lat="42.31137" lon="13.7223733"><ele>840.0</ele><time>2026-04-04T17:37:55.032Z</time></trkpt><trkpt lat="42.311365" lon="13.722505"><ele>840.0</ele><time>2026-04-04T17:37:56.032Z</time></trkpt><trkpt lat="42.31135" lon="13.722665"><ele>840.0</ele><time>2026-04-04T17:37:57.032Z</time></trkpt><trkpt lat="42.3113383" lon="13.7228383"><ele>835.25</ele><time>2026-04-04T17:37:58.032Z</time></trkpt><trkpt lat="42.3113333" lon="13.7230133"><ele>830.5</ele><time>2026-04-04T17:37:59.032Z</time></trkpt><trkpt lat="42.31133" lon="13.72317"><ele>825.75</ele><time>2026-04-04T17:38:00.032Z</time></trkpt><trkpt lat="42.31133" lon="13.72333"><ele>821.0</ele><time>2026-04-04T17:38:01.032Z</time></trkpt><trkpt lat="42.3113517" lon="13.7234867"><ele>817.75</ele><time>2026-04-04T17:38:02.032Z</time></trkpt><trkpt lat="42.311405" lon="13.7236333"><ele>814.5</ele><time>2026-04-04T17:38:03.032Z</time></trkpt><trkpt lat="42.3114767" lon="13.7237717"><ele>811.25</ele><time>2026-04-04T17:38:04.032Z</time></trkpt><trkpt lat="42.311555" lon="13.7238983"><ele>808.0</ele><time>2026-04-04T17:38:05.031Z</time></trkpt><trkpt lat="42.3116317" lon="13.7240183"><ele>814.2</ele><time>2026-04-04T17:38:06.032Z</time></trkpt><trkpt lat="42.311705" lon="13.7241267"><ele>820.4</ele><time>2026-04-04T17:38:07.032Z</time></trkpt><trkpt lat="42.3117567" lon="13.7242467"><ele>826.6</ele><time>2026-04-04T17:38:08.032Z</time></trkpt><trkpt lat="42.3117983" lon="13.7243817"><ele>832.8000000000001</ele><time>2026-04-04T17:38:09.032Z</time></trkpt><trkpt lat="42.3118017" lon="13.7245517"><ele>839.0</ele><time>2026-04-04T17:38:10.031Z</time></trkpt><trkpt lat="42.3117767" lon="13.7247083"><ele>839.0</ele><time>2026-04-04T17:38:11.032Z</time></trkpt><trkpt lat="42.31171" lon="13.724865"><ele>839.0</ele><time>2026-04-04T17:38:12.032Z</time></trkpt><trkpt lat="42.311635" lon="13.72502"><ele>839.0</ele><time>2026-04-04T17:38:13.032Z</time></trkpt><trkpt lat="42.31156" lon="13.7251817"><ele>839.0</ele><time>2026-04-04T17:38:14.031Z</time></trkpt><trkpt lat="42.3114867" lon="13.7253417"><ele>839.25</ele><time>2026-04-04T17:38:15.032Z</time></trkpt><trkpt lat="42.3114333" lon="13.7254967"><ele>839.5</ele><time>2026-04-04T17:38:16.032Z</time></trkpt><trkpt lat="42.3113883" lon="13.725645"><ele>839.75</ele><time>2026-04-04T17:38:17.032Z</time></trkpt><trkpt lat="42.311365" lon="13.7258017"><ele>840.0</ele><time>2026-04-04T17:38:18.032Z</time></trkpt><trkpt lat="42.3113467" lon="13.7259583"><ele>837.5</ele><time>2026-04-04T17:38:19.032Z</time></trkpt><trkpt lat="42.311355" lon="13.72612"><ele>835.0</ele><time>2026-04-04T17:38:20.032Z</time></trkpt><trkpt lat="42.3113817" lon="13.7262767"><ele>832.5</ele><time>2026-04-04T17:38:21.031Z</time></trkpt><trkpt lat="42.3114317" lon="13.7264283"><ele>830.0</ele><time>2026-04-04T17:38:22.032Z</time></trkpt><trkpt lat="42.3114917" lon="13.726575"><ele>830.0</ele><time>2026-04-04T17:38:23.032Z</time></trkpt><trkpt lat="42.311555" lon="13.7267083"><ele>830.0</ele><time>2026-04-04T17:38:24.032Z</time></trkpt><trkpt lat="42.3116233" lon="13.7268333"><ele>830.0</ele><time>2026-04-04T17:38:25.032Z</time></trkpt><trkpt lat="42.31169" lon="13.726945"><ele>830.0</ele><time>2026-04-04T17:38:26.032Z</time></trkpt><trkpt lat="42.3117483" lon="13.7270267"><ele>830.0</ele><time>2026-04-04T17:38:27.032Z</time></trkpt><trkpt lat="42.31179" lon="13.7270917"><ele>827.6</ele><time>2026-04-04T17:38:28.032Z</time></trkpt><trkpt lat="42.3117917" lon="13.7272183"><ele>825.2</ele><time>2026-04-04T17:38:30.032Z</time></trkpt><trkpt lat="42.3116817" lon="13.7272217"><ele>822.8</ele><time>2026-04-04T17:38:32.032Z</time></trkpt><trkpt lat="42.311605" lon="13.72715"><ele>820.4</ele><time>2026-04-04T17:38:33.032Z</time></trkpt><trkpt lat="42.3115267" lon="13.7270567"><ele>818.0</ele><time>2026-04-04T17:38:34.032Z</time></trkpt><trkpt lat="42.3114517" lon="13.7269633"><ele>815.8</ele><time>2026-04-04T17:38:35.032Z</time></trkpt><trkpt lat="42.3113733" lon="13.7268683"><ele>813.5999999999999</ele><time>2026-04-04T17:38:36.032Z</time></trkpt><trkpt lat="42.3112983" lon="13.7267767"><ele>811.4000000000001</ele><time>2026-04-04T17:38:37.031Z</time></trkpt><trkpt lat="42.31122" lon="13.726685"><ele>809.2</ele><time>2026-04-04T17:38:38.031Z</time></trkpt><trkpt lat="42.3111417" lon="13.7265867"><ele>807.0</ele><time>2026-04-04T17:38:39.032Z</time></trkpt><trkpt lat="42.3110733" lon="13.7264717"><ele>807.0</ele><time>2026-04-04T17:38:40.032Z</time></trkpt><trkpt lat="42.311015" lon="13.7263383"><ele>807.0</ele><time>2026-04-04T17:38:41.031Z</time></trkpt><trkpt lat="42.31097" lon="13.7261867"><ele>807.0</ele><time>2026-04-04T17:38:42.032Z</time></trkpt><trkpt lat="42.31094" lon="13.726025"><ele>807.0</ele><time>2026-04-04T17:38:43.032Z</time></trkpt><trkpt lat="42.310925" lon="13.7258633"><ele>807.5</ele><time>2026-04-04T17:38:44.031Z</time></trkpt><trkpt lat="42.3109283" lon="13.7256933"><ele>808.0</ele><time>2026-04-04T17:38:45.032Z</time></trkpt><trkpt lat="42.3109533" lon="13.725535"><ele>808.5</ele><time>2026-04-04T17:38:46.032Z</time></trkpt><trkpt lat="42.3109933" lon="13.7253867"><ele>809.0</ele><time>2026-04-04T17:38:47.032Z</time></trkpt><trkpt lat="42.3110483" lon="13.7252383"><ele>807.6</ele><time>2026-04-04T17:38:48.032Z</time></trkpt><trkpt lat="42.3111083" lon="13.7251017"><ele>806.2</ele><time>2026-04-04T17:38:49.032Z</time></trkpt><trkpt lat="42.3111633" lon="13.7249917"><ele>804.8000000000001</ele><time>2026-04-04T17:38:50.032Z</time></trkpt><trkpt lat="42.31119" lon="13.7248867"><ele>803.4000000000001</ele><time>2026-04-04T17:38:51.032Z</time></trkpt><trkpt lat="42.3111833" lon="13.72479"><ele>802.0</ele><time>2026-04-04T17:38:52.032Z</time></trkpt><trkpt lat="42.3111083" lon="13.7247333"><ele>802.0</ele><time>2026-04-04T17:38:54.032Z</time></trkpt><trkpt lat="42.3110517" lon="13.7248"><ele>802.0</ele><time>2026-04-04T17:38:55.032Z</time></trkpt><trkpt lat="42.3109883" lon="13.72492"><ele>802.0</ele><time>2026-04-04T17:38:56.032Z</time></trkpt><trkpt lat="42.3109233" lon="13.72509"><ele>802.0</ele><time>2026-04-04T17:38:57.032Z</time></trkpt><trkpt lat="42.3108583" lon="13.7252533"><ele>803.75</ele><time>2026-04-04T17:38:58.031Z</time></trkpt><trkpt lat="42.3107867" lon="13.7253967"><ele>805.5</ele><time>2026-04-04T17:38:59.032Z</time></trkpt><trkpt lat="42.3107167" lon="13.7255433"><ele>807.25</ele><time>2026-04-04T17:39:00.032Z</time></trkpt><trkpt lat="42.3106667" lon="13.7256883"><ele>809.0</ele><time>2026-04-04T17:39:01.032Z</time></trkpt><trkpt lat="42.3106317" lon="13.72584"><ele>809.0</ele><time>2026-04-04T17:39:02.032Z</time></trkpt><trkpt lat="42.3105983" lon="13.7260183"><ele>809.0</ele><time>2026-04-04T17:39:03.032Z</time></trkpt><trkpt lat="42.3105783" lon="13.7261917"><ele>809.0</ele><time>2026-04-04T17:39:04.032Z</time></trkpt><trkpt lat="42.31056" lon="13.7263617"><ele>809.0</ele><time>2026-04-04T17:39:05.032Z</time></trkpt><trkpt lat="42.3105483" lon="13.7265383"><ele>806.0</ele><time>2026-04-04T17:39:06.032Z</time></trkpt><trkpt lat="42.3105517" lon="13.7267167"><ele>803.0</ele><time>2026-04-04T17:39:07.032Z</time></trkpt><trkpt lat="42.3105667" lon="13.7268867"><ele>800.0</ele><time>2026-04-04T17:39:08.032Z</time></trkpt><trkpt lat="42.3106017" lon="13.7270483"><ele>797.0</ele><time>2026-04-04T17:39:09.032Z</time></trkpt><trkpt lat="42.3106517" lon="13.7272133"><ele>797.0</ele><time>2026-04-04T17:39:10.032Z</time></trkpt><trkpt lat="42.3106967" lon="13.7273767"><ele>797.0</ele><time>2026-04-04T17:39:11.032Z</time></trkpt><trkpt lat="42.310745" lon="13.72753"><ele>797.0</ele><time>2026-04-04T17:39:12.032Z</time></trkpt><trkpt lat="42.3107917" lon="13.7276867"><ele>797.0</ele><time>2026-04-04T17:39:13.032Z</time></trkpt><trkpt lat="42.310835" lon="13.7278383"><ele>793.5</ele><time>2026-04-04T17:39:14.032Z</time></trkpt><trkpt lat="42.310875" lon="13.7279817"><ele>790.0</ele><time>2026-04-04T17:39:15.032Z</time></trkpt><trkpt lat="42.3109183" lon="13.7281283"><ele>786.5</ele><time>2026-04-04T17:39:16.032Z</time></trkpt><trkpt lat="42.3109533" lon="13.7282767"><ele>783.0</ele><time>2026-04-04T17:39:17.032Z</time></trkpt><trkpt lat="42.3110017" lon="13.7284083"><ele>783.0</ele><time>2026-04-04T17:39:18.032Z</time></trkpt><trkpt lat="42.3110567" lon="13.7285283"><ele>783.0</ele><time>2026-04-04T17:39:19.032Z</time></trkpt><trkpt lat="42.31111" lon="13.728635"><ele>783.0</ele><time>2026-04-04T17:39:20.032Z</time></trkpt><trkpt lat="42.311145" lon="13.7287233"><ele>783.0</ele><time>2026-04-04T17:39:21.032Z</time></trkpt><trkpt lat="42.3111483" lon="13.7288583"><ele>783.0</ele><time>2026-04-04T17:39:23.032Z</time></trkpt><trkpt lat="42.3110667" lon="13.7288417"><ele>783.0</ele><time>2026-04-04T17:39:25.032Z</time></trkpt><trkpt lat="42.311015" lon="13.7287783"><ele>783.0</ele><time>2026-04-04T17:39:26.031Z</time></trkpt><trkpt lat="42.3109583" lon="13.7287083"><ele>783.0</ele><time>2026-04-04T17:39:27.032Z</time></trkpt><trkpt lat="42.3109033" lon="13.7286217"><ele>783.0</ele><time>2026-04-04T17:39:28.032Z</time></trkpt><trkpt lat="42.3108533" lon="13.7285367"><ele>783.0</ele><time>2026-04-04T17:39:29.032Z</time></trkpt><trkpt lat="42.3108" lon="13.7284383"><ele>783.0</ele><time>2026-04-04T17:39:30.032Z</time></trkpt><trkpt lat="42.310745" lon="13.7283367"><ele>783.0</ele><time>2026-04-04T17:39:31.032Z</time></trkpt><trkpt lat="42.31069" lon="13.728225"><ele>783.0</ele><time>2026-04-04T17:39:32.032Z</time></trkpt><trkpt lat="42.3106283" lon="13.728105"><ele>783.0</ele><time>2026-04-04T17:39:33.032Z</time></trkpt><trkpt lat="42.3105533" lon="13.727985"><ele>783.0</ele><time>2026-04-04T17:39:34.032Z</time></trkpt><trkpt lat="42.3104817" lon="13.7278583"><ele>783.0</ele><time>2026-04-04T17:39:35.032Z</time></trkpt><trkpt lat="42.31041" lon="13.7277267"><ele>778.75</ele><time>2026-04-04T17:39:36.032Z</time></trkpt><trkpt lat="42.310335" lon="13.727595"><ele>774.5</ele><time>2026-04-04T17:39:37.032Z</time></trkpt><trkpt lat="42.310255" lon="13.7274617"><ele>770.25</ele><time>2026-04-04T17:39:38.032Z</time></trkpt><trkpt lat="42.3101767" lon="13.727325"><ele>766.0</ele><time>2026-04-04T17:39:39.032Z</time></trkpt><trkpt lat="42.3100983" lon="13.727185"><ele>766.0</ele><time>2026-04-04T17:39:40.032Z</time></trkpt><trkpt lat="42.3100267" lon="13.727035"><ele>766.0</ele><time>2026-04-04T17:39:41.032Z</time></trkpt><trkpt lat="42.309975" lon="13.7268767"><ele>766.0</ele><time>2026-04-04T17:39:42.032Z</time></trkpt><trkpt lat="42.30994" lon="13.7267117"><ele>766.0</ele><time>2026-04-04T17:39:43.032Z</time></trkpt><trkpt lat="42.3099233" lon="13.7265483"><ele>766.5</ele><time>2026-04-04T17:39:44.032Z</time></trkpt><trkpt lat="42.3099217" lon="13.7263867"><ele>767.0</ele><time>2026-04-04T17:39:45.032Z</time></trkpt><trkpt lat="42.3099283" lon="13.7262217"><ele>767.5</ele><time>2026-04-04T17:39:46.032Z</time></trkpt><trkpt lat="42.3099433" lon="13.7260667"><ele>768.0</ele><time>2026-04-04T17:39:47.032Z</time></trkpt><trkpt lat="42.3099583" lon="13.7259033"><ele>768.0</ele><time>2026-04-04T17:39:48.032Z</time></trkpt><trkpt lat="42.30998" lon="13.7257567"><ele>768.0</ele><time>2026-04-04T17:39:49.032Z</time></trkpt><trkpt lat="42.3100067" lon="13.725605"><ele>768.0</ele><time>2026-04-04T17:39:50.032Z</time></trkpt><trkpt lat="42.31003" lon="13.7254633"><ele>768.0</ele><time>2026-04-04T17:39:51.032Z</time></trkpt><trkpt lat="42.310065" lon="13.7253383"><ele>768.0</ele><time>2026-04-04T17:39:52.032Z</time></trkpt><trkpt lat="42.3100933" lon="13.7252383"><ele>768.0</ele><time>2026-04-04T17:39:53.032Z</time></trkpt><trkpt lat="42.31011" lon="13.7251367"><ele>768.0</ele><time>2026-04-04T17:39:54.032Z</time></trkpt><trkpt lat="42.3100683" lon="13.72503"><ele>768.0</ele><time>2026-04-04T17:39:56.031Z</time></trkpt><trkpt lat="42.3099767" lon="13.7251417"><ele>768.0</ele><time>2026-04-04T17:39:58.032Z</time></trkpt><trkpt lat="42.3099317" lon="13.72528"><ele>768.0</ele><time>2026-04-04T17:39:59.032Z</time></trkpt><trkpt lat="42.309895" lon="13.7254233"><ele>768.0</ele><time>2026-04-04T17:40:00.032Z</time></trkpt><trkpt lat="42.30986" lon="13.72556"><ele>768.0</ele><time>2026-04-04T17:40:01.032Z</time></trkpt><trkpt lat="42.309825" lon="13.725695"><ele>768.0</ele><time>2026-04-04T17:40:02.031Z</time></trkpt><trkpt lat="42.3097983" lon="13.725825"><ele>768.0</ele><time>2026-04-04T17:40:03.032Z</time></trkpt><trkpt lat="42.309765" lon="13.7259817"><ele>768.0</ele><time>2026-04-04T17:40:04.032Z</time></trkpt><trkpt lat="42.3097133" lon="13.726125"><ele>759.75</ele><time>2026-04-04T17:40:05.032Z</time></trkpt><trkpt lat="42.309665" lon="13.7262783"><ele>751.5</ele><time>2026-04-04T17:40:06.032Z</time></trkpt><trkpt lat="42.30962" lon="13.72643"><ele>743.25</ele><time>2026-04-04T17:40:07.032Z</time></trkpt><trkpt lat="42.3095683" lon="13.726585"><ele>735.0</ele><time>2026-04-04T17:40:08.031Z</time></trkpt><trkpt lat="42.3095283" lon="13.7267417"><ele>734.0</ele><time>2026-04-04T17:40:09.032Z</time></trkpt><trkpt lat="42.3095017" lon="13.7269067"><ele>733.0</ele><time>2026-04-04T17:40:10.032Z</time></trkpt><trkpt lat="42.3094967" lon="13.7270883"><ele>732.0</ele><time>2026-04-04T17:40:11.032Z</time></trkpt><trkpt lat="42.3095083" lon="13.7272717"><ele>731.0</ele><time>2026-04-04T17:40:12.032Z</time></trkpt><trkpt lat="42.3095317" lon="13.7274467"><ele>731.0</ele><time>2026-04-04T17:40:13.032Z</time></trkpt><trkpt lat="42.3095667" lon="13.727615"><ele>731.0</ele><time>2026-04-04T17:40:14.032Z</time></trkpt><trkpt lat="42.30961" lon="13.7277733"><ele>731.0</ele><time>2026-04-04T17:40:15.032Z</time></trkpt><trkpt lat="42.309655" lon="13.7279283"><ele>731.0</ele><time>2026-04-04T17:40:16.032Z</time></trkpt><trkpt lat="42.3097017" lon="13.728075"><ele>728.0</ele><time>2026-04-04T17:40:17.032Z</time></trkpt><trkpt lat="42.3097367" lon="13.7282183"><ele>725.0</ele><time>2026-04-04T17:40:18.032Z</time></trkpt><trkpt lat="42.30975" lon="13.7283717"><ele>722.0</ele><time>2026-04-04T17:40:19.031Z</time></trkpt><trkpt lat="42.309745" lon="13.7285333"><ele>719.0</ele><time>2026-04-04T17:40:20.032Z</time></trkpt><trkpt lat="42.309725" lon="13.728695"><ele>718.5</ele><time>2026-04-04T17:40:21.032Z</time></trkpt><trkpt lat="42.3097033" lon="13.7288583"><ele>718.0</ele><time>2026-04-04T17:40:22.032Z</time></trkpt><trkpt lat="42.309695" lon="13.7290217"><ele>717.5</ele><time>2026-04-04T17:40:23.032Z</time></trkpt><trkpt lat="42.3096883" lon="13.729185"><ele>717.0</ele><time>2026-04-04T17:40:24.032Z</time></trkpt><trkpt lat="42.3096917" lon="13.7293433"><ele>716.8</ele><time>2026-04-04T17:40:25.031Z</time></trkpt><trkpt lat="42.309725" lon="13.7294817"><ele>716.6</ele><time>2026-04-04T17:40:26.032Z</time></trkpt><trkpt lat="42.3097667" lon="13.7296167"><ele>716.4</ele><time>2026-04-04T17:40:27.032Z</time></trkpt><trkpt lat="42.3098067" lon="13.7297283"><ele>716.1999999999999</ele><time>2026-04-04T17:40:28.032Z</time></trkpt><trkpt lat="42.30983" lon="13.7298267"><ele>716.0</ele><time>2026-04-04T17:40:29.031Z</time></trkpt><trkpt lat="42.30978" lon="13.7299567"><ele>716.0</ele><time>2026-04-04T17:40:31.032Z</time></trkpt><trkpt lat="42.3096767" lon="13.7298533"><ele>716.0</ele><time>2026-04-04T17:40:33.032Z</time></trkpt><trkpt lat="42.3096183" lon="13.72972"><ele>716.0</ele><time>2026-04-04T17:40:34.032Z</time></trkpt><trkpt lat="42.3095733" lon="13.7295667"><ele>716.0</ele><time>2026-04-04T17:40:35.032Z</time></trkpt><trkpt lat="42.3095317" lon="13.729435"><ele>716.1999999999999</ele><time>2026-04-04T17:40:36.032Z</time></trkpt><trkpt lat="42.309495" lon="13.72931"><ele>716.4</ele><time>2026-04-04T17:40:37.032Z</time></trkpt><trkpt lat="42.3094683" lon="13.7291867"><ele>716.6</ele><time>2026-04-04T17:40:38.032Z</time></trkpt><trkpt lat="42.309445" lon="13.729055"><ele>716.8</ele><time>2026-04-04T17:40:39.032Z</time></trkpt><trkpt lat="42.3094317" lon="13.7289233"><ele>717.0</ele><time>2026-04-04T17:40:40.032Z</time></trkpt><trkpt lat="42.3094233" lon="13.7287833"><ele>717.0</ele><time>2026-04-04T17:40:41.032Z</time></trkpt><trkpt lat="42.3094183" lon="13.72864"><ele>717.0</ele><time>2026-04-04T17:40:42.032Z</time></trkpt><trkpt lat="42.3094033" lon="13.7285033"><ele>717.0</ele><time>2026-04-04T17:40:43.032Z</time></trkpt><trkpt lat="42.30937" lon="13.72837"><ele>717.0</ele><time>2026-04-04T17:40:44.032Z</time></trkpt><trkpt lat="42.3093167" lon="13.7282533"><ele>717.0</ele><time>2026-04-04T17:40:45.032Z</time></trkpt><trkpt lat="42.309245" lon="13.7281533"><ele>717.4000000000001</ele><time>2026-04-04T17:40:46.032Z</time></trkpt><trkpt lat="42.3091733" lon="13.7280533"><ele>717.8000000000001</ele><time>2026-04-04T17:40:47.032Z</time></trkpt><trkpt lat="42.30912" lon="13.7279317"><ele>718.2</ele><time>2026-04-04T17:40:48.032Z</time></trkpt><trkpt lat="42.30907" lon="13.7278083"><ele>718.6</ele><time>2026-04-04T17:40:49.032Z</time></trkpt><trkpt lat="42.30902" lon="13.727675"><ele>719.0</ele><time>2026-04-04T17:40:50.032Z</time></trkpt><trkpt lat="42.3089767" lon="13.72753"><ele>721.4000000000001</ele><time>2026-04-04T17:40:51.032Z</time></trkpt><trkpt lat="42.3089283" lon="13.7273883"><ele>723.8</ele><time>2026-04-04T17:40:52.032Z</time></trkpt><trkpt lat="42.30888" lon="13.7272533"><ele>726.2</ele><time>2026-04-04T17:40:53.032Z</time></trkpt><trkpt lat="42.3088383" lon="13.7271117"><ele>728.5999999999999</ele><time>2026-04-04T17:40:54.032Z</time></trkpt><trkpt lat="42.3088" lon="13.726985"><ele>731.0</ele><time>2026-04-04T17:40:55.031Z</time></trkpt><trkpt lat="42.30877" lon="13.72686"><ele>725.3333333333333</ele><time>2026-04-04T17:40:56.032Z</time></trkpt><trkpt lat="42.3087383" lon="13.7267567"><ele>719.6666666666666</ele><time>2026-04-04T17:40:57.032Z</time></trkpt><trkpt lat="42.3086883" lon="13.7266867"><ele>714.0</ele><time>2026-04-04T17:40:58.032Z</time></trkpt><trkpt lat="42.30859" lon="13.7267033"><ele>708.3333333333334</ele><time>2026-04-04T17:41:00.032Z</time></trkpt><trkpt lat="42.3085767" lon="13.72679"><ele>702.6666666666667</ele><time>2026-04-04T17:41:01.032Z</time></trkpt><trkpt lat="42.3085933" lon="13.726915"><ele>697.0</ele><time>2026-04-04T17:41:02.032Z</time></trkpt><trkpt lat="42.3086283" lon="13.7270517"><ele>696.2</ele><time>2026-04-04T17:41:03.032Z</time></trkpt><trkpt lat="42.3086633" lon="13.727185"><ele>695.4000000000001</ele><time>2026-04-04T17:41:04.032Z</time></trkpt><trkpt lat="42.3086883" lon="13.72732"><ele>694.5999999999999</ele><time>2026-04-04T17:41:05.032Z</time></trkpt><trkpt lat="42.30871" lon="13.72746"><ele>693.8</ele><time>2026-04-04T17:41:06.032Z</time></trkpt><trkpt lat="42.3087283" lon="13.7276"><ele>693.0</ele><time>2026-04-04T17:41:07.032Z</time></trkpt><trkpt lat="42.3087467" lon="13.7277467"><ele>691.4</ele><time>2026-04-04T17:41:08.032Z</time></trkpt><trkpt lat="42.3087617" lon="13.7278933"><ele>689.8</ele><time>2026-04-04T17:41:09.032Z</time></trkpt><trkpt lat="42.3087833" lon="13.7280433"><ele>688.2</ele><time>2026-04-04T17:41:10.032Z</time></trkpt><trkpt lat="42.3088067" lon="13.7281883"><ele>686.6</ele><time>2026-04-04T17:41:11.032Z</time></trkpt><trkpt lat="42.30884" lon="13.72832"><ele>685.0</ele><time>2026-04-04T17:41:12.031Z</time></trkpt><trkpt lat="42.30888" lon="13.72845"><ele>684.8</ele><time>2026-04-04T17:41:13.032Z</time></trkpt><trkpt lat="42.3089117" lon="13.7285733"><ele>684.6</ele><time>2026-04-04T17:41:14.032Z</time></trkpt><trkpt lat="42.308925" lon="13.7287033"><ele>684.4000000000001</ele><time>2026-04-04T17:41:15.032Z</time></trkpt><trkpt lat="42.3089083" lon="13.728835"><ele>684.2</ele><time>2026-04-04T17:41:16.032Z</time></trkpt><trkpt lat="42.3088567" lon="13.7289667"><ele>684.0</ele><time>2026-04-04T17:41:17.032Z</time></trkpt><trkpt lat="42.308795" lon="13.7291017"><ele>684.0</ele><time>2026-04-04T17:41:18.032Z</time></trkpt><trkpt lat="42.30873" lon="13.72922"><ele>684.0</ele><time>2026-04-04T17:41:19.032Z</time></trkpt><trkpt lat="42.3086717" lon="13.729335"><ele>684.0</ele><time>2026-04-04T17:41:20.031Z</time></trkpt><trkpt lat="42.3086183" lon="13.7294483"><ele>684.0</ele><time>2026-04-04T17:41:21.032Z</time></trkpt><trkpt lat="42.3085667" lon="13.7295667"><ele>684.0</ele><time>2026-04-04T17:41:22.032Z</time></trkpt><trkpt lat="42.30851" lon="13.7296917"><ele>683.8000000000001</ele><time>2026-04-04T17:41:23.032Z</time></trkpt><trkpt lat="42.3084517" lon="13.729825"><ele>683.6</ele><time>2026-04-04T17:41:24.031Z</time></trkpt><trkpt lat="42.3084017" lon="13.72995"><ele>683.4</ele><time>2026-04-04T17:41:25.032Z</time></trkpt><trkpt lat="42.30835" lon="13.73008"><ele>683.2</ele><time>2026-04-04T17:41:26.032Z</time></trkpt><trkpt lat="42.3083133" lon="13.730205"><ele>683.0</ele><time>2026-04-04T17:41:27.032Z</time></trkpt><trkpt lat="42.308295" lon="13.7303517"><ele>683.0</ele><time>2026-04-04T17:41:28.032Z</time></trkpt><trkpt lat="42.308295" lon="13.7305067"><ele>683.0</ele><time>2026-04-04T17:41:29.032Z</time></trkpt><trkpt lat="42.3083133" lon="13.73065"><ele>683.0</ele><time>2026-04-04T17:41:30.032Z</time></trkpt><trkpt lat="42.30835" lon="13.7307767"><ele>683.0</ele><time>2026-04-04T17:41:31.032Z</time></trkpt><trkpt lat="42.3084083" lon="13.7308933"><ele>683.0</ele><time>2026-04-04T17:41:32.032Z</time></trkpt><trkpt lat="42.3084883" lon="13.7309983"><ele>680.25</ele><time>2026-04-04T17:41:33.032Z</time></trkpt><trkpt lat="42.308585" lon="13.7310917"><ele>677.5</ele><time>2026-04-04T17:41:34.032Z</time></trkpt><trkpt lat="42.3086983" lon="13.7311683"><ele>674.75</ele><time>2026-04-04T17:41:35.032Z</time></trkpt><trkpt lat="42.3088267" lon="13.7312317"><ele>672.0</ele><time>2026-04-04T17:41:36.032Z</time></trkpt><trkpt lat="42.308955" lon="13.7312783"><ele>672.0</ele><time>2026-04-04T17:41:37.032Z</time></trkpt><trkpt lat="42.30909" lon="13.7313117"><ele>672.0</ele><time>2026-04-04T17:41:38.032Z</time></trkpt><trkpt lat="42.3092233" lon="13.73134"><ele>672.0</ele><time>2026-04-04T17:41:39.032Z</time></trkpt><trkpt lat="42.30935" lon="13.73137"><ele>672.0</ele><time>2026-04-04T17:41:40.032Z</time></trkpt><trkpt lat="42.309475" lon="13.7313967"><ele>672.0</ele><time>2026-04-04T17:41:41.032Z</time></trkpt><trkpt lat="42.3095917" lon="13.731415"><ele>672.0</ele><time>2026-04-04T17:41:42.032Z</time></trkpt><trkpt lat="42.3096917" lon="13.7314283"><ele>672.0</ele><time>2026-04-04T17:41:43.032Z</time></trkpt><trkpt lat="42.3097833" lon="13.7314367"><ele>672.0</ele><time>2026-04-04T17:41:44.032Z</time></trkpt><trkpt lat="42.3098617" lon="13.7314367"><ele>672.0</ele><time>2026-04-04T17:41:45.032Z</time></trkpt><trkpt lat="42.3099283" lon="13.7314417"><ele>672.8</ele><time>2026-04-04T17:41:46.032Z</time></trkpt><trkpt lat="42.3100217" lon="13.7314583"><ele>673.6</ele><time>2026-04-04T17:41:48.032Z</time></trkpt><trkpt lat="42.3100617" lon="13.7315433"><ele>674.4</ele><time>2026-04-04T17:41:50.032Z</time></trkpt><trkpt lat="42.3099733" lon="13.7316183"><ele>675.1999999999999</ele><time>2026-04-04T17:41:52.032Z</time></trkpt><trkpt lat="42.3098917" lon="13.7316233"><ele>676.0</ele><time>2026-04-04T17:41:53.032Z</time></trkpt><trkpt lat="42.3097883" lon="13.7316117"><ele>675.0</ele><time>2026-04-04T17:41:54.032Z</time></trkpt><trkpt lat="42.3096717" lon="13.7316"><ele>674.0</ele><time>2026-04-04T17:41:55.032Z</time></trkpt><trkpt lat="42.3095433" lon="13.7315933"><ele>673.0</ele><time>2026-04-04T17:41:56.032Z</time></trkpt><trkpt lat="42.3094167" lon="13.7315967"><ele>672.0</ele><time>2026-04-04T17:41:57.032Z</time></trkpt><trkpt lat="42.309285" lon="13.7316083"><ele>672.0</ele><time>2026-04-04T17:41:58.032Z</time></trkpt><trkpt lat="42.309145" lon="13.73162"><ele>672.0</ele><time>2026-04-04T17:41:59.032Z</time></trkpt><trkpt lat="42.3090117" lon="13.7316383"><ele>672.0</ele><time>2026-04-04T17:42:00.032Z</time></trkpt><trkpt lat="42.30887" lon="13.7316483"><ele>672.0</ele><time>2026-04-04T17:42:01.032Z</time></trkpt><trkpt lat="42.3087233" lon="13.7316533"><ele>669.75</ele><time>2026-04-04T17:42:02.032Z</time></trkpt><trkpt lat="42.308575" lon="13.7316467"><ele>667.5</ele><time>2026-04-04T17:42:03.032Z</time></trkpt><trkpt lat="42.3084383" lon="13.7316183"><ele>665.25</ele><time>2026-04-04T17:42:04.032Z</time></trkpt><trkpt lat="42.308305" lon="13.7315717"><ele>663.0</ele><time>2026-04-04T17:42:05.032Z</time></trkpt><trkpt lat="42.3081667" lon="13.7315083"><ele>658.25</ele><time>2026-04-04T17:42:06.032Z</time></trkpt><trkpt lat="42.308035" lon="13.7314233"><ele>653.5</ele><time>2026-04-04T17:42:07.032Z</time></trkpt><trkpt lat="42.3079017" lon="13.731325"><ele>648.75</ele><time>2026-04-04T17:42:08.032Z</time></trkpt><trkpt lat="42.3077767" lon="13.73122"><ele>644.0</ele><time>2026-04-04T17:42:09.032Z</time></trkpt><trkpt lat="42.307655" lon="13.7311"><ele>643.25</ele><time>2026-04-04T17:42:10.032Z</time></trkpt><trkpt lat="42.3075367" lon="13.7309867"><ele>642.5</ele><time>2026-04-04T17:42:11.032Z</time></trkpt><trkpt lat="42.30742" lon="13.7308667"><ele>641.75</ele><time>2026-04-04T17:42:12.032Z</time></trkpt><trkpt lat="42.3073117" lon="13.7307517"><ele>641.0</ele><time>2026-04-04T17:42:13.032Z</time></trkpt><trkpt lat="42.3072033" lon="13.7306367"><ele>641.0</ele><time>2026-04-04T17:42:14.032Z</time></trkpt><trkpt lat="42.3071017" lon="13.7305233"><ele>641.0</ele><time>2026-04-04T17:42:15.032Z</time></trkpt><trkpt lat="42.3070033" lon="13.7304233"><ele>641.0</ele><time>2026-04-04T17:42:16.031Z</time></trkpt><trkpt lat="42.3069117" lon="13.7303267"><ele>641.0</ele><time>2026-04-04T17:42:17.032Z</time></trkpt><trkpt lat="42.30683" lon="13.7302367"><ele>642.5999999999999</ele><time>2026-04-04T17:42:18.032Z</time></trkpt><trkpt lat="42.306755" lon="13.7301533"><ele>644.2</ele><time>2026-04-04T17:42:19.032Z</time></trkpt><trkpt lat="42.30668" lon="13.7300717"><ele>645.8</ele><time>2026-04-04T17:42:20.032Z</time></trkpt><trkpt lat="42.3066" lon="13.7300067"><ele>647.4000000000001</ele><time>2026-04-04T17:42:21.032Z</time></trkpt><trkpt lat="42.30651" lon="13.7299617"><ele>649.0</ele><time>2026-04-04T17:42:22.032Z</time></trkpt><trkpt lat="42.3064167" lon="13.7299383"><ele>647.3333333333334</ele><time>2026-04-04T17:42:23.032Z</time></trkpt><trkpt lat="42.3063267" lon="13.72993"><ele>645.6666666666667</ele><time>2026-04-04T17:42:24.032Z</time></trkpt><trkpt lat="42.3062417" lon="13.729935"><ele>644.0</ele><time>2026-04-04T17:42:25.032Z</time></trkpt><trkpt lat="42.3061683" lon="13.7299783"><ele>642.3333333333334</ele><time>2026-04-04T17:42:26.032Z</time></trkpt><trkpt lat="42.3061167" lon="13.73005"><ele>640.6666666666666</ele><time>2026-04-04T17:42:27.032Z</time></trkpt><trkpt lat="42.3060917" lon="13.7301433"><ele>639.0</ele><time>2026-04-04T17:42:28.032Z</time></trkpt><trkpt lat="42.3061067" lon="13.73025"><ele>639.5</ele><time>2026-04-04T17:42:29.032Z</time></trkpt><trkpt lat="42.3061683" lon="13.7303483"><ele>640.0</ele><time>2026-04-04T17:42:30.031Z</time></trkpt><trkpt lat="42.3062533" lon="13.73044"><ele>640.5</ele><time>2026-04-04T17:42:31.032Z</time></trkpt><trkpt lat="42.3063633" lon="13.7305383"><ele>641.0</ele><time>2026-04-04T17:42:32.032Z</time></trkpt><trkpt lat="42.3064733" lon="13.7306483"><ele>641.0</ele><time>2026-04-04T17:42:33.032Z</time></trkpt><trkpt lat="42.3065883" lon="13.7307717"><ele>641.0</ele><time>2026-04-04T17:42:34.032Z</time></trkpt><trkpt lat="42.3067" lon="13.7309033"><ele>641.0</ele><time>2026-04-04T17:42:35.032Z</time></trkpt><trkpt lat="42.3068067" lon="13.7310333"><ele>641.0</ele><time>2026-04-04T17:42:36.032Z</time></trkpt><trkpt lat="42.3069117" lon="13.7311517"><ele>641.75</ele><time>2026-04-04T17:42:37.032Z</time></trkpt><trkpt lat="42.3070083" lon="13.7312817"><ele>642.5</ele><time>2026-04-04T17:42:38.032Z</time></trkpt><trkpt lat="42.3071033" lon="13.7314317"><ele>643.25</ele><time>2026-04-04T17:42:39.032Z</time></trkpt><trkpt lat="42.3071933" lon="13.7315783"><ele>644.0</ele><time>2026-04-04T17:42:40.032Z</time></trkpt><trkpt lat="42.3072817" lon="13.73172"><ele>644.0</ele><time>2026-04-04T17:42:41.032Z</time></trkpt><trkpt lat="42.30737" lon="13.7318567"><ele>644.0</ele><time>2026-04-04T17:42:42.032Z</time></trkpt><trkpt lat="42.3074633" lon="13.7319967"><ele>644.0</ele><time>2026-04-04T17:42:43.032Z</time></trkpt><trkpt lat="42.30756" lon="13.73213"><ele>644.0</ele><time>2026-04-04T17:42:44.032Z</time></trkpt><trkpt lat="42.3076583" lon="13.7322567"><ele>642.25</ele><time>2026-04-04T17:42:45.032Z</time></trkpt><trkpt lat="42.30776" lon="13.7323783"><ele>640.5</ele><time>2026-04-04T17:42:46.032Z</time></trkpt><trkpt lat="42.3078617" lon="13.7324867"><ele>638.75</ele><time>2026-04-04T17:42:47.032Z</time></trkpt><trkpt lat="42.307965" lon="13.73258"><ele>637.0</ele><time>2026-04-04T17:42:48.032Z</time></trkpt><trkpt lat="42.3080783" lon="13.732645"><ele>637.0</ele><time>2026-04-04T17:42:49.032Z</time></trkpt><trkpt lat="42.3081983" lon="13.732685"><ele>637.0</ele><time>2026-04-04T17:42:50.032Z</time></trkpt><trkpt lat="42.3083283" lon="13.7327"><ele>637.0</ele><time>2026-04-04T17:42:51.032Z</time></trkpt><trkpt lat="42.3084583" lon="13.7327017"><ele>637.0</ele><time>2026-04-04T17:42:52.032Z</time></trkpt><trkpt lat="42.30858" lon="13.7327017"><ele>637.0</ele><time>2026-04-04T17:42:53.031Z</time></trkpt><trkpt lat="42.3086933" lon="13.7327083"><ele>637.0</ele><time>2026-04-04T17:42:54.032Z</time></trkpt><trkpt lat="42.308795" lon="13.7327183"><ele>637.0</ele><time>2026-04-04T17:42:55.032Z</time></trkpt><trkpt lat="42.3088817" lon="13.73273"><ele>637.0</ele><time>2026-04-04T17:42:56.032Z</time></trkpt><trkpt lat="42.3089567" lon="13.7327467"><ele>637.0</ele><time>2026-04-04T17:42:57.032Z</time></trkpt><trkpt lat="42.3090233" lon="13.7327767"><ele>637.0</ele><time>2026-04-04T17:42:58.032Z</time></trkpt><trkpt lat="42.30908" lon="13.7328183"><ele>637.2</ele><time>2026-04-04T17:42:59.032Z</time></trkpt><trkpt lat="42.3091267" lon="13.7328817"><ele>637.4000000000001</ele><time>2026-04-04T17:43:00.032Z</time></trkpt><trkpt lat="42.309115" lon="13.7330383"><ele>637.5999999999999</ele><time>2026-04-04T17:43:02.032Z</time></trkpt><trkpt lat="42.3089833" lon="13.7330667"><ele>637.8</ele><time>2026-04-04T17:43:04.032Z</time></trkpt><trkpt lat="42.3088867" lon="13.73302"><ele>638.0</ele><time>2026-04-04T17:43:05.032Z</time></trkpt><trkpt lat="42.308765" lon="13.7329533"><ele>631.3333333333333</ele><time>2026-04-04T17:43:06.032Z</time></trkpt><trkpt lat="42.3086283" lon="13.7329067"><ele>624.6666666666666</ele><time>2026-04-04T17:43:07.032Z</time></trkpt><trkpt lat="42.3084733" lon="13.7328883"><ele>618.0</ele><time>2026-04-04T17:43:08.032Z</time></trkpt><trkpt lat="42.30832" lon="13.73291"><ele>618.0</ele><time>2026-04-04T17:43:09.032Z</time></trkpt><trkpt lat="42.308175" lon="13.73295"><ele>618.0</ele><time>2026-04-04T17:43:10.032Z</time></trkpt><trkpt lat="42.30804" lon="13.733"><ele>618.0</ele><time>2026-04-04T17:43:11.032Z</time></trkpt><trkpt lat="42.3079083" lon="13.7330233"><ele>618.0</ele><time>2026-04-04T17:43:12.032Z</time></trkpt><trkpt lat="42.3077933" lon="13.73302"><ele>615.25</ele><time>2026-04-04T17:43:13.031Z</time></trkpt><trkpt lat="42.3076833" lon="13.733"><ele>612.5</ele><time>2026-04-04T17:43:14.032Z</time></trkpt><trkpt lat="42.3075817" lon="13.7329683"><ele>609.75</ele><time>2026-04-04T17:43:15.032Z</time></trkpt><trkpt lat="42.307485" lon="13.732905"><ele>607.0</ele><time>2026-04-04T17:43:16.032Z</time></trkpt><trkpt lat="42.3073767" lon="13.7328083"><ele>606.75</ele><time>2026-04-04T17:43:17.032Z</time></trkpt><trkpt lat="42.3072483" lon="13.7327067"><ele>606.5</ele><time>2026-04-04T17:43:18.032Z</time></trkpt><trkpt lat="42.3071183" lon="13.7326133"><ele>606.25</ele><time>2026-04-04T17:43:19.032Z</time></trkpt><trkpt lat="42.3069967" lon="13.7325233"><ele>606.0</ele><time>2026-04-04T17:43:20.032Z</time></trkpt><trkpt lat="42.3068817" lon="13.7324367"><ele>606.0</ele><time>2026-04-04T17:43:21.032Z</time></trkpt><trkpt lat="42.3067717" lon="13.73235"><ele>606.0</ele><time>2026-04-04T17:43:22.032Z</time></trkpt><trkpt lat="42.3066567" lon="13.7322667"><ele>606.0</ele><time>2026-04-04T17:43:23.032Z</time></trkpt><trkpt lat="42.3065417" lon="13.7321883"><ele>606.0</ele><time>2026-04-04T17:43:24.032Z</time></trkpt><trkpt lat="42.3064067" lon="13.7321067"><ele>606.3333333333334</ele><time>2026-04-04T17:43:25.032Z</time></trkpt><trkpt lat="42.3062667" lon="13.732025"><ele>606.6666666666667</ele><time>2026-04-04T17:43:26.032Z</time></trkpt><trkpt lat="42.306125" lon="13.73195"><ele>607.0</ele><time>2026-04-04T17:43:27.032Z</time></trkpt><trkpt lat="42.3059683" lon="13.73189"><ele>607.0</ele><time>2026-04-04T17:43:28.032Z</time></trkpt><trkpt lat="42.3057983" lon="13.7318283"><ele>607.0</ele><time>2026-04-04T17:43:29.032Z</time></trkpt><trkpt lat="42.3056333" lon="13.731775"><ele>607.0</ele><time>2026-04-04T17:43:30.032Z</time></trkpt><trkpt lat="42.3054667" lon="13.731715"><ele>601.6666666666667</ele><time>2026-04-04T17:43:31.033Z</time></trkpt><trkpt lat="42.3053033" lon="13.731655"><ele>596.3333333333334</ele><time>2026-04-04T17:43:32.033Z</time></trkpt><trkpt lat="42.3051483" lon="13.731585"><ele>591.0</ele><time>2026-04-04T17:43:33.033Z</time></trkpt><trkpt lat="42.304995" lon="13.7315117"><ele>591.0</ele><time>2026-04-04T17:43:34.032Z</time></trkpt><trkpt lat="42.304845" lon="13.731435"><ele>591.0</ele><time>2026-04-04T17:43:35.033Z</time></trkpt><trkpt lat="42.3046967" lon="13.7313717"><ele>591.0</ele><time>2026-04-04T17:43:36.033Z</time></trkpt><trkpt lat="42.30455" lon="13.731315"><ele>586.25</ele><time>2026-04-04T17:43:37.033Z</time></trkpt><trkpt lat="42.30441" lon="13.7312583"><ele>581.5</ele><time>2026-04-04T17:43:38.033Z</time></trkpt><trkpt lat="42.3042733" lon="13.7312083"><ele>576.75</ele><time>2026-04-04T17:43:39.033Z</time></trkpt><trkpt lat="42.30415" lon="13.73115"><ele>572.0</ele><time>2026-04-04T17:43:40.032Z</time></trkpt><trkpt lat="42.3040333" lon="13.73109"><ele>570.2</ele><time>2026-04-04T17:43:41.032Z</time></trkpt><trkpt lat="42.30392" lon="13.7310317"><ele>568.4000000000001</ele><time>2026-04-04T17:43:42.033Z</time></trkpt><trkpt lat="42.3038283" lon="13.7309533"><ele>566.5999999999999</ele><time>2026-04-04T17:43:43.033Z</time></trkpt><trkpt lat="42.3037667" lon="13.7308483"><ele>564.8</ele><time>2026-04-04T17:43:44.033Z</time></trkpt><trkpt lat="42.3037367" lon="13.7307267"><ele>563.0</ele><time>2026-04-04T17:43:45.033Z</time></trkpt><trkpt lat="42.303735" lon="13.730595"><ele>563.0</ele><time>2026-04-04T17:43:46.033Z</time></trkpt><trkpt lat="42.3037517" lon="13.7304533"><ele>563.0</ele><time>2026-04-04T17:43:47.033Z</time></trkpt><trkpt lat="42.3037817" lon="13.7302867"><ele>563.0</ele><time>2026-04-04T17:43:48.032Z</time></trkpt><trkpt lat="42.30382" lon="13.7301133"><ele>563.0</ele><time>2026-04-04T17:43:49.033Z</time></trkpt><trkpt lat="42.3038667" lon="13.7299433"><ele>566.5</ele><time>2026-04-04T17:43:50.033Z</time></trkpt><trkpt lat="42.3039183" lon="13.7297783"><ele>570.0</ele><time>2026-04-04T17:43:51.033Z</time></trkpt><trkpt lat="42.303965" lon="13.7296233"><ele>573.5</ele><time>2026-04-04T17:43:52.033Z</time></trkpt><trkpt lat="42.3040017" lon="13.7294917"><ele>577.0</ele><time>2026-04-04T17:43:53.033Z</time></trkpt><trkpt lat="42.3040367" lon="13.72937"><ele>577.0</ele><time>2026-04-04T17:43:54.033Z</time></trkpt><trkpt lat="42.30407" lon="13.72927"><ele>577.0</ele><time>2026-04-04T17:43:55.033Z</time></trkpt><trkpt lat="42.3040983" lon="13.729185"><ele>577.0</ele><time>2026-04-04T17:43:56.033Z</time></trkpt><trkpt lat="42.30414" lon="13.729055"><ele>577.0</ele><time>2026-04-04T17:43:58.033Z</time></trkpt><trkpt lat="42.30413" lon="13.7289217"><ele>577.0</ele><time>2026-04-04T17:44:00.033Z</time></trkpt><trkpt lat="42.3040583" lon="13.728865"><ele>577.0</ele><time>2026-04-04T17:44:02.033Z</time></trkpt><trkpt lat="42.3039667" lon="13.7289783"><ele>577.0</ele><time>2026-04-04T17:44:04.033Z</time></trkpt><trkpt lat="42.303925" lon="13.7290817"><ele>577.0</ele><time>2026-04-04T17:44:05.033Z</time></trkpt><trkpt lat="42.3038917" lon="13.7292083"><ele>577.0</ele><time>2026-04-04T17:44:06.033Z</time></trkpt><trkpt lat="42.30385" lon="13.7293383"><ele>577.0</ele><time>2026-04-04T17:44:07.033Z</time></trkpt><trkpt lat="42.3038067" lon="13.72946"><ele>577.0</ele><time>2026-04-04T17:44:08.033Z</time></trkpt><trkpt lat="42.3037533" lon="13.7295767"><ele>572.8000000000001</ele><time>2026-04-04T17:44:09.033Z</time></trkpt><trkpt lat="42.3037" lon="13.7296917"><ele>568.6</ele><time>2026-04-04T17:44:10.033Z</time></trkpt><trkpt lat="42.3036417" lon="13.7298117"><ele>564.4000000000001</ele><time>2026-04-04T17:44:11.033Z</time></trkpt><trkpt lat="42.3035817" lon="13.7299317"><ele>560.2</ele><time>2026-04-04T17:44:12.033Z</time></trkpt><trkpt lat="42.3035267" lon="13.7300533"><ele>556.0</ele><time>2026-04-04T17:44:13.033Z</time></trkpt><trkpt lat="42.3034683" lon="13.7301767"><ele>557.4</ele><time>2026-04-04T17:44:14.033Z</time></trkpt><trkpt lat="42.30341" lon="13.7302967"><ele>558.8</ele><time>2026-04-04T17:44:15.033Z</time></trkpt><trkpt lat="42.3033567" lon="13.7304217"><ele>560.1999999999999</ele><time>2026-04-04T17:44:16.033Z</time></trkpt><trkpt lat="42.3033017" lon="13.73055"><ele>561.6</ele><time>2026-04-04T17:44:17.033Z</time></trkpt><trkpt lat="42.3032467" lon="13.7306733"><ele>563.0</ele><time>2026-04-04T17:44:18.033Z</time></trkpt><trkpt lat="42.3031933" lon="13.7307917"><ele>563.0</ele><time>2026-04-04T17:44:19.033Z</time></trkpt><trkpt lat="42.303155" lon="13.7309"><ele>563.0</ele><time>2026-04-04T17:44:20.033Z</time></trkpt><trkpt lat="42.303125" lon="13.731005"><ele>563.0</ele><time>2026-04-04T17:44:21.033Z</time></trkpt><trkpt lat="42.3031017" lon="13.73112"><ele>563.0</ele><time>2026-04-04T17:44:22.033Z</time></trkpt><trkpt lat="42.3031017" lon="13.73125"><ele>563.0</ele><time>2026-04-04T17:44:23.033Z</time></trkpt><trkpt lat="42.303115" lon="13.7313783"><ele>561.4</ele><time>2026-04-04T17:44:24.033Z</time></trkpt><trkpt lat="42.3031417" lon="13.7315033"><ele>559.8</ele><time>2026-04-04T17:44:25.033Z</time></trkpt><trkpt lat="42.30318" lon="13.731615"><ele>558.2</ele><time>2026-04-04T17:44:26.033Z</time></trkpt><trkpt lat="42.3032267" lon="13.7317217"><ele>556.6</ele><time>2026-04-04T17:44:27.033Z</time></trkpt><trkpt lat="42.303285" lon="13.7318217"><ele>555.0</ele><time>2026-04-04T17:44:28.033Z</time></trkpt><trkpt lat="42.303355" lon="13.73191"><ele>551.4</ele><time>2026-04-04T17:44:29.033Z</time></trkpt><trkpt lat="42.3034317" lon="13.7319867"><ele>547.8</ele><time>2026-04-04T17:44:30.033Z</time></trkpt><trkpt lat="42.3035117" lon="13.7320683"><ele>544.2</ele><time>2026-04-04T17:44:31.032Z</time></trkpt><trkpt lat="42.303595" lon="13.73215"><ele>540.6</ele><time>2026-04-04T17:44:32.033Z</time></trkpt><trkpt lat="42.3036833" lon="13.7322333"><ele>537.0</ele><time>2026-04-04T17:44:33.033Z</time></trkpt><trkpt lat="42.3037633" lon="13.73231"><ele>537.0</ele><time>2026-04-04T17:44:34.033Z</time></trkpt><trkpt lat="42.30384" lon="13.73238"><ele>537.0</ele><time>2026-04-04T17:44:35.033Z</time></trkpt><trkpt lat="42.3039167" lon="13.7324433"><ele>537.0</ele><time>2026-04-04T17:44:36.033Z</time></trkpt><trkpt lat="42.3039833" lon="13.7325017"><ele>537.0</ele><time>2026-04-04T17:44:37.033Z</time></trkpt><trkpt lat="42.3040517" lon="13.7325633"><ele>537.0</ele><time>2026-04-04T17:44:38.033Z</time></trkpt><trkpt lat="42.3041183" lon="13.7326317"><ele>537.0</ele><time>2026-04-04T17:44:39.033Z</time></trkpt><trkpt lat="42.3041717" lon="13.7327083"><ele>537.4</ele><time>2026-04-04T17:44:40.033Z</time></trkpt><trkpt lat="42.3042217" lon="13.7327983"><ele>537.8000000000001</ele><time>2026-04-04T17:44:41.033Z</time></trkpt><trkpt lat="42.30426" lon="13.7328983"><ele>538.2</ele><time>2026-04-04T17:44:42.033Z</time></trkpt><trkpt lat="42.30429" lon="13.73301"><ele>538.6</ele><time>2026-04-04T17:44:43.033Z</time></trkpt><trkpt lat="42.3043267" lon="13.7331333"><ele>539.0</ele><time>2026-04-04T17:44:44.033Z</time></trkpt><trkpt lat="42.304365" lon="13.7332783"><ele>539.0</ele><time>2026-04-04T17:44:45.033Z</time></trkpt><trkpt lat="42.304395" lon="13.73343"><ele>539.0</ele><time>2026-04-04T17:44:46.033Z</time></trkpt><trkpt lat="42.30442" lon="13.7335733"><ele>539.0</ele><time>2026-04-04T17:44:47.033Z</time></trkpt><trkpt lat="42.3044367" lon="13.7337033"><ele>539.0</ele><time>2026-04-04T17:44:48.033Z</time></trkpt><trkpt lat="42.30446" lon="13.733845"><ele>539.0</ele><time>2026-04-04T17:44:49.033Z</time></trkpt><trkpt lat="42.3044917" lon="13.7340067"><ele>538.25</ele><time>2026-04-04T17:44:50.033Z</time></trkpt><trkpt lat="42.3045367" lon="13.73418"><ele>537.5</ele><time>2026-04-04T17:44:51.033Z</time></trkpt><trkpt lat="42.304575" lon="13.734355"><ele>536.75</ele><time>2026-04-04T17:44:52.033Z</time></trkpt><trkpt lat="42.3046083" lon="13.734505"><ele>536.0</ele><time>2026-04-04T17:44:53.033Z</time></trkpt><trkpt lat="42.30464" lon="13.73463"><ele>535.3333333333333</ele><time>2026-04-04T17:44:54.033Z</time></trkpt><trkpt lat="42.3046683" lon="13.73473"><ele>534.6666666666666</ele><time>2026-04-04T17:44:55.033Z</time></trkpt><trkpt lat="42.3046817" lon="13.7348167"><ele>534.0</ele><time>2026-04-04T17:44:56.033Z</time></trkpt><trkpt lat="42.30465" lon="13.7349283"><ele>533.3333333333334</ele><time>2026-04-04T17:44:58.033Z</time></trkpt><trkpt lat="42.3045467" lon="13.7349033"><ele>532.6666666666667</ele><time>2026-04-04T17:45:00.033Z</time></trkpt><trkpt lat="42.3044817" lon="13.734805"><ele>532.0</ele><time>2026-04-04T17:45:01.033Z</time></trkpt><trkpt lat="42.3044033" lon="13.734665"><ele>532.0</ele><time>2026-04-04T17:45:02.033Z</time></trkpt><trkpt lat="42.3043117" lon="13.7345167"><ele>532.0</ele><time>2026-04-04T17:45:03.033Z</time></trkpt><trkpt lat="42.3041983" lon="13.7343533"><ele>532.0</ele><time>2026-04-04T17:45:04.033Z</time></trkpt><trkpt lat="42.3040983" lon="13.7341917"><ele>533.3333333333334</ele><time>2026-04-04T17:45:05.033Z</time></trkpt><trkpt lat="42.304005" lon="13.734025"><ele>534.6666666666666</ele><time>2026-04-04T17:45:06.033Z</time></trkpt><trkpt lat="42.3039033" lon="13.7338517"><ele>536.0</ele><time>2026-04-04T17:45:07.033Z</time></trkpt><trkpt lat="42.3038083" lon="13.73368"><ele>533.0</ele><time>2026-04-04T17:45:08.033Z</time></trkpt><trkpt lat="42.3037183" lon="13.7335117"><ele>530.0</ele><time>2026-04-04T17:45:09.033Z</time></trkpt><trkpt lat="42.3036383" lon="13.73335"><ele>527.0</ele><time>2026-04-04T17:45:10.033Z</time></trkpt><trkpt lat="42.3035617" lon="13.7332017"><ele>524.0</ele><time>2026-04-04T17:45:11.033Z</time></trkpt><trkpt lat="42.3034667" lon="13.7330817"><ele>524.0</ele><time>2026-04-04T17:45:12.033Z</time></trkpt><trkpt lat="42.3033467" lon="13.733"><ele>524.0</ele><time>2026-04-04T17:45:13.033Z</time></trkpt><trkpt lat="42.3031967" lon="13.7329467"><ele>524.0</ele><time>2026-04-04T17:45:14.033Z</time></trkpt><trkpt lat="42.303045" lon="13.7329033"><ele>524.0</ele><time>2026-04-04T17:45:15.033Z</time></trkpt><trkpt lat="42.3029017" lon="13.7328467"><ele>523.0</ele><time>2026-04-04T17:45:16.033Z</time></trkpt><trkpt lat="42.302765" lon="13.7327733"><ele>522.0</ele><time>2026-04-04T17:45:17.033Z</time></trkpt><trkpt lat="42.3026383" lon="13.7326867"><ele>521.0</ele><time>2026-04-04T17:45:18.033Z</time></trkpt><trkpt lat="42.3025217" lon="13.732585"><ele>520.0</ele><time>2026-04-04T17:45:19.033Z</time></trkpt><trkpt lat="42.3024183" lon="13.7324517"><ele>520.0</ele><time>2026-04-04T17:45:20.033Z</time></trkpt><trkpt lat="42.3023217" lon="13.7323083"><ele>520.0</ele><time>2026-04-04T17:45:21.033Z</time></trkpt><trkpt lat="42.3022233" lon="13.73215"><ele>520.0</ele><time>2026-04-04T17:45:22.033Z</time></trkpt><trkpt lat="42.30213" lon="13.732"><ele>520.0</ele><time>2026-04-04T17:45:23.032Z</time></trkpt><trkpt lat="42.30205" lon="13.7318633"><ele>515.25</ele><time>2026-04-04T17:45:24.033Z</time></trkpt><trkpt lat="42.3019933" lon="13.7317283"><ele>510.5</ele><time>2026-04-04T17:45:25.032Z</time></trkpt><trkpt lat="42.3019533" lon="13.7315767"><ele>505.75</ele><time>2026-04-04T17:45:26.033Z</time></trkpt><trkpt lat="42.3019317" lon="13.7314133"><ele>501.0</ele><time>2026-04-04T17:45:27.033Z</time></trkpt><trkpt lat="42.301925" lon="13.7312517"><ele>501.0</ele><time>2026-04-04T17:45:28.033Z</time></trkpt><trkpt lat="42.30192" lon="13.7311017"><ele>501.0</ele><time>2026-04-04T17:45:29.033Z</time></trkpt><trkpt lat="42.3019233" lon="13.7309717"><ele>501.0</ele><time>2026-04-04T17:45:30.032Z</time></trkpt><trkpt lat="42.3019267" lon="13.7308483"><ele>501.0</ele><time>2026-04-04T17:45:31.033Z</time></trkpt><trkpt lat="42.30193" lon="13.73074"><ele>501.0</ele><time>2026-04-04T17:45:32.033Z</time></trkpt><trkpt lat="42.301925" lon="13.73065"><ele>501.0</ele><time>2026-04-04T17:45:33.033Z</time></trkpt><trkpt lat="42.30186" lon="13.7305433"><ele>501.0</ele><time>2026-04-04T17:45:35.033Z</time></trkpt><trkpt lat="42.301765" lon="13.7305867"><ele>501.0</ele><time>2026-04-04T17:45:37.033Z</time></trkpt><trkpt lat="42.30174" lon="13.73069"><ele>501.0</ele><time>2026-04-04T17:45:38.033Z</time></trkpt><trkpt lat="42.30174" lon="13.73085"><ele>501.0</ele><time>2026-04-04T17:45:39.033Z</time></trkpt><trkpt lat="42.3017533" lon="13.73105"><ele>501.0</ele><time>2026-04-04T17:45:40.033Z</time></trkpt><trkpt lat="42.30177" lon="13.731275"><ele>501.0</ele><time>2026-04-04T17:45:41.033Z</time></trkpt><trkpt lat="42.30178" lon="13.7314833"><ele>501.0</ele><time>2026-04-04T17:45:42.033Z</time></trkpt><trkpt lat="42.301775" lon="13.7316733"><ele>501.0</ele><time>2026-04-04T17:45:43.033Z</time></trkpt><trkpt lat="42.3017367" lon="13.7318583"><ele>501.0</ele><time>2026-04-04T17:45:44.033Z</time></trkpt><trkpt lat="42.3016817" lon="13.732055"><ele>500.33333333333337</ele><time>2026-04-04T17:45:45.033Z</time></trkpt><trkpt lat="42.3016133" lon="13.73226"><ele>499.6666666666667</ele><time>2026-04-04T17:45:46.033Z</time></trkpt><trkpt lat="42.3015317" lon="13.73246"><ele>499.0</ele><time>2026-04-04T17:45:47.033Z</time></trkpt><trkpt lat="42.3014433" lon="13.7326483"><ele>494.0</ele><time>2026-04-04T17:45:48.033Z</time></trkpt><trkpt lat="42.30135" lon="13.732825"><ele>489.0</ele><time>2026-04-04T17:45:49.033Z</time></trkpt><trkpt lat="42.3012617" lon="13.733"><ele>484.0</ele><time>2026-04-04T17:45:50.033Z</time></trkpt><trkpt lat="42.301195" lon="13.7331783"><ele>484.0</ele><time>2026-04-04T17:45:51.033Z</time></trkpt><trkpt lat="42.3011317" lon="13.7333667"><ele>484.0</ele><time>2026-04-04T17:45:52.033Z</time></trkpt><trkpt lat="42.3010733" lon="13.7335633"><ele>484.0</ele><time>2026-04-04T17:45:53.033Z</time></trkpt><trkpt lat="42.30101" lon="13.733765"><ele>483.33333333333337</ele><time>2026-04-04T17:45:54.033Z</time></trkpt><trkpt lat="42.3009433" lon="13.7339733"><ele>482.66666666666663</ele><time>2026-04-04T17:45:55.033Z</time></trkpt><trkpt lat="42.3008783" lon="13.73418"><ele>482.0</ele><time>2026-04-04T17:45:56.033Z</time></trkpt><trkpt lat="42.30081" lon="13.7343833"><ele>481.66666666666663</ele><time>2026-04-04T17:45:57.032Z</time></trkpt><trkpt lat="42.3007533" lon="13.7345833"><ele>481.33333333333337</ele><time>2026-04-04T17:45:58.033Z</time></trkpt><trkpt lat="42.3006967" lon="13.7347867"><ele>481.0</ele><time>2026-04-04T17:45:59.033Z</time></trkpt><trkpt lat="42.300645" lon="13.7349917"><ele>481.0</ele><time>2026-04-04T17:46:00.033Z</time></trkpt><trkpt lat="42.300595" lon="13.7352033"><ele>481.0</ele><time>2026-04-04T17:46:01.033Z</time></trkpt><trkpt lat="42.3005467" lon="13.7354183"><ele>481.0</ele><time>2026-04-04T17:46:02.033Z</time></trkpt><trkpt lat="42.3005083" lon="13.73565"><ele>476.0</ele><time>2026-04-04T17:46:03.033Z</time></trkpt><trkpt lat="42.3004733" lon="13.73587"><ele>471.0</ele><time>2026-04-04T17:46:04.032Z</time></trkpt><trkpt lat="42.3004317" lon="13.7360883"><ele>466.0</ele><time>2026-04-04T17:46:05.033Z</time></trkpt><trkpt lat="42.300395" lon="13.7362933"><ele>465.0</ele><time>2026-04-04T17:46:06.033Z</time></trkpt><trkpt lat="42.3003683" lon="13.736505"><ele>464.0</ele><time>2026-04-04T17:46:07.033Z</time></trkpt><trkpt lat="42.30035" lon="13.7367333"><ele>463.0</ele><time>2026-04-04T17:46:08.033Z</time></trkpt><trkpt lat="42.3003483" lon="13.73697"><ele>461.33333333333337</ele><time>2026-04-04T17:46:09.033Z</time></trkpt><trkpt lat="42.3003417" lon="13.73721"><ele>459.66666666666663</ele><time>2026-04-04T17:46:10.033Z</time></trkpt><trkpt lat="42.30035" lon="13.7374317"><ele>458.0</ele><time>2026-04-04T17:46:11.033Z</time></trkpt><trkpt lat="42.30035" lon="13.7376433"><ele>457.0</ele><time>2026-04-04T17:46:12.033Z</time></trkpt><trkpt lat="42.3003417" lon="13.7378517"><ele>456.0</ele><time>2026-04-04T17:46:13.033Z</time></trkpt><trkpt lat="42.3003067" lon="13.7380667"><ele>455.0</ele><time>2026-04-04T17:46:14.033Z</time></trkpt><trkpt lat="42.3002617" lon="13.73828"><ele>455.0</ele><time>2026-04-04T17:46:15.033Z</time></trkpt><trkpt lat="42.30021" lon="13.7384917"><ele>455.0</ele><time>2026-04-04T17:46:16.033Z</time></trkpt><trkpt lat="42.3001483" lon="13.7386967"><ele>455.0</ele><time>2026-04-04T17:46:17.033Z</time></trkpt><trkpt lat="42.3000833" lon="13.73889"><ele>455.0</ele><time>2026-04-04T17:46:18.033Z</time></trkpt><trkpt lat="42.30001" lon="13.7390783"><ele>455.0</ele><time>2026-04-04T17:46:19.033Z</time></trkpt><trkpt lat="42.2999033" lon="13.73924"><ele>455.0</ele><time>2026-04-04T17:46:20.033Z</time></trkpt><trkpt lat="42.2997733" lon="13.73939"><ele>452.0</ele><time>2026-04-04T17:46:21.033Z</time></trkpt><trkpt lat="42.2996433" lon="13.73949"><ele>449.0</ele><time>2026-04-04T17:46:22.033Z</time></trkpt><trkpt lat="42.2995117" lon="13.739565"><ele>446.0</ele><time>2026-04-04T17:46:23.033Z</time></trkpt><trkpt lat="42.299375" lon="13.7396317"><ele>443.0</ele><time>2026-04-04T17:46:24.033Z</time></trkpt><trkpt lat="42.2992433" lon="13.7397433"><ele>443.0</ele><time>2026-04-04T17:46:25.033Z</time></trkpt><trkpt lat="42.2991217" lon="13.7398983"><ele>443.0</ele><time>2026-04-04T17:46:26.033Z</time></trkpt><trkpt lat="42.2990067" lon="13.7400733"><ele>443.0</ele><time>2026-04-04T17:46:27.033Z</time></trkpt><trkpt lat="42.29889" lon="13.740255"><ele>440.0</ele><time>2026-04-04T17:46:28.033Z</time></trkpt><trkpt lat="42.2987767" lon="13.74045"><ele>437.0</ele><time>2026-04-04T17:46:29.033Z</time></trkpt><trkpt lat="42.2986633" lon="13.7406367"><ele>434.0</ele><time>2026-04-04T17:46:30.033Z</time></trkpt><trkpt lat="42.29856" lon="13.7408"><ele>434.0</ele><time>2026-04-04T17:46:31.033Z</time></trkpt><trkpt lat="42.2984717" lon="13.7409517"><ele>434.0</ele><time>2026-04-04T17:46:32.033Z</time></trkpt><trkpt lat="42.29839" lon="13.74108"><ele>434.0</ele><time>2026-04-04T17:46:33.033Z</time></trkpt><trkpt lat="42.2983" lon="13.7411717"><ele>434.0</ele><time>2026-04-04T17:46:34.033Z</time></trkpt><trkpt lat="42.2981967" lon="13.74124"><ele>431.0</ele><time>2026-04-04T17:46:35.033Z</time></trkpt><trkpt lat="42.29808" lon="13.7412633"><ele>428.0</ele><time>2026-04-04T17:46:36.033Z</time></trkpt><trkpt lat="42.2979483" lon="13.7412367"><ele>425.0</ele><time>2026-04-04T17:46:37.033Z</time></trkpt><trkpt lat="42.2978033" lon="13.7411717"><ele>422.0</ele><time>2026-04-04T17:46:38.033Z</time></trkpt><trkpt lat="42.2976567" lon="13.74109"><ele>422.5</ele><time>2026-04-04T17:46:39.033Z</time></trkpt><trkpt lat="42.2975167" lon="13.7410133"><ele>423.0</ele><time>2026-04-04T17:46:40.033Z</time></trkpt><trkpt lat="42.29738" lon="13.74096"><ele>423.5</ele><time>2026-04-04T17:46:41.033Z</time></trkpt><trkpt lat="42.2972533" lon="13.7409233"><ele>424.0</ele><time>2026-04-04T17:46:42.033Z</time></trkpt><trkpt lat="42.2971217" lon="13.7409267"><ele>421.33333333333337</ele><time>2026-04-04T17:46:43.033Z</time></trkpt><trkpt lat="42.2969767" lon="13.7409783"><ele>418.66666666666663</ele><time>2026-04-04T17:46:44.033Z</time></trkpt><trkpt lat="42.2968267" lon="13.7410683"><ele>416.0</ele><time>2026-04-04T17:46:45.033Z</time></trkpt><trkpt lat="42.29668" lon="13.7411833"><ele>415.66666666666663</ele><time>2026-04-04T17:46:46.033Z</time></trkpt><trkpt lat="42.2965367" lon="13.7413133"><ele>415.33333333333337</ele><time>2026-04-04T17:46:47.033Z</time></trkpt><trkpt lat="42.2963967" lon="13.741455"><ele>415.0</ele><time>2026-04-04T17:46:48.033Z</time></trkpt><trkpt lat="42.2962583" lon="13.7415933"><ele>413.33333333333337</ele><time>2026-04-04T17:46:49.032Z</time></trkpt><trkpt lat="42.2961233" lon="13.7417183"><ele>411.66666666666663</ele><time>2026-04-04T17:46:50.033Z</time></trkpt><trkpt lat="42.2959933" lon="13.74184"><ele>410.0</ele><time>2026-04-04T17:46:51.033Z</time></trkpt><trkpt lat="42.29588" lon="13.7419683"><ele>409.5</ele><time>2026-04-04T17:46:52.033Z</time></trkpt><trkpt lat="42.2957867" lon="13.7420883"><ele>409.0</ele><time>2026-04-04T17:46:53.033Z</time></trkpt><trkpt lat="42.2957267" lon="13.7422217"><ele>408.5</ele><time>2026-04-04T17:46:54.033Z</time></trkpt><trkpt lat="42.295685" lon="13.7423783"><ele>408.0</ele><time>2026-04-04T17:46:55.033Z</time></trkpt><trkpt lat="42.2956733" lon="13.7425733"><ele>408.33333333333337</ele><time>2026-04-04T17:46:56.033Z</time></trkpt><trkpt lat="42.295665" lon="13.7427833"><ele>408.6666666666667</ele><time>2026-04-04T17:46:57.033Z</time></trkpt><trkpt lat="42.2956583" lon="13.7430067"><ele>409.0</ele><time>2026-04-04T17:46:58.033Z</time></trkpt><trkpt lat="42.2956533" lon="13.7432267"><ele>409.0</ele><time>2026-04-04T17:46:59.033Z</time></trkpt><trkpt lat="42.29567" lon="13.7434333"><ele>409.0</ele><time>2026-04-04T17:47:00.033Z</time></trkpt><trkpt lat="42.29569" lon="13.7436317"><ele>409.0</ele><time>2026-04-04T17:47:01.033Z</time></trkpt><trkpt lat="42.2957017" lon="13.7438183"><ele>409.0</ele><time>2026-04-04T17:47:02.033Z</time></trkpt><trkpt lat="42.2956883" lon="13.7440167"><ele>409.5</ele><time>2026-04-04T17:47:03.033Z</time></trkpt><trkpt lat="42.2956483" lon="13.7442133"><ele>410.0</ele><time>2026-04-04T17:47:04.032Z</time></trkpt><trkpt lat="42.2956117" lon="13.7444033"><ele>410.5</ele><time>2026-04-04T17:47:05.033Z</time></trkpt><trkpt lat="42.2955717" lon="13.7446033"><ele>411.0</ele><time>2026-04-04T17:47:06.032Z</time></trkpt><trkpt lat="42.29554" lon="13.74482"><ele>407.66666666666663</ele><time>2026-04-04T17:47:07.033Z</time></trkpt><trkpt lat="42.2955067" lon="13.74504"><ele>404.3333333333333</ele><time>2026-04-04T17:47:08.033Z</time></trkpt><trkpt lat="42.2954783" lon="13.7452583"><ele>401.0</ele><time>2026-04-04T17:47:09.033Z</time></trkpt><trkpt lat="42.2954367" lon="13.7454783"><ele>400.66666666666663</ele><time>2026-04-04T17:47:10.033Z</time></trkpt><trkpt lat="42.2953933" lon="13.7457"><ele>400.33333333333337</ele><time>2026-04-04T17:47:11.033Z</time></trkpt><trkpt lat="42.2953467" lon="13.745925"><ele>400.0</ele><time>2026-04-04T17:47:12.033Z</time></trkpt><trkpt lat="42.2953" lon="13.7461417"><ele>399.0</ele><time>2026-04-04T17:47:13.033Z</time></trkpt><trkpt lat="42.2952567" lon="13.7463483"><ele>398.0</ele><time>2026-04-04T17:47:14.033Z</time></trkpt><trkpt lat="42.295225" lon="13.746555"><ele>397.0</ele><time>2026-04-04T17:47:15.033Z</time></trkpt><trkpt lat="42.2952133" lon="13.7467733"><ele>396.33333333333337</ele><time>2026-04-04T17:47:16.033Z</time></trkpt><trkpt lat="42.2952117" lon="13.74702"><ele>395.66666666666663</ele><time>2026-04-04T17:47:17.033Z</time></trkpt><trkpt lat="42.2952233" lon="13.7472767"><ele>395.0</ele><time>2026-04-04T17:47:18.033Z</time></trkpt><trkpt lat="42.295235" lon="13.74752"><ele>395.0</ele><time>2026-04-04T17:47:19.033Z</time></trkpt><trkpt lat="42.2952367" lon="13.747755"><ele>395.0</ele><time>2026-04-04T17:47:20.033Z</time></trkpt><trkpt lat="42.295235" lon="13.7479833"><ele>395.0</ele><time>2026-04-04T17:47:21.033Z</time></trkpt><trkpt lat="42.295225" lon="13.7482183"><ele>395.0</ele><time>2026-04-04T17:47:22.033Z</time></trkpt><trkpt lat="42.29521" lon="13.74845"><ele>395.0</ele><time>2026-04-04T17:47:23.033Z</time></trkpt><trkpt lat="42.2951817" lon="13.7486667"><ele>395.0</ele><time>2026-04-04T17:47:24.033Z</time></trkpt><trkpt lat="42.295145" lon="13.7488683"><ele>395.66666666666663</ele><time>2026-04-04T17:47:25.033Z</time></trkpt><trkpt lat="42.2950867" lon="13.74906"><ele>396.33333333333337</ele><time>2026-04-04T17:47:26.033Z</time></trkpt><trkpt lat="42.2950067" lon="13.74923"><ele>397.0</ele><time>2026-04-04T17:47:27.032Z</time></trkpt><trkpt lat="42.2948917" lon="13.7493783"><ele>395.0</ele><time>2026-04-04T17:47:28.033Z</time></trkpt><trkpt lat="42.2947533" lon="13.7495183"><ele>393.0</ele><time>2026-04-04T17:47:29.033Z</time></trkpt><trkpt lat="42.2946183" lon="13.7496433"><ele>391.0</ele><time>2026-04-04T17:47:30.033Z</time></trkpt><trkpt lat="42.2944933" lon="13.74977"><ele>391.0</ele><time>2026-04-04T17:47:31.033Z</time></trkpt><trkpt lat="42.294385" lon="13.74993"><ele>391.0</ele><time>2026-04-04T17:47:32.033Z</time></trkpt><trkpt lat="42.2942917" lon="13.7501267"><ele>391.0</ele><time>2026-04-04T17:47:33.033Z</time></trkpt><trkpt lat="42.2942067" lon="13.7503367"><ele>393.6666666666667</ele><time>2026-04-04T17:47:34.033Z</time></trkpt><trkpt lat="42.2941333" lon="13.750575"><ele>396.33333333333337</ele><time>2026-04-04T17:47:35.033Z</time></trkpt><trkpt lat="42.2940633" lon="13.75082"><ele>399.0</ele><time>2026-04-04T17:47:36.033Z</time></trkpt><trkpt lat="42.2939883" lon="13.75107"><ele>395.66666666666663</ele><time>2026-04-04T17:47:37.033Z</time></trkpt><trkpt lat="42.2939183" lon="13.751315"><ele>392.3333333333333</ele><time>2026-04-04T17:47:38.033Z</time></trkpt><trkpt lat="42.2938467" lon="13.75155"><ele>389.0</ele><time>2026-04-04T17:47:39.033Z</time></trkpt><trkpt lat="42.2937833" lon="13.7517633"><ele>390.0</ele><time>2026-04-04T17:47:40.033Z</time></trkpt><trkpt lat="42.293725" lon="13.7519583"><ele>391.0</ele><time>2026-04-04T17:47:41.033Z</time></trkpt><trkpt lat="42.2936733" lon="13.75214"><ele>392.0</ele><time>2026-04-04T17:47:42.033Z</time></trkpt><trkpt lat="42.2936267" lon="13.7523283"><ele>393.0</ele><time>2026-04-04T17:47:43.033Z</time></trkpt><trkpt lat="42.2935933" lon="13.752525"><ele>389.75</ele><time>2026-04-04T17:47:44.033Z</time></trkpt><trkpt lat="42.29361" lon="13.7527067"><ele>386.5</ele><time>2026-04-04T17:47:45.033Z</time></trkpt><trkpt lat="42.293665" lon="13.75288"><ele>383.25</ele><time>2026-04-04T17:47:46.033Z</time></trkpt><trkpt lat="42.2937633" lon="13.7530483"><ele>380.0</ele><time>2026-04-04T17:47:47.033Z</time></trkpt><trkpt lat="42.2938867" lon="13.7532083"><ele>379.33333333333337</ele><time>2026-04-04T17:47:48.033Z</time></trkpt><trkpt lat="42.294" lon="13.7533633"><ele>378.6666666666667</ele><time>2026-04-04T17:47:49.033Z</time></trkpt><trkpt lat="42.294105" lon="13.75353"><ele>378.0</ele><time>2026-04-04T17:47:50.033Z</time></trkpt><trkpt lat="42.2942067" lon="13.7537033"><ele>378.0</ele><time>2026-04-04T17:47:51.033Z</time></trkpt><trkpt lat="42.2943033" lon="13.7538783"><ele>378.0</ele><time>2026-04-04T17:47:52.033Z</time></trkpt><trkpt lat="42.2943867" lon="13.75404"><ele>378.0</ele><time>2026-04-04T17:47:53.033Z</time></trkpt><trkpt lat="42.29446" lon="13.7542"><ele>378.0</ele><time>2026-04-04T17:47:54.033Z</time></trkpt><trkpt lat="42.2945217" lon="13.7543633"><ele>377.4</ele><time>2026-04-04T17:47:55.033Z</time></trkpt><trkpt lat="42.2945717" lon="13.7545183"><ele>376.79999999999995</ele><time>2026-04-04T17:47:56.033Z</time></trkpt><trkpt lat="42.2946183" lon="13.75467"><ele>376.2</ele><time>2026-04-04T17:47:57.033Z</time></trkpt><trkpt lat="42.29466" lon="13.7548033"><ele>375.6</ele><time>2026-04-04T17:47:58.033Z</time></trkpt><trkpt lat="42.2946933" lon="13.7549183"><ele>375.0</ele><time>2026-04-04T17:47:59.033Z</time></trkpt><trkpt lat="42.29472" lon="13.75501"><ele>375.8</ele><time>2026-04-04T17:48:00.033Z</time></trkpt><trkpt lat="42.2947583" lon="13.7551133"><ele>376.6</ele><time>2026-04-04T17:48:02.033Z</time></trkpt><trkpt lat="42.2947433" lon="13.7552367"><ele>377.4</ele><time>2026-04-04T17:48:05.033Z</time></trkpt><trkpt lat="42.2946233" lon="13.755305"><ele>378.2</ele><time>2026-04-04T17:48:07.033Z</time></trkpt><trkpt lat="42.2945367" lon="13.7553283"><ele>379.0</ele><time>2026-04-04T17:48:08.033Z</time></trkpt><trkpt lat="42.2944483" lon="13.7553517"><ele>379.0</ele><time>2026-04-04T17:48:09.033Z</time></trkpt><trkpt lat="42.29435" lon="13.7553867"><ele>379.0</ele><time>2026-04-04T17:48:10.033Z</time></trkpt><trkpt lat="42.2942417" lon="13.7554167"><ele>379.0</ele><time>2026-04-04T17:48:11.033Z</time></trkpt><trkpt lat="42.29411" lon="13.755425"><ele>379.0</ele><time>2026-04-04T17:48:12.032Z</time></trkpt><trkpt lat="42.29397" lon="13.7553983"><ele>379.5</ele><time>2026-04-04T17:48:13.033Z</time></trkpt><trkpt lat="42.293835" lon="13.7553383"><ele>380.0</ele><time>2026-04-04T17:48:14.033Z</time></trkpt><trkpt lat="42.2937017" lon="13.7552533"><ele>380.5</ele><time>2026-04-04T17:48:15.033Z</time></trkpt><trkpt lat="42.2935683" lon="13.755165"><ele>381.0</ele><time>2026-04-04T17:48:16.033Z</time></trkpt><trkpt lat="42.293425" lon="13.7550817"><ele>381.0</ele><time>2026-04-04T17:48:17.033Z</time></trkpt><trkpt lat="42.2932833" lon="13.755"><ele>381.0</ele><time>2026-04-04T17:48:18.033Z</time></trkpt><trkpt lat="42.29315" lon="13.7549283"><ele>381.0</ele><time>2026-04-04T17:48:19.033Z</time></trkpt><trkpt lat="42.2930267" lon="13.75486"><ele>381.0</ele><time>2026-04-04T17:48:20.033Z</time></trkpt><trkpt lat="42.2929033" lon="13.7548067"><ele>380.5</ele><time>2026-04-04T17:48:21.033Z</time></trkpt><trkpt lat="42.2927833" lon="13.7547783"><ele>380.0</ele><time>2026-04-04T17:48:22.033Z</time></trkpt><trkpt lat="42.2926633" lon="13.754795"><ele>379.5</ele><time>2026-04-04T17:48:23.033Z</time></trkpt><trkpt lat="42.2925417" lon="13.7548633"><ele>379.0</ele><time>2026-04-04T17:48:24.032Z</time></trkpt><trkpt lat="42.292425" lon="13.7549767"><ele>379.0</ele><time>2026-04-04T17:48:25.033Z</time></trkpt><trkpt lat="42.292315" lon="13.7550983"><ele>379.0</ele><time>2026-04-04T17:48:26.033Z</time></trkpt><trkpt lat="42.2922183" lon="13.7552333"><ele>379.0</ele><time>2026-04-04T17:48:27.033Z</time></trkpt><trkpt lat="42.29214" lon="13.75539"><ele>379.0</ele><time>2026-04-04T17:48:28.033Z</time></trkpt><trkpt lat="42.2920783" lon="13.7555633"><ele>378.25</ele><time>2026-04-04T17:48:29.033Z</time></trkpt><trkpt lat="42.2920317" lon="13.75574"><ele>377.5</ele><time>2026-04-04T17:48:30.033Z</time></trkpt><trkpt lat="42.2919867" lon="13.75593"><ele>376.75</ele><time>2026-04-04T17:48:31.033Z</time></trkpt><trkpt lat="42.2919433" lon="13.7560967"><ele>376.0</ele><time>2026-04-04T17:48:32.033Z</time></trkpt><trkpt lat="42.29189" lon="13.756235"><ele>377.75</ele><time>2026-04-04T17:48:33.033Z</time></trkpt><trkpt lat="42.2917983" lon="13.7563367"><ele>379.5</ele><time>2026-04-04T17:48:34.033Z</time></trkpt><trkpt lat="42.2916933" lon="13.7564117"><ele>381.25</ele><time>2026-04-04T17:48:35.033Z</time></trkpt><trkpt lat="42.291575" lon="13.7564833"><ele>383.0</ele><time>2026-04-04T17:48:36.033Z</time></trkpt><trkpt lat="42.291455" lon="13.7565567"><ele>381.5</ele><time>2026-04-04T17:48:37.033Z</time></trkpt><trkpt lat="42.291325" lon="13.7566367"><ele>380.0</ele><time>2026-04-04T17:48:38.033Z</time></trkpt><trkpt lat="42.2911917" lon="13.756705"><ele>378.5</ele><time>2026-04-04T17:48:39.033Z</time></trkpt><trkpt lat="42.2910517" lon="13.756775"><ele>377.0</ele><time>2026-04-04T17:48:40.033Z</time></trkpt><trkpt lat="42.2909233" lon="13.7568567"><ele>377.25</ele><time>2026-04-04T17:48:41.033Z</time></trkpt><trkpt lat="42.2908033" lon="13.7569517"><ele>377.5</ele><time>2026-04-04T17:48:42.033Z</time></trkpt><trkpt lat="42.2906883" lon="13.757055"><ele>377.75</ele><time>2026-04-04T17:48:43.032Z</time></trkpt><trkpt lat="42.290585" lon="13.7571717"><ele>378.0</ele><time>2026-04-04T17:48:44.033Z</time></trkpt><trkpt lat="42.29048" lon="13.7572817"><ele>378.0</ele><time>2026-04-04T17:48:45.033Z</time></trkpt><trkpt lat="42.29036" lon="13.7573917"><ele>378.0</ele><time>2026-04-04T17:48:46.033Z</time></trkpt><trkpt lat="42.29023" lon="13.7574967"><ele>378.0</ele><time>2026-04-04T17:48:47.033Z</time></trkpt><trkpt lat="42.2900933" lon="13.7575967"><ele>379.6666666666667</ele><time>2026-04-04T17:48:48.033Z</time></trkpt><trkpt lat="42.289955" lon="13.7577033"><ele>381.33333333333337</ele><time>2026-04-04T17:48:49.033Z</time></trkpt><trkpt lat="42.2898167" lon="13.7578133"><ele>383.0</ele><time>2026-04-04T17:48:50.032Z</time></trkpt><trkpt lat="42.2896767" lon="13.7579217"><ele>383.0</ele><time>2026-04-04T17:48:51.033Z</time></trkpt><trkpt lat="42.2895333" lon="13.7580317"><ele>383.0</ele><time>2026-04-04T17:48:52.033Z</time></trkpt><trkpt lat="42.289395" lon="13.758145"><ele>383.0</ele><time>2026-04-04T17:48:53.033Z</time></trkpt><trkpt lat="42.28926" lon="13.75826"><ele>383.0</ele><time>2026-04-04T17:48:54.033Z</time></trkpt><trkpt lat="42.28912" lon="13.7583783"><ele>383.0</ele><time>2026-04-04T17:48:55.033Z</time></trkpt><trkpt lat="42.2889867" lon="13.7585033"><ele>383.0</ele><time>2026-04-04T17:48:56.033Z</time></trkpt><trkpt lat="42.2888533" lon="13.7586283"><ele>382.6666666666667</ele><time>2026-04-04T17:48:57.033Z</time></trkpt><trkpt lat="42.2887233" lon="13.7587517"><ele>382.3333333333333</ele><time>2026-04-04T17:48:58.033Z</time></trkpt><trkpt lat="42.2885967" lon="13.7588717"><ele>382.0</ele><time>2026-04-04T17:48:59.033Z</time></trkpt><trkpt lat="42.2884717" lon="13.75899"><ele>382.0</ele><time>2026-04-04T17:49:00.033Z</time></trkpt><trkpt lat="42.28835" lon="13.7591117"><ele>382.0</ele><time>2026-04-04T17:49:01.033Z</time></trkpt><trkpt lat="42.288235" lon="13.7592367"><ele>382.0</ele><time>2026-04-04T17:49:02.033Z</time></trkpt><trkpt lat="42.288135" lon="13.759375"><ele>382.0</ele><time>2026-04-04T17:49:03.033Z</time></trkpt><trkpt lat="42.28804" lon="13.7595283"><ele>382.66666666666663</ele><time>2026-04-04T17:49:04.033Z</time></trkpt><trkpt lat="42.28794" lon="13.759685"><ele>383.3333333333333</ele><time>2026-04-04T17:49:05.033Z</time></trkpt><trkpt lat="42.287825" lon="13.7598167"><ele>384.0</ele><time>2026-04-04T17:49:06.033Z</time></trkpt><trkpt lat="42.287695" lon="13.7599283"><ele>384.0</ele><time>2026-04-04T17:49:07.033Z</time></trkpt><trkpt lat="42.287555" lon="13.760035"><ele>384.0</ele><time>2026-04-04T17:49:08.033Z</time></trkpt><trkpt lat="42.2874117" lon="13.760145"><ele>384.0</ele><time>2026-04-04T17:49:09.033Z</time></trkpt><trkpt lat="42.2872717" lon="13.76026"><ele>384.33333333333337</ele><time>2026-04-04T17:49:10.033Z</time></trkpt><trkpt lat="42.2871283" lon="13.7603783"><ele>384.6666666666667</ele><time>2026-04-04T17:49:11.033Z</time></trkpt><trkpt lat="42.2870017" lon="13.7605017"><ele>385.0</ele><time>2026-04-04T17:49:12.033Z</time></trkpt><trkpt lat="42.2868833" lon="13.760635"><ele>385.0</ele><time>2026-04-04T17:49:13.033Z</time></trkpt><trkpt lat="42.2867817" lon="13.7607767"><ele>385.0</ele><time>2026-04-04T17:49:14.033Z</time></trkpt><trkpt lat="42.2866833" lon="13.7609217"><ele>385.0</ele><time>2026-04-04T17:49:15.033Z</time></trkpt><trkpt lat="42.286585" lon="13.761075"><ele>385.0</ele><time>2026-04-04T17:49:16.033Z</time></trkpt><trkpt lat="42.2864867" lon="13.761225"><ele>384.6666666666667</ele><time>2026-04-04T17:49:17.033Z</time></trkpt><trkpt lat="42.2863833" lon="13.7613883"><ele>384.33333333333337</ele><time>2026-04-04T17:49:18.033Z</time></trkpt><trkpt lat="42.2862733" lon="13.7615467"><ele>384.0</ele><time>2026-04-04T17:49:19.033Z</time></trkpt><trkpt lat="42.2861667" lon="13.7616933"><ele>384.0</ele><time>2026-04-04T17:49:20.033Z</time></trkpt><trkpt lat="42.286065" lon="13.7618367"><ele>384.0</ele><time>2026-04-04T17:49:21.033Z</time></trkpt><trkpt lat="42.2859583" lon="13.761985"><ele>384.0</ele><time>2026-04-04T17:49:22.033Z</time></trkpt><trkpt lat="42.2858533" lon="13.762135"><ele>383.79999999999995</ele><time>2026-04-04T17:49:23.033Z</time></trkpt><trkpt lat="42.28577" lon="13.7622683"><ele>383.59999999999997</ele><time>2026-04-04T17:49:24.033Z</time></trkpt><trkpt lat="42.2856933" lon="13.762385"><ele>383.4</ele><time>2026-04-04T17:49:25.033Z</time></trkpt><trkpt lat="42.285625" lon="13.762475"><ele>383.2</ele><time>2026-04-04T17:49:26.033Z</time></trkpt><trkpt lat="42.285565" lon="13.7625533"><ele>383.0</ele><time>2026-04-04T17:49:27.033Z</time></trkpt><trkpt lat="42.2855167" lon="13.762625"><ele>383.59999999999997</ele><time>2026-04-04T17:49:28.033Z</time></trkpt><trkpt lat="42.28544" lon="13.762735"><ele>384.2</ele><time>2026-04-04T17:49:30.033Z</time></trkpt><trkpt lat="42.2853733" lon="13.7628383"><ele>384.8</ele><time>2026-04-04T17:49:32.033Z</time></trkpt><trkpt lat="42.2853167" lon="13.7629267"><ele>385.4</ele><time>2026-04-04T17:49:34.033Z</time></trkpt><trkpt lat="42.2852683" lon="13.7630067"><ele>386.0</ele><time>2026-04-04T17:49:36.032Z</time></trkpt><trkpt lat="42.2852183" lon="13.7630967"><ele>385.99999999999994</ele><time>2026-04-04T17:49:39.033Z</time></trkpt><trkpt lat="42.2851733" lon="13.7631617"><ele>386.0</ele><time>2026-04-04T17:49:42.034Z</time></trkpt><trkpt lat="42.2851583" lon="13.763245"><ele>386.0</ele><time>2026-04-04T17:49:45.034Z</time></trkpt><trkpt lat="42.2852017" lon="13.7631683"><ele>386.0</ele><time>2026-04-04T17:49:51.034Z</time></trkpt><trkpt lat="42.2852467" lon="13.7630833"><ele>385.99999999999994</ele><time>2026-04-04T17:49:52.034Z</time></trkpt><trkpt lat="42.2853167" lon="13.7629667"><ele>386.0</ele><time>2026-04-04T17:49:53.034Z</time></trkpt><trkpt lat="42.2854" lon="13.7628333"><ele>385.25</ele><time>2026-04-04T17:49:54.034Z</time></trkpt><trkpt lat="42.2854867" lon="13.7626933"><ele>384.5</ele><time>2026-04-04T17:49:55.034Z</time></trkpt><trkpt lat="42.28557" lon="13.7625617"><ele>383.75</ele><time>2026-04-04T17:49:56.034Z</time></trkpt><trkpt lat="42.285645" lon="13.76244"><ele>383.0</ele><time>2026-04-04T17:49:57.033Z</time></trkpt><trkpt lat="42.2857083" lon="13.7623383"><ele>383.0</ele><time>2026-04-04T17:49:58.034Z</time></trkpt><trkpt lat="42.2857567" lon="13.7622633"><ele>383.0</ele><time>2026-04-04T17:49:59.034Z</time></trkpt><trkpt lat="42.2857617" lon="13.76215"><ele>383.0</ele><time>2026-04-04T17:50:01.034Z</time></trkpt><trkpt lat="42.2856433" lon="13.7620633"><ele>383.0</ele><time>2026-04-04T17:50:03.034Z</time></trkpt><trkpt lat="42.2855617" lon="13.7620167"><ele>383.0</ele><time>2026-04-04T17:50:04.034Z</time></trkpt><trkpt lat="42.28549" lon="13.761965"><ele>383.0</ele><time>2026-04-04T17:50:05.034Z</time></trkpt><trkpt lat="42.2854333" lon="13.76191"><ele>383.0</ele><time>2026-04-04T17:50:06.034Z</time></trkpt><trkpt lat="42.285365" lon="13.76178"><ele>383.0</ele><time>2026-04-04T17:50:08.034Z</time></trkpt><trkpt lat="42.2852933" lon="13.761705"><ele>383.0</ele><time>2026-04-04T17:50:10.034Z</time></trkpt><trkpt lat="42.2852017" lon="13.761765"><ele>383.0</ele><time>2026-04-04T17:50:12.034Z</time></trkpt><trkpt lat="42.2851417" lon="13.76187"><ele>383.0</ele><time>2026-04-04T17:50:13.034Z</time></trkpt><trkpt lat="42.2850733" lon="13.7620283"><ele>383.0</ele><time>2026-04-04T17:50:14.034Z</time></trkpt><trkpt lat="42.28498" lon="13.7622267"><ele>383.0</ele><time>2026-04-04T17:50:15.034Z</time></trkpt><trkpt lat="42.2848783" lon="13.7624217"><ele>383.0</ele><time>2026-04-04T17:50:16.034Z</time></trkpt><trkpt lat="42.28477" lon="13.7626267"><ele>383.0</ele><time>2026-04-04T17:50:17.034Z</time></trkpt><trkpt lat="42.28466" lon="13.76283"><ele>383.0</ele><time>2026-04-04T17:50:18.034Z</time></trkpt><trkpt lat="42.2845483" lon="13.7630417"><ele>383.6666666666667</ele><time>2026-04-04T17:50:19.034Z</time></trkpt><trkpt lat="42.28443" lon="13.7632667"><ele>384.33333333333337</ele><time>2026-04-04T17:50:20.034Z</time></trkpt><trkpt lat="42.2843033" lon="13.76349"><ele>385.0</ele><time>2026-04-04T17:50:21.034Z</time></trkpt><trkpt lat="42.284185" lon="13.76371"><ele>385.0</ele><time>2026-04-04T17:50:22.033Z</time></trkpt><trkpt lat="42.284055" lon="13.7639317"><ele>385.0</ele><time>2026-04-04T17:50:23.034Z</time></trkpt><trkpt lat="42.2839183" lon="13.7641617"><ele>385.0</ele><time>2026-04-04T17:50:24.034Z</time></trkpt><trkpt lat="42.2837733" lon="13.76438"><ele>385.0</ele><time>2026-04-04T17:50:25.034Z</time></trkpt><trkpt lat="42.2836233" lon="13.7645883"><ele>385.0</ele><time>2026-04-04T17:50:26.034Z</time></trkpt><trkpt lat="42.28347" lon="13.764795"><ele>385.0</ele><time>2026-04-04T17:50:27.034Z</time></trkpt><trkpt lat="42.28332" lon="13.765005"><ele>386.6666666666667</ele><time>2026-04-04T17:50:28.034Z</time></trkpt><trkpt lat="42.283165" lon="13.7652133"><ele>388.33333333333337</ele><time>2026-04-04T17:50:29.034Z</time></trkpt><trkpt lat="42.2830117" lon="13.7654217"><ele>390.0</ele><time>2026-04-04T17:50:30.034Z</time></trkpt><trkpt lat="42.2828583" lon="13.7656317"><ele>387.0</ele><time>2026-04-04T17:50:31.033Z</time></trkpt><trkpt lat="42.28269" lon="13.7658283"><ele>384.0</ele><time>2026-04-04T17:50:32.034Z</time></trkpt><trkpt lat="42.2825233" lon="13.7660283"><ele>381.0</ele><time>2026-04-04T17:50:33.034Z</time></trkpt><trkpt lat="42.28236" lon="13.766215"><ele>379.3333333333333</ele><time>2026-04-04T17:50:34.034Z</time></trkpt><trkpt lat="42.28219" lon="13.7664133"><ele>377.66666666666663</ele><time>2026-04-04T17:50:35.034Z</time></trkpt><trkpt lat="42.2820217" lon="13.7666133"><ele>376.0</ele><time>2026-04-04T17:50:36.034Z</time></trkpt><trkpt lat="42.2818533" lon="13.766815"><ele>375.5</ele><time>2026-04-04T17:50:37.034Z</time></trkpt><trkpt lat="42.2816817" lon="13.7670233"><ele>375.0</ele><time>2026-04-04T17:50:38.034Z</time></trkpt><trkpt lat="42.2815067" lon="13.7672333"><ele>373.0</ele><time>2026-04-04T17:50:39.034Z</time></trkpt><trkpt lat="42.2813317" lon="13.767435"><ele>371.0</ele><time>2026-04-04T17:50:40.034Z</time></trkpt><trkpt lat="42.28115" lon="13.7676417"><ele>370.5</ele><time>2026-04-04T17:50:41.034Z</time></trkpt><trkpt lat="42.28097" lon="13.7678517"><ele>370.0</ele><time>2026-04-04T17:50:42.034Z</time></trkpt><trkpt lat="42.2807883" lon="13.7680683"><ele>370.0</ele><time>2026-04-04T17:50:43.034Z</time></trkpt><trkpt lat="42.2806033" lon="13.7682867"><ele>370.0</ele><time>2026-04-04T17:50:44.034Z</time></trkpt><trkpt lat="42.2804217" lon="13.768505"><ele>367.0</ele><time>2026-04-04T17:50:45.034Z</time></trkpt><trkpt lat="42.2802433" lon="13.768735"><ele>364.0</ele><time>2026-04-04T17:50:46.034Z</time></trkpt><trkpt lat="42.28006" lon="13.768955"><ele>364.0</ele><time>2026-04-04T17:50:47.034Z</time></trkpt><trkpt lat="42.2798783" lon="13.7691717"><ele>364.0</ele><time>2026-04-04T17:50:48.034Z</time></trkpt><trkpt lat="42.2796883" lon="13.7693933"><ele>362.5</ele><time>2026-04-04T17:50:49.034Z</time></trkpt><trkpt lat="42.2795067" lon="13.769605"><ele>361.0</ele><time>2026-04-04T17:50:50.034Z</time></trkpt><trkpt lat="42.2791667" lon="13.7700117"><ele>360.3333333333333</ele><time>2026-04-04T17:50:52.034Z</time></trkpt><trkpt lat="42.2790017" lon="13.7702033"><ele>359.6666666666667</ele><time>2026-04-04T17:50:53.034Z</time></trkpt><trkpt lat="42.2788333" lon="13.770395"><ele>359.0</ele><time>2026-04-04T17:50:54.034Z</time></trkpt><trkpt lat="42.2786783" lon="13.7706"><ele>358.33333333333337</ele><time>2026-04-04T17:50:55.034Z</time></trkpt><trkpt lat="42.2785317" lon="13.77082"><ele>357.6666666666667</ele><time>2026-04-04T17:50:56.034Z</time></trkpt><trkpt lat="42.2783917" lon="13.77105"><ele>357.0</ele><time>2026-04-04T17:50:57.034Z</time></trkpt><trkpt lat="42.27826" lon="13.7712933"><ele>356.0</ele><time>2026-04-04T17:50:58.034Z</time></trkpt><trkpt lat="42.2781333" lon="13.7715533"><ele>355.0</ele><time>2026-04-04T17:50:59.034Z</time></trkpt><trkpt lat="42.2780133" lon="13.7718217"><ele>352.5</ele><time>2026-04-04T17:51:00.034Z</time></trkpt><trkpt lat="42.2778967" lon="13.7720967"><ele>350.0</ele><time>2026-04-04T17:51:01.034Z</time></trkpt><trkpt lat="42.27778" lon="13.7723967"><ele>349.0</ele><time>2026-04-04T17:51:02.034Z</time></trkpt><trkpt lat="42.2776783" lon="13.7727133"><ele>348.0</ele><time>2026-04-04T17:51:03.034Z</time></trkpt><trkpt lat="42.2775883" lon="13.773055"><ele>348.0</ele><time>2026-04-04T17:51:04.034Z</time></trkpt><trkpt lat="42.2775017" lon="13.7734183"><ele>348.0</ele><time>2026-04-04T17:51:05.034Z</time></trkpt><trkpt lat="42.2774167" lon="13.77378"><ele>347.5</ele><time>2026-04-04T17:51:06.034Z</time></trkpt><trkpt lat="42.2773333" lon="13.7741367"><ele>347.0</ele><time>2026-04-04T17:51:07.034Z</time></trkpt><trkpt lat="42.2772467" lon="13.7745033"><ele>343.0</ele><time>2026-04-04T17:51:08.034Z</time></trkpt><trkpt lat="42.27716" lon="13.77487"><ele>339.0</ele><time>2026-04-04T17:51:09.034Z</time></trkpt><trkpt lat="42.2770717" lon="13.7752367"><ele>338.5</ele><time>2026-04-04T17:51:10.033Z</time></trkpt><trkpt lat="42.27698" lon="13.775595"><ele>338.0</ele><time>2026-04-04T17:51:11.034Z</time></trkpt><trkpt lat="42.2768917" lon="13.775955"><ele>338.0</ele><time>2026-04-04T17:51:12.034Z</time></trkpt><trkpt lat="42.2768017" lon="13.776305"><ele>338.0</ele><time>2026-04-04T17:51:13.034Z</time></trkpt><trkpt lat="42.27671" lon="13.7766433"><ele>339.0</ele><time>2026-04-04T17:51:14.034Z</time></trkpt><trkpt lat="42.2766317" lon="13.7769817"><ele>340.0</ele><time>2026-04-04T17:51:15.034Z</time></trkpt><trkpt lat="42.2765417" lon="13.7773167"><ele>340.0</ele><time>2026-04-04T17:51:16.034Z</time></trkpt><trkpt lat="42.2764583" lon="13.7776483"><ele>340.0</ele><time>2026-04-04T17:51:17.034Z</time></trkpt><trkpt lat="42.2763717" lon="13.77798"><ele>340.0</ele><time>2026-04-04T17:51:18.034Z</time></trkpt><trkpt lat="42.2762967" lon="13.77831"><ele>340.0</ele><time>2026-04-04T17:51:19.034Z</time></trkpt><trkpt lat="42.27622" lon="13.7786333"><ele>340.0</ele><time>2026-04-04T17:51:20.034Z</time></trkpt><trkpt lat="42.276145" lon="13.77895"><ele>340.0</ele><time>2026-04-04T17:51:21.034Z</time></trkpt><trkpt lat="42.2760783" lon="13.7792467"><ele>340.5</ele><time>2026-04-04T17:51:22.034Z</time></trkpt><trkpt lat="42.2760033" lon="13.779545"><ele>341.0</ele><time>2026-04-04T17:51:23.034Z</time></trkpt><trkpt lat="42.27593" lon="13.7798417"><ele>341.0</ele><time>2026-04-04T17:51:24.033Z</time></trkpt><trkpt lat="42.2758517" lon="13.780145"><ele>341.0</ele><time>2026-04-04T17:51:25.034Z</time></trkpt><trkpt lat="42.2757783" lon="13.7804433"><ele>341.0</ele><time>2026-04-04T17:51:26.034Z</time></trkpt><trkpt lat="42.2757067" lon="13.7807317"><ele>341.0</ele><time>2026-04-04T17:51:27.034Z</time></trkpt><trkpt lat="42.275635" lon="13.7810217"><ele>340.5</ele><time>2026-04-04T17:51:28.034Z</time></trkpt><trkpt lat="42.2755683" lon="13.7813117"><ele>340.0</ele><time>2026-04-04T17:51:29.034Z</time></trkpt><trkpt lat="42.2754967" lon="13.781605"><ele>340.0</ele><time>2026-04-04T17:51:30.034Z</time></trkpt><trkpt lat="42.275425" lon="13.7819"><ele>340.0</ele><time>2026-04-04T17:51:31.034Z</time></trkpt><trkpt lat="42.2753583" lon="13.782195"><ele>340.0</ele><time>2026-04-04T17:51:32.034Z</time></trkpt><trkpt lat="42.2752817" lon="13.78248"><ele>340.0</ele><time>2026-04-04T17:51:33.034Z</time></trkpt><trkpt lat="42.27521" lon="13.7827583"><ele>340.0</ele><time>2026-04-04T17:51:34.033Z</time></trkpt><trkpt lat="42.27515" lon="13.7830067"><ele>340.3333333333333</ele><time>2026-04-04T17:51:35.034Z</time></trkpt><trkpt lat="42.2750983" lon="13.7832267"><ele>340.6666666666667</ele><time>2026-04-04T17:51:36.034Z</time></trkpt><trkpt lat="42.2750467" lon="13.783425"><ele>341.0</ele><time>2026-04-04T17:51:37.034Z</time></trkpt><trkpt lat="42.2750067" lon="13.783605"><ele>340.5</ele><time>2026-04-04T17:51:38.034Z</time></trkpt><trkpt lat="42.2749567" lon="13.783775"><ele>340.0</ele><time>2026-04-04T17:51:39.034Z</time></trkpt><trkpt lat="42.2749183" lon="13.783935"><ele>339.5</ele><time>2026-04-04T17:51:40.034Z</time></trkpt><trkpt lat="42.2748817" lon="13.7840867"><ele>339.0</ele><time>2026-04-04T17:51:41.034Z</time></trkpt><trkpt lat="42.27485" lon="13.7842183"><ele>339.0</ele><time>2026-04-04T17:51:42.034Z</time></trkpt><trkpt lat="42.2748183" lon="13.784345"><ele>339.0</ele><time>2026-04-04T17:51:43.034Z</time></trkpt><trkpt lat="42.27478" lon="13.784455"><ele>339.0</ele><time>2026-04-04T17:51:44.033Z</time></trkpt><trkpt lat="42.2747383" lon="13.7845417"><ele>339.0</ele><time>2026-04-04T17:51:45.034Z</time></trkpt><trkpt lat="42.274675" lon="13.784615"><ele>339.0</ele><time>2026-04-04T17:51:46.034Z</time></trkpt><trkpt lat="42.2746067" lon="13.7846633"><ele>339.0</ele><time>2026-04-04T17:51:47.034Z</time></trkpt><trkpt lat="42.2745433" lon="13.7847183"><ele>338.5</ele><time>2026-04-04T17:51:48.034Z</time></trkpt><trkpt lat="42.2744967" lon="13.78479"><ele>338.0</ele><time>2026-04-04T17:51:49.034Z</time></trkpt><trkpt lat="42.2744817" lon="13.784885"><ele>337.5</ele><time>2026-04-04T17:51:50.034Z</time></trkpt><trkpt lat="42.2745017" lon="13.7849833"><ele>337.0</ele><time>2026-04-04T17:51:51.034Z</time></trkpt><trkpt lat="42.274535" lon="13.785105"><ele>336.5</ele><time>2026-04-04T17:51:52.034Z</time></trkpt><trkpt lat="42.2745517" lon="13.7852533"><ele>336.0</ele><time>2026-04-04T17:51:53.034Z</time></trkpt><trkpt lat="42.2745467" lon="13.78542"><ele>336.0</ele><time>2026-04-04T17:51:54.034Z</time></trkpt><trkpt lat="42.2745167" lon="13.7855933"><ele>336.0</ele><time>2026-04-04T17:51:55.034Z</time></trkpt><trkpt lat="42.2744767" lon="13.7857783"><ele>336.0</ele><time>2026-04-04T17:51:56.034Z</time></trkpt><trkpt lat="42.2744233" lon="13.7859867"><ele>336.0</ele><time>2026-04-04T17:51:57.034Z</time></trkpt><trkpt lat="42.2743583" lon="13.78621"><ele>336.0</ele><time>2026-04-04T17:51:58.034Z</time></trkpt><trkpt lat="42.2742833" lon="13.7864317"><ele>336.0</ele><time>2026-04-04T17:51:59.034Z</time></trkpt><trkpt lat="42.2742" lon="13.7866567"><ele>336.0</ele><time>2026-04-04T17:52:00.034Z</time></trkpt><trkpt lat="42.2741117" lon="13.7868917"><ele>336.6666666666667</ele><time>2026-04-04T17:52:01.034Z</time></trkpt><trkpt lat="42.2740133" lon="13.7871217"><ele>337.33333333333337</ele><time>2026-04-04T17:52:02.034Z</time></trkpt><trkpt lat="42.2739033" lon="13.7873417"><ele>338.0</ele><time>2026-04-04T17:52:03.034Z</time></trkpt><trkpt lat="42.2737917" lon="13.7875667"><ele>337.33333333333337</ele><time>2026-04-04T17:52:04.034Z</time></trkpt><trkpt lat="42.2736767" lon="13.787785"><ele>336.6666666666667</ele><time>2026-04-04T17:52:05.034Z</time></trkpt><trkpt lat="42.27355" lon="13.7880017"><ele>336.0</ele><time>2026-04-04T17:52:06.034Z</time></trkpt><trkpt lat="42.27341" lon="13.788215"><ele>336.0</ele><time>2026-04-04T17:52:07.034Z</time></trkpt><trkpt lat="42.27327" lon="13.78843"><ele>336.0</ele><time>2026-04-04T17:52:08.034Z</time></trkpt><trkpt lat="42.2731167" lon="13.7886533"><ele>336.0</ele><time>2026-04-04T17:52:09.034Z</time></trkpt><trkpt lat="42.272965" lon="13.788885"><ele>335.5</ele><time>2026-04-04T17:52:10.034Z</time></trkpt><trkpt lat="42.2728183" lon="13.7891117"><ele>335.0</ele><time>2026-04-04T17:52:11.034Z</time></trkpt><trkpt lat="42.2726633" lon="13.7893383"><ele>334.5</ele><time>2026-04-04T17:52:12.034Z</time></trkpt><trkpt lat="42.2725117" lon="13.7895733"><ele>334.0</ele><time>2026-04-04T17:52:13.034Z</time></trkpt><trkpt lat="42.272365" lon="13.7898133"><ele>334.5</ele><time>2026-04-04T17:52:14.034Z</time></trkpt><trkpt lat="42.27222" lon="13.7900483"><ele>335.0</ele><time>2026-04-04T17:52:15.034Z</time></trkpt><trkpt lat="42.272065" lon="13.7902883"><ele>336.0</ele><time>2026-04-04T17:52:16.033Z</time></trkpt><trkpt lat="42.2719083" lon="13.79052"><ele>337.0</ele><time>2026-04-04T17:52:17.034Z</time></trkpt><trkpt lat="42.2717483" lon="13.7907567"><ele>337.0</ele><time>2026-04-04T17:52:18.034Z</time></trkpt><trkpt lat="42.27159" lon="13.7909983"><ele>337.0</ele><time>2026-04-04T17:52:19.034Z</time></trkpt><trkpt lat="42.2714317" lon="13.791245"><ele>335.5</ele><time>2026-04-04T17:52:20.034Z</time></trkpt><trkpt lat="42.2712667" lon="13.7914933"><ele>334.0</ele><time>2026-04-04T17:52:21.034Z</time></trkpt><trkpt lat="42.2710967" lon="13.7917583"><ele>332.5</ele><time>2026-04-04T17:52:22.033Z</time></trkpt><trkpt lat="42.2709267" lon="13.79202"><ele>331.0</ele><time>2026-04-04T17:52:23.034Z</time></trkpt><trkpt lat="42.2707667" lon="13.792275"><ele>330.0</ele><time>2026-04-04T17:52:24.034Z</time></trkpt><trkpt lat="42.270605" lon="13.792525"><ele>329.0</ele><time>2026-04-04T17:52:25.034Z</time></trkpt><trkpt lat="42.2704467" lon="13.79277"><ele>327.5</ele><time>2026-04-04T17:52:26.034Z</time></trkpt><trkpt lat="42.2702783" lon="13.7930233"><ele>326.0</ele><time>2026-04-04T17:52:27.034Z</time></trkpt><trkpt lat="42.270115" lon="13.79328"><ele>328.0</ele><time>2026-04-04T17:52:28.034Z</time></trkpt><trkpt lat="42.26995" lon="13.793535"><ele>330.0</ele><time>2026-04-04T17:52:29.034Z</time></trkpt><trkpt lat="42.2697817" lon="13.79378"><ele>329.5</ele><time>2026-04-04T17:52:30.034Z</time></trkpt><trkpt lat="42.2696167" lon="13.79404"><ele>329.0</ele><time>2026-04-04T17:52:31.034Z</time></trkpt><trkpt lat="42.2694567" lon="13.7943017"><ele>330.5</ele><time>2026-04-04T17:52:32.034Z</time></trkpt><trkpt lat="42.2692967" lon="13.7945583"><ele>332.0</ele><time>2026-04-04T17:52:33.034Z</time></trkpt><trkpt lat="42.2691417" lon="13.7947983"><ele>332.0</ele><time>2026-04-04T17:52:34.034Z</time></trkpt><trkpt lat="42.2689917" lon="13.795025"><ele>332.0</ele><time>2026-04-04T17:52:35.034Z</time></trkpt><trkpt lat="42.2688483" lon="13.795235"><ele>332.0</ele><time>2026-04-04T17:52:36.034Z</time></trkpt><trkpt lat="42.2687033" lon="13.7954533"><ele>331.6666666666667</ele><time>2026-04-04T17:52:37.034Z</time></trkpt><trkpt lat="42.2685583" lon="13.7956733"><ele>331.3333333333333</ele><time>2026-04-04T17:52:38.033Z</time></trkpt><trkpt lat="42.268415" lon="13.7959067"><ele>331.0</ele><time>2026-04-04T17:52:39.034Z</time></trkpt><trkpt lat="42.268275" lon="13.79615"><ele>330.5</ele><time>2026-04-04T17:52:40.034Z</time></trkpt><trkpt lat="42.268135" lon="13.7963967"><ele>330.0</ele><time>2026-04-04T17:52:41.034Z</time></trkpt><trkpt lat="42.2680083" lon="13.7966567"><ele>331.5</ele><time>2026-04-04T17:52:42.033Z</time></trkpt><trkpt lat="42.2678817" lon="13.7969267"><ele>333.0</ele><time>2026-04-04T17:52:43.034Z</time></trkpt><trkpt lat="42.267765" lon="13.7972017"><ele>333.0</ele><time>2026-04-04T17:52:44.034Z</time></trkpt><trkpt lat="42.26765" lon="13.7974867"><ele>333.0</ele><time>2026-04-04T17:52:45.034Z</time></trkpt><trkpt lat="42.2675317" lon="13.7977683"><ele>335.0</ele><time>2026-04-04T17:52:46.034Z</time></trkpt><trkpt lat="42.2674133" lon="13.798055"><ele>337.0</ele><time>2026-04-04T17:52:47.034Z</time></trkpt><trkpt lat="42.2672983" lon="13.7983417"><ele>335.0</ele><time>2026-04-04T17:52:48.034Z</time></trkpt><trkpt lat="42.26718" lon="13.798625"><ele>333.0</ele><time>2026-04-04T17:52:49.034Z</time></trkpt><trkpt lat="42.26707" lon="13.7989083"><ele>333.0</ele><time>2026-04-04T17:52:50.034Z</time></trkpt><trkpt lat="42.2669583" lon="13.7991933"><ele>333.0</ele><time>2026-04-04T17:52:51.034Z</time></trkpt><trkpt lat="42.2668533" lon="13.799475"><ele>334.5</ele><time>2026-04-04T17:52:52.034Z</time></trkpt><trkpt lat="42.2667433" lon="13.79975"><ele>336.0</ele><time>2026-04-04T17:52:53.034Z</time></trkpt><trkpt lat="42.2666367" lon="13.8000317"><ele>337.5</ele><time>2026-04-04T17:52:54.034Z</time></trkpt><trkpt lat="42.266525" lon="13.800315"><ele>339.0</ele><time>2026-04-04T17:52:55.033Z</time></trkpt><trkpt lat="42.266415" lon="13.8005867"><ele>339.5</ele><time>2026-04-04T17:52:56.034Z</time></trkpt><trkpt lat="42.2662983" lon="13.80085"><ele>340.0</ele><time>2026-04-04T17:52:57.034Z</time></trkpt><trkpt lat="42.266165" lon="13.8011"><ele>342.0</ele><time>2026-04-04T17:52:58.034Z</time></trkpt><trkpt lat="42.2660267" lon="13.8013467"><ele>344.0</ele><time>2026-04-04T17:52:59.034Z</time></trkpt><trkpt lat="42.2658733" lon="13.8015917"><ele>344.0</ele><time>2026-04-04T17:53:00.034Z</time></trkpt><trkpt lat="42.265695" lon="13.801825"><ele>344.0</ele><time>2026-04-04T17:53:01.034Z</time></trkpt><trkpt lat="42.2655033" lon="13.8020533"><ele>348.0</ele><time>2026-04-04T17:53:02.034Z</time></trkpt><trkpt lat="42.2653083" lon="13.8022717"><ele>352.0</ele><time>2026-04-04T17:53:03.034Z</time></trkpt><trkpt lat="42.265105" lon="13.8024733"><ele>352.0</ele><time>2026-04-04T17:53:04.034Z</time></trkpt><trkpt lat="42.2649" lon="13.8026667"><ele>352.0</ele><time>2026-04-04T17:53:05.034Z</time></trkpt><trkpt lat="42.2646833" lon="13.8028283"><ele>354.0</ele><time>2026-04-04T17:53:06.034Z</time></trkpt><trkpt lat="42.2644683" lon="13.80297"><ele>356.0</ele><time>2026-04-04T17:53:07.034Z</time></trkpt><trkpt lat="42.264245" lon="13.8031"><ele>356.0</ele><time>2026-04-04T17:53:08.034Z</time></trkpt><trkpt lat="42.26402" lon="13.8032217"><ele>356.0</ele><time>2026-04-04T17:53:09.034Z</time></trkpt><trkpt lat="42.2637933" lon="13.80334"><ele>356.5</ele><time>2026-04-04T17:53:10.034Z</time></trkpt><trkpt lat="42.2635617" lon="13.8034683"><ele>357.0</ele><time>2026-04-04T17:53:11.034Z</time></trkpt><trkpt lat="42.2633317" lon="13.8036"><ele>359.0</ele><time>2026-04-04T17:53:12.033Z</time></trkpt><trkpt lat="42.2630933" lon="13.8037233"><ele>361.0</ele><time>2026-04-04T17:53:13.034Z</time></trkpt><trkpt lat="42.2628567" lon="13.8038467"><ele>361.0</ele><time>2026-04-04T17:53:14.034Z</time></trkpt><trkpt lat="42.2626283" lon="13.8039717"><ele>361.0</ele><time>2026-04-04T17:53:15.034Z</time></trkpt><trkpt lat="42.2623967" lon="13.8041017"><ele>363.0</ele><time>2026-04-04T17:53:16.034Z</time></trkpt><trkpt lat="42.2621617" lon="13.80423"><ele>365.0</ele><time>2026-04-04T17:53:17.034Z</time></trkpt><trkpt lat="42.2619317" lon="13.8043517"><ele>366.5</ele><time>2026-04-04T17:53:18.034Z</time></trkpt><trkpt lat="42.2617017" lon="13.8044767"><ele>368.0</ele><time>2026-04-04T17:53:19.034Z</time></trkpt><trkpt lat="42.2614717" lon="13.8046033"><ele>368.5</ele><time>2026-04-04T17:53:20.034Z</time></trkpt><trkpt lat="42.2612433" lon="13.804725"><ele>369.0</ele><time>2026-04-04T17:53:21.034Z</time></trkpt><trkpt lat="42.2610133" lon="13.804855"><ele>369.0</ele><time>2026-04-04T17:53:22.034Z</time></trkpt><trkpt lat="42.260775" lon="13.804985"><ele>369.0</ele><time>2026-04-04T17:53:23.034Z</time></trkpt><trkpt lat="42.260535" lon="13.805115"><ele>372.0</ele><time>2026-04-04T17:53:24.034Z</time></trkpt><trkpt lat="42.26029" lon="13.805245"><ele>375.0</ele><time>2026-04-04T17:53:25.034Z</time></trkpt><trkpt lat="42.2600467" lon="13.8053767"><ele>375.0</ele><time>2026-04-04T17:53:26.034Z</time></trkpt><trkpt lat="42.2597967" lon="13.8055067"><ele>375.0</ele><time>2026-04-04T17:53:27.034Z</time></trkpt><trkpt lat="42.2595533" lon="13.8056283"><ele>374.0</ele><time>2026-04-04T17:53:28.034Z</time></trkpt><trkpt lat="42.2593083" lon="13.8057533"><ele>373.0</ele><time>2026-04-04T17:53:29.034Z</time></trkpt><trkpt lat="42.2590683" lon="13.8058917"><ele>374.0</ele><time>2026-04-04T17:53:30.034Z</time></trkpt><trkpt lat="42.2588267" lon="13.80602"><ele>375.0</ele><time>2026-04-04T17:53:31.034Z</time></trkpt><trkpt lat="42.2585867" lon="13.8061467"><ele>375.0</ele><time>2026-04-04T17:53:32.034Z</time></trkpt><trkpt lat="42.258345" lon="13.80628"><ele>375.0</ele><time>2026-04-04T17:53:33.033Z</time></trkpt><trkpt lat="42.2581033" lon="13.8064117"><ele>373.5</ele><time>2026-04-04T17:53:34.034Z</time></trkpt><trkpt lat="42.25786" lon="13.80654"><ele>372.0</ele><time>2026-04-04T17:53:35.034Z</time></trkpt><trkpt lat="42.257615" lon="13.8066733"><ele>372.0</ele><time>2026-04-04T17:53:36.034Z</time></trkpt><trkpt lat="42.2573633" lon="13.8068033"><ele>372.0</ele><time>2026-04-04T17:53:37.034Z</time></trkpt><trkpt lat="42.257115" lon="13.8069367"><ele>374.0</ele><time>2026-04-04T17:53:38.034Z</time></trkpt><trkpt lat="42.2568633" lon="13.8070733"><ele>376.0</ele><time>2026-04-04T17:53:39.034Z</time></trkpt><trkpt lat="42.2566083" lon="13.8072083"><ele>375.0</ele><time>2026-04-04T17:53:40.034Z</time></trkpt><trkpt lat="42.2563617" lon="13.80735"><ele>374.0</ele><time>2026-04-04T17:53:41.034Z</time></trkpt><trkpt lat="42.25612" lon="13.8074817"><ele>374.0</ele><time>2026-04-04T17:53:42.034Z</time></trkpt><trkpt lat="42.2558917" lon="13.8076133"><ele>374.0</ele><time>2026-04-04T17:53:43.034Z</time></trkpt><trkpt lat="42.255675" lon="13.807735"><ele>376.5</ele><time>2026-04-04T17:53:44.034Z</time></trkpt><trkpt lat="42.2554667" lon="13.80785"><ele>379.0</ele><time>2026-04-04T17:53:45.034Z</time></trkpt><trkpt lat="42.255255" lon="13.80796"><ele>379.0</ele><time>2026-04-04T17:53:46.034Z</time></trkpt><trkpt lat="42.255045" lon="13.8080767"><ele>379.0</ele><time>2026-04-04T17:53:47.034Z</time></trkpt><trkpt lat="42.254835" lon="13.8081967"><ele>378.3333333333333</ele><time>2026-04-04T17:53:48.034Z</time></trkpt><trkpt lat="42.2546317" lon="13.8083017"><ele>377.6666666666667</ele><time>2026-04-04T17:53:49.034Z</time></trkpt><trkpt lat="42.2544383" lon="13.8084017"><ele>377.0</ele><time>2026-04-04T17:53:50.034Z</time></trkpt><trkpt lat="42.254255" lon="13.8085033"><ele>377.0</ele><time>2026-04-04T17:53:51.034Z</time></trkpt><trkpt lat="42.254085" lon="13.80859"><ele>377.0</ele><time>2026-04-04T17:53:52.033Z</time></trkpt><trkpt lat="42.2539283" lon="13.8086733"><ele>377.0</ele><time>2026-04-04T17:53:53.034Z</time></trkpt><trkpt lat="42.253785" lon="13.808745"><ele>376.25</ele><time>2026-04-04T17:53:54.034Z</time></trkpt><trkpt lat="42.2536533" lon="13.8088117"><ele>375.5</ele><time>2026-04-04T17:53:55.034Z</time></trkpt><trkpt lat="42.2535383" lon="13.8088683"><ele>374.75</ele><time>2026-04-04T17:53:56.034Z</time></trkpt><trkpt lat="42.2534367" lon="13.8089233"><ele>374.0</ele><time>2026-04-04T17:53:57.034Z</time></trkpt><trkpt lat="42.2533433" lon="13.8089833"><ele>374.0</ele><time>2026-04-04T17:53:58.034Z</time></trkpt><trkpt lat="42.253255" lon="13.8090267"><ele>374.0</ele><time>2026-04-04T17:53:59.033Z</time></trkpt><trkpt lat="42.2531667" lon="13.8090467"><ele>374.0</ele><time>2026-04-04T17:54:00.034Z</time></trkpt><trkpt lat="42.2530783" lon="13.8090383"><ele>374.0</ele><time>2026-04-04T17:54:01.034Z</time></trkpt><trkpt lat="42.252995" lon="13.8090133"><ele>374.0</ele><time>2026-04-04T17:54:02.034Z</time></trkpt><trkpt lat="42.25292" lon="13.8089767"><ele>374.0</ele><time>2026-04-04T17:54:03.034Z</time></trkpt><trkpt lat="42.2528467" lon="13.8089717"><ele>372.79999999999995</ele><time>2026-04-04T17:54:04.034Z</time></trkpt><trkpt lat="42.2527817" lon="13.8090083"><ele>371.59999999999997</ele><time>2026-04-04T17:54:05.034Z</time></trkpt><trkpt lat="42.25273" lon="13.8090783"><ele>370.4</ele><time>2026-04-04T17:54:06.034Z</time></trkpt><trkpt lat="42.2526883" lon="13.8091833"><ele>369.2</ele><time>2026-04-04T17:54:07.034Z</time></trkpt><trkpt lat="42.252645" lon="13.8093067"><ele>368.0</ele><time>2026-04-04T17:54:08.034Z</time></trkpt><trkpt lat="42.25256" lon="13.8094267"><ele>368.0</ele><time>2026-04-04T17:54:09.034Z</time></trkpt><trkpt lat="42.2524483" lon="13.8095333"><ele>368.0</ele><time>2026-04-04T17:54:10.034Z</time></trkpt><trkpt lat="42.2523183" lon="13.8096267"><ele>368.0</ele><time>2026-04-04T17:54:11.034Z</time></trkpt><trkpt lat="42.2521733" lon="13.8097433"><ele>367.33333333333337</ele><time>2026-04-04T17:54:12.034Z</time></trkpt><trkpt lat="42.2520183" lon="13.8098717"><ele>366.6666666666667</ele><time>2026-04-04T17:54:13.034Z</time></trkpt><trkpt lat="42.25186" lon="13.8100033"><ele>366.0</ele><time>2026-04-04T17:54:14.034Z</time></trkpt><trkpt lat="42.2516983" lon="13.81014"><ele>365.3333333333333</ele><time>2026-04-04T17:54:15.034Z</time></trkpt><trkpt lat="42.2515283" lon="13.8102883"><ele>364.66666666666663</ele><time>2026-04-04T17:54:16.034Z</time></trkpt><trkpt lat="42.2513533" lon="13.8104383"><ele>364.0</ele><time>2026-04-04T17:54:17.034Z</time></trkpt><trkpt lat="42.2511683" lon="13.81059"><ele>364.0</ele><time>2026-04-04T17:54:18.034Z</time></trkpt><trkpt lat="42.2509833" lon="13.8107533"><ele>364.0</ele><time>2026-04-04T17:54:19.034Z</time></trkpt><trkpt lat="42.2507967" lon="13.8109167"><ele>364.0</ele><time>2026-04-04T17:54:20.034Z</time></trkpt><trkpt lat="42.2506017" lon="13.8110933"><ele>360.0</ele><time>2026-04-04T17:54:21.034Z</time></trkpt><trkpt lat="42.250405" lon="13.81126"><ele>356.0</ele><time>2026-04-04T17:54:22.034Z</time></trkpt><trkpt lat="42.2502083" lon="13.8114317"><ele>356.0</ele><time>2026-04-04T17:54:23.034Z</time></trkpt><trkpt lat="42.2500133" lon="13.81161"><ele>356.0</ele><time>2026-04-04T17:54:24.034Z</time></trkpt><trkpt lat="42.24981" lon="13.811785"><ele>354.0</ele><time>2026-04-04T17:54:25.034Z</time></trkpt><trkpt lat="42.2496067" lon="13.8119617"><ele>352.0</ele><time>2026-04-04T17:54:26.034Z</time></trkpt><trkpt lat="42.2494" lon="13.8121383"><ele>352.0</ele><time>2026-04-04T17:54:27.034Z</time></trkpt><trkpt lat="42.24919" lon="13.812315"><ele>352.0</ele><time>2026-04-04T17:54:28.034Z</time></trkpt><trkpt lat="42.2489783" lon="13.8125"><ele>351.0</ele><time>2026-04-04T17:54:29.034Z</time></trkpt><trkpt lat="42.2487733" lon="13.8126783"><ele>350.0</ele><time>2026-04-04T17:54:30.033Z</time></trkpt><trkpt lat="42.24857" lon="13.8128583"><ele>350.0</ele><time>2026-04-04T17:54:31.034Z</time></trkpt><trkpt lat="42.2483683" lon="13.8130367"><ele>350.0</ele><time>2026-04-04T17:54:32.034Z</time></trkpt><trkpt lat="42.24817" lon="13.8132117"><ele>350.33333333333337</ele><time>2026-04-04T17:54:33.034Z</time></trkpt><trkpt lat="42.2479783" lon="13.81338"><ele>350.6666666666667</ele><time>2026-04-04T17:54:34.034Z</time></trkpt><trkpt lat="42.2477933" lon="13.8135417"><ele>351.0</ele><time>2026-04-04T17:54:35.034Z</time></trkpt><trkpt lat="42.247615" lon="13.8137017"><ele>351.0</ele><time>2026-04-04T17:54:36.034Z</time></trkpt><trkpt lat="42.2474383" lon="13.81385"><ele>351.0</ele><time>2026-04-04T17:54:37.034Z</time></trkpt><trkpt lat="42.24725" lon="13.81401"><ele>351.0</ele><time>2026-04-04T17:54:38.034Z</time></trkpt><trkpt lat="42.24706" lon="13.81416"><ele>350.3333333333333</ele><time>2026-04-04T17:54:39.034Z</time></trkpt><trkpt lat="42.2468633" lon="13.8143"><ele>349.66666666666663</ele><time>2026-04-04T17:54:40.034Z</time></trkpt><trkpt lat="42.2466567" lon="13.8144217"><ele>349.0</ele><time>2026-04-04T17:54:41.034Z</time></trkpt><trkpt lat="42.2464283" lon="13.8145317"><ele>344.0</ele><time>2026-04-04T17:54:42.034Z</time></trkpt><trkpt lat="42.2461933" lon="13.8146367"><ele>339.0</ele><time>2026-04-04T17:54:43.034Z</time></trkpt><trkpt lat="42.24595" lon="13.8147167"><ele>339.0</ele><time>2026-04-04T17:54:44.034Z</time></trkpt><trkpt lat="42.2457017" lon="13.81478"><ele>339.0</ele><time>2026-04-04T17:54:45.034Z</time></trkpt><trkpt lat="42.24545" lon="13.8148267"><ele>341.0</ele><time>2026-04-04T17:54:46.034Z</time></trkpt><trkpt lat="42.2451917" lon="13.8148567"><ele>343.0</ele><time>2026-04-04T17:54:47.034Z</time></trkpt><trkpt lat="42.244915" lon="13.8148767"><ele>341.5</ele><time>2026-04-04T17:54:48.034Z</time></trkpt><trkpt lat="42.2446383" lon="13.81489"><ele>340.0</ele><time>2026-04-04T17:54:49.034Z</time></trkpt><trkpt lat="42.2443667" lon="13.814905"><ele>340.0</ele><time>2026-04-04T17:54:50.033Z</time></trkpt><trkpt lat="42.2441067" lon="13.814915"><ele>340.0</ele><time>2026-04-04T17:54:51.034Z</time></trkpt><trkpt lat="42.2438517" lon="13.8149267"><ele>338.0</ele><time>2026-04-04T17:54:52.034Z</time></trkpt><trkpt lat="42.24361" lon="13.81494"><ele>336.0</ele><time>2026-04-04T17:54:53.034Z</time></trkpt><trkpt lat="42.2433567" lon="13.81494"><ele>330.5</ele><time>2026-04-04T17:54:54.034Z</time></trkpt><trkpt lat="42.2430917" lon="13.814925"><ele>325.0</ele><time>2026-04-04T17:54:55.034Z</time></trkpt><trkpt lat="42.2428233" lon="13.8148983"><ele>325.0</ele><time>2026-04-04T17:54:56.034Z</time></trkpt><trkpt lat="42.2425583" lon="13.814855"><ele>325.0</ele><time>2026-04-04T17:54:57.034Z</time></trkpt><trkpt lat="42.2423033" lon="13.8148167"><ele>322.0</ele><time>2026-04-04T17:54:58.034Z</time></trkpt><trkpt lat="42.2420583" lon="13.814775"><ele>319.0</ele><time>2026-04-04T17:54:59.034Z</time></trkpt><trkpt lat="42.2418283" lon="13.8147283"><ele>319.0</ele><time>2026-04-04T17:55:00.034Z</time></trkpt><trkpt lat="42.2416183" lon="13.8146833"><ele>319.0</ele><time>2026-04-04T17:55:01.034Z</time></trkpt><trkpt lat="42.2414167" lon="13.8146417"><ele>319.0</ele><time>2026-04-04T17:55:02.034Z</time></trkpt><trkpt lat="42.24123" lon="13.8146133"><ele>319.66666666666663</ele><time>2026-04-04T17:55:03.034Z</time></trkpt><trkpt lat="42.2410567" lon="13.8145867"><ele>320.3333333333333</ele><time>2026-04-04T17:55:04.034Z</time></trkpt><trkpt lat="42.2408917" lon="13.81456"><ele>321.0</ele><time>2026-04-04T17:55:05.034Z</time></trkpt><trkpt lat="42.2407267" lon="13.8145317"><ele>320.0</ele><time>2026-04-04T17:55:06.034Z</time></trkpt><trkpt lat="42.2405733" lon="13.8145033"><ele>319.0</ele><time>2026-04-04T17:55:07.034Z</time></trkpt><trkpt lat="42.2404367" lon="13.8144767"><ele>318.0</ele><time>2026-04-04T17:55:08.034Z</time></trkpt><trkpt lat="42.2403083" lon="13.8144517"><ele>317.0</ele><time>2026-04-04T17:55:09.034Z</time></trkpt><trkpt lat="42.240185" lon="13.814425"><ele>317.0</ele><time>2026-04-04T17:55:10.034Z</time></trkpt><trkpt lat="42.2400717" lon="13.8143917"><ele>317.0</ele><time>2026-04-04T17:55:11.034Z</time></trkpt><trkpt lat="42.239965" lon="13.81435"><ele>317.0</ele><time>2026-04-04T17:55:12.034Z</time></trkpt><trkpt lat="42.239865" lon="13.8143033"><ele>317.0</ele><time>2026-04-04T17:55:13.034Z</time></trkpt><trkpt lat="42.2397883" lon="13.814225"><ele>317.0</ele><time>2026-04-04T17:55:14.034Z</time></trkpt><trkpt lat="42.2397367" lon="13.81413"><ele>318.0</ele><time>2026-04-04T17:55:15.034Z</time></trkpt><trkpt lat="42.2396983" lon="13.81404"><ele>319.0</ele><time>2026-04-04T17:55:16.034Z</time></trkpt><trkpt lat="42.239645" lon="13.813955"><ele>320.0</ele><time>2026-04-04T17:55:17.034Z</time></trkpt><trkpt lat="42.2395767" lon="13.8139083"><ele>321.0</ele><time>2026-04-04T17:55:18.034Z</time></trkpt><trkpt lat="42.2395033" lon="13.8139133"><ele>322.0</ele><time>2026-04-04T17:55:19.034Z</time></trkpt><trkpt lat="42.23942" lon="13.8139583"><ele>323.0</ele><time>2026-04-04T17:55:20.034Z</time></trkpt><trkpt lat="42.2393167" lon="13.8140317"><ele>323.0</ele><time>2026-04-04T17:55:21.034Z</time></trkpt><trkpt lat="42.23918" lon="13.814095"><ele>323.0</ele><time>2026-04-04T17:55:22.034Z</time></trkpt><trkpt lat="42.2390267" lon="13.8141317"><ele>323.0</ele><time>2026-04-04T17:55:23.034Z</time></trkpt><trkpt lat="42.2388617" lon="13.8141417"><ele>322.6666666666667</ele><time>2026-04-04T17:55:24.034Z</time></trkpt><trkpt lat="42.2386833" lon="13.8141267"><ele>322.3333333333333</ele><time>2026-04-04T17:55:25.034Z</time></trkpt><trkpt lat="42.2385017" lon="13.814095"><ele>322.0</ele><time>2026-04-04T17:55:26.034Z</time></trkpt><trkpt lat="42.2383217" lon="13.814055"><ele>321.0</ele><time>2026-04-04T17:55:27.034Z</time></trkpt><trkpt lat="42.2381333" lon="13.8140183"><ele>320.0</ele><time>2026-04-04T17:55:28.033Z</time></trkpt><trkpt lat="42.2379383" lon="13.8139783"><ele>319.0</ele><time>2026-04-04T17:55:29.034Z</time></trkpt><trkpt lat="42.2377283" lon="13.8139367"><ele>319.0</ele><time>2026-04-04T17:55:30.033Z</time></trkpt><trkpt lat="42.2375067" lon="13.81389"><ele>319.0</ele><time>2026-04-04T17:55:31.034Z</time></trkpt><trkpt lat="42.2372833" lon="13.8138417"><ele>319.0</ele><time>2026-04-04T17:55:32.034Z</time></trkpt><trkpt lat="42.23706" lon="13.8137933"><ele>319.0</ele><time>2026-04-04T17:55:33.034Z</time></trkpt><trkpt lat="42.2368417" lon="13.8137517"><ele>319.0</ele><time>2026-04-04T17:55:34.034Z</time></trkpt><trkpt lat="42.2366267" lon="13.81371"><ele>319.66666666666663</ele><time>2026-04-04T17:55:35.034Z</time></trkpt><trkpt lat="42.2364233" lon="13.8136683"><ele>320.3333333333333</ele><time>2026-04-04T17:55:36.034Z</time></trkpt><trkpt lat="42.2362133" lon="13.8136283"><ele>321.0</ele><time>2026-04-04T17:55:37.034Z</time></trkpt><trkpt lat="42.2359983" lon="13.8135917"><ele>321.0</ele><time>2026-04-04T17:55:38.034Z</time></trkpt><trkpt lat="42.23578" lon="13.8135933"><ele>321.0</ele><time>2026-04-04T17:55:39.034Z</time></trkpt><trkpt lat="42.2355633" lon="13.8136083"><ele>321.0</ele><time>2026-04-04T17:55:40.034Z</time></trkpt><trkpt lat="42.23535" lon="13.8136467"><ele>320.6666666666667</ele><time>2026-04-04T17:55:41.034Z</time></trkpt><trkpt lat="42.23515" lon="13.8137067"><ele>320.33333333333337</ele><time>2026-04-04T17:55:42.034Z</time></trkpt><trkpt lat="42.2349383" lon="13.8137883"><ele>320.0</ele><time>2026-04-04T17:55:43.034Z</time></trkpt><trkpt lat="42.234735" lon="13.8138983"><ele>321.0</ele><time>2026-04-04T17:55:44.034Z</time></trkpt><trkpt lat="42.2345317" lon="13.8140167"><ele>322.0</ele><time>2026-04-04T17:55:45.034Z</time></trkpt><trkpt lat="42.234325" lon="13.8141367"><ele>323.0</ele><time>2026-04-04T17:55:46.033Z</time></trkpt><trkpt lat="42.2341167" lon="13.8142633"><ele>320.5</ele><time>2026-04-04T17:55:47.034Z</time></trkpt><trkpt lat="42.233905" lon="13.814385"><ele>318.0</ele><time>2026-04-04T17:55:48.034Z</time></trkpt><trkpt lat="42.2336917" lon="13.8145017"><ele>318.0</ele><time>2026-04-04T17:55:49.034Z</time></trkpt><trkpt lat="42.2334833" lon="13.8145833"><ele>318.0</ele><time>2026-04-04T17:55:50.034Z</time></trkpt><trkpt lat="42.2332733" lon="13.814655"><ele>318.0</ele><time>2026-04-04T17:55:51.034Z</time></trkpt><trkpt lat="42.2330567" lon="13.814715"><ele>319.5</ele><time>2026-04-04T17:55:52.034Z</time></trkpt><trkpt lat="42.2328333" lon="13.8147517"><ele>321.0</ele><time>2026-04-04T17:55:53.034Z</time></trkpt><trkpt lat="42.2326083" lon="13.8147633"><ele>321.0</ele><time>2026-04-04T17:55:54.033Z</time></trkpt><trkpt lat="42.2323717" lon="13.8147467"><ele>321.0</ele><time>2026-04-04T17:55:55.034Z</time></trkpt><trkpt lat="42.2321317" lon="13.8147083"><ele>320.0</ele><time>2026-04-04T17:55:56.034Z</time></trkpt><trkpt lat="42.2318883" lon="13.8146517"><ele>319.0</ele><time>2026-04-04T17:55:57.034Z</time></trkpt><trkpt lat="42.2316433" lon="13.8145967"><ele>319.0</ele><time>2026-04-04T17:55:58.034Z</time></trkpt><trkpt lat="42.231405" lon="13.8145383"><ele>319.0</ele><time>2026-04-04T17:55:59.034Z</time></trkpt><trkpt lat="42.2311717" lon="13.81451"><ele>319.0</ele><time>2026-04-04T17:56:00.034Z</time></trkpt><trkpt lat="42.230935" lon="13.8144917"><ele>319.0</ele><time>2026-04-04T17:56:01.033Z</time></trkpt><trkpt lat="42.2306967" lon="13.8144883"><ele>320.5</ele><time>2026-04-04T17:56:02.034Z</time></trkpt><trkpt lat="42.2304483" lon="13.814505"><ele>322.0</ele><time>2026-04-04T17:56:03.034Z</time></trkpt><trkpt lat="42.2301917" lon="13.8145417"><ele>322.0</ele><time>2026-04-04T17:56:04.034Z</time></trkpt><trkpt lat="42.22993" lon="13.8145733"><ele>322.0</ele><time>2026-04-04T17:56:05.034Z</time></trkpt><trkpt lat="42.2296633" lon="13.814605"><ele>321.5</ele><time>2026-04-04T17:56:06.034Z</time></trkpt><trkpt lat="42.2293983" lon="13.8146433"><ele>321.0</ele><time>2026-04-04T17:56:07.034Z</time></trkpt><trkpt lat="42.2291267" lon="13.814685"><ele>320.0</ele><time>2026-04-04T17:56:08.034Z</time></trkpt><trkpt lat="42.2288533" lon="13.8147267"><ele>319.0</ele><time>2026-04-04T17:56:09.034Z</time></trkpt><trkpt lat="42.2285817" lon="13.8147583"><ele>319.0</ele><time>2026-04-04T17:56:10.034Z</time></trkpt><trkpt lat="42.228315" lon="13.8147867"><ele>319.0</ele><time>2026-04-04T17:56:11.034Z</time></trkpt><trkpt lat="42.2280517" lon="13.8148167"><ele>319.0</ele><time>2026-04-04T17:56:12.034Z</time></trkpt><trkpt lat="42.2277933" lon="13.8148383"><ele>319.0</ele><time>2026-04-04T17:56:13.034Z</time></trkpt><trkpt lat="42.227545" lon="13.8148617"><ele>321.0</ele><time>2026-04-04T17:56:14.034Z</time></trkpt><trkpt lat="42.2272983" lon="13.8148967"><ele>323.0</ele><time>2026-04-04T17:56:15.034Z</time></trkpt><trkpt lat="42.2270567" lon="13.8149417"><ele>323.0</ele><time>2026-04-04T17:56:16.034Z</time></trkpt><trkpt lat="42.2268033" lon="13.815"><ele>323.0</ele><time>2026-04-04T17:56:17.034Z</time></trkpt><trkpt lat="42.226555" lon="13.8150667"><ele>325.5</ele><time>2026-04-04T17:56:18.034Z</time></trkpt><trkpt lat="42.226305" lon="13.8151367"><ele>328.0</ele><time>2026-04-04T17:56:19.033Z</time></trkpt><trkpt lat="42.2260483" lon="13.815205"><ele>322.5</ele><time>2026-04-04T17:56:20.034Z</time></trkpt><trkpt lat="42.2258" lon="13.8152683"><ele>317.0</ele><time>2026-04-04T17:56:21.034Z</time></trkpt><trkpt lat="42.2255683" lon="13.8153317"><ele>317.0</ele><time>2026-04-04T17:56:22.034Z</time></trkpt><trkpt lat="42.2253367" lon="13.815385"><ele>317.0</ele><time>2026-04-04T17:56:23.034Z</time></trkpt><trkpt lat="42.2251117" lon="13.8154667"><ele>317.0</ele><time>2026-04-04T17:56:24.034Z</time></trkpt><trkpt lat="42.224885" lon="13.81558"><ele>317.0</ele><time>2026-04-04T17:56:25.034Z</time></trkpt><trkpt lat="42.2246633" lon="13.8157317"><ele>316.5</ele><time>2026-04-04T17:56:26.034Z</time></trkpt><trkpt lat="42.22444" lon="13.8159067"><ele>316.0</ele><time>2026-04-04T17:56:27.034Z</time></trkpt><trkpt lat="42.2242117" lon="13.8160917"><ele>316.0</ele><time>2026-04-04T17:56:28.034Z</time></trkpt><trkpt lat="42.2239867" lon="13.8162767"><ele>316.0</ele><time>2026-04-04T17:56:29.034Z</time></trkpt><trkpt lat="42.223775" lon="13.8164467"><ele>318.5</ele><time>2026-04-04T17:56:30.034Z</time></trkpt><trkpt lat="42.223575" lon="13.8166133"><ele>321.0</ele><time>2026-04-04T17:56:31.034Z</time></trkpt><trkpt lat="42.223385" lon="13.8167767"><ele>320.5</ele><time>2026-04-04T17:56:32.034Z</time></trkpt><trkpt lat="42.22319" lon="13.8169333"><ele>320.0</ele><time>2026-04-04T17:56:33.034Z</time></trkpt><trkpt lat="42.222985" lon="13.8170717"><ele>320.0</ele><time>2026-04-04T17:56:34.034Z</time></trkpt><trkpt lat="42.2227767" lon="13.8171917"><ele>320.0</ele><time>2026-04-04T17:56:35.034Z</time></trkpt><trkpt lat="42.222555" lon="13.8172883"><ele>320.0</ele><time>2026-04-04T17:56:36.034Z</time></trkpt><trkpt lat="42.22232" lon="13.8173633"><ele>320.0</ele><time>2026-04-04T17:56:37.034Z</time></trkpt><trkpt lat="42.222075" lon="13.8174133"><ele>318.5</ele><time>2026-04-04T17:56:38.033Z</time></trkpt><trkpt lat="42.2218367" lon="13.8174333"><ele>317.0</ele><time>2026-04-04T17:56:39.034Z</time></trkpt><trkpt lat="42.2215967" lon="13.81742"><ele>317.0</ele><time>2026-04-04T17:56:40.034Z</time></trkpt><trkpt lat="42.2213583" lon="13.8173867"><ele>317.0</ele><time>2026-04-04T17:56:41.034Z</time></trkpt><trkpt lat="42.2211233" lon="13.8173333"><ele>317.0</ele><time>2026-04-04T17:56:42.034Z</time></trkpt><trkpt lat="42.2208933" lon="13.8172667"><ele>317.0</ele><time>2026-04-04T17:56:43.034Z</time></trkpt><trkpt lat="42.22067" lon="13.8171917"><ele>317.33333333333337</ele><time>2026-04-04T17:56:44.034Z</time></trkpt><trkpt lat="42.220455" lon="13.817115"><ele>317.6666666666667</ele><time>2026-04-04T17:56:45.034Z</time></trkpt><trkpt lat="42.2202367" lon="13.817055"><ele>318.0</ele><time>2026-04-04T17:56:46.034Z</time></trkpt><trkpt lat="42.2200117" lon="13.8170133"><ele>318.5</ele><time>2026-04-04T17:56:47.034Z</time></trkpt><trkpt lat="42.2197783" lon="13.8169883"><ele>319.0</ele><time>2026-04-04T17:56:48.034Z</time></trkpt><trkpt lat="42.2195317" lon="13.8169767"><ele>319.0</ele><time>2026-04-04T17:56:49.034Z</time></trkpt><trkpt lat="42.2192883" lon="13.817"><ele>319.0</ele><time>2026-04-04T17:56:50.034Z</time></trkpt><trkpt lat="42.2190333" lon="13.81705"><ele>318.5</ele><time>2026-04-04T17:56:51.034Z</time></trkpt><trkpt lat="42.2187817" lon="13.8171117"><ele>318.0</ele><time>2026-04-04T17:56:52.034Z</time></trkpt><trkpt lat="42.2185267" lon="13.8171633"><ele>318.0</ele><time>2026-04-04T17:56:53.034Z</time></trkpt><trkpt lat="42.21829" lon="13.81721"><ele>318.0</ele><time>2026-04-04T17:56:54.034Z</time></trkpt><trkpt lat="42.218065" lon="13.81725"><ele>318.3333333333333</ele><time>2026-04-04T17:56:55.034Z</time></trkpt><trkpt lat="42.217865" lon="13.8172867"><ele>318.66666666666663</ele><time>2026-04-04T17:56:56.034Z</time></trkpt><trkpt lat="42.2176717" lon="13.8173167"><ele>319.0</ele><time>2026-04-04T17:56:57.034Z</time></trkpt><trkpt lat="42.2174933" lon="13.8173567"><ele>319.0</ele><time>2026-04-04T17:56:58.033Z</time></trkpt><trkpt lat="42.2173267" lon="13.8174117"><ele>319.0</ele><time>2026-04-04T17:56:59.034Z</time></trkpt><trkpt lat="42.21717" lon="13.8174733"><ele>319.0</ele><time>2026-04-04T17:57:00.034Z</time></trkpt><trkpt lat="42.2170217" lon="13.8175533"><ele>318.66666666666663</ele><time>2026-04-04T17:57:01.034Z</time></trkpt><trkpt lat="42.2168733" lon="13.817645"><ele>318.3333333333333</ele><time>2026-04-04T17:57:02.034Z</time></trkpt><trkpt lat="42.2167317" lon="13.8177467"><ele>318.0</ele><time>2026-04-04T17:57:03.034Z</time></trkpt><trkpt lat="42.2165933" lon="13.8178567"><ele>319.6666666666667</ele><time>2026-04-04T17:57:04.034Z</time></trkpt><trkpt lat="42.2164567" lon="13.81798"><ele>321.33333333333337</ele><time>2026-04-04T17:57:05.034Z</time></trkpt><trkpt lat="42.2163233" lon="13.8181217"><ele>323.0</ele><time>2026-04-04T17:57:06.034Z</time></trkpt><trkpt lat="42.2161967" lon="13.8182667"><ele>323.0</ele><time>2026-04-04T17:57:07.034Z</time></trkpt><trkpt lat="42.2160667" lon="13.8184133"><ele>323.0</ele><time>2026-04-04T17:57:08.034Z</time></trkpt><trkpt lat="42.2159467" lon="13.8185683"><ele>323.0</ele><time>2026-04-04T17:57:09.034Z</time></trkpt><trkpt lat="42.21582" lon="13.8187217"><ele>322.0</ele><time>2026-04-04T17:57:10.034Z</time></trkpt><trkpt lat="42.2156933" lon="13.81888"><ele>321.0</ele><time>2026-04-04T17:57:11.034Z</time></trkpt><trkpt lat="42.215565" lon="13.8190367"><ele>320.0</ele><time>2026-04-04T17:57:12.033Z</time></trkpt><trkpt lat="42.2154233" lon="13.8191883"><ele>320.0</ele><time>2026-04-04T17:57:13.034Z</time></trkpt><trkpt lat="42.2152683" lon="13.8193367"><ele>320.0</ele><time>2026-04-04T17:57:14.034Z</time></trkpt><trkpt lat="42.2151" lon="13.8194783"><ele>320.0</ele><time>2026-04-04T17:57:15.034Z</time></trkpt><trkpt lat="42.214925" lon="13.8196067"><ele>321.33333333333337</ele><time>2026-04-04T17:57:16.034Z</time></trkpt><trkpt lat="42.21475" lon="13.8197217"><ele>322.6666666666667</ele><time>2026-04-04T17:57:17.034Z</time></trkpt><trkpt lat="42.2145667" lon="13.819835"><ele>324.0</ele><time>2026-04-04T17:57:18.034Z</time></trkpt><trkpt lat="42.21439" lon="13.8199517"><ele>324.0</ele><time>2026-04-04T17:57:19.034Z</time></trkpt><trkpt lat="42.21423" lon="13.820065"><ele>324.0</ele><time>2026-04-04T17:57:20.033Z</time></trkpt><trkpt lat="42.2141117" lon="13.820145"><ele>324.0</ele><time>2026-04-04T17:57:21.034Z</time></trkpt><trkpt lat="42.2140167" lon="13.8202083"><ele>324.0</ele><time>2026-04-04T17:57:22.034Z</time></trkpt><trkpt lat="42.2139283" lon="13.8202617"><ele>322.2</ele><time>2026-04-04T17:57:23.034Z</time></trkpt><trkpt lat="42.213845" lon="13.82031"><ele>320.4</ele><time>2026-04-04T17:57:24.034Z</time></trkpt><trkpt lat="42.21376" lon="13.8203683"><ele>318.6</ele><time>2026-04-04T17:57:25.034Z</time></trkpt><trkpt lat="42.21368" lon="13.8204317"><ele>316.8</ele><time>2026-04-04T17:57:26.034Z</time></trkpt><trkpt lat="42.2135883" lon="13.8204883"><ele>315.0</ele><time>2026-04-04T17:57:27.034Z</time></trkpt><trkpt lat="42.2134933" lon="13.8205517"><ele>315.0</ele><time>2026-04-04T17:57:28.034Z</time></trkpt><trkpt lat="42.2133883" lon="13.8206267"><ele>315.0</ele><time>2026-04-04T17:57:29.034Z</time></trkpt><trkpt lat="42.2132783" lon="13.8206983"><ele>315.0</ele><time>2026-04-04T17:57:30.034Z</time></trkpt><trkpt lat="42.2131633" lon="13.8207633"><ele>315.0</ele><time>2026-04-04T17:57:31.034Z</time></trkpt><trkpt lat="42.2130417" lon="13.820835"><ele>315.0</ele><time>2026-04-04T17:57:32.034Z</time></trkpt><trkpt lat="42.2129183" lon="13.8209217"><ele>315.0</ele><time>2026-04-04T17:57:33.034Z</time></trkpt><trkpt lat="42.212785" lon="13.8210083"><ele>315.0</ele><time>2026-04-04T17:57:34.034Z</time></trkpt><trkpt lat="42.2126567" lon="13.8210917"><ele>315.0</ele><time>2026-04-04T17:57:35.034Z</time></trkpt><trkpt lat="42.212525" lon="13.821175"><ele>315.0</ele><time>2026-04-04T17:57:36.034Z</time></trkpt><trkpt lat="42.2123933" lon="13.8212617"><ele>315.0</ele><time>2026-04-04T17:57:37.034Z</time></trkpt><trkpt lat="42.21225" lon="13.821355"><ele>315.0</ele><time>2026-04-04T17:57:38.035Z</time></trkpt><trkpt lat="42.2120983" lon="13.8214483"><ele>315.3333333333333</ele><time>2026-04-04T17:57:39.035Z</time></trkpt><trkpt lat="42.2119467" lon="13.8215433"><ele>315.66666666666663</ele><time>2026-04-04T17:57:40.035Z</time></trkpt><trkpt lat="42.2117917" lon="13.8216417"><ele>316.0</ele><time>2026-04-04T17:57:41.035Z</time></trkpt><trkpt lat="42.2116333" lon="13.82175"><ele>314.66666666666663</ele><time>2026-04-04T17:57:42.035Z</time></trkpt><trkpt lat="42.2114767" lon="13.821855"><ele>313.3333333333333</ele><time>2026-04-04T17:57:43.035Z</time></trkpt><trkpt lat="42.211325" lon="13.82195"><ele>312.0</ele><time>2026-04-04T17:57:44.035Z</time></trkpt><trkpt lat="42.2111717" lon="13.8220467"><ele>312.0</ele><time>2026-04-04T17:57:45.035Z</time></trkpt><trkpt lat="42.2110233" lon="13.8221433"><ele>312.0</ele><time>2026-04-04T17:57:46.035Z</time></trkpt><trkpt lat="42.2108817" lon="13.82223"><ele>312.0</ele><time>2026-04-04T17:57:47.035Z</time></trkpt><trkpt lat="42.2107367" lon="13.8223233"><ele>311.6666666666667</ele><time>2026-04-04T17:57:48.035Z</time></trkpt><trkpt lat="42.210595" lon="13.8224167"><ele>311.33333333333337</ele><time>2026-04-04T17:57:49.035Z</time></trkpt><trkpt lat="42.2104517" lon="13.8225083"><ele>311.0</ele><time>2026-04-04T17:57:50.035Z</time></trkpt><trkpt lat="42.21031" lon="13.8226117"><ele>311.0</ele><time>2026-04-04T17:57:51.035Z</time></trkpt><trkpt lat="42.2101633" lon="13.8227"><ele>311.0</ele><time>2026-04-04T17:57:52.035Z</time></trkpt><trkpt lat="42.21001" lon="13.822795"><ele>311.0</ele><time>2026-04-04T17:57:53.035Z</time></trkpt><trkpt lat="42.2098533" lon="13.8228983"><ele>313.0</ele><time>2026-04-04T17:57:54.034Z</time></trkpt><trkpt lat="42.2096967" lon="13.8229883"><ele>315.0</ele><time>2026-04-04T17:57:55.035Z</time></trkpt><trkpt lat="42.2095467" lon="13.82309"><ele>317.0</ele><time>2026-04-04T17:57:56.035Z</time></trkpt><trkpt lat="42.2093967" lon="13.8231933"><ele>317.0</ele><time>2026-04-04T17:57:57.035Z</time></trkpt><trkpt lat="42.2092467" lon="13.823295"><ele>317.0</ele><time>2026-04-04T17:57:58.035Z</time></trkpt><trkpt lat="42.2090967" lon="13.8234"><ele>317.0</ele><time>2026-04-04T17:57:59.035Z</time></trkpt><trkpt lat="42.208955" lon="13.8235117"><ele>317.6666666666667</ele><time>2026-04-04T17:58:00.035Z</time></trkpt><trkpt lat="42.2088167" lon="13.8236317"><ele>318.3333333333333</ele><time>2026-04-04T17:58:01.035Z</time></trkpt><trkpt lat="42.2086717" lon="13.8237567"><ele>319.0</ele><time>2026-04-04T17:58:02.035Z</time></trkpt><trkpt lat="42.2085233" lon="13.8238867"><ele>319.0</ele><time>2026-04-04T17:58:03.035Z</time></trkpt><trkpt lat="42.2083817" lon="13.82403"><ele>319.0</ele><time>2026-04-04T17:58:04.035Z</time></trkpt><trkpt lat="42.208245" lon="13.8241767"><ele>319.0</ele><time>2026-04-04T17:58:05.035Z</time></trkpt><trkpt lat="42.208115" lon="13.8243433"><ele>322.3333333333333</ele><time>2026-04-04T17:58:06.035Z</time></trkpt><trkpt lat="42.2079867" lon="13.8245167"><ele>325.6666666666667</ele><time>2026-04-04T17:58:07.035Z</time></trkpt><trkpt lat="42.2078717" lon="13.8246883"><ele>329.0</ele><time>2026-04-04T17:58:08.035Z</time></trkpt><trkpt lat="42.207775" lon="13.824865"><ele>329.0</ele><time>2026-04-04T17:58:09.035Z</time></trkpt><trkpt lat="42.20767" lon="13.825045"><ele>329.0</ele><time>2026-04-04T17:58:10.035Z</time></trkpt><trkpt lat="42.2075683" lon="13.825235"><ele>329.0</ele><time>2026-04-04T17:58:11.035Z</time></trkpt><trkpt lat="42.2074733" lon="13.8254283"><ele>332.6666666666667</ele><time>2026-04-04T17:58:12.035Z</time></trkpt><trkpt lat="42.2073833" lon="13.8256133"><ele>336.3333333333333</ele><time>2026-04-04T17:58:13.035Z</time></trkpt><trkpt lat="42.2072833" lon="13.8258067"><ele>340.0</ele><time>2026-04-04T17:58:14.035Z</time></trkpt><trkpt lat="42.207175" lon="13.826005"><ele>331.0</ele><time>2026-04-04T17:58:15.035Z</time></trkpt><trkpt lat="42.2070617" lon="13.8261917"><ele>322.0</ele><time>2026-04-04T17:58:16.034Z</time></trkpt><trkpt lat="42.206935" lon="13.8263783"><ele>313.0</ele><time>2026-04-04T17:58:17.035Z</time></trkpt><trkpt lat="42.2067917" lon="13.8265667"><ele>313.0</ele><time>2026-04-04T17:58:18.034Z</time></trkpt><trkpt lat="42.2066483" lon="13.8267433"><ele>313.0</ele><time>2026-04-04T17:58:19.035Z</time></trkpt><trkpt lat="42.20651" lon="13.8269167"><ele>313.0</ele><time>2026-04-04T17:58:20.035Z</time></trkpt><trkpt lat="42.2063733" lon="13.8271"><ele>310.3333333333333</ele><time>2026-04-04T17:58:21.035Z</time></trkpt><trkpt lat="42.2062317" lon="13.8273017"><ele>307.6666666666667</ele><time>2026-04-04T17:58:22.035Z</time></trkpt><trkpt lat="42.2061083" lon="13.8275167"><ele>305.0</ele><time>2026-04-04T17:58:23.035Z</time></trkpt><trkpt lat="42.2060067" lon="13.8277483"><ele>305.0</ele><time>2026-04-04T17:58:24.035Z</time></trkpt><trkpt lat="42.2059217" lon="13.8279983"><ele>305.0</ele><time>2026-04-04T17:58:25.035Z</time></trkpt><trkpt lat="42.2058533" lon="13.8282583"><ele>305.0</ele><time>2026-04-04T17:58:26.035Z</time></trkpt><trkpt lat="42.2057967" lon="13.8285267"><ele>301.6666666666667</ele><time>2026-04-04T17:58:27.035Z</time></trkpt><trkpt lat="42.2057583" lon="13.8287983"><ele>298.3333333333333</ele><time>2026-04-04T17:58:28.035Z</time></trkpt><trkpt lat="42.2057167" lon="13.8290717"><ele>295.0</ele><time>2026-04-04T17:58:29.035Z</time></trkpt><trkpt lat="42.2056717" lon="13.8293633"><ele>298.0</ele><time>2026-04-04T17:58:30.035Z</time></trkpt><trkpt lat="42.205625" lon="13.82964"><ele>301.0</ele><time>2026-04-04T17:58:31.035Z</time></trkpt><trkpt lat="42.2055817" lon="13.8299167"><ele>304.0</ele><time>2026-04-04T17:58:32.035Z</time></trkpt><trkpt lat="42.20554" lon="13.8301867"><ele>304.0</ele><time>2026-04-04T17:58:33.035Z</time></trkpt><trkpt lat="42.2054983" lon="13.8304483"><ele>304.0</ele><time>2026-04-04T17:58:34.035Z</time></trkpt><trkpt lat="42.205445" lon="13.8307167"><ele>304.0</ele><time>2026-04-04T17:58:35.035Z</time></trkpt><trkpt lat="42.2054083" lon="13.830995"><ele>301.3333333333333</ele><time>2026-04-04T17:58:36.035Z</time></trkpt><trkpt lat="42.20535" lon="13.8312783"><ele>298.6666666666667</ele><time>2026-04-04T17:58:37.035Z</time></trkpt><trkpt lat="42.205275" lon="13.8315617"><ele>296.0</ele><time>2026-04-04T17:58:38.035Z</time></trkpt><trkpt lat="42.2052033" lon="13.8318483"><ele>289.0</ele><time>2026-04-04T17:58:39.035Z</time></trkpt><trkpt lat="42.20512" lon="13.83213"><ele>282.0</ele><time>2026-04-04T17:58:40.035Z</time></trkpt><trkpt lat="42.2050133" lon="13.8324383"><ele>275.0</ele><time>2026-04-04T17:58:41.035Z</time></trkpt><trkpt lat="42.2049167" lon="13.8327217"><ele>268.0</ele><time>2026-04-04T17:58:42.035Z</time></trkpt><trkpt lat="42.2048067" lon="13.833005"><ele>275.0</ele><time>2026-04-04T17:58:43.035Z</time></trkpt><trkpt lat="42.204695" lon="13.8332867"><ele>282.0</ele><time>2026-04-04T17:58:44.035Z</time></trkpt><trkpt lat="42.20458" lon="13.833565"><ele>282.0</ele><time>2026-04-04T17:58:45.034Z</time></trkpt><trkpt lat="42.2044617" lon="13.8338433"><ele>282.0</ele><time>2026-04-04T17:58:46.034Z</time></trkpt><trkpt lat="42.204345" lon="13.8341217"><ele>274.5</ele><time>2026-04-04T17:58:47.035Z</time></trkpt><trkpt lat="42.2042367" lon="13.8343967"><ele>267.0</ele><time>2026-04-04T17:58:48.035Z</time></trkpt><trkpt lat="42.20413" lon="13.834665"><ele>267.0</ele><time>2026-04-04T17:58:49.035Z</time></trkpt><trkpt lat="42.2040267" lon="13.834925"><ele>267.0</ele><time>2026-04-04T17:58:50.035Z</time></trkpt><trkpt lat="42.203925" lon="13.8351717"><ele>267.0</ele><time>2026-04-04T17:58:51.035Z</time></trkpt><trkpt lat="42.2038333" lon="13.8354067"><ele>269.6666666666667</ele><time>2026-04-04T17:58:52.034Z</time></trkpt><trkpt lat="42.203745" lon="13.83563"><ele>272.33333333333337</ele><time>2026-04-04T17:58:53.035Z</time></trkpt><trkpt lat="42.2036383" lon="13.8358383"><ele>275.0</ele><time>2026-04-04T17:58:54.035Z</time></trkpt><trkpt lat="42.2035183" lon="13.836045"><ele>271.33333333333337</ele><time>2026-04-04T17:58:55.035Z</time></trkpt><trkpt lat="42.2033817" lon="13.8362333"><ele>267.6666666666667</ele><time>2026-04-04T17:58:56.035Z</time></trkpt><trkpt lat="42.2032283" lon="13.8364083"><ele>264.0</ele><time>2026-04-04T17:58:57.034Z</time></trkpt><trkpt lat="42.2030483" lon="13.836585"><ele>264.0</ele><time>2026-04-04T17:58:58.035Z</time></trkpt><trkpt lat="42.202865" lon="13.836745"><ele>264.0</ele><time>2026-04-04T17:58:59.035Z</time></trkpt><trkpt lat="42.202675" lon="13.8368817"><ele>264.0</ele><time>2026-04-04T17:59:00.035Z</time></trkpt><trkpt lat="42.2024767" lon="13.8369967"><ele>259.0</ele><time>2026-04-04T17:59:01.035Z</time></trkpt><trkpt lat="42.202265" lon="13.8370967"><ele>254.0</ele><time>2026-04-04T17:59:02.035Z</time></trkpt><trkpt lat="42.2020467" lon="13.8371817"><ele>254.0</ele><time>2026-04-04T17:59:03.035Z</time></trkpt><trkpt lat="42.2018333" lon="13.8372383"><ele>254.0</ele><time>2026-04-04T17:59:04.035Z</time></trkpt><trkpt lat="42.20162" lon="13.837285"><ele>254.0</ele><time>2026-04-04T17:59:05.035Z</time></trkpt><trkpt lat="42.2014" lon="13.8373167"><ele>255.5</ele><time>2026-04-04T17:59:06.035Z</time></trkpt><trkpt lat="42.201175" lon="13.8373433"><ele>257.0</ele><time>2026-04-04T17:59:07.035Z</time></trkpt><trkpt lat="42.2009483" lon="13.8373767"><ele>257.0</ele><time>2026-04-04T17:59:08.035Z</time></trkpt><trkpt lat="42.2007283" lon="13.83741"><ele>257.0</ele><time>2026-04-04T17:59:09.035Z</time></trkpt><trkpt lat="42.2005117" lon="13.83745"><ele>257.0</ele><time>2026-04-04T17:59:10.035Z</time></trkpt><trkpt lat="42.200295" lon="13.837475"><ele>259.0</ele><time>2026-04-04T17:59:11.035Z</time></trkpt><trkpt lat="42.200085" lon="13.8374983"><ele>261.0</ele><time>2026-04-04T17:59:12.035Z</time></trkpt><trkpt lat="42.1998783" lon="13.8375233"><ele>263.0</ele><time>2026-04-04T17:59:13.035Z</time></trkpt><trkpt lat="42.1996817" lon="13.8375583"><ele>265.0</ele><time>2026-04-04T17:59:14.035Z</time></trkpt><trkpt lat="42.1994967" lon="13.8375967"><ele>267.0</ele><time>2026-04-04T17:59:15.035Z</time></trkpt><trkpt lat="42.1993183" lon="13.83762"><ele>269.0</ele><time>2026-04-04T17:59:16.035Z</time></trkpt><trkpt lat="42.1991467" lon="13.8376333"><ele>268.0</ele><time>2026-04-04T17:59:17.035Z</time></trkpt><trkpt lat="42.1989767" lon="13.8376183"><ele>267.0</ele><time>2026-04-04T17:59:18.035Z</time></trkpt><trkpt lat="42.1987933" lon="13.8375783"><ele>266.0</ele><time>2026-04-04T17:59:19.035Z</time></trkpt><trkpt lat="42.1986133" lon="13.8375233"><ele>266.0</ele><time>2026-04-04T17:59:20.035Z</time></trkpt><trkpt lat="42.1984267" lon="13.8374767"><ele>266.0</ele><time>2026-04-04T17:59:21.035Z</time></trkpt><trkpt lat="42.1982367" lon="13.8374433"><ele>266.0</ele><time>2026-04-04T17:59:22.035Z</time></trkpt><trkpt lat="42.1980483" lon="13.8374217"><ele>265.33333333333337</ele><time>2026-04-04T17:59:23.035Z</time></trkpt><trkpt lat="42.1978583" lon="13.8374283"><ele>264.6666666666667</ele><time>2026-04-04T17:59:24.035Z</time></trkpt><trkpt lat="42.1976667" lon="13.8374667"><ele>264.0</ele><time>2026-04-04T17:59:25.035Z</time></trkpt><trkpt lat="42.1974883" lon="13.837525"><ele>265.6666666666667</ele><time>2026-04-04T17:59:26.035Z</time></trkpt><trkpt lat="42.1973117" lon="13.8376117"><ele>267.33333333333337</ele><time>2026-04-04T17:59:27.034Z</time></trkpt><trkpt lat="42.1971333" lon="13.8377267"><ele>269.0</ele><time>2026-04-04T17:59:28.035Z</time></trkpt><trkpt lat="42.1969667" lon="13.8378633"><ele>269.0</ele><time>2026-04-04T17:59:29.035Z</time></trkpt><trkpt lat="42.1968067" lon="13.838015"><ele>269.0</ele><time>2026-04-04T17:59:30.035Z</time></trkpt><trkpt lat="42.196655" lon="13.8381917"><ele>269.0</ele><time>2026-04-04T17:59:31.035Z</time></trkpt><trkpt lat="42.196515" lon="13.8383833"><ele>278.33333333333337</ele><time>2026-04-04T17:59:32.035Z</time></trkpt><trkpt lat="42.19638" lon="13.8385933"><ele>287.6666666666667</ele><time>2026-04-04T17:59:33.035Z</time></trkpt><trkpt lat="42.1962667" lon="13.8388083"><ele>297.0</ele><time>2026-04-04T17:59:34.035Z</time></trkpt><trkpt lat="42.1961733" lon="13.8390417"><ele>291.6666666666667</ele><time>2026-04-04T17:59:35.035Z</time></trkpt><trkpt lat="42.196105" lon="13.8393033"><ele>286.33333333333337</ele><time>2026-04-04T17:59:36.034Z</time></trkpt><trkpt lat="42.1960467" lon="13.839575"><ele>281.0</ele><time>2026-04-04T17:59:37.035Z</time></trkpt><trkpt lat="42.196005" lon="13.8398567"><ele>279.0</ele><time>2026-04-04T17:59:38.035Z</time></trkpt><trkpt lat="42.19599" lon="13.8401467"><ele>277.0</ele><time>2026-04-04T17:59:39.035Z</time></trkpt><trkpt lat="42.195985" lon="13.840435"><ele>275.0</ele><time>2026-04-04T17:59:40.035Z</time></trkpt><trkpt lat="42.19598" lon="13.840725"><ele>272.33333333333337</ele><time>2026-04-04T17:59:41.034Z</time></trkpt><trkpt lat="42.1959683" lon="13.840995"><ele>269.6666666666667</ele><time>2026-04-04T17:59:42.035Z</time></trkpt><trkpt lat="42.1959483" lon="13.84126"><ele>267.0</ele><time>2026-04-04T17:59:43.035Z</time></trkpt><trkpt lat="42.1959083" lon="13.84152"><ele>267.0</ele><time>2026-04-04T17:59:44.035Z</time></trkpt><trkpt lat="42.19585" lon="13.8417567"><ele>267.0</ele><time>2026-04-04T17:59:45.035Z</time></trkpt><trkpt lat="42.1957783" lon="13.8419967"><ele>267.0</ele><time>2026-04-04T17:59:46.035Z</time></trkpt><trkpt lat="42.1956883" lon="13.842225"><ele>283.6666666666667</ele><time>2026-04-04T17:59:47.035Z</time></trkpt><trkpt lat="42.1955867" lon="13.8424333"><ele>300.33333333333337</ele><time>2026-04-04T17:59:48.035Z</time></trkpt><trkpt lat="42.19547" lon="13.8426217"><ele>317.0</ele><time>2026-04-04T17:59:49.035Z</time></trkpt><trkpt lat="42.1953517" lon="13.8428"><ele>321.33333333333337</ele><time>2026-04-04T17:59:50.035Z</time></trkpt><trkpt lat="42.1952183" lon="13.8429767"><ele>325.6666666666667</ele><time>2026-04-04T17:59:51.035Z</time></trkpt><trkpt lat="42.1950783" lon="13.8431533"><ele>330.0</ele><time>2026-04-04T17:59:52.035Z</time></trkpt><trkpt lat="42.1949333" lon="13.8433383"><ele>340.0</ele><time>2026-04-04T17:59:53.035Z</time></trkpt><trkpt lat="42.1947967" lon="13.843535"><ele>350.0</ele><time>2026-04-04T17:59:54.035Z</time></trkpt><trkpt lat="42.1946517" lon="13.8437333"><ele>360.0</ele><time>2026-04-04T17:59:55.035Z</time></trkpt><trkpt lat="42.19451" lon="13.8439267"><ele>360.0</ele><time>2026-04-04T17:59:56.035Z</time></trkpt><trkpt lat="42.19437" lon="13.8441167"><ele>360.0</ele><time>2026-04-04T17:59:57.035Z</time></trkpt><trkpt lat="42.1942333" lon="13.844305"><ele>360.0</ele><time>2026-04-04T17:59:58.034Z</time></trkpt><trkpt lat="42.194125" lon="13.8445233"><ele>354.6666666666667</ele><time>2026-04-04T17:59:59.035Z</time></trkpt><trkpt lat="42.1940267" lon="13.8447517"><ele>349.33333333333337</ele><time>2026-04-04T18:00:00.035Z</time></trkpt><trkpt lat="42.1939417" lon="13.84499"><ele>344.0</ele><time>2026-04-04T18:00:01.035Z</time></trkpt><trkpt lat="42.19387" lon="13.84524"><ele>247.0</ele><time>2026-04-04T18:00:02.035Z</time></trkpt><trkpt lat="42.1917617" lon="13.8465033"><ele>247.0</ele><time>2026-04-04T18:00:11.029Z</time></trkpt><trkpt lat="42.19164" lon="13.8466167"><ele>247.0</ele><time>2026-04-04T18:00:12.029Z</time></trkpt><trkpt lat="42.1914983" lon="13.8467517"><ele>247.0</ele><time>2026-04-04T18:00:13.029Z</time></trkpt><trkpt lat="42.1913733" lon="13.846875"><ele>246.25</ele><time>2026-04-04T18:00:14.029Z</time></trkpt><trkpt lat="42.1912683" lon="13.846985"><ele>245.5</ele><time>2026-04-04T18:00:15.029Z</time></trkpt><trkpt lat="42.19116" lon="13.8471"><ele>244.75</ele><time>2026-04-04T18:00:16.029Z</time></trkpt><trkpt lat="42.19107" lon="13.8472133"><ele>244.0</ele><time>2026-04-04T18:00:17.029Z</time></trkpt><trkpt lat="42.1909367" lon="13.8472983"><ele>244.0</ele><time>2026-04-04T18:00:18.029Z</time></trkpt><trkpt lat="42.1908417" lon="13.8473933"><ele>244.0</ele><time>2026-04-04T18:00:19.029Z</time></trkpt><trkpt lat="42.1907317" lon="13.8474767"><ele>244.0</ele><time>2026-04-04T18:00:20.029Z</time></trkpt><trkpt lat="42.1906233" lon="13.8475517"><ele>244.0</ele><time>2026-04-04T18:00:21.029Z</time></trkpt><trkpt lat="42.1905333" lon="13.8475917"><ele>244.25</ele><time>2026-04-04T18:00:22.029Z</time></trkpt><trkpt lat="42.19044" lon="13.8475933"><ele>244.5</ele><time>2026-04-04T18:00:23.029Z</time></trkpt><trkpt lat="42.1903467" lon="13.8475483"><ele>244.75</ele><time>2026-04-04T18:00:24.029Z</time></trkpt><trkpt lat="42.19024" lon="13.847455"><ele>245.0</ele><time>2026-04-04T18:00:25.029Z</time></trkpt><trkpt lat="42.1901333" lon="13.8473183"><ele>245.0</ele><time>2026-04-04T18:00:26.029Z</time></trkpt><trkpt lat="42.1900367" lon="13.8471633"><ele>245.0</ele><time>2026-04-04T18:00:27.029Z</time></trkpt><trkpt lat="42.1899483" lon="13.846985"><ele>245.0</ele><time>2026-04-04T18:00:28.029Z</time></trkpt><trkpt lat="42.1898583" lon="13.8468017"><ele>249.66666666666669</ele><time>2026-04-04T18:00:29.029Z</time></trkpt><trkpt lat="42.1897633" lon="13.8466083"><ele>254.33333333333331</ele><time>2026-04-04T18:00:30.029Z</time></trkpt><trkpt lat="42.1896683" lon="13.8464083"><ele>259.0</ele><time>2026-04-04T18:00:31.029Z</time></trkpt><trkpt lat="42.1895667" lon="13.8462017"><ele>259.0</ele><time>2026-04-04T18:00:32.029Z</time></trkpt><trkpt lat="42.1894633" lon="13.8459933"><ele>259.0</ele><time>2026-04-04T18:00:33.029Z</time></trkpt><trkpt lat="42.1893583" lon="13.845785"><ele>259.0</ele><time>2026-04-04T18:00:34.029Z</time></trkpt><trkpt lat="42.18925" lon="13.8455817"><ele>257.0</ele><time>2026-04-04T18:00:35.029Z</time></trkpt><trkpt lat="42.1891483" lon="13.8453817"><ele>255.0</ele><time>2026-04-04T18:00:36.028Z</time></trkpt><trkpt lat="42.1890433" lon="13.8451933"><ele>253.0</ele><time>2026-04-04T18:00:37.029Z</time></trkpt><trkpt lat="42.1889317" lon="13.8450083"><ele>259.3333333333333</ele><time>2026-04-04T18:00:38.029Z</time></trkpt><trkpt lat="42.1888317" lon="13.8448333"><ele>265.6666666666667</ele><time>2026-04-04T18:00:39.029Z</time></trkpt><trkpt lat="42.1887233" lon="13.844665"><ele>272.0</ele><time>2026-04-04T18:00:40.029Z</time></trkpt><trkpt lat="42.1885917" lon="13.844525"><ele>272.0</ele><time>2026-04-04T18:00:41.029Z</time></trkpt><trkpt lat="42.1884517" lon="13.8444117"><ele>272.0</ele><time>2026-04-04T18:00:42.029Z</time></trkpt><trkpt lat="42.1882967" lon="13.84431"><ele>272.0</ele><time>2026-04-04T18:00:43.029Z</time></trkpt><trkpt lat="42.1881333" lon="13.8442133"><ele>268.0</ele><time>2026-04-04T18:00:44.029Z</time></trkpt><trkpt lat="42.1879583" lon="13.8441233"><ele>264.0</ele><time>2026-04-04T18:00:45.029Z</time></trkpt><trkpt lat="42.1877867" lon="13.844055"><ele>260.0</ele><time>2026-04-04T18:00:46.028Z</time></trkpt><trkpt lat="42.1876233" lon="13.8439633"><ele>260.0</ele><time>2026-04-04T18:00:47.029Z</time></trkpt><trkpt lat="42.1874567" lon="13.8438717"><ele>260.0</ele><time>2026-04-04T18:00:48.029Z</time></trkpt><trkpt lat="42.1872883" lon="13.843775"><ele>260.0</ele><time>2026-04-04T18:00:49.029Z</time></trkpt><trkpt lat="42.1871183" lon="13.8436583"><ele>263.33333333333337</ele><time>2026-04-04T18:00:50.029Z</time></trkpt><trkpt lat="42.1869417" lon="13.8435333"><ele>266.6666666666667</ele><time>2026-04-04T18:00:51.029Z</time></trkpt><trkpt lat="42.1867717" lon="13.8433983"><ele>270.0</ele><time>2026-04-04T18:00:52.029Z</time></trkpt><trkpt lat="42.1866017" lon="13.84328"><ele>268.0</ele><time>2026-04-04T18:00:53.029Z</time></trkpt><trkpt lat="42.1864367" lon="13.843165"><ele>266.0</ele><time>2026-04-04T18:00:54.029Z</time></trkpt><trkpt lat="42.18628" lon="13.8430533"><ele>264.0</ele><time>2026-04-04T18:00:55.029Z</time></trkpt><trkpt lat="42.18612" lon="13.842955"><ele>264.0</ele><time>2026-04-04T18:00:56.029Z</time></trkpt><trkpt lat="42.1859583" lon="13.842825"><ele>264.0</ele><time>2026-04-04T18:00:57.029Z</time></trkpt><trkpt lat="42.1858017" lon="13.842685"><ele>264.0</ele><time>2026-04-04T18:00:58.029Z</time></trkpt><trkpt lat="42.18565" lon="13.8425267"><ele>263.0</ele><time>2026-04-04T18:00:59.029Z</time></trkpt><trkpt lat="42.1854917" lon="13.8423617"><ele>262.0</ele><time>2026-04-04T18:01:00.029Z</time></trkpt><trkpt lat="42.1853333" lon="13.842205"><ele>261.0</ele><time>2026-04-04T18:01:01.029Z</time></trkpt><trkpt lat="42.1851667" lon="13.8420617"><ele>261.0</ele><time>2026-04-04T18:01:02.029Z</time></trkpt><trkpt lat="42.1849817" lon="13.8419467"><ele>261.0</ele><time>2026-04-04T18:01:03.029Z</time></trkpt><trkpt lat="42.1847917" lon="13.8418433"><ele>261.0</ele><time>2026-04-04T18:01:04.029Z</time></trkpt><trkpt lat="42.1846033" lon="13.8417333"><ele>259.6666666666667</ele><time>2026-04-04T18:01:05.029Z</time></trkpt><trkpt lat="42.184425" lon="13.8416317"><ele>258.33333333333337</ele><time>2026-04-04T18:01:06.029Z</time></trkpt><trkpt lat="42.184245" lon="13.8415333"><ele>257.0</ele><time>2026-04-04T18:01:07.029Z</time></trkpt><trkpt lat="42.184065" lon="13.84143"><ele>260.0</ele><time>2026-04-04T18:01:08.029Z</time></trkpt><trkpt lat="42.1838867" lon="13.8413167"><ele>263.0</ele><time>2026-04-04T18:01:09.029Z</time></trkpt><trkpt lat="42.183715" lon="13.8411867"><ele>266.0</ele><time>2026-04-04T18:01:10.029Z</time></trkpt><trkpt lat="42.18355" lon="13.8410517"><ele>263.0</ele><time>2026-04-04T18:01:11.029Z</time></trkpt><trkpt lat="42.1833983" lon="13.8409217"><ele>260.0</ele><time>2026-04-04T18:01:12.029Z</time></trkpt><trkpt lat="42.183235" lon="13.8408267"><ele>257.0</ele><time>2026-04-04T18:01:13.029Z</time></trkpt><trkpt lat="42.1830683" lon="13.8407567"><ele>257.0</ele><time>2026-04-04T18:01:14.029Z</time></trkpt><trkpt lat="42.1829033" lon="13.8407183"><ele>257.0</ele><time>2026-04-04T18:01:15.029Z</time></trkpt><trkpt lat="42.1827383" lon="13.840675"><ele>257.0</ele><time>2026-04-04T18:01:16.029Z</time></trkpt><trkpt lat="42.1825883" lon="13.84061"><ele>257.0</ele><time>2026-04-04T18:01:17.029Z</time></trkpt><trkpt lat="42.1824533" lon="13.840515"><ele>257.0</ele><time>2026-04-04T18:01:18.029Z</time></trkpt><trkpt lat="42.1823217" lon="13.840385"><ele>257.0</ele><time>2026-04-04T18:01:19.029Z</time></trkpt><trkpt lat="42.1822" lon="13.8402367"><ele>257.33333333333337</ele><time>2026-04-04T18:01:20.029Z</time></trkpt><trkpt lat="42.1820783" lon="13.8400717"><ele>257.6666666666667</ele><time>2026-04-04T18:01:21.029Z</time></trkpt><trkpt lat="42.1819617" lon="13.8398983"><ele>258.0</ele><time>2026-04-04T18:01:22.029Z</time></trkpt><trkpt lat="42.1818217" lon="13.8397417"><ele>258.0</ele><time>2026-04-04T18:01:23.029Z</time></trkpt><trkpt lat="42.1816567" lon="13.8396333"><ele>258.0</ele><time>2026-04-04T18:01:24.029Z</time></trkpt><trkpt lat="42.18147" lon="13.8395233"><ele>258.0</ele><time>2026-04-04T18:01:25.029Z</time></trkpt><trkpt lat="42.181285" lon="13.83942"><ele>256.0</ele><time>2026-04-04T18:01:26.029Z</time></trkpt><trkpt lat="42.181115" lon="13.8393317"><ele>254.0</ele><time>2026-04-04T18:01:27.029Z</time></trkpt><trkpt lat="42.1809533" lon="13.839245"><ele>252.0</ele><time>2026-04-04T18:01:28.029Z</time></trkpt><trkpt lat="42.18079" lon="13.8391683"><ele>251.33333333333331</ele><time>2026-04-04T18:01:29.029Z</time></trkpt><trkpt lat="42.180625" lon="13.83912"><ele>250.66666666666666</ele><time>2026-04-04T18:01:30.029Z</time></trkpt><trkpt lat="42.1804533" lon="13.839085"><ele>250.0</ele><time>2026-04-04T18:01:31.029Z</time></trkpt><trkpt lat="42.18027" lon="13.8390567"><ele>250.0</ele><time>2026-04-04T18:01:32.029Z</time></trkpt><trkpt lat="42.1800883" lon="13.83907"><ele>250.0</ele><time>2026-04-04T18:01:33.029Z</time></trkpt><trkpt lat="42.179905" lon="13.8391267"><ele>250.0</ele><time>2026-04-04T18:01:34.028Z</time></trkpt><trkpt lat="42.17973" lon="13.83919"><ele>248.33333333333331</ele><time>2026-04-04T18:01:35.029Z</time></trkpt><trkpt lat="42.1795517" lon="13.83925"><ele>246.66666666666669</ele><time>2026-04-04T18:01:36.029Z</time></trkpt><trkpt lat="42.1793783" lon="13.83931"><ele>245.0</ele><time>2026-04-04T18:01:37.029Z</time></trkpt><trkpt lat="42.179215" lon="13.8393583"><ele>254.0</ele><time>2026-04-04T18:01:38.029Z</time></trkpt><trkpt lat="42.1790533" lon="13.8393933"><ele>263.0</ele><time>2026-04-04T18:01:39.029Z</time></trkpt><trkpt lat="42.1788833" lon="13.839375"><ele>272.0</ele><time>2026-04-04T18:01:40.029Z</time></trkpt><trkpt lat="42.178715" lon="13.8393117"><ele>265.0</ele><time>2026-04-04T18:01:41.029Z</time></trkpt><trkpt lat="42.1785467" lon="13.8392283"><ele>258.0</ele><time>2026-04-04T18:01:42.029Z</time></trkpt><trkpt lat="42.1783767" lon="13.8391233"><ele>251.0</ele><time>2026-04-04T18:01:43.029Z</time></trkpt><trkpt lat="42.178205" lon="13.839025"><ele>253.33333333333334</ele><time>2026-04-04T18:01:44.029Z</time></trkpt><trkpt lat="42.1780283" lon="13.83893"><ele>255.66666666666669</ele><time>2026-04-04T18:01:45.028Z</time></trkpt><trkpt lat="42.1778567" lon="13.8388517"><ele>258.0</ele><time>2026-04-04T18:01:46.029Z</time></trkpt><trkpt lat="42.17771" lon="13.838785"><ele>258.0</ele><time>2026-04-04T18:01:47.029Z</time></trkpt><trkpt lat="42.1775783" lon="13.8387133"><ele>258.0</ele><time>2026-04-04T18:01:48.029Z</time></trkpt><trkpt lat="42.1774633" lon="13.8386683"><ele>258.0</ele><time>2026-04-04T18:01:49.029Z</time></trkpt><trkpt lat="42.1773467" lon="13.83861"><ele>258.0</ele><time>2026-04-04T18:01:50.029Z</time></trkpt><trkpt lat="42.17724" lon="13.8385467"><ele>257.0</ele><time>2026-04-04T18:01:51.029Z</time></trkpt><trkpt lat="42.1771367" lon="13.8384867"><ele>256.0</ele><time>2026-04-04T18:01:52.029Z</time></trkpt><trkpt lat="42.17704" lon="13.8384067"><ele>255.0</ele><time>2026-04-04T18:01:53.029Z</time></trkpt><trkpt lat="42.1769517" lon="13.8383217"><ele>254.0</ele><time>2026-04-04T18:01:54.029Z</time></trkpt><trkpt lat="42.1768667" lon="13.838235"><ele>253.0</ele><time>2026-04-04T18:01:55.029Z</time></trkpt><trkpt lat="42.17678" lon="13.8381383"><ele>253.0</ele><time>2026-04-04T18:01:56.029Z</time></trkpt><trkpt lat="42.176705" lon="13.838045"><ele>253.0</ele><time>2026-04-04T18:01:57.028Z</time></trkpt><trkpt lat="42.1766333" lon="13.8379567"><ele>253.0</ele><time>2026-04-04T18:01:58.029Z</time></trkpt><trkpt lat="42.1765583" lon="13.8378683"><ele>253.0</ele><time>2026-04-04T18:01:59.029Z</time></trkpt><trkpt lat="42.1764883" lon="13.8377717"><ele>253.0</ele><time>2026-04-04T18:02:00.028Z</time></trkpt><trkpt lat="42.1764183" lon="13.8376633"><ele>254.0</ele><time>2026-04-04T18:02:01.029Z</time></trkpt><trkpt lat="42.17635" lon="13.8375583"><ele>255.0</ele><time>2026-04-04T18:02:02.029Z</time></trkpt><trkpt lat="42.17628" lon="13.837465"><ele>256.0</ele><time>2026-04-04T18:02:03.029Z</time></trkpt><trkpt lat="42.1762117" lon="13.8373717"><ele>257.0</ele><time>2026-04-04T18:02:04.029Z</time></trkpt><trkpt lat="42.1761517" lon="13.83729"><ele>258.0</ele><time>2026-04-04T18:02:05.029Z</time></trkpt><trkpt lat="42.1760917" lon="13.8372133"><ele>258.0</ele><time>2026-04-04T18:02:06.029Z</time></trkpt><trkpt lat="42.176015" lon="13.83714"><ele>258.0</ele><time>2026-04-04T18:02:07.029Z</time></trkpt><trkpt lat="42.1759433" lon="13.8370633"><ele>258.0</ele><time>2026-04-04T18:02:08.029Z</time></trkpt><trkpt lat="42.1758633" lon="13.8369817"><ele>258.0</ele><time>2026-04-04T18:02:09.029Z</time></trkpt><trkpt lat="42.1757817" lon="13.83687"><ele>258.0</ele><time>2026-04-04T18:02:10.029Z</time></trkpt><trkpt lat="42.1757033" lon="13.83676"><ele>263.25</ele><time>2026-04-04T18:02:11.029Z</time></trkpt><trkpt lat="42.175625" lon="13.8366217"><ele>268.5</ele><time>2026-04-04T18:02:12.029Z</time></trkpt><trkpt lat="42.1755483" lon="13.8364833"><ele>273.75</ele><time>2026-04-04T18:02:13.029Z</time></trkpt><trkpt lat="42.1754783" lon="13.83634"><ele>279.0</ele><time>2026-04-04T18:02:14.028Z</time></trkpt><trkpt lat="42.1754133" lon="13.836205"><ele>279.0</ele><time>2026-04-04T18:02:15.029Z</time></trkpt><trkpt lat="42.17534" lon="13.83606"><ele>279.0</ele><time>2026-04-04T18:02:16.029Z</time></trkpt><trkpt lat="42.17528" lon="13.8359233"><ele>279.0</ele><time>2026-04-04T18:02:17.029Z</time></trkpt><trkpt lat="42.1752233" lon="13.8357933"><ele>279.0</ele><time>2026-04-04T18:02:18.029Z</time></trkpt><trkpt lat="42.1751767" lon="13.8356483"><ele>274.59999999999997</ele><time>2026-04-04T18:02:19.029Z</time></trkpt><trkpt lat="42.1751317" lon="13.8355317"><ele>270.2</ele><time>2026-04-04T18:02:20.029Z</time></trkpt><trkpt lat="42.175105" lon="13.8354067"><ele>265.79999999999995</ele><time>2026-04-04T18:02:21.029Z</time></trkpt><trkpt lat="42.1751183" lon="13.83527"><ele>261.4</ele><time>2026-04-04T18:02:22.029Z</time></trkpt><trkpt lat="42.1751383" lon="13.8351267"><ele>257.0</ele><time>2026-04-04T18:02:23.029Z</time></trkpt><trkpt lat="42.1751683" lon="13.834975"><ele>254.75</ele><time>2026-04-04T18:02:24.029Z</time></trkpt><trkpt lat="42.175195" lon="13.8348083"><ele>252.5</ele><time>2026-04-04T18:02:25.029Z</time></trkpt><trkpt lat="42.1752317" lon="13.834635"><ele>250.25</ele><time>2026-04-04T18:02:26.029Z</time></trkpt><trkpt lat="42.1752633" lon="13.83447"><ele>248.0</ele><time>2026-04-04T18:02:27.029Z</time></trkpt><trkpt lat="42.1752883" lon="13.8343017"><ele>248.0</ele><time>2026-04-04T18:02:28.029Z</time></trkpt><trkpt lat="42.1753133" lon="13.8341383"><ele>248.0</ele><time>2026-04-04T18:02:29.029Z</time></trkpt><trkpt lat="42.1753367" lon="13.8339567"><ele>248.0</ele><time>2026-04-04T18:02:30.028Z</time></trkpt><trkpt lat="42.1753617" lon="13.8337717"><ele>248.0</ele><time>2026-04-04T18:02:31.028Z</time></trkpt><trkpt lat="42.175395" lon="13.8335917"><ele>247.5</ele><time>2026-04-04T18:02:32.029Z</time></trkpt><trkpt lat="42.1754217" lon="13.8334233"><ele>247.0</ele><time>2026-04-04T18:02:33.028Z</time></trkpt><trkpt lat="42.1754483" lon="13.833265"><ele>246.5</ele><time>2026-04-04T18:02:34.029Z</time></trkpt><trkpt lat="42.1754767" lon="13.83312"><ele>246.0</ele><time>2026-04-04T18:02:35.029Z</time></trkpt><trkpt lat="42.1754967" lon="13.8329717"><ele>246.0</ele><time>2026-04-04T18:02:36.029Z</time></trkpt><trkpt lat="42.175525" lon="13.83283"><ele>246.00000000000003</ele><time>2026-04-04T18:02:37.029Z</time></trkpt><trkpt lat="42.1755533" lon="13.8326817"><ele>246.00000000000003</ele><time>2026-04-04T18:02:38.029Z</time></trkpt><trkpt lat="42.1755733" lon="13.8325417"><ele>246.0</ele><time>2026-04-04T18:02:39.029Z</time></trkpt><trkpt lat="42.1755867" lon="13.8324067"><ele>246.0</ele><time>2026-04-04T18:02:40.029Z</time></trkpt><trkpt lat="42.1755883" lon="13.832265"><ele>246.20000000000002</ele><time>2026-04-04T18:02:41.029Z</time></trkpt><trkpt lat="42.1755817" lon="13.8321167"><ele>246.40000000000003</ele><time>2026-04-04T18:02:42.029Z</time></trkpt><trkpt lat="42.17556" lon="13.83196"><ele>246.6</ele><time>2026-04-04T18:02:43.029Z</time></trkpt><trkpt lat="42.1755333" lon="13.83181"><ele>246.8</ele><time>2026-04-04T18:02:44.029Z</time></trkpt><trkpt lat="42.1754967" lon="13.8316833"><ele>247.0</ele><time>2026-04-04T18:02:45.029Z</time></trkpt><trkpt lat="42.17546" lon="13.831585"><ele>247.16666666666666</ele><time>2026-04-04T18:02:46.029Z</time></trkpt><trkpt lat="42.17542" lon="13.831495"><ele>247.33333333333331</ele><time>2026-04-04T18:02:47.029Z</time></trkpt><trkpt lat="42.1753733" lon="13.8314117"><ele>247.5</ele><time>2026-04-04T18:02:48.029Z</time></trkpt><trkpt lat="42.17532" lon="13.831335"><ele>247.66666666666669</ele><time>2026-04-04T18:02:49.029Z</time></trkpt><trkpt lat="42.1752567" lon="13.831255"><ele>247.83333333333334</ele><time>2026-04-04T18:02:50.029Z</time></trkpt><trkpt lat="42.1751817" lon="13.8311783"><ele>248.0</ele><time>2026-04-04T18:02:51.029Z</time></trkpt><trkpt lat="42.1751067" lon="13.8311183"><ele>248.00000000000003</ele><time>2026-04-04T18:02:52.029Z</time></trkpt><trkpt lat="42.1750367" lon="13.83106"><ele>248.0</ele><time>2026-04-04T18:02:53.029Z</time></trkpt><trkpt lat="42.17496" lon="13.8310117"><ele>248.0</ele><time>2026-04-04T18:02:54.029Z</time></trkpt><trkpt lat="42.174895" lon="13.8309733"><ele>248.0</ele><time>2026-04-04T18:02:55.029Z</time></trkpt><trkpt lat="42.174835" lon="13.830935"><ele>248.00000000000003</ele><time>2026-04-04T18:02:56.029Z</time></trkpt><trkpt lat="42.1747767" lon="13.8308917"><ele>248.0</ele><time>2026-04-04T18:02:57.029Z</time></trkpt><trkpt lat="42.1747133" lon="13.8307983"><ele>247.85714285714286</ele><time>2026-04-04T18:02:59.028Z</time></trkpt><trkpt lat="42.1747217" lon="13.8307133"><ele>247.71428571428572</ele><time>2026-04-04T18:03:01.029Z</time></trkpt><trkpt lat="42.1747633" lon="13.8306333"><ele>247.57142857142858</ele><time>2026-04-04T18:03:03.029Z</time></trkpt><trkpt lat="42.1748083" lon="13.8305567"><ele>247.42857142857144</ele><time>2026-04-04T18:03:05.029Z</time></trkpt><trkpt lat="42.1748533" lon="13.830465"><ele>247.28571428571428</ele><time>2026-04-04T18:03:07.029Z</time></trkpt><trkpt lat="42.174885" lon="13.830385"><ele>247.14285714285717</ele><time>2026-04-04T18:03:09.029Z</time></trkpt><trkpt lat="42.174875" lon="13.8303"><ele>247.0</ele><time>2026-04-04T18:03:11.029Z</time></trkpt><trkpt lat="42.1748" lon="13.8301933"><ele>247.2</ele><time>2026-04-04T18:03:14.029Z</time></trkpt><trkpt lat="42.174715" lon="13.830085"><ele>247.39999999999998</ele><time>2026-04-04T18:03:16.028Z</time></trkpt><trkpt lat="42.17468" lon="13.8300133"><ele>247.60000000000002</ele><time>2026-04-04T18:03:17.029Z</time></trkpt><trkpt lat="42.17462" lon="13.8298817"><ele>247.8</ele><time>2026-04-04T18:03:19.029Z</time></trkpt><trkpt lat="42.1745467" lon="13.8297633"><ele>248.0</ele><time>2026-04-04T18:03:21.029Z</time></trkpt><trkpt lat="42.1744733" lon="13.829645"><ele>248.0</ele><time>2026-04-04T18:03:23.029Z</time></trkpt><trkpt lat="42.1744083" lon="13.8295533"><ele>248.0</ele><time>2026-04-04T18:03:25.029Z</time></trkpt><trkpt lat="42.1744167" lon="13.8294183"><ele>248.0</ele><time>2026-04-04T18:03:27.029Z</time></trkpt><trkpt lat="42.1745033" lon="13.8292683"><ele>248.0</ele><time>2026-04-04T18:03:29.028Z</time></trkpt><trkpt lat="42.1745767" lon="13.8291833"><ele>248.0</ele><time>2026-04-04T18:03:30.029Z</time></trkpt><trkpt lat="42.1746333" lon="13.8290917"><ele>248.4</ele><time>2026-04-04T18:03:31.029Z</time></trkpt><trkpt lat="42.17468" lon="13.8289783"><ele>248.8</ele><time>2026-04-04T18:03:32.029Z</time></trkpt><trkpt lat="42.1747033" lon="13.8288517"><ele>249.2</ele><time>2026-04-04T18:03:33.029Z</time></trkpt><trkpt lat="42.1747233" lon="13.828715"><ele>249.6</ele><time>2026-04-04T18:03:34.029Z</time></trkpt><trkpt lat="42.1747233" lon="13.8285717"><ele>250.0</ele><time>2026-04-04T18:03:35.029Z</time></trkpt><trkpt lat="42.174735" lon="13.82842"><ele>250.8</ele><time>2026-04-04T18:03:36.029Z</time></trkpt><trkpt lat="42.1747583" lon="13.8282967"><ele>251.6</ele><time>2026-04-04T18:03:37.029Z</time></trkpt><trkpt lat="42.1748" lon="13.82818"><ele>252.39999999999998</ele><time>2026-04-04T18:03:38.029Z</time></trkpt><trkpt lat="42.17484" lon="13.828085"><ele>253.2</ele><time>2026-04-04T18:03:39.029Z</time></trkpt><trkpt lat="42.1748817" lon="13.8279717"><ele>254.0</ele><time>2026-04-04T18:03:41.029Z</time></trkpt><trkpt lat="42.17493" lon="13.8278683"><ele>254.39999999999998</ele><time>2026-04-04T18:03:44.029Z</time></trkpt><trkpt lat="42.1750067" lon="13.8278833"><ele>254.79999999999998</ele><time>2026-04-04T18:03:47.029Z</time></trkpt><trkpt lat="42.1750433" lon="13.82805"><ele>255.20000000000002</ele><time>2026-04-04T18:03:49.028Z</time></trkpt><trkpt lat="42.1750717" lon="13.8281717"><ele>255.60000000000002</ele><time>2026-04-04T18:03:50.029Z</time></trkpt><trkpt lat="42.175095" lon="13.82829"><ele>256.0</ele><time>2026-04-04T18:03:51.029Z</time></trkpt><trkpt lat="42.17512" lon="13.8284117"><ele>255.49999999999997</ele><time>2026-04-04T18:03:52.029Z</time></trkpt><trkpt lat="42.17514" lon="13.8285333"><ele>255.0</ele><time>2026-04-04T18:03:53.029Z</time></trkpt><trkpt lat="42.17516" lon="13.8286583"><ele>254.5</ele><time>2026-04-04T18:03:54.029Z</time></trkpt><trkpt lat="42.175185" lon="13.828775"><ele>254.0</ele><time>2026-04-04T18:03:55.029Z</time></trkpt><trkpt lat="42.1752117" lon="13.828865"><ele>253.49999999999997</ele><time>2026-04-04T18:03:56.029Z</time></trkpt><trkpt lat="42.1752233" lon="13.8289917"><ele>253.0</ele><time>2026-04-04T18:03:58.029Z</time></trkpt><trkpt lat="42.175235" lon="13.829085"><ele>252.99999999999997</ele><time>2026-04-04T18:04:00.029Z</time></trkpt><trkpt lat="42.1752633" lon="13.829195"><ele>253.0</ele><time>2026-04-04T18:04:03.029Z</time></trkpt><trkpt lat="42.1752833" lon="13.8292783"><ele>253.0</ele><time>2026-04-04T18:04:05.029Z</time></trkpt><trkpt lat="42.1753267" lon="13.8293433"><ele>253.0</ele><time>2026-04-04T18:04:08.029Z</time></trkpt><trkpt lat="42.17543" lon="13.8293417"><ele>252.99999999999997</ele><time>2026-04-04T18:04:26.029Z</time></trkpt><trkpt lat="42.1754983" lon="13.82932"><ele>253.0</ele><time>2026-04-04T18:04:27.029Z</time></trkpt><trkpt lat="42.1755717" lon="13.8292867"><ele>252.99999999999997</ele><time>2026-04-04T18:04:28.029Z</time></trkpt><trkpt lat="42.17566" lon="13.8292817"><ele>253.0</ele><time>2026-04-04T18:04:29.029Z</time></trkpt><trkpt lat="42.1757367" lon="13.8293017"><ele>253.0</ele><time>2026-04-04T18:04:30.029Z</time></trkpt><trkpt lat="42.1757983" lon="13.8293617"><ele>253.0</ele><time>2026-04-04T18:04:31.029Z</time></trkpt><trkpt lat="42.1758567" lon="13.8294517"><ele>252.99999999999997</ele><time>2026-04-04T18:04:32.029Z</time></trkpt><trkpt lat="42.1759017" lon="13.8295583"><ele>253.0</ele><time>2026-04-04T18:04:33.029Z</time></trkpt><trkpt lat="42.17594" lon="13.82966"><ele>252.66666666666666</ele><time>2026-04-04T18:04:34.029Z</time></trkpt><trkpt lat="42.1759783" lon="13.82974"><ele>252.33333333333331</ele><time>2026-04-04T18:04:35.029Z</time></trkpt><trkpt lat="42.1760167" lon="13.8298133"><ele>252.0</ele><time>2026-04-04T18:04:36.029Z</time></trkpt><trkpt lat="42.1761033" lon="13.8299317"><ele>251.66666666666669</ele><time>2026-04-04T18:04:38.029Z</time></trkpt><trkpt lat="42.1761583" lon="13.8299917"><ele>251.33333333333334</ele><time>2026-04-04T18:04:39.029Z</time></trkpt><trkpt lat="42.17622" lon="13.8300633"><ele>251.0</ele><time>2026-04-04T18:04:40.029Z</time></trkpt><trkpt lat="42.17628" lon="13.8301467"><ele>251.0</ele><time>2026-04-04T18:04:41.029Z</time></trkpt><trkpt lat="42.1763467" lon="13.8302283"><ele>251.00000000000003</ele><time>2026-04-04T18:04:42.029Z</time></trkpt><trkpt lat="42.1764017" lon="13.8303217"><ele>251.00000000000003</ele><time>2026-04-04T18:04:43.029Z</time></trkpt><trkpt lat="42.1764533" lon="13.8304283"><ele>251.0</ele><time>2026-04-04T18:04:44.029Z</time></trkpt><trkpt lat="42.176495" lon="13.8305383"><ele>251.0</ele><time>2026-04-04T18:04:45.029Z</time></trkpt><trkpt lat="42.1765217" lon="13.8306517"><ele>255.5</ele><time>2026-04-04T18:04:46.029Z</time></trkpt><trkpt lat="42.1765533" lon="13.830775"><ele>260.0</ele><time>2026-04-04T18:04:47.029Z</time></trkpt><trkpt lat="42.17662" lon="13.8310417"><ele>264.5</ele><time>2026-04-04T18:04:49.029Z</time></trkpt><trkpt lat="42.1766483" lon="13.8311717"><ele>269.0</ele><time>2026-04-04T18:04:50.029Z</time></trkpt><trkpt lat="42.1766817" lon="13.8313"><ele>269.0</ele><time>2026-04-04T18:04:51.029Z</time></trkpt><trkpt lat="42.17671" lon="13.8314183"><ele>269.0</ele><time>2026-04-04T18:04:52.029Z</time></trkpt><trkpt lat="42.17674" lon="13.831535"><ele>269.0</ele><time>2026-04-04T18:04:53.029Z</time></trkpt><trkpt lat="42.1767667" lon="13.8316483"><ele>269.0</ele><time>2026-04-04T18:04:54.029Z</time></trkpt><trkpt lat="42.1767933" lon="13.8317617"><ele>269.0</ele><time>2026-04-04T18:04:55.029Z</time></trkpt><trkpt lat="42.1768233" lon="13.8318733"><ele>269.0</ele><time>2026-04-04T18:04:56.029Z</time></trkpt><trkpt lat="42.1768467" lon="13.8319933"><ele>268.4</ele><time>2026-04-04T18:04:57.028Z</time></trkpt><trkpt lat="42.176875" lon="13.8321183"><ele>267.79999999999995</ele><time>2026-04-04T18:04:58.029Z</time></trkpt><trkpt lat="42.1769333" lon="13.8323633"><ele>267.20000000000005</ele><time>2026-04-04T18:05:00.029Z</time></trkpt><trkpt lat="42.1769583" lon="13.832465"><ele>266.6</ele><time>2026-04-04T18:05:01.029Z</time></trkpt><trkpt lat="42.176985" lon="13.8325533"><ele>266.0</ele><time>2026-04-04T18:05:02.029Z</time></trkpt><trkpt lat="42.17701" lon="13.8326417"><ele>266.0</ele><time>2026-04-04T18:05:03.029Z</time></trkpt><trkpt lat="42.1770517" lon="13.832775"><ele>266.0</ele><time>2026-04-04T18:05:05.029Z</time></trkpt><trkpt lat="42.1770767" lon="13.8328533"><ele>266.0</ele><time>2026-04-04T18:05:07.029Z</time></trkpt><trkpt lat="42.1771" lon="13.8329383"><ele>266.0</ele><time>2026-04-04T18:05:10.028Z</time></trkpt><trkpt lat="42.1770317" lon="13.8329283"><ele>266.0</ele><time>2026-04-04T18:05:16.029Z</time></trkpt><trkpt lat="42.1769733" lon="13.8328583"><ele>266.0</ele><time>2026-04-04T18:05:19.029Z</time></trkpt><trkpt lat="42.17691" lon="13.83286"><ele>266.0</ele><time>2026-04-04T18:05:23.029Z</time></trkpt><trkpt lat="42.176915" lon="13.83295"><ele>266.0</ele><time>2026-04-04T18:05:34.029Z</time></trkpt></trkseg></trk></gpx>